<?xml version="1.0" encoding="UTF-8"?>
<gpx version="1.1" creator="https://www.youtrack.es" xsi:schemaLocation="http://www.topografix.com/GPX/1/1 http://www.topografix.com/GPX/1/1/gpx.xsd http://www.garmin.com/xmlschemas/GpxExtensions/v3 http://www.garmin.com/xmlschemas/GpxExtensionsv3.xsd http://www.garmin.com/xmlschemas/TrackPointExtension/v1 http://www.garmin.com/xmlschemas/TrackPointExtensionv1.xsd" xmlns:gpxtpx="http://www.garmin.com/xmlschemas/TrackPointExtension/v1" xmlns:gpxx="http://www.garmin.com/xmlschemas/GpxExtensions/v3" xmlns:xsi="http://www.w3.org/2001/XMLSchema-instance">
  <metadata>
    <author>
      <name>Joana Daina</name>
      <email id="ainuflis99" domain="gmail.com"/>
    </author>
    <link href="https://www.youtrack.es">
      <text>YouTrack.es</text>
    </link>
    <time>2026-05-08T18:33:01Z</time>
  </metadata>
  <trk>
    <src>https://www.youtrack.es</src>
    <link href="https://www.youtrack.es/ruta/19565-aniol-gr11">
      <text>YouTrack.es</text>
    </link>
    <trkseg>
      <trkpt lat="43.391417" lon="-1.792049">
        <ele>29.058</ele>
        <time>2010-06-10T15:36:56Z</time>
      </trkpt>
      <trkpt lat="43.389653" lon="-1.791343">
        <ele>47.052</ele>
        <time>2010-06-10T15:39:59Z</time>
      </trkpt>
      <trkpt lat="43.388508" lon="-1.791582">
        <ele>45.017</ele>
        <time>2010-06-10T15:41:56Z</time>
      </trkpt>
      <trkpt lat="43.384487" lon="-1.796662">
        <ele>57.006</ele>
        <time>2010-06-10T15:51:02Z</time>
      </trkpt>
      <trkpt lat="43.380585" lon="-1.800257">
        <ele>59.064</ele>
        <time>2010-06-10T15:58:51Z</time>
      </trkpt>
      <trkpt lat="43.378039" lon="-1.799968">
        <ele>33.081</ele>
        <time>2010-06-10T16:03:08Z</time>
      </trkpt>
      <trkpt lat="43.377732" lon="-1.800776">
        <ele>33.058</ele>
        <time>2010-06-10T16:04:14Z</time>
      </trkpt>
      <trkpt lat="43.377194" lon="-1.801003">
        <ele>30.076</ele>
        <time>2010-06-10T16:05:10Z</time>
      </trkpt>
      <trkpt lat="43.376558" lon="-1.800460">
        <ele>20.064</ele>
        <time>2010-06-10T16:06:25Z</time>
      </trkpt>
      <trkpt lat="43.375700" lon="-1.800168">
        <ele>18.066</ele>
        <time>2010-06-10T16:07:54Z</time>
      </trkpt>
      <trkpt lat="43.375667" lon="-1.799212">
        <ele>15.077</ele>
        <time>2010-06-10T16:09:04Z</time>
      </trkpt>
      <trkpt lat="43.374425" lon="-1.796645">
        <ele>9.061</ele>
        <time>2010-06-10T16:12:47Z</time>
      </trkpt>
      <trkpt lat="43.373544" lon="-1.796354">
        <ele>12.027</ele>
        <time>2010-06-10T16:14:19Z</time>
      </trkpt>
      <trkpt lat="43.371695" lon="-1.793922">
        <ele>7.006</ele>
        <time>2010-06-10T16:18:34Z</time>
      </trkpt>
      <trkpt lat="43.366848" lon="-1.793308">
        <ele>12.046</ele>
        <time>2010-06-10T16:26:41Z</time>
      </trkpt>
      <trkpt lat="43.363504" lon="-1.790011">
        <ele>10.053</ele>
        <time>2010-06-10T16:33:34Z</time>
      </trkpt>
      <trkpt lat="43.362714" lon="-1.789811">
        <ele>10.060</ele>
        <time>2010-06-10T16:34:53Z</time>
      </trkpt>
      <trkpt lat="43.360650" lon="-1.790407">
        <ele>5.058</ele>
        <time>2010-06-10T16:38:25Z</time>
      </trkpt>
      <trkpt lat="43.356133" lon="-1.795464">
        <ele>6.056</ele>
        <time>2010-06-10T16:48:08Z</time>
      </trkpt>
      <trkpt lat="43.352546" lon="-1.796800">
        <ele>12.038</ele>
        <time>2010-06-10T16:54:20Z</time>
      </trkpt>
      <trkpt lat="43.350278" lon="-1.799559">
        <ele>3.074</ele>
        <time>2010-06-10T16:59:23Z</time>
      </trkpt>
      <trkpt lat="43.346251" lon="-1.801890">
        <ele>8.056</ele>
        <time>2010-06-10T17:06:39Z</time>
      </trkpt>
      <trkpt lat="43.345437" lon="-1.801598">
        <ele>8.021</ele>
        <time>2010-06-10T17:08:03Z</time>
      </trkpt>
      <trkpt lat="43.345564" lon="-1.800793">
        <ele>11.006</ele>
        <time>2010-06-10T17:09:04Z</time>
      </trkpt>
      <trkpt lat="43.345896" lon="-1.800262">
        <ele>8.026</ele>
        <time>2010-06-10T17:09:55Z</time>
      </trkpt>
      <trkpt lat="43.345599" lon="-1.799805">
        <ele>11.073</ele>
        <time>2010-06-10T17:10:39Z</time>
      </trkpt>
      <trkpt lat="43.344854" lon="-1.797476">
        <ele>12.080</ele>
        <time>2010-06-10T17:13:45Z</time>
      </trkpt>
      <trkpt lat="43.345132" lon="-1.793985">
        <ele>21.028</ele>
        <time>2010-06-10T17:18:00Z</time>
      </trkpt>
      <trkpt lat="43.344030" lon="-1.791909">
        <ele>16.076</ele>
        <time>2010-06-10T17:21:08Z</time>
      </trkpt>
      <trkpt lat="43.343745" lon="-1.788337">
        <ele>12.048</ele>
        <time>2010-06-10T17:25:29Z</time>
      </trkpt>
      <trkpt lat="43.343297" lon="-1.786465">
        <ele>10.091</ele>
        <time>2010-06-10T17:27:52Z</time>
      </trkpt>
      <trkpt lat="43.340854" lon="-1.781116">
        <ele>7.081</ele>
        <time>2010-06-10T17:35:31Z</time>
      </trkpt>
      <trkpt lat="43.340758" lon="-1.778496">
        <ele>8.019</ele>
        <time>2010-06-10T17:38:42Z</time>
      </trkpt>
      <trkpt lat="43.337849" lon="-1.777969">
        <ele>8.006</ele>
        <time>2010-06-10T17:43:36Z</time>
      </trkpt>
      <trkpt lat="43.334468" lon="-1.777574">
        <ele>16.028</ele>
        <time>2010-06-10T17:49:16Z</time>
      </trkpt>
      <trkpt lat="43.333519" lon="-1.777254">
        <ele>24.065</ele>
        <time>2010-06-10T17:50:54Z</time>
      </trkpt>
      <trkpt lat="43.332759" lon="-1.775665">
        <ele>50.032</ele>
        <time>2010-06-10T17:53:13Z</time>
      </trkpt>
      <trkpt lat="43.333323" lon="-1.775747">
        <ele>41.060</ele>
        <time>2010-06-10T17:54:09Z</time>
      </trkpt>
      <trkpt lat="43.333727" lon="-1.775615">
        <ele>44.048</ele>
        <time>2010-06-10T17:54:50Z</time>
      </trkpt>
      <trkpt lat="43.333745" lon="-1.775183">
        <ele>49.080</ele>
        <time>2010-06-10T17:55:22Z</time>
      </trkpt>
      <trkpt lat="43.332598" lon="-1.773263">
        <ele>79.087</ele>
        <time>2010-06-10T17:58:23Z</time>
      </trkpt>
      <trkpt lat="43.332528" lon="-1.770890">
        <ele>112.042</ele>
        <time>2010-06-10T18:01:15Z</time>
      </trkpt>
      <trkpt lat="43.332293" lon="-1.770001">
        <ele>125.026</ele>
        <time>2010-06-10T18:02:25Z</time>
      </trkpt>
      <trkpt lat="43.331958" lon="-1.770223">
        <ele>123.006</ele>
        <time>2010-06-10T18:03:02Z</time>
      </trkpt>
      <trkpt lat="43.331113" lon="-1.769069">
        <ele>145.057</ele>
        <time>2010-06-10T18:05:01Z</time>
      </trkpt>
      <trkpt lat="43.330345" lon="-1.768899">
        <ele>141.064</ele>
        <time>2010-06-10T18:06:19Z</time>
      </trkpt>
      <trkpt lat="43.329745" lon="-1.767462">
        <ele>147.061</ele>
        <time>2010-06-10T18:08:20Z</time>
      </trkpt>
      <trkpt lat="43.328879" lon="-1.766523">
        <ele>149.089</ele>
        <time>2010-06-10T18:10:10Z</time>
      </trkpt>
      <trkpt lat="43.328020" lon="-1.766202">
        <ele>139.017</ele>
        <time>2010-06-10T18:11:39Z</time>
      </trkpt>
      <trkpt lat="43.327472" lon="-1.765442">
        <ele>137.029</ele>
        <time>2010-06-10T18:12:57Z</time>
      </trkpt>
      <trkpt lat="43.326655" lon="-1.764811">
        <ele>139.021</ele>
        <time>2010-06-10T18:14:31Z</time>
      </trkpt>
      <trkpt lat="43.326374" lon="-1.763830">
        <ele>152.041</ele>
        <time>2010-06-10T18:15:48Z</time>
      </trkpt>
      <trkpt lat="43.324379" lon="-1.762545">
        <ele>147.005</ele>
        <time>2010-06-10T18:19:27Z</time>
      </trkpt>
      <trkpt lat="43.322908" lon="-1.757641">
        <ele>163.006</ele>
        <time>2010-06-10T18:25:54Z</time>
      </trkpt>
      <trkpt lat="43.321929" lon="-1.756613">
        <ele>171.041</ele>
        <time>2010-06-10T18:27:57Z</time>
      </trkpt>
      <trkpt lat="43.320919" lon="-1.754845">
        <ele>181.028</ele>
        <time>2010-06-10T18:30:41Z</time>
      </trkpt>
      <trkpt lat="43.320406" lon="-1.755318">
        <ele>192.025</ele>
        <time>2010-06-10T18:31:43Z</time>
      </trkpt>
      <trkpt lat="43.319898" lon="-1.756161">
        <ele>198.043</ele>
        <time>2010-06-10T18:33:02Z</time>
      </trkpt>
      <trkpt lat="43.319382" lon="-1.756356">
        <ele>223.081</ele>
        <time>2010-06-10T18:33:56Z</time>
      </trkpt>
      <trkpt lat="43.318961" lon="-1.754916">
        <ele>247.073</ele>
        <time>2010-06-10T18:35:48Z</time>
      </trkpt>
      <trkpt lat="43.318534" lon="-1.754925">
        <ele>260.087</ele>
        <time>2010-06-10T18:36:32Z</time>
      </trkpt>
      <trkpt lat="43.317848" lon="-1.756079">
        <ele>301.042</ele>
        <time>2010-06-10T18:38:21Z</time>
      </trkpt>
      <trkpt lat="43.317459" lon="-1.757506">
        <ele>311.026</ele>
        <time>2010-06-10T18:40:12Z</time>
      </trkpt>
      <trkpt lat="43.317281" lon="-1.757725">
        <ele>324.006</ele>
        <time>2010-06-10T18:40:36Z</time>
      </trkpt>
      <trkpt lat="43.317167" lon="-1.757635">
        <ele>326.097</ele>
        <time>2010-06-10T18:40:49Z</time>
      </trkpt>
      <trkpt lat="43.317175" lon="-1.756278">
        <ele>325.084</ele>
        <time>2010-06-10T18:42:28Z</time>
      </trkpt>
      <trkpt lat="43.316508" lon="-1.754997">
        <ele>342.031</ele>
        <time>2010-06-10T18:44:22Z</time>
      </trkpt>
      <trkpt lat="43.315898" lon="-1.754793">
        <ele>351.099</ele>
        <time>2010-06-10T18:45:24Z</time>
      </trkpt>
      <trkpt lat="43.313438" lon="-1.756262">
        <ele>348.087</ele>
        <time>2010-06-10T18:49:53Z</time>
      </trkpt>
      <trkpt lat="43.312447" lon="-1.756190">
        <ele>355.059</ele>
        <time>2010-06-10T18:51:33Z</time>
      </trkpt>
      <trkpt lat="43.312130" lon="-1.756073">
        <ele>359.059</ele>
        <time>2010-06-10T18:52:05Z</time>
      </trkpt>
      <trkpt lat="43.310763" lon="-1.756594">
        <ele>385.003</ele>
        <time>2010-06-10T18:54:27Z</time>
      </trkpt>
      <trkpt lat="43.309567" lon="-1.756341">
        <ele>407.023</ele>
        <time>2010-06-10T18:56:28Z</time>
      </trkpt>
      <trkpt lat="43.308364" lon="-1.755471">
        <ele>423.006</ele>
        <time>2010-06-10T18:58:45Z</time>
      </trkpt>
      <trkpt lat="43.306901" lon="-1.755470">
        <ele>436.044</ele>
        <time>2010-06-10T19:01:10Z</time>
      </trkpt>
      <trkpt lat="43.305113" lon="-1.756617">
        <ele>438.081</ele>
        <time>2010-06-10T19:04:29Z</time>
      </trkpt>
      <trkpt lat="43.304670" lon="-1.757304">
        <ele>443.018</ele>
        <time>2010-06-10T19:05:36Z</time>
      </trkpt>
      <trkpt lat="43.304500" lon="-1.758201">
        <ele>450.056</ele>
        <time>2010-06-10T19:06:43Z</time>
      </trkpt>
      <trkpt lat="43.303203" lon="-1.761125">
        <ele>445.084</ele>
        <time>2010-06-10T19:10:52Z</time>
      </trkpt>
      <trkpt lat="43.301887" lon="-1.762230">
        <ele>432.026</ele>
        <time>2010-06-10T19:13:27Z</time>
      </trkpt>
      <trkpt lat="43.301055" lon="-1.764343">
        <ele>441.059</ele>
        <time>2010-06-10T19:16:22Z</time>
      </trkpt>
      <trkpt lat="43.300479" lon="-1.767344">
        <ele>437.003</ele>
        <time>2010-06-10T19:20:08Z</time>
      </trkpt>
      <trkpt lat="43.299582" lon="-1.767640">
        <ele>455.023</ele>
        <time>2010-06-10T19:21:39Z</time>
      </trkpt>
      <trkpt lat="43.298850" lon="-1.768641">
        <ele>462.006</ele>
        <time>2010-06-10T19:23:22Z</time>
      </trkpt>
      <trkpt lat="43.298066" lon="-1.768996">
        <ele>460.084</ele>
        <time>2010-06-10T19:24:45Z</time>
      </trkpt>
      <trkpt lat="43.297759" lon="-1.769773">
        <ele>459.051</ele>
        <time>2010-06-10T19:25:50Z</time>
      </trkpt>
      <trkpt lat="43.296095" lon="-1.769929">
        <ele>443.048</ele>
        <time>2010-06-10T19:28:36Z</time>
      </trkpt>
      <trkpt lat="43.295831" lon="-1.770062">
        <ele>427.076</ele>
        <time>2010-06-10T19:29:05Z</time>
      </trkpt>
      <trkpt lat="43.295314" lon="-1.770561">
        <ele>436.044</ele>
        <time>2010-06-10T19:30:08Z</time>
      </trkpt>
      <trkpt lat="43.292740" lon="-1.771939">
        <ele>410.056</ele>
        <time>2010-06-10T19:34:45Z</time>
      </trkpt>
      <trkpt lat="43.291795" lon="-1.772050">
        <ele>434.053</ele>
        <time>2010-06-10T19:36:19Z</time>
      </trkpt>
      <trkpt lat="43.291612" lon="-1.771745">
        <ele>433.004</ele>
        <time>2010-06-10T19:36:49Z</time>
      </trkpt>
      <trkpt lat="43.292075" lon="-1.770812">
        <ele>425.014</ele>
        <time>2010-06-10T19:38:11Z</time>
      </trkpt>
      <trkpt lat="43.292564" lon="-1.770216">
        <ele>416.006</ele>
        <time>2010-06-10T19:39:16Z</time>
      </trkpt>
      <trkpt lat="43.292884" lon="-1.768576">
        <ele>404.054</ele>
        <time>2010-06-10T19:41:20Z</time>
      </trkpt>
      <trkpt lat="43.292250" lon="-1.766155">
        <ele>339.011</ele>
        <time>2010-06-10T19:44:28Z</time>
      </trkpt>
      <trkpt lat="43.291933" lon="-1.766038">
        <ele>335.078</ele>
        <time>2010-06-10T19:45:00Z</time>
      </trkpt>
      <trkpt lat="43.291084" lon="-1.766579">
        <ele>393.076</ele>
        <time>2010-06-10T19:46:34Z</time>
      </trkpt>
      <trkpt lat="43.290152" lon="-1.765735">
        <ele>348.034</ele>
        <time>2010-06-10T19:48:25Z</time>
      </trkpt>
      <trkpt lat="43.289484" lon="-1.766457">
        <ele>349.046</ele>
        <time>2010-06-10T19:49:51Z</time>
      </trkpt>
      <trkpt lat="43.288725" lon="-1.768664">
        <ele>382.016</ele>
        <time>2010-06-10T19:52:48Z</time>
      </trkpt>
      <trkpt lat="43.288368" lon="-1.769376">
        <ele>400.076</ele>
        <time>2010-06-10T19:53:52Z</time>
      </trkpt>
      <trkpt lat="43.287760" lon="-1.769389">
        <ele>379.013</ele>
        <time>2010-06-10T19:54:52Z</time>
      </trkpt>
      <trkpt lat="43.286886" lon="-1.769807">
        <ele>346.006</ele>
        <time>2010-06-10T19:56:24Z</time>
      </trkpt>
      <trkpt lat="43.286583" lon="-1.770922">
        <ele>371.060</ele>
        <time>2010-06-10T19:57:52Z</time>
      </trkpt>
      <trkpt lat="43.286661" lon="-1.771387">
        <ele>378.047</ele>
        <time>2010-06-10T19:58:27Z</time>
      </trkpt>
      <trkpt lat="43.286176" lon="-1.772872">
        <ele>353.024</ele>
        <time>2010-06-10T20:00:25Z</time>
      </trkpt>
      <trkpt lat="43.285878" lon="-1.772354">
        <ele>322.042</ele>
        <time>2010-06-10T20:01:13Z</time>
      </trkpt>
      <trkpt lat="43.285615" lon="-1.773006">
        <ele>324.080</ele>
        <time>2010-06-10T20:02:08Z</time>
      </trkpt>
      <trkpt lat="43.284809" lon="-1.773392">
        <ele>327.072</ele>
        <time>2010-06-10T20:03:33Z</time>
      </trkpt>
      <trkpt lat="43.284064" lon="-1.772733">
        <ele>328.067</ele>
        <time>2010-06-10T20:05:02Z</time>
      </trkpt>
      <trkpt lat="43.283630" lon="-1.772615">
        <ele>324.081</ele>
        <time>2010-06-10T20:05:45Z</time>
      </trkpt>
      <trkpt lat="43.283090" lon="-1.772626">
        <ele>312.019</ele>
        <time>2010-06-10T20:06:39Z</time>
      </trkpt>
      <trkpt lat="43.281362" lon="-1.773184">
        <ele>296.006</ele>
        <time>2010-06-10T20:09:37Z</time>
      </trkpt>
      <trkpt lat="43.280896" lon="-1.773779">
        <ele>276.045</ele>
        <time>2010-06-10T20:10:41Z</time>
      </trkpt>
      <trkpt lat="43.280395" lon="-1.775360">
        <ele>254.012</ele>
        <time>2010-06-10T20:12:47Z</time>
      </trkpt>
      <trkpt lat="43.280172" lon="-1.775488">
        <ele>259.029</ele>
        <time>2010-06-10T20:13:10Z</time>
      </trkpt>
      <trkpt lat="43.279090" lon="-1.775356">
        <ele>260.077</ele>
        <time>2010-06-10T20:14:59Z</time>
      </trkpt>
      <trkpt lat="43.278479" lon="-1.775060">
        <ele>259.045</ele>
        <time>2010-06-10T20:16:05Z</time>
      </trkpt>
      <trkpt lat="43.277355" lon="-1.775237">
        <ele>268.087</ele>
        <time>2010-06-10T20:17:57Z</time>
      </trkpt>
      <trkpt lat="43.276946" lon="-1.774906">
        <ele>251.055</ele>
        <time>2010-06-10T20:18:45Z</time>
      </trkpt>
      <trkpt lat="43.277172" lon="-1.772868">
        <ele>235.007</ele>
        <time>2010-06-10T20:21:16Z</time>
      </trkpt>
      <trkpt lat="43.277099" lon="-1.772376">
        <ele>236.017</ele>
        <time>2010-06-10T20:21:51Z</time>
      </trkpt>
      <trkpt lat="43.276532" lon="-1.771926">
        <ele>235.006</ele>
        <time>2010-06-10T20:22:58Z</time>
      </trkpt>
      <trkpt lat="43.275702" lon="-1.770155">
        <ele>239.024</ele>
        <time>2010-06-10T20:25:31Z</time>
      </trkpt>
      <trkpt lat="43.275580" lon="-1.769264">
        <ele>249.051</ele>
        <time>2010-06-10T20:26:36Z</time>
      </trkpt>
      <trkpt lat="43.275307" lon="-1.768993">
        <ele>251.018</ele>
        <time>2010-06-10T20:27:11Z</time>
      </trkpt>
      <trkpt lat="43.274855" lon="-1.768848">
        <ele>249.026</ele>
        <time>2010-06-10T20:27:57Z</time>
      </trkpt>
      <trkpt lat="43.274520" lon="-1.769101">
        <ele>247.054</ele>
        <time>2010-06-10T20:28:35Z</time>
      </trkpt>
      <trkpt lat="43.274227" lon="-1.769014">
        <ele>251.026</ele>
        <time>2010-06-10T20:29:06Z</time>
      </trkpt>
      <trkpt lat="43.274150" lon="-1.768215">
        <ele>257.075</ele>
        <time>2010-06-10T20:30:03Z</time>
      </trkpt>
      <trkpt lat="43.274730" lon="-1.767710">
        <ele>268.028</ele>
        <time>2010-06-10T20:31:13Z</time>
      </trkpt>
      <trkpt lat="43.274950" lon="-1.767213">
        <ele>285.020</ele>
        <time>2010-06-10T20:31:54Z</time>
      </trkpt>
      <trkpt lat="43.274738" lon="-1.766355">
        <ele>300.006</ele>
        <time>2010-06-10T20:33:01Z</time>
      </trkpt>
      <trkpt lat="43.274753" lon="-1.765676">
        <ele>321.066</ele>
        <time>2010-06-10T20:33:51Z</time>
      </trkpt>
      <trkpt lat="43.274479" lon="-1.765281">
        <ele>320.043</ele>
        <time>2010-06-10T20:34:30Z</time>
      </trkpt>
      <trkpt lat="43.274285" lon="-1.763961">
        <ele>346.090</ele>
        <time>2010-06-10T20:36:09Z</time>
      </trkpt>
      <trkpt lat="43.274367" lon="-1.759122">
        <ele>419.058</ele>
        <time>2010-06-10T20:42:02Z</time>
      </trkpt>
      <trkpt lat="43.274206" lon="-1.758786">
        <ele>413.016</ele>
        <time>2010-06-10T20:42:31Z</time>
      </trkpt>
      <trkpt lat="43.273626" lon="-1.755101">
        <ele>397.058</ele>
        <time>2010-06-10T20:47:05Z</time>
      </trkpt>
      <trkpt lat="43.273397" lon="-1.754767">
        <ele>394.046</ele>
        <time>2010-06-10T20:47:38Z</time>
      </trkpt>
      <trkpt lat="43.272311" lon="-1.754235">
        <ele>399.088</ele>
        <time>2010-06-10T20:49:33Z</time>
      </trkpt>
      <trkpt lat="43.272256" lon="-1.753312">
        <ele>403.016</ele>
        <time>2010-06-10T20:50:42Z</time>
      </trkpt>
      <trkpt lat="43.272462" lon="-1.751582">
        <ele>403.006</ele>
        <time>2010-06-10T20:52:49Z</time>
      </trkpt>
      <trkpt lat="43.272658" lon="-1.751024">
        <ele>401.073</ele>
        <time>2010-06-10T20:53:35Z</time>
      </trkpt>
      <trkpt lat="43.272362" lon="-1.750660">
        <ele>402.010</ele>
        <time>2010-06-10T20:54:13Z</time>
      </trkpt>
      <trkpt lat="43.271911" lon="-1.750577">
        <ele>409.047</ele>
        <time>2010-06-10T20:54:59Z</time>
      </trkpt>
      <trkpt lat="43.271373" lon="-1.750834">
        <ele>428.075</ele>
        <time>2010-06-10T20:55:57Z</time>
      </trkpt>
      <trkpt lat="43.270966" lon="-1.750689">
        <ele>443.043</ele>
        <time>2010-06-10T20:56:38Z</time>
      </trkpt>
      <trkpt lat="43.270079" lon="-1.747811">
        <ele>448.095</ele>
        <time>2010-06-10T21:00:27Z</time>
      </trkpt>
      <trkpt lat="43.269734" lon="-1.747079">
        <ele>446.046</ele>
        <time>2010-06-10T21:01:29Z</time>
      </trkpt>
      <trkpt lat="43.269463" lon="-1.747023">
        <ele>444.088</ele>
        <time>2010-06-10T21:01:58Z</time>
      </trkpt>
      <trkpt lat="43.268857" lon="-1.745094">
        <ele>433.016</ele>
        <time>2010-06-10T21:04:31Z</time>
      </trkpt>
      <trkpt lat="43.268488" lon="-1.744332">
        <ele>430.006</ele>
        <time>2010-06-10T21:05:38Z</time>
      </trkpt>
      <trkpt lat="43.268501" lon="-1.743438">
        <ele>431.023</ele>
        <time>2010-06-10T21:06:43Z</time>
      </trkpt>
      <trkpt lat="43.267961" lon="-1.741478">
        <ele>430.080</ele>
        <time>2010-06-10T21:09:14Z</time>
      </trkpt>
      <trkpt lat="43.267576" lon="-1.739144">
        <ele>432.027</ele>
        <time>2010-06-10T21:12:09Z</time>
      </trkpt>
      <trkpt lat="43.267299" lon="-1.738534">
        <ele>434.095</ele>
        <time>2010-06-10T21:13:02Z</time>
      </trkpt>
      <trkpt lat="43.266384" lon="-1.737259">
        <ele>442.053</ele>
        <time>2010-06-10T21:15:13Z</time>
      </trkpt>
      <trkpt lat="43.265413" lon="-1.736451">
        <ele>430.095</ele>
        <time>2010-06-10T21:17:06Z</time>
      </trkpt>
      <trkpt lat="43.265176" lon="-1.735929">
        <ele>445.039</ele>
        <time>2010-06-10T21:17:50Z</time>
      </trkpt>
      <trkpt lat="43.265081" lon="-1.735438">
        <ele>442.001</ele>
        <time>2010-06-10T21:18:27Z</time>
      </trkpt>
      <trkpt lat="43.265100" lon="-1.735099">
        <ele>442.021</ele>
        <time>2010-06-10T21:18:52Z</time>
      </trkpt>
      <trkpt lat="43.265209" lon="-1.734788">
        <ele>447.006</ele>
        <time>2010-06-10T21:19:18Z</time>
      </trkpt>
      <trkpt lat="43.265500" lon="-1.734690">
        <ele>455.082</ele>
        <time>2010-06-10T21:19:48Z</time>
      </trkpt>
      <trkpt lat="43.266842" lon="-1.733861">
        <ele>454.059</ele>
        <time>2010-06-10T21:22:14Z</time>
      </trkpt>
      <trkpt lat="43.267040" lon="-1.733426">
        <ele>431.036</ele>
        <time>2010-06-10T21:22:53Z</time>
      </trkpt>
      <trkpt lat="43.266411" lon="-1.729558">
        <ele>336.054</ele>
        <time>2010-06-10T21:27:41Z</time>
      </trkpt>
      <trkpt lat="43.266013" lon="-1.728118">
        <ele>321.062</ele>
        <time>2010-06-10T21:29:34Z</time>
      </trkpt>
      <trkpt lat="43.265935" lon="-1.727195">
        <ele>323.054</ele>
        <time>2010-06-10T21:30:41Z</time>
      </trkpt>
      <trkpt lat="43.264320" lon="-1.723656">
        <ele>320.016</ele>
        <time>2010-06-10T21:35:45Z</time>
      </trkpt>
      <trkpt lat="43.264054" lon="-1.721998">
        <ele>324.076</ele>
        <time>2010-06-10T21:37:49Z</time>
      </trkpt>
      <trkpt lat="43.264226" lon="-1.719284">
        <ele>332.013</ele>
        <time>2010-06-10T21:41:08Z</time>
      </trkpt>
      <trkpt lat="43.264456" lon="-1.717739">
        <ele>314.006</ele>
        <time>2010-06-10T21:43:03Z</time>
      </trkpt>
      <trkpt lat="43.264038" lon="-1.716577">
        <ele>308.080</ele>
        <time>2010-06-10T21:44:36Z</time>
      </trkpt>
      <trkpt lat="43.264345" lon="-1.715862">
        <ele>298.067</ele>
        <time>2010-06-10T21:45:37Z</time>
      </trkpt>
      <trkpt lat="43.264447" lon="-1.714874">
        <ele>297.014</ele>
        <time>2010-06-10T21:46:50Z</time>
      </trkpt>
      <trkpt lat="43.265953" lon="-1.712717">
        <ele>311.022</ele>
        <time>2010-06-10T21:50:27Z</time>
      </trkpt>
      <trkpt lat="43.266057" lon="-1.711945">
        <ele>310.050</ele>
        <time>2010-06-10T21:51:26Z</time>
      </trkpt>
      <trkpt lat="43.266172" lon="-1.710187">
        <ele>329.052</ele>
        <time>2010-06-10T21:53:34Z</time>
      </trkpt>
      <trkpt lat="43.265882" lon="-1.708375">
        <ele>307.048</ele>
        <time>2010-06-10T21:55:48Z</time>
      </trkpt>
      <trkpt lat="43.265869" lon="-1.707236">
        <ele>321.061</ele>
        <time>2010-06-10T21:57:11Z</time>
      </trkpt>
      <trkpt lat="43.266789" lon="-1.704998">
        <ele>301.017</ele>
        <time>2010-06-10T22:00:19Z</time>
      </trkpt>
      <trkpt lat="43.267990" lon="-1.703679">
        <ele>309.006</ele>
        <time>2010-06-10T22:02:53Z</time>
      </trkpt>
      <trkpt lat="43.269152" lon="-1.702977">
        <ele>280.043</ele>
        <time>2010-06-10T22:05:01Z</time>
      </trkpt>
      <trkpt lat="43.270094" lon="-1.700708">
        <ele>225.020</ele>
        <time>2010-06-10T22:08:10Z</time>
      </trkpt>
      <trkpt lat="43.271371" lon="-1.696183">
        <ele>176.037</ele>
        <time>2010-06-10T22:14:05Z</time>
      </trkpt>
      <trkpt lat="43.272014" lon="-1.695276">
        <ele>151.075</ele>
        <time>2010-06-10T22:15:36Z</time>
      </trkpt>
      <trkpt lat="43.273514" lon="-1.694597">
        <ele>104.073</ele>
        <time>2010-06-10T22:18:15Z</time>
      </trkpt>
      <trkpt lat="43.274224" lon="-1.693688">
        <ele>82.085</ele>
        <time>2010-06-10T22:19:52Z</time>
      </trkpt>
      <trkpt lat="43.274671" lon="-1.693371">
        <ele>78.083</ele>
        <time>2010-06-10T22:20:42Z</time>
      </trkpt>
      <trkpt lat="43.275415" lon="-1.693509">
        <ele>71.025</ele>
        <time>2010-06-10T22:21:58Z</time>
      </trkpt>
      <trkpt lat="43.277521" lon="-1.692601">
        <ele>57.017</ele>
        <time>2010-06-10T22:25:38Z</time>
      </trkpt>
      <trkpt lat="43.278033" lon="-1.692097">
        <ele>48.006</ele>
        <time>2010-06-10T22:26:41Z</time>
      </trkpt>
      <trkpt lat="43.278158" lon="-1.691262">
        <ele>43.037</ele>
        <time>2010-06-10T22:27:43Z</time>
      </trkpt>
      <trkpt lat="43.277860" lon="-1.690807">
        <ele>50.024</ele>
        <time>2010-06-10T22:28:28Z</time>
      </trkpt>
      <trkpt lat="43.277160" lon="-1.690544">
        <ele>57.021</ele>
        <time>2010-06-10T22:29:41Z</time>
      </trkpt>
      <trkpt lat="43.277331" lon="-1.689801">
        <ele>33.029</ele>
        <time>2010-06-10T22:30:37Z</time>
      </trkpt>
      <trkpt lat="43.277689" lon="-1.689609">
        <ele>27.047</ele>
        <time>2010-06-10T22:31:15Z</time>
      </trkpt>
      <trkpt lat="43.277806" lon="-1.688780">
        <ele>34.069</ele>
        <time>2010-06-10T22:32:17Z</time>
      </trkpt>
      <trkpt lat="43.278760" lon="-1.688785">
        <ele>34.056</ele>
        <time>2010-06-10T22:33:53Z</time>
      </trkpt>
      <trkpt lat="43.279991" lon="-1.688173">
        <ele>36.059</ele>
        <time>2010-06-10T22:36:03Z</time>
      </trkpt>
      <trkpt lat="43.280297" lon="-1.683452">
        <ele>54.014</ele>
        <time>2010-06-10T22:41:49Z</time>
      </trkpt>
      <trkpt lat="43.280487" lon="-1.682339">
        <ele>53.006</ele>
        <time>2010-06-10T22:43:13Z</time>
      </trkpt>
      <trkpt lat="43.278900" lon="-1.681356">
        <ele>53.064</ele>
        <time>2010-06-10T22:46:07Z</time>
      </trkpt>
      <trkpt lat="43.276783" lon="-1.681310">
        <ele>89.041</ele>
        <time>2010-06-10T22:49:38Z</time>
      </trkpt>
      <trkpt lat="43.275740" lon="-1.680654">
        <ele>82.018</ele>
        <time>2010-06-10T22:51:34Z</time>
      </trkpt>
      <trkpt lat="43.274729" lon="-1.680799">
        <ele>84.076</ele>
        <time>2010-06-10T22:53:15Z</time>
      </trkpt>
      <trkpt lat="43.273983" lon="-1.680538">
        <ele>93.054</ele>
        <time>2010-06-10T22:54:31Z</time>
      </trkpt>
      <trkpt lat="43.272249" lon="-1.678512">
        <ele>140.026</ele>
        <time>2010-06-10T22:58:19Z</time>
      </trkpt>
      <trkpt lat="43.271977" lon="-1.678394">
        <ele>156.077</ele>
        <time>2010-06-10T22:58:49Z</time>
      </trkpt>
      <trkpt lat="43.270113" lon="-1.676802">
        <ele>220.061</ele>
        <time>2010-06-10T23:02:27Z</time>
      </trkpt>
      <trkpt lat="43.269788" lon="-1.675946">
        <ele>236.027</ele>
        <time>2010-06-10T23:03:39Z</time>
      </trkpt>
      <trkpt lat="43.269308" lon="-1.675341">
        <ele>254.006</ele>
        <time>2010-06-10T23:04:44Z</time>
      </trkpt>
      <trkpt lat="43.268280" lon="-1.672067">
        <ele>318.086</ele>
        <time>2010-06-10T23:09:04Z</time>
      </trkpt>
      <trkpt lat="43.268423" lon="-1.670862">
        <ele>318.063</ele>
        <time>2010-06-10T23:10:33Z</time>
      </trkpt>
      <trkpt lat="43.267521" lon="-1.668787">
        <ele>345.060</ele>
        <time>2010-06-10T23:13:29Z</time>
      </trkpt>
      <trkpt lat="43.266967" lon="-1.665688">
        <ele>332.048</ele>
        <time>2010-06-10T23:17:20Z</time>
      </trkpt>
      <trkpt lat="43.267050" lon="-1.665070">
        <ele>335.016</ele>
        <time>2010-06-10T23:18:07Z</time>
      </trkpt>
      <trkpt lat="43.267767" lon="-1.662836">
        <ele>334.038</ele>
        <time>2010-06-10T23:21:05Z</time>
      </trkpt>
      <trkpt lat="43.267996" lon="-1.661230">
        <ele>337.057</ele>
        <time>2010-06-10T23:23:03Z</time>
      </trkpt>
      <trkpt lat="43.268613" lon="-1.660138">
        <ele>329.000</ele>
        <time>2010-06-10T23:24:45Z</time>
      </trkpt>
      <trkpt lat="43.268918" lon="-1.659269">
        <ele>326.020</ele>
        <time>2010-06-10T23:25:55Z</time>
      </trkpt>
      <trkpt lat="43.269443" lon="-1.655992">
        <ele>322.006</ele>
        <time>2010-06-10T23:30:00Z</time>
      </trkpt>
      <trkpt lat="43.269366" lon="-1.655192">
        <ele>317.034</ele>
        <time>2010-06-10T23:30:59Z</time>
      </trkpt>
      <trkpt lat="43.268635" lon="-1.654284">
        <ele>317.061</ele>
        <time>2010-06-10T23:32:36Z</time>
      </trkpt>
      <trkpt lat="43.268116" lon="-1.654234">
        <ele>313.068</ele>
        <time>2010-06-10T23:33:28Z</time>
      </trkpt>
      <trkpt lat="43.267662" lon="-1.653875">
        <ele>309.056</ele>
        <time>2010-06-10T23:34:21Z</time>
      </trkpt>
      <trkpt lat="43.267533" lon="-1.652460">
        <ele>303.094</ele>
        <time>2010-06-10T23:36:06Z</time>
      </trkpt>
      <trkpt lat="43.267842" lon="-1.651961">
        <ele>301.086</ele>
        <time>2010-06-10T23:36:52Z</time>
      </trkpt>
      <trkpt lat="43.268155" lon="-1.651769">
        <ele>292.056</ele>
        <time>2010-06-10T23:37:27Z</time>
      </trkpt>
      <trkpt lat="43.268106" lon="-1.651431">
        <ele>288.059</ele>
        <time>2010-06-10T23:37:53Z</time>
      </trkpt>
      <trkpt lat="43.267511" lon="-1.650613">
        <ele>278.014</ele>
        <time>2010-06-10T23:39:17Z</time>
      </trkpt>
      <trkpt lat="43.267593" lon="-1.649933">
        <ele>271.006</ele>
        <time>2010-06-10T23:40:06Z</time>
      </trkpt>
      <trkpt lat="43.267537" lon="-1.648979">
        <ele>275.034</ele>
        <time>2010-06-10T23:41:16Z</time>
      </trkpt>
      <trkpt lat="43.267997" lon="-1.647922">
        <ele>281.041</ele>
        <time>2010-06-10T23:42:47Z</time>
      </trkpt>
      <trkpt lat="43.268034" lon="-1.647243">
        <ele>286.028</ele>
        <time>2010-06-10T23:43:35Z</time>
      </trkpt>
      <trkpt lat="43.268449" lon="-1.646187">
        <ele>299.086</ele>
        <time>2010-06-10T23:45:04Z</time>
      </trkpt>
      <trkpt lat="43.268909" lon="-1.643250">
        <ele>330.024</ele>
        <time>2010-06-10T23:48:42Z</time>
      </trkpt>
      <trkpt lat="43.269190" lon="-1.642258">
        <ele>341.046</ele>
        <time>2010-06-10T23:50:00Z</time>
      </trkpt>
      <trkpt lat="43.269477" lon="-1.641789">
        <ele>349.089</ele>
        <time>2010-06-10T23:50:45Z</time>
      </trkpt>
      <trkpt lat="43.270176" lon="-1.639956">
        <ele>368.006</ele>
        <time>2010-06-10T23:53:16Z</time>
      </trkpt>
      <trkpt lat="43.270364" lon="-1.638720">
        <ele>373.026</ele>
        <time>2010-06-10T23:54:47Z</time>
      </trkpt>
      <trkpt lat="43.270604" lon="-1.638098">
        <ele>376.006</ele>
        <time>2010-06-10T23:55:38Z</time>
      </trkpt>
      <trkpt lat="43.271317" lon="-1.637436">
        <ele>374.077</ele>
        <time>2010-06-10T23:57:05Z</time>
      </trkpt>
      <trkpt lat="43.271286" lon="-1.636789">
        <ele>387.084</ele>
        <time>2010-06-10T23:57:51Z</time>
      </trkpt>
      <trkpt lat="43.270986" lon="-1.636118">
        <ele>398.011</ele>
        <time>2010-06-10T23:58:49Z</time>
      </trkpt>
      <trkpt lat="43.270930" lon="-1.635195">
        <ele>407.059</ele>
        <time>2010-06-10T23:59:57Z</time>
      </trkpt>
      <trkpt lat="43.269924" lon="-1.633893">
        <ele>422.057</ele>
        <time>2010-06-11T00:02:16Z</time>
      </trkpt>
      <trkpt lat="43.271396" lon="-1.634661">
        <ele>418.089</ele>
        <time>2010-06-11T00:04:52Z</time>
      </trkpt>
      <trkpt lat="43.271391" lon="-1.634261">
        <ele>432.017</ele>
        <time>2010-06-11T00:05:22Z</time>
      </trkpt>
      <trkpt lat="43.269687" lon="-1.632913">
        <ele>471.087</ele>
        <time>2010-06-11T00:08:38Z</time>
      </trkpt>
      <trkpt lat="43.269182" lon="-1.632092">
        <ele>477.015</ele>
        <time>2010-06-11T00:09:57Z</time>
      </trkpt>
      <trkpt lat="43.268616" lon="-1.631858">
        <ele>464.006</ele>
        <time>2010-06-11T00:10:56Z</time>
      </trkpt>
      <trkpt lat="43.268312" lon="-1.630910">
        <ele>468.070</ele>
        <time>2010-06-11T00:12:11Z</time>
      </trkpt>
      <trkpt lat="43.268256" lon="-1.629957">
        <ele>488.037</ele>
        <time>2010-06-11T00:13:21Z</time>
      </trkpt>
      <trkpt lat="43.267960" lon="-1.629686">
        <ele>485.044</ele>
        <time>2010-06-11T00:13:56Z</time>
      </trkpt>
      <trkpt lat="43.266901" lon="-1.629617">
        <ele>455.032</ele>
        <time>2010-06-11T00:15:43Z</time>
      </trkpt>
      <trkpt lat="43.265760" lon="-1.628318">
        <ele>487.040</ele>
        <time>2010-06-11T00:18:11Z</time>
      </trkpt>
      <trkpt lat="43.265001" lon="-1.625132">
        <ele>490.012</ele>
        <time>2010-06-11T00:22:16Z</time>
      </trkpt>
      <trkpt lat="43.265214" lon="-1.624080">
        <ele>499.097</ele>
        <time>2010-06-11T00:23:36Z</time>
      </trkpt>
      <trkpt lat="43.264247" lon="-1.622346">
        <ele>469.023</ele>
        <time>2010-06-11T00:26:15Z</time>
      </trkpt>
      <trkpt lat="43.263248" lon="-1.621598">
        <ele>456.025</ele>
        <time>2010-06-11T00:28:09Z</time>
      </trkpt>
      <trkpt lat="43.260811" lon="-1.619251">
        <ele>434.006</ele>
        <time>2010-06-11T00:33:07Z</time>
      </trkpt>
      <trkpt lat="43.259647" lon="-1.617922">
        <ele>452.078</ele>
        <time>2010-06-11T00:35:38Z</time>
      </trkpt>
      <trkpt lat="43.259208" lon="-1.616977">
        <ele>470.085</ele>
        <time>2010-06-11T00:37:00Z</time>
      </trkpt>
      <trkpt lat="43.259072" lon="-1.616918">
        <ele>470.092</ele>
        <time>2010-06-11T00:37:14Z</time>
      </trkpt>
      <trkpt lat="43.258039" lon="-1.617126">
        <ele>490.060</ele>
        <time>2010-06-11T00:38:57Z</time>
      </trkpt>
      <trkpt lat="43.256401" lon="-1.615716">
        <ele>464.038</ele>
        <time>2010-06-11T00:42:12Z</time>
      </trkpt>
      <trkpt lat="43.255976" lon="-1.614062">
        <ele>461.060</ele>
        <time>2010-06-11T00:44:20Z</time>
      </trkpt>
      <trkpt lat="43.255167" lon="-1.612356">
        <ele>462.025</ele>
        <time>2010-06-11T00:46:47Z</time>
      </trkpt>
      <trkpt lat="43.255487" lon="-1.610870">
        <ele>468.026</ele>
        <time>2010-06-11T00:48:41Z</time>
      </trkpt>
      <trkpt lat="43.255501" lon="-1.610193">
        <ele>465.008</ele>
        <time>2010-06-11T00:49:29Z</time>
      </trkpt>
      <trkpt lat="43.255295" lon="-1.609889">
        <ele>465.006</ele>
        <time>2010-06-11T00:50:01Z</time>
      </trkpt>
      <trkpt lat="43.254035" lon="-1.609949">
        <ele>456.061</ele>
        <time>2010-06-11T00:52:07Z</time>
      </trkpt>
      <trkpt lat="43.252281" lon="-1.608295">
        <ele>475.038</ele>
        <time>2010-06-11T00:55:39Z</time>
      </trkpt>
      <trkpt lat="43.252159" lon="-1.607466">
        <ele>474.035</ele>
        <time>2010-06-11T00:56:41Z</time>
      </trkpt>
      <trkpt lat="43.253023" lon="-1.604459">
        <ele>489.013</ele>
        <time>2010-06-11T01:00:36Z</time>
      </trkpt>
      <trkpt lat="43.253200" lon="-1.604209">
        <ele>496.011</ele>
        <time>2010-06-11T01:01:02Z</time>
      </trkpt>
      <trkpt lat="43.254049" lon="-1.603696">
        <ele>492.053</ele>
        <time>2010-06-11T01:02:34Z</time>
      </trkpt>
      <trkpt lat="43.254488" lon="-1.602762">
        <ele>490.075</ele>
        <time>2010-06-11T01:03:55Z</time>
      </trkpt>
      <trkpt lat="43.254439" lon="-1.602456">
        <ele>489.028</ele>
        <time>2010-06-11T01:04:18Z</time>
      </trkpt>
      <trkpt lat="43.254140" lon="-1.601939">
        <ele>494.020</ele>
        <time>2010-06-11T01:05:07Z</time>
      </trkpt>
      <trkpt lat="43.253952" lon="-1.601266">
        <ele>497.006</ele>
        <time>2010-06-11T01:06:00Z</time>
      </trkpt>
      <trkpt lat="43.254103" lon="-1.600769">
        <ele>491.096</ele>
        <time>2010-06-11T01:06:38Z</time>
      </trkpt>
      <trkpt lat="43.254413" lon="-1.600331">
        <ele>489.093</ele>
        <time>2010-06-11T01:07:24Z</time>
      </trkpt>
      <trkpt lat="43.253787" lon="-1.598867">
        <ele>497.070</ele>
        <time>2010-06-11T01:09:27Z</time>
      </trkpt>
      <trkpt lat="43.253715" lon="-1.598530">
        <ele>495.018</ele>
        <time>2010-06-11T01:09:52Z</time>
      </trkpt>
      <trkpt lat="43.253779" lon="-1.598221">
        <ele>506.066</ele>
        <time>2010-06-11T01:10:16Z</time>
      </trkpt>
      <trkpt lat="43.254150" lon="-1.597288">
        <ele>511.058</ele>
        <time>2010-06-11T01:11:34Z</time>
      </trkpt>
      <trkpt lat="43.254211" lon="-1.596702">
        <ele>505.095</ele>
        <time>2010-06-11T01:12:17Z</time>
      </trkpt>
      <trkpt lat="43.254499" lon="-1.596325">
        <ele>509.049</ele>
        <time>2010-06-11T01:12:57Z</time>
      </trkpt>
      <trkpt lat="43.252268" lon="-1.594344">
        <ele>457.023</ele>
        <time>2010-06-11T01:17:23Z</time>
      </trkpt>
      <trkpt lat="43.251476" lon="-1.593962">
        <ele>430.006</ele>
        <time>2010-06-11T01:18:47Z</time>
      </trkpt>
      <trkpt lat="43.250884" lon="-1.593452">
        <ele>414.018</ele>
        <time>2010-06-11T01:19:57Z</time>
      </trkpt>
      <trkpt lat="43.250578" lon="-1.592381">
        <ele>410.025</ele>
        <time>2010-06-11T01:21:20Z</time>
      </trkpt>
      <trkpt lat="43.250113" lon="-1.589281">
        <ele>444.072</ele>
        <time>2010-06-11T01:25:11Z</time>
      </trkpt>
      <trkpt lat="43.248398" lon="-1.587165">
        <ele>468.080</ele>
        <time>2010-06-11T01:29:01Z</time>
      </trkpt>
      <trkpt lat="43.247493" lon="-1.586817">
        <ele>489.058</ele>
        <time>2010-06-11T01:30:35Z</time>
      </trkpt>
      <trkpt lat="43.247363" lon="-1.587189">
        <ele>487.050</ele>
        <time>2010-06-11T01:31:06Z</time>
      </trkpt>
      <trkpt lat="43.247332" lon="-1.588299">
        <ele>496.068</ele>
        <time>2010-06-11T01:32:27Z</time>
      </trkpt>
      <trkpt lat="43.247139" lon="-1.589135">
        <ele>492.042</ele>
        <time>2010-06-11T01:33:30Z</time>
      </trkpt>
      <trkpt lat="43.246765" lon="-1.589790">
        <ele>498.026</ele>
        <time>2010-06-11T01:34:32Z</time>
      </trkpt>
      <trkpt lat="43.245499" lon="-1.591174">
        <ele>487.006</ele>
        <time>2010-06-11T01:37:13Z</time>
      </trkpt>
      <trkpt lat="43.242860" lon="-1.592590">
        <ele>528.025</ele>
        <time>2010-06-11T01:41:57Z</time>
      </trkpt>
      <trkpt lat="43.241948" lon="-1.593473">
        <ele>511.052</ele>
        <time>2010-06-11T01:43:48Z</time>
      </trkpt>
      <trkpt lat="43.240891" lon="-1.595406">
        <ele>528.029</ele>
        <time>2010-06-11T01:46:45Z</time>
      </trkpt>
      <trkpt lat="43.241007" lon="-1.595742">
        <ele>507.027</ele>
        <time>2010-06-11T01:47:12Z</time>
      </trkpt>
      <trkpt lat="43.239773" lon="-1.597895">
        <ele>549.075</ele>
        <time>2010-06-11T01:50:31Z</time>
      </trkpt>
      <trkpt lat="43.239394" lon="-1.598150">
        <ele>553.027</ele>
        <time>2010-06-11T01:51:14Z</time>
      </trkpt>
      <trkpt lat="43.238743" lon="-1.598319">
        <ele>564.033</ele>
        <time>2010-06-11T01:52:19Z</time>
      </trkpt>
      <trkpt lat="43.238402" lon="-1.598081">
        <ele>567.023</ele>
        <time>2010-06-11T01:52:59Z</time>
      </trkpt>
      <trkpt lat="43.237072" lon="-1.597896">
        <ele>567.015</ele>
        <time>2010-06-11T01:55:11Z</time>
      </trkpt>
      <trkpt lat="43.236528" lon="-1.597631">
        <ele>565.006</ele>
        <time>2010-06-11T01:56:10Z</time>
      </trkpt>
      <trkpt lat="43.235846" lon="-1.597031">
        <ele>548.032</ele>
        <time>2010-06-11T01:57:31Z</time>
      </trkpt>
      <trkpt lat="43.235524" lon="-1.596484">
        <ele>544.029</ele>
        <time>2010-06-11T01:58:22Z</time>
      </trkpt>
      <trkpt lat="43.235402" lon="-1.595717">
        <ele>538.026</ele>
        <time>2010-06-11T01:59:19Z</time>
      </trkpt>
      <trkpt lat="43.235411" lon="-1.594670">
        <ele>537.074</ele>
        <time>2010-06-11T02:00:36Z</time>
      </trkpt>
      <trkpt lat="43.235290" lon="-1.593965">
        <ele>536.022</ele>
        <time>2010-06-11T02:01:28Z</time>
      </trkpt>
      <trkpt lat="43.235307" lon="-1.593472">
        <ele>539.024</ele>
        <time>2010-06-11T02:02:05Z</time>
      </trkpt>
      <trkpt lat="43.235165" lon="-1.592890">
        <ele>542.076</ele>
        <time>2010-06-11T02:02:50Z</time>
      </trkpt>
      <trkpt lat="43.234820" lon="-1.592374">
        <ele>535.090</ele>
        <time>2010-06-11T02:03:41Z</time>
      </trkpt>
      <trkpt lat="43.234697" lon="-1.591484">
        <ele>542.019</ele>
        <time>2010-06-11T02:04:47Z</time>
      </trkpt>
      <trkpt lat="43.235879" lon="-1.588779">
        <ele>557.006</ele>
        <time>2010-06-11T02:08:37Z</time>
      </trkpt>
      <trkpt lat="43.235919" lon="-1.586561">
        <ele>552.076</ele>
        <time>2010-06-11T02:11:19Z</time>
      </trkpt>
      <trkpt lat="43.235773" lon="-1.585671">
        <ele>551.093</ele>
        <time>2010-06-11T02:12:24Z</time>
      </trkpt>
      <trkpt lat="43.236038" lon="-1.585234">
        <ele>551.060</ele>
        <time>2010-06-11T02:13:07Z</time>
      </trkpt>
      <trkpt lat="43.236436" lon="-1.581007">
        <ele>578.088</ele>
        <time>2010-06-11T02:18:16Z</time>
      </trkpt>
      <trkpt lat="43.237132" lon="-1.579082">
        <ele>567.076</ele>
        <time>2010-06-11T02:20:54Z</time>
      </trkpt>
      <trkpt lat="43.237149" lon="-1.578620">
        <ele>564.028</ele>
        <time>2010-06-11T02:21:27Z</time>
      </trkpt>
      <trkpt lat="43.236073" lon="-1.577136">
        <ele>536.065</ele>
        <time>2010-06-11T02:24:00Z</time>
      </trkpt>
      <trkpt lat="43.235949" lon="-1.576215">
        <ele>539.068</ele>
        <time>2010-06-11T02:25:08Z</time>
      </trkpt>
      <trkpt lat="43.235261" lon="-1.575215">
        <ele>537.014</ele>
        <time>2010-06-11T02:26:49Z</time>
      </trkpt>
      <trkpt lat="43.235120" lon="-1.574787">
        <ele>536.006</ele>
        <time>2010-06-11T02:27:22Z</time>
      </trkpt>
      <trkpt lat="43.235157" lon="-1.574078">
        <ele>557.045</ele>
        <time>2010-06-11T02:28:15Z</time>
      </trkpt>
      <trkpt lat="43.234791" lon="-1.573656">
        <ele>539.022</ele>
        <time>2010-06-11T02:29:02Z</time>
      </trkpt>
      <trkpt lat="43.234053" lon="-1.572257">
        <ele>536.029</ele>
        <time>2010-06-11T02:31:08Z</time>
      </trkpt>
      <trkpt lat="43.233518" lon="-1.572670">
        <ele>533.087</ele>
        <time>2010-06-11T02:32:10Z</time>
      </trkpt>
      <trkpt lat="43.232574" lon="-1.572784">
        <ele>550.055</ele>
        <time>2010-06-11T02:33:44Z</time>
      </trkpt>
      <trkpt lat="43.232084" lon="-1.573165">
        <ele>555.037</ele>
        <time>2010-06-11T02:34:40Z</time>
      </trkpt>
      <trkpt lat="43.232020" lon="-1.573474">
        <ele>560.064</ele>
        <time>2010-06-11T02:35:05Z</time>
      </trkpt>
      <trkpt lat="43.231623" lon="-1.574099">
        <ele>560.006</ele>
        <time>2010-06-11T02:36:04Z</time>
      </trkpt>
      <trkpt lat="43.231131" lon="-1.574357">
        <ele>556.016</ele>
        <time>2010-06-11T02:36:57Z</time>
      </trkpt>
      <trkpt lat="43.230542" lon="-1.574063">
        <ele>558.006</ele>
        <time>2010-06-11T02:38:01Z</time>
      </trkpt>
      <trkpt lat="43.230047" lon="-1.574105">
        <ele>561.065</ele>
        <time>2010-06-11T02:38:50Z</time>
      </trkpt>
      <trkpt lat="43.228737" lon="-1.573797">
        <ele>590.022</ele>
        <time>2010-06-11T02:41:02Z</time>
      </trkpt>
      <trkpt lat="43.228119" lon="-1.572949">
        <ele>598.099</ele>
        <time>2010-06-11T02:42:31Z</time>
      </trkpt>
      <trkpt lat="43.227254" lon="-1.572169">
        <ele>604.087</ele>
        <time>2010-06-11T02:44:13Z</time>
      </trkpt>
      <trkpt lat="43.226973" lon="-1.571314">
        <ele>605.075</ele>
        <time>2010-06-11T02:45:23Z</time>
      </trkpt>
      <trkpt lat="43.225746" lon="-1.570357">
        <ele>612.077</ele>
        <time>2010-06-11T02:47:43Z</time>
      </trkpt>
      <trkpt lat="43.225119" lon="-1.568895">
        <ele>611.034</ele>
        <time>2010-06-11T02:49:47Z</time>
      </trkpt>
      <trkpt lat="43.223879" lon="-1.566892">
        <ele>587.055</ele>
        <time>2010-06-11T02:52:58Z</time>
      </trkpt>
      <trkpt lat="43.223867" lon="-1.565938">
        <ele>590.010</ele>
        <time>2010-06-11T02:54:09Z</time>
      </trkpt>
      <trkpt lat="43.223794" lon="-1.565509">
        <ele>589.006</ele>
        <time>2010-06-11T02:54:40Z</time>
      </trkpt>
      <trkpt lat="43.223515" lon="-1.564776">
        <ele>559.022</ele>
        <time>2010-06-11T02:55:41Z</time>
      </trkpt>
      <trkpt lat="43.223472" lon="-1.563177">
        <ele>536.049</ele>
        <time>2010-06-11T02:57:37Z</time>
      </trkpt>
      <trkpt lat="43.223264" lon="-1.562720">
        <ele>534.046</ele>
        <time>2010-06-11T02:58:17Z</time>
      </trkpt>
      <trkpt lat="43.222967" lon="-1.562419">
        <ele>531.034</ele>
        <time>2010-06-11T02:58:53Z</time>
      </trkpt>
      <trkpt lat="43.219347" lon="-1.560934">
        <ele>542.022</ele>
        <time>2010-06-11T03:05:11Z</time>
      </trkpt>
      <trkpt lat="43.219123" lon="-1.560605">
        <ele>537.064</ele>
        <time>2010-06-11T03:05:44Z</time>
      </trkpt>
      <trkpt lat="43.218072" lon="-1.559795">
        <ele>577.061</ele>
        <time>2010-06-11T03:07:45Z</time>
      </trkpt>
      <trkpt lat="43.217123" lon="-1.556000">
        <ele>572.021</ele>
        <time>2010-06-11T03:12:38Z</time>
      </trkpt>
      <trkpt lat="43.217238" lon="-1.554366">
        <ele>559.013</ele>
        <time>2010-06-11T03:14:38Z</time>
      </trkpt>
      <trkpt lat="43.217020" lon="-1.553140">
        <ele>528.006</ele>
        <time>2010-06-11T03:16:10Z</time>
      </trkpt>
      <trkpt lat="43.216739" lon="-1.550561">
        <ele>515.075</ele>
        <time>2010-06-11T03:19:19Z</time>
      </trkpt>
      <trkpt lat="43.216420" lon="-1.550200">
        <ele>518.092</ele>
        <time>2010-06-11T03:20:02Z</time>
      </trkpt>
      <trkpt lat="43.216371" lon="-1.549893">
        <ele>522.039</ele>
        <time>2010-06-11T03:20:25Z</time>
      </trkpt>
      <trkpt lat="43.215049" lon="-1.546847">
        <ele>558.077</ele>
        <time>2010-06-11T03:24:42Z</time>
      </trkpt>
      <trkpt lat="43.214637" lon="-1.546302">
        <ele>562.055</ele>
        <time>2010-06-11T03:25:40Z</time>
      </trkpt>
      <trkpt lat="43.214242" lon="-1.545358">
        <ele>571.047</ele>
        <time>2010-06-11T03:26:59Z</time>
      </trkpt>
      <trkpt lat="43.214458" lon="-1.544645">
        <ele>600.066</ele>
        <time>2010-06-11T03:27:55Z</time>
      </trkpt>
      <trkpt lat="43.214431" lon="-1.544276">
        <ele>614.029</ele>
        <time>2010-06-11T03:28:22Z</time>
      </trkpt>
      <trkpt lat="43.214110" lon="-1.543791">
        <ele>611.021</ele>
        <time>2010-06-11T03:29:10Z</time>
      </trkpt>
      <trkpt lat="43.213702" lon="-1.543555">
        <ele>604.006</ele>
        <time>2010-06-11T03:29:54Z</time>
      </trkpt>
      <trkpt lat="43.213584" lon="-1.543157">
        <ele>613.095</ele>
        <time>2010-06-11T03:30:26Z</time>
      </trkpt>
      <trkpt lat="43.213589" lon="-1.541803">
        <ele>621.022</ele>
        <time>2010-06-11T03:32:05Z</time>
      </trkpt>
      <trkpt lat="43.213447" lon="-1.541252">
        <ele>620.069</ele>
        <time>2010-06-11T03:32:48Z</time>
      </trkpt>
      <trkpt lat="43.212724" lon="-1.541054">
        <ele>617.047</ele>
        <time>2010-06-11T03:34:01Z</time>
      </trkpt>
      <trkpt lat="43.212496" lon="-1.540783">
        <ele>617.075</ele>
        <time>2010-06-11T03:34:32Z</time>
      </trkpt>
      <trkpt lat="43.212110" lon="-1.538822">
        <ele>656.017</ele>
        <time>2010-06-11T03:37:00Z</time>
      </trkpt>
      <trkpt lat="43.211815" lon="-1.538614">
        <ele>662.063</ele>
        <time>2010-06-11T03:37:33Z</time>
      </trkpt>
      <trkpt lat="43.211274" lon="-1.538534">
        <ele>670.044</ele>
        <time>2010-06-11T03:38:27Z</time>
      </trkpt>
      <trkpt lat="43.210638" lon="-1.538119">
        <ele>691.018</ele>
        <time>2010-06-11T03:39:37Z</time>
      </trkpt>
      <trkpt lat="43.209028" lon="-1.535418">
        <ele>709.006</ele>
        <time>2010-06-11T03:43:52Z</time>
      </trkpt>
      <trkpt lat="43.207732" lon="-1.534464">
        <ele>743.085</ele>
        <time>2010-06-11T03:46:20Z</time>
      </trkpt>
      <trkpt lat="43.206493" lon="-1.534340">
        <ele>749.092</ele>
        <time>2010-06-11T03:48:24Z</time>
      </trkpt>
      <trkpt lat="43.205835" lon="-1.533956">
        <ele>768.029</ele>
        <time>2010-06-11T03:49:36Z</time>
      </trkpt>
      <trkpt lat="43.204239" lon="-1.534148">
        <ele>789.057</ele>
        <time>2010-06-11T03:52:15Z</time>
      </trkpt>
      <trkpt lat="43.203904" lon="-1.534310">
        <ele>787.085</ele>
        <time>2010-06-11T03:52:52Z</time>
      </trkpt>
      <trkpt lat="43.203550" lon="-1.534841">
        <ele>789.067</ele>
        <time>2010-06-11T03:53:44Z</time>
      </trkpt>
      <trkpt lat="43.203125" lon="-1.535036">
        <ele>793.045</ele>
        <time>2010-06-11T03:54:29Z</time>
      </trkpt>
      <trkpt lat="43.201862" lon="-1.534882">
        <ele>799.047</ele>
        <time>2010-06-11T03:56:36Z</time>
      </trkpt>
      <trkpt lat="43.201046" lon="-1.534440">
        <ele>804.011</ele>
        <time>2010-06-11T03:58:04Z</time>
      </trkpt>
      <trkpt lat="43.200214" lon="-1.534460">
        <ele>793.006</ele>
        <time>2010-06-11T03:59:26Z</time>
      </trkpt>
      <trkpt lat="43.198270" lon="-1.533891">
        <ele>769.073</ele>
        <time>2010-06-11T04:02:45Z</time>
      </trkpt>
      <trkpt lat="43.197756" lon="-1.534118">
        <ele>773.030</ele>
        <time>2010-06-11T04:03:39Z</time>
      </trkpt>
      <trkpt lat="43.196069" lon="-1.534282">
        <ele>773.087</ele>
        <time>2010-06-11T04:06:28Z</time>
      </trkpt>
      <trkpt lat="43.194828" lon="-1.534004">
        <ele>769.075</ele>
        <time>2010-06-11T04:08:35Z</time>
      </trkpt>
      <trkpt lat="43.193124" lon="-1.534537">
        <ele>821.083</ele>
        <time>2010-06-11T04:11:29Z</time>
      </trkpt>
      <trkpt lat="43.192480" lon="-1.535260">
        <ele>799.015</ele>
        <time>2010-06-11T04:12:53Z</time>
      </trkpt>
      <trkpt lat="43.191735" lon="-1.535063">
        <ele>797.073</ele>
        <time>2010-06-11T04:14:08Z</time>
      </trkpt>
      <trkpt lat="43.191719" lon="-1.535617">
        <ele>794.085</ele>
        <time>2010-06-11T04:14:50Z</time>
      </trkpt>
      <trkpt lat="43.191475" lon="-1.535869">
        <ele>783.013</ele>
        <time>2010-06-11T04:15:20Z</time>
      </trkpt>
      <trkpt lat="43.189947" lon="-1.536121">
        <ele>762.006</ele>
        <time>2010-06-11T04:17:53Z</time>
      </trkpt>
      <trkpt lat="43.189616" lon="-1.536621">
        <ele>759.016</ele>
        <time>2010-06-11T04:18:44Z</time>
      </trkpt>
      <trkpt lat="43.188945" lon="-1.536944">
        <ele>746.053</ele>
        <time>2010-06-11T04:19:54Z</time>
      </trkpt>
      <trkpt lat="43.187908" lon="-1.536815">
        <ele>719.060</ele>
        <time>2010-06-11T04:21:39Z</time>
      </trkpt>
      <trkpt lat="43.187351" lon="-1.537321">
        <ele>717.098</ele>
        <time>2010-06-11T04:22:46Z</time>
      </trkpt>
      <trkpt lat="43.186993" lon="-1.537452">
        <ele>721.076</ele>
        <time>2010-06-11T04:23:22Z</time>
      </trkpt>
      <trkpt lat="43.187248" lon="-1.536308">
        <ele>701.078</ele>
        <time>2010-06-11T04:24:50Z</time>
      </trkpt>
      <trkpt lat="43.187517" lon="-1.536209">
        <ele>703.093</ele>
        <time>2010-06-11T04:25:18Z</time>
      </trkpt>
      <trkpt lat="43.187513" lon="-1.535902">
        <ele>701.065</ele>
        <time>2010-06-11T04:25:39Z</time>
      </trkpt>
      <trkpt lat="43.186610" lon="-1.535677">
        <ele>682.021</ele>
        <time>2010-06-11T04:27:12Z</time>
      </trkpt>
      <trkpt lat="43.185003" lon="-1.536762">
        <ele>675.006</ele>
        <time>2010-06-11T04:30:11Z</time>
      </trkpt>
      <trkpt lat="43.183502" lon="-1.535598">
        <ele>688.068</ele>
        <time>2010-06-11T04:33:03Z</time>
      </trkpt>
      <trkpt lat="43.181622" lon="-1.534689">
        <ele>618.075</ele>
        <time>2010-06-11T04:36:24Z</time>
      </trkpt>
      <trkpt lat="43.180367" lon="-1.535150">
        <ele>635.082</ele>
        <time>2010-06-11T04:38:34Z</time>
      </trkpt>
      <trkpt lat="43.178027" lon="-1.535175">
        <ele>622.080</ele>
        <time>2010-06-11T04:42:27Z</time>
      </trkpt>
      <trkpt lat="43.177821" lon="-1.534965">
        <ele>606.028</ele>
        <time>2010-06-11T04:42:52Z</time>
      </trkpt>
      <trkpt lat="43.176183" lon="-1.535342">
        <ele>605.080</ele>
        <time>2010-06-11T04:45:40Z</time>
      </trkpt>
      <trkpt lat="43.175673" lon="-1.535939">
        <ele>572.052</ele>
        <time>2010-06-11T04:46:46Z</time>
      </trkpt>
      <trkpt lat="43.174237" lon="-1.536373">
        <ele>587.053</ele>
        <time>2010-06-11T04:49:14Z</time>
      </trkpt>
      <trkpt lat="43.173906" lon="-1.536842">
        <ele>589.008</ele>
        <time>2010-06-11T04:50:02Z</time>
      </trkpt>
      <trkpt lat="43.172631" lon="-1.537518">
        <ele>587.006</ele>
        <time>2010-06-11T04:52:18Z</time>
      </trkpt>
      <trkpt lat="43.171427" lon="-1.536625">
        <ele>591.034</ele>
        <time>2010-06-11T04:54:35Z</time>
      </trkpt>
      <trkpt lat="43.170764" lon="-1.535810">
        <ele>589.061</ele>
        <time>2010-06-11T04:56:04Z</time>
      </trkpt>
      <trkpt lat="43.170520" lon="-1.534401">
        <ele>581.018</ele>
        <time>2010-06-11T04:57:50Z</time>
      </trkpt>
      <trkpt lat="43.169852" lon="-1.533156">
        <ele>584.016</ele>
        <time>2010-06-11T04:59:42Z</time>
      </trkpt>
      <trkpt lat="43.168298" lon="-1.531379">
        <ele>584.074</ele>
        <time>2010-06-11T05:03:06Z</time>
      </trkpt>
      <trkpt lat="43.167780" lon="-1.530934">
        <ele>568.046</ele>
        <time>2010-06-11T05:04:06Z</time>
      </trkpt>
      <trkpt lat="43.166916" lon="-1.530704">
        <ele>569.025</ele>
        <time>2010-06-11T05:05:35Z</time>
      </trkpt>
      <trkpt lat="43.166008" lon="-1.530080">
        <ele>545.026</ele>
        <time>2010-06-11T05:07:15Z</time>
      </trkpt>
      <trkpt lat="43.164025" lon="-1.529548">
        <ele>528.008</ele>
        <time>2010-06-11T05:10:38Z</time>
      </trkpt>
      <trkpt lat="43.162539" lon="-1.529491">
        <ele>531.006</ele>
        <time>2010-06-11T05:13:07Z</time>
      </trkpt>
      <trkpt lat="43.161451" lon="-1.528964">
        <ele>495.011</ele>
        <time>2010-06-11T05:15:02Z</time>
      </trkpt>
      <trkpt lat="43.158464" lon="-1.525960">
        <ele>460.078</ele>
        <time>2010-06-11T05:21:14Z</time>
      </trkpt>
      <trkpt lat="43.158123" lon="-1.525692">
        <ele>464.085</ele>
        <time>2010-06-11T05:21:53Z</time>
      </trkpt>
      <trkpt lat="43.157833" lon="-1.525883">
        <ele>462.013</ele>
        <time>2010-06-11T05:22:24Z</time>
      </trkpt>
      <trkpt lat="43.156214" lon="-1.526076">
        <ele>429.061</ele>
        <time>2010-06-11T05:25:07Z</time>
      </trkpt>
      <trkpt lat="43.155685" lon="-1.525166">
        <ele>426.043</ele>
        <time>2010-06-11T05:26:33Z</time>
      </trkpt>
      <trkpt lat="43.156026" lon="-1.523713">
        <ele>421.064</ele>
        <time>2010-06-11T05:28:24Z</time>
      </trkpt>
      <trkpt lat="43.155376" lon="-1.523913">
        <ele>397.006</ele>
        <time>2010-06-11T05:29:31Z</time>
      </trkpt>
      <trkpt lat="43.154434" lon="-1.525904">
        <ele>375.016</ele>
        <time>2010-06-11T05:32:23Z</time>
      </trkpt>
      <trkpt lat="43.154519" lon="-1.527316">
        <ele>368.006</ele>
        <time>2010-06-11T05:34:07Z</time>
      </trkpt>
      <trkpt lat="43.154201" lon="-1.527078">
        <ele>367.025</ele>
        <time>2010-06-11T05:34:43Z</time>
      </trkpt>
      <trkpt lat="43.153787" lon="-1.526411">
        <ele>362.052</ele>
        <time>2010-06-11T05:35:47Z</time>
      </trkpt>
      <trkpt lat="43.153632" lon="-1.524816">
        <ele>340.069</ele>
        <time>2010-06-11T05:37:45Z</time>
      </trkpt>
      <trkpt lat="43.153779" lon="-1.524013">
        <ele>340.027</ele>
        <time>2010-06-11T05:38:45Z</time>
      </trkpt>
      <trkpt lat="43.153611" lon="-1.523187">
        <ele>318.025</ele>
        <time>2010-06-11T05:39:47Z</time>
      </trkpt>
      <trkpt lat="43.152669" lon="-1.525239">
        <ele>313.027</ele>
        <time>2010-06-11T05:42:44Z</time>
      </trkpt>
      <trkpt lat="43.152342" lon="-1.524294">
        <ele>284.045</ele>
        <time>2010-06-11T05:44:02Z</time>
      </trkpt>
      <trkpt lat="43.152712" lon="-1.521579">
        <ele>288.047</ele>
        <time>2010-06-11T05:47:23Z</time>
      </trkpt>
      <trkpt lat="43.153539" lon="-1.519407">
        <ele>268.011</ele>
        <time>2010-06-11T05:50:22Z</time>
      </trkpt>
      <trkpt lat="43.152155" lon="-1.518548">
        <ele>229.006</ele>
        <time>2010-06-11T05:52:54Z</time>
      </trkpt>
      <trkpt lat="43.152022" lon="-1.515262">
        <ele>214.083</ele>
        <time>2010-06-11T05:56:54Z</time>
      </trkpt>
      <trkpt lat="43.151479" lon="-1.515060">
        <ele>210.080</ele>
        <time>2010-06-11T05:57:51Z</time>
      </trkpt>
      <trkpt lat="43.151022" lon="-1.514517">
        <ele>207.097</ele>
        <time>2010-06-11T05:58:50Z</time>
      </trkpt>
      <trkpt lat="43.150117" lon="-1.514170">
        <ele>203.055</ele>
        <time>2010-06-11T06:00:24Z</time>
      </trkpt>
      <trkpt lat="43.149842" lon="-1.513808">
        <ele>204.093</ele>
        <time>2010-06-11T06:01:02Z</time>
      </trkpt>
      <trkpt lat="43.149323" lon="-1.513667">
        <ele>204.095</ele>
        <time>2010-06-11T06:01:56Z</time>
      </trkpt>
      <trkpt lat="43.148456" lon="-1.513080">
        <ele>207.089</ele>
        <time>2010-06-11T06:03:32Z</time>
      </trkpt>
      <trkpt lat="43.146227" lon="-1.516516">
        <ele>204.006</ele>
        <time>2010-06-11T06:09:09Z</time>
      </trkpt>
      <trkpt lat="43.143408" lon="-1.514401">
        <ele>211.026</ele>
        <time>2010-06-11T06:14:30Z</time>
      </trkpt>
      <trkpt lat="43.142481" lon="-1.514116">
        <ele>220.006</ele>
        <time>2010-06-11T06:16:05Z</time>
      </trkpt>
      <trkpt lat="43.142302" lon="-1.514182">
        <ele>225.017</ele>
        <time>2010-06-11T06:16:24Z</time>
      </trkpt>
      <trkpt lat="43.141512" lon="-1.513986">
        <ele>249.014</ele>
        <time>2010-06-11T06:17:44Z</time>
      </trkpt>
      <trkpt lat="43.141163" lon="-1.513164">
        <ele>257.061</ele>
        <time>2010-06-11T06:18:54Z</time>
      </trkpt>
      <trkpt lat="43.140591" lon="-1.512441">
        <ele>278.069</ele>
        <time>2010-06-11T06:20:12Z</time>
      </trkpt>
      <trkpt lat="43.139434" lon="-1.511762">
        <ele>291.057</ele>
        <time>2010-06-11T06:22:18Z</time>
      </trkpt>
      <trkpt lat="43.139095" lon="-1.511678">
        <ele>293.079</ele>
        <time>2010-06-11T06:22:51Z</time>
      </trkpt>
      <trkpt lat="43.138368" lon="-1.511111">
        <ele>292.068</ele>
        <time>2010-06-11T06:24:15Z</time>
      </trkpt>
      <trkpt lat="43.138234" lon="-1.511207">
        <ele>292.042</ele>
        <time>2010-06-11T06:24:30Z</time>
      </trkpt>
      <trkpt lat="43.137927" lon="-1.510138">
        <ele>288.026</ele>
        <time>2010-06-11T06:25:54Z</time>
      </trkpt>
      <trkpt lat="43.137379" lon="-1.509568">
        <ele>304.006</ele>
        <time>2010-06-11T06:27:04Z</time>
      </trkpt>
      <trkpt lat="43.136929" lon="-1.509517">
        <ele>313.015</ele>
        <time>2010-06-11T06:27:49Z</time>
      </trkpt>
      <trkpt lat="43.136640" lon="-1.509831">
        <ele>308.082</ele>
        <time>2010-06-11T06:28:25Z</time>
      </trkpt>
      <trkpt lat="43.135492" lon="-1.509859">
        <ele>305.089</ele>
        <time>2010-06-11T06:30:20Z</time>
      </trkpt>
      <trkpt lat="43.134949" lon="-1.509627">
        <ele>303.037</ele>
        <time>2010-06-11T06:31:17Z</time>
      </trkpt>
      <trkpt lat="43.134354" lon="-1.508903">
        <ele>301.065</ele>
        <time>2010-06-11T06:32:37Z</time>
      </trkpt>
      <trkpt lat="43.134099" lon="-1.508295">
        <ele>305.047</ele>
        <time>2010-06-11T06:33:28Z</time>
      </trkpt>
      <trkpt lat="43.133342" lon="-1.507207">
        <ele>316.057</ele>
        <time>2010-06-11T06:35:18Z</time>
      </trkpt>
      <trkpt lat="43.131983" lon="-1.506625">
        <ele>333.000</ele>
        <time>2010-06-11T06:37:41Z</time>
      </trkpt>
      <trkpt lat="43.129891" lon="-1.504986">
        <ele>343.020</ele>
        <time>2010-06-11T06:41:41Z</time>
      </trkpt>
      <trkpt lat="43.127765" lon="-1.504208">
        <ele>355.006</ele>
        <time>2010-06-11T06:45:21Z</time>
      </trkpt>
      <trkpt lat="43.127558" lon="-1.503936">
        <ele>359.084</ele>
        <time>2010-06-11T06:45:50Z</time>
      </trkpt>
      <trkpt lat="43.127320" lon="-1.502958">
        <ele>366.021</ele>
        <time>2010-06-11T06:47:06Z</time>
      </trkpt>
      <trkpt lat="43.126545" lon="-1.502209">
        <ele>369.088</ele>
        <time>2010-06-11T06:48:41Z</time>
      </trkpt>
      <trkpt lat="43.125981" lon="-1.502130">
        <ele>396.036</ele>
        <time>2010-06-11T06:49:37Z</time>
      </trkpt>
      <trkpt lat="43.125662" lon="-1.501769">
        <ele>397.054</ele>
        <time>2010-06-11T06:50:19Z</time>
      </trkpt>
      <trkpt lat="43.125515" lon="-1.500882">
        <ele>389.076</ele>
        <time>2010-06-11T06:51:26Z</time>
      </trkpt>
      <trkpt lat="43.125551" lon="-1.500235">
        <ele>387.096</ele>
        <time>2010-06-11T06:52:12Z</time>
      </trkpt>
      <trkpt lat="43.125140" lon="-1.499785">
        <ele>388.031</ele>
        <time>2010-06-11T06:53:06Z</time>
      </trkpt>
      <trkpt lat="43.122895" lon="-1.500208">
        <ele>410.024</ele>
        <time>2010-06-11T06:56:52Z</time>
      </trkpt>
      <trkpt lat="43.121059" lon="-1.500960">
        <ele>444.006</ele>
        <time>2010-06-11T07:00:03Z</time>
      </trkpt>
      <trkpt lat="43.123300" lon="-1.501635">
        <ele>457.068</ele>
        <time>2010-06-11T07:03:54Z</time>
      </trkpt>
      <trkpt lat="43.123915" lon="-1.502204">
        <ele>458.095</ele>
        <time>2010-06-11T07:05:07Z</time>
      </trkpt>
      <trkpt lat="43.123060" lon="-1.502194">
        <ele>485.082</ele>
        <time>2010-06-11T07:06:34Z</time>
      </trkpt>
      <trkpt lat="43.121984" lon="-1.502589">
        <ele>513.050</ele>
        <time>2010-06-11T07:08:24Z</time>
      </trkpt>
      <trkpt lat="43.121517" lon="-1.503031">
        <ele>510.068</ele>
        <time>2010-06-11T07:09:22Z</time>
      </trkpt>
      <trkpt lat="43.120856" lon="-1.504123">
        <ele>516.090</ele>
        <time>2010-06-11T07:11:05Z</time>
      </trkpt>
      <trkpt lat="43.119738" lon="-1.502952">
        <ele>504.091</ele>
        <time>2010-06-11T07:13:25Z</time>
      </trkpt>
      <trkpt lat="43.118270" lon="-1.502619">
        <ele>506.081</ele>
        <time>2010-06-11T07:15:55Z</time>
      </trkpt>
      <trkpt lat="43.115818" lon="-1.500988">
        <ele>508.019</ele>
        <time>2010-06-11T07:20:27Z</time>
      </trkpt>
      <trkpt lat="43.113673" lon="-1.500549">
        <ele>510.006</ele>
        <time>2010-06-11T07:24:05Z</time>
      </trkpt>
      <trkpt lat="43.110401" lon="-1.498232">
        <ele>523.078</ele>
        <time>2010-06-11T07:30:13Z</time>
      </trkpt>
      <trkpt lat="43.109956" lon="-1.498643">
        <ele>528.065</ele>
        <time>2010-06-11T07:31:07Z</time>
      </trkpt>
      <trkpt lat="43.108988" lon="-1.498605">
        <ele>543.042</ele>
        <time>2010-06-11T07:32:44Z</time>
      </trkpt>
      <trkpt lat="43.108614" lon="-1.499290">
        <ele>549.010</ele>
        <time>2010-06-11T07:33:46Z</time>
      </trkpt>
      <trkpt lat="43.108873" lon="-1.500144">
        <ele>550.078</ele>
        <time>2010-06-11T07:34:55Z</time>
      </trkpt>
      <trkpt lat="43.108591" lon="-1.500980">
        <ele>560.060</ele>
        <time>2010-06-11T07:36:02Z</time>
      </trkpt>
      <trkpt lat="43.108814" lon="-1.502481">
        <ele>586.072</ele>
        <time>2010-06-11T07:37:53Z</time>
      </trkpt>
      <trkpt lat="43.107918" lon="-1.502840">
        <ele>591.013</ele>
        <time>2010-06-11T07:39:27Z</time>
      </trkpt>
      <trkpt lat="43.107206" lon="-1.503472">
        <ele>612.014</ele>
        <time>2010-06-11T07:40:51Z</time>
      </trkpt>
      <trkpt lat="43.106523" lon="-1.502905">
        <ele>589.006</ele>
        <time>2010-06-11T07:42:11Z</time>
      </trkpt>
      <trkpt lat="43.105634" lon="-1.500377">
        <ele>588.046</ele>
        <time>2010-06-11T07:45:36Z</time>
      </trkpt>
      <trkpt lat="43.105820" lon="-1.497361">
        <ele>636.063</ele>
        <time>2010-06-11T07:49:18Z</time>
      </trkpt>
      <trkpt lat="43.104505" lon="-1.498377">
        <ele>642.010</ele>
        <time>2010-06-11T07:51:49Z</time>
      </trkpt>
      <trkpt lat="43.103062" lon="-1.498227">
        <ele>668.028</ele>
        <time>2010-06-11T07:54:14Z</time>
      </trkpt>
      <trkpt lat="43.102012" lon="-1.497116">
        <ele>687.056</ele>
        <time>2010-06-11T07:56:27Z</time>
      </trkpt>
      <trkpt lat="43.101613" lon="-1.495867">
        <ele>714.058</ele>
        <time>2010-06-11T07:58:06Z</time>
      </trkpt>
      <trkpt lat="43.102016" lon="-1.495703">
        <ele>721.044</ele>
        <time>2010-06-11T07:58:49Z</time>
      </trkpt>
      <trkpt lat="43.101512" lon="-1.495040">
        <ele>734.005</ele>
        <time>2010-06-11T07:59:58Z</time>
      </trkpt>
      <trkpt lat="43.098978" lon="-1.488896">
        <ele>834.015</ele>
        <time>2010-06-11T08:08:33Z</time>
      </trkpt>
      <trkpt lat="43.098500" lon="-1.488539">
        <ele>840.006</ele>
        <time>2010-06-11T08:09:29Z</time>
      </trkpt>
      <trkpt lat="43.097735" lon="-1.488558">
        <ele>840.073</ele>
        <time>2010-06-11T08:10:44Z</time>
      </trkpt>
      <trkpt lat="43.096510" lon="-1.487820">
        <ele>851.070</ele>
        <time>2010-06-11T08:12:58Z</time>
      </trkpt>
      <trkpt lat="43.095981" lon="-1.486973">
        <ele>853.077</ele>
        <time>2010-06-11T08:14:20Z</time>
      </trkpt>
      <trkpt lat="43.095137" lon="-1.484475">
        <ele>873.015</ele>
        <time>2010-06-11T08:17:41Z</time>
      </trkpt>
      <trkpt lat="43.094653" lon="-1.483596">
        <ele>892.053</ele>
        <time>2010-06-11T08:19:01Z</time>
      </trkpt>
      <trkpt lat="43.094436" lon="-1.482527">
        <ele>908.045</ele>
        <time>2010-06-11T08:20:23Z</time>
      </trkpt>
      <trkpt lat="43.094643" lon="-1.481201">
        <ele>917.086</ele>
        <time>2010-06-11T08:22:02Z</time>
      </trkpt>
      <trkpt lat="43.094229" lon="-1.478846">
        <ele>943.060</ele>
        <time>2010-06-11T08:24:59Z</time>
      </trkpt>
      <trkpt lat="43.092076" lon="-1.474353">
        <ele>925.026</ele>
        <time>2010-06-11T08:31:32Z</time>
      </trkpt>
      <trkpt lat="43.091491" lon="-1.472678">
        <ele>934.006</ele>
        <time>2010-06-11T08:33:47Z</time>
      </trkpt>
      <trkpt lat="43.091391" lon="-1.471912">
        <ele>940.067</ele>
        <time>2010-06-11T08:34:45Z</time>
      </trkpt>
      <trkpt lat="43.090956" lon="-1.471432">
        <ele>947.094</ele>
        <time>2010-06-11T08:35:40Z</time>
      </trkpt>
      <trkpt lat="43.090482" lon="-1.471290">
        <ele>951.091</ele>
        <time>2010-06-11T08:36:28Z</time>
      </trkpt>
      <trkpt lat="43.089695" lon="-1.471371">
        <ele>971.029</ele>
        <time>2010-06-11T08:37:48Z</time>
      </trkpt>
      <trkpt lat="43.086682" lon="-1.473289">
        <ele>988.037</ele>
        <time>2010-06-11T08:43:21Z</time>
      </trkpt>
      <trkpt lat="43.081464" lon="-1.472006">
        <ele>934.049</ele>
        <time>2010-06-11T08:52:11Z</time>
      </trkpt>
      <trkpt lat="43.079176" lon="-1.470926">
        <ele>910.091</ele>
        <time>2010-06-11T08:56:13Z</time>
      </trkpt>
      <trkpt lat="43.077936" lon="-1.470773">
        <ele>921.081</ele>
        <time>2010-06-11T08:58:17Z</time>
      </trkpt>
      <trkpt lat="43.077443" lon="-1.470969">
        <ele>931.019</ele>
        <time>2010-06-11T08:59:08Z</time>
      </trkpt>
      <trkpt lat="43.074695" lon="-1.472512">
        <ele>934.006</ele>
        <time>2010-06-11T09:04:05Z</time>
      </trkpt>
      <trkpt lat="43.073003" lon="-1.472247">
        <ele>933.098</ele>
        <time>2010-06-11T09:06:56Z</time>
      </trkpt>
      <trkpt lat="43.072622" lon="-1.472379">
        <ele>941.095</ele>
        <time>2010-06-11T09:07:36Z</time>
      </trkpt>
      <trkpt lat="43.071507" lon="-1.473144">
        <ele>959.062</ele>
        <time>2010-06-11T09:09:41Z</time>
      </trkpt>
      <trkpt lat="43.070810" lon="-1.473253">
        <ele>959.080</ele>
        <time>2010-06-11T09:10:51Z</time>
      </trkpt>
      <trkpt lat="43.070029" lon="-1.473733">
        <ele>957.098</ele>
        <time>2010-06-11T09:12:17Z</time>
      </trkpt>
      <trkpt lat="43.068189" lon="-1.474178">
        <ele>951.060</ele>
        <time>2010-06-11T09:15:24Z</time>
      </trkpt>
      <trkpt lat="43.066589" lon="-1.474033">
        <ele>949.084</ele>
        <time>2010-06-11T09:18:04Z</time>
      </trkpt>
      <trkpt lat="43.065322" lon="-1.475293">
        <ele>967.007</ele>
        <time>2010-06-11T09:20:40Z</time>
      </trkpt>
      <trkpt lat="43.065341" lon="-1.476586">
        <ele>982.017</ele>
        <time>2010-06-11T09:22:16Z</time>
      </trkpt>
      <trkpt lat="43.066449" lon="-1.477107">
        <ele>994.006</ele>
        <time>2010-06-11T09:24:12Z</time>
      </trkpt>
      <trkpt lat="43.066616" lon="-1.477629">
        <ele>992.087</ele>
        <time>2010-06-11T09:24:55Z</time>
      </trkpt>
      <trkpt lat="43.065013" lon="-1.479108">
        <ele>1023.054</ele>
        <time>2010-06-11T09:28:08Z</time>
      </trkpt>
      <trkpt lat="43.065032" lon="-1.480581">
        <ele>1046.051</ele>
        <time>2010-06-11T09:29:56Z</time>
      </trkpt>
      <trkpt lat="43.064817" lon="-1.481143">
        <ele>1061.049</ele>
        <time>2010-06-11T09:30:42Z</time>
      </trkpt>
      <trkpt lat="43.064418" lon="-1.481644">
        <ele>1074.027</ele>
        <time>2010-06-11T09:31:36Z</time>
      </trkpt>
      <trkpt lat="43.064290" lon="-1.482349">
        <ele>1083.059</ele>
        <time>2010-06-11T09:32:29Z</time>
      </trkpt>
      <trkpt lat="43.063170" lon="-1.482745">
        <ele>1106.099</ele>
        <time>2010-06-11T09:34:25Z</time>
      </trkpt>
      <trkpt lat="43.062327" lon="-1.483718">
        <ele>1111.007</ele>
        <time>2010-06-11T09:36:16Z</time>
      </trkpt>
      <trkpt lat="43.061340" lon="-1.483926">
        <ele>1130.027</ele>
        <time>2010-06-11T09:37:55Z</time>
      </trkpt>
      <trkpt lat="43.060539" lon="-1.484652">
        <ele>1151.006</ele>
        <time>2010-06-11T09:39:31Z</time>
      </trkpt>
      <trkpt lat="43.060181" lon="-1.484815">
        <ele>1149.088</ele>
        <time>2010-06-11T09:40:09Z</time>
      </trkpt>
      <trkpt lat="43.060213" lon="-1.485520">
        <ele>1156.085</ele>
        <time>2010-06-11T09:41:00Z</time>
      </trkpt>
      <trkpt lat="43.059698" lon="-1.487436">
        <ele>1167.072</ele>
        <time>2010-06-11T09:43:30Z</time>
      </trkpt>
      <trkpt lat="43.059026" lon="-1.487668">
        <ele>1151.030</ele>
        <time>2010-06-11T09:44:40Z</time>
      </trkpt>
      <trkpt lat="43.057962" lon="-1.488983">
        <ele>1160.048</ele>
        <time>2010-06-11T09:47:03Z</time>
      </trkpt>
      <trkpt lat="43.057782" lon="-1.490645">
        <ele>1161.070</ele>
        <time>2010-06-11T09:49:05Z</time>
      </trkpt>
      <trkpt lat="43.055891" lon="-1.492380">
        <ele>1160.074</ele>
        <time>2010-06-11T09:52:53Z</time>
      </trkpt>
      <trkpt lat="43.054948" lon="-1.492587">
        <ele>1149.056</ele>
        <time>2010-06-11T09:54:29Z</time>
      </trkpt>
      <trkpt lat="43.054131" lon="-1.493743">
        <ele>1153.021</ele>
        <time>2010-06-11T09:56:26Z</time>
      </trkpt>
      <trkpt lat="43.052875" lon="-1.494142">
        <ele>1144.006</ele>
        <time>2010-06-11T09:58:35Z</time>
      </trkpt>
      <trkpt lat="43.051760" lon="-1.494968">
        <ele>1157.046</ele>
        <time>2010-06-11T10:00:43Z</time>
      </trkpt>
      <trkpt lat="43.050569" lon="-1.495120">
        <ele>1182.013</ele>
        <time>2010-06-11T10:02:42Z</time>
      </trkpt>
      <trkpt lat="43.046872" lon="-1.494688">
        <ele>1168.020</ele>
        <time>2010-06-11T10:08:53Z</time>
      </trkpt>
      <trkpt lat="43.045106" lon="-1.493964">
        <ele>1161.088</ele>
        <time>2010-06-11T10:11:58Z</time>
      </trkpt>
      <trkpt lat="43.044166" lon="-1.492667">
        <ele>1159.086</ele>
        <time>2010-06-11T10:14:12Z</time>
      </trkpt>
      <trkpt lat="43.043418" lon="-1.492256">
        <ele>1156.018</ele>
        <time>2010-06-11T10:15:33Z</time>
      </trkpt>
      <trkpt lat="43.042682" lon="-1.492796">
        <ele>1161.038</ele>
        <time>2010-06-11T10:16:55Z</time>
      </trkpt>
      <trkpt lat="43.041986" lon="-1.492935">
        <ele>1163.070</ele>
        <time>2010-06-11T10:18:07Z</time>
      </trkpt>
      <trkpt lat="43.038584" lon="-1.489336">
        <ele>1143.017</ele>
        <time>2010-06-11T10:25:17Z</time>
      </trkpt>
      <trkpt lat="43.037620" lon="-1.487917">
        <ele>1137.006</ele>
        <time>2010-06-11T10:27:39Z</time>
      </trkpt>
      <trkpt lat="43.037230" lon="-1.485686">
        <ele>1130.082</ele>
        <time>2010-06-11T10:30:27Z</time>
      </trkpt>
      <trkpt lat="43.036296" lon="-1.484850">
        <ele>1138.039</ele>
        <time>2010-06-11T10:32:17Z</time>
      </trkpt>
      <trkpt lat="43.035206" lon="-1.482453">
        <ele>1123.026</ele>
        <time>2010-06-11T10:35:44Z</time>
      </trkpt>
      <trkpt lat="43.035944" lon="-1.480348">
        <ele>1077.064</ele>
        <time>2010-06-11T10:38:35Z</time>
      </trkpt>
      <trkpt lat="43.037201" lon="-1.478353">
        <ele>1020.012</ele>
        <time>2010-06-11T10:41:47Z</time>
      </trkpt>
      <trkpt lat="43.037172" lon="-1.474548">
        <ele>978.074</ele>
        <time>2010-06-11T10:46:26Z</time>
      </trkpt>
      <trkpt lat="43.036310" lon="-1.472298">
        <ele>946.074</ele>
        <time>2010-06-11T10:49:32Z</time>
      </trkpt>
      <trkpt lat="43.035991" lon="-1.470315">
        <ele>928.056</ele>
        <time>2010-06-11T10:52:00Z</time>
      </trkpt>
      <trkpt lat="43.035661" lon="-1.469276">
        <ele>932.021</ele>
        <time>2010-06-11T10:53:23Z</time>
      </trkpt>
      <trkpt lat="43.035482" lon="-1.467623">
        <ele>969.006</ele>
        <time>2010-06-11T10:55:25Z</time>
      </trkpt>
      <trkpt lat="43.035600" lon="-1.464674">
        <ele>1003.036</ele>
        <time>2010-06-11T10:59:02Z</time>
      </trkpt>
      <trkpt lat="43.035882" lon="-1.463869">
        <ele>1020.053</ele>
        <time>2010-06-11T11:00:07Z</time>
      </trkpt>
      <trkpt lat="43.035645" lon="-1.462985">
        <ele>1025.030</ele>
        <time>2010-06-11T11:01:16Z</time>
      </trkpt>
      <trkpt lat="43.034685" lon="-1.461966">
        <ele>1047.038</ele>
        <time>2010-06-11T11:03:18Z</time>
      </trkpt>
      <trkpt lat="43.034621" lon="-1.460556">
        <ele>1061.096</ele>
        <time>2010-06-11T11:05:00Z</time>
      </trkpt>
      <trkpt lat="43.034742" lon="-1.459510">
        <ele>1063.098</ele>
        <time>2010-06-11T11:06:18Z</time>
      </trkpt>
      <trkpt lat="43.034545" lon="-1.458195">
        <ele>1056.021</ele>
        <time>2010-06-11T11:07:57Z</time>
      </trkpt>
      <trkpt lat="43.034127" lon="-1.457254">
        <ele>1051.041</ele>
        <time>2010-06-11T11:09:16Z</time>
      </trkpt>
      <trkpt lat="43.033867" lon="-1.454683">
        <ele>1062.005</ele>
        <time>2010-06-11T11:12:26Z</time>
      </trkpt>
      <trkpt lat="43.033231" lon="-1.452581">
        <ele>1102.006</ele>
        <time>2010-06-11T11:15:13Z</time>
      </trkpt>
      <trkpt lat="43.032523" lon="-1.451832">
        <ele>1109.061</ele>
        <time>2010-06-11T11:16:42Z</time>
      </trkpt>
      <trkpt lat="43.031387" lon="-1.451093">
        <ele>1097.078</ele>
        <time>2010-06-11T11:18:48Z</time>
      </trkpt>
      <trkpt lat="43.030929" lon="-1.450553">
        <ele>1114.085</ele>
        <time>2010-06-11T11:19:50Z</time>
      </trkpt>
      <trkpt lat="43.030144" lon="-1.449099">
        <ele>1148.083</ele>
        <time>2010-06-11T11:22:02Z</time>
      </trkpt>
      <trkpt lat="43.027731" lon="-1.447074">
        <ele>1169.051</ele>
        <time>2010-06-11T11:26:45Z</time>
      </trkpt>
      <trkpt lat="43.025967" lon="-1.446535">
        <ele>1160.063</ele>
        <time>2010-06-11T11:29:45Z</time>
      </trkpt>
      <trkpt lat="43.024551" lon="-1.445006">
        <ele>1186.074</ele>
        <time>2010-06-11T11:32:45Z</time>
      </trkpt>
      <trkpt lat="43.023848" lon="-1.444656">
        <ele>1197.056</ele>
        <time>2010-06-11T11:34:00Z</time>
      </trkpt>
      <trkpt lat="43.023067" lon="-1.443479">
        <ele>1203.021</ele>
        <time>2010-06-11T11:35:58Z</time>
      </trkpt>
      <trkpt lat="43.022568" lon="-1.441558">
        <ele>1230.006</ele>
        <time>2010-06-11T11:38:26Z</time>
      </trkpt>
      <trkpt lat="43.022542" lon="-1.439626">
        <ele>1243.046</ele>
        <time>2010-06-11T11:40:48Z</time>
      </trkpt>
      <trkpt lat="43.022825" lon="-1.438944">
        <ele>1228.063</ele>
        <time>2010-06-11T11:41:45Z</time>
      </trkpt>
      <trkpt lat="43.022918" lon="-1.437499">
        <ele>1214.030</ele>
        <time>2010-06-11T11:43:32Z</time>
      </trkpt>
      <trkpt lat="43.022684" lon="-1.436861">
        <ele>1215.038</ele>
        <time>2010-06-11T11:44:23Z</time>
      </trkpt>
      <trkpt lat="43.021940" lon="-1.436819">
        <ele>1196.066</ele>
        <time>2010-06-11T11:45:37Z</time>
      </trkpt>
      <trkpt lat="43.021672" lon="-1.435322">
        <ele>1152.018</ele>
        <time>2010-06-11T11:47:31Z</time>
      </trkpt>
      <trkpt lat="43.021215" lon="-1.434781">
        <ele>1127.092</ele>
        <time>2010-06-11T11:48:31Z</time>
      </trkpt>
      <trkpt lat="43.020083" lon="-1.434319">
        <ele>1110.073</ele>
        <time>2010-06-11T11:50:29Z</time>
      </trkpt>
      <trkpt lat="43.019624" lon="-1.433656">
        <ele>1084.020</ele>
        <time>2010-06-11T11:51:36Z</time>
      </trkpt>
      <trkpt lat="43.019013" lon="-1.431800">
        <ele>1034.006</ele>
        <time>2010-06-11T11:54:05Z</time>
      </trkpt>
      <trkpt lat="43.018839" lon="-1.430608">
        <ele>1013.058</ele>
        <time>2010-06-11T11:55:34Z</time>
      </trkpt>
      <trkpt lat="43.017462" lon="-1.428710">
        <ele>973.045</ele>
        <time>2010-06-11T11:58:49Z</time>
      </trkpt>
      <trkpt lat="43.015739" lon="-1.424551">
        <ele>924.082</ele>
        <time>2010-06-11T12:04:39Z</time>
      </trkpt>
      <trkpt lat="43.014888" lon="-1.418376">
        <ele>885.060</ele>
        <time>2010-06-11T12:12:20Z</time>
      </trkpt>
      <trkpt lat="43.014983" lon="-1.415459">
        <ele>870.088</ele>
        <time>2010-06-11T12:15:52Z</time>
      </trkpt>
      <trkpt lat="43.014868" lon="-1.412026">
        <ele>854.010</ele>
        <time>2010-06-11T12:20:05Z</time>
      </trkpt>
      <trkpt lat="43.013513" lon="-1.410098">
        <ele>838.072</ele>
        <time>2010-06-11T12:23:20Z</time>
      </trkpt>
      <trkpt lat="43.012409" lon="-1.410004">
        <ele>829.013</ele>
        <time>2010-06-11T12:25:11Z</time>
      </trkpt>
      <trkpt lat="43.011358" lon="-1.410521">
        <ele>840.014</ele>
        <time>2010-06-11T12:27:03Z</time>
      </trkpt>
      <trkpt lat="43.010256" lon="-1.410611">
        <ele>844.006</ele>
        <time>2010-06-11T12:28:52Z</time>
      </trkpt>
      <trkpt lat="43.007925" lon="-1.409751">
        <ele>831.016</ele>
        <time>2010-06-11T12:32:54Z</time>
      </trkpt>
      <trkpt lat="43.006455" lon="-1.409268">
        <ele>824.033</ele>
        <time>2010-06-11T12:35:26Z</time>
      </trkpt>
      <trkpt lat="43.006445" lon="-1.408532">
        <ele>826.030</ele>
        <time>2010-06-11T12:36:20Z</time>
      </trkpt>
      <trkpt lat="43.007104" lon="-1.407380">
        <ele>847.028</ele>
        <time>2010-06-11T12:38:06Z</time>
      </trkpt>
      <trkpt lat="43.007269" lon="-1.404615">
        <ele>892.066</ele>
        <time>2010-06-11T12:41:30Z</time>
      </trkpt>
      <trkpt lat="43.007489" lon="-1.404272">
        <ele>900.098</ele>
        <time>2010-06-11T12:42:04Z</time>
      </trkpt>
      <trkpt lat="43.006785" lon="-1.402265">
        <ele>953.099</ele>
        <time>2010-06-11T12:44:46Z</time>
      </trkpt>
      <trkpt lat="43.005762" lon="-1.401525">
        <ele>988.007</ele>
        <time>2010-06-11T12:46:42Z</time>
      </trkpt>
      <trkpt lat="43.005974" lon="-1.400569">
        <ele>1008.027</ele>
        <time>2010-06-11T12:47:55Z</time>
      </trkpt>
      <trkpt lat="43.006302" lon="-1.399916">
        <ele>1020.006</ele>
        <time>2010-06-11T12:48:54Z</time>
      </trkpt>
      <trkpt lat="43.006480" lon="-1.396507">
        <ele>1075.078</ele>
        <time>2010-06-11T12:53:03Z</time>
      </trkpt>
      <trkpt lat="43.007705" lon="-1.393990">
        <ele>1082.015</ele>
        <time>2010-06-11T12:56:45Z</time>
      </trkpt>
      <trkpt lat="43.008943" lon="-1.392332">
        <ele>1104.012</ele>
        <time>2010-06-11T12:59:38Z</time>
      </trkpt>
      <trkpt lat="43.009181" lon="-1.390056">
        <ele>1116.080</ele>
        <time>2010-06-11T13:02:26Z</time>
      </trkpt>
      <trkpt lat="43.009807" lon="-1.388138">
        <ele>1121.068</ele>
        <time>2010-06-11T13:04:59Z</time>
      </trkpt>
      <trkpt lat="43.009829" lon="-1.384947">
        <ele>1130.070</ele>
        <time>2010-06-11T13:08:53Z</time>
      </trkpt>
      <trkpt lat="43.009446" lon="-1.381736">
        <ele>1167.044</ele>
        <time>2010-06-11T13:12:52Z</time>
      </trkpt>
      <trkpt lat="43.008981" lon="-1.379080">
        <ele>1144.005</ele>
        <time>2010-06-11T13:16:11Z</time>
      </trkpt>
      <trkpt lat="43.008798" lon="-1.375741">
        <ele>1185.015</ele>
        <time>2010-06-11T13:20:16Z</time>
      </trkpt>
      <trkpt lat="43.010160" lon="-1.374907">
        <ele>1192.006</ele>
        <time>2010-06-11T13:22:46Z</time>
      </trkpt>
      <trkpt lat="43.012611" lon="-1.374751">
        <ele>1148.033</ele>
        <time>2010-06-11T13:26:51Z</time>
      </trkpt>
      <trkpt lat="43.015169" lon="-1.375726">
        <ele>1130.050</ele>
        <time>2010-06-11T13:31:17Z</time>
      </trkpt>
      <trkpt lat="43.016394" lon="-1.374835">
        <ele>1140.017</ele>
        <time>2010-06-11T13:33:35Z</time>
      </trkpt>
      <trkpt lat="43.016831" lon="-1.373872">
        <ele>1152.065</ele>
        <time>2010-06-11T13:34:58Z</time>
      </trkpt>
      <trkpt lat="43.016541" lon="-1.372499">
        <ele>1143.013</ele>
        <time>2010-06-11T13:36:43Z</time>
      </trkpt>
      <trkpt lat="43.016748" lon="-1.371236">
        <ele>1128.045</ele>
        <time>2010-06-11T13:38:18Z</time>
      </trkpt>
      <trkpt lat="43.018053" lon="-1.369545">
        <ele>1108.013</ele>
        <time>2010-06-11T13:41:17Z</time>
      </trkpt>
      <trkpt lat="43.018151" lon="-1.368561">
        <ele>1104.043</ele>
        <time>2010-06-11T13:42:30Z</time>
      </trkpt>
      <trkpt lat="43.018028" lon="-1.367797">
        <ele>1100.007</ele>
        <time>2010-06-11T13:43:27Z</time>
      </trkpt>
      <trkpt lat="43.018733" lon="-1.366735">
        <ele>1103.006</ele>
        <time>2010-06-11T13:45:13Z</time>
      </trkpt>
      <trkpt lat="43.019474" lon="-1.365059">
        <ele>1106.070</ele>
        <time>2010-06-11T13:47:36Z</time>
      </trkpt>
      <trkpt lat="43.019826" lon="-1.364466">
        <ele>1098.037</ele>
        <time>2010-06-11T13:48:32Z</time>
      </trkpt>
      <trkpt lat="43.019193" lon="-1.364238">
        <ele>1094.074</ele>
        <time>2010-06-11T13:49:37Z</time>
      </trkpt>
      <trkpt lat="43.018597" lon="-1.363517">
        <ele>1087.052</ele>
        <time>2010-06-11T13:50:58Z</time>
      </trkpt>
      <trkpt lat="43.017507" lon="-1.362841">
        <ele>1081.060</ele>
        <time>2010-06-11T13:52:57Z</time>
      </trkpt>
      <trkpt lat="43.017268" lon="-1.361896">
        <ele>1072.012</ele>
        <time>2010-06-11T13:54:10Z</time>
      </trkpt>
      <trkpt lat="43.017501" lon="-1.360877">
        <ele>1063.051</ele>
        <time>2010-06-11T13:55:29Z</time>
      </trkpt>
      <trkpt lat="43.018750" lon="-1.358482">
        <ele>1042.001</ele>
        <time>2010-06-11T13:59:04Z</time>
      </trkpt>
      <trkpt lat="43.018855" lon="-1.357988">
        <ele>1038.011</ele>
        <time>2010-06-11T13:59:42Z</time>
      </trkpt>
      <trkpt lat="43.018669" lon="-1.357564">
        <ele>1038.006</ele>
        <time>2010-06-11T14:00:17Z</time>
      </trkpt>
      <trkpt lat="43.017081" lon="-1.356686">
        <ele>1014.094</ele>
        <time>2010-06-11T14:03:09Z</time>
      </trkpt>
      <trkpt lat="43.015476" lon="-1.354642">
        <ele>950.011</ele>
        <time>2010-06-11T14:06:48Z</time>
      </trkpt>
      <trkpt lat="43.014273" lon="-1.352404">
        <ele>942.098</ele>
        <time>2010-06-11T14:10:12Z</time>
      </trkpt>
      <trkpt lat="43.013900" lon="-1.349991">
        <ele>930.066</ele>
        <time>2010-06-11T14:13:12Z</time>
      </trkpt>
      <trkpt lat="43.013169" lon="-1.347648">
        <ele>926.014</ele>
        <time>2010-06-11T14:16:18Z</time>
      </trkpt>
      <trkpt lat="43.012315" lon="-1.346199">
        <ele>918.056</ele>
        <time>2010-06-11T14:18:35Z</time>
      </trkpt>
      <trkpt lat="43.011889" lon="-1.344799">
        <ele>918.046</ele>
        <time>2010-06-11T14:20:25Z</time>
      </trkpt>
      <trkpt lat="43.009355" lon="-1.342382">
        <ele>920.088</ele>
        <time>2010-06-11T14:25:35Z</time>
      </trkpt>
      <trkpt lat="43.009032" lon="-1.341808">
        <ele>918.016</ele>
        <time>2010-06-11T14:26:28Z</time>
      </trkpt>
      <trkpt lat="43.007785" lon="-1.341198">
        <ele>909.006</ele>
        <time>2010-06-11T14:28:40Z</time>
      </trkpt>
      <trkpt lat="43.006503" lon="-1.339698">
        <ele>907.023</ele>
        <time>2010-06-11T14:31:29Z</time>
      </trkpt>
      <trkpt lat="43.004707" lon="-1.338520">
        <ele>909.050</ele>
        <time>2010-06-11T14:34:49Z</time>
      </trkpt>
      <trkpt lat="43.003134" lon="-1.338685">
        <ele>911.077</ele>
        <time>2010-06-11T14:37:27Z</time>
      </trkpt>
      <trkpt lat="43.001811" lon="-1.339058">
        <ele>908.065</ele>
        <time>2010-06-11T14:39:42Z</time>
      </trkpt>
      <trkpt lat="43.000684" lon="-1.338966">
        <ele>898.023</ele>
        <time>2010-06-11T14:41:34Z</time>
      </trkpt>
      <trkpt lat="42.999191" lon="-1.338484">
        <ele>891.015</ele>
        <time>2010-06-11T14:44:07Z</time>
      </trkpt>
      <trkpt lat="42.997589" lon="-1.338252">
        <ele>893.053</ele>
        <time>2010-06-11T14:46:49Z</time>
      </trkpt>
      <trkpt lat="42.997029" lon="-1.338451">
        <ele>887.004</ele>
        <time>2010-06-11T14:47:46Z</time>
      </trkpt>
      <trkpt lat="42.995948" lon="-1.338357">
        <ele>878.014</ele>
        <time>2010-06-11T14:49:35Z</time>
      </trkpt>
      <trkpt lat="42.994442" lon="-1.338520">
        <ele>877.006</ele>
        <time>2010-06-11T14:52:07Z</time>
      </trkpt>
      <trkpt lat="42.993751" lon="-1.339030">
        <ele>871.014</ele>
        <time>2010-06-11T14:53:26Z</time>
      </trkpt>
      <trkpt lat="42.992228" lon="-1.339592">
        <ele>879.041</ele>
        <time>2010-06-11T14:56:03Z</time>
      </trkpt>
      <trkpt lat="42.991622" lon="-1.339670">
        <ele>879.068</ele>
        <time>2010-06-11T14:57:04Z</time>
      </trkpt>
      <trkpt lat="42.990899" lon="-1.339475">
        <ele>880.056</ele>
        <time>2010-06-11T14:58:17Z</time>
      </trkpt>
      <trkpt lat="42.990650" lon="-1.337856">
        <ele>878.044</ele>
        <time>2010-06-11T15:00:18Z</time>
      </trkpt>
      <trkpt lat="42.990416" lon="-1.337218">
        <ele>880.066</ele>
        <time>2010-06-11T15:01:10Z</time>
      </trkpt>
      <trkpt lat="42.990453" lon="-1.336696">
        <ele>885.039</ele>
        <time>2010-06-11T15:01:50Z</time>
      </trkpt>
      <trkpt lat="42.989974" lon="-1.336280">
        <ele>887.001</ele>
        <time>2010-06-11T15:02:47Z</time>
      </trkpt>
      <trkpt lat="42.989431" lon="-1.336049">
        <ele>890.021</ele>
        <time>2010-06-11T15:03:43Z</time>
      </trkpt>
      <trkpt lat="42.988564" lon="-1.333742">
        <ele>890.006</ele>
        <time>2010-06-11T15:06:53Z</time>
      </trkpt>
      <trkpt lat="42.988252" lon="-1.333965">
        <ele>887.092</ele>
        <time>2010-06-11T15:07:28Z</time>
      </trkpt>
      <trkpt lat="42.987805" lon="-1.331094">
        <ele>892.019</ele>
        <time>2010-06-11T15:11:04Z</time>
      </trkpt>
      <trkpt lat="42.989138" lon="-1.329893">
        <ele>900.096</ele>
        <time>2010-06-11T15:13:43Z</time>
      </trkpt>
      <trkpt lat="42.989419" lon="-1.329058">
        <ele>904.024</ele>
        <time>2010-06-11T15:14:50Z</time>
      </trkpt>
      <trkpt lat="42.989949" lon="-1.326805">
        <ele>906.052</ele>
        <time>2010-06-11T15:17:44Z</time>
      </trkpt>
      <trkpt lat="42.989963" lon="-1.326252">
        <ele>908.014</ele>
        <time>2010-06-11T15:18:24Z</time>
      </trkpt>
      <trkpt lat="42.990296" lon="-1.325937">
        <ele>914.047</ele>
        <time>2010-06-11T15:19:05Z</time>
      </trkpt>
      <trkpt lat="42.990402" lon="-1.325474">
        <ele>919.029</ele>
        <time>2010-06-11T15:19:40Z</time>
      </trkpt>
      <trkpt lat="42.990236" lon="-1.324896">
        <ele>927.021</ele>
        <time>2010-06-11T15:20:26Z</time>
      </trkpt>
      <trkpt lat="42.990496" lon="-1.322650">
        <ele>927.006</ele>
        <time>2010-06-11T15:23:12Z</time>
      </trkpt>
      <trkpt lat="42.990603" lon="-1.322279">
        <ele>929.063</ele>
        <time>2010-06-11T15:23:40Z</time>
      </trkpt>
      <trkpt lat="42.990590" lon="-1.319887">
        <ele>941.040</ele>
        <time>2010-06-11T15:26:37Z</time>
      </trkpt>
      <trkpt lat="42.990354" lon="-1.319127">
        <ele>949.057</ele>
        <time>2010-06-11T15:27:37Z</time>
      </trkpt>
      <trkpt lat="42.990064" lon="-1.316253">
        <ele>971.025</ele>
        <time>2010-06-11T15:31:08Z</time>
      </trkpt>
      <trkpt lat="42.989929" lon="-1.314754">
        <ele>984.033</ele>
        <time>2010-06-11T15:32:59Z</time>
      </trkpt>
      <trkpt lat="42.989608" lon="-1.314333">
        <ele>990.055</ele>
        <time>2010-06-11T15:33:44Z</time>
      </trkpt>
      <trkpt lat="42.989595" lon="-1.313475">
        <ele>999.099</ele>
        <time>2010-06-11T15:34:47Z</time>
      </trkpt>
      <trkpt lat="42.989802" lon="-1.312243">
        <ele>1007.007</ele>
        <time>2010-06-11T15:36:20Z</time>
      </trkpt>
      <trkpt lat="42.989653" lon="-1.311265">
        <ele>1008.027</ele>
        <time>2010-06-11T15:37:33Z</time>
      </trkpt>
      <trkpt lat="42.989611" lon="-1.308445">
        <ele>1020.006</ele>
        <time>2010-06-11T15:40:58Z</time>
      </trkpt>
      <trkpt lat="42.989468" lon="-1.307897">
        <ele>1026.068</ele>
        <time>2010-06-11T15:41:41Z</time>
      </trkpt>
      <trkpt lat="42.990309" lon="-1.306954">
        <ele>1025.035</ele>
        <time>2010-06-11T15:43:31Z</time>
      </trkpt>
      <trkpt lat="42.990985" lon="-1.306936">
        <ele>1017.072</ele>
        <time>2010-06-11T15:44:38Z</time>
      </trkpt>
      <trkpt lat="42.993108" lon="-1.304363">
        <ele>1002.020</ele>
        <time>2010-06-11T15:49:21Z</time>
      </trkpt>
      <trkpt lat="42.993701" lon="-1.301893">
        <ele>1007.048</ele>
        <time>2010-06-11T15:52:32Z</time>
      </trkpt>
      <trkpt lat="42.994809" lon="-1.300697">
        <ele>1016.060</ele>
        <time>2010-06-11T15:54:54Z</time>
      </trkpt>
      <trkpt lat="42.997777" lon="-1.300431">
        <ele>1008.048</ele>
        <time>2010-06-11T15:59:52Z</time>
      </trkpt>
      <trkpt lat="42.998933" lon="-1.299479">
        <ele>1012.061</ele>
        <time>2010-06-11T16:02:07Z</time>
      </trkpt>
      <trkpt lat="42.999219" lon="-1.299011">
        <ele>1014.017</ele>
        <time>2010-06-11T16:02:50Z</time>
      </trkpt>
      <trkpt lat="42.999348" lon="-1.298578">
        <ele>1020.006</ele>
        <time>2010-06-11T16:03:25Z</time>
      </trkpt>
      <trkpt lat="42.999588" lon="-1.298112">
        <ele>1034.013</ele>
        <time>2010-06-11T16:04:07Z</time>
      </trkpt>
      <trkpt lat="43.000611" lon="-1.297225">
        <ele>1024.010</ele>
        <time>2010-06-11T16:06:09Z</time>
      </trkpt>
      <trkpt lat="43.001248" lon="-1.296195">
        <ele>1023.057</ele>
        <time>2010-06-11T16:07:46Z</time>
      </trkpt>
      <trkpt lat="43.001334" lon="-1.295917">
        <ele>1028.065</ele>
        <time>2010-06-11T16:08:09Z</time>
      </trkpt>
      <trkpt lat="43.001370" lon="-1.295333">
        <ele>1028.023</ele>
        <time>2010-06-11T16:08:52Z</time>
      </trkpt>
      <trkpt lat="43.001787" lon="-1.294585">
        <ele>1036.045</ele>
        <time>2010-06-11T16:10:01Z</time>
      </trkpt>
      <trkpt lat="43.001933" lon="-1.293784">
        <ele>1037.044</ele>
        <time>2010-06-11T16:11:02Z</time>
      </trkpt>
      <trkpt lat="43.002152" lon="-1.293410">
        <ele>1044.005</ele>
        <time>2010-06-11T16:11:37Z</time>
      </trkpt>
      <trkpt lat="43.002114" lon="-1.292368">
        <ele>1036.015</ele>
        <time>2010-06-11T16:12:53Z</time>
      </trkpt>
      <trkpt lat="43.001837" lon="-1.291885">
        <ele>1025.006</ele>
        <time>2010-06-11T16:13:38Z</time>
      </trkpt>
      <trkpt lat="43.001877" lon="-1.291577">
        <ele>1026.063</ele>
        <time>2010-06-11T16:14:00Z</time>
      </trkpt>
      <trkpt lat="43.002958" lon="-1.291578">
        <ele>1057.040</ele>
        <time>2010-06-11T16:15:49Z</time>
      </trkpt>
      <trkpt lat="43.003408" lon="-1.291565">
        <ele>1067.087</ele>
        <time>2010-06-11T16:16:33Z</time>
      </trkpt>
      <trkpt lat="43.003584" lon="-1.291284">
        <ele>1071.075</ele>
        <time>2010-06-11T16:17:00Z</time>
      </trkpt>
      <trkpt lat="43.003591" lon="-1.290241">
        <ele>1057.013</ele>
        <time>2010-06-11T16:18:17Z</time>
      </trkpt>
      <trkpt lat="43.003650" lon="-1.289687">
        <ele>1054.045</ele>
        <time>2010-06-11T16:18:58Z</time>
      </trkpt>
      <trkpt lat="43.003822" lon="-1.289161">
        <ele>1058.083</ele>
        <time>2010-06-11T16:19:41Z</time>
      </trkpt>
      <trkpt lat="43.004267" lon="-1.288781">
        <ele>1058.025</ele>
        <time>2010-06-11T16:20:32Z</time>
      </trkpt>
      <trkpt lat="43.005077" lon="-1.288758">
        <ele>1072.017</ele>
        <time>2010-06-11T16:21:53Z</time>
      </trkpt>
      <trkpt lat="43.005049" lon="-1.288391">
        <ele>1066.006</ele>
        <time>2010-06-11T16:22:20Z</time>
      </trkpt>
      <trkpt lat="43.004519" lon="-1.287608">
        <ele>1051.087</ele>
        <time>2010-06-11T16:23:38Z</time>
      </trkpt>
      <trkpt lat="43.004337" lon="-1.287460">
        <ele>1051.094</ele>
        <time>2010-06-11T16:23:59Z</time>
      </trkpt>
      <trkpt lat="43.004493" lon="-1.287333">
        <ele>1049.061</ele>
        <time>2010-06-11T16:24:18Z</time>
      </trkpt>
      <trkpt lat="43.005122" lon="-1.287254">
        <ele>1059.089</ele>
        <time>2010-06-11T16:25:22Z</time>
      </trkpt>
      <trkpt lat="43.006240" lon="-1.286732">
        <ele>1070.067</ele>
        <time>2010-06-11T16:27:20Z</time>
      </trkpt>
      <trkpt lat="43.006394" lon="-1.286513">
        <ele>1072.069</ele>
        <time>2010-06-11T16:27:42Z</time>
      </trkpt>
      <trkpt lat="43.006166" lon="-1.286305">
        <ele>1066.061</ele>
        <time>2010-06-11T16:28:10Z</time>
      </trkpt>
      <trkpt lat="43.005074" lon="-1.285538">
        <ele>1049.021</ele>
        <time>2010-06-11T16:30:13Z</time>
      </trkpt>
      <trkpt lat="43.004635" lon="-1.284844">
        <ele>1048.013</ele>
        <time>2010-06-11T16:31:20Z</time>
      </trkpt>
      <trkpt lat="43.004118" lon="-1.283387">
        <ele>1049.006</ele>
        <time>2010-06-11T16:33:18Z</time>
      </trkpt>
      <trkpt lat="43.003808" lon="-1.282199">
        <ele>1055.035</ele>
        <time>2010-06-11T16:34:50Z</time>
      </trkpt>
      <trkpt lat="43.003214" lon="-1.281602">
        <ele>1049.092</ele>
        <time>2010-06-11T16:36:03Z</time>
      </trkpt>
      <trkpt lat="43.002591" lon="-1.280607">
        <ele>1035.089</ele>
        <time>2010-06-11T16:37:40Z</time>
      </trkpt>
      <trkpt lat="43.002528" lon="-1.279444">
        <ele>1036.077</ele>
        <time>2010-06-11T16:39:05Z</time>
      </trkpt>
      <trkpt lat="43.002091" lon="-1.278812">
        <ele>1032.025</ele>
        <time>2010-06-11T16:40:08Z</time>
      </trkpt>
      <trkpt lat="43.001298" lon="-1.276994">
        <ele>1029.037</ele>
        <time>2010-06-11T16:42:43Z</time>
      </trkpt>
      <trkpt lat="43.000929" lon="-1.276390">
        <ele>1025.069</ele>
        <time>2010-06-11T16:43:42Z</time>
      </trkpt>
      <trkpt lat="43.000136" lon="-1.276075">
        <ele>1041.004</ele>
        <time>2010-06-11T16:45:03Z</time>
      </trkpt>
      <trkpt lat="42.999201" lon="-1.275243">
        <ele>1071.024</ele>
        <time>2010-06-11T16:46:56Z</time>
      </trkpt>
      <trkpt lat="42.998485" lon="-1.274067">
        <ele>1058.006</ele>
        <time>2010-06-11T16:48:47Z</time>
      </trkpt>
      <trkpt lat="42.998198" lon="-1.272909">
        <ele>1056.065</ele>
        <time>2010-06-11T16:50:17Z</time>
      </trkpt>
      <trkpt lat="42.997854" lon="-1.269514">
        <ele>1057.062</ele>
        <time>2010-06-11T16:54:28Z</time>
      </trkpt>
      <trkpt lat="42.997768" lon="-1.268290">
        <ele>1057.029</ele>
        <time>2010-06-11T16:55:57Z</time>
      </trkpt>
      <trkpt lat="42.996883" lon="-1.266352">
        <ele>1058.037</ele>
        <time>2010-06-11T16:58:46Z</time>
      </trkpt>
      <trkpt lat="42.996307" lon="-1.265479">
        <ele>1073.075</ele>
        <time>2010-06-11T17:00:12Z</time>
      </trkpt>
      <trkpt lat="42.995241" lon="-1.264957">
        <ele>1089.057</ele>
        <time>2010-06-11T17:02:05Z</time>
      </trkpt>
      <trkpt lat="42.994746" lon="-1.264971">
        <ele>1092.072</ele>
        <time>2010-06-11T17:02:53Z</time>
      </trkpt>
      <trkpt lat="42.994213" lon="-1.265446">
        <ele>1101.013</ele>
        <time>2010-06-11T17:03:58Z</time>
      </trkpt>
      <trkpt lat="42.993992" lon="-1.265759">
        <ele>1105.014</ele>
        <time>2010-06-11T17:04:30Z</time>
      </trkpt>
      <trkpt lat="42.993567" lon="-1.265893">
        <ele>1114.006</ele>
        <time>2010-06-11T17:05:13Z</time>
      </trkpt>
      <trkpt lat="42.993203" lon="-1.265658">
        <ele>1124.096</ele>
        <time>2010-06-11T17:05:54Z</time>
      </trkpt>
      <trkpt lat="42.993172" lon="-1.265076">
        <ele>1137.093</ele>
        <time>2010-06-11T17:06:36Z</time>
      </trkpt>
      <trkpt lat="42.993035" lon="-1.264958">
        <ele>1137.050</ele>
        <time>2010-06-11T17:06:53Z</time>
      </trkpt>
      <trkpt lat="42.992634" lon="-1.265276">
        <ele>1156.048</ele>
        <time>2010-06-11T17:07:39Z</time>
      </trkpt>
      <trkpt lat="42.992304" lon="-1.265776">
        <ele>1162.026</ele>
        <time>2010-06-11T17:08:27Z</time>
      </trkpt>
      <trkpt lat="42.990880" lon="-1.266889">
        <ele>1177.078</ele>
        <time>2010-06-11T17:11:13Z</time>
      </trkpt>
      <trkpt lat="42.990583" lon="-1.266560">
        <ele>1185.028</ele>
        <time>2010-06-11T17:11:51Z</time>
      </trkpt>
      <trkpt lat="42.990287" lon="-1.264882">
        <ele>1190.089</ele>
        <time>2010-06-11T17:13:57Z</time>
      </trkpt>
      <trkpt lat="42.990033" lon="-1.264429">
        <ele>1190.017</ele>
        <time>2010-06-11T17:14:38Z</time>
      </trkpt>
      <trkpt lat="42.989239" lon="-1.264083">
        <ele>1185.006</ele>
        <time>2010-06-11T17:16:02Z</time>
      </trkpt>
      <trkpt lat="42.988572" lon="-1.263151">
        <ele>1182.061</ele>
        <time>2010-06-11T17:17:38Z</time>
      </trkpt>
      <trkpt lat="42.987695" lon="-1.261674">
        <ele>1168.068</ele>
        <time>2010-06-11T17:19:56Z</time>
      </trkpt>
      <trkpt lat="42.987467" lon="-1.261527">
        <ele>1164.025</ele>
        <time>2010-06-11T17:20:22Z</time>
      </trkpt>
      <trkpt lat="42.987313" lon="-1.261746">
        <ele>1157.083</ele>
        <time>2010-06-11T17:20:44Z</time>
      </trkpt>
      <trkpt lat="42.987118" lon="-1.262242">
        <ele>1154.061</ele>
        <time>2010-06-11T17:21:26Z</time>
      </trkpt>
      <trkpt lat="42.986960" lon="-1.262216">
        <ele>1153.033</ele>
        <time>2010-06-11T17:21:42Z</time>
      </trkpt>
      <trkpt lat="42.987043" lon="-1.261784">
        <ele>1152.097</ele>
        <time>2010-06-11T17:22:13Z</time>
      </trkpt>
      <trkpt lat="42.986546" lon="-1.260142">
        <ele>1152.023</ele>
        <time>2010-06-11T17:24:25Z</time>
      </trkpt>
      <trkpt lat="42.985882" lon="-1.257922">
        <ele>1145.025</ele>
        <time>2010-06-11T17:27:20Z</time>
      </trkpt>
      <trkpt lat="42.985676" lon="-1.257744">
        <ele>1141.006</ele>
        <time>2010-06-11T17:27:44Z</time>
      </trkpt>
      <trkpt lat="42.985092" lon="-1.257822">
        <ele>1133.018</ele>
        <time>2010-06-11T17:28:43Z</time>
      </trkpt>
      <trkpt lat="42.984909" lon="-1.257613">
        <ele>1133.095</ele>
        <time>2010-06-11T17:29:06Z</time>
      </trkpt>
      <trkpt lat="42.984492" lon="-1.256827">
        <ele>1123.022</ele>
        <time>2010-06-11T17:30:17Z</time>
      </trkpt>
      <trkpt lat="42.984174" lon="-1.256652">
        <ele>1118.070</ele>
        <time>2010-06-11T17:30:51Z</time>
      </trkpt>
      <trkpt lat="42.983473" lon="-1.256488">
        <ele>1116.048</ele>
        <time>2010-06-11T17:32:04Z</time>
      </trkpt>
      <trkpt lat="42.982699" lon="-1.255897">
        <ele>1110.030</ele>
        <time>2010-06-11T17:33:32Z</time>
      </trkpt>
      <trkpt lat="42.982428" lon="-1.255843">
        <ele>1105.039</ele>
        <time>2010-06-11T17:34:00Z</time>
      </trkpt>
      <trkpt lat="42.981629" lon="-1.255099">
        <ele>1103.001</ele>
        <time>2010-06-11T17:35:37Z</time>
      </trkpt>
      <trkpt lat="42.981245" lon="-1.255049">
        <ele>1106.021</ele>
        <time>2010-06-11T17:36:15Z</time>
      </trkpt>
      <trkpt lat="42.978313" lon="-1.254641">
        <ele>1114.006</ele>
        <time>2010-06-11T17:41:10Z</time>
      </trkpt>
      <trkpt lat="42.977653" lon="-1.254230">
        <ele>1111.022</ele>
        <time>2010-06-11T17:42:22Z</time>
      </trkpt>
      <trkpt lat="42.977055" lon="-1.253358">
        <ele>1109.049</ele>
        <time>2010-06-11T17:43:49Z</time>
      </trkpt>
      <trkpt lat="42.975990" lon="-1.249985">
        <ele>1078.066</ele>
        <time>2010-06-11T17:48:18Z</time>
      </trkpt>
      <trkpt lat="42.975281" lon="-1.248786">
        <ele>1058.084</ele>
        <time>2010-06-11T17:50:11Z</time>
      </trkpt>
      <trkpt lat="42.972022" lon="-1.246317">
        <ele>891.092</ele>
        <time>2010-06-11T17:56:25Z</time>
      </trkpt>
      <trkpt lat="42.969931" lon="-1.244009">
        <ele>817.044</ele>
        <time>2010-06-11T18:00:53Z</time>
      </trkpt>
      <trkpt lat="42.967532" lon="-1.242033">
        <ele>771.096</ele>
        <time>2010-06-11T18:05:33Z</time>
      </trkpt>
      <trkpt lat="42.967154" lon="-1.241867">
        <ele>769.031</ele>
        <time>2010-06-11T18:06:14Z</time>
      </trkpt>
      <trkpt lat="42.966751" lon="-1.242032">
        <ele>762.024</ele>
        <time>2010-06-11T18:06:56Z</time>
      </trkpt>
      <trkpt lat="42.965961" lon="-1.241901">
        <ele>749.006</ele>
        <time>2010-06-11T18:08:15Z</time>
      </trkpt>
      <trkpt lat="42.965756" lon="-1.241723">
        <ele>746.028</ele>
        <time>2010-06-11T18:08:39Z</time>
      </trkpt>
      <trkpt lat="42.965884" lon="-1.241290">
        <ele>743.025</ele>
        <time>2010-06-11T18:09:13Z</time>
      </trkpt>
      <trkpt lat="42.965719" lon="-1.240805">
        <ele>738.052</ele>
        <time>2010-06-11T18:09:53Z</time>
      </trkpt>
      <trkpt lat="42.965304" lon="-1.240173">
        <ele>732.020</ele>
        <time>2010-06-11T18:10:56Z</time>
      </trkpt>
      <trkpt lat="42.965316" lon="-1.239467">
        <ele>729.068</ele>
        <time>2010-06-11T18:11:47Z</time>
      </trkpt>
      <trkpt lat="42.964839" lon="-1.237703">
        <ele>725.070</ele>
        <time>2010-06-11T18:14:04Z</time>
      </trkpt>
      <trkpt lat="42.964402" lon="-1.237164">
        <ele>733.045</ele>
        <time>2010-06-11T18:15:03Z</time>
      </trkpt>
      <trkpt lat="42.964122" lon="-1.237938">
        <ele>744.047</ele>
        <time>2010-06-11T18:16:07Z</time>
      </trkpt>
      <trkpt lat="42.963747" lon="-1.238470">
        <ele>778.011</ele>
        <time>2010-06-11T18:17:01Z</time>
      </trkpt>
      <trkpt lat="42.963166" lon="-1.238732">
        <ele>799.006</ele>
        <time>2010-06-11T18:18:01Z</time>
      </trkpt>
      <trkpt lat="42.962559" lon="-1.238780">
        <ele>803.013</ele>
        <time>2010-06-11T18:19:02Z</time>
      </trkpt>
      <trkpt lat="42.962006" lon="-1.237968">
        <ele>817.030</ele>
        <time>2010-06-11T18:20:25Z</time>
      </trkpt>
      <trkpt lat="42.961447" lon="-1.236727">
        <ele>832.077</ele>
        <time>2010-06-11T18:22:11Z</time>
      </trkpt>
      <trkpt lat="42.961128" lon="-1.236491">
        <ele>833.085</ele>
        <time>2010-06-11T18:22:48Z</time>
      </trkpt>
      <trkpt lat="42.960342" lon="-1.235165">
        <ele>838.083</ele>
        <time>2010-06-11T18:24:52Z</time>
      </trkpt>
      <trkpt lat="42.958845" lon="-1.234411">
        <ele>863.085</ele>
        <time>2010-06-11T18:27:31Z</time>
      </trkpt>
      <trkpt lat="42.956900" lon="-1.233823">
        <ele>889.025</ele>
        <time>2010-06-11T18:30:52Z</time>
      </trkpt>
      <trkpt lat="42.955874" lon="-1.233025">
        <ele>914.026</ele>
        <time>2010-06-11T18:32:50Z</time>
      </trkpt>
      <trkpt lat="42.955459" lon="-1.232362">
        <ele>922.008</ele>
        <time>2010-06-11T18:33:53Z</time>
      </trkpt>
      <trkpt lat="42.954855" lon="-1.232655">
        <ele>927.006</ele>
        <time>2010-06-11T18:34:57Z</time>
      </trkpt>
      <trkpt lat="42.954219" lon="-1.233746">
        <ele>935.071</ele>
        <time>2010-06-11T18:36:39Z</time>
      </trkpt>
      <trkpt lat="42.953669" lon="-1.234528">
        <ele>926.068</ele>
        <time>2010-06-11T18:37:58Z</time>
      </trkpt>
      <trkpt lat="42.952969" lon="-1.234426">
        <ele>915.095</ele>
        <time>2010-06-11T18:39:10Z</time>
      </trkpt>
      <trkpt lat="42.952629" lon="-1.234251">
        <ele>915.013</ele>
        <time>2010-06-11T18:39:45Z</time>
      </trkpt>
      <trkpt lat="42.952482" lon="-1.233459">
        <ele>929.021</ele>
        <time>2010-06-11T18:40:46Z</time>
      </trkpt>
      <trkpt lat="42.952099" lon="-1.233439">
        <ele>928.053</ele>
        <time>2010-06-11T18:41:24Z</time>
      </trkpt>
      <trkpt lat="42.951522" lon="-1.234038">
        <ele>923.099</ele>
        <time>2010-06-11T18:42:37Z</time>
      </trkpt>
      <trkpt lat="42.950876" lon="-1.234455">
        <ele>919.007</ele>
        <time>2010-06-11T18:43:47Z</time>
      </trkpt>
      <trkpt lat="42.950223" lon="-1.234443">
        <ele>912.027</ele>
        <time>2010-06-11T18:44:54Z</time>
      </trkpt>
      <trkpt lat="42.949901" lon="-1.233992">
        <ele>912.006</ele>
        <time>2010-06-11T18:45:40Z</time>
      </trkpt>
      <trkpt lat="42.949262" lon="-1.231988">
        <ele>913.018</ele>
        <time>2010-06-11T18:48:19Z</time>
      </trkpt>
      <trkpt lat="42.948922" lon="-1.231845">
        <ele>910.025</ele>
        <time>2010-06-11T18:48:56Z</time>
      </trkpt>
      <trkpt lat="42.948067" lon="-1.231869">
        <ele>907.052</ele>
        <time>2010-06-11T18:50:20Z</time>
      </trkpt>
      <trkpt lat="42.947586" lon="-1.231331">
        <ele>914.020</ele>
        <time>2010-06-11T18:51:22Z</time>
      </trkpt>
      <trkpt lat="42.946699" lon="-1.230713">
        <ele>916.028</ele>
        <time>2010-06-11T18:53:03Z</time>
      </trkpt>
      <trkpt lat="42.946479" lon="-1.229586">
        <ele>927.080</ele>
        <time>2010-06-11T18:54:27Z</time>
      </trkpt>
      <trkpt lat="42.946699" lon="-1.229273">
        <ele>931.041</ele>
        <time>2010-06-11T18:55:00Z</time>
      </trkpt>
      <trkpt lat="42.947024" lon="-1.228497">
        <ele>940.081</ele>
        <time>2010-06-11T18:56:06Z</time>
      </trkpt>
      <trkpt lat="42.947630" lon="-1.228357">
        <ele>952.009</ele>
        <time>2010-06-11T18:57:06Z</time>
      </trkpt>
      <trkpt lat="42.948089" lon="-1.227456">
        <ele>976.006</ele>
        <time>2010-06-11T18:58:27Z</time>
      </trkpt>
      <trkpt lat="42.948294" lon="-1.226163">
        <ele>996.053</ele>
        <time>2010-06-11T19:00:05Z</time>
      </trkpt>
      <trkpt lat="42.948733" lon="-1.225415">
        <ele>1009.050</ele>
        <time>2010-06-11T19:01:15Z</time>
      </trkpt>
      <trkpt lat="42.948960" lon="-1.224121">
        <ele>1027.057</ele>
        <time>2010-06-11T19:02:52Z</time>
      </trkpt>
      <trkpt lat="42.948857" lon="-1.218914">
        <ele>1084.075</ele>
        <time>2010-06-11T19:09:14Z</time>
      </trkpt>
      <trkpt lat="42.948486" lon="-1.213930">
        <ele>1114.053</ele>
        <time>2010-06-11T19:15:20Z</time>
      </trkpt>
      <trkpt lat="42.948810" lon="-1.213032">
        <ele>1123.065</ele>
        <time>2010-06-11T19:16:33Z</time>
      </trkpt>
      <trkpt lat="42.949231" lon="-1.212621">
        <ele>1133.052</ele>
        <time>2010-06-11T19:17:26Z</time>
      </trkpt>
      <trkpt lat="42.949415" lon="-1.209950">
        <ele>1152.053</ele>
        <time>2010-06-11T19:20:42Z</time>
      </trkpt>
      <trkpt lat="42.948979" lon="-1.206591">
        <ele>1153.008</ele>
        <time>2010-06-11T19:24:51Z</time>
      </trkpt>
      <trkpt lat="42.948335" lon="-1.204281">
        <ele>1147.006</ele>
        <time>2010-06-11T19:27:53Z</time>
      </trkpt>
      <trkpt lat="42.948498" lon="-1.203173">
        <ele>1169.064</ele>
        <time>2010-06-11T19:29:16Z</time>
      </trkpt>
      <trkpt lat="42.948778" lon="-1.202338">
        <ele>1185.051</ele>
        <time>2010-06-11T19:30:23Z</time>
      </trkpt>
      <trkpt lat="42.949090" lon="-1.202175">
        <ele>1200.088</ele>
        <time>2010-06-11T19:30:56Z</time>
      </trkpt>
      <trkpt lat="42.949579" lon="-1.203172">
        <ele>1210.086</ele>
        <time>2010-06-11T19:32:25Z</time>
      </trkpt>
      <trkpt lat="42.950107" lon="-1.205272">
        <ele>1233.054</ele>
        <time>2010-06-11T19:35:07Z</time>
      </trkpt>
      <trkpt lat="42.950433" lon="-1.205936">
        <ele>1264.026</ele>
        <time>2010-06-11T19:36:05Z</time>
      </trkpt>
      <trkpt lat="42.951616" lon="-1.206729">
        <ele>1282.059</ele>
        <time>2010-06-11T19:38:18Z</time>
      </trkpt>
      <trkpt lat="42.951576" lon="-1.205658">
        <ele>1294.003</ele>
        <time>2010-06-11T19:39:35Z</time>
      </trkpt>
      <trkpt lat="42.951133" lon="-1.203250">
        <ele>1303.023</ele>
        <time>2010-06-11T19:42:38Z</time>
      </trkpt>
      <trkpt lat="42.951344" lon="-1.202355">
        <ele>1313.006</ele>
        <time>2010-06-11T19:43:47Z</time>
      </trkpt>
      <trkpt lat="42.951076" lon="-1.201045">
        <ele>1314.064</ele>
        <time>2010-06-11T19:45:27Z</time>
      </trkpt>
      <trkpt lat="42.951369" lon="-1.199657">
        <ele>1336.031</ele>
        <time>2010-06-11T19:47:13Z</time>
      </trkpt>
      <trkpt lat="42.951224" lon="-1.197547">
        <ele>1339.048</ele>
        <time>2010-06-11T19:49:48Z</time>
      </trkpt>
      <trkpt lat="42.951451" lon="-1.194844">
        <ele>1354.036</ele>
        <time>2010-06-11T19:53:07Z</time>
      </trkpt>
      <trkpt lat="42.951877" lon="-1.191858">
        <ele>1367.024</ele>
        <time>2010-06-11T19:56:50Z</time>
      </trkpt>
      <trkpt lat="42.951708" lon="-1.191158">
        <ele>1368.096</ele>
        <time>2010-06-11T19:57:44Z</time>
      </trkpt>
      <trkpt lat="42.951764" lon="-1.190391">
        <ele>1329.024</ele>
        <time>2010-06-11T19:58:40Z</time>
      </trkpt>
      <trkpt lat="42.952042" lon="-1.189494">
        <ele>1337.004</ele>
        <time>2010-06-11T19:59:51Z</time>
      </trkpt>
      <trkpt lat="42.951890" lon="-1.188395">
        <ele>1379.014</ele>
        <time>2010-06-11T20:01:14Z</time>
      </trkpt>
      <trkpt lat="42.952219" lon="-1.186455">
        <ele>1364.006</ele>
        <time>2010-06-11T20:03:40Z</time>
      </trkpt>
      <trkpt lat="42.953181" lon="-1.184679">
        <ele>1356.031</ele>
        <time>2010-06-11T20:06:20Z</time>
      </trkpt>
      <trkpt lat="42.953464" lon="-1.181239">
        <ele>1358.048</ele>
        <time>2010-06-11T20:10:34Z</time>
      </trkpt>
      <trkpt lat="42.953461" lon="-1.178174">
        <ele>1373.015</ele>
        <time>2010-06-11T20:14:19Z</time>
      </trkpt>
      <trkpt lat="42.953621" lon="-1.176943">
        <ele>1376.033</ele>
        <time>2010-06-11T20:15:50Z</time>
      </trkpt>
      <trkpt lat="42.954012" lon="-1.176012">
        <ele>1369.031</ele>
        <time>2010-06-11T20:17:09Z</time>
      </trkpt>
      <trkpt lat="42.954154" lon="-1.175058">
        <ele>1366.023</ele>
        <time>2010-06-11T20:18:21Z</time>
      </trkpt>
      <trkpt lat="42.954129" lon="-1.173465">
        <ele>1362.019</ele>
        <time>2010-06-11T20:20:17Z</time>
      </trkpt>
      <trkpt lat="42.953931" lon="-1.170958">
        <ele>1367.009</ele>
        <time>2010-06-11T20:23:22Z</time>
      </trkpt>
      <trkpt lat="42.953625" lon="-1.170109">
        <ele>1372.019</ele>
        <time>2010-06-11T20:24:32Z</time>
      </trkpt>
      <trkpt lat="42.953925" lon="-1.166361">
        <ele>1341.006</ele>
        <time>2010-06-11T20:29:07Z</time>
      </trkpt>
      <trkpt lat="42.954507" lon="-1.163371">
        <ele>1344.090</ele>
        <time>2010-06-11T20:32:53Z</time>
      </trkpt>
      <trkpt lat="42.955849" lon="-1.161431">
        <ele>1361.037</ele>
        <time>2010-06-11T20:36:09Z</time>
      </trkpt>
      <trkpt lat="42.955753" lon="-1.161035">
        <ele>1361.074</ele>
        <time>2010-06-11T20:36:41Z</time>
      </trkpt>
      <trkpt lat="42.955746" lon="-1.160606">
        <ele>1363.022</ele>
        <time>2010-06-11T20:37:11Z</time>
      </trkpt>
      <trkpt lat="42.955850" lon="-1.160082">
        <ele>1369.040</ele>
        <time>2010-06-11T20:37:51Z</time>
      </trkpt>
      <trkpt lat="42.956456" lon="-1.158562">
        <ele>1398.012</ele>
        <time>2010-06-11T20:39:58Z</time>
      </trkpt>
      <trkpt lat="42.955902" lon="-1.157721">
        <ele>1367.089</ele>
        <time>2010-06-11T20:41:21Z</time>
      </trkpt>
      <trkpt lat="42.955476" lon="-1.156446">
        <ele>1379.006</ele>
        <time>2010-06-11T20:43:03Z</time>
      </trkpt>
      <trkpt lat="42.955562" lon="-1.154789">
        <ele>1390.026</ele>
        <time>2010-06-11T20:45:06Z</time>
      </trkpt>
      <trkpt lat="42.956693" lon="-1.150924">
        <ele>1388.006</ele>
        <time>2010-06-11T20:50:10Z</time>
      </trkpt>
      <trkpt lat="42.956406" lon="-1.149890">
        <ele>1382.057</ele>
        <time>2010-06-11T20:51:32Z</time>
      </trkpt>
      <trkpt lat="42.956057" lon="-1.147756">
        <ele>1370.084</ele>
        <time>2010-06-11T20:54:12Z</time>
      </trkpt>
      <trkpt lat="42.955651" lon="-1.146358">
        <ele>1357.031</ele>
        <time>2010-06-11T20:56:02Z</time>
      </trkpt>
      <trkpt lat="42.955610" lon="-1.145225">
        <ele>1354.069</ele>
        <time>2010-06-11T20:57:24Z</time>
      </trkpt>
      <trkpt lat="42.956177" lon="-1.139906">
        <ele>1364.047</ele>
        <time>2010-06-11T21:03:59Z</time>
      </trkpt>
      <trkpt lat="42.956174" lon="-1.138343">
        <ele>1355.089</ele>
        <time>2010-06-11T21:05:52Z</time>
      </trkpt>
      <trkpt lat="42.956569" lon="-1.136339">
        <ele>1364.041</ele>
        <time>2010-06-11T21:08:25Z</time>
      </trkpt>
      <trkpt lat="42.957113" lon="-1.135158">
        <ele>1365.081</ele>
        <time>2010-06-11T21:10:07Z</time>
      </trkpt>
      <trkpt lat="42.957334" lon="-1.134937">
        <ele>1366.009</ele>
        <time>2010-06-11T21:10:35Z</time>
      </trkpt>
      <trkpt lat="42.957407" lon="-1.135241">
        <ele>1368.006</ele>
        <time>2010-06-11T21:10:58Z</time>
      </trkpt>
      <trkpt lat="42.958892" lon="-1.132468">
        <ele>1408.083</ele>
        <time>2010-06-11T21:15:09Z</time>
      </trkpt>
      <trkpt lat="42.959640" lon="-1.132783">
        <ele>1428.060</ele>
        <time>2010-06-11T21:16:27Z</time>
      </trkpt>
      <trkpt lat="42.960022" lon="-1.132710">
        <ele>1444.027</ele>
        <time>2010-06-11T21:17:07Z</time>
      </trkpt>
      <trkpt lat="42.960587" lon="-1.131497">
        <ele>1491.025</ele>
        <time>2010-06-11T21:18:52Z</time>
      </trkpt>
      <trkpt lat="42.960613" lon="-1.130332">
        <ele>1475.013</ele>
        <time>2010-06-11T21:20:17Z</time>
      </trkpt>
      <trkpt lat="42.960811" lon="-1.130050">
        <ele>1468.095</ele>
        <time>2010-06-11T21:20:45Z</time>
      </trkpt>
      <trkpt lat="42.961383" lon="-1.130584">
        <ele>1460.038</ele>
        <time>2010-06-11T21:21:54Z</time>
      </trkpt>
      <trkpt lat="42.961539" lon="-1.130518">
        <ele>1449.070</ele>
        <time>2010-06-11T21:22:11Z</time>
      </trkpt>
      <trkpt lat="42.961861" lon="-1.129558">
        <ele>1418.017</ele>
        <time>2010-06-11T21:23:29Z</time>
      </trkpt>
      <trkpt lat="42.962322" lon="-1.128809">
        <ele>1405.006</ele>
        <time>2010-06-11T21:24:41Z</time>
      </trkpt>
      <trkpt lat="42.962530" lon="-1.127791">
        <ele>1384.072</ele>
        <time>2010-06-11T21:25:57Z</time>
      </trkpt>
      <trkpt lat="42.962478" lon="-1.124605">
        <ele>1361.019</ele>
        <time>2010-06-11T21:29:51Z</time>
      </trkpt>
      <trkpt lat="42.962781" lon="-1.123891">
        <ele>1353.016</ele>
        <time>2010-06-11T21:30:52Z</time>
      </trkpt>
      <trkpt lat="42.963045" lon="-1.123515">
        <ele>1346.094</ele>
        <time>2010-06-11T21:31:30Z</time>
      </trkpt>
      <trkpt lat="42.963063" lon="-1.123208">
        <ele>1347.022</ele>
        <time>2010-06-11T21:31:52Z</time>
      </trkpt>
      <trkpt lat="42.962780" lon="-1.122450">
        <ele>1361.054</ele>
        <time>2010-06-11T21:32:54Z</time>
      </trkpt>
      <trkpt lat="42.962185" lon="-1.121824">
        <ele>1381.065</ele>
        <time>2010-06-11T21:34:09Z</time>
      </trkpt>
      <trkpt lat="42.961652" lon="-1.120890">
        <ele>1403.068</ele>
        <time>2010-06-11T21:35:37Z</time>
      </trkpt>
      <trkpt lat="42.961362" lon="-1.119673">
        <ele>1408.014</ele>
        <time>2010-06-11T21:37:11Z</time>
      </trkpt>
      <trkpt lat="42.961233" lon="-1.117348">
        <ele>1424.006</ele>
        <time>2010-06-11T21:40:01Z</time>
      </trkpt>
      <trkpt lat="42.961879" lon="-1.114202">
        <ele>1420.065</ele>
        <time>2010-06-11T21:44:01Z</time>
      </trkpt>
      <trkpt lat="42.962041" lon="-1.113093">
        <ele>1414.052</ele>
        <time>2010-06-11T21:45:23Z</time>
      </trkpt>
      <trkpt lat="42.960430" lon="-1.109618">
        <ele>1420.089</ele>
        <time>2010-06-11T21:50:25Z</time>
      </trkpt>
      <trkpt lat="42.959736" lon="-1.107095">
        <ele>1422.027</ele>
        <time>2010-06-11T21:53:41Z</time>
      </trkpt>
      <trkpt lat="42.958548" lon="-1.104679">
        <ele>1425.035</ele>
        <time>2010-06-11T21:57:14Z</time>
      </trkpt>
      <trkpt lat="42.958327" lon="-1.103583">
        <ele>1424.077</ele>
        <time>2010-06-11T21:58:39Z</time>
      </trkpt>
      <trkpt lat="42.957681" lon="-1.102653">
        <ele>1436.046</ele>
        <time>2010-06-11T22:00:13Z</time>
      </trkpt>
      <trkpt lat="42.955944" lon="-1.101082">
        <ele>1424.088</ele>
        <time>2010-06-11T22:03:41Z</time>
      </trkpt>
      <trkpt lat="42.954665" lon="-1.098577">
        <ele>1394.016</ele>
        <time>2010-06-11T22:07:25Z</time>
      </trkpt>
      <trkpt lat="42.953728" lon="-1.095051">
        <ele>1359.006</ele>
        <time>2010-06-11T22:11:59Z</time>
      </trkpt>
      <trkpt lat="42.953237" lon="-1.093963">
        <ele>1360.013</ele>
        <time>2010-06-11T22:13:32Z</time>
      </trkpt>
      <trkpt lat="42.952231" lon="-1.093044">
        <ele>1330.050</ele>
        <time>2010-06-11T22:15:33Z</time>
      </trkpt>
      <trkpt lat="42.951917" lon="-1.093115">
        <ele>1323.027</ele>
        <time>2010-06-11T22:16:06Z</time>
      </trkpt>
      <trkpt lat="42.950474" lon="-1.092975">
        <ele>1285.035</ele>
        <time>2010-06-11T22:18:31Z</time>
      </trkpt>
      <trkpt lat="42.948744" lon="-1.093182">
        <ele>1244.093</ele>
        <time>2010-06-11T22:21:25Z</time>
      </trkpt>
      <trkpt lat="42.946645" lon="-1.092849">
        <ele>1197.035</ele>
        <time>2010-06-11T22:24:56Z</time>
      </trkpt>
      <trkpt lat="42.946619" lon="-1.092635">
        <ele>1196.057</ele>
        <time>2010-06-11T22:25:12Z</time>
      </trkpt>
      <trkpt lat="42.946252" lon="-1.092248">
        <ele>1190.000</ele>
        <time>2010-06-11T22:25:57Z</time>
      </trkpt>
      <trkpt lat="42.945004" lon="-1.091643">
        <ele>1173.020</ele>
        <time>2010-06-11T22:28:10Z</time>
      </trkpt>
      <trkpt lat="42.944865" lon="-1.091402">
        <ele>1172.006</ele>
        <time>2010-06-11T22:28:33Z</time>
      </trkpt>
      <trkpt lat="42.945013" lon="-1.090846">
        <ele>1168.094</ele>
        <time>2010-06-11T22:29:17Z</time>
      </trkpt>
      <trkpt lat="42.946004" lon="-1.089498">
        <ele>1164.051</ele>
        <time>2010-06-11T22:31:37Z</time>
      </trkpt>
      <trkpt lat="42.946154" lon="-1.089064">
        <ele>1165.028</ele>
        <time>2010-06-11T22:32:12Z</time>
      </trkpt>
      <trkpt lat="42.945992" lon="-1.088763">
        <ele>1169.096</ele>
        <time>2010-06-11T22:32:38Z</time>
      </trkpt>
      <trkpt lat="42.945268" lon="-1.088540">
        <ele>1154.084</ele>
        <time>2010-06-11T22:33:53Z</time>
      </trkpt>
      <trkpt lat="42.944898" lon="-1.088000">
        <ele>1152.056</ele>
        <time>2010-06-11T22:34:48Z</time>
      </trkpt>
      <trkpt lat="42.944640" lon="-1.087364">
        <ele>1148.021</ele>
        <time>2010-06-11T22:35:41Z</time>
      </trkpt>
      <trkpt lat="42.944793" lon="-1.087114">
        <ele>1147.041</ele>
        <time>2010-06-11T22:36:05Z</time>
      </trkpt>
      <trkpt lat="42.945261" lon="-1.086793">
        <ele>1163.005</ele>
        <time>2010-06-11T22:36:56Z</time>
      </trkpt>
      <trkpt lat="42.945523" lon="-1.086326">
        <ele>1175.006</ele>
        <time>2010-06-11T22:37:40Z</time>
      </trkpt>
      <trkpt lat="42.943671" lon="-1.085985">
        <ele>1132.091</ele>
        <time>2010-06-11T22:40:47Z</time>
      </trkpt>
      <trkpt lat="42.943056" lon="-1.085513">
        <ele>1133.038</ele>
        <time>2010-06-11T22:41:58Z</time>
      </trkpt>
      <trkpt lat="42.942409" lon="-1.084522">
        <ele>1126.025</ele>
        <time>2010-06-11T22:43:34Z</time>
      </trkpt>
      <trkpt lat="42.941893" lon="-1.081964">
        <ele>1082.083</ele>
        <time>2010-06-11T22:46:50Z</time>
      </trkpt>
      <trkpt lat="42.941785" lon="-1.080865">
        <ele>1068.021</ele>
        <time>2010-06-11T22:48:11Z</time>
      </trkpt>
      <trkpt lat="42.941838" lon="-1.080036">
        <ele>1075.043</ele>
        <time>2010-06-11T22:49:11Z</time>
      </trkpt>
      <trkpt lat="42.941605" lon="-1.079522">
        <ele>1057.013</ele>
        <time>2010-06-11T22:49:56Z</time>
      </trkpt>
      <trkpt lat="42.941016" lon="-1.079295">
        <ele>1031.043</ele>
        <time>2010-06-11T22:50:56Z</time>
      </trkpt>
      <trkpt lat="42.938751" lon="-1.078477">
        <ele>1011.007</ele>
        <time>2010-06-11T22:54:52Z</time>
      </trkpt>
      <trkpt lat="42.937205" lon="-1.077575">
        <ele>1002.006</ele>
        <time>2010-06-11T22:57:39Z</time>
      </trkpt>
      <trkpt lat="42.936504" lon="-1.077413">
        <ele>1000.050</ele>
        <time>2010-06-11T22:58:51Z</time>
      </trkpt>
      <trkpt lat="42.935922" lon="-1.077585">
        <ele>998.057</ele>
        <time>2010-06-11T22:59:51Z</time>
      </trkpt>
      <trkpt lat="42.933382" lon="-1.077817">
        <ele>986.034</ele>
        <time>2010-06-11T23:04:04Z</time>
      </trkpt>
      <trkpt lat="42.932593" lon="-1.077750">
        <ele>988.012</ele>
        <time>2010-06-11T23:05:25Z</time>
      </trkpt>
      <trkpt lat="42.931679" lon="-1.078329">
        <ele>978.020</ele>
        <time>2010-06-11T23:07:04Z</time>
      </trkpt>
      <trkpt lat="42.929613" lon="-1.078608">
        <ele>971.062</ele>
        <time>2010-06-11T23:10:33Z</time>
      </trkpt>
      <trkpt lat="42.929009" lon="-1.078811">
        <ele>975.098</ele>
        <time>2010-06-11T23:11:35Z</time>
      </trkpt>
      <trkpt lat="42.928199" lon="-1.078836">
        <ele>981.015</ele>
        <time>2010-06-11T23:12:56Z</time>
      </trkpt>
      <trkpt lat="42.927217" lon="-1.079357">
        <ele>993.026</ele>
        <time>2010-06-11T23:14:41Z</time>
      </trkpt>
      <trkpt lat="42.926779" lon="-1.080105">
        <ele>993.006</ele>
        <time>2010-06-11T23:15:51Z</time>
      </trkpt>
      <trkpt lat="42.926288" lon="-1.080335">
        <ele>991.048</ele>
        <time>2010-06-11T23:16:44Z</time>
      </trkpt>
      <trkpt lat="42.925000" lon="-1.080069">
        <ele>1011.085</ele>
        <time>2010-06-11T23:18:54Z</time>
      </trkpt>
      <trkpt lat="42.922900" lon="-1.081022">
        <ele>1042.082</ele>
        <time>2010-06-11T23:22:36Z</time>
      </trkpt>
      <trkpt lat="42.922706" lon="-1.081519">
        <ele>1041.080</ele>
        <time>2010-06-11T23:23:17Z</time>
      </trkpt>
      <trkpt lat="42.920779" lon="-1.082068">
        <ele>1044.088</ele>
        <time>2010-06-11T23:26:33Z</time>
      </trkpt>
      <trkpt lat="42.920137" lon="-1.082701">
        <ele>1052.060</ele>
        <time>2010-06-11T23:27:52Z</time>
      </trkpt>
      <trkpt lat="42.919859" lon="-1.083628">
        <ele>1043.056</ele>
        <time>2010-06-11T23:29:06Z</time>
      </trkpt>
      <trkpt lat="42.919081" lon="-1.084204">
        <ele>1028.059</ele>
        <time>2010-06-11T23:30:35Z</time>
      </trkpt>
      <trkpt lat="42.918046" lon="-1.084205">
        <ele>1031.014</ele>
        <time>2010-06-11T23:32:18Z</time>
      </trkpt>
      <trkpt lat="42.916883" lon="-1.084670">
        <ele>1024.006</ele>
        <time>2010-06-11T23:34:19Z</time>
      </trkpt>
      <trkpt lat="42.914832" lon="-1.085867">
        <ele>1000.024</ele>
        <time>2010-06-11T23:38:02Z</time>
      </trkpt>
      <trkpt lat="42.913896" lon="-1.086478">
        <ele>980.031</ele>
        <time>2010-06-11T23:39:46Z</time>
      </trkpt>
      <trkpt lat="42.911964" lon="-1.088008">
        <ele>915.018</ele>
        <time>2010-06-11T23:43:30Z</time>
      </trkpt>
      <trkpt lat="42.909700" lon="-1.088629">
        <ele>865.016</ele>
        <time>2010-06-11T23:47:21Z</time>
      </trkpt>
      <trkpt lat="42.909052" lon="-1.088925">
        <ele>849.014</ele>
        <time>2010-06-11T23:48:29Z</time>
      </trkpt>
      <trkpt lat="42.908051" lon="-1.089629">
        <ele>800.066</ele>
        <time>2010-06-11T23:50:22Z</time>
      </trkpt>
      <trkpt lat="42.907965" lon="-1.089846">
        <ele>800.068</ele>
        <time>2010-06-11T23:50:41Z</time>
      </trkpt>
      <trkpt lat="42.907693" lon="-1.089732">
        <ele>796.042</ele>
        <time>2010-06-11T23:51:09Z</time>
      </trkpt>
      <trkpt lat="42.907517" lon="-1.090013">
        <ele>788.026</ele>
        <time>2010-06-11T23:51:36Z</time>
      </trkpt>
      <trkpt lat="42.907314" lon="-1.089989">
        <ele>786.006</ele>
        <time>2010-06-11T23:51:56Z</time>
      </trkpt>
      <trkpt lat="42.906601" lon="-1.090409">
        <ele>778.095</ele>
        <time>2010-06-11T23:53:14Z</time>
      </trkpt>
      <trkpt lat="42.906063" lon="-1.090548">
        <ele>773.072</ele>
        <time>2010-06-11T23:54:09Z</time>
      </trkpt>
      <trkpt lat="42.905364" lon="-1.090509">
        <ele>767.039</ele>
        <time>2010-06-11T23:55:19Z</time>
      </trkpt>
      <trkpt lat="42.905110" lon="-1.090118">
        <ele>769.067</ele>
        <time>2010-06-11T23:55:57Z</time>
      </trkpt>
      <trkpt lat="42.905653" lon="-1.088907">
        <ele>775.065</ele>
        <time>2010-06-11T23:57:42Z</time>
      </trkpt>
      <trkpt lat="42.906492" lon="-1.087932">
        <ele>775.077</ele>
        <time>2010-06-11T23:59:32Z</time>
      </trkpt>
      <trkpt lat="42.906667" lon="-1.087620">
        <ele>773.084</ele>
        <time>2010-06-12T00:00:00Z</time>
      </trkpt>
      <trkpt lat="42.906112" lon="-1.086749">
        <ele>775.007</ele>
        <time>2010-06-12T00:01:25Z</time>
      </trkpt>
      <trkpt lat="42.906083" lon="-1.086383">
        <ele>780.017</ele>
        <time>2010-06-12T00:01:53Z</time>
      </trkpt>
      <trkpt lat="42.907756" lon="-1.084095">
        <ele>795.006</ele>
        <time>2010-06-12T00:05:49Z</time>
      </trkpt>
      <trkpt lat="42.909226" lon="-1.081814">
        <ele>814.017</ele>
        <time>2010-06-12T00:09:32Z</time>
      </trkpt>
      <trkpt lat="42.909109" lon="-1.081573">
        <ele>820.044</ele>
        <time>2010-06-12T00:09:53Z</time>
      </trkpt>
      <trkpt lat="42.908623" lon="-1.082109">
        <ele>825.021</ele>
        <time>2010-06-12T00:10:56Z</time>
      </trkpt>
      <trkpt lat="42.906955" lon="-1.083324">
        <ele>875.059</ele>
        <time>2010-06-12T00:14:04Z</time>
      </trkpt>
      <trkpt lat="42.905668" lon="-1.084466">
        <ele>898.037</ele>
        <time>2010-06-12T00:16:39Z</time>
      </trkpt>
      <trkpt lat="42.903601" lon="-1.086031">
        <ele>908.059</ele>
        <time>2010-06-12T00:20:34Z</time>
      </trkpt>
      <trkpt lat="42.903320" lon="-1.086713">
        <ele>902.061</ele>
        <time>2010-06-12T00:21:33Z</time>
      </trkpt>
      <trkpt lat="42.903008" lon="-1.086937">
        <ele>899.021</ele>
        <time>2010-06-12T00:22:08Z</time>
      </trkpt>
      <trkpt lat="42.902646" lon="-1.086795">
        <ele>902.013</ele>
        <time>2010-06-12T00:22:45Z</time>
      </trkpt>
      <trkpt lat="42.902566" lon="-1.086063">
        <ele>900.006</ele>
        <time>2010-06-12T00:23:39Z</time>
      </trkpt>
      <trkpt lat="42.902900" lon="-1.084521">
        <ele>914.055</ele>
        <time>2010-06-12T00:25:38Z</time>
      </trkpt>
      <trkpt lat="42.903678" lon="-1.081190">
        <ele>946.052</ele>
        <time>2010-06-12T00:29:54Z</time>
      </trkpt>
      <trkpt lat="42.904469" lon="-1.080033">
        <ele>967.079</ele>
        <time>2010-06-12T00:31:49Z</time>
      </trkpt>
      <trkpt lat="42.905107" lon="-1.077839">
        <ele>969.017</ele>
        <time>2010-06-12T00:34:43Z</time>
      </trkpt>
      <trkpt lat="42.905119" lon="-1.077195">
        <ele>969.025</ele>
        <time>2010-06-12T00:35:29Z</time>
      </trkpt>
      <trkpt lat="42.904931" lon="-1.075425">
        <ele>977.097</ele>
        <time>2010-06-12T00:37:41Z</time>
      </trkpt>
      <trkpt lat="42.905513" lon="-1.075223">
        <ele>982.012</ele>
        <time>2010-06-12T00:38:41Z</time>
      </trkpt>
      <trkpt lat="42.907377" lon="-1.073572">
        <ele>1003.032</ele>
        <time>2010-06-12T00:42:23Z</time>
      </trkpt>
      <trkpt lat="42.907671" lon="-1.073686">
        <ele>1008.005</ele>
        <time>2010-06-12T00:42:54Z</time>
      </trkpt>
      <trkpt lat="42.908543" lon="-1.074639">
        <ele>1006.006</ele>
        <time>2010-06-12T00:44:46Z</time>
      </trkpt>
      <trkpt lat="42.908766" lon="-1.074509">
        <ele>1009.080</ele>
        <time>2010-06-12T00:45:11Z</time>
      </trkpt>
      <trkpt lat="42.908574" lon="-1.073811">
        <ele>1017.087</ele>
        <time>2010-06-12T00:46:05Z</time>
      </trkpt>
      <trkpt lat="42.908503" lon="-1.072282">
        <ele>1029.094</ele>
        <time>2010-06-12T00:47:57Z</time>
      </trkpt>
      <trkpt lat="42.908197" lon="-1.071464">
        <ele>1036.032</ele>
        <time>2010-06-12T00:49:04Z</time>
      </trkpt>
      <trkpt lat="42.908143" lon="-1.070946">
        <ele>1041.050</ele>
        <time>2010-06-12T00:49:42Z</time>
      </trkpt>
      <trkpt lat="42.908229" lon="-1.070698">
        <ele>1043.062</ele>
        <time>2010-06-12T00:50:03Z</time>
      </trkpt>
      <trkpt lat="42.908020" lon="-1.070337">
        <ele>1049.017</ele>
        <time>2010-06-12T00:50:36Z</time>
      </trkpt>
      <trkpt lat="42.907631" lon="-1.069951">
        <ele>1046.087</ele>
        <time>2010-06-12T00:51:24Z</time>
      </trkpt>
      <trkpt lat="42.907463" lon="-1.069374">
        <ele>1056.015</ele>
        <time>2010-06-12T00:52:10Z</time>
      </trkpt>
      <trkpt lat="42.907571" lon="-1.069095">
        <ele>1060.006</ele>
        <time>2010-06-12T00:52:34Z</time>
      </trkpt>
      <trkpt lat="42.907821" lon="-1.069241">
        <ele>1065.070</ele>
        <time>2010-06-12T00:53:01Z</time>
      </trkpt>
      <trkpt lat="42.908082" lon="-1.067364">
        <ele>1087.027</ele>
        <time>2010-06-12T00:55:21Z</time>
      </trkpt>
      <trkpt lat="42.907788" lon="-1.065934">
        <ele>1094.054</ele>
        <time>2010-06-12T00:57:09Z</time>
      </trkpt>
      <trkpt lat="42.907369" lon="-1.065120">
        <ele>1097.022</ele>
        <time>2010-06-12T00:58:23Z</time>
      </trkpt>
      <trkpt lat="42.906543" lon="-1.064197">
        <ele>1106.050</ele>
        <time>2010-06-12T01:00:09Z</time>
      </trkpt>
      <trkpt lat="42.905039" lon="-1.061794">
        <ele>1117.022</ele>
        <time>2010-06-12T01:04:00Z</time>
      </trkpt>
      <trkpt lat="42.904710" lon="-1.060978">
        <ele>1120.042</ele>
        <time>2010-06-12T01:05:10Z</time>
      </trkpt>
      <trkpt lat="42.903869" lon="-1.059167">
        <ele>1132.022</ele>
        <time>2010-06-12T01:07:46Z</time>
      </trkpt>
      <trkpt lat="42.903771" lon="-1.058710">
        <ele>1135.014</ele>
        <time>2010-06-12T01:08:21Z</time>
      </trkpt>
      <trkpt lat="42.901921" lon="-1.057115">
        <ele>1129.006</ele>
        <time>2010-06-12T01:12:01Z</time>
      </trkpt>
      <trkpt lat="42.900428" lon="-1.056703">
        <ele>1146.073</ele>
        <time>2010-06-12T01:14:32Z</time>
      </trkpt>
      <trkpt lat="42.897850" lon="-1.054701">
        <ele>1175.070</ele>
        <time>2010-06-12T01:19:30Z</time>
      </trkpt>
      <trkpt lat="42.897305" lon="-1.054412">
        <ele>1185.097</ele>
        <time>2010-06-12T01:20:27Z</time>
      </trkpt>
      <trkpt lat="42.896357" lon="-1.054259">
        <ele>1190.065</ele>
        <time>2010-06-12T01:22:04Z</time>
      </trkpt>
      <trkpt lat="42.895604" lon="-1.053670">
        <ele>1185.023</ele>
        <time>2010-06-12T01:23:30Z</time>
      </trkpt>
      <trkpt lat="42.893612" lon="-1.053028">
        <ele>1203.055</ele>
        <time>2010-06-12T01:26:56Z</time>
      </trkpt>
      <trkpt lat="42.892079" lon="-1.052923">
        <ele>1212.017</ele>
        <time>2010-06-12T01:29:28Z</time>
      </trkpt>
      <trkpt lat="42.891211" lon="-1.052155">
        <ele>1211.087</ele>
        <time>2010-06-12T01:31:12Z</time>
      </trkpt>
      <trkpt lat="42.889469" lon="-1.049056">
        <ele>1214.015</ele>
        <time>2010-06-12T01:35:59Z</time>
      </trkpt>
      <trkpt lat="42.887886" lon="-1.045953">
        <ele>1211.006</ele>
        <time>2010-06-12T01:40:36Z</time>
      </trkpt>
      <trkpt lat="42.885902" lon="-1.043168">
        <ele>1225.040</ele>
        <time>2010-06-12T01:45:20Z</time>
      </trkpt>
      <trkpt lat="42.885552" lon="-1.042414">
        <ele>1226.097</ele>
        <time>2010-06-12T01:46:26Z</time>
      </trkpt>
      <trkpt lat="42.884093" lon="-1.041358">
        <ele>1231.064</ele>
        <time>2010-06-12T01:49:11Z</time>
      </trkpt>
      <trkpt lat="42.883609" lon="-1.039384">
        <ele>1220.022</ele>
        <time>2010-06-12T01:51:44Z</time>
      </trkpt>
      <trkpt lat="42.883371" lon="-1.038626">
        <ele>1224.010</ele>
        <time>2010-06-12T01:52:45Z</time>
      </trkpt>
      <trkpt lat="42.883512" lon="-1.037673">
        <ele>1228.092</ele>
        <time>2010-06-12T01:53:55Z</time>
      </trkpt>
      <trkpt lat="42.883491" lon="-1.036479">
        <ele>1232.094</ele>
        <time>2010-06-12T01:55:24Z</time>
      </trkpt>
      <trkpt lat="42.884353" lon="-1.034248">
        <ele>1244.057</ele>
        <time>2010-06-12T01:58:29Z</time>
      </trkpt>
      <trkpt lat="42.884817" lon="-1.033713">
        <ele>1246.022</ele>
        <time>2010-06-12T01:59:29Z</time>
      </trkpt>
      <trkpt lat="42.885032" lon="-1.033094">
        <ele>1249.006</ele>
        <time>2010-06-12T02:00:20Z</time>
      </trkpt>
      <trkpt lat="42.884998" lon="-1.032452">
        <ele>1252.048</ele>
        <time>2010-06-12T02:01:06Z</time>
      </trkpt>
      <trkpt lat="42.885102" lon="-1.031928">
        <ele>1252.075</ele>
        <time>2010-06-12T02:01:46Z</time>
      </trkpt>
      <trkpt lat="42.885698" lon="-1.031266">
        <ele>1254.052</ele>
        <time>2010-06-12T02:03:04Z</time>
      </trkpt>
      <trkpt lat="42.885801" lon="-1.030712">
        <ele>1257.080</ele>
        <time>2010-06-12T02:03:45Z</time>
      </trkpt>
      <trkpt lat="42.885830" lon="-1.029762">
        <ele>1260.068</ele>
        <time>2010-06-12T02:04:54Z</time>
      </trkpt>
      <trkpt lat="42.886016" lon="-1.027491">
        <ele>1249.010</ele>
        <time>2010-06-12T02:07:43Z</time>
      </trkpt>
      <trkpt lat="42.887053" lon="-1.025009">
        <ele>1256.028</ele>
        <time>2010-06-12T02:11:11Z</time>
      </trkpt>
      <trkpt lat="42.887089" lon="-1.024456">
        <ele>1254.089</ele>
        <time>2010-06-12T02:11:52Z</time>
      </trkpt>
      <trkpt lat="42.886978" lon="-1.023235">
        <ele>1247.017</ele>
        <time>2010-06-12T02:13:23Z</time>
      </trkpt>
      <trkpt lat="42.886986" lon="-1.021092">
        <ele>1245.006</ele>
        <time>2010-06-12T02:16:01Z</time>
      </trkpt>
      <trkpt lat="42.886953" lon="-1.020481">
        <ele>1246.031</ele>
        <time>2010-06-12T02:16:44Z</time>
      </trkpt>
      <trkpt lat="42.887797" lon="-1.017239">
        <ele>1254.038</ele>
        <time>2010-06-12T02:20:58Z</time>
      </trkpt>
      <trkpt lat="42.889236" lon="-1.015816">
        <ele>1272.055</ele>
        <time>2010-06-12T02:23:55Z</time>
      </trkpt>
      <trkpt lat="42.889975" lon="-1.014322">
        <ele>1275.053</ele>
        <time>2010-06-12T02:26:07Z</time>
      </trkpt>
      <trkpt lat="42.889990" lon="-1.013863">
        <ele>1271.031</ele>
        <time>2010-06-12T02:26:41Z</time>
      </trkpt>
      <trkpt lat="42.889331" lon="-1.013516">
        <ele>1269.033</ele>
        <time>2010-06-12T02:27:52Z</time>
      </trkpt>
      <trkpt lat="42.889053" lon="-1.013066">
        <ele>1268.044</ele>
        <time>2010-06-12T02:28:34Z</time>
      </trkpt>
      <trkpt lat="42.888977" lon="-1.012579">
        <ele>1271.005</ele>
        <time>2010-06-12T02:29:12Z</time>
      </trkpt>
      <trkpt lat="42.888690" lon="-1.011639">
        <ele>1281.015</ele>
        <time>2010-06-12T02:30:25Z</time>
      </trkpt>
      <trkpt lat="42.888318" lon="-1.010947">
        <ele>1285.006</ele>
        <time>2010-06-12T02:31:29Z</time>
      </trkpt>
      <trkpt lat="42.888190" lon="-1.010063">
        <ele>1281.033</ele>
        <time>2010-06-12T02:32:34Z</time>
      </trkpt>
      <trkpt lat="42.887611" lon="-1.007816">
        <ele>1285.060</ele>
        <time>2010-06-12T02:35:29Z</time>
      </trkpt>
      <trkpt lat="42.887217" lon="-1.007155">
        <ele>1286.087</ele>
        <time>2010-06-12T02:36:33Z</time>
      </trkpt>
      <trkpt lat="42.886979" lon="-1.006459">
        <ele>1289.065</ele>
        <time>2010-06-12T02:37:29Z</time>
      </trkpt>
      <trkpt lat="42.886940" lon="-1.005511">
        <ele>1292.013</ele>
        <time>2010-06-12T02:38:39Z</time>
      </trkpt>
      <trkpt lat="42.886675" lon="-1.004479">
        <ele>1289.065</ele>
        <time>2010-06-12T02:39:58Z</time>
      </trkpt>
      <trkpt lat="42.885684" lon="-1.003164">
        <ele>1290.072</ele>
        <time>2010-06-12T02:42:17Z</time>
      </trkpt>
      <trkpt lat="42.885350" lon="-1.002103">
        <ele>1301.013</ele>
        <time>2010-06-12T02:43:41Z</time>
      </trkpt>
      <trkpt lat="42.885078" lon="-1.001989">
        <ele>1306.014</ele>
        <time>2010-06-12T02:44:10Z</time>
      </trkpt>
      <trkpt lat="42.884943" lon="-1.000708">
        <ele>1303.006</ele>
        <time>2010-06-12T02:45:45Z</time>
      </trkpt>
      <trkpt lat="42.884576" lon="-1.000291">
        <ele>1302.026</ele>
        <time>2010-06-12T02:46:33Z</time>
      </trkpt>
      <trkpt lat="42.884102" lon="-0.998929">
        <ele>1308.063</ele>
        <time>2010-06-12T02:48:23Z</time>
      </trkpt>
      <trkpt lat="42.883661" lon="-0.996892">
        <ele>1329.020</ele>
        <time>2010-06-12T02:50:59Z</time>
      </trkpt>
      <trkpt lat="42.883010" lon="-0.995750">
        <ele>1349.068</ele>
        <time>2010-06-12T02:52:44Z</time>
      </trkpt>
      <trkpt lat="42.882351" lon="-0.995404">
        <ele>1361.036</ele>
        <time>2010-06-12T02:53:56Z</time>
      </trkpt>
      <trkpt lat="42.881406" lon="-0.994118">
        <ele>1355.058</ele>
        <time>2010-06-12T02:56:09Z</time>
      </trkpt>
      <trkpt lat="42.878063" lon="-0.990890">
        <ele>1361.015</ele>
        <time>2010-06-12T03:02:59Z</time>
      </trkpt>
      <trkpt lat="42.877372" lon="-0.990025">
        <ele>1367.065</ele>
        <time>2010-06-12T03:04:33Z</time>
      </trkpt>
      <trkpt lat="42.876724" lon="-0.987750">
        <ele>1359.011</ele>
        <time>2010-06-12T03:07:31Z</time>
      </trkpt>
      <trkpt lat="42.876692" lon="-0.987170">
        <ele>1363.006</ele>
        <time>2010-06-12T03:08:15Z</time>
      </trkpt>
      <trkpt lat="42.876136" lon="-0.986331">
        <ele>1362.040</ele>
        <time>2010-06-12T03:09:38Z</time>
      </trkpt>
      <trkpt lat="42.875750" lon="-0.984844">
        <ele>1376.017</ele>
        <time>2010-06-12T03:11:33Z</time>
      </trkpt>
      <trkpt lat="42.873804" lon="-0.983009">
        <ele>1347.014</ele>
        <time>2010-06-12T03:15:30Z</time>
      </trkpt>
      <trkpt lat="42.873256" lon="-0.982538">
        <ele>1332.042</ele>
        <time>2010-06-12T03:16:35Z</time>
      </trkpt>
      <trkpt lat="42.872620" lon="-0.982222">
        <ele>1324.020</ele>
        <time>2010-06-12T03:17:42Z</time>
      </trkpt>
      <trkpt lat="42.871807" lon="-0.980810">
        <ele>1317.052</ele>
        <time>2010-06-12T03:19:53Z</time>
      </trkpt>
      <trkpt lat="42.870654" lon="-0.980511">
        <ele>1331.096</ele>
        <time>2010-06-12T03:21:52Z</time>
      </trkpt>
      <trkpt lat="42.868479" lon="-0.978500">
        <ele>1341.031</ele>
        <time>2010-06-12T03:26:15Z</time>
      </trkpt>
      <trkpt lat="42.868042" lon="-0.977933">
        <ele>1334.024</ele>
        <time>2010-06-12T03:27:15Z</time>
      </trkpt>
      <trkpt lat="42.867596" lon="-0.976907">
        <ele>1329.006</ele>
        <time>2010-06-12T03:28:43Z</time>
      </trkpt>
      <trkpt lat="42.866838" lon="-0.976044">
        <ele>1336.018</ele>
        <time>2010-06-12T03:30:20Z</time>
      </trkpt>
      <trkpt lat="42.866136" lon="-0.975853">
        <ele>1345.095</ele>
        <time>2010-06-12T03:31:33Z</time>
      </trkpt>
      <trkpt lat="42.865857" lon="-0.975311">
        <ele>1349.022</ele>
        <time>2010-06-12T03:32:21Z</time>
      </trkpt>
      <trkpt lat="42.865710" lon="-0.974673">
        <ele>1354.090</ele>
        <time>2010-06-12T03:33:10Z</time>
      </trkpt>
      <trkpt lat="42.865481" lon="-0.973151">
        <ele>1361.098</ele>
        <time>2010-06-12T03:35:05Z</time>
      </trkpt>
      <trkpt lat="42.864968" lon="-0.972188">
        <ele>1360.060</ele>
        <time>2010-06-12T03:36:32Z</time>
      </trkpt>
      <trkpt lat="42.864518" lon="-0.972172">
        <ele>1366.075</ele>
        <time>2010-06-12T03:37:17Z</time>
      </trkpt>
      <trkpt lat="42.864215" lon="-0.971570">
        <ele>1365.028</ele>
        <time>2010-06-12T03:38:11Z</time>
      </trkpt>
      <trkpt lat="42.864089" lon="-0.970809">
        <ele>1365.020</ele>
        <time>2010-06-12T03:39:08Z</time>
      </trkpt>
      <trkpt lat="42.864809" lon="-0.969531">
        <ele>1372.006</ele>
        <time>2010-06-12T03:41:06Z</time>
      </trkpt>
      <trkpt lat="42.865312" lon="-0.967434">
        <ele>1372.066</ele>
        <time>2010-06-12T03:43:47Z</time>
      </trkpt>
      <trkpt lat="42.866481" lon="-0.966110">
        <ele>1350.033</ele>
        <time>2010-06-12T03:46:20Z</time>
      </trkpt>
      <trkpt lat="42.867179" lon="-0.966087">
        <ele>1339.050</ele>
        <time>2010-06-12T03:47:30Z</time>
      </trkpt>
      <trkpt lat="42.867554" lon="-0.965677">
        <ele>1339.068</ele>
        <time>2010-06-12T03:48:18Z</time>
      </trkpt>
      <trkpt lat="42.867869" lon="-0.964381">
        <ele>1329.036</ele>
        <time>2010-06-12T03:49:58Z</time>
      </trkpt>
      <trkpt lat="42.867569" lon="-0.962708">
        <ele>1313.018</ele>
        <time>2010-06-12T03:52:04Z</time>
      </trkpt>
      <trkpt lat="42.867190" lon="-0.961649">
        <ele>1308.032</ele>
        <time>2010-06-12T03:53:31Z</time>
      </trkpt>
      <trkpt lat="42.867130" lon="-0.960825">
        <ele>1302.092</ele>
        <time>2010-06-12T03:54:32Z</time>
      </trkpt>
      <trkpt lat="42.867209" lon="-0.960210">
        <ele>1297.011</ele>
        <time>2010-06-12T03:55:16Z</time>
      </trkpt>
      <trkpt lat="42.866835" lon="-0.959427">
        <ele>1291.006</ele>
        <time>2010-06-12T03:56:26Z</time>
      </trkpt>
      <trkpt lat="42.866514" lon="-0.957846">
        <ele>1300.012</ele>
        <time>2010-06-12T03:58:26Z</time>
      </trkpt>
      <trkpt lat="42.865268" lon="-0.954888">
        <ele>1314.039</ele>
        <time>2010-06-12T04:02:36Z</time>
      </trkpt>
      <trkpt lat="42.865095" lon="-0.954006">
        <ele>1333.076</ele>
        <time>2010-06-12T04:03:43Z</time>
      </trkpt>
      <trkpt lat="42.865287" lon="-0.953388">
        <ele>1336.074</ele>
        <time>2010-06-12T04:04:33Z</time>
      </trkpt>
      <trkpt lat="42.865639" lon="-0.952947">
        <ele>1338.072</ele>
        <time>2010-06-12T04:05:21Z</time>
      </trkpt>
      <trkpt lat="42.865566" lon="-0.952644">
        <ele>1347.044</ele>
        <time>2010-06-12T04:05:44Z</time>
      </trkpt>
      <trkpt lat="42.864945" lon="-0.953185">
        <ele>1350.067</ele>
        <time>2010-06-12T04:06:57Z</time>
      </trkpt>
      <trkpt lat="42.865221" lon="-0.952257">
        <ele>1361.081</ele>
        <time>2010-06-12T04:08:10Z</time>
      </trkpt>
      <trkpt lat="42.865326" lon="-0.951825">
        <ele>1365.019</ele>
        <time>2010-06-12T04:08:45Z</time>
      </trkpt>
      <trkpt lat="42.865120" lon="-0.951618">
        <ele>1364.006</ele>
        <time>2010-06-12T04:09:10Z</time>
      </trkpt>
      <trkpt lat="42.864762" lon="-0.951722">
        <ele>1361.035</ele>
        <time>2010-06-12T04:09:46Z</time>
      </trkpt>
      <trkpt lat="42.865001" lon="-0.951255">
        <ele>1363.012</ele>
        <time>2010-06-12T04:10:29Z</time>
      </trkpt>
      <trkpt lat="42.865123" lon="-0.950547">
        <ele>1350.059</ele>
        <time>2010-06-12T04:11:21Z</time>
      </trkpt>
      <trkpt lat="42.865017" lon="-0.947153">
        <ele>1290.067</ele>
        <time>2010-06-12T04:15:31Z</time>
      </trkpt>
      <trkpt lat="42.864910" lon="-0.946208">
        <ele>1271.095</ele>
        <time>2010-06-12T04:16:41Z</time>
      </trkpt>
      <trkpt lat="42.864413" lon="-0.944848">
        <ele>1246.097</ele>
        <time>2010-06-12T04:18:33Z</time>
      </trkpt>
      <trkpt lat="42.863664" lon="-0.943251">
        <ele>1235.025</ele>
        <time>2010-06-12T04:20:51Z</time>
      </trkpt>
      <trkpt lat="42.862461" lon="-0.941454">
        <ele>1210.026</ele>
        <time>2010-06-12T04:23:49Z</time>
      </trkpt>
      <trkpt lat="42.861150" lon="-0.941131">
        <ele>1166.008</ele>
        <time>2010-06-12T04:26:03Z</time>
      </trkpt>
      <trkpt lat="42.860698" lon="-0.938545">
        <ele>1140.006</ele>
        <time>2010-06-12T04:29:19Z</time>
      </trkpt>
      <trkpt lat="42.860385" lon="-0.937423">
        <ele>1122.031</ele>
        <time>2010-06-12T04:30:47Z</time>
      </trkpt>
      <trkpt lat="42.860965" lon="-0.937128">
        <ele>1120.068</ele>
        <time>2010-06-12T04:31:49Z</time>
      </trkpt>
      <trkpt lat="42.861414" lon="-0.938307">
        <ele>1131.025</ele>
        <time>2010-06-12T04:33:26Z</time>
      </trkpt>
      <trkpt lat="42.861426" lon="-0.937725">
        <ele>1119.083</ele>
        <time>2010-06-12T04:34:09Z</time>
      </trkpt>
      <trkpt lat="42.861550" lon="-0.937109">
        <ele>1101.051</ele>
        <time>2010-06-12T04:34:55Z</time>
      </trkpt>
      <trkpt lat="42.861559" lon="-0.936343">
        <ele>1089.043</ele>
        <time>2010-06-12T04:35:52Z</time>
      </trkpt>
      <trkpt lat="42.861248" lon="-0.935313">
        <ele>1069.078</ele>
        <time>2010-06-12T04:37:13Z</time>
      </trkpt>
      <trkpt lat="42.860956" lon="-0.932906">
        <ele>939.033</ele>
        <time>2010-06-12T04:40:13Z</time>
      </trkpt>
      <trkpt lat="42.861053" lon="-0.932046">
        <ele>897.026</ele>
        <time>2010-06-12T04:41:15Z</time>
      </trkpt>
      <trkpt lat="42.860706" lon="-0.931506">
        <ele>869.006</ele>
        <time>2010-06-12T04:42:08Z</time>
      </trkpt>
      <trkpt lat="42.860227" lon="-0.931186">
        <ele>865.086</ele>
        <time>2010-06-12T04:43:02Z</time>
      </trkpt>
      <trkpt lat="42.858863" lon="-0.927957">
        <ele>788.043</ele>
        <time>2010-06-12T04:47:36Z</time>
      </trkpt>
      <trkpt lat="42.859259" lon="-0.927454">
        <ele>780.010</ele>
        <time>2010-06-12T04:48:30Z</time>
      </trkpt>
      <trkpt lat="42.859001" lon="-0.926881">
        <ele>776.078</ele>
        <time>2010-06-12T04:49:18Z</time>
      </trkpt>
      <trkpt lat="42.858820" lon="-0.924348">
        <ele>781.026</ele>
        <time>2010-06-12T04:52:26Z</time>
      </trkpt>
      <trkpt lat="42.858471" lon="-0.923686">
        <ele>800.048</ele>
        <time>2010-06-12T04:53:26Z</time>
      </trkpt>
      <trkpt lat="42.858459" lon="-0.920535">
        <ele>804.096</ele>
        <time>2010-06-12T04:57:17Z</time>
      </trkpt>
      <trkpt lat="42.858649" lon="-0.916153">
        <ele>819.031</ele>
        <time>2010-06-12T05:02:38Z</time>
      </trkpt>
      <trkpt lat="42.859286" lon="-0.914020">
        <ele>831.024</ele>
        <time>2010-06-12T05:05:27Z</time>
      </trkpt>
      <trkpt lat="42.860687" lon="-0.911861">
        <ele>836.006</ele>
        <time>2010-06-12T05:08:59Z</time>
      </trkpt>
      <trkpt lat="42.860964" lon="-0.911026">
        <ele>831.068</ele>
        <time>2010-06-12T05:10:06Z</time>
      </trkpt>
      <trkpt lat="42.860949" lon="-0.910169">
        <ele>829.075</ele>
        <time>2010-06-12T05:11:09Z</time>
      </trkpt>
      <trkpt lat="42.861174" lon="-0.908968">
        <ele>840.042</ele>
        <time>2010-06-12T05:12:40Z</time>
      </trkpt>
      <trkpt lat="42.861117" lon="-0.905818">
        <ele>847.050</ele>
        <time>2010-06-12T05:16:31Z</time>
      </trkpt>
      <trkpt lat="42.861564" lon="-0.903172">
        <ele>859.048</ele>
        <time>2010-06-12T05:19:50Z</time>
      </trkpt>
      <trkpt lat="42.861570" lon="-0.902284">
        <ele>856.080</ele>
        <time>2010-06-12T05:20:55Z</time>
      </trkpt>
      <trkpt lat="42.861765" lon="-0.901849">
        <ele>857.088</ele>
        <time>2010-06-12T05:21:33Z</time>
      </trkpt>
      <trkpt lat="42.862118" lon="-0.901470">
        <ele>874.024</ele>
        <time>2010-06-12T05:22:18Z</time>
      </trkpt>
      <trkpt lat="42.862371" lon="-0.900543">
        <ele>874.026</ele>
        <time>2010-06-12T05:23:31Z</time>
      </trkpt>
      <trkpt lat="42.863638" lon="-0.898419">
        <ele>899.006</ele>
        <time>2010-06-12T05:26:52Z</time>
      </trkpt>
      <trkpt lat="42.864336" lon="-0.897233">
        <ele>941.077</ele>
        <time>2010-06-12T05:28:43Z</time>
      </trkpt>
      <trkpt lat="42.864081" lon="-0.896843">
        <ele>931.094</ele>
        <time>2010-06-12T05:29:22Z</time>
      </trkpt>
      <trkpt lat="42.863672" lon="-0.896950">
        <ele>925.091</ele>
        <time>2010-06-12T05:30:03Z</time>
      </trkpt>
      <trkpt lat="42.863184" lon="-0.897334">
        <ele>914.059</ele>
        <time>2010-06-12T05:31:00Z</time>
      </trkpt>
      <trkpt lat="42.862103" lon="-0.897340">
        <ele>908.097</ele>
        <time>2010-06-12T05:32:48Z</time>
      </trkpt>
      <trkpt lat="42.859815" lon="-0.896561">
        <ele>917.049</ele>
        <time>2010-06-12T05:36:44Z</time>
      </trkpt>
      <trkpt lat="42.858976" lon="-0.894968">
        <ele>951.049</ele>
        <time>2010-06-12T05:39:07Z</time>
      </trkpt>
      <trkpt lat="42.856891" lon="-0.891764">
        <ele>978.002</ele>
        <time>2010-06-12T05:44:21Z</time>
      </trkpt>
      <trkpt lat="42.856221" lon="-0.890869">
        <ele>995.022</ele>
        <time>2010-06-12T05:45:55Z</time>
      </trkpt>
      <trkpt lat="42.855904" lon="-0.890758">
        <ele>1000.006</ele>
        <time>2010-06-12T05:46:28Z</time>
      </trkpt>
      <trkpt lat="42.855636" lon="-0.890859">
        <ele>1005.013</ele>
        <time>2010-06-12T05:46:57Z</time>
      </trkpt>
      <trkpt lat="42.855704" lon="-0.892111">
        <ele>1007.020</ele>
        <time>2010-06-12T05:48:28Z</time>
      </trkpt>
      <trkpt lat="42.855459" lon="-0.892272">
        <ele>1017.097</ele>
        <time>2010-06-12T05:48:56Z</time>
      </trkpt>
      <trkpt lat="42.854951" lon="-0.891586">
        <ele>1028.075</ele>
        <time>2010-06-12T05:50:07Z</time>
      </trkpt>
      <trkpt lat="42.854646" lon="-0.890923">
        <ele>1022.033</ele>
        <time>2010-06-12T05:51:04Z</time>
      </trkpt>
      <trkpt lat="42.854324" lon="-0.890536">
        <ele>1023.075</ele>
        <time>2010-06-12T05:51:48Z</time>
      </trkpt>
      <trkpt lat="42.853396" lon="-0.890231">
        <ele>1035.069</ele>
        <time>2010-06-12T05:53:22Z</time>
      </trkpt>
      <trkpt lat="42.852815" lon="-0.890465">
        <ele>1050.004</ele>
        <time>2010-06-12T05:54:24Z</time>
      </trkpt>
      <trkpt lat="42.852788" lon="-0.892699">
        <ele>1087.024</ele>
        <time>2010-06-12T05:57:07Z</time>
      </trkpt>
      <trkpt lat="42.853163" lon="-0.893513">
        <ele>1088.006</ele>
        <time>2010-06-12T05:58:17Z</time>
      </trkpt>
      <trkpt lat="42.854185" lon="-0.895222">
        <ele>1128.075</ele>
        <time>2010-06-12T06:00:59Z</time>
      </trkpt>
      <trkpt lat="42.854181" lon="-0.896232">
        <ele>1144.082</ele>
        <time>2010-06-12T06:02:14Z</time>
      </trkpt>
      <trkpt lat="42.853643" lon="-0.897535">
        <ele>1171.069</ele>
        <time>2010-06-12T06:04:04Z</time>
      </trkpt>
      <trkpt lat="42.852993" lon="-0.897741">
        <ele>1191.027</ele>
        <time>2010-06-12T06:05:11Z</time>
      </trkpt>
      <trkpt lat="42.851558" lon="-0.896780">
        <ele>1249.075</ele>
        <time>2010-06-12T06:07:50Z</time>
      </trkpt>
      <trkpt lat="42.849484" lon="-0.896636">
        <ele>1296.027</ele>
        <time>2010-06-12T06:11:19Z</time>
      </trkpt>
      <trkpt lat="42.848340" lon="-0.896889">
        <ele>1302.039</ele>
        <time>2010-06-12T06:13:15Z</time>
      </trkpt>
      <trkpt lat="42.846619" lon="-0.896305">
        <ele>1373.001</ele>
        <time>2010-06-12T06:16:11Z</time>
      </trkpt>
      <trkpt lat="42.845249" lon="-0.894027">
        <ele>1395.021</ele>
        <time>2010-06-12T06:19:48Z</time>
      </trkpt>
      <trkpt lat="42.844628" lon="-0.893314">
        <ele>1398.006</ele>
        <time>2010-06-12T06:21:09Z</time>
      </trkpt>
      <trkpt lat="42.843755" lon="-0.893618">
        <ele>1407.012</ele>
        <time>2010-06-12T06:22:40Z</time>
      </trkpt>
      <trkpt lat="42.843034" lon="-0.893582">
        <ele>1404.089</ele>
        <time>2010-06-12T06:23:52Z</time>
      </trkpt>
      <trkpt lat="42.841016" lon="-0.892763">
        <ele>1417.096</ele>
        <time>2010-06-12T06:27:22Z</time>
      </trkpt>
      <trkpt lat="42.840305" lon="-0.892084">
        <ele>1431.084</ele>
        <time>2010-06-12T06:28:49Z</time>
      </trkpt>
      <trkpt lat="42.839579" lon="-0.890548">
        <ele>1457.022</ele>
        <time>2010-06-12T06:31:03Z</time>
      </trkpt>
      <trkpt lat="42.839353" lon="-0.889302">
        <ele>1464.094</ele>
        <time>2010-06-12T06:32:37Z</time>
      </trkpt>
      <trkpt lat="42.839195" lon="-0.885575">
        <ele>1490.087</ele>
        <time>2010-06-12T06:37:11Z</time>
      </trkpt>
      <trkpt lat="42.838768" lon="-0.884397">
        <ele>1500.042</ele>
        <time>2010-06-12T06:38:48Z</time>
      </trkpt>
      <trkpt lat="42.837191" lon="-0.880719">
        <ele>1576.026</ele>
        <time>2010-06-12T06:44:01Z</time>
      </trkpt>
      <trkpt lat="42.836845" lon="-0.879018">
        <ele>1575.006</ele>
        <time>2010-06-12T06:46:09Z</time>
      </trkpt>
      <trkpt lat="42.836485" lon="-0.875421">
        <ele>1603.087</ele>
        <time>2010-06-12T06:50:36Z</time>
      </trkpt>
      <trkpt lat="42.837074" lon="-0.873167">
        <ele>1614.074</ele>
        <time>2010-06-12T06:53:31Z</time>
      </trkpt>
      <trkpt lat="42.837300" lon="-0.869581">
        <ele>1642.041</ele>
        <time>2010-06-12T06:57:56Z</time>
      </trkpt>
      <trkpt lat="42.837554" lon="-0.868746">
        <ele>1654.029</ele>
        <time>2010-06-12T06:59:02Z</time>
      </trkpt>
      <trkpt lat="42.838081" lon="-0.868024">
        <ele>1668.057</ele>
        <time>2010-06-12T07:00:16Z</time>
      </trkpt>
      <trkpt lat="42.838149" lon="-0.865636">
        <ele>1683.029</ele>
        <time>2010-06-12T07:03:12Z</time>
      </trkpt>
      <trkpt lat="42.838243" lon="-0.864654">
        <ele>1683.062</ele>
        <time>2010-06-12T07:04:26Z</time>
      </trkpt>
      <trkpt lat="42.839430" lon="-0.861890">
        <ele>1673.083</ele>
        <time>2010-06-12T07:08:20Z</time>
      </trkpt>
      <trkpt lat="42.840936" lon="-0.860584">
        <ele>1653.011</ele>
        <time>2010-06-12T07:11:18Z</time>
      </trkpt>
      <trkpt lat="42.842301" lon="-0.857692">
        <ele>1642.006</ele>
        <time>2010-06-12T07:15:31Z</time>
      </trkpt>
      <trkpt lat="42.842831" lon="-0.857184">
        <ele>1633.085</ele>
        <time>2010-06-12T07:16:36Z</time>
      </trkpt>
      <trkpt lat="42.844615" lon="-0.857459">
        <ele>1643.052</ele>
        <time>2010-06-12T07:19:35Z</time>
      </trkpt>
      <trkpt lat="42.845398" lon="-0.857218">
        <ele>1659.049</ele>
        <time>2010-06-12T07:20:56Z</time>
      </trkpt>
      <trkpt lat="42.845887" lon="-0.856895">
        <ele>1672.017</ele>
        <time>2010-06-12T07:21:51Z</time>
      </trkpt>
      <trkpt lat="42.847428" lon="-0.853813">
        <ele>1674.095</ele>
        <time>2010-06-12T07:26:24Z</time>
      </trkpt>
      <trkpt lat="42.848195" lon="-0.852685">
        <ele>1683.027</ele>
        <time>2010-06-12T07:28:17Z</time>
      </trkpt>
      <trkpt lat="42.849384" lon="-0.851298">
        <ele>1678.048</ele>
        <time>2010-06-12T07:30:53Z</time>
      </trkpt>
      <trkpt lat="42.849816" lon="-0.849110">
        <ele>1704.061</ele>
        <time>2010-06-12T07:33:40Z</time>
      </trkpt>
      <trkpt lat="42.850087" lon="-0.849162">
        <ele>1728.017</ele>
        <time>2010-06-12T07:34:07Z</time>
      </trkpt>
      <trkpt lat="42.850215" lon="-0.848791">
        <ele>1761.006</ele>
        <time>2010-06-12T07:34:37Z</time>
      </trkpt>
      <trkpt lat="42.850579" lon="-0.848962">
        <ele>1786.013</ele>
        <time>2010-06-12T07:35:16Z</time>
      </trkpt>
      <trkpt lat="42.851436" lon="-0.847861">
        <ele>1863.070</ele>
        <time>2010-06-12T07:37:13Z</time>
      </trkpt>
      <trkpt lat="42.852194" lon="-0.847467">
        <ele>1937.047</ele>
        <time>2010-06-12T07:38:35Z</time>
      </trkpt>
      <trkpt lat="42.852954" lon="-0.845972">
        <ele>1990.065</ele>
        <time>2010-06-12T07:40:48Z</time>
      </trkpt>
      <trkpt lat="42.853460" lon="-0.845343">
        <ele>1999.083</ele>
        <time>2010-06-12T07:41:57Z</time>
      </trkpt>
      <trkpt lat="42.853419" lon="-0.844396">
        <ele>1998.025</ele>
        <time>2010-06-12T07:43:07Z</time>
      </trkpt>
      <trkpt lat="42.853092" lon="-0.843734">
        <ele>2005.093</ele>
        <time>2010-06-12T07:44:04Z</time>
      </trkpt>
      <trkpt lat="42.852922" lon="-0.843097">
        <ele>2014.065</ele>
        <time>2010-06-12T07:44:55Z</time>
      </trkpt>
      <trkpt lat="42.852930" lon="-0.842302">
        <ele>2024.021</ele>
        <time>2010-06-12T07:45:52Z</time>
      </trkpt>
      <trkpt lat="42.853232" lon="-0.841648">
        <ele>2028.006</ele>
        <time>2010-06-12T07:46:50Z</time>
      </trkpt>
      <trkpt lat="42.854094" lon="-0.841986">
        <ele>1997.038</ele>
        <time>2010-06-12T07:48:20Z</time>
      </trkpt>
      <trkpt lat="42.854670" lon="-0.842669">
        <ele>1971.035</ele>
        <time>2010-06-12T07:49:35Z</time>
      </trkpt>
      <trkpt lat="42.856176" lon="-0.842556">
        <ele>1926.082</ele>
        <time>2010-06-12T07:52:06Z</time>
      </trkpt>
      <trkpt lat="42.857172" lon="-0.842858">
        <ele>1873.040</ele>
        <time>2010-06-12T07:53:48Z</time>
      </trkpt>
      <trkpt lat="42.857628" lon="-0.841924">
        <ele>1845.038</ele>
        <time>2010-06-12T07:55:11Z</time>
      </trkpt>
      <trkpt lat="42.858091" lon="-0.841449">
        <ele>1783.050</ele>
        <time>2010-06-12T07:56:10Z</time>
      </trkpt>
      <trkpt lat="42.858460" lon="-0.840732">
        <ele>1746.023</ele>
        <time>2010-06-12T07:57:14Z</time>
      </trkpt>
      <trkpt lat="42.858563" lon="-0.840208">
        <ele>1717.083</ele>
        <time>2010-06-12T07:57:54Z</time>
      </trkpt>
      <trkpt lat="42.859750" lon="-0.838667">
        <ele>1658.011</ele>
        <time>2010-06-12T08:00:37Z</time>
      </trkpt>
      <trkpt lat="42.860186" lon="-0.837948">
        <ele>1644.006</ele>
        <time>2010-06-12T08:01:46Z</time>
      </trkpt>
      <trkpt lat="42.860218" lon="-0.837243">
        <ele>1633.061</ele>
        <time>2010-06-12T08:02:37Z</time>
      </trkpt>
      <trkpt lat="42.859920" lon="-0.836978">
        <ele>1617.098</ele>
        <time>2010-06-12T08:03:12Z</time>
      </trkpt>
      <trkpt lat="42.859886" lon="-0.836368">
        <ele>1596.035</ele>
        <time>2010-06-12T08:03:58Z</time>
      </trkpt>
      <trkpt lat="42.859752" lon="-0.835240">
        <ele>1545.063</ele>
        <time>2010-06-12T08:05:22Z</time>
      </trkpt>
      <trkpt lat="42.860114" lon="-0.834126">
        <ele>1511.071</ele>
        <time>2010-06-12T08:06:52Z</time>
      </trkpt>
      <trkpt lat="42.860220" lon="-0.832561">
        <ele>1461.043</ele>
        <time>2010-06-12T08:08:46Z</time>
      </trkpt>
      <trkpt lat="42.860415" lon="-0.830994">
        <ele>1429.014</ele>
        <time>2010-06-12T08:10:42Z</time>
      </trkpt>
      <trkpt lat="42.860451" lon="-0.829310">
        <ele>1410.054</ele>
        <time>2010-06-12T08:12:47Z</time>
      </trkpt>
      <trkpt lat="42.860993" lon="-0.827057">
        <ele>1364.009</ele>
        <time>2010-06-12T08:15:40Z</time>
      </trkpt>
      <trkpt lat="42.861210" lon="-0.826621">
        <ele>1359.006</ele>
        <time>2010-06-12T08:16:20Z</time>
      </trkpt>
      <trkpt lat="42.861370" lon="-0.825575">
        <ele>1341.080</ele>
        <time>2010-06-12T08:17:38Z</time>
      </trkpt>
      <trkpt lat="42.861681" lon="-0.825350">
        <ele>1329.047</ele>
        <time>2010-06-12T08:18:13Z</time>
      </trkpt>
      <trkpt lat="42.862270" lon="-0.825543">
        <ele>1315.034</ele>
        <time>2010-06-12T08:19:13Z</time>
      </trkpt>
      <trkpt lat="42.862733" lon="-0.826200">
        <ele>1309.082</ele>
        <time>2010-06-12T08:20:20Z</time>
      </trkpt>
      <trkpt lat="42.863304" lon="-0.826670">
        <ele>1314.070</ele>
        <time>2010-06-12T08:21:27Z</time>
      </trkpt>
      <trkpt lat="42.863871" lon="-0.826864">
        <ele>1306.012</ele>
        <time>2010-06-12T08:22:26Z</time>
      </trkpt>
      <trkpt lat="42.864231" lon="-0.826851">
        <ele>1301.021</ele>
        <time>2010-06-12T08:23:01Z</time>
      </trkpt>
      <trkpt lat="42.865070" lon="-0.827189">
        <ele>1293.041</ele>
        <time>2010-06-12T08:24:29Z</time>
      </trkpt>
      <trkpt lat="42.865588" lon="-0.827171">
        <ele>1292.005</ele>
        <time>2010-06-12T08:25:21Z</time>
      </trkpt>
      <trkpt lat="42.866011" lon="-0.826942">
        <ele>1292.006</ele>
        <time>2010-06-12T08:26:07Z</time>
      </trkpt>
      <trkpt lat="42.866174" lon="-0.826049">
        <ele>1283.011</ele>
        <time>2010-06-12T08:27:14Z</time>
      </trkpt>
      <trkpt lat="42.866148" lon="-0.825835">
        <ele>1281.048</ele>
        <time>2010-06-12T08:27:30Z</time>
      </trkpt>
      <trkpt lat="42.865806" lon="-0.825633">
        <ele>1274.045</ele>
        <time>2010-06-12T08:28:08Z</time>
      </trkpt>
      <trkpt lat="42.865774" lon="-0.825114">
        <ele>1274.053</ele>
        <time>2010-06-12T08:28:46Z</time>
      </trkpt>
      <trkpt lat="42.865654" lon="-0.824721">
        <ele>1264.071</ele>
        <time>2010-06-12T08:29:17Z</time>
      </trkpt>
      <trkpt lat="42.865128" lon="-0.823117">
        <ele>1250.093</ele>
        <time>2010-06-12T08:31:26Z</time>
      </trkpt>
      <trkpt lat="42.864758" lon="-0.821447">
        <ele>1246.031</ele>
        <time>2010-06-12T08:33:33Z</time>
      </trkpt>
      <trkpt lat="42.864922" lon="-0.820584">
        <ele>1248.061</ele>
        <time>2010-06-12T08:34:38Z</time>
      </trkpt>
      <trkpt lat="42.864909" lon="-0.818718">
        <ele>1230.007</ele>
        <time>2010-06-12T08:36:55Z</time>
      </trkpt>
      <trkpt lat="42.865168" lon="-0.816964">
        <ele>1225.006</ele>
        <time>2010-06-12T08:39:07Z</time>
      </trkpt>
      <trkpt lat="42.865030" lon="-0.816816">
        <ele>1218.042</ele>
        <time>2010-06-12T08:39:25Z</time>
      </trkpt>
      <trkpt lat="42.864390" lon="-0.817482">
        <ele>1208.059</ele>
        <time>2010-06-12T08:40:46Z</time>
      </trkpt>
      <trkpt lat="42.864965" lon="-0.815747">
        <ele>1209.066</ele>
        <time>2010-06-12T08:43:05Z</time>
      </trkpt>
      <trkpt lat="42.865048" lon="-0.814214">
        <ele>1198.064</ele>
        <time>2010-06-12T08:44:58Z</time>
      </trkpt>
      <trkpt lat="42.864502" lon="-0.812704">
        <ele>1199.052</ele>
        <time>2010-06-12T08:47:00Z</time>
      </trkpt>
      <trkpt lat="42.864550" lon="-0.810529">
        <ele>1209.054</ele>
        <time>2010-06-12T08:49:41Z</time>
      </trkpt>
      <trkpt lat="42.864421" lon="-0.809646">
        <ele>1211.051</ele>
        <time>2010-06-12T08:50:46Z</time>
      </trkpt>
      <trkpt lat="42.864066" lon="-0.808741">
        <ele>1212.001</ele>
        <time>2010-06-12T08:52:01Z</time>
      </trkpt>
      <trkpt lat="42.864033" lon="-0.808191">
        <ele>1215.011</ele>
        <time>2010-06-12T08:52:43Z</time>
      </trkpt>
      <trkpt lat="42.864146" lon="-0.807055">
        <ele>1222.006</ele>
        <time>2010-06-12T08:54:07Z</time>
      </trkpt>
      <trkpt lat="42.863632" lon="-0.804900">
        <ele>1224.054</ele>
        <time>2010-06-12T08:56:52Z</time>
      </trkpt>
      <trkpt lat="42.862555" lon="-0.802766">
        <ele>1233.051</ele>
        <time>2010-06-12T09:00:02Z</time>
      </trkpt>
      <trkpt lat="42.861646" lon="-0.799952">
        <ele>1232.078</ele>
        <time>2010-06-12T09:03:48Z</time>
      </trkpt>
      <trkpt lat="42.861428" lon="-0.799164">
        <ele>1237.046</ele>
        <time>2010-06-12T09:04:50Z</time>
      </trkpt>
      <trkpt lat="42.860920" lon="-0.798509">
        <ele>1237.034</ele>
        <time>2010-06-12T09:06:00Z</time>
      </trkpt>
      <trkpt lat="42.859374" lon="-0.797707">
        <ele>1240.026</ele>
        <time>2010-06-12T09:08:46Z</time>
      </trkpt>
      <trkpt lat="42.858567" lon="-0.796726">
        <ele>1245.074</ele>
        <time>2010-06-12T09:10:34Z</time>
      </trkpt>
      <trkpt lat="42.858281" lon="-0.795879">
        <ele>1251.056</ele>
        <time>2010-06-12T09:11:42Z</time>
      </trkpt>
      <trkpt lat="42.858175" lon="-0.795088">
        <ele>1259.021</ele>
        <time>2010-06-12T09:12:41Z</time>
      </trkpt>
      <trkpt lat="42.858188" lon="-0.794567">
        <ele>1266.006</ele>
        <time>2010-06-12T09:13:20Z</time>
      </trkpt>
      <trkpt lat="42.857835" lon="-0.793784">
        <ele>1268.076</ele>
        <time>2010-06-12T09:14:26Z</time>
      </trkpt>
      <trkpt lat="42.857567" lon="-0.792722">
        <ele>1275.033</ele>
        <time>2010-06-12T09:15:49Z</time>
      </trkpt>
      <trkpt lat="42.857265" lon="-0.792244">
        <ele>1281.070</ele>
        <time>2010-06-12T09:16:35Z</time>
      </trkpt>
      <trkpt lat="42.856725" lon="-0.792263">
        <ele>1277.098</ele>
        <time>2010-06-12T09:17:29Z</time>
      </trkpt>
      <trkpt lat="42.856383" lon="-0.792030">
        <ele>1279.016</ele>
        <time>2010-06-12T09:18:08Z</time>
      </trkpt>
      <trkpt lat="42.856166" lon="-0.791304">
        <ele>1281.048</ele>
        <time>2010-06-12T09:19:05Z</time>
      </trkpt>
      <trkpt lat="42.855605" lon="-0.790222">
        <ele>1284.086</ele>
        <time>2010-06-12T09:20:42Z</time>
      </trkpt>
      <trkpt lat="42.854698" lon="-0.788725">
        <ele>1288.060</ele>
        <time>2010-06-12T09:23:05Z</time>
      </trkpt>
      <trkpt lat="42.854728" lon="-0.787928">
        <ele>1293.026</ele>
        <time>2010-06-12T09:24:04Z</time>
      </trkpt>
      <trkpt lat="42.855055" lon="-0.785071">
        <ele>1330.006</ele>
        <time>2010-06-12T09:27:36Z</time>
      </trkpt>
      <trkpt lat="42.854759" lon="-0.783704">
        <ele>1323.067</ele>
        <time>2010-06-12T09:29:21Z</time>
      </trkpt>
      <trkpt lat="42.855331" lon="-0.781879">
        <ele>1364.024</ele>
        <time>2010-06-12T09:31:46Z</time>
      </trkpt>
      <trkpt lat="42.855071" lon="-0.780083">
        <ele>1398.041</ele>
        <time>2010-06-12T09:34:00Z</time>
      </trkpt>
      <trkpt lat="42.855048" lon="-0.778890">
        <ele>1414.059</ele>
        <time>2010-06-12T09:35:27Z</time>
      </trkpt>
      <trkpt lat="42.855562" lon="-0.778688">
        <ele>1425.017</ele>
        <time>2010-06-12T09:36:21Z</time>
      </trkpt>
      <trkpt lat="42.857051" lon="-0.776524">
        <ele>1476.079</ele>
        <time>2010-06-12T09:39:59Z</time>
      </trkpt>
      <trkpt lat="42.857501" lon="-0.775375">
        <ele>1501.066</ele>
        <time>2010-06-12T09:41:35Z</time>
      </trkpt>
      <trkpt lat="42.857897" lon="-0.772576">
        <ele>1485.029</ele>
        <time>2010-06-12T09:45:04Z</time>
      </trkpt>
      <trkpt lat="42.857935" lon="-0.771045">
        <ele>1491.021</ele>
        <time>2010-06-12T09:46:57Z</time>
      </trkpt>
      <trkpt lat="42.857303" lon="-0.768681">
        <ele>1477.006</ele>
        <time>2010-06-12T09:50:01Z</time>
      </trkpt>
      <trkpt lat="42.857490" lon="-0.767879">
        <ele>1486.095</ele>
        <time>2010-06-12T09:51:02Z</time>
      </trkpt>
      <trkpt lat="42.857860" lon="-0.764897">
        <ele>1536.022</ele>
        <time>2010-06-12T09:54:45Z</time>
      </trkpt>
      <trkpt lat="42.858554" lon="-0.762394">
        <ele>1576.099</ele>
        <time>2010-06-12T09:58:00Z</time>
      </trkpt>
      <trkpt lat="42.858426" lon="-0.761633">
        <ele>1563.047</ele>
        <time>2010-06-12T09:58:58Z</time>
      </trkpt>
      <trkpt lat="42.858398" lon="-0.760196">
        <ele>1576.035</ele>
        <time>2010-06-12T10:00:44Z</time>
      </trkpt>
      <trkpt lat="42.858286" lon="-0.759038">
        <ele>1591.077</ele>
        <time>2010-06-12T10:02:10Z</time>
      </trkpt>
      <trkpt lat="42.858383" lon="-0.758238">
        <ele>1609.089</ele>
        <time>2010-06-12T10:03:08Z</time>
      </trkpt>
      <trkpt lat="42.858551" lon="-0.757651">
        <ele>1630.006</ele>
        <time>2010-06-12T10:03:55Z</time>
      </trkpt>
      <trkpt lat="42.858475" lon="-0.756063">
        <ele>1656.026</ele>
        <time>2010-06-12T10:05:52Z</time>
      </trkpt>
      <trkpt lat="42.858730" lon="-0.754156">
        <ele>1682.006</ele>
        <time>2010-06-12T10:08:13Z</time>
      </trkpt>
      <trkpt lat="42.859255" lon="-0.752240">
        <ele>1710.037</ele>
        <time>2010-06-12T10:10:43Z</time>
      </trkpt>
      <trkpt lat="42.859215" lon="-0.751323">
        <ele>1718.034</ele>
        <time>2010-06-12T10:11:51Z</time>
      </trkpt>
      <trkpt lat="42.859360" lon="-0.750706">
        <ele>1728.061</ele>
        <time>2010-06-12T10:12:39Z</time>
      </trkpt>
      <trkpt lat="42.859327" lon="-0.750156">
        <ele>1734.019</ele>
        <time>2010-06-12T10:13:19Z</time>
      </trkpt>
      <trkpt lat="42.858846" lon="-0.748613">
        <ele>1769.017</ele>
        <time>2010-06-12T10:15:23Z</time>
      </trkpt>
      <trkpt lat="42.858837" lon="-0.748155">
        <ele>1779.079</ele>
        <time>2010-06-12T10:15:55Z</time>
      </trkpt>
      <trkpt lat="42.858623" lon="-0.747550">
        <ele>1781.054</ele>
        <time>2010-06-12T10:16:46Z</time>
      </trkpt>
      <trkpt lat="42.858658" lon="-0.747060">
        <ele>1785.056</ele>
        <time>2010-06-12T10:17:21Z</time>
      </trkpt>
      <trkpt lat="42.858531" lon="-0.746299">
        <ele>1788.011</ele>
        <time>2010-06-12T10:18:18Z</time>
      </trkpt>
      <trkpt lat="42.858409" lon="-0.744713">
        <ele>1796.006</ele>
        <time>2010-06-12T10:20:16Z</time>
      </trkpt>
      <trkpt lat="42.858704" lon="-0.743661">
        <ele>1818.024</ele>
        <time>2010-06-12T10:21:39Z</time>
      </trkpt>
      <trkpt lat="42.859054" lon="-0.742027">
        <ele>1870.061</ele>
        <time>2010-06-12T10:23:43Z</time>
      </trkpt>
      <trkpt lat="42.859035" lon="-0.741048">
        <ele>1889.088</ele>
        <time>2010-06-12T10:24:55Z</time>
      </trkpt>
      <trkpt lat="42.859231" lon="-0.740735">
        <ele>1895.056</ele>
        <time>2010-06-12T10:25:25Z</time>
      </trkpt>
      <trkpt lat="42.859585" lon="-0.740386">
        <ele>1908.074</ele>
        <time>2010-06-12T10:26:09Z</time>
      </trkpt>
      <trkpt lat="42.860240" lon="-0.738220">
        <ele>1934.016</ele>
        <time>2010-06-12T10:29:01Z</time>
      </trkpt>
      <trkpt lat="42.860468" lon="-0.737232">
        <ele>1955.035</ele>
        <time>2010-06-12T10:30:16Z</time>
      </trkpt>
      <trkpt lat="42.860537" lon="-0.736159">
        <ele>1965.086</ele>
        <time>2010-06-12T10:31:36Z</time>
      </trkpt>
      <trkpt lat="42.860772" lon="-0.734406">
        <ele>1929.014</ele>
        <time>2010-06-12T10:33:46Z</time>
      </trkpt>
      <trkpt lat="42.860967" lon="-0.734032">
        <ele>1919.006</ele>
        <time>2010-06-12T10:34:20Z</time>
      </trkpt>
      <trkpt lat="42.860730" lon="-0.733398">
        <ele>1893.042</ele>
        <time>2010-06-12T10:35:12Z</time>
      </trkpt>
      <trkpt lat="42.860986" lon="-0.732684">
        <ele>1867.039</ele>
        <time>2010-06-12T10:36:11Z</time>
      </trkpt>
      <trkpt lat="42.860951" lon="-0.732074">
        <ele>1841.096</ele>
        <time>2010-06-12T10:36:56Z</time>
      </trkpt>
      <trkpt lat="42.861102" lon="-0.731732">
        <ele>1830.094</ele>
        <time>2010-06-12T10:37:24Z</time>
      </trkpt>
      <trkpt lat="42.861095" lon="-0.731395">
        <ele>1823.052</ele>
        <time>2010-06-12T10:37:50Z</time>
      </trkpt>
      <trkpt lat="42.860878" lon="-0.730638">
        <ele>1812.054</ele>
        <time>2010-06-12T10:38:49Z</time>
      </trkpt>
      <trkpt lat="42.860554" lon="-0.730191">
        <ele>1813.014</ele>
        <time>2010-06-12T10:39:35Z</time>
      </trkpt>
      <trkpt lat="42.860524" lon="-0.729825">
        <ele>1809.054</ele>
        <time>2010-06-12T10:40:02Z</time>
      </trkpt>
      <trkpt lat="42.860646" lon="-0.729178">
        <ele>1803.009</ele>
        <time>2010-06-12T10:40:51Z</time>
      </trkpt>
      <trkpt lat="42.860924" lon="-0.728433">
        <ele>1789.006</ele>
        <time>2010-06-12T10:41:52Z</time>
      </trkpt>
      <trkpt lat="42.861070" lon="-0.726745">
        <ele>1756.010</ele>
        <time>2010-06-12T10:43:58Z</time>
      </trkpt>
      <trkpt lat="42.860903" lon="-0.726231">
        <ele>1753.097</ele>
        <time>2010-06-12T10:44:39Z</time>
      </trkpt>
      <trkpt lat="42.861094" lon="-0.725673">
        <ele>1735.014</ele>
        <time>2010-06-12T10:45:24Z</time>
      </trkpt>
      <trkpt lat="42.861444" lon="-0.725140">
        <ele>1723.062</ele>
        <time>2010-06-12T10:46:16Z</time>
      </trkpt>
      <trkpt lat="42.861490" lon="-0.724067">
        <ele>1698.050</ele>
        <time>2010-06-12T10:47:34Z</time>
      </trkpt>
      <trkpt lat="42.861765" lon="-0.723170">
        <ele>1674.052</ele>
        <time>2010-06-12T10:48:46Z</time>
      </trkpt>
      <trkpt lat="42.862285" lon="-0.722171">
        <ele>1664.065</ele>
        <time>2010-06-12T10:50:17Z</time>
      </trkpt>
      <trkpt lat="42.862246" lon="-0.721346">
        <ele>1649.068</ele>
        <time>2010-06-12T10:51:17Z</time>
      </trkpt>
      <trkpt lat="42.861898" lon="-0.719676">
        <ele>1643.014</ele>
        <time>2010-06-12T10:53:24Z</time>
      </trkpt>
      <trkpt lat="42.862259" lon="-0.717460">
        <ele>1626.006</ele>
        <time>2010-06-12T10:56:11Z</time>
      </trkpt>
      <trkpt lat="42.862916" lon="-0.716548">
        <ele>1593.095</ele>
        <time>2010-06-12T10:57:44Z</time>
      </trkpt>
      <trkpt lat="42.863318" lon="-0.716380">
        <ele>1566.042</ele>
        <time>2010-06-12T10:58:27Z</time>
      </trkpt>
      <trkpt lat="42.863700" lon="-0.716366">
        <ele>1559.019</ele>
        <time>2010-06-12T10:59:05Z</time>
      </trkpt>
      <trkpt lat="42.863551" lon="-0.715668">
        <ele>1549.057</ele>
        <time>2010-06-12T10:59:58Z</time>
      </trkpt>
      <trkpt lat="42.863676" lon="-0.715173">
        <ele>1548.075</ele>
        <time>2010-06-12T11:00:36Z</time>
      </trkpt>
      <trkpt lat="42.863691" lon="-0.714775">
        <ele>1548.097</ele>
        <time>2010-06-12T11:01:06Z</time>
      </trkpt>
      <trkpt lat="42.863480" lon="-0.714354">
        <ele>1546.041</ele>
        <time>2010-06-12T11:01:43Z</time>
      </trkpt>
      <trkpt lat="42.863172" lon="-0.712468">
        <ele>1547.081</ele>
        <time>2010-06-12T11:04:04Z</time>
      </trkpt>
      <trkpt lat="42.862647" lon="-0.710988">
        <ele>1542.009</ele>
        <time>2010-06-12T11:06:05Z</time>
      </trkpt>
      <trkpt lat="42.862445" lon="-0.709864">
        <ele>1535.006</ele>
        <time>2010-06-12T11:07:30Z</time>
      </trkpt>
      <trkpt lat="42.862050" lon="-0.709266">
        <ele>1530.013</ele>
        <time>2010-06-12T11:08:30Z</time>
      </trkpt>
      <trkpt lat="42.860690" lon="-0.707664">
        <ele>1505.090</ele>
        <time>2010-06-12T11:11:30Z</time>
      </trkpt>
      <trkpt lat="42.860115" lon="-0.707073">
        <ele>1477.037</ele>
        <time>2010-06-12T11:12:42Z</time>
      </trkpt>
      <trkpt lat="42.859387" lon="-0.706702">
        <ele>1465.055</ele>
        <time>2010-06-12T11:14:00Z</time>
      </trkpt>
      <trkpt lat="42.858265" lon="-0.705734">
        <ele>1438.033</ele>
        <time>2010-06-12T11:16:12Z</time>
      </trkpt>
      <trkpt lat="42.858378" lon="-0.704659">
        <ele>1415.015</ele>
        <time>2010-06-12T11:17:32Z</time>
      </trkpt>
      <trkpt lat="42.858329" lon="-0.704416">
        <ele>1410.044</ele>
        <time>2010-06-12T11:17:51Z</time>
      </trkpt>
      <trkpt lat="42.857872" lon="-0.704127">
        <ele>1398.005</ele>
        <time>2010-06-12T11:18:41Z</time>
      </trkpt>
      <trkpt lat="42.857702" lon="-0.703491">
        <ele>1390.015</ele>
        <time>2010-06-12T11:19:31Z</time>
      </trkpt>
      <trkpt lat="42.857759" lon="-0.702938">
        <ele>1381.006</ele>
        <time>2010-06-12T11:20:11Z</time>
      </trkpt>
      <trkpt lat="42.857531" lon="-0.702824">
        <ele>1373.043</ele>
        <time>2010-06-12T11:20:36Z</time>
      </trkpt>
      <trkpt lat="42.857105" lon="-0.702901">
        <ele>1366.090</ele>
        <time>2010-06-12T11:21:19Z</time>
      </trkpt>
      <trkpt lat="42.857033" lon="-0.702659">
        <ele>1358.077</ele>
        <time>2010-06-12T11:21:37Z</time>
      </trkpt>
      <trkpt lat="42.856878" lon="-0.702818">
        <ele>1358.035</ele>
        <time>2010-06-12T11:21:56Z</time>
      </trkpt>
      <trkpt lat="42.856830" lon="-0.702666">
        <ele>1358.013</ele>
        <time>2010-06-12T11:22:10Z</time>
      </trkpt>
      <trkpt lat="42.857088" lon="-0.702075">
        <ele>1354.025</ele>
        <time>2010-06-12T11:23:00Z</time>
      </trkpt>
      <trkpt lat="42.857083" lon="-0.701800">
        <ele>1345.011</ele>
        <time>2010-06-12T11:23:20Z</time>
      </trkpt>
      <trkpt lat="42.856750" lon="-0.702027">
        <ele>1343.021</ele>
        <time>2010-06-12T11:23:57Z</time>
      </trkpt>
      <trkpt lat="42.856861" lon="-0.700829">
        <ele>1332.003</ele>
        <time>2010-06-12T11:25:26Z</time>
      </trkpt>
      <trkpt lat="42.856810" lon="-0.700525">
        <ele>1327.006</ele>
        <time>2010-06-12T11:25:48Z</time>
      </trkpt>
      <trkpt lat="42.856520" lon="-0.700689">
        <ele>1313.010</ele>
        <time>2010-06-12T11:26:20Z</time>
      </trkpt>
      <trkpt lat="42.856318" lon="-0.700727">
        <ele>1319.077</ele>
        <time>2010-06-12T11:26:41Z</time>
      </trkpt>
      <trkpt lat="42.856399" lon="-0.700234">
        <ele>1307.054</ele>
        <time>2010-06-12T11:27:17Z</time>
      </trkpt>
      <trkpt lat="42.856303" lon="-0.699963">
        <ele>1302.012</ele>
        <time>2010-06-12T11:27:40Z</time>
      </trkpt>
      <trkpt lat="42.855906" lon="-0.700375">
        <ele>1289.020</ele>
        <time>2010-06-12T11:28:29Z</time>
      </trkpt>
      <trkpt lat="42.855483" lon="-0.700605">
        <ele>1285.032</ele>
        <time>2010-06-12T11:29:15Z</time>
      </trkpt>
      <trkpt lat="42.855311" lon="-0.699908">
        <ele>1265.034</ele>
        <time>2010-06-12T11:30:09Z</time>
      </trkpt>
      <trkpt lat="42.855529" lon="-0.698400">
        <ele>1244.055</ele>
        <time>2010-06-12T11:32:01Z</time>
      </trkpt>
      <trkpt lat="42.855498" lon="-0.697973">
        <ele>1240.010</ele>
        <time>2010-06-12T11:32:34Z</time>
      </trkpt>
      <trkpt lat="42.855187" lon="-0.697097">
        <ele>1230.006</ele>
        <time>2010-06-12T11:33:44Z</time>
      </trkpt>
      <trkpt lat="42.854991" lon="-0.696278">
        <ele>1224.012</ele>
        <time>2010-06-12T11:34:48Z</time>
      </trkpt>
      <trkpt lat="42.854918" lon="-0.694904">
        <ele>1235.059</ele>
        <time>2010-06-12T11:36:28Z</time>
      </trkpt>
      <trkpt lat="42.855212" lon="-0.692721">
        <ele>1243.036</ele>
        <time>2010-06-12T11:39:12Z</time>
      </trkpt>
      <trkpt lat="42.855078" lon="-0.691686">
        <ele>1240.084</ele>
        <time>2010-06-12T11:40:29Z</time>
      </trkpt>
      <trkpt lat="42.855046" lon="-0.688964">
        <ele>1248.022</ele>
        <time>2010-06-12T11:43:49Z</time>
      </trkpt>
      <trkpt lat="42.854996" lon="-0.687619">
        <ele>1257.064</ele>
        <time>2010-06-12T11:45:28Z</time>
      </trkpt>
      <trkpt lat="42.855170" lon="-0.687307">
        <ele>1269.014</ele>
        <time>2010-06-12T11:45:55Z</time>
      </trkpt>
      <trkpt lat="42.854910" lon="-0.686704">
        <ele>1264.054</ele>
        <time>2010-06-12T11:46:48Z</time>
      </trkpt>
      <trkpt lat="42.854878" lon="-0.685115">
        <ele>1272.009</ele>
        <time>2010-06-12T11:48:44Z</time>
      </trkpt>
      <trkpt lat="42.854389" lon="-0.683175">
        <ele>1261.006</ele>
        <time>2010-06-12T11:51:15Z</time>
      </trkpt>
      <trkpt lat="42.853968" lon="-0.681324">
        <ele>1259.080</ele>
        <time>2010-06-12T11:53:37Z</time>
      </trkpt>
      <trkpt lat="42.853482" lon="-0.679537">
        <ele>1262.017</ele>
        <time>2010-06-12T11:55:57Z</time>
      </trkpt>
      <trkpt lat="42.853031" lon="-0.678391">
        <ele>1257.064</ele>
        <time>2010-06-12T11:57:32Z</time>
      </trkpt>
      <trkpt lat="42.852427" lon="-0.677465">
        <ele>1258.082</ele>
        <time>2010-06-12T11:59:03Z</time>
      </trkpt>
      <trkpt lat="42.852021" lon="-0.677450">
        <ele>1259.090</ele>
        <time>2010-06-12T11:59:43Z</time>
      </trkpt>
      <trkpt lat="42.851823" lon="-0.677641">
        <ele>1259.082</ele>
        <time>2010-06-12T12:00:08Z</time>
      </trkpt>
      <trkpt lat="42.850058" lon="-0.672781">
        <ele>1275.077</ele>
        <time>2010-06-12T12:06:46Z</time>
      </trkpt>
      <trkpt lat="42.847615" lon="-0.668896">
        <ele>1313.061</ele>
        <time>2010-06-12T12:13:02Z</time>
      </trkpt>
      <trkpt lat="42.846919" lon="-0.665648">
        <ele>1305.027</ele>
        <time>2010-06-12T12:17:10Z</time>
      </trkpt>
      <trkpt lat="42.846451" lon="-0.664779">
        <ele>1310.006</ele>
        <time>2010-06-12T12:18:28Z</time>
      </trkpt>
      <trkpt lat="42.846138" lon="-0.663812">
        <ele>1314.086</ele>
        <time>2010-06-12T12:19:46Z</time>
      </trkpt>
      <trkpt lat="42.846060" lon="-0.663264">
        <ele>1308.073</ele>
        <time>2010-06-12T12:20:28Z</time>
      </trkpt>
      <trkpt lat="42.844621" lon="-0.661146">
        <ele>1317.030</ele>
        <time>2010-06-12T12:23:58Z</time>
      </trkpt>
      <trkpt lat="42.843394" lon="-0.658409">
        <ele>1338.018</ele>
        <time>2010-06-12T12:27:55Z</time>
      </trkpt>
      <trkpt lat="42.842582" lon="-0.657216">
        <ele>1347.096</ele>
        <time>2010-06-12T12:29:54Z</time>
      </trkpt>
      <trkpt lat="42.841387" lon="-0.656037">
        <ele>1372.028</ele>
        <time>2010-06-12T12:32:21Z</time>
      </trkpt>
      <trkpt lat="42.840913" lon="-0.654893">
        <ele>1374.049</ele>
        <time>2010-06-12T12:33:58Z</time>
      </trkpt>
      <trkpt lat="42.840893" lon="-0.653914">
        <ele>1361.002</ele>
        <time>2010-06-12T12:35:10Z</time>
      </trkpt>
      <trkpt lat="42.840265" lon="-0.651828">
        <ele>1366.022</ele>
        <time>2010-06-12T12:37:55Z</time>
      </trkpt>
      <trkpt lat="42.839264" lon="-0.650214">
        <ele>1393.006</ele>
        <time>2010-06-12T12:40:31Z</time>
      </trkpt>
      <trkpt lat="42.837802" lon="-0.646965">
        <ele>1421.073</ele>
        <time>2010-06-12T12:45:10Z</time>
      </trkpt>
      <trkpt lat="42.837625" lon="-0.644953">
        <ele>1417.040</ele>
        <time>2010-06-12T12:47:38Z</time>
      </trkpt>
      <trkpt lat="42.836758" lon="-0.642203">
        <ele>1430.017</ele>
        <time>2010-06-12T12:51:19Z</time>
      </trkpt>
      <trkpt lat="42.836123" lon="-0.640881">
        <ele>1426.095</ele>
        <time>2010-06-12T12:53:15Z</time>
      </trkpt>
      <trkpt lat="42.834673" lon="-0.638244">
        <ele>1448.083</ele>
        <time>2010-06-12T12:57:17Z</time>
      </trkpt>
      <trkpt lat="42.834210" lon="-0.637650">
        <ele>1471.045</ele>
        <time>2010-06-12T12:58:20Z</time>
      </trkpt>
      <trkpt lat="42.833023" lon="-0.636839">
        <ele>1497.077</ele>
        <time>2010-06-12T13:00:33Z</time>
      </trkpt>
      <trkpt lat="42.832731" lon="-0.635780">
        <ele>1483.061</ele>
        <time>2010-06-12T13:01:56Z</time>
      </trkpt>
      <trkpt lat="42.832698" lon="-0.635261">
        <ele>1472.027</ele>
        <time>2010-06-12T13:02:34Z</time>
      </trkpt>
      <trkpt lat="42.831952" lon="-0.632934">
        <ele>1506.006</ele>
        <time>2010-06-12T13:05:40Z</time>
      </trkpt>
      <trkpt lat="42.831773" lon="-0.631932">
        <ele>1534.096</ele>
        <time>2010-06-12T13:06:57Z</time>
      </trkpt>
      <trkpt lat="42.831921" lon="-0.631467">
        <ele>1533.063</ele>
        <time>2010-06-12T13:07:34Z</time>
      </trkpt>
      <trkpt lat="42.832432" lon="-0.631111">
        <ele>1529.030</ele>
        <time>2010-06-12T13:08:31Z</time>
      </trkpt>
      <trkpt lat="42.832295" lon="-0.631025">
        <ele>1533.018</ele>
        <time>2010-06-12T13:08:45Z</time>
      </trkpt>
      <trkpt lat="42.831418" lon="-0.631089">
        <ele>1560.086</ele>
        <time>2010-06-12T13:10:14Z</time>
      </trkpt>
      <trkpt lat="42.831254" lon="-0.631829">
        <ele>1544.058</ele>
        <time>2010-06-12T13:11:11Z</time>
      </trkpt>
      <trkpt lat="42.831197" lon="-0.633422">
        <ele>1569.036</ele>
        <time>2010-06-12T13:13:08Z</time>
      </trkpt>
      <trkpt lat="42.831124" lon="-0.635352">
        <ele>1582.017</ele>
        <time>2010-06-12T13:15:30Z</time>
      </trkpt>
      <trkpt lat="42.830844" lon="-0.635974">
        <ele>1620.018</ele>
        <time>2010-06-12T13:16:22Z</time>
      </trkpt>
      <trkpt lat="42.830747" lon="-0.635641">
        <ele>1606.006</ele>
        <time>2010-06-12T13:16:49Z</time>
      </trkpt>
      <trkpt lat="42.830681" lon="-0.634604">
        <ele>1621.012</ele>
        <time>2010-06-12T13:18:06Z</time>
      </trkpt>
      <trkpt lat="42.830439" lon="-0.632717">
        <ele>1629.059</ele>
        <time>2010-06-12T13:20:27Z</time>
      </trkpt>
      <trkpt lat="42.830448" lon="-0.632044">
        <ele>1624.056</ele>
        <time>2010-06-12T13:21:16Z</time>
      </trkpt>
      <trkpt lat="42.830321" lon="-0.630275">
        <ele>1635.014</ele>
        <time>2010-06-12T13:23:26Z</time>
      </trkpt>
      <trkpt lat="42.830607" lon="-0.629958">
        <ele>1616.032</ele>
        <time>2010-06-12T13:24:02Z</time>
      </trkpt>
      <trkpt lat="42.830918" lon="-0.628661">
        <ele>1611.064</ele>
        <time>2010-06-12T13:25:42Z</time>
      </trkpt>
      <trkpt lat="42.830471" lon="-0.627730">
        <ele>1605.077</ele>
        <time>2010-06-12T13:27:05Z</time>
      </trkpt>
      <trkpt lat="42.830104" lon="-0.627408">
        <ele>1612.061</ele>
        <time>2010-06-12T13:27:48Z</time>
      </trkpt>
      <trkpt lat="42.829585" lon="-0.627366">
        <ele>1622.027</ele>
        <time>2010-06-12T13:28:41Z</time>
      </trkpt>
      <trkpt lat="42.828560" lon="-0.626763">
        <ele>1617.006</ele>
        <time>2010-06-12T13:30:32Z</time>
      </trkpt>
      <trkpt lat="42.826977" lon="-0.626426">
        <ele>1625.066</ele>
        <time>2010-06-12T13:33:13Z</time>
      </trkpt>
      <trkpt lat="42.826223" lon="-0.625905">
        <ele>1614.093</ele>
        <time>2010-06-12T13:34:37Z</time>
      </trkpt>
      <trkpt lat="42.825614" lon="-0.625836">
        <ele>1615.070</ele>
        <time>2010-06-12T13:35:39Z</time>
      </trkpt>
      <trkpt lat="42.824313" lon="-0.624969">
        <ele>1608.048</ele>
        <time>2010-06-12T13:38:03Z</time>
      </trkpt>
      <trkpt lat="42.821661" lon="-0.624122">
        <ele>1609.036</ele>
        <time>2010-06-12T13:42:36Z</time>
      </trkpt>
      <trkpt lat="42.821282" lon="-0.624290">
        <ele>1610.038</ele>
        <time>2010-06-12T13:43:15Z</time>
      </trkpt>
      <trkpt lat="42.820968" lon="-0.624332">
        <ele>1617.067</ele>
        <time>2010-06-12T13:43:48Z</time>
      </trkpt>
      <trkpt lat="42.820827" lon="-0.624062">
        <ele>1612.081</ele>
        <time>2010-06-12T13:44:12Z</time>
      </trkpt>
      <trkpt lat="42.820169" lon="-0.623812">
        <ele>1613.019</ele>
        <time>2010-06-12T13:45:19Z</time>
      </trkpt>
      <trkpt lat="42.819946" lon="-0.623882">
        <ele>1613.006</ele>
        <time>2010-06-12T13:45:43Z</time>
      </trkpt>
      <trkpt lat="42.819759" lon="-0.623584">
        <ele>1611.085</ele>
        <time>2010-06-12T13:46:11Z</time>
      </trkpt>
      <trkpt lat="42.818262" lon="-0.623029">
        <ele>1616.022</ele>
        <time>2010-06-12T13:48:46Z</time>
      </trkpt>
      <trkpt lat="42.816775" lon="-0.622964">
        <ele>1623.099</ele>
        <time>2010-06-12T13:51:16Z</time>
      </trkpt>
      <trkpt lat="42.816299" lon="-0.622829">
        <ele>1620.057</ele>
        <time>2010-06-12T13:52:05Z</time>
      </trkpt>
      <trkpt lat="42.815490" lon="-0.622860">
        <ele>1621.025</ele>
        <time>2010-06-12T13:53:26Z</time>
      </trkpt>
      <trkpt lat="42.814766" lon="-0.622705">
        <ele>1626.057</ele>
        <time>2010-06-12T13:54:39Z</time>
      </trkpt>
      <trkpt lat="42.813822" lon="-0.622771">
        <ele>1625.095</ele>
        <time>2010-06-12T13:56:13Z</time>
      </trkpt>
      <trkpt lat="42.813031" lon="-0.621548">
        <ele>1624.049</ele>
        <time>2010-06-12T13:58:13Z</time>
      </trkpt>
      <trkpt lat="42.812285" lon="-0.620323">
        <ele>1629.023</ele>
        <time>2010-06-12T14:00:10Z</time>
      </trkpt>
      <trkpt lat="42.812236" lon="-0.620141">
        <ele>1629.006</ele>
        <time>2010-06-12T14:00:25Z</time>
      </trkpt>
      <trkpt lat="42.811958" lon="-0.619724">
        <ele>1631.098</ele>
        <time>2010-06-12T14:01:06Z</time>
      </trkpt>
      <trkpt lat="42.811642" lon="-0.618635">
        <ele>1640.055</ele>
        <time>2010-06-12T14:02:32Z</time>
      </trkpt>
      <trkpt lat="42.811700" lon="-0.618144">
        <ele>1645.042</ele>
        <time>2010-06-12T14:03:07Z</time>
      </trkpt>
      <trkpt lat="42.811838" lon="-0.616151">
        <ele>1653.020</ele>
        <time>2010-06-12T14:05:35Z</time>
      </trkpt>
      <trkpt lat="42.811752" lon="-0.615268">
        <ele>1661.068</ele>
        <time>2010-06-12T14:06:40Z</time>
      </trkpt>
      <trkpt lat="42.811419" lon="-0.614424">
        <ele>1664.060</ele>
        <time>2010-06-12T14:07:50Z</time>
      </trkpt>
      <trkpt lat="42.810725" lon="-0.613503">
        <ele>1668.061</ele>
        <time>2010-06-12T14:09:28Z</time>
      </trkpt>
      <trkpt lat="42.810064" lon="-0.613131">
        <ele>1672.021</ele>
        <time>2010-06-12T14:10:39Z</time>
      </trkpt>
      <trkpt lat="42.809777" lon="-0.612286">
        <ele>1676.013</ele>
        <time>2010-06-12T14:11:48Z</time>
      </trkpt>
      <trkpt lat="42.809041" lon="-0.611550">
        <ele>1681.006</ele>
        <time>2010-06-12T14:13:18Z</time>
      </trkpt>
      <trkpt lat="42.808756" lon="-0.610858">
        <ele>1674.085</ele>
        <time>2010-06-12T14:14:17Z</time>
      </trkpt>
      <trkpt lat="42.808385" lon="-0.610322">
        <ele>1676.012</ele>
        <time>2010-06-12T14:15:11Z</time>
      </trkpt>
      <trkpt lat="42.807945" lon="-0.610797">
        <ele>1685.029</ele>
        <time>2010-06-12T14:16:07Z</time>
      </trkpt>
      <trkpt lat="42.807542" lon="-0.610905">
        <ele>1693.027</ele>
        <time>2010-06-12T14:16:49Z</time>
      </trkpt>
      <trkpt lat="42.807312" lon="-0.610669">
        <ele>1696.015</ele>
        <time>2010-06-12T14:17:17Z</time>
      </trkpt>
      <trkpt lat="42.806902" lon="-0.610440">
        <ele>1705.097</ele>
        <time>2010-06-12T14:18:02Z</time>
      </trkpt>
      <trkpt lat="42.806366" lon="-0.609605">
        <ele>1720.027</ele>
        <time>2010-06-12T14:19:23Z</time>
      </trkpt>
      <trkpt lat="42.806116" lon="-0.609461">
        <ele>1727.068</ele>
        <time>2010-06-12T14:19:50Z</time>
      </trkpt>
      <trkpt lat="42.805836" lon="-0.608983">
        <ele>1730.014</ele>
        <time>2010-06-12T14:20:36Z</time>
      </trkpt>
      <trkpt lat="42.805689" lon="-0.608438">
        <ele>1733.006</ele>
        <time>2010-06-12T14:21:18Z</time>
      </trkpt>
      <trkpt lat="42.805683" lon="-0.608133">
        <ele>1734.071</ele>
        <time>2010-06-12T14:21:40Z</time>
      </trkpt>
      <trkpt lat="42.805589" lon="-0.607953">
        <ele>1734.098</ele>
        <time>2010-06-12T14:21:56Z</time>
      </trkpt>
      <trkpt lat="42.805320" lon="-0.607994">
        <ele>1738.095</ele>
        <time>2010-06-12T14:22:24Z</time>
      </trkpt>
      <trkpt lat="42.804749" lon="-0.607619">
        <ele>1744.073</ele>
        <time>2010-06-12T14:23:27Z</time>
      </trkpt>
      <trkpt lat="42.804243" lon="-0.607118">
        <ele>1743.031</ele>
        <time>2010-06-12T14:24:29Z</time>
      </trkpt>
      <trkpt lat="42.804148" lon="-0.606847">
        <ele>1745.043</ele>
        <time>2010-06-12T14:24:51Z</time>
      </trkpt>
      <trkpt lat="42.804261" lon="-0.605803">
        <ele>1752.024</ele>
        <time>2010-06-12T14:26:10Z</time>
      </trkpt>
      <trkpt lat="42.804186" lon="-0.605470">
        <ele>1757.004</ele>
        <time>2010-06-12T14:26:34Z</time>
      </trkpt>
      <trkpt lat="42.803466" lon="-0.604397">
        <ele>1785.014</ele>
        <time>2010-06-12T14:28:21Z</time>
      </trkpt>
      <trkpt lat="42.802742" lon="-0.604241">
        <ele>1792.006</ele>
        <time>2010-06-12T14:29:34Z</time>
      </trkpt>
      <trkpt lat="42.801941" lon="-0.603600">
        <ele>1830.051</ele>
        <time>2010-06-12T14:31:07Z</time>
      </trkpt>
      <trkpt lat="42.801246" lon="-0.603749">
        <ele>1866.078</ele>
        <time>2010-06-12T14:32:18Z</time>
      </trkpt>
      <trkpt lat="42.800957" lon="-0.603913">
        <ele>1869.045</ele>
        <time>2010-06-12T14:32:50Z</time>
      </trkpt>
      <trkpt lat="42.800462" lon="-0.603901">
        <ele>1880.013</ele>
        <time>2010-06-12T14:33:39Z</time>
      </trkpt>
      <trkpt lat="42.800018" lon="-0.604224">
        <ele>1891.091</ele>
        <time>2010-06-12T14:34:30Z</time>
      </trkpt>
      <trkpt lat="42.799669" lon="-0.604757">
        <ele>1889.073</ele>
        <time>2010-06-12T14:35:21Z</time>
      </trkpt>
      <trkpt lat="42.799382" lon="-0.605044">
        <ele>1892.099</ele>
        <time>2010-06-12T14:35:58Z</time>
      </trkpt>
      <trkpt lat="42.799002" lon="-0.605150">
        <ele>1899.007</ele>
        <time>2010-06-12T14:36:36Z</time>
      </trkpt>
      <trkpt lat="42.798480" lon="-0.604956">
        <ele>1902.027</ele>
        <time>2010-06-12T14:37:30Z</time>
      </trkpt>
      <trkpt lat="42.798314" lon="-0.604535">
        <ele>1906.006</ele>
        <time>2010-06-12T14:38:05Z</time>
      </trkpt>
      <trkpt lat="42.798154" lon="-0.603349">
        <ele>1913.068</ele>
        <time>2010-06-12T14:39:33Z</time>
      </trkpt>
      <trkpt lat="42.797989" lon="-0.603019">
        <ele>1912.085</ele>
        <time>2010-06-12T14:40:03Z</time>
      </trkpt>
      <trkpt lat="42.797844" lon="-0.602535">
        <ele>1912.022</ele>
        <time>2010-06-12T14:40:41Z</time>
      </trkpt>
      <trkpt lat="42.797525" lon="-0.602364">
        <ele>1921.010</ele>
        <time>2010-06-12T14:41:16Z</time>
      </trkpt>
      <trkpt lat="42.796668" lon="-0.602275">
        <ele>1929.078</ele>
        <time>2010-06-12T14:42:42Z</time>
      </trkpt>
      <trkpt lat="42.796023" lon="-0.601597">
        <ele>1927.040</ele>
        <time>2010-06-12T14:44:04Z</time>
      </trkpt>
      <trkpt lat="42.795986" lon="-0.600895">
        <ele>1915.014</ele>
        <time>2010-06-12T14:44:56Z</time>
      </trkpt>
      <trkpt lat="42.795819" lon="-0.600443">
        <ele>1915.054</ele>
        <time>2010-06-12T14:45:33Z</time>
      </trkpt>
      <trkpt lat="42.795519" lon="-0.600088">
        <ele>1910.009</ele>
        <time>2010-06-12T14:46:13Z</time>
      </trkpt>
      <trkpt lat="42.795353" lon="-0.599697">
        <ele>1914.006</ele>
        <time>2010-06-12T14:46:46Z</time>
      </trkpt>
      <trkpt lat="42.795220" lon="-0.598693">
        <ele>1886.020</ele>
        <time>2010-06-12T14:48:01Z</time>
      </trkpt>
      <trkpt lat="42.794983" lon="-0.598152">
        <ele>1878.057</ele>
        <time>2010-06-12T14:48:47Z</time>
      </trkpt>
      <trkpt lat="42.795001" lon="-0.597907">
        <ele>1866.024</ele>
        <time>2010-06-12T14:49:04Z</time>
      </trkpt>
      <trkpt lat="42.795104" lon="-0.597475">
        <ele>1854.022</ele>
        <time>2010-06-12T14:49:38Z</time>
      </trkpt>
      <trkpt lat="42.794731" lon="-0.596878">
        <ele>1842.040</ele>
        <time>2010-06-12T14:50:35Z</time>
      </trkpt>
      <trkpt lat="42.794632" lon="-0.596423">
        <ele>1830.072</ele>
        <time>2010-06-12T14:51:10Z</time>
      </trkpt>
      <trkpt lat="42.794706" lon="-0.595687">
        <ele>1817.057</ele>
        <time>2010-06-12T14:52:04Z</time>
      </trkpt>
      <trkpt lat="42.795075" lon="-0.596101">
        <ele>1815.000</ele>
        <time>2010-06-12T14:52:52Z</time>
      </trkpt>
      <trkpt lat="42.795301" lon="-0.596122">
        <ele>1809.020</ele>
        <time>2010-06-12T14:53:16Z</time>
      </trkpt>
      <trkpt lat="42.795809" lon="-0.595675">
        <ele>1799.006</ele>
        <time>2010-06-12T14:54:15Z</time>
      </trkpt>
      <trkpt lat="42.796787" lon="-0.593986">
        <ele>1775.084</ele>
        <time>2010-06-12T14:56:54Z</time>
      </trkpt>
      <trkpt lat="42.796778" lon="-0.593559">
        <ele>1771.051</ele>
        <time>2010-06-12T14:57:26Z</time>
      </trkpt>
      <trkpt lat="42.796643" lon="-0.592494">
        <ele>1764.058</ele>
        <time>2010-06-12T14:58:45Z</time>
      </trkpt>
      <trkpt lat="42.796278" lon="-0.592264">
        <ele>1775.056</ele>
        <time>2010-06-12T14:59:24Z</time>
      </trkpt>
      <trkpt lat="42.795964" lon="-0.592337">
        <ele>1804.074</ele>
        <time>2010-06-12T14:59:57Z</time>
      </trkpt>
      <trkpt lat="42.795960" lon="-0.592123">
        <ele>1804.036</ele>
        <time>2010-06-12T15:00:13Z</time>
      </trkpt>
      <trkpt lat="42.796598" lon="-0.590386">
        <ele>1778.056</ele>
        <time>2010-06-12T15:02:35Z</time>
      </trkpt>
      <trkpt lat="42.797054" lon="-0.589574">
        <ele>1773.059</ele>
        <time>2010-06-12T15:03:51Z</time>
      </trkpt>
      <trkpt lat="42.797077" lon="-0.588503">
        <ele>1778.014</ele>
        <time>2010-06-12T15:05:09Z</time>
      </trkpt>
      <trkpt lat="42.797201" lon="-0.587979">
        <ele>1770.006</ele>
        <time>2010-06-12T15:05:49Z</time>
      </trkpt>
      <trkpt lat="42.797482" lon="-0.587448">
        <ele>1763.044</ele>
        <time>2010-06-12T15:06:37Z</time>
      </trkpt>
      <trkpt lat="42.797603" lon="-0.586771">
        <ele>1766.021</ele>
        <time>2010-06-12T15:07:28Z</time>
      </trkpt>
      <trkpt lat="42.797592" lon="-0.586282">
        <ele>1767.058</ele>
        <time>2010-06-12T15:08:04Z</time>
      </trkpt>
      <trkpt lat="42.797297" lon="-0.585101">
        <ele>1783.046</ele>
        <time>2010-06-12T15:09:37Z</time>
      </trkpt>
      <trkpt lat="42.797237" lon="-0.584370">
        <ele>1788.054</ele>
        <time>2010-06-12T15:10:31Z</time>
      </trkpt>
      <trkpt lat="42.796939" lon="-0.584107">
        <ele>1796.036</ele>
        <time>2010-06-12T15:11:06Z</time>
      </trkpt>
      <trkpt lat="42.796876" lon="-0.583253">
        <ele>1800.031</ele>
        <time>2010-06-12T15:12:08Z</time>
      </trkpt>
      <trkpt lat="42.796929" lon="-0.582579">
        <ele>1800.061</ele>
        <time>2010-06-12T15:12:59Z</time>
      </trkpt>
      <trkpt lat="42.797212" lon="-0.581039">
        <ele>1797.007</ele>
        <time>2010-06-12T15:14:56Z</time>
      </trkpt>
      <trkpt lat="42.797633" lon="-0.579678">
        <ele>1794.006</ele>
        <time>2010-06-12T15:16:43Z</time>
      </trkpt>
      <trkpt lat="42.797692" lon="-0.579278">
        <ele>1787.062</ele>
        <time>2010-06-12T15:17:14Z</time>
      </trkpt>
      <trkpt lat="42.797933" lon="-0.578963">
        <ele>1784.029</ele>
        <time>2010-06-12T15:17:47Z</time>
      </trkpt>
      <trkpt lat="42.798125" lon="-0.577396">
        <ele>1773.046</ele>
        <time>2010-06-12T15:19:43Z</time>
      </trkpt>
      <trkpt lat="42.798811" lon="-0.576850">
        <ele>1766.084</ele>
        <time>2010-06-12T15:21:03Z</time>
      </trkpt>
      <trkpt lat="42.799641" lon="-0.575625">
        <ele>1742.062</ele>
        <time>2010-06-12T15:23:05Z</time>
      </trkpt>
      <trkpt lat="42.799656" lon="-0.575258">
        <ele>1737.014</ele>
        <time>2010-06-12T15:23:32Z</time>
      </trkpt>
      <trkpt lat="42.799978" lon="-0.574542">
        <ele>1729.087</ele>
        <time>2010-06-12T15:24:35Z</time>
      </trkpt>
      <trkpt lat="42.799962" lon="-0.573778">
        <ele>1719.042</ele>
        <time>2010-06-12T15:25:30Z</time>
      </trkpt>
      <trkpt lat="42.800099" lon="-0.572825">
        <ele>1708.026</ele>
        <time>2010-06-12T15:26:42Z</time>
      </trkpt>
      <trkpt lat="42.800014" lon="-0.570933">
        <ele>1688.006</ele>
        <time>2010-06-12T15:29:00Z</time>
      </trkpt>
      <trkpt lat="42.799639" lon="-0.570245">
        <ele>1682.087</ele>
        <time>2010-06-12T15:30:04Z</time>
      </trkpt>
      <trkpt lat="42.799619" lon="-0.569298">
        <ele>1678.084</ele>
        <time>2010-06-12T15:31:14Z</time>
      </trkpt>
      <trkpt lat="42.799174" lon="-0.568490">
        <ele>1671.061</ele>
        <time>2010-06-12T15:32:27Z</time>
      </trkpt>
      <trkpt lat="42.799018" lon="-0.568557">
        <ele>1669.059</ele>
        <time>2010-06-12T15:32:43Z</time>
      </trkpt>
      <trkpt lat="42.798956" lon="-0.568804">
        <ele>1676.097</ele>
        <time>2010-06-12T15:33:02Z</time>
      </trkpt>
      <trkpt lat="42.797989" lon="-0.568842">
        <ele>1664.099</ele>
        <time>2010-06-12T15:34:39Z</time>
      </trkpt>
      <trkpt lat="42.796580" lon="-0.569295">
        <ele>1645.063</ele>
        <time>2010-06-12T15:37:04Z</time>
      </trkpt>
      <trkpt lat="42.796197" lon="-0.569279">
        <ele>1640.044</ele>
        <time>2010-06-12T15:37:43Z</time>
      </trkpt>
      <trkpt lat="42.795796" lon="-0.569478">
        <ele>1646.018</ele>
        <time>2010-06-12T15:38:26Z</time>
      </trkpt>
      <trkpt lat="42.795303" lon="-0.569559">
        <ele>1648.006</ele>
        <time>2010-06-12T15:39:15Z</time>
      </trkpt>
      <trkpt lat="42.795115" lon="-0.569199">
        <ele>1642.055</ele>
        <time>2010-06-12T15:39:47Z</time>
      </trkpt>
      <trkpt lat="42.794955" lon="-0.569083">
        <ele>1642.052</ele>
        <time>2010-06-12T15:40:06Z</time>
      </trkpt>
      <trkpt lat="42.794760" lon="-0.569458">
        <ele>1651.029</ele>
        <time>2010-06-12T15:40:39Z</time>
      </trkpt>
      <trkpt lat="42.794378" lon="-0.569503">
        <ele>1653.067</ele>
        <time>2010-06-12T15:41:19Z</time>
      </trkpt>
      <trkpt lat="42.793946" lon="-0.569306">
        <ele>1654.025</ele>
        <time>2010-06-12T15:42:04Z</time>
      </trkpt>
      <trkpt lat="42.792748" lon="-0.569047">
        <ele>1637.067</ele>
        <time>2010-06-12T15:44:06Z</time>
      </trkpt>
      <trkpt lat="42.792458" lon="-0.569181">
        <ele>1631.028</ele>
        <time>2010-06-12T15:44:36Z</time>
      </trkpt>
      <trkpt lat="42.792242" lon="-0.569617">
        <ele>1629.089</ele>
        <time>2010-06-12T15:45:15Z</time>
      </trkpt>
      <trkpt lat="42.791954" lon="-0.569843">
        <ele>1622.017</ele>
        <time>2010-06-12T15:45:48Z</time>
      </trkpt>
      <trkpt lat="42.791716" lon="-0.570280">
        <ele>1627.006</ele>
        <time>2010-06-12T15:46:28Z</time>
      </trkpt>
      <trkpt lat="42.791400" lon="-0.570231">
        <ele>1624.061</ele>
        <time>2010-06-12T15:47:00Z</time>
      </trkpt>
      <trkpt lat="42.791013" lon="-0.570032">
        <ele>1618.078</ele>
        <time>2010-06-12T15:47:41Z</time>
      </trkpt>
      <trkpt lat="42.790623" lon="-0.569681">
        <ele>1615.085</ele>
        <time>2010-06-12T15:48:27Z</time>
      </trkpt>
      <trkpt lat="42.790418" lon="-0.569597">
        <ele>1615.023</ele>
        <time>2010-06-12T15:48:48Z</time>
      </trkpt>
      <trkpt lat="42.790186" lon="-0.569240">
        <ele>1609.081</ele>
        <time>2010-06-12T15:49:25Z</time>
      </trkpt>
      <trkpt lat="42.789846" lon="-0.569161">
        <ele>1619.063</ele>
        <time>2010-06-12T15:49:58Z</time>
      </trkpt>
      <trkpt lat="42.789622" lon="-0.568131">
        <ele>1590.021</ele>
        <time>2010-06-12T15:51:18Z</time>
      </trkpt>
      <trkpt lat="42.789352" lon="-0.568172">
        <ele>1592.041</ele>
        <time>2010-06-12T15:51:45Z</time>
      </trkpt>
      <trkpt lat="42.788953" lon="-0.568432">
        <ele>1605.005</ele>
        <time>2010-06-12T15:52:28Z</time>
      </trkpt>
      <trkpt lat="42.788678" lon="-0.568198">
        <ele>1601.006</ele>
        <time>2010-06-12T15:53:01Z</time>
      </trkpt>
      <trkpt lat="42.788386" lon="-0.568240">
        <ele>1598.051</ele>
        <time>2010-06-12T15:53:31Z</time>
      </trkpt>
      <trkpt lat="42.788121" lon="-0.568495">
        <ele>1609.038</ele>
        <time>2010-06-12T15:54:03Z</time>
      </trkpt>
      <trkpt lat="42.787698" lon="-0.568695">
        <ele>1612.055</ele>
        <time>2010-06-12T15:54:48Z</time>
      </trkpt>
      <trkpt lat="42.787315" lon="-0.568680">
        <ele>1619.063</ele>
        <time>2010-06-12T15:55:26Z</time>
      </trkpt>
      <trkpt lat="42.785803" lon="-0.569564">
        <ele>1643.071</ele>
        <time>2010-06-12T15:58:11Z</time>
      </trkpt>
      <trkpt lat="42.784321" lon="-0.569775">
        <ele>1627.093</ele>
        <time>2010-06-12T16:00:41Z</time>
      </trkpt>
      <trkpt lat="42.783641" lon="-0.569557">
        <ele>1643.073</ele>
        <time>2010-06-12T16:01:50Z</time>
      </trkpt>
      <trkpt lat="42.783203" lon="-0.569054">
        <ele>1656.085</ele>
        <time>2010-06-12T16:02:48Z</time>
      </trkpt>
      <trkpt lat="42.783036" lon="-0.568633">
        <ele>1671.013</ele>
        <time>2010-06-12T16:03:23Z</time>
      </trkpt>
      <trkpt lat="42.782666" lon="-0.568159">
        <ele>1678.006</ele>
        <time>2010-06-12T16:04:14Z</time>
      </trkpt>
      <trkpt lat="42.782383" lon="-0.567558">
        <ele>1687.026</ele>
        <time>2010-06-12T16:05:05Z</time>
      </trkpt>
      <trkpt lat="42.782371" lon="-0.566978">
        <ele>1661.073</ele>
        <time>2010-06-12T16:05:48Z</time>
      </trkpt>
      <trkpt lat="42.782584" lon="-0.566420">
        <ele>1655.080</ele>
        <time>2010-06-12T16:06:35Z</time>
      </trkpt>
      <trkpt lat="42.782807" lon="-0.566289">
        <ele>1624.068</ele>
        <time>2010-06-12T16:06:58Z</time>
      </trkpt>
      <trkpt lat="42.782819" lon="-0.565830">
        <ele>1640.066</ele>
        <time>2010-06-12T16:07:32Z</time>
      </trkpt>
      <trkpt lat="42.783323" lon="-0.564099">
        <ele>1666.058</ele>
        <time>2010-06-12T16:09:49Z</time>
      </trkpt>
      <trkpt lat="42.784448" lon="-0.563046">
        <ele>1629.031</ele>
        <time>2010-06-12T16:12:06Z</time>
      </trkpt>
      <trkpt lat="42.785564" lon="-0.561535">
        <ele>1618.061</ele>
        <time>2010-06-12T16:14:43Z</time>
      </trkpt>
      <trkpt lat="42.786628" lon="-0.560760">
        <ele>1537.007</ele>
        <time>2010-06-12T16:16:44Z</time>
      </trkpt>
      <trkpt lat="42.786779" lon="-0.560418">
        <ele>1544.006</ele>
        <time>2010-06-12T16:17:14Z</time>
      </trkpt>
      <trkpt lat="42.786768" lon="-0.559899">
        <ele>1554.062</ele>
        <time>2010-06-12T16:17:51Z</time>
      </trkpt>
      <trkpt lat="42.786528" lon="-0.559236">
        <ele>1563.079</ele>
        <time>2010-06-12T16:18:45Z</time>
      </trkpt>
      <trkpt lat="42.786518" lon="-0.558747">
        <ele>1576.096</ele>
        <time>2010-06-12T16:19:22Z</time>
      </trkpt>
      <trkpt lat="42.786441" lon="-0.558322">
        <ele>1574.084</ele>
        <time>2010-06-12T16:19:54Z</time>
      </trkpt>
      <trkpt lat="42.786685" lon="-0.557090">
        <ele>1570.022</ele>
        <time>2010-06-12T16:21:28Z</time>
      </trkpt>
      <trkpt lat="42.786678" lon="-0.556754">
        <ele>1569.034</ele>
        <time>2010-06-12T16:21:53Z</time>
      </trkpt>
      <trkpt lat="42.786178" lon="-0.555490">
        <ele>1576.092</ele>
        <time>2010-06-12T16:23:37Z</time>
      </trkpt>
      <trkpt lat="42.786273" lon="-0.554661">
        <ele>1575.073</ele>
        <time>2010-06-12T16:24:40Z</time>
      </trkpt>
      <trkpt lat="42.786483" lon="-0.553950">
        <ele>1585.020</ele>
        <time>2010-06-12T16:25:36Z</time>
      </trkpt>
      <trkpt lat="42.786505" lon="-0.552879">
        <ele>1603.006</ele>
        <time>2010-06-12T16:26:54Z</time>
      </trkpt>
      <trkpt lat="42.786625" lon="-0.552172">
        <ele>1610.028</ele>
        <time>2010-06-12T16:27:48Z</time>
      </trkpt>
      <trkpt lat="42.786613" lon="-0.551622">
        <ele>1614.095</ele>
        <time>2010-06-12T16:28:29Z</time>
      </trkpt>
      <trkpt lat="42.786449" lon="-0.551323">
        <ele>1621.062</ele>
        <time>2010-06-12T16:28:55Z</time>
      </trkpt>
      <trkpt lat="42.786436" lon="-0.550712">
        <ele>1622.040</ele>
        <time>2010-06-12T16:29:41Z</time>
      </trkpt>
      <trkpt lat="42.786173" lon="-0.549958">
        <ele>1627.088</ele>
        <time>2010-06-12T16:30:42Z</time>
      </trkpt>
      <trkpt lat="42.786353" lon="-0.548912">
        <ele>1630.090</ele>
        <time>2010-06-12T16:32:00Z</time>
      </trkpt>
      <trkpt lat="42.786201" lon="-0.548123">
        <ele>1639.031</ele>
        <time>2010-06-12T16:33:00Z</time>
      </trkpt>
      <trkpt lat="42.786014" lon="-0.547825">
        <ele>1640.061</ele>
        <time>2010-06-12T16:33:29Z</time>
      </trkpt>
      <trkpt lat="42.785892" lon="-0.547371">
        <ele>1639.007</ele>
        <time>2010-06-12T16:34:04Z</time>
      </trkpt>
      <trkpt lat="42.785950" lon="-0.546941">
        <ele>1634.006</ele>
        <time>2010-06-12T16:34:36Z</time>
      </trkpt>
      <trkpt lat="42.785592" lon="-0.545977">
        <ele>1624.082</ele>
        <time>2010-06-12T16:35:57Z</time>
      </trkpt>
      <trkpt lat="42.785650" lon="-0.545547">
        <ele>1621.099</ele>
        <time>2010-06-12T16:36:29Z</time>
      </trkpt>
      <trkpt lat="42.785573" lon="-0.545092">
        <ele>1621.046</ele>
        <time>2010-06-12T16:37:02Z</time>
      </trkpt>
      <trkpt lat="42.785563" lon="-0.543564">
        <ele>1613.014</ele>
        <time>2010-06-12T16:38:55Z</time>
      </trkpt>
      <trkpt lat="42.786329" lon="-0.540447">
        <ele>1605.062</ele>
        <time>2010-06-12T16:42:57Z</time>
      </trkpt>
      <trkpt lat="42.786309" lon="-0.539531">
        <ele>1598.094</ele>
        <time>2010-06-12T16:44:04Z</time>
      </trkpt>
      <trkpt lat="42.786655" lon="-0.538875">
        <ele>1592.079</ele>
        <time>2010-06-12T16:45:03Z</time>
      </trkpt>
      <trkpt lat="42.786860" lon="-0.537950">
        <ele>1584.005</ele>
        <time>2010-06-12T16:46:13Z</time>
      </trkpt>
      <trkpt lat="42.787291" lon="-0.537016">
        <ele>1578.025</ele>
        <time>2010-06-12T16:47:36Z</time>
      </trkpt>
      <trkpt lat="42.787684" lon="-0.533333">
        <ele>1571.006</ele>
        <time>2010-06-12T16:52:08Z</time>
      </trkpt>
      <trkpt lat="42.788550" lon="-0.530700">
        <ele>1562.036</ele>
        <time>2010-06-12T16:55:40Z</time>
      </trkpt>
      <trkpt lat="42.788301" lon="-0.530649">
        <ele>1552.013</ele>
        <time>2010-06-12T16:56:05Z</time>
      </trkpt>
      <trkpt lat="42.788461" lon="-0.529695">
        <ele>1544.040</ele>
        <time>2010-06-12T16:57:18Z</time>
      </trkpt>
      <trkpt lat="42.788323" lon="-0.528509">
        <ele>1542.088</ele>
        <time>2010-06-12T16:58:46Z</time>
      </trkpt>
      <trkpt lat="42.788407" lon="-0.527191">
        <ele>1531.046</ele>
        <time>2010-06-12T17:00:23Z</time>
      </trkpt>
      <trkpt lat="42.788680" lon="-0.526294">
        <ele>1530.068</ele>
        <time>2010-06-12T17:01:33Z</time>
      </trkpt>
      <trkpt lat="42.788775" lon="-0.525496">
        <ele>1532.026</ele>
        <time>2010-06-12T17:02:34Z</time>
      </trkpt>
      <trkpt lat="42.789479" lon="-0.524703">
        <ele>1536.047</ele>
        <time>2010-06-12T17:04:04Z</time>
      </trkpt>
      <trkpt lat="42.789358" lon="-0.524341">
        <ele>1533.011</ele>
        <time>2010-06-12T17:04:33Z</time>
      </trkpt>
      <trkpt lat="42.788797" lon="-0.524425">
        <ele>1525.006</ele>
        <time>2010-06-12T17:05:30Z</time>
      </trkpt>
      <trkpt lat="42.788334" lon="-0.524871">
        <ele>1517.021</ele>
        <time>2010-06-12T17:06:28Z</time>
      </trkpt>
      <trkpt lat="42.787434" lon="-0.524907">
        <ele>1499.068</ele>
        <time>2010-06-12T17:07:58Z</time>
      </trkpt>
      <trkpt lat="42.786725" lon="-0.524385">
        <ele>1485.045</ele>
        <time>2010-06-12T17:09:18Z</time>
      </trkpt>
      <trkpt lat="42.786206" lon="-0.524314">
        <ele>1481.043</ele>
        <time>2010-06-12T17:10:11Z</time>
      </trkpt>
      <trkpt lat="42.785474" lon="-0.523793">
        <ele>1480.031</ele>
        <time>2010-06-12T17:11:32Z</time>
      </trkpt>
      <trkpt lat="42.784659" lon="-0.522512">
        <ele>1471.093</ele>
        <time>2010-06-12T17:13:38Z</time>
      </trkpt>
      <trkpt lat="42.784515" lon="-0.522120">
        <ele>1469.099</ele>
        <time>2010-06-12T17:14:09Z</time>
      </trkpt>
      <trkpt lat="42.782095" lon="-0.521605">
        <ele>1483.007</ele>
        <time>2010-06-12T17:18:15Z</time>
      </trkpt>
      <trkpt lat="42.781477" lon="-0.521111">
        <ele>1468.027</ele>
        <time>2010-06-12T17:19:26Z</time>
      </trkpt>
      <trkpt lat="42.780952" lon="-0.519756">
        <ele>1455.006</ele>
        <time>2010-06-12T17:21:19Z</time>
      </trkpt>
      <trkpt lat="42.780918" lon="-0.519238">
        <ele>1449.068</ele>
        <time>2010-06-12T17:21:57Z</time>
      </trkpt>
      <trkpt lat="42.779667" lon="-0.517577">
        <ele>1451.065</ele>
        <time>2010-06-12T17:24:51Z</time>
      </trkpt>
      <trkpt lat="42.778563" lon="-0.517529">
        <ele>1449.062</ele>
        <time>2010-06-12T17:26:42Z</time>
      </trkpt>
      <trkpt lat="42.777881" lon="-0.517251">
        <ele>1426.010</ele>
        <time>2010-06-12T17:27:54Z</time>
      </trkpt>
      <trkpt lat="42.777408" lon="-0.517209">
        <ele>1422.048</ele>
        <time>2010-06-12T17:28:42Z</time>
      </trkpt>
      <trkpt lat="42.776976" lon="-0.517012">
        <ele>1426.050</ele>
        <time>2010-06-12T17:29:26Z</time>
      </trkpt>
      <trkpt lat="42.775776" lon="-0.517732">
        <ele>1428.074</ele>
        <time>2010-06-12T17:31:38Z</time>
      </trkpt>
      <trkpt lat="42.774742" lon="-0.517835">
        <ele>1427.056</ele>
        <time>2010-06-12T17:33:22Z</time>
      </trkpt>
      <trkpt lat="42.774185" lon="-0.518071">
        <ele>1427.021</ele>
        <time>2010-06-12T17:34:21Z</time>
      </trkpt>
      <trkpt lat="42.773056" lon="-0.518972">
        <ele>1419.006</ele>
        <time>2010-06-12T17:36:31Z</time>
      </trkpt>
      <trkpt lat="42.772737" lon="-0.518801">
        <ele>1417.096</ele>
        <time>2010-06-12T17:37:06Z</time>
      </trkpt>
      <trkpt lat="42.772495" lon="-0.518016">
        <ele>1413.023</ele>
        <time>2010-06-12T17:38:07Z</time>
      </trkpt>
      <trkpt lat="42.772795" lon="-0.517332">
        <ele>1423.010</ele>
        <time>2010-06-12T17:39:07Z</time>
      </trkpt>
      <trkpt lat="42.774390" lon="-0.516107">
        <ele>1410.048</ele>
        <time>2010-06-12T17:42:09Z</time>
      </trkpt>
      <trkpt lat="42.775085" lon="-0.514948">
        <ele>1395.076</ele>
        <time>2010-06-12T17:44:00Z</time>
      </trkpt>
      <trkpt lat="42.775458" lon="-0.513467">
        <ele>1394.048</ele>
        <time>2010-06-12T17:45:55Z</time>
      </trkpt>
      <trkpt lat="42.775845" lon="-0.512626">
        <ele>1382.026</ele>
        <time>2010-06-12T17:47:08Z</time>
      </trkpt>
      <trkpt lat="42.776369" lon="-0.512911">
        <ele>1380.047</ele>
        <time>2010-06-12T17:48:04Z</time>
      </trkpt>
      <trkpt lat="42.776679" lon="-0.512684">
        <ele>1384.011</ele>
        <time>2010-06-12T17:48:40Z</time>
      </trkpt>
      <trkpt lat="42.776825" lon="-0.512159">
        <ele>1390.006</ele>
        <time>2010-06-12T17:49:20Z</time>
      </trkpt>
      <trkpt lat="42.776544" lon="-0.510612">
        <ele>1380.021</ele>
        <time>2010-06-12T17:51:18Z</time>
      </trkpt>
      <trkpt lat="42.776234" lon="-0.509830">
        <ele>1358.038</ele>
        <time>2010-06-12T17:52:23Z</time>
      </trkpt>
      <trkpt lat="42.775964" lon="-0.508771">
        <ele>1347.015</ele>
        <time>2010-06-12T17:53:46Z</time>
      </trkpt>
      <trkpt lat="42.775900" lon="-0.507918">
        <ele>1353.063</ele>
        <time>2010-06-12T17:54:48Z</time>
      </trkpt>
      <trkpt lat="42.775983" lon="-0.507579">
        <ele>1368.031</ele>
        <time>2010-06-12T17:55:15Z</time>
      </trkpt>
      <trkpt lat="42.776464" lon="-0.506948">
        <ele>1376.023</ele>
        <time>2010-06-12T17:56:22Z</time>
      </trkpt>
      <trkpt lat="42.777331" lon="-0.505385">
        <ele>1387.024</ele>
        <time>2010-06-12T17:58:46Z</time>
      </trkpt>
      <trkpt lat="42.777409" lon="-0.504832">
        <ele>1388.004</ele>
        <time>2010-06-12T17:59:27Z</time>
      </trkpt>
      <trkpt lat="42.777357" lon="-0.504529">
        <ele>1376.014</ele>
        <time>2010-06-12T17:59:49Z</time>
      </trkpt>
      <trkpt lat="42.778038" lon="-0.503768">
        <ele>1396.006</ele>
        <time>2010-06-12T18:01:18Z</time>
      </trkpt>
      <trkpt lat="42.778825" lon="-0.503736">
        <ele>1409.011</ele>
        <time>2010-06-12T18:02:36Z</time>
      </trkpt>
      <trkpt lat="42.779127" lon="-0.503113">
        <ele>1414.068</ele>
        <time>2010-06-12T18:03:32Z</time>
      </trkpt>
      <trkpt lat="42.780314" lon="-0.501812">
        <ele>1434.055</ele>
        <time>2010-06-12T18:06:03Z</time>
      </trkpt>
      <trkpt lat="42.781144" lon="-0.501657">
        <ele>1451.043</ele>
        <time>2010-06-12T18:07:28Z</time>
      </trkpt>
      <trkpt lat="42.781678" lon="-0.501360">
        <ele>1458.091</ele>
        <time>2010-06-12T18:08:25Z</time>
      </trkpt>
      <trkpt lat="42.782027" lon="-0.500857">
        <ele>1455.073</ele>
        <time>2010-06-12T18:09:16Z</time>
      </trkpt>
      <trkpt lat="42.782128" lon="-0.500333">
        <ele>1456.073</ele>
        <time>2010-06-12T18:09:56Z</time>
      </trkpt>
      <trkpt lat="42.783038" lon="-0.499747">
        <ele>1476.085</ele>
        <time>2010-06-12T18:11:36Z</time>
      </trkpt>
      <trkpt lat="42.783121" lon="-0.499438">
        <ele>1476.013</ele>
        <time>2010-06-12T18:12:01Z</time>
      </trkpt>
      <trkpt lat="42.785033" lon="-0.497282">
        <ele>1489.006</ele>
        <time>2010-06-12T18:16:08Z</time>
      </trkpt>
      <trkpt lat="42.785248" lon="-0.496815">
        <ele>1491.036</ele>
        <time>2010-06-12T18:16:50Z</time>
      </trkpt>
      <trkpt lat="42.786155" lon="-0.496106">
        <ele>1500.073</ele>
        <time>2010-06-12T18:18:35Z</time>
      </trkpt>
      <trkpt lat="42.786589" lon="-0.495355">
        <ele>1502.040</ele>
        <time>2010-06-12T18:19:45Z</time>
      </trkpt>
      <trkpt lat="42.787349" lon="-0.493063">
        <ele>1504.098</ele>
        <time>2010-06-12T18:22:49Z</time>
      </trkpt>
      <trkpt lat="42.787501" lon="-0.492782">
        <ele>1507.066</ele>
        <time>2010-06-12T18:23:15Z</time>
      </trkpt>
      <trkpt lat="42.787880" lon="-0.492614">
        <ele>1509.058</ele>
        <time>2010-06-12T18:23:55Z</time>
      </trkpt>
      <trkpt lat="42.788316" lon="-0.491985">
        <ele>1513.025</ele>
        <time>2010-06-12T18:24:58Z</time>
      </trkpt>
      <trkpt lat="42.789000" lon="-0.490307">
        <ele>1522.026</ele>
        <time>2010-06-12T18:27:20Z</time>
      </trkpt>
      <trkpt lat="42.789118" lon="-0.489538">
        <ele>1527.008</ele>
        <time>2010-06-12T18:28:16Z</time>
      </trkpt>
      <trkpt lat="42.789308" lon="-0.488949">
        <ele>1526.006</ele>
        <time>2010-06-12T18:29:05Z</time>
      </trkpt>
      <trkpt lat="42.790086" lon="-0.487481">
        <ele>1531.061</ele>
        <time>2010-06-12T18:31:17Z</time>
      </trkpt>
      <trkpt lat="42.790101" lon="-0.486105">
        <ele>1534.068</ele>
        <time>2010-06-12T18:32:59Z</time>
      </trkpt>
      <trkpt lat="42.789927" lon="-0.485379">
        <ele>1540.025</ele>
        <time>2010-06-12T18:33:55Z</time>
      </trkpt>
      <trkpt lat="42.790080" lon="-0.485159">
        <ele>1540.013</ele>
        <time>2010-06-12T18:34:17Z</time>
      </trkpt>
      <trkpt lat="42.789985" lon="-0.484948">
        <ele>1541.031</ele>
        <time>2010-06-12T18:34:35Z</time>
      </trkpt>
      <trkpt lat="42.789938" lon="-0.483850">
        <ele>1546.083</ele>
        <time>2010-06-12T18:35:56Z</time>
      </trkpt>
      <trkpt lat="42.789833" lon="-0.482112">
        <ele>1564.064</ele>
        <time>2010-06-12T18:38:03Z</time>
      </trkpt>
      <trkpt lat="42.790100" lon="-0.480940">
        <ele>1582.006</ele>
        <time>2010-06-12T18:39:34Z</time>
      </trkpt>
      <trkpt lat="42.790393" lon="-0.480958">
        <ele>1580.016</ele>
        <time>2010-06-12T18:40:03Z</time>
      </trkpt>
      <trkpt lat="42.790454" lon="-0.480681">
        <ele>1585.006</ele>
        <time>2010-06-12T18:40:25Z</time>
      </trkpt>
      <trkpt lat="42.790338" lon="-0.480533">
        <ele>1586.015</ele>
        <time>2010-06-12T18:40:41Z</time>
      </trkpt>
      <trkpt lat="42.790397" lon="-0.480133">
        <ele>1599.022</ele>
        <time>2010-06-12T18:41:11Z</time>
      </trkpt>
      <trkpt lat="42.790638" lon="-0.479818">
        <ele>1604.089</ele>
        <time>2010-06-12T18:41:44Z</time>
      </trkpt>
      <trkpt lat="42.790671" lon="-0.479297">
        <ele>1619.057</ele>
        <time>2010-06-12T18:42:21Z</time>
      </trkpt>
      <trkpt lat="42.791261" lon="-0.478478">
        <ele>1620.065</ele>
        <time>2010-06-12T18:43:47Z</time>
      </trkpt>
      <trkpt lat="42.791639" lon="-0.478249">
        <ele>1625.037</ele>
        <time>2010-06-12T18:44:27Z</time>
      </trkpt>
      <trkpt lat="42.791829" lon="-0.477691">
        <ele>1635.047</ele>
        <time>2010-06-12T18:45:13Z</time>
      </trkpt>
      <trkpt lat="42.792432" lon="-0.476444">
        <ele>1648.029</ele>
        <time>2010-06-12T18:47:03Z</time>
      </trkpt>
      <trkpt lat="42.793640" lon="-0.475111">
        <ele>1675.021</ele>
        <time>2010-06-12T18:49:37Z</time>
      </trkpt>
      <trkpt lat="42.793919" lon="-0.474457">
        <ele>1686.006</ele>
        <time>2010-06-12T18:50:33Z</time>
      </trkpt>
      <trkpt lat="42.794448" lon="-0.473977">
        <ele>1687.093</ele>
        <time>2010-06-12T18:51:37Z</time>
      </trkpt>
      <trkpt lat="42.795096" lon="-0.472728">
        <ele>1691.080</ele>
        <time>2010-06-12T18:53:30Z</time>
      </trkpt>
      <trkpt lat="42.795087" lon="-0.472301">
        <ele>1699.047</ele>
        <time>2010-06-12T18:54:00Z</time>
      </trkpt>
      <trkpt lat="42.795739" lon="-0.470226">
        <ele>1702.085</ele>
        <time>2010-06-12T18:56:47Z</time>
      </trkpt>
      <trkpt lat="42.796686" lon="-0.468292">
        <ele>1705.063</ele>
        <time>2010-06-12T18:59:38Z</time>
      </trkpt>
      <trkpt lat="42.796713" lon="-0.467466">
        <ele>1710.055</ele>
        <time>2010-06-12T19:00:38Z</time>
      </trkpt>
      <trkpt lat="42.797219" lon="-0.464908">
        <ele>1721.058</ele>
        <time>2010-06-12T19:03:52Z</time>
      </trkpt>
      <trkpt lat="42.797329" lon="-0.463772">
        <ele>1725.052</ele>
        <time>2010-06-12T19:05:17Z</time>
      </trkpt>
      <trkpt lat="42.797021" lon="-0.462073">
        <ele>1741.017</ele>
        <time>2010-06-12T19:07:26Z</time>
      </trkpt>
      <trkpt lat="42.796147" lon="-0.460183">
        <ele>1766.006</ele>
        <time>2010-06-12T19:10:10Z</time>
      </trkpt>
      <trkpt lat="42.795067" lon="-0.458179">
        <ele>1786.044</ele>
        <time>2010-06-12T19:13:12Z</time>
      </trkpt>
      <trkpt lat="42.794188" lon="-0.456106">
        <ele>1790.091</ele>
        <time>2010-06-12T19:16:08Z</time>
      </trkpt>
      <trkpt lat="42.793169" lon="-0.454864">
        <ele>1822.058</ele>
        <time>2010-06-12T19:18:25Z</time>
      </trkpt>
      <trkpt lat="42.793154" lon="-0.454162">
        <ele>1817.086</ele>
        <time>2010-06-12T19:19:17Z</time>
      </trkpt>
      <trkpt lat="42.792941" lon="-0.453712">
        <ele>1817.024</ele>
        <time>2010-06-12T19:19:55Z</time>
      </trkpt>
      <trkpt lat="42.791575" lon="-0.453004">
        <ele>1853.076</ele>
        <time>2010-06-12T19:22:22Z</time>
      </trkpt>
      <trkpt lat="42.791208" lon="-0.452713">
        <ele>1866.018</ele>
        <time>2010-06-12T19:23:05Z</time>
      </trkpt>
      <trkpt lat="42.790989" lon="-0.452967">
        <ele>1870.098</ele>
        <time>2010-06-12T19:23:33Z</time>
      </trkpt>
      <trkpt lat="42.790381" lon="-0.452992">
        <ele>1899.017</ele>
        <time>2010-06-12T19:24:34Z</time>
      </trkpt>
      <trkpt lat="42.789613" lon="-0.453848">
        <ele>1939.006</ele>
        <time>2010-06-12T19:26:13Z</time>
      </trkpt>
      <trkpt lat="42.789604" lon="-0.454460">
        <ele>1957.040</ele>
        <time>2010-06-12T19:26:57Z</time>
      </trkpt>
      <trkpt lat="42.789409" lon="-0.454835">
        <ele>1975.027</ele>
        <time>2010-06-12T19:27:32Z</time>
      </trkpt>
      <trkpt lat="42.788528" lon="-0.454687">
        <ele>1998.034</ele>
        <time>2010-06-12T19:29:01Z</time>
      </trkpt>
      <trkpt lat="42.788198" lon="-0.455007">
        <ele>2009.092</ele>
        <time>2010-06-12T19:29:41Z</time>
      </trkpt>
      <trkpt lat="42.788165" lon="-0.455558">
        <ele>2019.060</ele>
        <time>2010-06-12T19:30:21Z</time>
      </trkpt>
      <trkpt lat="42.787996" lon="-0.456054">
        <ele>2020.022</ele>
        <time>2010-06-12T19:31:02Z</time>
      </trkpt>
      <trkpt lat="42.787483" lon="-0.456289">
        <ele>2033.083</ele>
        <time>2010-06-12T19:31:57Z</time>
      </trkpt>
      <trkpt lat="42.786182" lon="-0.456495">
        <ele>2047.025</ele>
        <time>2010-06-12T19:34:07Z</time>
      </trkpt>
      <trkpt lat="42.785586" lon="-0.457009">
        <ele>2067.017</ele>
        <time>2010-06-12T19:35:17Z</time>
      </trkpt>
      <trkpt lat="42.785237" lon="-0.457542">
        <ele>2072.006</ele>
        <time>2010-06-12T19:36:11Z</time>
      </trkpt>
      <trkpt lat="42.785012" lon="-0.458530">
        <ele>2097.047</ele>
        <time>2010-06-12T19:37:26Z</time>
      </trkpt>
      <trkpt lat="42.784280" lon="-0.459049">
        <ele>2135.024</ele>
        <time>2010-06-12T19:38:49Z</time>
      </trkpt>
      <trkpt lat="42.783681" lon="-0.458431">
        <ele>2163.021</ele>
        <time>2010-06-12T19:40:04Z</time>
      </trkpt>
      <trkpt lat="42.783225" lon="-0.458175">
        <ele>2193.079</ele>
        <time>2010-06-12T19:40:53Z</time>
      </trkpt>
      <trkpt lat="42.782854" lon="-0.458679">
        <ele>2247.027</ele>
        <time>2010-06-12T19:41:46Z</time>
      </trkpt>
      <trkpt lat="42.782565" lon="-0.458844">
        <ele>2270.019</ele>
        <time>2010-06-12T19:42:17Z</time>
      </trkpt>
      <trkpt lat="42.782345" lon="-0.458089">
        <ele>2301.058</ele>
        <time>2010-06-12T19:43:16Z</time>
      </trkpt>
      <trkpt lat="42.782089" lon="-0.457671">
        <ele>2304.052</ele>
        <time>2010-06-12T19:43:56Z</time>
      </trkpt>
      <trkpt lat="42.781447" lon="-0.458156">
        <ele>2354.017</ele>
        <time>2010-06-12T19:45:11Z</time>
      </trkpt>
      <trkpt lat="42.780170" lon="-0.458453">
        <ele>2386.006</ele>
        <time>2010-06-12T19:47:20Z</time>
      </trkpt>
      <trkpt lat="42.779889" lon="-0.457975">
        <ele>2395.064</ele>
        <time>2010-06-12T19:48:04Z</time>
      </trkpt>
      <trkpt lat="42.779995" lon="-0.457665">
        <ele>2399.091</ele>
        <time>2010-06-12T19:48:30Z</time>
      </trkpt>
      <trkpt lat="42.779896" lon="-0.457272">
        <ele>2408.028</ele>
        <time>2010-06-12T19:49:00Z</time>
      </trkpt>
      <trkpt lat="42.779694" lon="-0.457281">
        <ele>2401.036</ele>
        <time>2010-06-12T19:49:21Z</time>
      </trkpt>
      <trkpt lat="42.779305" lon="-0.457021">
        <ele>2376.064</ele>
        <time>2010-06-12T19:50:05Z</time>
      </trkpt>
      <trkpt lat="42.779450" lon="-0.456435">
        <ele>2370.026</ele>
        <time>2010-06-12T19:50:50Z</time>
      </trkpt>
      <trkpt lat="42.779644" lon="-0.456060">
        <ele>2381.092</ele>
        <time>2010-06-12T19:51:23Z</time>
      </trkpt>
      <trkpt lat="42.779680" lon="-0.455631">
        <ele>2363.073</ele>
        <time>2010-06-12T19:51:54Z</time>
      </trkpt>
      <trkpt lat="42.779443" lon="-0.455121">
        <ele>2327.020</ele>
        <time>2010-06-12T19:52:40Z</time>
      </trkpt>
      <trkpt lat="42.779752" lon="-0.453825">
        <ele>2312.006</ele>
        <time>2010-06-12T19:54:20Z</time>
      </trkpt>
      <trkpt lat="42.779990" lon="-0.452379">
        <ele>2271.038</ele>
        <time>2010-06-12T19:56:08Z</time>
      </trkpt>
      <trkpt lat="42.780059" lon="-0.451459">
        <ele>2249.095</ele>
        <time>2010-06-12T19:57:17Z</time>
      </trkpt>
      <trkpt lat="42.779986" lon="-0.451187">
        <ele>2244.022</ele>
        <time>2010-06-12T19:57:38Z</time>
      </trkpt>
      <trkpt lat="42.779332" lon="-0.450114">
        <ele>2250.090</ele>
        <time>2010-06-12T19:59:19Z</time>
      </trkpt>
      <trkpt lat="42.779220" lon="-0.449140">
        <ele>2259.038</ele>
        <time>2010-06-12T20:00:33Z</time>
      </trkpt>
      <trkpt lat="42.778656" lon="-0.448063">
        <ele>2253.080</ele>
        <time>2010-06-12T20:02:10Z</time>
      </trkpt>
      <trkpt lat="42.778116" lon="-0.448116">
        <ele>2253.029</ele>
        <time>2010-06-12T20:03:04Z</time>
      </trkpt>
      <trkpt lat="42.777629" lon="-0.447464">
        <ele>2243.000</ele>
        <time>2010-06-12T20:04:12Z</time>
      </trkpt>
      <trkpt lat="42.776525" lon="-0.446409">
        <ele>2237.020</ele>
        <time>2010-06-12T20:06:26Z</time>
      </trkpt>
      <trkpt lat="42.775767" lon="-0.444699">
        <ele>2239.006</ele>
        <time>2010-06-12T20:08:54Z</time>
      </trkpt>
      <trkpt lat="42.776083" lon="-0.442730">
        <ele>2233.041</ele>
        <time>2010-06-12T20:11:22Z</time>
      </trkpt>
      <trkpt lat="42.775902" lon="-0.441698">
        <ele>2225.068</ele>
        <time>2010-06-12T20:12:40Z</time>
      </trkpt>
      <trkpt lat="42.775570" lon="-0.440948">
        <ele>2212.065</ele>
        <time>2010-06-12T20:13:44Z</time>
      </trkpt>
      <trkpt lat="42.775559" lon="-0.438443">
        <ele>2162.043</ele>
        <time>2010-06-12T20:16:47Z</time>
      </trkpt>
      <trkpt lat="42.775321" lon="-0.437872">
        <ele>2140.031</ele>
        <time>2010-06-12T20:17:36Z</time>
      </trkpt>
      <trkpt lat="42.775120" lon="-0.436933">
        <ele>2112.033</ele>
        <time>2010-06-12T20:18:48Z</time>
      </trkpt>
      <trkpt lat="42.775124" lon="-0.436108">
        <ele>2093.084</ele>
        <time>2010-06-12T20:19:48Z</time>
      </trkpt>
      <trkpt lat="42.775547" lon="-0.434868">
        <ele>2075.007</ele>
        <time>2010-06-12T20:21:30Z</time>
      </trkpt>
      <trkpt lat="42.775779" lon="-0.433178">
        <ele>2035.017</ele>
        <time>2010-06-12T20:23:36Z</time>
      </trkpt>
      <trkpt lat="42.775532" lon="-0.432210">
        <ele>2013.006</ele>
        <time>2010-06-12T20:24:51Z</time>
      </trkpt>
      <trkpt lat="42.775000" lon="-0.431590">
        <ele>2000.047</ele>
        <time>2010-06-12T20:26:01Z</time>
      </trkpt>
      <trkpt lat="42.774788" lon="-0.431141">
        <ele>1996.084</ele>
        <time>2010-06-12T20:26:39Z</time>
      </trkpt>
      <trkpt lat="42.774375" lon="-0.429813">
        <ele>1980.031</ele>
        <time>2010-06-12T20:28:26Z</time>
      </trkpt>
      <trkpt lat="42.774391" lon="-0.428529">
        <ele>1958.069</ele>
        <time>2010-06-12T20:30:00Z</time>
      </trkpt>
      <trkpt lat="42.774058" lon="-0.427718">
        <ele>1940.017</ele>
        <time>2010-06-12T20:31:08Z</time>
      </trkpt>
      <trkpt lat="42.774021" lon="-0.427078">
        <ele>1927.069</ele>
        <time>2010-06-12T20:31:56Z</time>
      </trkpt>
      <trkpt lat="42.773985" lon="-0.425490">
        <ele>1907.069</ele>
        <time>2010-06-12T20:33:52Z</time>
      </trkpt>
      <trkpt lat="42.773845" lon="-0.424243">
        <ele>1902.004</ele>
        <time>2010-06-12T20:35:25Z</time>
      </trkpt>
      <trkpt lat="42.773631" lon="-0.423733">
        <ele>1901.024</ele>
        <time>2010-06-12T20:36:09Z</time>
      </trkpt>
      <trkpt lat="42.773501" lon="-0.422974">
        <ele>1902.006</ele>
        <time>2010-06-12T20:37:06Z</time>
      </trkpt>
      <trkpt lat="42.773443" lon="-0.421388">
        <ele>1863.055</ele>
        <time>2010-06-12T20:39:03Z</time>
      </trkpt>
      <trkpt lat="42.773466" lon="-0.420439">
        <ele>1842.032</ele>
        <time>2010-06-12T20:40:11Z</time>
      </trkpt>
      <trkpt lat="42.773123" lon="-0.419201">
        <ele>1826.089</ele>
        <time>2010-06-12T20:41:48Z</time>
      </trkpt>
      <trkpt lat="42.773116" lon="-0.417887">
        <ele>1826.077</ele>
        <time>2010-06-12T20:43:25Z</time>
      </trkpt>
      <trkpt lat="42.772989" lon="-0.417220">
        <ele>1835.025</ele>
        <time>2010-06-12T20:44:16Z</time>
      </trkpt>
      <trkpt lat="42.773382" lon="-0.415706">
        <ele>1850.057</ele>
        <time>2010-06-12T20:46:14Z</time>
      </trkpt>
      <trkpt lat="42.773306" lon="-0.415312">
        <ele>1854.087</ele>
        <time>2010-06-12T20:46:44Z</time>
      </trkpt>
      <trkpt lat="42.773319" lon="-0.414884">
        <ele>1855.042</ele>
        <time>2010-06-12T20:47:16Z</time>
      </trkpt>
      <trkpt lat="42.773703" lon="-0.413951">
        <ele>1853.026</ele>
        <time>2010-06-12T20:48:34Z</time>
      </trkpt>
      <trkpt lat="42.773862" lon="-0.414036">
        <ele>1847.006</ele>
        <time>2010-06-12T20:48:52Z</time>
      </trkpt>
      <trkpt lat="42.773938" lon="-0.414400">
        <ele>1847.087</ele>
        <time>2010-06-12T20:49:19Z</time>
      </trkpt>
      <trkpt lat="42.774193" lon="-0.414725">
        <ele>1844.024</ele>
        <time>2010-06-12T20:49:54Z</time>
      </trkpt>
      <trkpt lat="42.774548" lon="-0.414497">
        <ele>1842.031</ele>
        <time>2010-06-12T20:50:34Z</time>
      </trkpt>
      <trkpt lat="42.775005" lon="-0.414783">
        <ele>1835.059</ele>
        <time>2010-06-12T20:51:23Z</time>
      </trkpt>
      <trkpt lat="42.775405" lon="-0.414583">
        <ele>1830.017</ele>
        <time>2010-06-12T20:52:07Z</time>
      </trkpt>
      <trkpt lat="42.775714" lon="-0.414295">
        <ele>1815.079</ele>
        <time>2010-06-12T20:52:44Z</time>
      </trkpt>
      <trkpt lat="42.776025" lon="-0.414130">
        <ele>1808.091</ele>
        <time>2010-06-12T20:53:18Z</time>
      </trkpt>
      <trkpt lat="42.775922" lon="-0.413523">
        <ele>1812.081</ele>
        <time>2010-06-12T20:54:02Z</time>
      </trkpt>
      <trkpt lat="42.776118" lon="-0.413240">
        <ele>1805.019</ele>
        <time>2010-06-12T20:54:31Z</time>
      </trkpt>
      <trkpt lat="42.776285" lon="-0.412683">
        <ele>1801.006</ele>
        <time>2010-06-12T20:55:15Z</time>
      </trkpt>
      <trkpt lat="42.776506" lon="-0.412490">
        <ele>1800.048</ele>
        <time>2010-06-12T20:55:41Z</time>
      </trkpt>
      <trkpt lat="42.776715" lon="-0.412756">
        <ele>1797.015</ele>
        <time>2010-06-12T20:56:11Z</time>
      </trkpt>
      <trkpt lat="42.776750" lon="-0.413336">
        <ele>1796.012</ele>
        <time>2010-06-12T20:56:54Z</time>
      </trkpt>
      <trkpt lat="42.776913" lon="-0.413573">
        <ele>1793.040</ele>
        <time>2010-06-12T20:57:18Z</time>
      </trkpt>
      <trkpt lat="42.777116" lon="-0.413565">
        <ele>1788.028</ele>
        <time>2010-06-12T20:57:37Z</time>
      </trkpt>
      <trkpt lat="42.777343" lon="-0.413647">
        <ele>1788.080</ele>
        <time>2010-06-12T20:58:01Z</time>
      </trkpt>
      <trkpt lat="42.777847" lon="-0.414054">
        <ele>1772.027</ele>
        <time>2010-06-12T20:59:00Z</time>
      </trkpt>
      <trkpt lat="42.777834" lon="-0.414482">
        <ele>1773.068</ele>
        <time>2010-06-12T20:59:30Z</time>
      </trkpt>
      <trkpt lat="42.778042" lon="-0.414688">
        <ele>1767.014</ele>
        <time>2010-06-12T20:59:57Z</time>
      </trkpt>
      <trkpt lat="42.778278" lon="-0.414189">
        <ele>1758.006</ele>
        <time>2010-06-12T21:00:40Z</time>
      </trkpt>
      <trkpt lat="42.778355" lon="-0.413605">
        <ele>1755.071</ele>
        <time>2010-06-12T21:01:23Z</time>
      </trkpt>
      <trkpt lat="42.778337" lon="-0.412842">
        <ele>1756.028</ele>
        <time>2010-06-12T21:02:19Z</time>
      </trkpt>
      <trkpt lat="42.778446" lon="-0.412684">
        <ele>1756.015</ele>
        <time>2010-06-12T21:02:35Z</time>
      </trkpt>
      <trkpt lat="42.778832" lon="-0.412790">
        <ele>1747.043</ele>
        <time>2010-06-12T21:03:16Z</time>
      </trkpt>
      <trkpt lat="42.780156" lon="-0.412613">
        <ele>1731.091</ele>
        <time>2010-06-12T21:05:28Z</time>
      </trkpt>
      <trkpt lat="42.780669" lon="-0.412408">
        <ele>1730.073</ele>
        <time>2010-06-12T21:06:21Z</time>
      </trkpt>
      <trkpt lat="42.780700" lon="-0.411796">
        <ele>1722.025</ele>
        <time>2010-06-12T21:07:07Z</time>
      </trkpt>
      <trkpt lat="42.780916" lon="-0.411390">
        <ele>1720.026</ele>
        <time>2010-06-12T21:07:44Z</time>
      </trkpt>
      <trkpt lat="42.781781" lon="-0.410803">
        <ele>1713.008</ele>
        <time>2010-06-12T21:09:21Z</time>
      </trkpt>
      <trkpt lat="42.782272" lon="-0.409652">
        <ele>1709.006</ele>
        <time>2010-06-12T21:10:58Z</time>
      </trkpt>
      <trkpt lat="42.781784" lon="-0.408970">
        <ele>1700.051</ele>
        <time>2010-06-12T21:12:08Z</time>
      </trkpt>
      <trkpt lat="42.781725" lon="-0.408361">
        <ele>1696.058</ele>
        <time>2010-06-12T21:12:54Z</time>
      </trkpt>
      <trkpt lat="42.781553" lon="-0.407726">
        <ele>1693.075</ele>
        <time>2010-06-12T21:13:43Z</time>
      </trkpt>
      <trkpt lat="42.781563" lon="-0.407176">
        <ele>1693.013</ele>
        <time>2010-06-12T21:14:23Z</time>
      </trkpt>
      <trkpt lat="42.782403" lon="-0.406468">
        <ele>1673.091</ele>
        <time>2010-06-12T21:16:03Z</time>
      </trkpt>
      <trkpt lat="42.782651" lon="-0.406489">
        <ele>1667.083</ele>
        <time>2010-06-12T21:16:27Z</time>
      </trkpt>
      <trkpt lat="42.782839" lon="-0.406817">
        <ele>1674.026</ele>
        <time>2010-06-12T21:16:58Z</time>
      </trkpt>
      <trkpt lat="42.783641" lon="-0.406447">
        <ele>1665.047</ele>
        <time>2010-06-12T21:18:23Z</time>
      </trkpt>
      <trkpt lat="42.783996" lon="-0.405240">
        <ele>1655.011</ele>
        <time>2010-06-12T21:19:59Z</time>
      </trkpt>
      <trkpt lat="42.783534" lon="-0.404740">
        <ele>1650.006</ele>
        <time>2010-06-12T21:20:58Z</time>
      </trkpt>
      <trkpt lat="42.783562" lon="-0.403975">
        <ele>1645.021</ele>
        <time>2010-06-12T21:21:54Z</time>
      </trkpt>
      <trkpt lat="42.783935" lon="-0.403531">
        <ele>1641.068</ele>
        <time>2010-06-12T21:22:43Z</time>
      </trkpt>
      <trkpt lat="42.784343" lon="-0.402689">
        <ele>1627.035</ele>
        <time>2010-06-12T21:23:58Z</time>
      </trkpt>
      <trkpt lat="42.784242" lon="-0.402204">
        <ele>1624.073</ele>
        <time>2010-06-12T21:24:35Z</time>
      </trkpt>
      <trkpt lat="42.784459" lon="-0.401829">
        <ele>1621.011</ele>
        <time>2010-06-12T21:25:10Z</time>
      </trkpt>
      <trkpt lat="42.784680" lon="-0.401636">
        <ele>1620.033</ele>
        <time>2010-06-12T21:25:36Z</time>
      </trkpt>
      <trkpt lat="42.785040" lon="-0.400673">
        <ele>1612.097</ele>
        <time>2010-06-12T21:26:55Z</time>
      </trkpt>
      <trkpt lat="42.785047" lon="-0.399970">
        <ele>1609.023</ele>
        <time>2010-06-12T21:27:47Z</time>
      </trkpt>
      <trkpt lat="42.785933" lon="-0.399322">
        <ele>1608.025</ele>
        <time>2010-06-12T21:29:27Z</time>
      </trkpt>
      <trkpt lat="42.786646" lon="-0.398039">
        <ele>1599.006</ele>
        <time>2010-06-12T21:31:25Z</time>
      </trkpt>
      <trkpt lat="42.787313" lon="-0.397644">
        <ele>1600.058</ele>
        <time>2010-06-12T21:32:38Z</time>
      </trkpt>
      <trkpt lat="42.787329" lon="-0.397368">
        <ele>1598.025</ele>
        <time>2010-06-12T21:32:59Z</time>
      </trkpt>
      <trkpt lat="42.787077" lon="-0.397165">
        <ele>1594.092</ele>
        <time>2010-06-12T21:33:28Z</time>
      </trkpt>
      <trkpt lat="42.786975" lon="-0.396650">
        <ele>1595.070</ele>
        <time>2010-06-12T21:34:06Z</time>
      </trkpt>
      <trkpt lat="42.786673" lon="-0.396235">
        <ele>1595.098</ele>
        <time>2010-06-12T21:34:50Z</time>
      </trkpt>
      <trkpt lat="42.786174" lon="-0.396072">
        <ele>1585.060</ele>
        <time>2010-06-12T21:35:42Z</time>
      </trkpt>
      <trkpt lat="42.785831" lon="-0.394864">
        <ele>1602.079</ele>
        <time>2010-06-12T21:37:17Z</time>
      </trkpt>
      <trkpt lat="42.785820" lon="-0.394375">
        <ele>1607.005</ele>
        <time>2010-06-12T21:37:52Z</time>
      </trkpt>
      <trkpt lat="42.786121" lon="-0.393752">
        <ele>1613.025</ele>
        <time>2010-06-12T21:38:46Z</time>
      </trkpt>
      <trkpt lat="42.785998" lon="-0.393298">
        <ele>1614.006</ele>
        <time>2010-06-12T21:39:23Z</time>
      </trkpt>
      <trkpt lat="42.786058" lon="-0.391951">
        <ele>1620.026</ele>
        <time>2010-06-12T21:41:02Z</time>
      </trkpt>
      <trkpt lat="42.785564" lon="-0.391055">
        <ele>1606.023</ele>
        <time>2010-06-12T21:42:23Z</time>
      </trkpt>
      <trkpt lat="42.785434" lon="-0.390296">
        <ele>1609.040</ele>
        <time>2010-06-12T21:43:22Z</time>
      </trkpt>
      <trkpt lat="42.784918" lon="-0.389370">
        <ele>1605.078</ele>
        <time>2010-06-12T21:44:46Z</time>
      </trkpt>
      <trkpt lat="42.783648" lon="-0.387987">
        <ele>1597.056</ele>
        <time>2010-06-12T21:47:30Z</time>
      </trkpt>
      <trkpt lat="42.783367" lon="-0.387510">
        <ele>1593.048</ele>
        <time>2010-06-12T21:48:15Z</time>
      </trkpt>
      <trkpt lat="42.783394" lon="-0.386715">
        <ele>1592.049</ele>
        <time>2010-06-12T21:49:13Z</time>
      </trkpt>
      <trkpt lat="42.783210" lon="-0.386539">
        <ele>1592.002</ele>
        <time>2010-06-12T21:49:36Z</time>
      </trkpt>
      <trkpt lat="42.783125" lon="-0.386756">
        <ele>1587.022</ele>
        <time>2010-06-12T21:49:53Z</time>
      </trkpt>
      <trkpt lat="42.783095" lon="-0.387430">
        <ele>1586.006</ele>
        <time>2010-06-12T21:50:43Z</time>
      </trkpt>
      <trkpt lat="42.782248" lon="-0.387771">
        <ele>1572.013</ele>
        <time>2010-06-12T21:52:12Z</time>
      </trkpt>
      <trkpt lat="42.781794" lon="-0.387607">
        <ele>1565.070</ele>
        <time>2010-06-12T21:52:59Z</time>
      </trkpt>
      <trkpt lat="42.781673" lon="-0.387245">
        <ele>1567.017</ele>
        <time>2010-06-12T21:53:28Z</time>
      </trkpt>
      <trkpt lat="42.781865" lon="-0.386779">
        <ele>1575.075</ele>
        <time>2010-06-12T21:54:06Z</time>
      </trkpt>
      <trkpt lat="42.782193" lon="-0.386368">
        <ele>1576.093</ele>
        <time>2010-06-12T21:54:51Z</time>
      </trkpt>
      <trkpt lat="42.781956" lon="-0.385858">
        <ele>1567.065</ele>
        <time>2010-06-12T21:55:36Z</time>
      </trkpt>
      <trkpt lat="42.781948" lon="-0.384514">
        <ele>1558.034</ele>
        <time>2010-06-12T21:57:14Z</time>
      </trkpt>
      <trkpt lat="42.782279" lon="-0.384194">
        <ele>1562.055</ele>
        <time>2010-06-12T21:57:55Z</time>
      </trkpt>
      <trkpt lat="42.782494" lon="-0.383788">
        <ele>1567.010</ele>
        <time>2010-06-12T21:58:31Z</time>
      </trkpt>
      <trkpt lat="42.781785" lon="-0.383268">
        <ele>1557.006</ele>
        <time>2010-06-12T21:59:53Z</time>
      </trkpt>
      <trkpt lat="42.780870" lon="-0.381656">
        <ele>1558.032</ele>
        <time>2010-06-12T22:02:21Z</time>
      </trkpt>
      <trkpt lat="42.780149" lon="-0.381625">
        <ele>1542.029</ele>
        <time>2010-06-12T22:03:35Z</time>
      </trkpt>
      <trkpt lat="42.779867" lon="-0.382096">
        <ele>1531.026</ele>
        <time>2010-06-12T22:04:18Z</time>
      </trkpt>
      <trkpt lat="42.779509" lon="-0.382202">
        <ele>1521.044</ele>
        <time>2010-06-12T22:04:56Z</time>
      </trkpt>
      <trkpt lat="42.779089" lon="-0.381548">
        <ele>1520.022</ele>
        <time>2010-06-12T22:06:00Z</time>
      </trkpt>
      <trkpt lat="42.779518" lon="-0.380613">
        <ele>1536.064</ele>
        <time>2010-06-12T22:07:21Z</time>
      </trkpt>
      <trkpt lat="42.779981" lon="-0.380196">
        <ele>1538.059</ele>
        <time>2010-06-12T22:08:16Z</time>
      </trkpt>
      <trkpt lat="42.780084" lon="-0.379764">
        <ele>1539.003</ele>
        <time>2010-06-12T22:08:50Z</time>
      </trkpt>
      <trkpt lat="42.779670" lon="-0.379415">
        <ele>1541.023</ele>
        <time>2010-06-12T22:09:38Z</time>
      </trkpt>
      <trkpt lat="42.779205" lon="-0.379740">
        <ele>1542.006</ele>
        <time>2010-06-12T22:10:30Z</time>
      </trkpt>
      <trkpt lat="42.778610" lon="-0.380285">
        <ele>1533.044</ele>
        <time>2010-06-12T22:11:42Z</time>
      </trkpt>
      <trkpt lat="42.778271" lon="-0.380238">
        <ele>1527.041</ele>
        <time>2010-06-12T22:12:17Z</time>
      </trkpt>
      <trkpt lat="42.777748" lon="-0.379037">
        <ele>1521.018</ele>
        <time>2010-06-12T22:13:59Z</time>
      </trkpt>
      <trkpt lat="42.777882" lon="-0.377993">
        <ele>1535.026</ele>
        <time>2010-06-12T22:15:17Z</time>
      </trkpt>
      <trkpt lat="42.777537" lon="-0.377671">
        <ele>1526.014</ele>
        <time>2010-06-12T22:15:58Z</time>
      </trkpt>
      <trkpt lat="42.776985" lon="-0.376197">
        <ele>1522.036</ele>
        <time>2010-06-12T22:17:59Z</time>
      </trkpt>
      <trkpt lat="42.776852" lon="-0.375286">
        <ele>1524.012</ele>
        <time>2010-06-12T22:19:09Z</time>
      </trkpt>
      <trkpt lat="42.776716" lon="-0.375231">
        <ele>1514.032</ele>
        <time>2010-06-12T22:19:22Z</time>
      </trkpt>
      <trkpt lat="42.776496" lon="-0.375454">
        <ele>1506.005</ele>
        <time>2010-06-12T22:19:50Z</time>
      </trkpt>
      <trkpt lat="42.776177" lon="-0.375284">
        <ele>1504.006</ele>
        <time>2010-06-12T22:20:24Z</time>
      </trkpt>
      <trkpt lat="42.775922" lon="-0.374989">
        <ele>1502.060</ele>
        <time>2010-06-12T22:20:57Z</time>
      </trkpt>
      <trkpt lat="42.775777" lon="-0.374567">
        <ele>1503.027</ele>
        <time>2010-06-12T22:21:32Z</time>
      </trkpt>
      <trkpt lat="42.775898" lon="-0.373951">
        <ele>1505.064</ele>
        <time>2010-06-12T22:22:19Z</time>
      </trkpt>
      <trkpt lat="42.775588" lon="-0.373170">
        <ele>1504.052</ele>
        <time>2010-06-12T22:23:24Z</time>
      </trkpt>
      <trkpt lat="42.775464" lon="-0.369722">
        <ele>1504.070</ele>
        <time>2010-06-12T22:27:37Z</time>
      </trkpt>
      <trkpt lat="42.775660" lon="-0.369439">
        <ele>1505.012</ele>
        <time>2010-06-12T22:28:06Z</time>
      </trkpt>
      <trkpt lat="42.775688" lon="-0.368704">
        <ele>1510.054</ele>
        <time>2010-06-12T22:29:00Z</time>
      </trkpt>
      <trkpt lat="42.775250" lon="-0.368264">
        <ele>1506.056</ele>
        <time>2010-06-12T22:29:55Z</time>
      </trkpt>
      <trkpt lat="42.774752" lon="-0.367155">
        <ele>1504.011</ele>
        <time>2010-06-12T22:31:29Z</time>
      </trkpt>
      <trkpt lat="42.774551" lon="-0.366277">
        <ele>1505.006</ele>
        <time>2010-06-12T22:32:38Z</time>
      </trkpt>
      <trkpt lat="42.774717" lon="-0.365628">
        <ele>1516.064</ele>
        <time>2010-06-12T22:33:27Z</time>
      </trkpt>
      <trkpt lat="42.774168" lon="-0.364307">
        <ele>1512.031</ele>
        <time>2010-06-12T22:35:20Z</time>
      </trkpt>
      <trkpt lat="42.774077" lon="-0.363272">
        <ele>1519.068</ele>
        <time>2010-06-12T22:36:37Z</time>
      </trkpt>
      <trkpt lat="42.773784" lon="-0.363254">
        <ele>1515.016</ele>
        <time>2010-06-12T22:37:05Z</time>
      </trkpt>
      <trkpt lat="42.772952" lon="-0.361364">
        <ele>1520.064</ele>
        <time>2010-06-12T22:39:48Z</time>
      </trkpt>
      <trkpt lat="42.772857" lon="-0.360146">
        <ele>1518.086</ele>
        <time>2010-06-12T22:41:17Z</time>
      </trkpt>
      <trkpt lat="42.772618" lon="-0.359545">
        <ele>1515.049</ele>
        <time>2010-06-12T22:42:08Z</time>
      </trkpt>
      <trkpt lat="42.772545" lon="-0.358356">
        <ele>1514.002</ele>
        <time>2010-06-12T22:43:35Z</time>
      </trkpt>
      <trkpt lat="42.772351" lon="-0.357754">
        <ele>1504.022</ele>
        <time>2010-06-12T22:44:23Z</time>
      </trkpt>
      <trkpt lat="42.772383" lon="-0.357172">
        <ele>1507.006</ele>
        <time>2010-06-12T22:45:06Z</time>
      </trkpt>
      <trkpt lat="42.772675" lon="-0.356151">
        <ele>1497.043</ele>
        <time>2010-06-12T22:46:26Z</time>
      </trkpt>
      <trkpt lat="42.773204" lon="-0.355700">
        <ele>1498.070</ele>
        <time>2010-06-12T22:47:29Z</time>
      </trkpt>
      <trkpt lat="42.773372" lon="-0.355143">
        <ele>1490.027</ele>
        <time>2010-06-12T22:48:14Z</time>
      </trkpt>
      <trkpt lat="42.773785" lon="-0.354515">
        <ele>1490.075</ele>
        <time>2010-06-12T22:49:16Z</time>
      </trkpt>
      <trkpt lat="42.774081" lon="-0.353677">
        <ele>1490.033</ele>
        <time>2010-06-12T22:50:24Z</time>
      </trkpt>
      <trkpt lat="42.774061" lon="-0.352822">
        <ele>1485.055</ele>
        <time>2010-06-12T22:51:27Z</time>
      </trkpt>
      <trkpt lat="42.774381" lon="-0.352075">
        <ele>1481.031</ele>
        <time>2010-06-12T22:52:30Z</time>
      </trkpt>
      <trkpt lat="42.774309" lon="-0.350917">
        <ele>1473.061</ele>
        <time>2010-06-12T22:53:55Z</time>
      </trkpt>
      <trkpt lat="42.774605" lon="-0.350049">
        <ele>1471.007</ele>
        <time>2010-06-12T22:55:05Z</time>
      </trkpt>
      <trkpt lat="42.774570" lon="-0.349531">
        <ele>1464.006</ele>
        <time>2010-06-12T22:55:45Z</time>
      </trkpt>
      <trkpt lat="42.774299" lon="-0.349512">
        <ele>1460.042</ele>
        <time>2010-06-12T22:56:12Z</time>
      </trkpt>
      <trkpt lat="42.774088" lon="-0.350101">
        <ele>1464.049</ele>
        <time>2010-06-12T22:56:59Z</time>
      </trkpt>
      <trkpt lat="42.773760" lon="-0.350513">
        <ele>1464.036</ele>
        <time>2010-06-12T22:57:44Z</time>
      </trkpt>
      <trkpt lat="42.773307" lon="-0.350410">
        <ele>1456.024</ele>
        <time>2010-06-12T22:58:30Z</time>
      </trkpt>
      <trkpt lat="42.773007" lon="-0.350086">
        <ele>1453.042</ele>
        <time>2010-06-12T22:59:08Z</time>
      </trkpt>
      <trkpt lat="42.772732" lon="-0.348907">
        <ele>1441.014</ele>
        <time>2010-06-12T23:00:39Z</time>
      </trkpt>
      <trkpt lat="42.772223" lon="-0.349295">
        <ele>1443.034</ele>
        <time>2010-06-12T23:01:38Z</time>
      </trkpt>
      <trkpt lat="42.771789" lon="-0.349008">
        <ele>1438.055</ele>
        <time>2010-06-12T23:02:26Z</time>
      </trkpt>
      <trkpt lat="42.771825" lon="-0.348640">
        <ele>1438.010</ele>
        <time>2010-06-12T23:02:53Z</time>
      </trkpt>
      <trkpt lat="42.772085" lon="-0.348201">
        <ele>1434.006</ele>
        <time>2010-06-12T23:03:34Z</time>
      </trkpt>
      <trkpt lat="42.772889" lon="-0.347891">
        <ele>1426.062</ele>
        <time>2010-06-12T23:04:59Z</time>
      </trkpt>
      <trkpt lat="42.772858" lon="-0.347557">
        <ele>1423.049</ele>
        <time>2010-06-12T23:05:22Z</time>
      </trkpt>
      <trkpt lat="42.771739" lon="-0.346841">
        <ele>1413.066</ele>
        <time>2010-06-12T23:07:27Z</time>
      </trkpt>
      <trkpt lat="42.771824" lon="-0.346654">
        <ele>1412.084</ele>
        <time>2010-06-12T23:07:43Z</time>
      </trkpt>
      <trkpt lat="42.773252" lon="-0.346104">
        <ele>1412.072</ele>
        <time>2010-06-12T23:10:12Z</time>
      </trkpt>
      <trkpt lat="42.773221" lon="-0.345738">
        <ele>1408.054</ele>
        <time>2010-06-12T23:10:38Z</time>
      </trkpt>
      <trkpt lat="42.772731" lon="-0.344965">
        <ele>1396.091</ele>
        <time>2010-06-12T23:11:54Z</time>
      </trkpt>
      <trkpt lat="42.772568" lon="-0.343780">
        <ele>1389.081</ele>
        <time>2010-06-12T23:13:22Z</time>
      </trkpt>
      <trkpt lat="42.772958" lon="-0.341166">
        <ele>1385.019</ele>
        <time>2010-06-12T23:16:37Z</time>
      </trkpt>
      <trkpt lat="42.772944" lon="-0.340556">
        <ele>1386.006</ele>
        <time>2010-06-12T23:17:22Z</time>
      </trkpt>
      <trkpt lat="42.772719" lon="-0.338640">
        <ele>1367.068</ele>
        <time>2010-06-12T23:19:45Z</time>
      </trkpt>
      <trkpt lat="42.772850" lon="-0.337504">
        <ele>1354.055</ele>
        <time>2010-06-12T23:21:10Z</time>
      </trkpt>
      <trkpt lat="42.773361" lon="-0.336260">
        <ele>1351.052</ele>
        <time>2010-06-12T23:22:55Z</time>
      </trkpt>
      <trkpt lat="42.773739" lon="-0.336030">
        <ele>1354.010</ele>
        <time>2010-06-12T23:23:36Z</time>
      </trkpt>
      <trkpt lat="42.774666" lon="-0.334279">
        <ele>1346.018</ele>
        <time>2010-06-12T23:26:14Z</time>
      </trkpt>
      <trkpt lat="42.774639" lon="-0.334096">
        <ele>1346.090</ele>
        <time>2010-06-12T23:26:28Z</time>
      </trkpt>
      <trkpt lat="42.774990" lon="-0.333684">
        <ele>1346.019</ele>
        <time>2010-06-12T23:27:14Z</time>
      </trkpt>
      <trkpt lat="42.775398" lon="-0.332842">
        <ele>1342.009</ele>
        <time>2010-06-12T23:28:29Z</time>
      </trkpt>
      <trkpt lat="42.775596" lon="-0.332650">
        <ele>1350.019</ele>
        <time>2010-06-12T23:28:53Z</time>
      </trkpt>
      <trkpt lat="42.776404" lon="-0.332554">
        <ele>1365.006</ele>
        <time>2010-06-12T23:30:14Z</time>
      </trkpt>
      <trkpt lat="42.777036" lon="-0.331671">
        <ele>1359.060</ele>
        <time>2010-06-12T23:31:45Z</time>
      </trkpt>
      <trkpt lat="42.777580" lon="-0.331801">
        <ele>1365.017</ele>
        <time>2010-06-12T23:32:39Z</time>
      </trkpt>
      <trkpt lat="42.777969" lon="-0.332089">
        <ele>1385.094</ele>
        <time>2010-06-12T23:33:25Z</time>
      </trkpt>
      <trkpt lat="42.779060" lon="-0.332532">
        <ele>1397.022</ele>
        <time>2010-06-12T23:35:18Z</time>
      </trkpt>
      <trkpt lat="42.779913" lon="-0.332434">
        <ele>1398.080</ele>
        <time>2010-06-12T23:36:44Z</time>
      </trkpt>
      <trkpt lat="42.780503" lon="-0.332622">
        <ele>1403.052</ele>
        <time>2010-06-12T23:37:45Z</time>
      </trkpt>
      <trkpt lat="42.782654" lon="-0.331216">
        <ele>1417.056</ele>
        <time>2010-06-12T23:41:43Z</time>
      </trkpt>
      <trkpt lat="42.782815" lon="-0.330414">
        <ele>1391.059</ele>
        <time>2010-06-12T23:42:44Z</time>
      </trkpt>
      <trkpt lat="42.783267" lon="-0.329509">
        <ele>1401.014</ele>
        <time>2010-06-12T23:44:05Z</time>
      </trkpt>
      <trkpt lat="42.783945" lon="-0.328654">
        <ele>1408.006</ele>
        <time>2010-06-12T23:45:37Z</time>
      </trkpt>
      <trkpt lat="42.784043" lon="-0.327091">
        <ele>1411.044</ele>
        <time>2010-06-12T23:47:32Z</time>
      </trkpt>
      <trkpt lat="42.784242" lon="-0.326930">
        <ele>1411.011</ele>
        <time>2010-06-12T23:47:56Z</time>
      </trkpt>
      <trkpt lat="42.785708" lon="-0.327998">
        <ele>1433.078</ele>
        <time>2010-06-12T23:50:42Z</time>
      </trkpt>
      <trkpt lat="42.786835" lon="-0.327093">
        <ele>1421.036</ele>
        <time>2010-06-12T23:52:52Z</time>
      </trkpt>
      <trkpt lat="42.789157" lon="-0.327268">
        <ele>1431.094</ele>
        <time>2010-06-12T23:56:46Z</time>
      </trkpt>
      <trkpt lat="42.789297" lon="-0.326498">
        <ele>1445.076</ele>
        <time>2010-06-12T23:57:43Z</time>
      </trkpt>
      <trkpt lat="42.791313" lon="-0.326075">
        <ele>1437.025</ele>
        <time>2010-06-13T00:01:07Z</time>
      </trkpt>
      <trkpt lat="42.791977" lon="-0.326566">
        <ele>1431.026</ele>
        <time>2010-06-13T00:02:24Z</time>
      </trkpt>
      <trkpt lat="42.792632" lon="-0.327608">
        <ele>1424.008</ele>
        <time>2010-06-13T00:04:04Z</time>
      </trkpt>
      <trkpt lat="42.793455" lon="-0.328153">
        <ele>1434.006</ele>
        <time>2010-06-13T00:05:36Z</time>
      </trkpt>
      <trkpt lat="42.793872" lon="-0.328655">
        <ele>1432.051</ele>
        <time>2010-06-13T00:06:32Z</time>
      </trkpt>
      <trkpt lat="42.794575" lon="-0.328869">
        <ele>1437.068</ele>
        <time>2010-06-13T00:07:44Z</time>
      </trkpt>
      <trkpt lat="42.796269" lon="-0.331058">
        <ele>1441.045</ele>
        <time>2010-06-13T00:11:38Z</time>
      </trkpt>
      <trkpt lat="42.796841" lon="-0.331431">
        <ele>1451.083</ele>
        <time>2010-06-13T00:12:40Z</time>
      </trkpt>
      <trkpt lat="42.797339" lon="-0.332510">
        <ele>1440.091</ele>
        <time>2010-06-13T00:14:15Z</time>
      </trkpt>
      <trkpt lat="42.797660" lon="-0.332771">
        <ele>1440.073</ele>
        <time>2010-06-13T00:14:52Z</time>
      </trkpt>
      <trkpt lat="42.798923" lon="-0.332870">
        <ele>1460.074</ele>
        <time>2010-06-13T00:16:59Z</time>
      </trkpt>
      <trkpt lat="42.800304" lon="-0.334186">
        <ele>1460.056</ele>
        <time>2010-06-13T00:19:46Z</time>
      </trkpt>
      <trkpt lat="42.800942" lon="-0.334495">
        <ele>1460.021</ele>
        <time>2010-06-13T00:20:55Z</time>
      </trkpt>
      <trkpt lat="42.801294" lon="-0.334144">
        <ele>1461.006</ele>
        <time>2010-06-13T00:21:38Z</time>
      </trkpt>
      <trkpt lat="42.801995" lon="-0.334297">
        <ele>1466.046</ele>
        <time>2010-06-13T00:22:49Z</time>
      </trkpt>
      <trkpt lat="42.802331" lon="-0.335169">
        <ele>1460.033</ele>
        <time>2010-06-13T00:24:01Z</time>
      </trkpt>
      <trkpt lat="42.803363" lon="-0.335981">
        <ele>1469.050</ele>
        <time>2010-06-13T00:26:00Z</time>
      </trkpt>
      <trkpt lat="42.803237" lon="-0.336384">
        <ele>1475.068</ele>
        <time>2010-06-13T00:26:34Z</time>
      </trkpt>
      <trkpt lat="42.804250" lon="-0.336371">
        <ele>1473.086</ele>
        <time>2010-06-13T00:28:14Z</time>
      </trkpt>
      <trkpt lat="42.804704" lon="-0.336535">
        <ele>1472.038</ele>
        <time>2010-06-13T00:29:02Z</time>
      </trkpt>
      <trkpt lat="42.806065" lon="-0.337974">
        <ele>1474.094</ele>
        <time>2010-06-13T00:31:54Z</time>
      </trkpt>
      <trkpt lat="42.806139" lon="-0.338216">
        <ele>1481.057</ele>
        <time>2010-06-13T00:32:14Z</time>
      </trkpt>
      <trkpt lat="42.806619" lon="-0.338562">
        <ele>1489.022</ele>
        <time>2010-06-13T00:33:07Z</time>
      </trkpt>
      <trkpt lat="42.806979" lon="-0.338547">
        <ele>1491.006</ele>
        <time>2010-06-13T00:33:44Z</time>
      </trkpt>
      <trkpt lat="42.807144" lon="-0.338876">
        <ele>1500.028</ele>
        <time>2010-06-13T00:34:12Z</time>
      </trkpt>
      <trkpt lat="42.807487" lon="-0.339106">
        <ele>1511.025</ele>
        <time>2010-06-13T00:34:52Z</time>
      </trkpt>
      <trkpt lat="42.807651" lon="-0.339374">
        <ele>1524.042</ele>
        <time>2010-06-13T00:35:16Z</time>
      </trkpt>
      <trkpt lat="42.807918" lon="-0.339210">
        <ele>1523.040</ele>
        <time>2010-06-13T00:35:45Z</time>
      </trkpt>
      <trkpt lat="42.807957" lon="-0.338963">
        <ele>1516.078</ele>
        <time>2010-06-13T00:36:04Z</time>
      </trkpt>
      <trkpt lat="42.808092" lon="-0.338988">
        <ele>1516.020</ele>
        <time>2010-06-13T00:36:18Z</time>
      </trkpt>
      <trkpt lat="42.808100" lon="-0.339324">
        <ele>1532.053</ele>
        <time>2010-06-13T00:36:42Z</time>
      </trkpt>
      <trkpt lat="42.809311" lon="-0.339119">
        <ele>1571.004</ele>
        <time>2010-06-13T00:38:45Z</time>
      </trkpt>
      <trkpt lat="42.809396" lon="-0.338902">
        <ele>1563.014</ele>
        <time>2010-06-13T00:39:04Z</time>
      </trkpt>
      <trkpt lat="42.811227" lon="-0.338273">
        <ele>1585.006</ele>
        <time>2010-06-13T00:42:12Z</time>
      </trkpt>
      <trkpt lat="42.812395" lon="-0.338131">
        <ele>1593.084</ele>
        <time>2010-06-13T00:44:09Z</time>
      </trkpt>
      <trkpt lat="42.813800" lon="-0.337581">
        <ele>1585.021</ele>
        <time>2010-06-13T00:46:36Z</time>
      </trkpt>
      <trkpt lat="42.814768" lon="-0.337570">
        <ele>1600.068</ele>
        <time>2010-06-13T00:48:13Z</time>
      </trkpt>
      <trkpt lat="42.815524" lon="-0.337171">
        <ele>1616.056</ele>
        <time>2010-06-13T00:49:34Z</time>
      </trkpt>
      <trkpt lat="42.815954" lon="-0.337275">
        <ele>1618.084</ele>
        <time>2010-06-13T00:50:17Z</time>
      </trkpt>
      <trkpt lat="42.816640" lon="-0.337735">
        <ele>1628.086</ele>
        <time>2010-06-13T00:51:34Z</time>
      </trkpt>
      <trkpt lat="42.817261" lon="-0.337310">
        <ele>1639.081</ele>
        <time>2010-06-13T00:52:44Z</time>
      </trkpt>
      <trkpt lat="42.817499" lon="-0.336903">
        <ele>1649.061</ele>
        <time>2010-06-13T00:53:22Z</time>
      </trkpt>
      <trkpt lat="42.818691" lon="-0.335903">
        <ele>1684.017</ele>
        <time>2010-06-13T00:55:42Z</time>
      </trkpt>
      <trkpt lat="42.819246" lon="-0.335574">
        <ele>1687.006</ele>
        <time>2010-06-13T00:56:42Z</time>
      </trkpt>
      <trkpt lat="42.819950" lon="-0.333892">
        <ele>1681.097</ele>
        <time>2010-06-13T00:59:04Z</time>
      </trkpt>
      <trkpt lat="42.820367" lon="-0.333446">
        <ele>1678.024</ele>
        <time>2010-06-13T00:59:58Z</time>
      </trkpt>
      <trkpt lat="42.821762" lon="-0.330512">
        <ele>1677.041</ele>
        <time>2010-06-13T01:04:15Z</time>
      </trkpt>
      <trkpt lat="42.822089" lon="-0.330069">
        <ele>1692.089</ele>
        <time>2010-06-13T01:05:01Z</time>
      </trkpt>
      <trkpt lat="42.822213" lon="-0.328596">
        <ele>1690.047</ele>
        <time>2010-06-13T01:06:50Z</time>
      </trkpt>
      <trkpt lat="42.822402" lon="-0.328038">
        <ele>1699.049</ele>
        <time>2010-06-13T01:07:35Z</time>
      </trkpt>
      <trkpt lat="42.822642" lon="-0.327691">
        <ele>1711.026</ele>
        <time>2010-06-13T01:08:10Z</time>
      </trkpt>
      <trkpt lat="42.822671" lon="-0.327017">
        <ele>1716.047</ele>
        <time>2010-06-13T01:08:58Z</time>
      </trkpt>
      <trkpt lat="42.822813" lon="-0.326338">
        <ele>1722.011</ele>
        <time>2010-06-13T01:09:50Z</time>
      </trkpt>
      <trkpt lat="42.822407" lon="-0.325346">
        <ele>1750.006</ele>
        <time>2010-06-13T01:11:13Z</time>
      </trkpt>
      <trkpt lat="42.821894" lon="-0.324604">
        <ele>1766.051</ele>
        <time>2010-06-13T01:12:28Z</time>
      </trkpt>
      <trkpt lat="42.821577" lon="-0.324526">
        <ele>1778.028</ele>
        <time>2010-06-13T01:13:01Z</time>
      </trkpt>
      <trkpt lat="42.821369" lon="-0.324290">
        <ele>1788.025</ele>
        <time>2010-06-13T01:13:29Z</time>
      </trkpt>
      <trkpt lat="42.820908" lon="-0.322842">
        <ele>1807.053</ele>
        <time>2010-06-13T01:15:23Z</time>
      </trkpt>
      <trkpt lat="42.821433" lon="-0.321229">
        <ele>1832.071</ele>
        <time>2010-06-13T01:17:34Z</time>
      </trkpt>
      <trkpt lat="42.821392" lon="-0.320467">
        <ele>1838.043</ele>
        <time>2010-06-13T01:18:29Z</time>
      </trkpt>
      <trkpt lat="42.820581" lon="-0.319462">
        <ele>1837.044</ele>
        <time>2010-06-13T01:20:19Z</time>
      </trkpt>
      <trkpt lat="42.820172" lon="-0.319296">
        <ele>1839.005</ele>
        <time>2010-06-13T01:21:01Z</time>
      </trkpt>
      <trkpt lat="42.820159" lon="-0.317798">
        <ele>1867.015</ele>
        <time>2010-06-13T01:22:52Z</time>
      </trkpt>
      <trkpt lat="42.820364" lon="-0.316933">
        <ele>1883.006</ele>
        <time>2010-06-13T01:23:59Z</time>
      </trkpt>
      <trkpt lat="42.820215" lon="-0.315380">
        <ele>1915.043</ele>
        <time>2010-06-13T01:25:54Z</time>
      </trkpt>
      <trkpt lat="42.820037" lon="-0.314532">
        <ele>1907.070</ele>
        <time>2010-06-13T01:26:59Z</time>
      </trkpt>
      <trkpt lat="42.820102" lon="-0.312480">
        <ele>1932.027</ele>
        <time>2010-06-13T01:29:30Z</time>
      </trkpt>
      <trkpt lat="42.819931" lon="-0.310010">
        <ele>1978.085</ele>
        <time>2010-06-13T01:32:32Z</time>
      </trkpt>
      <trkpt lat="42.819704" lon="-0.308950">
        <ele>1976.053</ele>
        <time>2010-06-13T01:33:53Z</time>
      </trkpt>
      <trkpt lat="42.820136" lon="-0.307219">
        <ele>1999.055</ele>
        <time>2010-06-13T01:36:06Z</time>
      </trkpt>
      <trkpt lat="42.819984" lon="-0.305544">
        <ele>2013.078</ele>
        <time>2010-06-13T01:38:11Z</time>
      </trkpt>
      <trkpt lat="42.819331" lon="-0.303645">
        <ele>2040.033</ele>
        <time>2010-06-13T01:40:45Z</time>
      </trkpt>
      <trkpt lat="42.818618" lon="-0.303004">
        <ele>2033.026</ele>
        <time>2010-06-13T01:42:09Z</time>
      </trkpt>
      <trkpt lat="42.818156" lon="-0.300577">
        <ele>2052.006</ele>
        <time>2010-06-13T01:45:14Z</time>
      </trkpt>
      <trkpt lat="42.817209" lon="-0.298600">
        <ele>2076.026</ele>
        <time>2010-06-13T01:48:08Z</time>
      </trkpt>
      <trkpt lat="42.816804" lon="-0.298618">
        <ele>2072.043</ele>
        <time>2010-06-13T01:48:47Z</time>
      </trkpt>
      <trkpt lat="42.816652" lon="-0.298839">
        <ele>2066.070</ele>
        <time>2010-06-13T01:49:11Z</time>
      </trkpt>
      <trkpt lat="42.816393" lon="-0.298391">
        <ele>2077.058</ele>
        <time>2010-06-13T01:49:51Z</time>
      </trkpt>
      <trkpt lat="42.815877" lon="-0.298444">
        <ele>2086.086</ele>
        <time>2010-06-13T01:50:44Z</time>
      </trkpt>
      <trkpt lat="42.815553" lon="-0.298092">
        <ele>2094.098</ele>
        <time>2010-06-13T01:51:25Z</time>
      </trkpt>
      <trkpt lat="42.815318" lon="-0.298622">
        <ele>2102.053</ele>
        <time>2010-06-13T01:52:11Z</time>
      </trkpt>
      <trkpt lat="42.815238" lon="-0.299023">
        <ele>2101.004</ele>
        <time>2010-06-13T01:52:41Z</time>
      </trkpt>
      <trkpt lat="42.814816" lon="-0.298307">
        <ele>2121.014</ele>
        <time>2010-06-13T01:53:48Z</time>
      </trkpt>
      <trkpt lat="42.814523" lon="-0.298320">
        <ele>2135.006</ele>
        <time>2010-06-13T01:54:17Z</time>
      </trkpt>
      <trkpt lat="42.814162" lon="-0.297327">
        <ele>2104.064</ele>
        <time>2010-06-13T01:55:40Z</time>
      </trkpt>
      <trkpt lat="42.812982" lon="-0.296919">
        <ele>2129.041</ele>
        <time>2010-06-13T01:57:41Z</time>
      </trkpt>
      <trkpt lat="42.812353" lon="-0.296030">
        <ele>2124.068</ele>
        <time>2010-06-13T01:59:12Z</time>
      </trkpt>
      <trkpt lat="42.811898" lon="-0.295805">
        <ele>2128.096</ele>
        <time>2010-06-13T02:00:01Z</time>
      </trkpt>
      <trkpt lat="42.811545" lon="-0.295178">
        <ele>2129.094</ele>
        <time>2010-06-13T02:00:58Z</time>
      </trkpt>
      <trkpt lat="42.811105" lon="-0.294678">
        <ele>2149.076</ele>
        <time>2010-06-13T02:01:55Z</time>
      </trkpt>
      <trkpt lat="42.811133" lon="-0.293943">
        <ele>2136.061</ele>
        <time>2010-06-13T02:02:50Z</time>
      </trkpt>
      <trkpt lat="42.810220" lon="-0.293401">
        <ele>2161.021</ele>
        <time>2010-06-13T02:04:30Z</time>
      </trkpt>
      <trkpt lat="42.809866" lon="-0.292714">
        <ele>2162.013</ele>
        <time>2010-06-13T02:05:30Z</time>
      </trkpt>
      <trkpt lat="42.809598" lon="-0.291839">
        <ele>2160.006</ele>
        <time>2010-06-13T02:06:40Z</time>
      </trkpt>
      <trkpt lat="42.809667" lon="-0.290949">
        <ele>2144.035</ele>
        <time>2010-06-13T02:07:46Z</time>
      </trkpt>
      <trkpt lat="42.809875" lon="-0.290237">
        <ele>2129.092</ele>
        <time>2010-06-13T02:08:43Z</time>
      </trkpt>
      <trkpt lat="42.809840" lon="-0.289718">
        <ele>2139.049</ele>
        <time>2010-06-13T02:09:21Z</time>
      </trkpt>
      <trkpt lat="42.809621" lon="-0.289025">
        <ele>2136.037</ele>
        <time>2010-06-13T02:10:17Z</time>
      </trkpt>
      <trkpt lat="42.809555" lon="-0.288141">
        <ele>2156.035</ele>
        <time>2010-06-13T02:11:22Z</time>
      </trkpt>
      <trkpt lat="42.809586" lon="-0.285663">
        <ele>2143.047</ele>
        <time>2010-06-13T02:14:24Z</time>
      </trkpt>
      <trkpt lat="42.810062" lon="-0.284817">
        <ele>2136.058</ele>
        <time>2010-06-13T02:15:42Z</time>
      </trkpt>
      <trkpt lat="42.810211" lon="-0.283526">
        <ele>2133.052</ele>
        <time>2010-06-13T02:17:17Z</time>
      </trkpt>
      <trkpt lat="42.810509" lon="-0.282810">
        <ele>2127.017</ele>
        <time>2010-06-13T02:18:18Z</time>
      </trkpt>
      <trkpt lat="42.810515" lon="-0.282106">
        <ele>2125.006</ele>
        <time>2010-06-13T02:19:10Z</time>
      </trkpt>
      <trkpt lat="42.810319" lon="-0.281442">
        <ele>2129.014</ele>
        <time>2010-06-13T02:20:03Z</time>
      </trkpt>
      <trkpt lat="42.810487" lon="-0.279998">
        <ele>2130.091</ele>
        <time>2010-06-13T02:21:49Z</time>
      </trkpt>
      <trkpt lat="42.810367" lon="-0.279667">
        <ele>2134.058</ele>
        <time>2010-06-13T02:22:17Z</time>
      </trkpt>
      <trkpt lat="42.810025" lon="-0.279468">
        <ele>2142.086</ele>
        <time>2010-06-13T02:22:53Z</time>
      </trkpt>
      <trkpt lat="42.809391" lon="-0.278395">
        <ele>2162.064</ele>
        <time>2010-06-13T02:24:35Z</time>
      </trkpt>
      <trkpt lat="42.809371" lon="-0.277540">
        <ele>2167.026</ele>
        <time>2010-06-13T02:25:37Z</time>
      </trkpt>
      <trkpt lat="42.809206" lon="-0.277241">
        <ele>2171.032</ele>
        <time>2010-06-13T02:26:06Z</time>
      </trkpt>
      <trkpt lat="42.809195" lon="-0.276783">
        <ele>2172.092</ele>
        <time>2010-06-13T02:26:39Z</time>
      </trkpt>
      <trkpt lat="42.808379" lon="-0.276544">
        <ele>2184.011</ele>
        <time>2010-06-13T02:28:02Z</time>
      </trkpt>
      <trkpt lat="42.807919" lon="-0.276136">
        <ele>2190.006</ele>
        <time>2010-06-13T02:28:58Z</time>
      </trkpt>
      <trkpt lat="42.806581" lon="-0.275706">
        <ele>2227.082</ele>
        <time>2010-06-13T02:31:15Z</time>
      </trkpt>
      <trkpt lat="42.805879" lon="-0.274605">
        <ele>2226.079</ele>
        <time>2010-06-13T02:33:01Z</time>
      </trkpt>
      <trkpt lat="42.805643" lon="-0.274126">
        <ele>2230.096</ele>
        <time>2010-06-13T02:33:44Z</time>
      </trkpt>
      <trkpt lat="42.805544" lon="-0.273764">
        <ele>2232.074</ele>
        <time>2010-06-13T02:34:13Z</time>
      </trkpt>
      <trkpt lat="42.805107" lon="-0.273355">
        <ele>2241.062</ele>
        <time>2010-06-13T02:35:05Z</time>
      </trkpt>
      <trkpt lat="42.804770" lon="-0.273400">
        <ele>2244.074</ele>
        <time>2010-06-13T02:35:40Z</time>
      </trkpt>
      <trkpt lat="42.804039" lon="-0.272943">
        <ele>2258.089</ele>
        <time>2010-06-13T02:37:00Z</time>
      </trkpt>
      <trkpt lat="42.803665" lon="-0.273327">
        <ele>2269.006</ele>
        <time>2010-06-13T02:37:46Z</time>
      </trkpt>
      <trkpt lat="42.803128" lon="-0.273442">
        <ele>2291.026</ele>
        <time>2010-06-13T02:38:42Z</time>
      </trkpt>
      <trkpt lat="42.802697" lon="-0.272360">
        <ele>2320.006</ele>
        <time>2010-06-13T02:40:11Z</time>
      </trkpt>
      <trkpt lat="42.802491" lon="-0.272247">
        <ele>2332.017</ele>
        <time>2010-06-13T02:40:35Z</time>
      </trkpt>
      <trkpt lat="42.802228" lon="-0.271586">
        <ele>2360.084</ele>
        <time>2010-06-13T02:41:29Z</time>
      </trkpt>
      <trkpt lat="42.802002" lon="-0.271566">
        <ele>2374.091</ele>
        <time>2010-06-13T02:41:51Z</time>
      </trkpt>
      <trkpt lat="42.801455" lon="-0.271253">
        <ele>2406.049</ele>
        <time>2010-06-13T02:42:52Z</time>
      </trkpt>
      <trkpt lat="42.801290" lon="-0.270955">
        <ele>2416.027</ele>
        <time>2010-06-13T02:43:19Z</time>
      </trkpt>
      <trkpt lat="42.801167" lon="-0.270532">
        <ele>2427.089</ele>
        <time>2010-06-13T02:43:52Z</time>
      </trkpt>
      <trkpt lat="42.800847" lon="-0.270302">
        <ele>2437.021</ele>
        <time>2010-06-13T02:44:29Z</time>
      </trkpt>
      <trkpt lat="42.799837" lon="-0.270438">
        <ele>2455.041</ele>
        <time>2010-06-13T02:46:09Z</time>
      </trkpt>
      <trkpt lat="42.799426" lon="-0.271129">
        <ele>2446.005</ele>
        <time>2010-06-13T02:47:16Z</time>
      </trkpt>
      <trkpt lat="42.799395" lon="-0.271741">
        <ele>2438.006</ele>
        <time>2010-06-13T02:48:01Z</time>
      </trkpt>
      <trkpt lat="42.799090" lon="-0.272152">
        <ele>2433.051</ele>
        <time>2010-06-13T02:48:44Z</time>
      </trkpt>
      <trkpt lat="42.798528" lon="-0.272177">
        <ele>2434.018</ele>
        <time>2010-06-13T02:49:39Z</time>
      </trkpt>
      <trkpt lat="42.797788" lon="-0.273249">
        <ele>2442.065</ele>
        <time>2010-06-13T02:51:28Z</time>
      </trkpt>
      <trkpt lat="42.797667" lon="-0.273835">
        <ele>2450.083</ele>
        <time>2010-06-13T02:52:12Z</time>
      </trkpt>
      <trkpt lat="42.796928" lon="-0.274020">
        <ele>2474.081</ele>
        <time>2010-06-13T02:53:27Z</time>
      </trkpt>
      <trkpt lat="42.796728" lon="-0.273173">
        <ele>2489.043</ele>
        <time>2010-06-13T02:54:32Z</time>
      </trkpt>
      <trkpt lat="42.796900" lon="-0.272829">
        <ele>2472.046</ele>
        <time>2010-06-13T02:55:04Z</time>
      </trkpt>
      <trkpt lat="42.796759" lon="-0.271643">
        <ele>2496.088</ele>
        <time>2010-06-13T02:56:32Z</time>
      </trkpt>
      <trkpt lat="42.796245" lon="-0.270841">
        <ele>2538.016</ele>
        <time>2010-06-13T02:57:50Z</time>
      </trkpt>
      <trkpt lat="42.795999" lon="-0.269048">
        <ele>2547.006</ele>
        <time>2010-06-13T03:00:04Z</time>
      </trkpt>
      <trkpt lat="42.795378" lon="-0.268494">
        <ele>2594.033</ele>
        <time>2010-06-13T03:01:18Z</time>
      </trkpt>
      <trkpt lat="42.794627" lon="-0.268130">
        <ele>2634.040</ele>
        <time>2010-06-13T03:02:38Z</time>
      </trkpt>
      <trkpt lat="42.794270" lon="-0.266373">
        <ele>2641.037</ele>
        <time>2010-06-13T03:04:52Z</time>
      </trkpt>
      <trkpt lat="42.794145" lon="-0.265859">
        <ele>2640.035</ele>
        <time>2010-06-13T03:05:31Z</time>
      </trkpt>
      <trkpt lat="42.793887" lon="-0.265442">
        <ele>2660.023</ele>
        <time>2010-06-13T03:06:11Z</time>
      </trkpt>
      <trkpt lat="42.793763" lon="-0.264959">
        <ele>2667.075</ele>
        <time>2010-06-13T03:06:49Z</time>
      </trkpt>
      <trkpt lat="42.793778" lon="-0.264652">
        <ele>2671.043</ele>
        <time>2010-06-13T03:07:12Z</time>
      </trkpt>
      <trkpt lat="42.793430" lon="-0.264209">
        <ele>2717.064</ele>
        <time>2010-06-13T03:08:00Z</time>
      </trkpt>
      <trkpt lat="42.793070" lon="-0.264225">
        <ele>2739.010</ele>
        <time>2010-06-13T03:08:36Z</time>
      </trkpt>
      <trkpt lat="42.792832" lon="-0.264602">
        <ele>2743.006</ele>
        <time>2010-06-13T03:09:11Z</time>
      </trkpt>
      <trkpt lat="42.792650" lon="-0.265466">
        <ele>2727.083</ele>
        <time>2010-06-13T03:10:18Z</time>
      </trkpt>
      <trkpt lat="42.792637" lon="-0.265864">
        <ele>2738.090</ele>
        <time>2010-06-13T03:10:48Z</time>
      </trkpt>
      <trkpt lat="42.792094" lon="-0.266713">
        <ele>2741.017</ele>
        <time>2010-06-13T03:12:09Z</time>
      </trkpt>
      <trkpt lat="42.791179" lon="-0.265134">
        <ele>2758.075</ele>
        <time>2010-06-13T03:14:38Z</time>
      </trkpt>
      <trkpt lat="42.790624" lon="-0.264547">
        <ele>2758.073</ele>
        <time>2010-06-13T03:15:48Z</time>
      </trkpt>
      <trkpt lat="42.790174" lon="-0.264567">
        <ele>2742.085</ele>
        <time>2010-06-13T03:16:32Z</time>
      </trkpt>
      <trkpt lat="42.789339" lon="-0.264451">
        <ele>2710.094</ele>
        <time>2010-06-13T03:17:57Z</time>
      </trkpt>
      <trkpt lat="42.789123" lon="-0.263910">
        <ele>2709.057</ele>
        <time>2010-06-13T03:18:43Z</time>
      </trkpt>
      <trkpt lat="42.789131" lon="-0.263298">
        <ele>2703.022</ele>
        <time>2010-06-13T03:19:27Z</time>
      </trkpt>
      <trkpt lat="42.788810" lon="-0.262090">
        <ele>2683.006</ele>
        <time>2010-06-13T03:21:01Z</time>
      </trkpt>
      <trkpt lat="42.788666" lon="-0.261729">
        <ele>2676.088</ele>
        <time>2010-06-13T03:21:31Z</time>
      </trkpt>
      <trkpt lat="42.788720" lon="-0.261177">
        <ele>2665.035</ele>
        <time>2010-06-13T03:22:13Z</time>
      </trkpt>
      <trkpt lat="42.788885" lon="-0.260558">
        <ele>2645.042</ele>
        <time>2010-06-13T03:23:01Z</time>
      </trkpt>
      <trkpt lat="42.788881" lon="-0.260375">
        <ele>2637.070</ele>
        <time>2010-06-13T03:23:15Z</time>
      </trkpt>
      <trkpt lat="42.788671" lon="-0.260079">
        <ele>2639.018</ele>
        <time>2010-06-13T03:23:45Z</time>
      </trkpt>
      <trkpt lat="42.788591" lon="-0.259563">
        <ele>2619.080</ele>
        <time>2010-06-13T03:24:23Z</time>
      </trkpt>
      <trkpt lat="42.788787" lon="-0.259279">
        <ele>2604.058</ele>
        <time>2010-06-13T03:24:52Z</time>
      </trkpt>
      <trkpt lat="42.788943" lon="-0.259211">
        <ele>2604.052</ele>
        <time>2010-06-13T03:25:08Z</time>
      </trkpt>
      <trkpt lat="42.788954" lon="-0.258721">
        <ele>2590.017</ele>
        <time>2010-06-13T03:25:45Z</time>
      </trkpt>
      <trkpt lat="42.788862" lon="-0.258634">
        <ele>2590.006</ele>
        <time>2010-06-13T03:25:56Z</time>
      </trkpt>
      <trkpt lat="42.788776" lon="-0.257874">
        <ele>2574.094</ele>
        <time>2010-06-13T03:26:51Z</time>
      </trkpt>
      <trkpt lat="42.789049" lon="-0.257036">
        <ele>2561.071</ele>
        <time>2010-06-13T03:28:00Z</time>
      </trkpt>
      <trkpt lat="42.789168" lon="-0.256389">
        <ele>2553.078</ele>
        <time>2010-06-13T03:28:49Z</time>
      </trkpt>
      <trkpt lat="42.789180" lon="-0.255930">
        <ele>2546.036</ele>
        <time>2010-06-13T03:29:23Z</time>
      </trkpt>
      <trkpt lat="42.789061" lon="-0.255660">
        <ele>2544.084</ele>
        <time>2010-06-13T03:29:45Z</time>
      </trkpt>
      <trkpt lat="42.789161" lon="-0.254219">
        <ele>2539.096</ele>
        <time>2010-06-13T03:31:32Z</time>
      </trkpt>
      <trkpt lat="42.789507" lon="-0.253623">
        <ele>2528.094</ele>
        <time>2010-06-13T03:32:27Z</time>
      </trkpt>
      <trkpt lat="42.789571" lon="-0.252520">
        <ele>2513.057</ele>
        <time>2010-06-13T03:33:49Z</time>
      </trkpt>
      <trkpt lat="42.789629" lon="-0.252151">
        <ele>2500.022</ele>
        <time>2010-06-13T03:34:17Z</time>
      </trkpt>
      <trkpt lat="42.789457" lon="-0.251517">
        <ele>2481.006</ele>
        <time>2010-06-13T03:35:06Z</time>
      </trkpt>
      <trkpt lat="42.789634" lon="-0.251387">
        <ele>2477.048</ele>
        <time>2010-06-13T03:35:26Z</time>
      </trkpt>
      <trkpt lat="42.789991" lon="-0.251279">
        <ele>2472.035</ele>
        <time>2010-06-13T03:36:02Z</time>
      </trkpt>
      <trkpt lat="42.790297" lon="-0.250899">
        <ele>2455.092</ele>
        <time>2010-06-13T03:36:45Z</time>
      </trkpt>
      <trkpt lat="42.790618" lon="-0.249265">
        <ele>2427.070</ele>
        <time>2010-06-13T03:38:49Z</time>
      </trkpt>
      <trkpt lat="42.790836" lon="-0.248949">
        <ele>2421.048</ele>
        <time>2010-06-13T03:39:21Z</time>
      </trkpt>
      <trkpt lat="42.790986" lon="-0.247720">
        <ele>2412.060</ele>
        <time>2010-06-13T03:40:52Z</time>
      </trkpt>
      <trkpt lat="42.790741" lon="-0.246906">
        <ele>2402.058</ele>
        <time>2010-06-13T03:41:57Z</time>
      </trkpt>
      <trkpt lat="42.790813" lon="-0.245191">
        <ele>2400.052</ele>
        <time>2010-06-13T03:44:03Z</time>
      </trkpt>
      <trkpt lat="42.790664" lon="-0.243700">
        <ele>2402.017</ele>
        <time>2010-06-13T03:45:53Z</time>
      </trkpt>
      <trkpt lat="42.790517" lon="-0.243187">
        <ele>2400.006</ele>
        <time>2010-06-13T03:46:34Z</time>
      </trkpt>
      <trkpt lat="42.790320" lon="-0.243409">
        <ele>2401.044</ele>
        <time>2010-06-13T03:46:58Z</time>
      </trkpt>
      <trkpt lat="42.790284" lon="-0.243808">
        <ele>2401.031</ele>
        <time>2010-06-13T03:47:28Z</time>
      </trkpt>
      <trkpt lat="42.789679" lon="-0.243927">
        <ele>2401.048</ele>
        <time>2010-06-13T03:48:29Z</time>
      </trkpt>
      <trkpt lat="42.789199" lon="-0.243612">
        <ele>2395.056</ele>
        <time>2010-06-13T03:49:23Z</time>
      </trkpt>
      <trkpt lat="42.788985" lon="-0.243163">
        <ele>2387.044</ele>
        <time>2010-06-13T03:50:03Z</time>
      </trkpt>
      <trkpt lat="42.788834" lon="-0.242467">
        <ele>2383.066</ele>
        <time>2010-06-13T03:50:55Z</time>
      </trkpt>
      <trkpt lat="42.788817" lon="-0.241795">
        <ele>2376.035</ele>
        <time>2010-06-13T03:51:45Z</time>
      </trkpt>
      <trkpt lat="42.788699" lon="-0.241556">
        <ele>2367.086</ele>
        <time>2010-06-13T03:52:07Z</time>
      </trkpt>
      <trkpt lat="42.788450" lon="-0.241506">
        <ele>2359.014</ele>
        <time>2010-06-13T03:52:31Z</time>
      </trkpt>
      <trkpt lat="42.788458" lon="-0.240894">
        <ele>2355.006</ele>
        <time>2010-06-13T03:53:17Z</time>
      </trkpt>
      <trkpt lat="42.788286" lon="-0.240290">
        <ele>2351.022</ele>
        <time>2010-06-13T03:54:03Z</time>
      </trkpt>
      <trkpt lat="42.788467" lon="-0.240343">
        <ele>2351.039</ele>
        <time>2010-06-13T03:54:22Z</time>
      </trkpt>
      <trkpt lat="42.788547" lon="-0.239912">
        <ele>2349.016</ele>
        <time>2010-06-13T03:54:54Z</time>
      </trkpt>
      <trkpt lat="42.788364" lon="-0.239798">
        <ele>2344.044</ele>
        <time>2010-06-13T03:55:16Z</time>
      </trkpt>
      <trkpt lat="42.788673" lon="-0.239540">
        <ele>2338.042</ele>
        <time>2010-06-13T03:55:51Z</time>
      </trkpt>
      <trkpt lat="42.789203" lon="-0.238171">
        <ele>2308.024</ele>
        <time>2010-06-13T03:57:46Z</time>
      </trkpt>
      <trkpt lat="42.789185" lon="-0.237438">
        <ele>2298.075</ele>
        <time>2010-06-13T03:58:39Z</time>
      </trkpt>
      <trkpt lat="42.789393" lon="-0.236726">
        <ele>2290.028</ele>
        <time>2010-06-13T03:59:36Z</time>
      </trkpt>
      <trkpt lat="42.789666" lon="-0.234972">
        <ele>2262.020</ele>
        <time>2010-06-13T04:01:46Z</time>
      </trkpt>
      <trkpt lat="42.789973" lon="-0.234653">
        <ele>2257.006</ele>
        <time>2010-06-13T04:02:26Z</time>
      </trkpt>
      <trkpt lat="42.789611" lon="-0.234577">
        <ele>2251.036</ele>
        <time>2010-06-13T04:03:03Z</time>
      </trkpt>
      <trkpt lat="42.790076" lon="-0.234251">
        <ele>2244.023</ele>
        <time>2010-06-13T04:03:55Z</time>
      </trkpt>
      <trkpt lat="42.790197" lon="-0.233665">
        <ele>2239.070</ele>
        <time>2010-06-13T04:04:40Z</time>
      </trkpt>
      <trkpt lat="42.789753" lon="-0.232981">
        <ele>2229.018</ele>
        <time>2010-06-13T04:05:47Z</time>
      </trkpt>
      <trkpt lat="42.789206" lon="-0.232700">
        <ele>2231.056</ele>
        <time>2010-06-13T04:06:44Z</time>
      </trkpt>
      <trkpt lat="42.788857" lon="-0.232227">
        <ele>2228.068</ele>
        <time>2010-06-13T04:07:35Z</time>
      </trkpt>
      <trkpt lat="42.788513" lon="-0.231967">
        <ele>2228.098</ele>
        <time>2010-06-13T04:08:13Z</time>
      </trkpt>
      <trkpt lat="42.787862" lon="-0.231140">
        <ele>2235.015</ele>
        <time>2010-06-13T04:09:42Z</time>
      </trkpt>
      <trkpt lat="42.787548" lon="-0.230268">
        <ele>2242.026</ele>
        <time>2010-06-13T04:10:54Z</time>
      </trkpt>
      <trkpt lat="42.787442" lon="-0.229600">
        <ele>2241.006</ele>
        <time>2010-06-13T04:11:43Z</time>
      </trkpt>
      <trkpt lat="42.787475" lon="-0.229110">
        <ele>2236.038</ele>
        <time>2010-06-13T04:12:20Z</time>
      </trkpt>
      <trkpt lat="42.786857" lon="-0.227762">
        <ele>2232.025</ele>
        <time>2010-06-13T04:14:16Z</time>
      </trkpt>
      <trkpt lat="42.786373" lon="-0.227294">
        <ele>2244.042</ele>
        <time>2010-06-13T04:15:17Z</time>
      </trkpt>
      <trkpt lat="42.786203" lon="-0.226752">
        <ele>2237.040</ele>
        <time>2010-06-13T04:16:00Z</time>
      </trkpt>
      <trkpt lat="42.786147" lon="-0.226327">
        <ele>2226.058</ele>
        <time>2010-06-13T04:16:32Z</time>
      </trkpt>
      <trkpt lat="42.785633" lon="-0.225524">
        <ele>2215.010</ele>
        <time>2010-06-13T04:17:50Z</time>
      </trkpt>
      <trkpt lat="42.785263" lon="-0.225113">
        <ele>2209.057</ele>
        <time>2010-06-13T04:18:37Z</time>
      </trkpt>
      <trkpt lat="42.784712" lon="-0.224679">
        <ele>2221.000</ele>
        <time>2010-06-13T04:19:41Z</time>
      </trkpt>
      <trkpt lat="42.784059" lon="-0.224678">
        <ele>2227.020</ele>
        <time>2010-06-13T04:20:46Z</time>
      </trkpt>
      <trkpt lat="42.783348" lon="-0.224160">
        <ele>2214.006</ele>
        <time>2010-06-13T04:22:07Z</time>
      </trkpt>
      <trkpt lat="42.783171" lon="-0.224259">
        <ele>2209.074</ele>
        <time>2010-06-13T04:22:27Z</time>
      </trkpt>
      <trkpt lat="42.782457" lon="-0.226369">
        <ele>2202.081</ele>
        <time>2010-06-13T04:25:17Z</time>
      </trkpt>
      <trkpt lat="42.782446" lon="-0.226859">
        <ele>2208.078</ele>
        <time>2010-06-13T04:25:53Z</time>
      </trkpt>
      <trkpt lat="42.781877" lon="-0.228473">
        <ele>2198.076</ele>
        <time>2010-06-13T04:28:04Z</time>
      </trkpt>
      <trkpt lat="42.781525" lon="-0.228795">
        <ele>2182.064</ele>
        <time>2010-06-13T04:28:47Z</time>
      </trkpt>
      <trkpt lat="42.781231" lon="-0.228747">
        <ele>2175.046</ele>
        <time>2010-06-13T04:29:17Z</time>
      </trkpt>
      <trkpt lat="42.781037" lon="-0.229122">
        <ele>2179.037</ele>
        <time>2010-06-13T04:29:51Z</time>
      </trkpt>
      <trkpt lat="42.780960" lon="-0.229645">
        <ele>2178.049</ele>
        <time>2010-06-13T04:30:30Z</time>
      </trkpt>
      <trkpt lat="42.780873" lon="-0.229771">
        <ele>2178.013</ele>
        <time>2010-06-13T04:30:42Z</time>
      </trkpt>
      <trkpt lat="42.780906" lon="-0.229281">
        <ele>2174.006</ele>
        <time>2010-06-13T04:31:18Z</time>
      </trkpt>
      <trkpt lat="42.780732" lon="-0.229502">
        <ele>2175.092</ele>
        <time>2010-06-13T04:31:42Z</time>
      </trkpt>
      <trkpt lat="42.780238" lon="-0.230502">
        <ele>2166.059</ele>
        <time>2010-06-13T04:33:10Z</time>
      </trkpt>
      <trkpt lat="42.779799" lon="-0.230980">
        <ele>2142.076</ele>
        <time>2010-06-13T04:34:07Z</time>
      </trkpt>
      <trkpt lat="42.779598" lon="-0.231050">
        <ele>2142.054</ele>
        <time>2010-06-13T04:34:28Z</time>
      </trkpt>
      <trkpt lat="42.779170" lon="-0.231956">
        <ele>2117.042</ele>
        <time>2010-06-13T04:35:46Z</time>
      </trkpt>
      <trkpt lat="42.778739" lon="-0.232739">
        <ele>2104.024</ele>
        <time>2010-06-13T04:36:59Z</time>
      </trkpt>
      <trkpt lat="42.778423" lon="-0.232692">
        <ele>2090.081</ele>
        <time>2010-06-13T04:37:31Z</time>
      </trkpt>
      <trkpt lat="42.778599" lon="-0.232531">
        <ele>2094.061</ele>
        <time>2010-06-13T04:37:52Z</time>
      </trkpt>
      <trkpt lat="42.778328" lon="-0.232513">
        <ele>2079.017</ele>
        <time>2010-06-13T04:38:19Z</time>
      </trkpt>
      <trkpt lat="42.778503" lon="-0.232291">
        <ele>2085.006</ele>
        <time>2010-06-13T04:38:43Z</time>
      </trkpt>
      <trkpt lat="42.778542" lon="-0.232045">
        <ele>2076.047</ele>
        <time>2010-06-13T04:39:02Z</time>
      </trkpt>
      <trkpt lat="42.778385" lon="-0.232052">
        <ele>2057.034</ele>
        <time>2010-06-13T04:39:16Z</time>
      </trkpt>
      <trkpt lat="42.778424" lon="-0.231806">
        <ele>2057.061</ele>
        <time>2010-06-13T04:39:35Z</time>
      </trkpt>
      <trkpt lat="42.778269" lon="-0.231935">
        <ele>2057.049</ele>
        <time>2010-06-13T04:39:54Z</time>
      </trkpt>
      <trkpt lat="42.778347" lon="-0.231442">
        <ele>2038.067</ele>
        <time>2010-06-13T04:40:31Z</time>
      </trkpt>
      <trkpt lat="42.778104" lon="-0.231636">
        <ele>2029.099</ele>
        <time>2010-06-13T04:40:58Z</time>
      </trkpt>
      <trkpt lat="42.778203" lon="-0.231082">
        <ele>2032.089</ele>
        <time>2010-06-13T04:41:41Z</time>
      </trkpt>
      <trkpt lat="42.777780" lon="-0.231254">
        <ele>2004.006</ele>
        <time>2010-06-13T04:42:24Z</time>
      </trkpt>
      <trkpt lat="42.777882" lon="-0.230821">
        <ele>1991.026</ele>
        <time>2010-06-13T04:42:59Z</time>
      </trkpt>
      <trkpt lat="42.777743" lon="-0.230675">
        <ele>1989.006</ele>
        <time>2010-06-13T04:43:15Z</time>
      </trkpt>
      <trkpt lat="42.777562" lon="-0.230622">
        <ele>1975.067</ele>
        <time>2010-06-13T04:43:34Z</time>
      </trkpt>
      <trkpt lat="42.777136" lon="-0.230702">
        <ele>1968.014</ele>
        <time>2010-06-13T04:44:18Z</time>
      </trkpt>
      <trkpt lat="42.776735" lon="-0.230872">
        <ele>1959.091</ele>
        <time>2010-06-13T04:45:00Z</time>
      </trkpt>
      <trkpt lat="42.776554" lon="-0.230819">
        <ele>1959.019</ele>
        <time>2010-06-13T04:45:17Z</time>
      </trkpt>
      <trkpt lat="42.775792" lon="-0.230976">
        <ele>1974.097</ele>
        <time>2010-06-13T04:46:35Z</time>
      </trkpt>
      <trkpt lat="42.774008" lon="-0.230719">
        <ele>1949.069</ele>
        <time>2010-06-13T04:49:35Z</time>
      </trkpt>
      <trkpt lat="42.773598" lon="-0.230554">
        <ele>1949.049</ele>
        <time>2010-06-13T04:50:18Z</time>
      </trkpt>
      <trkpt lat="42.773239" lon="-0.230570">
        <ele>1949.002</ele>
        <time>2010-06-13T04:50:53Z</time>
      </trkpt>
      <trkpt lat="42.773086" lon="-0.230791">
        <ele>1945.022</ele>
        <time>2010-06-13T04:51:16Z</time>
      </trkpt>
      <trkpt lat="42.772895" lon="-0.231257">
        <ele>1949.006</ele>
        <time>2010-06-13T04:51:54Z</time>
      </trkpt>
      <trkpt lat="42.772529" lon="-0.231029">
        <ele>1939.023</ele>
        <time>2010-06-13T04:52:35Z</time>
      </trkpt>
      <trkpt lat="42.770796" lon="-0.231045">
        <ele>1905.020</ele>
        <time>2010-06-13T04:55:29Z</time>
      </trkpt>
      <trkpt lat="42.770640" lon="-0.231114">
        <ele>1901.067</ele>
        <time>2010-06-13T04:55:45Z</time>
      </trkpt>
      <trkpt lat="42.770478" lon="-0.230907">
        <ele>1895.025</ele>
        <time>2010-06-13T04:56:08Z</time>
      </trkpt>
      <trkpt lat="42.770449" lon="-0.230664">
        <ele>1892.073</ele>
        <time>2010-06-13T04:56:26Z</time>
      </trkpt>
      <trkpt lat="42.769800" lon="-0.229868">
        <ele>1881.025</ele>
        <time>2010-06-13T04:57:53Z</time>
      </trkpt>
      <trkpt lat="42.769574" lon="-0.229817">
        <ele>1883.074</ele>
        <time>2010-06-13T04:58:16Z</time>
      </trkpt>
      <trkpt lat="42.769308" lon="-0.230012">
        <ele>1879.056</ele>
        <time>2010-06-13T04:58:46Z</time>
      </trkpt>
      <trkpt lat="42.768951" lon="-0.230119">
        <ele>1873.021</ele>
        <time>2010-06-13T04:59:23Z</time>
      </trkpt>
      <trkpt lat="42.768516" lon="-0.229833">
        <ele>1876.006</ele>
        <time>2010-06-13T05:00:10Z</time>
      </trkpt>
      <trkpt lat="42.768174" lon="-0.229665">
        <ele>1869.016</ele>
        <time>2010-06-13T05:00:48Z</time>
      </trkpt>
      <trkpt lat="42.766593" lon="-0.229461">
        <ele>1860.063</ele>
        <time>2010-06-13T05:03:26Z</time>
      </trkpt>
      <trkpt lat="42.765821" lon="-0.229159">
        <ele>1866.010</ele>
        <time>2010-06-13T05:04:47Z</time>
      </trkpt>
      <trkpt lat="42.765416" lon="-0.229177">
        <ele>1855.038</ele>
        <time>2010-06-13T05:05:27Z</time>
      </trkpt>
      <trkpt lat="42.765005" lon="-0.228921">
        <ele>1848.056</ele>
        <time>2010-06-13T05:06:13Z</time>
      </trkpt>
      <trkpt lat="42.764793" lon="-0.228563">
        <ele>1840.028</ele>
        <time>2010-06-13T05:06:45Z</time>
      </trkpt>
      <trkpt lat="42.764872" lon="-0.228102">
        <ele>1858.014</ele>
        <time>2010-06-13T05:07:20Z</time>
      </trkpt>
      <trkpt lat="42.764599" lon="-0.227991">
        <ele>1850.054</ele>
        <time>2010-06-13T05:07:49Z</time>
      </trkpt>
      <trkpt lat="42.764387" lon="-0.227604">
        <ele>1852.009</ele>
        <time>2010-06-13T05:08:24Z</time>
      </trkpt>
      <trkpt lat="42.764302" lon="-0.227791">
        <ele>1833.006</ele>
        <time>2010-06-13T05:08:40Z</time>
      </trkpt>
      <trkpt lat="42.764409" lon="-0.228489">
        <ele>1826.050</ele>
        <time>2010-06-13T05:09:34Z</time>
      </trkpt>
      <trkpt lat="42.764268" lon="-0.229167">
        <ele>1798.087</ele>
        <time>2010-06-13T05:10:25Z</time>
      </trkpt>
      <trkpt lat="42.764552" lon="-0.229735">
        <ele>1801.054</ele>
        <time>2010-06-13T05:11:16Z</time>
      </trkpt>
      <trkpt lat="42.764608" lon="-0.230221">
        <ele>1801.012</ele>
        <time>2010-06-13T05:11:51Z</time>
      </trkpt>
      <trkpt lat="42.764293" lon="-0.230205">
        <ele>1769.040</ele>
        <time>2010-06-13T05:12:23Z</time>
      </trkpt>
      <trkpt lat="42.764137" lon="-0.230273">
        <ele>1769.062</ele>
        <time>2010-06-13T05:12:40Z</time>
      </trkpt>
      <trkpt lat="42.764198" lon="-0.230942">
        <ele>1753.096</ele>
        <time>2010-06-13T05:13:30Z</time>
      </trkpt>
      <trkpt lat="42.764112" lon="-0.231099">
        <ele>1746.031</ele>
        <time>2010-06-13T05:13:44Z</time>
      </trkpt>
      <trkpt lat="42.764435" lon="-0.231451">
        <ele>1752.024</ele>
        <time>2010-06-13T05:14:24Z</time>
      </trkpt>
      <trkpt lat="42.764301" lon="-0.231457">
        <ele>1740.006</ele>
        <time>2010-06-13T05:14:38Z</time>
      </trkpt>
      <trkpt lat="42.764461" lon="-0.231572">
        <ele>1747.078</ele>
        <time>2010-06-13T05:14:57Z</time>
      </trkpt>
      <trkpt lat="42.764618" lon="-0.231565">
        <ele>1759.045</ele>
        <time>2010-06-13T05:15:13Z</time>
      </trkpt>
      <trkpt lat="42.764714" lon="-0.231805">
        <ele>1759.072</ele>
        <time>2010-06-13T05:15:32Z</time>
      </trkpt>
      <trkpt lat="42.764524" lon="-0.232303">
        <ele>1739.050</ele>
        <time>2010-06-13T05:16:14Z</time>
      </trkpt>
      <trkpt lat="42.764226" lon="-0.232102">
        <ele>1726.058</ele>
        <time>2010-06-13T05:16:47Z</time>
      </trkpt>
      <trkpt lat="42.764231" lon="-0.232316">
        <ele>1726.030</ele>
        <time>2010-06-13T05:17:03Z</time>
      </trkpt>
      <trkpt lat="42.764143" lon="-0.232381">
        <ele>1722.035</ele>
        <time>2010-06-13T05:17:12Z</time>
      </trkpt>
      <trkpt lat="42.764058" lon="-0.232598">
        <ele>1722.086</ele>
        <time>2010-06-13T05:17:31Z</time>
      </trkpt>
      <trkpt lat="42.763662" lon="-0.232066">
        <ele>1698.014</ele>
        <time>2010-06-13T05:18:26Z</time>
      </trkpt>
      <trkpt lat="42.763507" lon="-0.232134">
        <ele>1693.006</ele>
        <time>2010-06-13T05:18:43Z</time>
      </trkpt>
      <trkpt lat="42.763282" lon="-0.232144">
        <ele>1675.042</ele>
        <time>2010-06-13T05:19:05Z</time>
      </trkpt>
      <trkpt lat="42.763333" lon="-0.232417">
        <ele>1670.059</ele>
        <time>2010-06-13T05:19:26Z</time>
      </trkpt>
      <trkpt lat="42.763107" lon="-0.232366">
        <ele>1656.096</ele>
        <time>2010-06-13T05:19:48Z</time>
      </trkpt>
      <trkpt lat="42.763043" lon="-0.232521">
        <ele>1656.094</ele>
        <time>2010-06-13T05:20:01Z</time>
      </trkpt>
      <trkpt lat="42.762634" lon="-0.232356">
        <ele>1646.042</ele>
        <time>2010-06-13T05:20:44Z</time>
      </trkpt>
      <trkpt lat="42.762802" lon="-0.232807">
        <ele>1645.054</ele>
        <time>2010-06-13T05:21:21Z</time>
      </trkpt>
      <trkpt lat="42.762536" lon="-0.232972">
        <ele>1641.049</ele>
        <time>2010-06-13T05:21:51Z</time>
      </trkpt>
      <trkpt lat="42.761463" lon="-0.234211">
        <ele>1642.002</ele>
        <time>2010-06-13T05:24:11Z</time>
      </trkpt>
      <trkpt lat="42.759905" lon="-0.233089">
        <ele>1651.022</ele>
        <time>2010-06-13T05:27:08Z</time>
      </trkpt>
      <trkpt lat="42.759642" lon="-0.233376">
        <ele>1651.006</ele>
        <time>2010-06-13T05:27:41Z</time>
      </trkpt>
      <trkpt lat="42.759485" lon="-0.233383">
        <ele>1655.063</ele>
        <time>2010-06-13T05:27:57Z</time>
      </trkpt>
      <trkpt lat="42.759805" lon="-0.232666">
        <ele>1660.040</ele>
        <time>2010-06-13T05:28:59Z</time>
      </trkpt>
      <trkpt lat="42.760047" lon="-0.232441">
        <ele>1663.077</ele>
        <time>2010-06-13T05:29:28Z</time>
      </trkpt>
      <trkpt lat="42.760521" lon="-0.232481">
        <ele>1659.045</ele>
        <time>2010-06-13T05:30:16Z</time>
      </trkpt>
      <trkpt lat="42.760493" lon="-0.232238">
        <ele>1667.013</ele>
        <time>2010-06-13T05:30:33Z</time>
      </trkpt>
      <trkpt lat="42.760530" lon="-0.231931">
        <ele>1677.015</ele>
        <time>2010-06-13T05:30:57Z</time>
      </trkpt>
      <trkpt lat="42.760081" lon="-0.231981">
        <ele>1681.022</ele>
        <time>2010-06-13T05:31:42Z</time>
      </trkpt>
      <trkpt lat="42.760053" lon="-0.231769">
        <ele>1692.062</ele>
        <time>2010-06-13T05:31:58Z</time>
      </trkpt>
      <trkpt lat="42.760610" lon="-0.231530">
        <ele>1687.008</ele>
        <time>2010-06-13T05:32:57Z</time>
      </trkpt>
      <trkpt lat="42.760697" lon="-0.231373">
        <ele>1694.006</ele>
        <time>2010-06-13T05:33:11Z</time>
      </trkpt>
      <trkpt lat="42.761101" lon="-0.231355">
        <ele>1689.021</ele>
        <time>2010-06-13T05:33:52Z</time>
      </trkpt>
      <trkpt lat="42.762324" lon="-0.229773">
        <ele>1722.048</ele>
        <time>2010-06-13T05:36:39Z</time>
      </trkpt>
      <trkpt lat="42.762187" lon="-0.229718">
        <ele>1722.095</ele>
        <time>2010-06-13T05:36:54Z</time>
      </trkpt>
      <trkpt lat="42.762206" lon="-0.229565">
        <ele>1730.093</ele>
        <time>2010-06-13T05:37:06Z</time>
      </trkpt>
      <trkpt lat="42.761732" lon="-0.229494">
        <ele>1739.021</ele>
        <time>2010-06-13T05:37:54Z</time>
      </trkpt>
      <trkpt lat="42.761155" lon="-0.229825">
        <ele>1742.043</ele>
        <time>2010-06-13T05:38:55Z</time>
      </trkpt>
      <trkpt lat="42.761170" lon="-0.229550">
        <ele>1751.036</ele>
        <time>2010-06-13T05:39:17Z</time>
      </trkpt>
      <trkpt lat="42.761821" lon="-0.228513">
        <ele>1758.017</ele>
        <time>2010-06-13T05:40:56Z</time>
      </trkpt>
      <trkpt lat="42.761663" lon="-0.228520">
        <ele>1764.018</ele>
        <time>2010-06-13T05:41:13Z</time>
      </trkpt>
      <trkpt lat="42.761485" lon="-0.228589">
        <ele>1771.006</ele>
        <time>2010-06-13T05:41:31Z</time>
      </trkpt>
      <trkpt lat="42.761937" lon="-0.227744">
        <ele>1790.022</ele>
        <time>2010-06-13T05:42:47Z</time>
      </trkpt>
      <trkpt lat="42.762134" lon="-0.227521">
        <ele>1797.059</ele>
        <time>2010-06-13T05:43:14Z</time>
      </trkpt>
      <trkpt lat="42.761106" lon="-0.227842">
        <ele>1813.066</ele>
        <time>2010-06-13T05:44:58Z</time>
      </trkpt>
      <trkpt lat="42.760948" lon="-0.227818">
        <ele>1823.084</ele>
        <time>2010-06-13T05:45:15Z</time>
      </trkpt>
      <trkpt lat="42.761184" lon="-0.227319">
        <ele>1839.052</ele>
        <time>2010-06-13T05:45:58Z</time>
      </trkpt>
      <trkpt lat="42.761761" lon="-0.226988">
        <ele>1833.074</ele>
        <time>2010-06-13T05:47:00Z</time>
      </trkpt>
      <trkpt lat="42.761844" lon="-0.226679">
        <ele>1835.014</ele>
        <time>2010-06-13T05:47:26Z</time>
      </trkpt>
      <trkpt lat="42.761349" lon="-0.226701">
        <ele>1856.054</ele>
        <time>2010-06-13T05:48:15Z</time>
      </trkpt>
      <trkpt lat="42.761917" lon="-0.226003">
        <ele>1859.009</ele>
        <time>2010-06-13T05:49:32Z</time>
      </trkpt>
      <trkpt lat="42.761517" lon="-0.226204">
        <ele>1881.006</ele>
        <time>2010-06-13T05:50:13Z</time>
      </trkpt>
      <trkpt lat="42.761403" lon="-0.226148">
        <ele>1881.070</ele>
        <time>2010-06-13T05:50:27Z</time>
      </trkpt>
      <trkpt lat="42.761820" lon="-0.225702">
        <ele>1872.067</ele>
        <time>2010-06-13T05:51:20Z</time>
      </trkpt>
      <trkpt lat="42.761395" lon="-0.225813">
        <ele>1895.044</ele>
        <time>2010-06-13T05:52:03Z</time>
      </trkpt>
      <trkpt lat="42.761636" lon="-0.225527">
        <ele>1898.092</ele>
        <time>2010-06-13T05:52:35Z</time>
      </trkpt>
      <trkpt lat="42.761412" lon="-0.225567">
        <ele>1910.010</ele>
        <time>2010-06-13T05:52:57Z</time>
      </trkpt>
      <trkpt lat="42.761543" lon="-0.225409">
        <ele>1914.012</ele>
        <time>2010-06-13T05:53:14Z</time>
      </trkpt>
      <trkpt lat="42.761339" lon="-0.225357">
        <ele>1925.068</ele>
        <time>2010-06-13T05:53:35Z</time>
      </trkpt>
      <trkpt lat="42.761472" lon="-0.225290">
        <ele>1925.042</ele>
        <time>2010-06-13T05:53:49Z</time>
      </trkpt>
      <trkpt lat="42.761313" lon="-0.225236">
        <ele>1925.026</ele>
        <time>2010-06-13T05:54:05Z</time>
      </trkpt>
      <trkpt lat="42.761444" lon="-0.225047">
        <ele>1940.006</ele>
        <time>2010-06-13T05:54:24Z</time>
      </trkpt>
      <trkpt lat="42.761132" lon="-0.225183">
        <ele>1935.065</ele>
        <time>2010-06-13T05:54:58Z</time>
      </trkpt>
      <trkpt lat="42.760861" lon="-0.225134">
        <ele>1957.092</ele>
        <time>2010-06-13T05:55:25Z</time>
      </trkpt>
      <trkpt lat="42.760856" lon="-0.224951">
        <ele>1957.019</ele>
        <time>2010-06-13T05:55:38Z</time>
      </trkpt>
      <trkpt lat="42.760721" lon="-0.224957">
        <ele>1957.067</ele>
        <time>2010-06-13T05:55:53Z</time>
      </trkpt>
      <trkpt lat="42.761243" lon="-0.224170">
        <ele>1980.025</ele>
        <time>2010-06-13T05:57:10Z</time>
      </trkpt>
      <trkpt lat="42.761307" lon="-0.224045">
        <ele>1975.027</ele>
        <time>2010-06-13T05:57:21Z</time>
      </trkpt>
      <trkpt lat="42.761660" lon="-0.223754">
        <ele>1981.012</ele>
        <time>2010-06-13T05:58:03Z</time>
      </trkpt>
      <trkpt lat="42.761139" lon="-0.223594">
        <ele>1998.032</ele>
        <time>2010-06-13T05:58:55Z</time>
      </trkpt>
      <trkpt lat="42.760107" lon="-0.223762">
        <ele>2018.005</ele>
        <time>2010-06-13T06:00:40Z</time>
      </trkpt>
      <trkpt lat="42.759610" lon="-0.224609">
        <ele>2007.006</ele>
        <time>2010-06-13T06:02:00Z</time>
      </trkpt>
      <trkpt lat="42.759209" lon="-0.224780">
        <ele>2022.080</ele>
        <time>2010-06-13T06:02:41Z</time>
      </trkpt>
      <trkpt lat="42.758938" lon="-0.224761">
        <ele>2022.047</ele>
        <time>2010-06-13T06:03:08Z</time>
      </trkpt>
      <trkpt lat="42.758641" lon="-0.224561">
        <ele>2027.034</ele>
        <time>2010-06-13T06:03:42Z</time>
      </trkpt>
      <trkpt lat="42.758428" lon="-0.224143">
        <ele>2030.072</ele>
        <time>2010-06-13T06:04:20Z</time>
      </trkpt>
      <trkpt lat="42.757715" lon="-0.223502">
        <ele>2043.030</ele>
        <time>2010-06-13T06:05:44Z</time>
      </trkpt>
      <trkpt lat="42.757796" lon="-0.223163">
        <ele>2069.012</ele>
        <time>2010-06-13T06:06:11Z</time>
      </trkpt>
      <trkpt lat="42.757674" lon="-0.222771">
        <ele>2081.042</ele>
        <time>2010-06-13T06:06:43Z</time>
      </trkpt>
      <trkpt lat="42.756828" lon="-0.222198">
        <ele>2104.022</ele>
        <time>2010-06-13T06:08:17Z</time>
      </trkpt>
      <trkpt lat="42.756770" lon="-0.221681">
        <ele>2128.014</ele>
        <time>2010-06-13T06:08:55Z</time>
      </trkpt>
      <trkpt lat="42.756304" lon="-0.221030">
        <ele>2151.006</ele>
        <time>2010-06-13T06:10:02Z</time>
      </trkpt>
      <trkpt lat="42.756153" lon="-0.220395">
        <ele>2175.013</ele>
        <time>2010-06-13T06:10:51Z</time>
      </trkpt>
      <trkpt lat="42.755663" lon="-0.219684">
        <ele>2178.030</ele>
        <time>2010-06-13T06:12:03Z</time>
      </trkpt>
      <trkpt lat="42.755092" lon="-0.219312">
        <ele>2168.097</ele>
        <time>2010-06-13T06:13:07Z</time>
      </trkpt>
      <trkpt lat="42.754875" lon="-0.218742">
        <ele>2189.095</ele>
        <time>2010-06-13T06:13:53Z</time>
      </trkpt>
      <trkpt lat="42.754059" lon="-0.217587">
        <ele>2188.033</ele>
        <time>2010-06-13T06:15:51Z</time>
      </trkpt>
      <trkpt lat="42.753509" lon="-0.216237">
        <ele>2228.095</ele>
        <time>2010-06-13T06:17:45Z</time>
      </trkpt>
      <trkpt lat="42.753325" lon="-0.216092">
        <ele>2231.055</ele>
        <time>2010-06-13T06:18:06Z</time>
      </trkpt>
      <trkpt lat="42.753100" lon="-0.216103">
        <ele>2236.007</ele>
        <time>2010-06-13T06:18:28Z</time>
      </trkpt>
      <trkpt lat="42.752980" lon="-0.215802">
        <ele>2248.017</ele>
        <time>2010-06-13T06:18:54Z</time>
      </trkpt>
      <trkpt lat="42.752995" lon="-0.215466">
        <ele>2260.006</ele>
        <time>2010-06-13T06:19:18Z</time>
      </trkpt>
      <trkpt lat="42.752426" lon="-0.215216">
        <ele>2271.074</ele>
        <time>2010-06-13T06:20:18Z</time>
      </trkpt>
      <trkpt lat="42.752173" lon="-0.215014">
        <ele>2276.061</ele>
        <time>2010-06-13T06:20:47Z</time>
      </trkpt>
      <trkpt lat="42.751638" lon="-0.213388">
        <ele>2292.078</ele>
        <time>2010-06-13T06:22:59Z</time>
      </trkpt>
      <trkpt lat="42.751631" lon="-0.213083">
        <ele>2301.076</ele>
        <time>2010-06-13T06:23:20Z</time>
      </trkpt>
      <trkpt lat="42.752020" lon="-0.213341">
        <ele>2306.024</ele>
        <time>2010-06-13T06:24:04Z</time>
      </trkpt>
      <trkpt lat="42.751874" lon="-0.212889">
        <ele>2327.016</ele>
        <time>2010-06-13T06:24:41Z</time>
      </trkpt>
      <trkpt lat="42.751860" lon="-0.212340">
        <ele>2350.014</ele>
        <time>2010-06-13T06:25:21Z</time>
      </trkpt>
      <trkpt lat="42.752337" lon="-0.212502">
        <ele>2352.054</ele>
        <time>2010-06-13T06:26:10Z</time>
      </trkpt>
      <trkpt lat="42.752930" lon="-0.211895">
        <ele>2382.009</ele>
        <time>2010-06-13T06:27:25Z</time>
      </trkpt>
      <trkpt lat="42.753336" lon="-0.211938">
        <ele>2386.006</ele>
        <time>2010-06-13T06:28:05Z</time>
      </trkpt>
      <trkpt lat="42.753581" lon="-0.211804">
        <ele>2389.090</ele>
        <time>2010-06-13T06:28:32Z</time>
      </trkpt>
      <trkpt lat="42.753747" lon="-0.211217">
        <ele>2385.097</ele>
        <time>2010-06-13T06:29:18Z</time>
      </trkpt>
      <trkpt lat="42.753755" lon="-0.210636">
        <ele>2392.054</ele>
        <time>2010-06-13T06:30:01Z</time>
      </trkpt>
      <trkpt lat="42.753866" lon="-0.210570">
        <ele>2392.062</ele>
        <time>2010-06-13T06:30:13Z</time>
      </trkpt>
      <trkpt lat="42.754030" lon="-0.210837">
        <ele>2402.040</ele>
        <time>2010-06-13T06:30:39Z</time>
      </trkpt>
      <trkpt lat="42.754040" lon="-0.211265">
        <ele>2402.082</ele>
        <time>2010-06-13T06:31:09Z</time>
      </trkpt>
      <trkpt lat="42.754221" lon="-0.211287">
        <ele>2402.071</ele>
        <time>2010-06-13T06:31:27Z</time>
      </trkpt>
      <trkpt lat="42.754154" lon="-0.210374">
        <ele>2409.041</ele>
        <time>2010-06-13T06:32:35Z</time>
      </trkpt>
      <trkpt lat="42.754288" lon="-0.210337">
        <ele>2409.015</ele>
        <time>2010-06-13T06:32:49Z</time>
      </trkpt>
      <trkpt lat="42.754480" lon="-0.210817">
        <ele>2416.006</ele>
        <time>2010-06-13T06:33:28Z</time>
      </trkpt>
      <trkpt lat="42.754935" lon="-0.211041">
        <ele>2439.046</ele>
        <time>2010-06-13T06:34:17Z</time>
      </trkpt>
      <trkpt lat="42.755340" lon="-0.210107">
        <ele>2470.053</ele>
        <time>2010-06-13T06:35:38Z</time>
      </trkpt>
      <trkpt lat="42.755407" lon="-0.208210">
        <ele>2486.030</ele>
        <time>2010-06-13T06:37:57Z</time>
      </trkpt>
      <trkpt lat="42.755476" lon="-0.206435">
        <ele>2508.068</ele>
        <time>2010-06-13T06:40:07Z</time>
      </trkpt>
      <trkpt lat="42.755885" lon="-0.205683">
        <ele>2532.016</ele>
        <time>2010-06-13T06:41:16Z</time>
      </trkpt>
      <trkpt lat="42.756414" lon="-0.205201">
        <ele>2521.038</ele>
        <time>2010-06-13T06:42:20Z</time>
      </trkpt>
      <trkpt lat="42.756885" lon="-0.204202">
        <ele>2535.024</ele>
        <time>2010-06-13T06:43:47Z</time>
      </trkpt>
      <trkpt lat="42.757106" lon="-0.204070">
        <ele>2526.004</ele>
        <time>2010-06-13T06:44:11Z</time>
      </trkpt>
      <trkpt lat="42.757673" lon="-0.203312">
        <ele>2534.014</ele>
        <time>2010-06-13T06:45:31Z</time>
      </trkpt>
      <trkpt lat="42.757889" lon="-0.202935">
        <ele>2540.006</ele>
        <time>2010-06-13T06:46:06Z</time>
      </trkpt>
      <trkpt lat="42.757939" lon="-0.202230">
        <ele>2548.011</ele>
        <time>2010-06-13T06:46:58Z</time>
      </trkpt>
      <trkpt lat="42.757968" lon="-0.201557">
        <ele>2552.018</ele>
        <time>2010-06-13T06:47:47Z</time>
      </trkpt>
      <trkpt lat="42.757628" lon="-0.200564">
        <ele>2556.085</ele>
        <time>2010-06-13T06:49:07Z</time>
      </trkpt>
      <trkpt lat="42.757804" lon="-0.200373">
        <ele>2549.033</ele>
        <time>2010-06-13T06:49:31Z</time>
      </trkpt>
      <trkpt lat="42.757866" lon="-0.200156">
        <ele>2549.071</ele>
        <time>2010-06-13T06:49:48Z</time>
      </trkpt>
      <trkpt lat="42.758449" lon="-0.200069">
        <ele>2534.083</ele>
        <time>2010-06-13T06:50:46Z</time>
      </trkpt>
      <trkpt lat="42.758465" lon="-0.199793">
        <ele>2531.027</ele>
        <time>2010-06-13T06:51:06Z</time>
      </trkpt>
      <trkpt lat="42.758662" lon="-0.199571">
        <ele>2519.068</ele>
        <time>2010-06-13T06:51:33Z</time>
      </trkpt>
      <trkpt lat="42.759379" lon="-0.199416">
        <ele>2493.014</ele>
        <time>2010-06-13T06:52:45Z</time>
      </trkpt>
      <trkpt lat="42.759526" lon="-0.198982">
        <ele>2486.006</ele>
        <time>2010-06-13T06:53:20Z</time>
      </trkpt>
      <trkpt lat="42.759583" lon="-0.198552">
        <ele>2483.051</ele>
        <time>2010-06-13T06:53:52Z</time>
      </trkpt>
      <trkpt lat="42.761056" lon="-0.198057">
        <ele>2439.048</ele>
        <time>2010-06-13T06:56:23Z</time>
      </trkpt>
      <trkpt lat="42.761664" lon="-0.197114">
        <ele>2431.095</ele>
        <time>2010-06-13T06:57:56Z</time>
      </trkpt>
      <trkpt lat="42.761654" lon="-0.194884">
        <ele>2439.043</ele>
        <time>2010-06-13T07:00:40Z</time>
      </trkpt>
      <trkpt lat="42.762160" lon="-0.194403">
        <ele>2420.051</ele>
        <time>2010-06-13T07:01:42Z</time>
      </trkpt>
      <trkpt lat="42.762901" lon="-0.194308">
        <ele>2406.093</ele>
        <time>2010-06-13T07:02:57Z</time>
      </trkpt>
      <trkpt lat="42.763077" lon="-0.194178">
        <ele>2398.069</ele>
        <time>2010-06-13T07:03:17Z</time>
      </trkpt>
      <trkpt lat="42.762970" lon="-0.193480">
        <ele>2389.004</ele>
        <time>2010-06-13T07:04:08Z</time>
      </trkpt>
      <trkpt lat="42.763068" lon="-0.191979">
        <ele>2388.024</ele>
        <time>2010-06-13T07:06:00Z</time>
      </trkpt>
      <trkpt lat="42.763473" lon="-0.191960">
        <ele>2378.006</ele>
        <time>2010-06-13T07:06:39Z</time>
      </trkpt>
      <trkpt lat="42.763827" lon="-0.191700">
        <ele>2378.085</ele>
        <time>2010-06-13T07:07:19Z</time>
      </trkpt>
      <trkpt lat="42.765615" lon="-0.188442">
        <ele>2311.072</ele>
        <time>2010-06-13T07:12:18Z</time>
      </trkpt>
      <trkpt lat="42.765624" lon="-0.187891">
        <ele>2299.059</ele>
        <time>2010-06-13T07:13:00Z</time>
      </trkpt>
      <trkpt lat="42.765434" lon="-0.187472">
        <ele>2292.067</ele>
        <time>2010-06-13T07:13:35Z</time>
      </trkpt>
      <trkpt lat="42.765020" lon="-0.187094">
        <ele>2289.085</ele>
        <time>2010-06-13T07:14:26Z</time>
      </trkpt>
      <trkpt lat="42.764700" lon="-0.186925">
        <ele>2284.067</ele>
        <time>2010-06-13T07:14:59Z</time>
      </trkpt>
      <trkpt lat="42.764282" lon="-0.187310">
        <ele>2291.071</ele>
        <time>2010-06-13T07:15:50Z</time>
      </trkpt>
      <trkpt lat="42.763896" lon="-0.187175">
        <ele>2290.041</ele>
        <time>2010-06-13T07:16:30Z</time>
      </trkpt>
      <trkpt lat="42.762972" lon="-0.187125">
        <ele>2282.015</ele>
        <time>2010-06-13T07:18:02Z</time>
      </trkpt>
      <trkpt lat="42.762632" lon="-0.187049">
        <ele>2275.006</ele>
        <time>2010-06-13T07:18:37Z</time>
      </trkpt>
      <trkpt lat="42.762583" lon="-0.186868">
        <ele>2275.046</ele>
        <time>2010-06-13T07:18:52Z</time>
      </trkpt>
      <trkpt lat="42.762620" lon="-0.186561">
        <ele>2273.023</ele>
        <time>2010-06-13T07:19:15Z</time>
      </trkpt>
      <trkpt lat="42.763184" lon="-0.185680">
        <ele>2267.070</ele>
        <time>2010-06-13T07:20:41Z</time>
      </trkpt>
      <trkpt lat="42.763181" lon="-0.185558">
        <ele>2267.038</ele>
        <time>2010-06-13T07:20:50Z</time>
      </trkpt>
      <trkpt lat="42.763514" lon="-0.185359">
        <ele>2257.096</ele>
        <time>2010-06-13T07:21:26Z</time>
      </trkpt>
      <trkpt lat="42.763548" lon="-0.184930">
        <ele>2255.028</ele>
        <time>2010-06-13T07:21:58Z</time>
      </trkpt>
      <trkpt lat="42.765091" lon="-0.183577">
        <ele>2217.091</ele>
        <time>2010-06-13T07:25:01Z</time>
      </trkpt>
      <trkpt lat="42.765194" lon="-0.183206">
        <ele>2210.081</ele>
        <time>2010-06-13T07:25:30Z</time>
      </trkpt>
      <trkpt lat="42.765165" lon="-0.182046">
        <ele>2210.019</ele>
        <time>2010-06-13T07:26:56Z</time>
      </trkpt>
      <trkpt lat="42.765876" lon="-0.181647">
        <ele>2197.006</ele>
        <time>2010-06-13T07:28:12Z</time>
      </trkpt>
      <trkpt lat="42.766313" lon="-0.181108">
        <ele>2187.048</ele>
        <time>2010-06-13T07:29:11Z</time>
      </trkpt>
      <trkpt lat="42.766781" lon="-0.180017">
        <ele>2175.075</ele>
        <time>2010-06-13T07:30:43Z</time>
      </trkpt>
      <trkpt lat="42.766805" lon="-0.179161">
        <ele>2163.012</ele>
        <time>2010-06-13T07:31:47Z</time>
      </trkpt>
      <trkpt lat="42.766682" lon="-0.178739">
        <ele>2155.070</ele>
        <time>2010-06-13T07:32:20Z</time>
      </trkpt>
      <trkpt lat="42.766676" lon="-0.177578">
        <ele>2138.058</ele>
        <time>2010-06-13T07:33:45Z</time>
      </trkpt>
      <trkpt lat="42.766835" lon="-0.176715">
        <ele>2132.080</ele>
        <time>2010-06-13T07:34:50Z</time>
      </trkpt>
      <trkpt lat="42.766777" lon="-0.175282">
        <ele>2107.075</ele>
        <time>2010-06-13T07:36:37Z</time>
      </trkpt>
      <trkpt lat="42.766455" lon="-0.174074">
        <ele>2087.028</ele>
        <time>2010-06-13T07:38:11Z</time>
      </trkpt>
      <trkpt lat="42.766890" lon="-0.173474">
        <ele>2080.020</ele>
        <time>2010-06-13T07:39:13Z</time>
      </trkpt>
      <trkpt lat="42.766740" lon="-0.171953">
        <ele>2036.006</ele>
        <time>2010-06-13T07:41:06Z</time>
      </trkpt>
      <trkpt lat="42.766519" lon="-0.171230">
        <ele>2022.036</ele>
        <time>2010-06-13T07:42:03Z</time>
      </trkpt>
      <trkpt lat="42.766409" lon="-0.170410">
        <ele>2023.013</ele>
        <time>2010-06-13T07:43:05Z</time>
      </trkpt>
      <trkpt lat="42.765263" lon="-0.169576">
        <ele>1997.020</ele>
        <time>2010-06-13T07:45:14Z</time>
      </trkpt>
      <trkpt lat="42.764647" lon="-0.169238">
        <ele>1994.078</ele>
        <time>2010-06-13T07:46:21Z</time>
      </trkpt>
      <trkpt lat="42.763547" lon="-0.169379">
        <ele>1969.046</ele>
        <time>2010-06-13T07:48:11Z</time>
      </trkpt>
      <trkpt lat="42.762815" lon="-0.169810">
        <ele>1955.098</ele>
        <time>2010-06-13T07:49:32Z</time>
      </trkpt>
      <trkpt lat="42.761240" lon="-0.168935">
        <ele>1960.098</ele>
        <time>2010-06-13T07:52:22Z</time>
      </trkpt>
      <trkpt lat="42.759929" lon="-0.168719">
        <ele>1933.015</ele>
        <time>2010-06-13T07:54:33Z</time>
      </trkpt>
      <trkpt lat="42.758957" lon="-0.167664">
        <ele>1924.026</ele>
        <time>2010-06-13T07:56:37Z</time>
      </trkpt>
      <trkpt lat="42.758097" lon="-0.167459">
        <ele>1907.006</ele>
        <time>2010-06-13T07:58:06Z</time>
      </trkpt>
      <trkpt lat="42.755869" lon="-0.166583">
        <ele>1885.018</ele>
        <time>2010-06-13T08:01:57Z</time>
      </trkpt>
      <trkpt lat="42.755457" lon="-0.166296">
        <ele>1880.075</ele>
        <time>2010-06-13T08:02:43Z</time>
      </trkpt>
      <trkpt lat="42.755109" lon="-0.165884">
        <ele>1869.032</ele>
        <time>2010-06-13T08:03:29Z</time>
      </trkpt>
      <trkpt lat="42.754318" lon="-0.165768">
        <ele>1854.090</ele>
        <time>2010-06-13T08:04:50Z</time>
      </trkpt>
      <trkpt lat="42.753198" lon="-0.165055">
        <ele>1846.048</ele>
        <time>2010-06-13T08:06:53Z</time>
      </trkpt>
      <trkpt lat="42.752337" lon="-0.163934">
        <ele>1824.060</ele>
        <time>2010-06-13T08:08:53Z</time>
      </trkpt>
      <trkpt lat="42.751983" lon="-0.163278">
        <ele>1818.063</ele>
        <time>2010-06-13T08:09:53Z</time>
      </trkpt>
      <trkpt lat="42.751512" lon="-0.161528">
        <ele>1807.044</ele>
        <time>2010-06-13T08:12:10Z</time>
      </trkpt>
      <trkpt lat="42.750955" lon="-0.160881">
        <ele>1794.018</ele>
        <time>2010-06-13T08:13:23Z</time>
      </trkpt>
      <trkpt lat="42.750268" lon="-0.158560">
        <ele>1786.006</ele>
        <time>2010-06-13T08:16:26Z</time>
      </trkpt>
      <trkpt lat="42.750411" lon="-0.158004">
        <ele>1787.095</ele>
        <time>2010-06-13T08:17:09Z</time>
      </trkpt>
      <trkpt lat="42.750329" lon="-0.157427">
        <ele>1787.082</ele>
        <time>2010-06-13T08:17:52Z</time>
      </trkpt>
      <trkpt lat="42.750183" lon="-0.156976">
        <ele>1789.029</ele>
        <time>2010-06-13T08:18:29Z</time>
      </trkpt>
      <trkpt lat="42.749885" lon="-0.156745">
        <ele>1782.087</ele>
        <time>2010-06-13T08:19:04Z</time>
      </trkpt>
      <trkpt lat="42.749043" lon="-0.156387">
        <ele>1770.025</ele>
        <time>2010-06-13T08:20:31Z</time>
      </trkpt>
      <trkpt lat="42.748808" lon="-0.156000">
        <ele>1771.027</ele>
        <time>2010-06-13T08:21:08Z</time>
      </trkpt>
      <trkpt lat="42.748773" lon="-0.155483">
        <ele>1773.022</ele>
        <time>2010-06-13T08:21:46Z</time>
      </trkpt>
      <trkpt lat="42.748911" lon="-0.154682">
        <ele>1777.062</ele>
        <time>2010-06-13T08:22:47Z</time>
      </trkpt>
      <trkpt lat="42.748489" lon="-0.154030">
        <ele>1779.008</ele>
        <time>2010-06-13T08:23:50Z</time>
      </trkpt>
      <trkpt lat="42.748131" lon="-0.153221">
        <ele>1776.006</ele>
        <time>2010-06-13T08:25:01Z</time>
      </trkpt>
      <trkpt lat="42.747085" lon="-0.150978">
        <ele>1774.081</ele>
        <time>2010-06-13T08:28:15Z</time>
      </trkpt>
      <trkpt lat="42.746448" lon="-0.149786">
        <ele>1762.078</ele>
        <time>2010-06-13T08:30:03Z</time>
      </trkpt>
      <trkpt lat="42.745791" lon="-0.148716">
        <ele>1773.095</ele>
        <time>2010-06-13T08:31:46Z</time>
      </trkpt>
      <trkpt lat="42.744813" lon="-0.148334">
        <ele>1751.083</ele>
        <time>2010-06-13T08:33:28Z</time>
      </trkpt>
      <trkpt lat="42.744377" lon="-0.148018">
        <ele>1748.051</ele>
        <time>2010-06-13T08:34:18Z</time>
      </trkpt>
      <trkpt lat="42.744075" lon="-0.147635">
        <ele>1747.033</ele>
        <time>2010-06-13T08:34:59Z</time>
      </trkpt>
      <trkpt lat="42.743859" lon="-0.147095">
        <ele>1742.053</ele>
        <time>2010-06-13T08:35:44Z</time>
      </trkpt>
      <trkpt lat="42.743822" lon="-0.146486">
        <ele>1755.004</ele>
        <time>2010-06-13T08:36:30Z</time>
      </trkpt>
      <trkpt lat="42.743725" lon="-0.146246">
        <ele>1751.014</ele>
        <time>2010-06-13T08:36:50Z</time>
      </trkpt>
      <trkpt lat="42.743319" lon="-0.146203">
        <ele>1740.006</ele>
        <time>2010-06-13T08:37:30Z</time>
      </trkpt>
      <trkpt lat="42.742743" lon="-0.145680">
        <ele>1733.034</ele>
        <time>2010-06-13T08:38:39Z</time>
      </trkpt>
      <trkpt lat="42.742422" lon="-0.145450">
        <ele>1723.051</ele>
        <time>2010-06-13T08:39:15Z</time>
      </trkpt>
      <trkpt lat="42.742120" lon="-0.145037">
        <ele>1732.068</ele>
        <time>2010-06-13T08:39:58Z</time>
      </trkpt>
      <trkpt lat="42.741692" lon="-0.145056">
        <ele>1716.046</ele>
        <time>2010-06-13T08:40:41Z</time>
      </trkpt>
      <trkpt lat="42.740827" lon="-0.144668">
        <ele>1697.074</ele>
        <time>2010-06-13T08:42:12Z</time>
      </trkpt>
      <trkpt lat="42.739878" lon="-0.142727">
        <ele>1700.066</ele>
        <time>2010-06-13T08:45:04Z</time>
      </trkpt>
      <trkpt lat="42.739360" lon="-0.142690">
        <ele>1679.078</ele>
        <time>2010-06-13T08:45:55Z</time>
      </trkpt>
      <trkpt lat="42.738736" lon="-0.142077">
        <ele>1671.033</ele>
        <time>2010-06-13T08:47:13Z</time>
      </trkpt>
      <trkpt lat="42.737137" lon="-0.141112">
        <ele>1658.026</ele>
        <time>2010-06-13T08:50:08Z</time>
      </trkpt>
      <trkpt lat="42.736791" lon="-0.140792">
        <ele>1655.006</ele>
        <time>2010-06-13T08:50:50Z</time>
      </trkpt>
      <trkpt lat="42.735934" lon="-0.139824">
        <ele>1669.036</ele>
        <time>2010-06-13T08:52:42Z</time>
      </trkpt>
      <trkpt lat="42.735302" lon="-0.139761">
        <ele>1659.093</ele>
        <time>2010-06-13T08:53:45Z</time>
      </trkpt>
      <trkpt lat="42.734021" lon="-0.138935">
        <ele>1661.020</ele>
        <time>2010-06-13T08:56:06Z</time>
      </trkpt>
      <trkpt lat="42.732684" lon="-0.138599">
        <ele>1663.068</ele>
        <time>2010-06-13T08:58:23Z</time>
      </trkpt>
      <trkpt lat="42.732410" lon="-0.138459">
        <ele>1664.066</ele>
        <time>2010-06-13T08:58:52Z</time>
      </trkpt>
      <trkpt lat="42.731759" lon="-0.137634">
        <ele>1658.018</ele>
        <time>2010-06-13T09:00:21Z</time>
      </trkpt>
      <trkpt lat="42.731528" lon="-0.137370">
        <ele>1658.083</ele>
        <time>2010-06-13T09:00:50Z</time>
      </trkpt>
      <trkpt lat="42.730648" lon="-0.137288">
        <ele>1646.025</ele>
        <time>2010-06-13T09:02:19Z</time>
      </trkpt>
      <trkpt lat="42.730351" lon="-0.137119">
        <ele>1646.017</ele>
        <time>2010-06-13T09:02:51Z</time>
      </trkpt>
      <trkpt lat="42.729928" lon="-0.137321">
        <ele>1648.006</ele>
        <time>2010-06-13T09:03:37Z</time>
      </trkpt>
      <trkpt lat="42.729670" lon="-0.137791">
        <ele>1639.087</ele>
        <time>2010-06-13T09:04:20Z</time>
      </trkpt>
      <trkpt lat="42.727846" lon="-0.137753">
        <ele>1637.084</ele>
        <time>2010-06-13T09:07:21Z</time>
      </trkpt>
      <trkpt lat="42.727595" lon="-0.137642">
        <ele>1634.061</ele>
        <time>2010-06-13T09:07:48Z</time>
      </trkpt>
      <trkpt lat="42.727201" lon="-0.137203">
        <ele>1652.049</ele>
        <time>2010-06-13T09:08:39Z</time>
      </trkpt>
      <trkpt lat="42.726435" lon="-0.137146">
        <ele>1653.047</ele>
        <time>2010-06-13T09:09:57Z</time>
      </trkpt>
      <trkpt lat="42.725125" lon="-0.136993">
        <ele>1670.029</ele>
        <time>2010-06-13T09:12:08Z</time>
      </trkpt>
      <trkpt lat="42.724101" lon="-0.137437">
        <ele>1621.029</ele>
        <time>2010-06-13T09:13:56Z</time>
      </trkpt>
      <trkpt lat="42.722500" lon="-0.137358">
        <ele>1589.000</ele>
        <time>2010-06-13T09:16:35Z</time>
      </trkpt>
      <trkpt lat="42.721952" lon="-0.137047">
        <ele>1581.020</ele>
        <time>2010-06-13T09:17:34Z</time>
      </trkpt>
      <trkpt lat="42.721536" lon="-0.136608">
        <ele>1579.006</ele>
        <time>2010-06-13T09:18:27Z</time>
      </trkpt>
      <trkpt lat="42.721271" lon="-0.135918">
        <ele>1581.081</ele>
        <time>2010-06-13T09:19:24Z</time>
      </trkpt>
      <trkpt lat="42.721168" lon="-0.135374">
        <ele>1574.068</ele>
        <time>2010-06-13T09:20:07Z</time>
      </trkpt>
      <trkpt lat="42.720934" lon="-0.135018">
        <ele>1565.075</ele>
        <time>2010-06-13T09:20:42Z</time>
      </trkpt>
      <trkpt lat="42.720138" lon="-0.132918">
        <ele>1578.073</ele>
        <time>2010-06-13T09:23:35Z</time>
      </trkpt>
      <trkpt lat="42.719855" lon="-0.132381">
        <ele>1592.011</ele>
        <time>2010-06-13T09:24:23Z</time>
      </trkpt>
      <trkpt lat="42.719637" lon="-0.132696">
        <ele>1585.093</ele>
        <time>2010-06-13T09:24:55Z</time>
      </trkpt>
      <trkpt lat="42.719409" lon="-0.132585">
        <ele>1595.072</ele>
        <time>2010-06-13T09:25:19Z</time>
      </trkpt>
      <trkpt lat="42.719347" lon="-0.132801">
        <ele>1589.013</ele>
        <time>2010-06-13T09:25:37Z</time>
      </trkpt>
      <trkpt lat="42.719126" lon="-0.132964">
        <ele>1589.014</ele>
        <time>2010-06-13T09:26:02Z</time>
      </trkpt>
      <trkpt lat="42.718727" lon="-0.132311">
        <ele>1596.006</ele>
        <time>2010-06-13T09:27:04Z</time>
      </trkpt>
      <trkpt lat="42.718616" lon="-0.132347">
        <ele>1596.076</ele>
        <time>2010-06-13T09:27:15Z</time>
      </trkpt>
      <trkpt lat="42.718835" lon="-0.133008">
        <ele>1597.043</ele>
        <time>2010-06-13T09:28:09Z</time>
      </trkpt>
      <trkpt lat="42.719089" lon="-0.133271">
        <ele>1583.010</ele>
        <time>2010-06-13T09:28:41Z</time>
      </trkpt>
      <trkpt lat="42.718842" lon="-0.133313">
        <ele>1590.028</ele>
        <time>2010-06-13T09:29:05Z</time>
      </trkpt>
      <trkpt lat="42.718425" lon="-0.132844">
        <ele>1582.076</ele>
        <time>2010-06-13T09:29:59Z</time>
      </trkpt>
      <trkpt lat="42.717558" lon="-0.131449">
        <ele>1537.088</ele>
        <time>2010-06-13T09:32:15Z</time>
      </trkpt>
      <trkpt lat="42.717493" lon="-0.130658">
        <ele>1551.044</ele>
        <time>2010-06-13T09:33:12Z</time>
      </trkpt>
      <trkpt lat="42.716565" lon="-0.128686">
        <ele>1550.005</ele>
        <time>2010-06-13T09:36:05Z</time>
      </trkpt>
      <trkpt lat="42.716163" lon="-0.127911">
        <ele>1550.015</ele>
        <time>2010-06-13T09:37:14Z</time>
      </trkpt>
      <trkpt lat="42.715957" lon="-0.127768">
        <ele>1536.006</ele>
        <time>2010-06-13T09:37:38Z</time>
      </trkpt>
      <trkpt lat="42.715814" lon="-0.127439">
        <ele>1540.023</ele>
        <time>2010-06-13T09:38:06Z</time>
      </trkpt>
      <trkpt lat="42.714548" lon="-0.127222">
        <ele>1520.080</ele>
        <time>2010-06-13T09:40:14Z</time>
      </trkpt>
      <trkpt lat="42.713365" lon="-0.126727">
        <ele>1515.037</ele>
        <time>2010-06-13T09:42:18Z</time>
      </trkpt>
      <trkpt lat="42.712115" lon="-0.126266">
        <ele>1501.065</ele>
        <time>2010-06-13T09:44:27Z</time>
      </trkpt>
      <trkpt lat="42.711289" lon="-0.125663">
        <ele>1510.023</ele>
        <time>2010-06-13T09:46:02Z</time>
      </trkpt>
      <trkpt lat="42.710502" lon="-0.125669">
        <ele>1507.045</ele>
        <time>2010-06-13T09:47:19Z</time>
      </trkpt>
      <trkpt lat="42.710125" lon="-0.125931">
        <ele>1503.081</ele>
        <time>2010-06-13T09:48:03Z</time>
      </trkpt>
      <trkpt lat="42.709653" lon="-0.125953">
        <ele>1503.061</ele>
        <time>2010-06-13T09:48:50Z</time>
      </trkpt>
      <trkpt lat="42.708801" lon="-0.125168">
        <ele>1506.017</ele>
        <time>2010-06-13T09:50:33Z</time>
      </trkpt>
      <trkpt lat="42.707825" lon="-0.124847">
        <ele>1512.006</ele>
        <time>2010-06-13T09:52:12Z</time>
      </trkpt>
      <trkpt lat="42.706925" lon="-0.124888">
        <ele>1491.057</ele>
        <time>2010-06-13T09:53:43Z</time>
      </trkpt>
      <trkpt lat="42.706063" lon="-0.124623">
        <ele>1476.024</ele>
        <time>2010-06-13T09:55:12Z</time>
      </trkpt>
      <trkpt lat="42.705778" lon="-0.124025">
        <ele>1488.091</ele>
        <time>2010-06-13T09:56:04Z</time>
      </trkpt>
      <trkpt lat="42.705385" lon="-0.123616">
        <ele>1443.089</ele>
        <time>2010-06-13T09:56:54Z</time>
      </trkpt>
      <trkpt lat="42.705173" lon="-0.123229">
        <ele>1450.097</ele>
        <time>2010-06-13T09:57:29Z</time>
      </trkpt>
      <trkpt lat="42.705124" lon="-0.122194">
        <ele>1449.099</ele>
        <time>2010-06-13T09:58:46Z</time>
      </trkpt>
      <trkpt lat="42.704673" lon="-0.121268">
        <ele>1444.048</ele>
        <time>2010-06-13T10:00:06Z</time>
      </trkpt>
      <trkpt lat="42.704658" lon="-0.120659">
        <ele>1467.061</ele>
        <time>2010-06-13T10:00:51Z</time>
      </trkpt>
      <trkpt lat="42.704403" lon="-0.120365">
        <ele>1458.017</ele>
        <time>2010-06-13T10:01:26Z</time>
      </trkpt>
      <trkpt lat="42.704017" lon="-0.120230">
        <ele>1417.006</ele>
        <time>2010-06-13T10:02:04Z</time>
      </trkpt>
      <trkpt lat="42.702448" lon="-0.118716">
        <ele>1392.083</ele>
        <time>2010-06-13T10:05:18Z</time>
      </trkpt>
      <trkpt lat="42.701699" lon="-0.117591">
        <ele>1384.030</ele>
        <time>2010-06-13T10:07:10Z</time>
      </trkpt>
      <trkpt lat="42.700357" lon="-0.115242">
        <ele>1355.047</ele>
        <time>2010-06-13T10:10:48Z</time>
      </trkpt>
      <trkpt lat="42.699854" lon="-0.114960">
        <ele>1345.095</ele>
        <time>2010-06-13T10:11:43Z</time>
      </trkpt>
      <trkpt lat="42.698772" lon="-0.113118">
        <ele>1342.053</ele>
        <time>2010-06-13T10:14:35Z</time>
      </trkpt>
      <trkpt lat="42.698268" lon="-0.111859">
        <ele>1342.095</ele>
        <time>2010-06-13T10:16:22Z</time>
      </trkpt>
      <trkpt lat="42.697740" lon="-0.108771">
        <ele>1337.048</ele>
        <time>2010-06-13T10:20:14Z</time>
      </trkpt>
      <trkpt lat="42.697073" lon="-0.106452">
        <ele>1350.061</ele>
        <time>2010-06-13T10:23:18Z</time>
      </trkpt>
      <trkpt lat="42.696422" lon="-0.105628">
        <ele>1377.017</ele>
        <time>2010-06-13T10:24:47Z</time>
      </trkpt>
      <trkpt lat="42.695723" lon="-0.105569">
        <ele>1357.006</ele>
        <time>2010-06-13T10:25:57Z</time>
      </trkpt>
      <trkpt lat="42.695214" lon="-0.105928">
        <ele>1332.033</ele>
        <time>2010-06-13T10:26:54Z</time>
      </trkpt>
      <trkpt lat="42.694606" lon="-0.105041">
        <ele>1366.060</ele>
        <time>2010-06-13T10:28:23Z</time>
      </trkpt>
      <trkpt lat="42.693544" lon="-0.104876">
        <ele>1365.027</ele>
        <time>2010-06-13T10:30:11Z</time>
      </trkpt>
      <trkpt lat="42.693098" lon="-0.105019">
        <ele>1366.045</ele>
        <time>2010-06-13T10:30:56Z</time>
      </trkpt>
      <trkpt lat="42.691192" lon="-0.106237">
        <ele>1345.043</ele>
        <time>2010-06-13T10:34:26Z</time>
      </trkpt>
      <trkpt lat="42.690370" lon="-0.106672">
        <ele>1332.065</ele>
        <time>2010-06-13T10:35:55Z</time>
      </trkpt>
      <trkpt lat="42.688382" lon="-0.107252">
        <ele>1320.037</ele>
        <time>2010-06-13T10:39:19Z</time>
      </trkpt>
      <trkpt lat="42.687178" lon="-0.106820">
        <ele>1332.049</ele>
        <time>2010-06-13T10:41:23Z</time>
      </trkpt>
      <trkpt lat="42.686640" lon="-0.106937">
        <ele>1348.013</ele>
        <time>2010-06-13T10:42:17Z</time>
      </trkpt>
      <trkpt lat="42.685608" lon="-0.107961">
        <ele>1356.006</ele>
        <time>2010-06-13T10:44:25Z</time>
      </trkpt>
      <trkpt lat="42.684093" lon="-0.110350">
        <ele>1351.082</ele>
        <time>2010-06-13T10:48:17Z</time>
      </trkpt>
      <trkpt lat="42.683301" lon="-0.112004">
        <ele>1371.079</ele>
        <time>2010-06-13T10:50:42Z</time>
      </trkpt>
      <trkpt lat="42.683148" lon="-0.113049">
        <ele>1353.016</ele>
        <time>2010-06-13T10:52:02Z</time>
      </trkpt>
      <trkpt lat="42.682441" lon="-0.114485">
        <ele>1331.094</ele>
        <time>2010-06-13T10:54:09Z</time>
      </trkpt>
      <trkpt lat="42.681873" lon="-0.115152">
        <ele>1320.012</ele>
        <time>2010-06-13T10:55:24Z</time>
      </trkpt>
      <trkpt lat="42.681292" lon="-0.115331">
        <ele>1338.094</ele>
        <time>2010-06-13T10:56:24Z</time>
      </trkpt>
      <trkpt lat="42.680828" lon="-0.115688">
        <ele>1356.072</ele>
        <time>2010-06-13T10:57:17Z</time>
      </trkpt>
      <trkpt lat="42.678895" lon="-0.120263">
        <ele>1300.013</ele>
        <time>2010-06-13T11:03:44Z</time>
      </trkpt>
      <trkpt lat="42.678018" lon="-0.121219">
        <ele>1279.014</ele>
        <time>2010-06-13T11:05:38Z</time>
      </trkpt>
      <trkpt lat="42.675050" lon="-0.123125">
        <ele>1235.006</ele>
        <time>2010-06-13T11:11:06Z</time>
      </trkpt>
      <trkpt lat="42.674332" lon="-0.123250">
        <ele>1226.066</ele>
        <time>2010-06-13T11:12:18Z</time>
      </trkpt>
      <trkpt lat="42.673833" lon="-0.123090">
        <ele>1223.023</ele>
        <time>2010-06-13T11:13:10Z</time>
      </trkpt>
      <trkpt lat="42.673226" lon="-0.123118">
        <ele>1216.060</ele>
        <time>2010-06-13T11:14:11Z</time>
      </trkpt>
      <trkpt lat="42.672496" lon="-0.122725">
        <ele>1213.068</ele>
        <time>2010-06-13T11:15:29Z</time>
      </trkpt>
      <trkpt lat="42.671543" lon="-0.122433">
        <ele>1215.026</ele>
        <time>2010-06-13T11:17:06Z</time>
      </trkpt>
      <trkpt lat="42.671094" lon="-0.122484">
        <ele>1215.018</ele>
        <time>2010-06-13T11:17:51Z</time>
      </trkpt>
      <trkpt lat="42.670489" lon="-0.122573">
        <ele>1216.016</ele>
        <time>2010-06-13T11:18:53Z</time>
      </trkpt>
      <trkpt lat="42.669978" lon="-0.122871">
        <ele>1212.076</ele>
        <time>2010-06-13T11:19:48Z</time>
      </trkpt>
      <trkpt lat="42.669526" lon="-0.122801">
        <ele>1207.013</ele>
        <time>2010-06-13T11:20:33Z</time>
      </trkpt>
      <trkpt lat="42.668130" lon="-0.121889">
        <ele>1210.006</ele>
        <time>2010-06-13T11:23:09Z</time>
      </trkpt>
      <trkpt lat="42.667122" lon="-0.121173">
        <ele>1218.080</ele>
        <time>2010-06-13T11:25:02Z</time>
      </trkpt>
      <trkpt lat="42.666505" lon="-0.120835">
        <ele>1219.027</ele>
        <time>2010-06-13T11:26:09Z</time>
      </trkpt>
      <trkpt lat="42.666060" lon="-0.120154">
        <ele>1217.074</ele>
        <time>2010-06-13T11:27:16Z</time>
      </trkpt>
      <trkpt lat="42.665550" lon="-0.118653">
        <ele>1219.062</ele>
        <time>2010-06-13T11:29:18Z</time>
      </trkpt>
      <trkpt lat="42.665171" lon="-0.117908">
        <ele>1211.010</ele>
        <time>2010-06-13T11:30:25Z</time>
      </trkpt>
      <trkpt lat="42.664615" lon="-0.115493">
        <ele>1198.012</ele>
        <time>2010-06-13T11:33:30Z</time>
      </trkpt>
      <trkpt lat="42.664109" lon="-0.115059">
        <ele>1187.019</ele>
        <time>2010-06-13T11:34:30Z</time>
      </trkpt>
      <trkpt lat="42.663800" lon="-0.114433">
        <ele>1191.009</ele>
        <time>2010-06-13T11:35:26Z</time>
      </trkpt>
      <trkpt lat="42.663431" lon="-0.114053">
        <ele>1191.019</ele>
        <time>2010-06-13T11:36:12Z</time>
      </trkpt>
      <trkpt lat="42.663286" lon="-0.113664">
        <ele>1189.006</ele>
        <time>2010-06-13T11:36:44Z</time>
      </trkpt>
      <trkpt lat="42.663296" lon="-0.112290">
        <ele>1184.050</ele>
        <time>2010-06-13T11:38:26Z</time>
      </trkpt>
      <trkpt lat="42.662690" lon="-0.110580">
        <ele>1160.057</ele>
        <time>2010-06-13T11:40:46Z</time>
      </trkpt>
      <trkpt lat="42.662268" lon="-0.109928">
        <ele>1148.024</ele>
        <time>2010-06-13T11:41:48Z</time>
      </trkpt>
      <trkpt lat="42.661950" lon="-0.109791">
        <ele>1143.012</ele>
        <time>2010-06-13T11:42:22Z</time>
      </trkpt>
      <trkpt lat="42.661135" lon="-0.108730">
        <ele>1136.010</ele>
        <time>2010-06-13T11:44:16Z</time>
      </trkpt>
      <trkpt lat="42.660111" lon="-0.108290">
        <ele>1143.042</ele>
        <time>2010-06-13T11:46:03Z</time>
      </trkpt>
      <trkpt lat="42.659873" lon="-0.107782">
        <ele>1133.071</ele>
        <time>2010-06-13T11:46:48Z</time>
      </trkpt>
      <trkpt lat="42.659921" lon="-0.107018">
        <ele>1132.041</ele>
        <time>2010-06-13T11:47:43Z</time>
      </trkpt>
      <trkpt lat="42.659355" lon="-0.105976">
        <ele>1117.015</ele>
        <time>2010-06-13T11:49:19Z</time>
      </trkpt>
      <trkpt lat="42.658365" lon="-0.105107">
        <ele>1123.006</ele>
        <time>2010-06-13T11:51:17Z</time>
      </trkpt>
      <trkpt lat="42.657914" lon="-0.105098">
        <ele>1124.016</ele>
        <time>2010-06-13T11:52:01Z</time>
      </trkpt>
      <trkpt lat="42.657378" lon="-0.104360">
        <ele>1129.093</ele>
        <time>2010-06-13T11:53:19Z</time>
      </trkpt>
      <trkpt lat="42.656995" lon="-0.104348">
        <ele>1129.020</ele>
        <time>2010-06-13T11:53:56Z</time>
      </trkpt>
      <trkpt lat="42.656506" lon="-0.104614">
        <ele>1132.038</ele>
        <time>2010-06-13T11:54:50Z</time>
      </trkpt>
      <trkpt lat="42.655560" lon="-0.104597">
        <ele>1126.096</ele>
        <time>2010-06-13T11:56:24Z</time>
      </trkpt>
      <trkpt lat="42.654900" lon="-0.104292">
        <ele>1106.078</ele>
        <time>2010-06-13T11:57:34Z</time>
      </trkpt>
      <trkpt lat="42.654565" lon="-0.103515">
        <ele>1096.068</ele>
        <time>2010-06-13T11:58:41Z</time>
      </trkpt>
      <trkpt lat="42.653503" lon="-0.102466">
        <ele>1072.042</ele>
        <time>2010-06-13T12:00:51Z</time>
      </trkpt>
      <trkpt lat="42.653287" lon="-0.101927">
        <ele>1072.026</ele>
        <time>2010-06-13T12:01:37Z</time>
      </trkpt>
      <trkpt lat="42.652324" lon="-0.101240">
        <ele>1075.006</ele>
        <time>2010-06-13T12:03:26Z</time>
      </trkpt>
      <trkpt lat="42.651399" lon="-0.100277">
        <ele>1080.075</ele>
        <time>2010-06-13T12:05:22Z</time>
      </trkpt>
      <trkpt lat="42.651124" lon="-0.100107">
        <ele>1085.062</ele>
        <time>2010-06-13T12:05:52Z</time>
      </trkpt>
      <trkpt lat="42.651204" lon="-0.100591">
        <ele>1077.069</ele>
        <time>2010-06-13T12:06:29Z</time>
      </trkpt>
      <trkpt lat="42.650957" lon="-0.100602">
        <ele>1081.097</ele>
        <time>2010-06-13T12:06:53Z</time>
      </trkpt>
      <trkpt lat="42.650734" lon="-0.101589">
        <ele>1065.045</ele>
        <time>2010-06-13T12:08:09Z</time>
      </trkpt>
      <trkpt lat="42.650724" lon="-0.102077">
        <ele>1060.027</ele>
        <time>2010-06-13T12:08:46Z</time>
      </trkpt>
      <trkpt lat="42.650617" lon="-0.102295">
        <ele>1062.088</ele>
        <time>2010-06-13T12:09:05Z</time>
      </trkpt>
      <trkpt lat="42.650348" lon="-0.102338">
        <ele>1071.024</ele>
        <time>2010-06-13T12:09:32Z</time>
      </trkpt>
      <trkpt lat="42.649954" lon="-0.102784">
        <ele>1059.026</ele>
        <time>2010-06-13T12:10:23Z</time>
      </trkpt>
      <trkpt lat="42.649561" lon="-0.102375">
        <ele>1074.006</ele>
        <time>2010-06-13T12:11:12Z</time>
      </trkpt>
      <trkpt lat="42.649532" lon="-0.102132">
        <ele>1088.057</ele>
        <time>2010-06-13T12:11:30Z</time>
      </trkpt>
      <trkpt lat="42.649896" lon="-0.102268">
        <ele>1080.094</ele>
        <time>2010-06-13T12:12:08Z</time>
      </trkpt>
      <trkpt lat="42.649932" lon="-0.101900">
        <ele>1088.041</ele>
        <time>2010-06-13T12:12:36Z</time>
      </trkpt>
      <trkpt lat="42.650078" lon="-0.101436">
        <ele>1100.079</ele>
        <time>2010-06-13T12:13:13Z</time>
      </trkpt>
      <trkpt lat="42.650104" lon="-0.100703">
        <ele>1110.037</ele>
        <time>2010-06-13T12:14:07Z</time>
      </trkpt>
      <trkpt lat="42.649999" lon="-0.100128">
        <ele>1119.069</ele>
        <time>2010-06-13T12:14:50Z</time>
      </trkpt>
      <trkpt lat="42.649734" lon="-0.099439">
        <ele>1142.061</ele>
        <time>2010-06-13T12:15:48Z</time>
      </trkpt>
      <trkpt lat="42.649698" lon="-0.098892">
        <ele>1157.021</ele>
        <time>2010-06-13T12:16:29Z</time>
      </trkpt>
      <trkpt lat="42.649966" lon="-0.097934">
        <ele>1162.013</ele>
        <time>2010-06-13T12:17:44Z</time>
      </trkpt>
      <trkpt lat="42.650750" lon="-0.096891">
        <ele>1137.006</ele>
        <time>2010-06-13T12:19:34Z</time>
      </trkpt>
      <trkpt lat="42.651386" lon="-0.095337">
        <ele>1157.055</ele>
        <time>2010-06-13T12:21:44Z</time>
      </trkpt>
      <trkpt lat="42.651880" lon="-0.093515">
        <ele>1155.022</ele>
        <time>2010-06-13T12:24:07Z</time>
      </trkpt>
      <trkpt lat="42.652081" lon="-0.092560">
        <ele>1169.089</ele>
        <time>2010-06-13T12:25:21Z</time>
      </trkpt>
      <trkpt lat="42.652390" lon="-0.092332">
        <ele>1139.067</ele>
        <time>2010-06-13T12:25:56Z</time>
      </trkpt>
      <trkpt lat="42.652572" lon="-0.091500">
        <ele>1158.025</ele>
        <time>2010-06-13T12:26:59Z</time>
      </trkpt>
      <trkpt lat="42.653074" lon="-0.090897">
        <ele>1150.017</ele>
        <time>2010-06-13T12:28:06Z</time>
      </trkpt>
      <trkpt lat="42.653086" lon="-0.090470">
        <ele>1154.014</ele>
        <time>2010-06-13T12:28:38Z</time>
      </trkpt>
      <trkpt lat="42.652745" lon="-0.089449">
        <ele>1183.054</ele>
        <time>2010-06-13T12:30:01Z</time>
      </trkpt>
      <trkpt lat="42.652412" lon="-0.087879">
        <ele>1193.009</ele>
        <time>2010-06-13T12:32:00Z</time>
      </trkpt>
      <trkpt lat="42.652570" lon="-0.086987">
        <ele>1195.006</ele>
        <time>2010-06-13T12:33:09Z</time>
      </trkpt>
      <trkpt lat="42.653940" lon="-0.084239">
        <ele>1200.080</ele>
        <time>2010-06-13T12:37:12Z</time>
      </trkpt>
      <trkpt lat="42.654130" lon="-0.083712">
        <ele>1205.017</ele>
        <time>2010-06-13T12:37:55Z</time>
      </trkpt>
      <trkpt lat="42.653957" lon="-0.083140">
        <ele>1217.054</ele>
        <time>2010-06-13T12:38:41Z</time>
      </trkpt>
      <trkpt lat="42.654161" lon="-0.082277">
        <ele>1221.012</ele>
        <time>2010-06-13T12:39:48Z</time>
      </trkpt>
      <trkpt lat="42.653566" lon="-0.081024">
        <ele>1247.070</ele>
        <time>2010-06-13T12:41:38Z</time>
      </trkpt>
      <trkpt lat="42.652741" lon="-0.079568">
        <ele>1259.082</ele>
        <time>2010-06-13T12:43:53Z</time>
      </trkpt>
      <trkpt lat="42.652120" lon="-0.078164">
        <ele>1285.031</ele>
        <time>2010-06-13T12:45:53Z</time>
      </trkpt>
      <trkpt lat="42.651295" lon="-0.075854">
        <ele>1312.061</ele>
        <time>2010-06-13T12:49:02Z</time>
      </trkpt>
      <trkpt lat="42.651342" lon="-0.075029">
        <ele>1318.007</ele>
        <time>2010-06-13T12:50:04Z</time>
      </trkpt>
      <trkpt lat="42.651221" lon="-0.073845">
        <ele>1322.006</ele>
        <time>2010-06-13T12:51:32Z</time>
      </trkpt>
      <trkpt lat="42.650604" lon="-0.071709">
        <ele>1310.062</ele>
        <time>2010-06-13T12:54:21Z</time>
      </trkpt>
      <trkpt lat="42.650282" lon="-0.071449">
        <ele>1311.099</ele>
        <time>2010-06-13T12:54:59Z</time>
      </trkpt>
      <trkpt lat="42.650049" lon="-0.071125">
        <ele>1314.056</ele>
        <time>2010-06-13T12:55:32Z</time>
      </trkpt>
      <trkpt lat="42.649925" lon="-0.070673">
        <ele>1311.084</ele>
        <time>2010-06-13T12:56:07Z</time>
      </trkpt>
      <trkpt lat="42.650170" lon="-0.070601">
        <ele>1310.012</ele>
        <time>2010-06-13T12:56:31Z</time>
      </trkpt>
      <trkpt lat="42.650020" lon="-0.069998">
        <ele>1308.024</ele>
        <time>2010-06-13T12:57:19Z</time>
      </trkpt>
      <trkpt lat="42.650005" lon="-0.069419">
        <ele>1306.029</ele>
        <time>2010-06-13T12:58:02Z</time>
      </trkpt>
      <trkpt lat="42.649712" lon="-0.068518">
        <ele>1302.000</ele>
        <time>2010-06-13T12:59:14Z</time>
      </trkpt>
      <trkpt lat="42.649947" lon="-0.067135">
        <ele>1297.020</ele>
        <time>2010-06-13T13:00:59Z</time>
      </trkpt>
      <trkpt lat="42.649531" lon="-0.064959">
        <ele>1303.006</ele>
        <time>2010-06-13T13:03:43Z</time>
      </trkpt>
      <trkpt lat="42.649731" lon="-0.064858">
        <ele>1306.051</ele>
        <time>2010-06-13T13:04:05Z</time>
      </trkpt>
      <trkpt lat="42.649139" lon="-0.062873">
        <ele>1309.068</ele>
        <time>2010-06-13T13:06:43Z</time>
      </trkpt>
      <trkpt lat="42.649190" lon="-0.062200">
        <ele>1308.045</ele>
        <time>2010-06-13T13:07:32Z</time>
      </trkpt>
      <trkpt lat="42.649515" lon="-0.061727">
        <ele>1311.013</ele>
        <time>2010-06-13T13:08:20Z</time>
      </trkpt>
      <trkpt lat="42.649600" lon="-0.061509">
        <ele>1316.021</ele>
        <time>2010-06-13T13:08:39Z</time>
      </trkpt>
      <trkpt lat="42.649460" lon="-0.057890">
        <ele>1313.073</ele>
        <time>2010-06-13T13:13:06Z</time>
      </trkpt>
      <trkpt lat="42.649030" lon="-0.056730">
        <ele>1321.037</ele>
        <time>2010-06-13T13:14:40Z</time>
      </trkpt>
      <trkpt lat="42.648500" lon="-0.052830">
        <ele>1324.049</ele>
        <time>2010-06-13T13:19:33Z</time>
      </trkpt>
      <trkpt lat="42.648750" lon="-0.051070">
        <ele>1337.013</ele>
        <time>2010-06-13T13:21:45Z</time>
      </trkpt>
      <trkpt lat="42.648320" lon="-0.049670">
        <ele>1331.006</ele>
        <time>2010-06-13T13:23:37Z</time>
      </trkpt>
      <trkpt lat="42.647290" lon="-0.047910">
        <ele>1338.032</ele>
        <time>2010-06-13T13:26:22Z</time>
      </trkpt>
      <trkpt lat="42.647040" lon="-0.046220">
        <ele>1338.059</ele>
        <time>2010-06-13T13:28:29Z</time>
      </trkpt>
      <trkpt lat="42.646310" lon="-0.045020">
        <ele>1341.076</ele>
        <time>2010-06-13T13:30:24Z</time>
      </trkpt>
      <trkpt lat="42.646070" lon="-0.044910">
        <ele>1339.064</ele>
        <time>2010-06-13T13:30:48Z</time>
      </trkpt>
      <trkpt lat="42.645750" lon="-0.045380">
        <ele>1335.062</ele>
        <time>2010-06-13T13:31:37Z</time>
      </trkpt>
      <trkpt lat="42.644610" lon="-0.044650">
        <ele>1343.054</ele>
        <time>2010-06-13T13:33:43Z</time>
      </trkpt>
      <trkpt lat="42.643330" lon="-0.042810">
        <ele>1359.093</ele>
        <time>2010-06-13T13:36:49Z</time>
      </trkpt>
      <trkpt lat="42.642790" lon="-0.041580">
        <ele>1361.065</ele>
        <time>2010-06-13T13:38:35Z</time>
      </trkpt>
      <trkpt lat="42.642040" lon="-0.041130">
        <ele>1372.021</ele>
        <time>2010-06-13T13:39:57Z</time>
      </trkpt>
      <trkpt lat="42.640000" lon="-0.038340">
        <ele>1397.006</ele>
        <time>2010-06-13T13:44:45Z</time>
      </trkpt>
      <trkpt lat="42.639550" lon="-0.038280">
        <ele>1440.068</ele>
        <time>2010-06-13T13:45:30Z</time>
      </trkpt>
      <trkpt lat="42.640390" lon="-0.038900">
        <ele>1389.065</ele>
        <time>2010-06-13T13:47:07Z</time>
      </trkpt>
      <trkpt lat="42.639870" lon="-0.038370">
        <ele>1397.022</ele>
        <time>2010-06-13T13:48:11Z</time>
      </trkpt>
      <trkpt lat="42.639630" lon="-0.037340">
        <ele>1406.060</ele>
        <time>2010-06-13T13:49:32Z</time>
      </trkpt>
      <trkpt lat="42.639380" lon="-0.037340">
        <ele>1411.028</ele>
        <time>2010-06-13T13:49:56Z</time>
      </trkpt>
      <trkpt lat="42.638650" lon="-0.032850">
        <ele>1413.070</ele>
        <time>2010-06-13T13:55:35Z</time>
      </trkpt>
      <trkpt lat="42.637230" lon="-0.032080">
        <ele>1453.046</ele>
        <time>2010-06-13T13:58:08Z</time>
      </trkpt>
      <trkpt lat="42.637770" lon="-0.032250">
        <ele>1433.088</ele>
        <time>2010-06-13T13:59:04Z</time>
      </trkpt>
      <trkpt lat="42.637420" lon="-0.032040">
        <ele>1444.016</ele>
        <time>2010-06-13T13:59:42Z</time>
      </trkpt>
      <trkpt lat="42.637750" lon="-0.031240">
        <ele>1452.006</ele>
        <time>2010-06-13T14:00:49Z</time>
      </trkpt>
      <trkpt lat="42.637570" lon="-0.031560">
        <ele>1448.073</ele>
        <time>2010-06-13T14:01:19Z</time>
      </trkpt>
      <trkpt lat="42.637960" lon="-0.031520">
        <ele>1444.090</ele>
        <time>2010-06-13T14:01:57Z</time>
      </trkpt>
      <trkpt lat="42.637980" lon="-0.031010">
        <ele>1451.027</ele>
        <time>2010-06-13T14:02:35Z</time>
      </trkpt>
      <trkpt lat="42.636870" lon="-0.030020">
        <ele>1482.065</ele>
        <time>2010-06-13T14:04:49Z</time>
      </trkpt>
      <trkpt lat="42.635340" lon="-0.027080">
        <ele>1577.043</ele>
        <time>2010-06-13T14:09:13Z</time>
      </trkpt>
      <trkpt lat="42.635240" lon="-0.027270">
        <ele>1575.085</ele>
        <time>2010-06-13T14:09:31Z</time>
      </trkpt>
      <trkpt lat="42.635770" lon="-0.027790">
        <ele>1564.035</ele>
        <time>2010-06-13T14:10:36Z</time>
      </trkpt>
      <trkpt lat="42.635750" lon="-0.026710">
        <ele>1572.086</ele>
        <time>2010-06-13T14:11:56Z</time>
      </trkpt>
      <trkpt lat="42.636440" lon="-0.026310">
        <ele>1582.014</ele>
        <time>2010-06-13T14:13:10Z</time>
      </trkpt>
      <trkpt lat="42.636290" lon="-0.025000">
        <ele>1593.006</ele>
        <time>2010-06-13T14:14:49Z</time>
      </trkpt>
      <trkpt lat="42.635190" lon="-0.023170">
        <ele>1604.022</ele>
        <time>2010-06-13T14:17:43Z</time>
      </trkpt>
      <trkpt lat="42.635710" lon="-0.023130">
        <ele>1606.089</ele>
        <time>2010-06-13T14:18:35Z</time>
      </trkpt>
      <trkpt lat="42.636740" lon="-0.024230">
        <ele>1617.046</ele>
        <time>2010-06-13T14:20:46Z</time>
      </trkpt>
      <trkpt lat="42.636930" lon="-0.024810">
        <ele>1618.084</ele>
        <time>2010-06-13T14:21:33Z</time>
      </trkpt>
      <trkpt lat="42.637210" lon="-0.024480">
        <ele>1634.072</ele>
        <time>2010-06-13T14:22:10Z</time>
      </trkpt>
      <trkpt lat="42.636690" lon="-0.023350">
        <ele>1631.014</ele>
        <time>2010-06-13T14:23:47Z</time>
      </trkpt>
      <trkpt lat="42.635920" lon="-0.023320">
        <ele>1603.088</ele>
        <time>2010-06-13T14:25:04Z</time>
      </trkpt>
      <trkpt lat="42.636590" lon="-0.021480">
        <ele>1670.024</ele>
        <time>2010-06-13T14:27:36Z</time>
      </trkpt>
      <trkpt lat="42.636120" lon="-0.021460">
        <ele>1642.026</ele>
        <time>2010-06-13T14:28:23Z</time>
      </trkpt>
      <trkpt lat="42.635660" lon="-0.020060">
        <ele>1650.006</ele>
        <time>2010-06-13T14:30:16Z</time>
      </trkpt>
      <trkpt lat="42.635450" lon="-0.014960">
        <ele>1693.097</ele>
        <time>2010-06-13T14:36:31Z</time>
      </trkpt>
      <trkpt lat="42.635090" lon="-0.013560">
        <ele>1668.024</ele>
        <time>2010-06-13T14:38:20Z</time>
      </trkpt>
      <trkpt lat="42.635150" lon="-0.011460">
        <ele>1670.031</ele>
        <time>2010-06-13T14:40:56Z</time>
      </trkpt>
      <trkpt lat="42.638150" lon="0.000130">
        <ele>1723.019</ele>
        <time>2010-06-13T14:56:00Z</time>
      </trkpt>
      <trkpt lat="42.638280" lon="-0.000360">
        <ele>1726.057</ele>
        <time>2010-06-13T14:56:38Z</time>
      </trkpt>
      <trkpt lat="42.638540" lon="0.001160">
        <ele>1732.069</ele>
        <time>2010-06-13T14:58:33Z</time>
      </trkpt>
      <trkpt lat="42.638670" lon="0.000990">
        <ele>1732.017</ele>
        <time>2010-06-13T14:58:52Z</time>
      </trkpt>
      <trkpt lat="42.639080" lon="0.001520">
        <ele>1735.087</ele>
        <time>2010-06-13T14:59:48Z</time>
      </trkpt>
      <trkpt lat="42.639780" lon="0.003150">
        <ele>1738.015</ele>
        <time>2010-06-13T15:02:06Z</time>
      </trkpt>
      <trkpt lat="42.641180" lon="0.004830">
        <ele>1744.006</ele>
        <time>2010-06-13T15:05:14Z</time>
      </trkpt>
      <trkpt lat="42.641870" lon="0.006350">
        <ele>1743.030</ele>
        <time>2010-06-13T15:07:26Z</time>
      </trkpt>
      <trkpt lat="42.642400" lon="0.006740">
        <ele>1747.087</ele>
        <time>2010-06-13T15:08:25Z</time>
      </trkpt>
      <trkpt lat="42.642960" lon="0.007700">
        <ele>1741.094</ele>
        <time>2010-06-13T15:09:56Z</time>
      </trkpt>
      <trkpt lat="42.647550" lon="0.012250">
        <ele>1746.052</ele>
        <time>2010-06-13T15:19:24Z</time>
      </trkpt>
      <trkpt lat="42.648840" lon="0.015040">
        <ele>1761.070</ele>
        <time>2010-06-13T15:23:26Z</time>
      </trkpt>
      <trkpt lat="42.649830" lon="0.015360">
        <ele>1768.032</ele>
        <time>2010-06-13T15:25:08Z</time>
      </trkpt>
      <trkpt lat="42.649930" lon="0.015600">
        <ele>1777.032</ele>
        <time>2010-06-13T15:25:29Z</time>
      </trkpt>
      <trkpt lat="42.649610" lon="0.015750">
        <ele>1774.092</ele>
        <time>2010-06-13T15:26:02Z</time>
      </trkpt>
      <trkpt lat="42.648320" lon="0.015690">
        <ele>1764.011</ele>
        <time>2010-06-13T15:28:12Z</time>
      </trkpt>
      <trkpt lat="42.648170" lon="0.016590">
        <ele>1787.006</ele>
        <time>2010-06-13T15:29:19Z</time>
      </trkpt>
      <trkpt lat="42.646270" lon="0.016720">
        <ele>1831.082</ele>
        <time>2010-06-13T15:32:31Z</time>
      </trkpt>
      <trkpt lat="42.647810" lon="0.017680">
        <ele>1841.099</ele>
        <time>2010-06-13T15:35:19Z</time>
      </trkpt>
      <trkpt lat="42.647570" lon="0.017770">
        <ele>1851.046</ele>
        <time>2010-06-13T15:35:45Z</time>
      </trkpt>
      <trkpt lat="42.647660" lon="0.018170">
        <ele>1857.084</ele>
        <time>2010-06-13T15:36:16Z</time>
      </trkpt>
      <trkpt lat="42.647340" lon="0.018150">
        <ele>1881.052</ele>
        <time>2010-06-13T15:36:48Z</time>
      </trkpt>
      <trkpt lat="42.647600" lon="0.018630">
        <ele>1904.014</ele>
        <time>2010-06-13T15:37:31Z</time>
      </trkpt>
      <trkpt lat="42.647290" lon="0.018630">
        <ele>1918.085</ele>
        <time>2010-06-13T15:38:03Z</time>
      </trkpt>
      <trkpt lat="42.647720" lon="0.019080">
        <ele>1935.089</ele>
        <time>2010-06-13T15:38:56Z</time>
      </trkpt>
      <trkpt lat="42.648930" lon="0.019270">
        <ele>1909.017</ele>
        <time>2010-06-13T15:40:58Z</time>
      </trkpt>
      <trkpt lat="42.651200" lon="0.018110">
        <ele>1911.006</ele>
        <time>2010-06-13T15:45:02Z</time>
      </trkpt>
      <trkpt lat="42.652250" lon="0.018110">
        <ele>1943.067</ele>
        <time>2010-06-13T15:46:47Z</time>
      </trkpt>
      <trkpt lat="42.653020" lon="0.017400">
        <ele>1965.064</ele>
        <time>2010-06-13T15:48:19Z</time>
      </trkpt>
      <trkpt lat="42.653050" lon="0.016540">
        <ele>1946.051</ele>
        <time>2010-06-13T15:49:23Z</time>
      </trkpt>
      <trkpt lat="42.653470" lon="0.016070">
        <ele>1947.049</ele>
        <time>2010-06-13T15:50:17Z</time>
      </trkpt>
      <trkpt lat="42.654140" lon="0.016110">
        <ele>1983.077</ele>
        <time>2010-06-13T15:51:24Z</time>
      </trkpt>
      <trkpt lat="42.653450" lon="0.016930">
        <ele>1968.039</ele>
        <time>2010-06-13T15:52:56Z</time>
      </trkpt>
      <trkpt lat="42.653200" lon="0.018000">
        <ele>1997.039</ele>
        <time>2010-06-13T15:54:19Z</time>
      </trkpt>
      <trkpt lat="42.653690" lon="0.017400">
        <ele>1997.001</ele>
        <time>2010-06-13T15:55:24Z</time>
      </trkpt>
      <trkpt lat="42.654700" lon="0.016950">
        <ele>2017.021</ele>
        <time>2010-06-13T15:57:11Z</time>
      </trkpt>
      <trkpt lat="42.656540" lon="0.017290">
        <ele>2043.006</ele>
        <time>2010-06-13T16:00:17Z</time>
      </trkpt>
      <trkpt lat="42.658690" lon="0.016390">
        <ele>2082.022</ele>
        <time>2010-06-13T16:04:02Z</time>
      </trkpt>
      <trkpt lat="42.660450" lon="0.016440">
        <ele>2144.079</ele>
        <time>2010-06-13T16:06:58Z</time>
      </trkpt>
      <trkpt lat="42.661970" lon="0.015040">
        <ele>2148.026</ele>
        <time>2010-06-13T16:10:03Z</time>
      </trkpt>
      <trkpt lat="42.663070" lon="0.015170">
        <ele>2189.064</ele>
        <time>2010-06-13T16:11:53Z</time>
      </trkpt>
      <trkpt lat="42.663200" lon="0.014250">
        <ele>2185.052</ele>
        <time>2010-06-13T16:13:01Z</time>
      </trkpt>
      <trkpt lat="42.663750" lon="0.013730">
        <ele>2190.084</ele>
        <time>2010-06-13T16:14:08Z</time>
      </trkpt>
      <trkpt lat="42.661760" lon="0.016310">
        <ele>2176.094</ele>
        <time>2010-06-13T16:18:44Z</time>
      </trkpt>
      <trkpt lat="42.657810" lon="0.019310">
        <ele>2150.057</ele>
        <time>2010-06-13T16:26:16Z</time>
      </trkpt>
      <trkpt lat="42.656970" lon="0.020340">
        <ele>2146.022</ele>
        <time>2010-06-13T16:28:10Z</time>
      </trkpt>
      <trkpt lat="42.655900" lon="0.020940">
        <ele>2131.006</ele>
        <time>2010-06-13T16:30:05Z</time>
      </trkpt>
      <trkpt lat="42.654500" lon="0.023090">
        <ele>2169.028</ele>
        <time>2010-06-13T16:33:37Z</time>
      </trkpt>
      <trkpt lat="42.653690" lon="0.023840">
        <ele>2182.075</ele>
        <time>2010-06-13T16:35:14Z</time>
      </trkpt>
      <trkpt lat="42.653820" lon="0.024980">
        <ele>2208.092</ele>
        <time>2010-06-13T16:36:40Z</time>
      </trkpt>
      <trkpt lat="42.654780" lon="0.026740">
        <ele>2231.030</ele>
        <time>2010-06-13T16:39:22Z</time>
      </trkpt>
      <trkpt lat="42.654590" lon="0.028620">
        <ele>2266.088</ele>
        <time>2010-06-13T16:41:41Z</time>
      </trkpt>
      <trkpt lat="42.655410" lon="0.029780">
        <ele>2281.070</ele>
        <time>2010-06-13T16:43:40Z</time>
      </trkpt>
      <trkpt lat="42.655130" lon="0.031010">
        <ele>2318.051</ele>
        <time>2010-06-13T16:45:14Z</time>
      </trkpt>
      <trkpt lat="42.654780" lon="0.030900">
        <ele>2319.001</ele>
        <time>2010-06-13T16:45:49Z</time>
      </trkpt>
      <trkpt lat="42.654330" lon="0.032660">
        <ele>2334.011</ele>
        <time>2010-06-13T16:48:08Z</time>
      </trkpt>
      <trkpt lat="42.652020" lon="0.037270">
        <ele>2248.006</ele>
        <time>2010-06-13T16:54:58Z</time>
      </trkpt>
      <trkpt lat="42.650660" lon="0.038410">
        <ele>2244.094</ele>
        <time>2010-06-13T16:57:38Z</time>
      </trkpt>
      <trkpt lat="42.647400" lon="0.044800">
        <ele>2159.051</ele>
        <time>2010-06-13T17:07:09Z</time>
      </trkpt>
      <trkpt lat="42.646840" lon="0.045190">
        <ele>2148.098</ele>
        <time>2010-06-13T17:08:13Z</time>
      </trkpt>
      <trkpt lat="42.647100" lon="0.045170">
        <ele>2149.026</ele>
        <time>2010-06-13T17:08:38Z</time>
      </trkpt>
      <trkpt lat="42.647230" lon="0.045600">
        <ele>2143.064</ele>
        <time>2010-06-13T17:09:13Z</time>
      </trkpt>
      <trkpt lat="42.646590" lon="0.046500">
        <ele>2128.056</ele>
        <time>2010-06-13T17:10:46Z</time>
      </trkpt>
      <trkpt lat="42.645340" lon="0.050060">
        <ele>2040.011</ele>
        <time>2010-06-13T17:15:35Z</time>
      </trkpt>
      <trkpt lat="42.646110" lon="0.050060">
        <ele>2003.021</ele>
        <time>2010-06-13T17:16:53Z</time>
      </trkpt>
      <trkpt lat="42.646330" lon="0.050580">
        <ele>1988.003</ele>
        <time>2010-06-13T17:17:36Z</time>
      </trkpt>
      <trkpt lat="42.645490" lon="0.051240">
        <ele>1974.006</ele>
        <time>2010-06-13T17:19:13Z</time>
      </trkpt>
      <trkpt lat="42.644630" lon="0.054740">
        <ele>1895.050</ele>
        <time>2010-06-13T17:23:46Z</time>
      </trkpt>
      <trkpt lat="42.643820" lon="0.055300">
        <ele>1836.067</ele>
        <time>2010-06-13T17:25:16Z</time>
      </trkpt>
      <trkpt lat="42.643350" lon="0.056090">
        <ele>1779.024</ele>
        <time>2010-06-13T17:26:31Z</time>
      </trkpt>
      <trkpt lat="42.643280" lon="0.057720">
        <ele>1750.082</ele>
        <time>2010-06-13T17:28:31Z</time>
      </trkpt>
      <trkpt lat="42.643070" lon="0.057720">
        <ele>1733.090</ele>
        <time>2010-06-13T17:28:53Z</time>
      </trkpt>
      <trkpt lat="42.643390" lon="0.057940">
        <ele>1749.092</ele>
        <time>2010-06-13T17:29:28Z</time>
      </trkpt>
      <trkpt lat="42.643260" lon="0.058670">
        <ele>1749.029</ele>
        <time>2010-06-13T17:30:24Z</time>
      </trkpt>
      <trkpt lat="42.642380" lon="0.058970">
        <ele>1690.000</ele>
        <time>2010-06-13T17:31:54Z</time>
      </trkpt>
      <trkpt lat="42.642320" lon="0.059330">
        <ele>1681.020</ele>
        <time>2010-06-13T17:32:21Z</time>
      </trkpt>
      <trkpt lat="42.641540" lon="0.060100">
        <ele>1682.006</ele>
        <time>2010-06-13T17:33:59Z</time>
      </trkpt>
      <trkpt lat="42.641990" lon="0.060100">
        <ele>1687.041</ele>
        <time>2010-06-13T17:34:43Z</time>
      </trkpt>
      <trkpt lat="42.643070" lon="0.061540">
        <ele>1746.098</ele>
        <time>2010-06-13T17:37:14Z</time>
      </trkpt>
      <trkpt lat="42.643840" lon="0.061860">
        <ele>1767.095</ele>
        <time>2010-06-13T17:38:36Z</time>
      </trkpt>
      <trkpt lat="42.643990" lon="0.062360">
        <ele>1774.023</ele>
        <time>2010-06-13T17:39:14Z</time>
      </trkpt>
      <trkpt lat="42.645580" lon="0.063560">
        <ele>1839.041</ele>
        <time>2010-06-13T17:42:17Z</time>
      </trkpt>
      <trkpt lat="42.646650" lon="0.063920">
        <ele>1862.083</ele>
        <time>2010-06-13T17:44:07Z</time>
      </trkpt>
      <trkpt lat="42.648110" lon="0.065570">
        <ele>1895.044</ele>
        <time>2010-06-13T17:47:18Z</time>
      </trkpt>
      <trkpt lat="42.648410" lon="0.066580">
        <ele>1928.005</ele>
        <time>2010-06-13T17:48:37Z</time>
      </trkpt>
      <trkpt lat="42.648880" lon="0.067010">
        <ele>1940.015</ele>
        <time>2010-06-13T17:49:35Z</time>
      </trkpt>
      <trkpt lat="42.651520" lon="0.067310">
        <ele>1973.006</ele>
        <time>2010-06-13T17:53:59Z</time>
      </trkpt>
      <trkpt lat="42.652170" lon="0.068150">
        <ele>1996.093</ele>
        <time>2010-06-13T17:55:28Z</time>
      </trkpt>
      <trkpt lat="42.653260" lon="0.068900">
        <ele>2041.020</ele>
        <time>2010-06-13T17:57:32Z</time>
      </trkpt>
      <trkpt lat="42.654930" lon="0.069070">
        <ele>2106.017</ele>
        <time>2010-06-13T18:00:18Z</time>
      </trkpt>
      <trkpt lat="42.656480" lon="0.070570">
        <ele>2167.035</ele>
        <time>2010-06-13T18:03:29Z</time>
      </trkpt>
      <trkpt lat="42.656970" lon="0.070570">
        <ele>2172.023</ele>
        <time>2010-06-13T18:04:18Z</time>
      </trkpt>
      <trkpt lat="42.658840" lon="0.071860">
        <ele>2247.045</ele>
        <time>2010-06-13T18:07:48Z</time>
      </trkpt>
      <trkpt lat="42.659930" lon="0.071300">
        <ele>2295.061</ele>
        <time>2010-06-13T18:09:45Z</time>
      </trkpt>
      <trkpt lat="42.660980" lon="0.071520">
        <ele>2346.021</ele>
        <time>2010-06-13T18:11:31Z</time>
      </trkpt>
      <trkpt lat="42.662470" lon="0.070700">
        <ele>2411.013</ele>
        <time>2010-06-13T18:14:12Z</time>
      </trkpt>
      <trkpt lat="42.660920" lon="0.074270">
        <ele>2405.006</ele>
        <time>2010-06-13T18:19:16Z</time>
      </trkpt>
      <trkpt lat="42.660320" lon="0.076950">
        <ele>2409.075</ele>
        <time>2010-06-13T18:22:43Z</time>
      </trkpt>
      <trkpt lat="42.661140" lon="0.077120">
        <ele>2363.062</ele>
        <time>2010-06-13T18:24:07Z</time>
      </trkpt>
      <trkpt lat="42.661560" lon="0.076520">
        <ele>2392.039</ele>
        <time>2010-06-13T18:25:08Z</time>
      </trkpt>
      <trkpt lat="42.661590" lon="0.076780">
        <ele>2374.087</ele>
        <time>2010-06-13T18:25:27Z</time>
      </trkpt>
      <trkpt lat="42.662170" lon="0.077270">
        <ele>2320.085</ele>
        <time>2010-06-13T18:26:34Z</time>
      </trkpt>
      <trkpt lat="42.661990" lon="0.077700">
        <ele>2292.017</ele>
        <time>2010-06-13T18:27:12Z</time>
      </trkpt>
      <trkpt lat="42.662720" lon="0.077740">
        <ele>2264.018</ele>
        <time>2010-06-13T18:28:25Z</time>
      </trkpt>
      <trkpt lat="42.662740" lon="0.078080">
        <ele>2244.098</ele>
        <time>2010-06-13T18:28:49Z</time>
      </trkpt>
      <trkpt lat="42.663130" lon="0.078340">
        <ele>2216.017</ele>
        <time>2010-06-13T18:29:32Z</time>
      </trkpt>
      <trkpt lat="42.665340" lon="0.079090">
        <ele>2097.006</ele>
        <time>2010-06-13T18:33:21Z</time>
      </trkpt>
      <trkpt lat="42.665490" lon="0.079480">
        <ele>2069.050</ele>
        <time>2010-06-13T18:33:53Z</time>
      </trkpt>
      <trkpt lat="42.665130" lon="0.079760">
        <ele>2076.067</ele>
        <time>2010-06-13T18:34:35Z</time>
      </trkpt>
      <trkpt lat="42.665450" lon="0.079590">
        <ele>2053.064</ele>
        <time>2010-06-13T18:35:10Z</time>
      </trkpt>
      <trkpt lat="42.665620" lon="0.080040">
        <ele>2037.052</ele>
        <time>2010-06-13T18:35:46Z</time>
      </trkpt>
      <trkpt lat="42.665750" lon="0.079930">
        <ele>2025.080</ele>
        <time>2010-06-13T18:36:01Z</time>
      </trkpt>
      <trkpt lat="42.666070" lon="0.080940">
        <ele>1974.092</ele>
        <time>2010-06-13T18:37:23Z</time>
      </trkpt>
      <trkpt lat="42.665960" lon="0.081820">
        <ele>1930.048</ele>
        <time>2010-06-13T18:38:29Z</time>
      </trkpt>
      <trkpt lat="42.666240" lon="0.081560">
        <ele>1930.061</ele>
        <time>2010-06-13T18:39:02Z</time>
      </trkpt>
      <trkpt lat="42.666350" lon="0.082080">
        <ele>1885.017</ele>
        <time>2010-06-13T18:39:43Z</time>
      </trkpt>
      <trkpt lat="42.666160" lon="0.083150">
        <ele>1829.006</ele>
        <time>2010-06-13T18:41:03Z</time>
      </trkpt>
      <trkpt lat="42.666560" lon="0.083190">
        <ele>1777.063</ele>
        <time>2010-06-13T18:41:44Z</time>
      </trkpt>
      <trkpt lat="42.666540" lon="0.083730">
        <ele>1784.050</ele>
        <time>2010-06-13T18:42:23Z</time>
      </trkpt>
      <trkpt lat="42.665900" lon="0.083790">
        <ele>1815.067</ele>
        <time>2010-06-13T18:43:28Z</time>
      </trkpt>
      <trkpt lat="42.665300" lon="0.083060">
        <ele>1867.095</ele>
        <time>2010-06-13T18:44:48Z</time>
      </trkpt>
      <trkpt lat="42.664680" lon="0.083510">
        <ele>1843.023</ele>
        <time>2010-06-13T18:45:59Z</time>
      </trkpt>
      <trkpt lat="42.664050" lon="0.084760">
        <ele>1778.085</ele>
        <time>2010-06-13T18:47:49Z</time>
      </trkpt>
      <trkpt lat="42.663500" lon="0.085270">
        <ele>1756.069</ele>
        <time>2010-06-13T18:48:57Z</time>
      </trkpt>
      <trkpt lat="42.663070" lon="0.086650">
        <ele>1702.004</ele>
        <time>2010-06-13T18:50:46Z</time>
      </trkpt>
      <trkpt lat="42.662190" lon="0.087950">
        <ele>1692.024</ele>
        <time>2010-06-13T18:52:56Z</time>
      </trkpt>
      <trkpt lat="42.661560" lon="0.089590">
        <ele>1612.006</ele>
        <time>2010-06-13T18:55:13Z</time>
      </trkpt>
      <trkpt lat="42.661090" lon="0.092350">
        <ele>1509.035</ele>
        <time>2010-06-13T18:58:42Z</time>
      </trkpt>
      <trkpt lat="42.660280" lon="0.093080">
        <ele>1506.082</ele>
        <time>2010-06-13T19:00:19Z</time>
      </trkpt>
      <trkpt lat="42.660940" lon="0.094070">
        <ele>1469.079</ele>
        <time>2010-06-13T19:01:57Z</time>
      </trkpt>
      <trkpt lat="42.660960" lon="0.095190">
        <ele>1469.097</ele>
        <time>2010-06-13T19:03:20Z</time>
      </trkpt>
      <trkpt lat="42.661650" lon="0.095680">
        <ele>1424.045</ele>
        <time>2010-06-13T19:04:37Z</time>
      </trkpt>
      <trkpt lat="42.661840" lon="0.096170">
        <ele>1406.077</ele>
        <time>2010-06-13T19:05:18Z</time>
      </trkpt>
      <trkpt lat="42.661560" lon="0.097910">
        <ele>1396.043</ele>
        <time>2010-06-13T19:07:29Z</time>
      </trkpt>
      <trkpt lat="42.661990" lon="0.099480">
        <ele>1338.064</ele>
        <time>2010-06-13T19:09:33Z</time>
      </trkpt>
      <trkpt lat="42.662120" lon="0.101770">
        <ele>1259.010</ele>
        <time>2010-06-13T19:12:22Z</time>
      </trkpt>
      <trkpt lat="42.661950" lon="0.102890">
        <ele>1261.006</ele>
        <time>2010-06-13T19:13:46Z</time>
      </trkpt>
      <trkpt lat="42.661540" lon="0.102610">
        <ele>1277.083</ele>
        <time>2010-06-13T19:14:32Z</time>
      </trkpt>
      <trkpt lat="42.662590" lon="0.102200">
        <ele>1245.080</ele>
        <time>2010-06-13T19:16:20Z</time>
      </trkpt>
      <trkpt lat="42.663370" lon="0.103020">
        <ele>1235.097</ele>
        <time>2010-06-13T19:17:59Z</time>
      </trkpt>
      <trkpt lat="42.665190" lon="0.102500">
        <ele>1236.085</ele>
        <time>2010-06-13T19:21:05Z</time>
      </trkpt>
      <trkpt lat="42.665960" lon="0.102930">
        <ele>1240.063</ele>
        <time>2010-06-13T19:22:28Z</time>
      </trkpt>
      <trkpt lat="42.666110" lon="0.103580">
        <ele>1247.015</ele>
        <time>2010-06-13T19:23:19Z</time>
      </trkpt>
      <trkpt lat="42.666240" lon="0.102120">
        <ele>1240.016</ele>
        <time>2010-06-13T19:25:07Z</time>
      </trkpt>
      <trkpt lat="42.666460" lon="0.101260">
        <ele>1241.076</ele>
        <time>2010-06-13T19:26:14Z</time>
      </trkpt>
      <trkpt lat="42.666520" lon="0.100530">
        <ele>1241.013</ele>
        <time>2010-06-13T19:27:08Z</time>
      </trkpt>
      <trkpt lat="42.666590" lon="0.100270">
        <ele>1241.006</ele>
        <time>2010-06-13T19:27:29Z</time>
      </trkpt>
      <trkpt lat="42.666740" lon="0.100080">
        <ele>1241.050</ele>
        <time>2010-06-13T19:27:50Z</time>
      </trkpt>
      <trkpt lat="42.666780" lon="0.099970">
        <ele>1241.097</ele>
        <time>2010-06-13T19:27:58Z</time>
      </trkpt>
      <trkpt lat="42.666950" lon="0.099780">
        <ele>1241.014</ele>
        <time>2010-06-13T19:28:20Z</time>
      </trkpt>
      <trkpt lat="42.667400" lon="0.099460">
        <ele>1243.052</ele>
        <time>2010-06-13T19:29:11Z</time>
      </trkpt>
      <trkpt lat="42.667790" lon="0.098880">
        <ele>1244.090</ele>
        <time>2010-06-13T19:30:08Z</time>
      </trkpt>
      <trkpt lat="42.667960" lon="0.098250">
        <ele>1246.092</ele>
        <time>2010-06-13T19:30:59Z</time>
      </trkpt>
      <trkpt lat="42.667940" lon="0.097910">
        <ele>1247.072</ele>
        <time>2010-06-13T19:31:23Z</time>
      </trkpt>
      <trkpt lat="42.668020" lon="0.097120">
        <ele>1248.013</ele>
        <time>2010-06-13T19:32:22Z</time>
      </trkpt>
      <trkpt lat="42.668240" lon="0.096410">
        <ele>1251.014</ele>
        <time>2010-06-13T19:33:19Z</time>
      </trkpt>
      <trkpt lat="42.668410" lon="0.095680">
        <ele>1250.006</ele>
        <time>2010-06-13T19:34:15Z</time>
      </trkpt>
      <trkpt lat="42.668470" lon="0.095270">
        <ele>1249.096</ele>
        <time>2010-06-13T19:34:45Z</time>
      </trkpt>
      <trkpt lat="42.668670" lon="0.094950">
        <ele>1249.013</ele>
        <time>2010-06-13T19:35:17Z</time>
      </trkpt>
      <trkpt lat="42.668690" lon="0.094840">
        <ele>1249.080</ele>
        <time>2010-06-13T19:35:25Z</time>
      </trkpt>
      <trkpt lat="42.668710" lon="0.094820">
        <ele>1249.058</ele>
        <time>2010-06-13T19:35:27Z</time>
      </trkpt>
      <trkpt lat="42.669010" lon="0.094200">
        <ele>1248.066</ele>
        <time>2010-06-13T19:36:22Z</time>
      </trkpt>
      <trkpt lat="42.669270" lon="0.093470">
        <ele>1247.038</ele>
        <time>2010-06-13T19:37:21Z</time>
      </trkpt>
      <trkpt lat="42.669460" lon="0.092830">
        <ele>1247.088</ele>
        <time>2010-06-13T19:38:12Z</time>
      </trkpt>
      <trkpt lat="42.669850" lon="0.092270">
        <ele>1248.024</ele>
        <time>2010-06-13T19:39:10Z</time>
      </trkpt>
      <trkpt lat="42.670190" lon="0.091600">
        <ele>1249.026</ele>
        <time>2010-06-13T19:40:10Z</time>
      </trkpt>
      <trkpt lat="42.670340" lon="0.091350">
        <ele>1249.006</ele>
        <time>2010-06-13T19:40:32Z</time>
      </trkpt>
      <trkpt lat="42.670530" lon="0.091150">
        <ele>1250.077</ele>
        <time>2010-06-13T19:40:56Z</time>
      </trkpt>
      <trkpt lat="42.670980" lon="0.090790">
        <ele>1253.054</ele>
        <time>2010-06-13T19:41:49Z</time>
      </trkpt>
      <trkpt lat="42.671110" lon="0.090740">
        <ele>1253.091</ele>
        <time>2010-06-13T19:42:03Z</time>
      </trkpt>
      <trkpt lat="42.671280" lon="0.090700">
        <ele>1256.039</ele>
        <time>2010-06-13T19:42:21Z</time>
      </trkpt>
      <trkpt lat="42.671330" lon="0.090660">
        <ele>1256.037</ele>
        <time>2010-06-13T19:42:25Z</time>
      </trkpt>
      <trkpt lat="42.671370" lon="0.090680">
        <ele>1256.019</ele>
        <time>2010-06-13T19:42:30Z</time>
      </trkpt>
      <trkpt lat="42.671520" lon="0.090700">
        <ele>1256.031</ele>
        <time>2010-06-13T19:42:46Z</time>
      </trkpt>
      <trkpt lat="42.671540" lon="0.090720">
        <ele>1260.061</ele>
        <time>2010-06-13T19:42:48Z</time>
      </trkpt>
      <trkpt lat="42.671560" lon="0.090660">
        <ele>1259.007</ele>
        <time>2010-06-13T19:42:52Z</time>
      </trkpt>
      <trkpt lat="42.671630" lon="0.090620">
        <ele>1259.006</ele>
        <time>2010-06-13T19:43:00Z</time>
      </trkpt>
      <trkpt lat="42.671610" lon="0.090530">
        <ele>1259.022</ele>
        <time>2010-06-13T19:43:08Z</time>
      </trkpt>
      <trkpt lat="42.671540" lon="0.090470">
        <ele>1259.019</ele>
        <time>2010-06-13T19:43:15Z</time>
      </trkpt>
      <trkpt lat="42.671410" lon="0.090230">
        <ele>1257.066</ele>
        <time>2010-06-13T19:43:37Z</time>
      </trkpt>
      <trkpt lat="42.671460" lon="0.090060">
        <ele>1258.044</ele>
        <time>2010-06-13T19:43:50Z</time>
      </trkpt>
      <trkpt lat="42.671480" lon="0.090040">
        <ele>1258.092</ele>
        <time>2010-06-13T19:43:53Z</time>
      </trkpt>
      <trkpt lat="42.671590" lon="0.089840">
        <ele>1260.094</ele>
        <time>2010-06-13T19:44:12Z</time>
      </trkpt>
      <trkpt lat="42.671590" lon="0.089800">
        <ele>1260.045</ele>
        <time>2010-06-13T19:44:15Z</time>
      </trkpt>
      <trkpt lat="42.671820" lon="0.089390">
        <ele>1261.047</ele>
        <time>2010-06-13T19:44:53Z</time>
      </trkpt>
      <trkpt lat="42.672290" lon="0.088880">
        <ele>1262.011</ele>
        <time>2010-06-13T19:45:52Z</time>
      </trkpt>
      <trkpt lat="42.672830" lon="0.088640">
        <ele>1263.006</ele>
        <time>2010-06-13T19:46:50Z</time>
      </trkpt>
      <trkpt lat="42.672980" lon="0.088490">
        <ele>1264.033</ele>
        <time>2010-06-13T19:47:09Z</time>
      </trkpt>
      <trkpt lat="42.673090" lon="0.088320">
        <ele>1264.050</ele>
        <time>2010-06-13T19:47:25Z</time>
      </trkpt>
      <trkpt lat="42.673150" lon="0.088170">
        <ele>1265.047</ele>
        <time>2010-06-13T19:47:37Z</time>
      </trkpt>
      <trkpt lat="42.673370" lon="0.087800">
        <ele>1267.085</ele>
        <time>2010-06-13T19:48:12Z</time>
      </trkpt>
      <trkpt lat="42.673320" lon="0.087650">
        <ele>1267.023</ele>
        <time>2010-06-13T19:48:25Z</time>
      </trkpt>
      <trkpt lat="42.673750" lon="0.087650">
        <ele>1265.055</ele>
        <time>2010-06-13T19:49:08Z</time>
      </trkpt>
      <trkpt lat="42.674120" lon="0.087500">
        <ele>1265.013</ele>
        <time>2010-06-13T19:49:46Z</time>
      </trkpt>
      <trkpt lat="42.674480" lon="0.087180">
        <ele>1265.043</ele>
        <time>2010-06-13T19:50:29Z</time>
      </trkpt>
      <trkpt lat="42.674700" lon="0.086840">
        <ele>1266.007</ele>
        <time>2010-06-13T19:51:03Z</time>
      </trkpt>
      <trkpt lat="42.674870" lon="0.086090">
        <ele>1270.006</ele>
        <time>2010-06-13T19:52:00Z</time>
      </trkpt>
      <trkpt lat="42.675100" lon="0.085700">
        <ele>1272.050</ele>
        <time>2010-06-13T19:52:38Z</time>
      </trkpt>
      <trkpt lat="42.675550" lon="0.085570">
        <ele>1271.027</ele>
        <time>2010-06-13T19:53:23Z</time>
      </trkpt>
      <trkpt lat="42.676310" lon="0.085210">
        <ele>1272.024</ele>
        <time>2010-06-13T19:54:44Z</time>
      </trkpt>
      <trkpt lat="42.676690" lon="0.084910">
        <ele>1272.022</ele>
        <time>2010-06-13T19:55:27Z</time>
      </trkpt>
      <trkpt lat="42.676840" lon="0.084780">
        <ele>1273.050</ele>
        <time>2010-06-13T19:55:46Z</time>
      </trkpt>
      <trkpt lat="42.676840" lon="0.084760">
        <ele>1273.082</ele>
        <time>2010-06-13T19:55:46Z</time>
      </trkpt>
      <trkpt lat="42.676990" lon="0.084070">
        <ele>1277.081</ele>
        <time>2010-06-13T19:56:40Z</time>
      </trkpt>
      <trkpt lat="42.677080" lon="0.083620">
        <ele>1283.061</ele>
        <time>2010-06-13T19:57:15Z</time>
      </trkpt>
      <trkpt lat="42.677080" lon="0.083680">
        <ele>1283.017</ele>
        <time>2010-06-13T19:57:18Z</time>
      </trkpt>
      <trkpt lat="42.677400" lon="0.084070">
        <ele>1276.006</ele>
        <time>2010-06-13T19:58:01Z</time>
      </trkpt>
      <trkpt lat="42.677810" lon="0.084710">
        <ele>1272.087</ele>
        <time>2010-06-13T19:59:04Z</time>
      </trkpt>
      <trkpt lat="42.677830" lon="0.084670">
        <ele>1272.054</ele>
        <time>2010-06-13T19:59:07Z</time>
      </trkpt>
      <trkpt lat="42.677830" lon="0.084760">
        <ele>1272.061</ele>
        <time>2010-06-13T19:59:15Z</time>
      </trkpt>
      <trkpt lat="42.677920" lon="0.084840">
        <ele>1271.049</ele>
        <time>2010-06-13T19:59:24Z</time>
      </trkpt>
      <trkpt lat="42.677920" lon="0.084890">
        <ele>1271.027</ele>
        <time>2010-06-13T19:59:29Z</time>
      </trkpt>
      <trkpt lat="42.677850" lon="0.084990">
        <ele>1271.079</ele>
        <time>2010-06-13T19:59:39Z</time>
      </trkpt>
      <trkpt lat="42.677830" lon="0.084930">
        <ele>1271.081</ele>
        <time>2010-06-13T19:59:43Z</time>
      </trkpt>
      <trkpt lat="42.677310" lon="0.085210">
        <ele>1270.061</ele>
        <time>2010-06-13T20:00:39Z</time>
      </trkpt>
      <trkpt lat="42.677290" lon="0.085230">
        <ele>1270.017</ele>
        <time>2010-06-13T20:00:42Z</time>
      </trkpt>
      <trkpt lat="42.677120" lon="0.085590">
        <ele>1270.006</ele>
        <time>2010-06-13T20:01:14Z</time>
      </trkpt>
      <trkpt lat="42.677160" lon="0.085660">
        <ele>1270.057</ele>
        <time>2010-06-13T20:01:20Z</time>
      </trkpt>
      <trkpt lat="42.677080" lon="0.085960">
        <ele>1270.024</ele>
        <time>2010-06-13T20:01:43Z</time>
      </trkpt>
      <trkpt lat="42.677290" lon="0.086090">
        <ele>1272.071</ele>
        <time>2010-06-13T20:02:07Z</time>
      </trkpt>
      <trkpt lat="42.678070" lon="0.085570">
        <ele>1272.019</ele>
        <time>2010-06-13T20:03:34Z</time>
      </trkpt>
      <trkpt lat="42.678390" lon="0.085620">
        <ele>1274.087</ele>
        <time>2010-06-13T20:04:06Z</time>
      </trkpt>
      <trkpt lat="42.678430" lon="0.085740">
        <ele>1277.039</ele>
        <time>2010-06-13T20:04:16Z</time>
      </trkpt>
      <trkpt lat="42.678540" lon="0.085660">
        <ele>1276.012</ele>
        <time>2010-06-13T20:04:28Z</time>
      </trkpt>
      <trkpt lat="42.678710" lon="0.085740">
        <ele>1279.032</ele>
        <time>2010-06-13T20:04:46Z</time>
      </trkpt>
      <trkpt lat="42.679030" lon="0.086020">
        <ele>1299.005</ele>
        <time>2010-06-13T20:05:24Z</time>
      </trkpt>
      <trkpt lat="42.679250" lon="0.086070">
        <ele>1299.006</ele>
        <time>2010-06-13T20:05:46Z</time>
      </trkpt>
      <trkpt lat="42.679440" lon="0.086020">
        <ele>1311.040</ele>
        <time>2010-06-13T20:06:05Z</time>
      </trkpt>
      <trkpt lat="42.679520" lon="0.086000">
        <ele>1311.067</ele>
        <time>2010-06-13T20:06:13Z</time>
      </trkpt>
      <trkpt lat="42.679870" lon="0.085810">
        <ele>1332.094</ele>
        <time>2010-06-13T20:06:52Z</time>
      </trkpt>
      <trkpt lat="42.679980" lon="0.085720">
        <ele>1332.032</ele>
        <time>2010-06-13T20:07:04Z</time>
      </trkpt>
      <trkpt lat="42.679890" lon="0.085420">
        <ele>1322.090</ele>
        <time>2010-06-13T20:07:28Z</time>
      </trkpt>
      <trkpt lat="42.679930" lon="0.085680">
        <ele>1322.042</ele>
        <time>2010-06-13T20:07:47Z</time>
      </trkpt>
      <trkpt lat="42.680250" lon="0.085720">
        <ele>1348.057</ele>
        <time>2010-06-13T20:08:19Z</time>
      </trkpt>
      <trkpt lat="42.682570" lon="0.083660">
        <ele>1430.000</ele>
        <time>2010-06-13T20:12:58Z</time>
      </trkpt>
      <trkpt lat="42.682360" lon="0.084330">
        <ele>1435.020</ele>
        <time>2010-06-13T20:13:50Z</time>
      </trkpt>
      <trkpt lat="42.682360" lon="0.084350">
        <ele>1435.006</ele>
        <time>2010-06-13T20:13:52Z</time>
      </trkpt>
      <trkpt lat="42.682420" lon="0.084370">
        <ele>1458.024</ele>
        <time>2010-06-13T20:13:58Z</time>
      </trkpt>
      <trkpt lat="42.682440" lon="0.084500">
        <ele>1458.041</ele>
        <time>2010-06-13T20:14:08Z</time>
      </trkpt>
      <trkpt lat="42.682440" lon="0.084460">
        <ele>1458.018</ele>
        <time>2010-06-13T20:14:11Z</time>
      </trkpt>
      <trkpt lat="42.683710" lon="0.084140">
        <ele>1512.036</ele>
        <time>2010-06-13T20:16:21Z</time>
      </trkpt>
      <trkpt lat="42.683880" lon="0.084010">
        <ele>1516.034</ele>
        <time>2010-06-13T20:16:40Z</time>
      </trkpt>
      <trkpt lat="42.683920" lon="0.084030">
        <ele>1520.076</ele>
        <time>2010-06-13T20:16:44Z</time>
      </trkpt>
      <trkpt lat="42.683940" lon="0.084010">
        <ele>1516.083</ele>
        <time>2010-06-13T20:16:47Z</time>
      </trkpt>
      <trkpt lat="42.683970" lon="0.083960">
        <ele>1516.025</ele>
        <time>2010-06-13T20:16:52Z</time>
      </trkpt>
      <trkpt lat="42.683970" lon="0.083840">
        <ele>1516.017</ele>
        <time>2010-06-13T20:17:00Z</time>
      </trkpt>
      <trkpt lat="42.684030" lon="0.083790">
        <ele>1525.006</ele>
        <time>2010-06-13T20:17:08Z</time>
      </trkpt>
      <trkpt lat="42.684140" lon="0.083790">
        <ele>1525.057</ele>
        <time>2010-06-13T20:17:19Z</time>
      </trkpt>
      <trkpt lat="42.684200" lon="0.083790">
        <ele>1525.084</ele>
        <time>2010-06-13T20:17:25Z</time>
      </trkpt>
      <trkpt lat="42.684220" lon="0.083810">
        <ele>1525.021</ele>
        <time>2010-06-13T20:17:27Z</time>
      </trkpt>
      <trkpt lat="42.684310" lon="0.083860">
        <ele>1534.049</ele>
        <time>2010-06-13T20:17:36Z</time>
      </trkpt>
      <trkpt lat="42.684330" lon="0.083860">
        <ele>1534.057</ele>
        <time>2010-06-13T20:17:38Z</time>
      </trkpt>
      <trkpt lat="42.684290" lon="0.083880">
        <ele>1525.019</ele>
        <time>2010-06-13T20:17:43Z</time>
      </trkpt>
      <trkpt lat="42.684250" lon="0.083380">
        <ele>1518.049</ele>
        <time>2010-06-13T20:18:19Z</time>
      </trkpt>
      <trkpt lat="42.684370" lon="0.083340">
        <ele>1528.002</ele>
        <time>2010-06-13T20:18:32Z</time>
      </trkpt>
      <trkpt lat="42.684460" lon="0.083560">
        <ele>1531.022</ele>
        <time>2010-06-13T20:18:51Z</time>
      </trkpt>
      <trkpt lat="42.684460" lon="0.083660">
        <ele>1531.006</ele>
        <time>2010-06-13T20:18:58Z</time>
      </trkpt>
      <trkpt lat="42.684440" lon="0.083860">
        <ele>1534.023</ele>
        <time>2010-06-13T20:19:13Z</time>
      </trkpt>
      <trkpt lat="42.684520" lon="0.083840">
        <ele>1534.030</ele>
        <time>2010-06-13T20:19:20Z</time>
      </trkpt>
      <trkpt lat="42.684550" lon="0.083880">
        <ele>1534.047</ele>
        <time>2010-06-13T20:19:26Z</time>
      </trkpt>
      <trkpt lat="42.684550" lon="0.083860">
        <ele>1534.015</ele>
        <time>2010-06-13T20:19:26Z</time>
      </trkpt>
      <trkpt lat="42.684700" lon="0.083880">
        <ele>1542.063</ele>
        <time>2010-06-13T20:19:42Z</time>
      </trkpt>
      <trkpt lat="42.684740" lon="0.083840">
        <ele>1542.015</ele>
        <time>2010-06-13T20:19:47Z</time>
      </trkpt>
      <trkpt lat="42.684800" lon="0.083710">
        <ele>1540.027</ele>
        <time>2010-06-13T20:19:58Z</time>
      </trkpt>
      <trkpt lat="42.684910" lon="0.083640">
        <ele>1548.068</ele>
        <time>2010-06-13T20:20:11Z</time>
      </trkpt>
      <trkpt lat="42.685000" lon="0.083620">
        <ele>1548.014</ele>
        <time>2010-06-13T20:20:20Z</time>
      </trkpt>
      <trkpt lat="42.685380" lon="0.083380">
        <ele>1553.006</ele>
        <time>2010-06-13T20:21:02Z</time>
      </trkpt>
      <trkpt lat="42.685530" lon="0.083320">
        <ele>1559.061</ele>
        <time>2010-06-13T20:21:17Z</time>
      </trkpt>
      <trkpt lat="42.685850" lon="0.083380">
        <ele>1565.088</ele>
        <time>2010-06-13T20:21:49Z</time>
      </trkpt>
      <trkpt lat="42.686050" lon="0.083380">
        <ele>1569.055</ele>
        <time>2010-06-13T20:22:10Z</time>
      </trkpt>
      <trkpt lat="42.686350" lon="0.083530">
        <ele>1573.023</ele>
        <time>2010-06-13T20:22:42Z</time>
      </trkpt>
      <trkpt lat="42.686460" lon="0.083620">
        <ele>1573.021</ele>
        <time>2010-06-13T20:22:55Z</time>
      </trkpt>
      <trkpt lat="42.686560" lon="0.083750">
        <ele>1574.053</ele>
        <time>2010-06-13T20:23:07Z</time>
      </trkpt>
      <trkpt lat="42.686580" lon="0.083860">
        <ele>1574.086</ele>
        <time>2010-06-13T20:23:17Z</time>
      </trkpt>
      <trkpt lat="42.686650" lon="0.084010">
        <ele>1574.060</ele>
        <time>2010-06-13T20:23:30Z</time>
      </trkpt>
      <trkpt lat="42.686630" lon="0.084070">
        <ele>1574.026</ele>
        <time>2010-06-13T20:23:35Z</time>
      </trkpt>
      <trkpt lat="42.686540" lon="0.084220">
        <ele>1574.006</ele>
        <time>2010-06-13T20:23:49Z</time>
      </trkpt>
      <trkpt lat="42.686520" lon="0.084410">
        <ele>1573.027</ele>
        <time>2010-06-13T20:24:03Z</time>
      </trkpt>
      <trkpt lat="42.686520" lon="0.084740">
        <ele>1575.044</ele>
        <time>2010-06-13T20:24:27Z</time>
      </trkpt>
      <trkpt lat="42.686500" lon="0.084760">
        <ele>1575.021</ele>
        <time>2010-06-13T20:24:29Z</time>
      </trkpt>
      <trkpt lat="42.686610" lon="0.084760">
        <ele>1575.099</ele>
        <time>2010-06-13T20:24:41Z</time>
      </trkpt>
      <trkpt lat="42.686650" lon="0.084820">
        <ele>1575.077</ele>
        <time>2010-06-13T20:24:46Z</time>
      </trkpt>
      <trkpt lat="42.686630" lon="0.084840">
        <ele>1575.059</ele>
        <time>2010-06-13T20:24:48Z</time>
      </trkpt>
      <trkpt lat="42.686630" lon="0.084930">
        <ele>1577.027</ele>
        <time>2010-06-13T20:24:56Z</time>
      </trkpt>
      <trkpt lat="42.686690" lon="0.085190">
        <ele>1579.068</ele>
        <time>2010-06-13T20:25:16Z</time>
      </trkpt>
      <trkpt lat="42.686840" lon="0.085570">
        <ele>1582.014</ele>
        <time>2010-06-13T20:25:48Z</time>
      </trkpt>
      <trkpt lat="42.686950" lon="0.085740">
        <ele>1586.006</ele>
        <time>2010-06-13T20:26:04Z</time>
      </trkpt>
      <trkpt lat="42.687100" lon="0.086070">
        <ele>1590.051</ele>
        <time>2010-06-13T20:26:33Z</time>
      </trkpt>
      <trkpt lat="42.687140" lon="0.086240">
        <ele>1590.058</ele>
        <time>2010-06-13T20:26:46Z</time>
      </trkpt>
      <trkpt lat="42.687140" lon="0.086600">
        <ele>1603.015</ele>
        <time>2010-06-13T20:27:11Z</time>
      </trkpt>
      <trkpt lat="42.687080" lon="0.086690">
        <ele>1604.093</ele>
        <time>2010-06-13T20:27:21Z</time>
      </trkpt>
      <trkpt lat="42.687010" lon="0.086670">
        <ele>1604.081</ele>
        <time>2010-06-13T20:27:27Z</time>
      </trkpt>
      <trkpt lat="42.686970" lon="0.086710">
        <ele>1604.063</ele>
        <time>2010-06-13T20:27:33Z</time>
      </trkpt>
      <trkpt lat="42.687010" lon="0.086800">
        <ele>1604.082</ele>
        <time>2010-06-13T20:27:40Z</time>
      </trkpt>
      <trkpt lat="42.687010" lon="0.086900">
        <ele>1612.043</ele>
        <time>2010-06-13T20:27:49Z</time>
      </trkpt>
      <trkpt lat="42.686950" lon="0.086930">
        <ele>1612.017</ele>
        <time>2010-06-13T20:27:55Z</time>
      </trkpt>
      <trkpt lat="42.686950" lon="0.087160">
        <ele>1621.006</ele>
        <time>2010-06-13T20:28:12Z</time>
      </trkpt>
      <trkpt lat="42.686840" lon="0.087250">
        <ele>1621.067</ele>
        <time>2010-06-13T20:28:24Z</time>
      </trkpt>
      <trkpt lat="42.686880" lon="0.087350">
        <ele>1621.064</ele>
        <time>2010-06-13T20:28:32Z</time>
      </trkpt>
      <trkpt lat="42.686860" lon="0.087420">
        <ele>1630.011</ele>
        <time>2010-06-13T20:28:39Z</time>
      </trkpt>
      <trkpt lat="42.686800" lon="0.087460">
        <ele>1630.059</ele>
        <time>2010-06-13T20:28:45Z</time>
      </trkpt>
      <trkpt lat="42.686800" lon="0.087500">
        <ele>1630.077</ele>
        <time>2010-06-13T20:28:48Z</time>
      </trkpt>
      <trkpt lat="42.686820" lon="0.087590">
        <ele>1630.089</ele>
        <time>2010-06-13T20:28:55Z</time>
      </trkpt>
      <trkpt lat="42.686800" lon="0.087650">
        <ele>1640.084</ele>
        <time>2010-06-13T20:28:59Z</time>
      </trkpt>
      <trkpt lat="42.686760" lon="0.087700">
        <ele>1640.007</ele>
        <time>2010-06-13T20:29:04Z</time>
      </trkpt>
      <trkpt lat="42.686690" lon="0.087890">
        <ele>1640.017</ele>
        <time>2010-06-13T20:29:21Z</time>
      </trkpt>
      <trkpt lat="42.686690" lon="0.087930">
        <ele>1648.006</ele>
        <time>2010-06-13T20:29:23Z</time>
      </trkpt>
      <trkpt lat="42.686650" lon="0.087980">
        <ele>1648.017</ele>
        <time>2010-06-13T20:29:28Z</time>
      </trkpt>
      <trkpt lat="42.686650" lon="0.088130">
        <ele>1648.094</ele>
        <time>2010-06-13T20:29:39Z</time>
      </trkpt>
      <trkpt lat="42.686780" lon="0.088320">
        <ele>1658.091</ele>
        <time>2010-06-13T20:30:00Z</time>
      </trkpt>
      <trkpt lat="42.686860" lon="0.088360">
        <ele>1657.039</ele>
        <time>2010-06-13T20:30:08Z</time>
      </trkpt>
      <trkpt lat="42.686990" lon="0.088380">
        <ele>1657.087</ele>
        <time>2010-06-13T20:30:20Z</time>
      </trkpt>
      <trkpt lat="42.687140" lon="0.088490">
        <ele>1667.069</ele>
        <time>2010-06-13T20:30:38Z</time>
      </trkpt>
      <trkpt lat="42.687290" lon="0.088730">
        <ele>1667.026</ele>
        <time>2010-06-13T20:31:00Z</time>
      </trkpt>
      <trkpt lat="42.687380" lon="0.088830">
        <ele>1677.047</ele>
        <time>2010-06-13T20:31:13Z</time>
      </trkpt>
      <trkpt lat="42.687550" lon="0.089140">
        <ele>1687.011</ele>
        <time>2010-06-13T20:31:42Z</time>
      </trkpt>
      <trkpt lat="42.687810" lon="0.089330">
        <ele>1697.006</ele>
        <time>2010-06-13T20:32:10Z</time>
      </trkpt>
      <trkpt lat="42.687960" lon="0.089480">
        <ele>1695.051</ele>
        <time>2010-06-13T20:32:29Z</time>
      </trkpt>
      <trkpt lat="42.687980" lon="0.089610">
        <ele>1704.038</ele>
        <time>2010-06-13T20:32:39Z</time>
      </trkpt>
      <trkpt lat="42.688020" lon="0.089650">
        <ele>1704.055</ele>
        <time>2010-06-13T20:32:44Z</time>
      </trkpt>
      <trkpt lat="42.688130" lon="0.089800">
        <ele>1704.023</ele>
        <time>2010-06-13T20:33:00Z</time>
      </trkpt>
      <trkpt lat="42.688240" lon="0.089840">
        <ele>1702.061</ele>
        <time>2010-06-13T20:33:11Z</time>
      </trkpt>
      <trkpt lat="42.688260" lon="0.089890">
        <ele>1712.053</ele>
        <time>2010-06-13T20:33:16Z</time>
      </trkpt>
      <trkpt lat="42.688360" lon="0.090040">
        <ele>1712.096</ele>
        <time>2010-06-13T20:33:30Z</time>
      </trkpt>
      <trkpt lat="42.688430" lon="0.090270">
        <ele>1724.031</ele>
        <time>2010-06-13T20:33:49Z</time>
      </trkpt>
      <trkpt lat="42.688390" lon="0.090290">
        <ele>1724.024</ele>
        <time>2010-06-13T20:33:52Z</time>
      </trkpt>
      <trkpt lat="42.688410" lon="0.090400">
        <ele>1724.006</ele>
        <time>2010-06-13T20:34:00Z</time>
      </trkpt>
      <trkpt lat="42.688520" lon="0.090490">
        <ele>1734.098</ele>
        <time>2010-06-13T20:34:14Z</time>
      </trkpt>
      <trkpt lat="42.688620" lon="0.090590">
        <ele>1734.065</ele>
        <time>2010-06-13T20:34:27Z</time>
      </trkpt>
      <trkpt lat="42.688580" lon="0.090640">
        <ele>1734.092</ele>
        <time>2010-06-13T20:34:32Z</time>
      </trkpt>
      <trkpt lat="42.688620" lon="0.090790">
        <ele>1748.050</ele>
        <time>2010-06-13T20:34:43Z</time>
      </trkpt>
      <trkpt lat="42.688670" lon="0.090890">
        <ele>1748.098</ele>
        <time>2010-06-13T20:34:53Z</time>
      </trkpt>
      <trkpt lat="42.688710" lon="0.090940">
        <ele>1748.050</ele>
        <time>2010-06-13T20:34:58Z</time>
      </trkpt>
      <trkpt lat="42.688730" lon="0.091000">
        <ele>1764.089</ele>
        <time>2010-06-13T20:35:02Z</time>
      </trkpt>
      <trkpt lat="42.688820" lon="0.091020">
        <ele>1757.006</ele>
        <time>2010-06-13T20:35:12Z</time>
      </trkpt>
      <trkpt lat="42.688840" lon="0.091040">
        <ele>1757.026</ele>
        <time>2010-06-13T20:35:15Z</time>
      </trkpt>
      <trkpt lat="42.688920" lon="0.091070">
        <ele>1757.006</ele>
        <time>2010-06-13T20:35:23Z</time>
      </trkpt>
      <trkpt lat="42.688920" lon="0.091150">
        <ele>1757.077</ele>
        <time>2010-06-13T20:35:28Z</time>
      </trkpt>
      <trkpt lat="42.688970" lon="0.091220">
        <ele>1757.094</ele>
        <time>2010-06-13T20:35:36Z</time>
      </trkpt>
      <trkpt lat="42.689030" lon="0.091280">
        <ele>1765.021</ele>
        <time>2010-06-13T20:35:42Z</time>
      </trkpt>
      <trkpt lat="42.689030" lon="0.091390">
        <ele>1765.049</ele>
        <time>2010-06-13T20:35:52Z</time>
      </trkpt>
      <trkpt lat="42.689140" lon="0.091470">
        <ele>1765.077</ele>
        <time>2010-06-13T20:36:03Z</time>
      </trkpt>
      <trkpt lat="42.689160" lon="0.091560">
        <ele>1780.099</ele>
        <time>2010-06-13T20:36:11Z</time>
      </trkpt>
      <trkpt lat="42.689180" lon="0.091580">
        <ele>1780.092</ele>
        <time>2010-06-13T20:36:12Z</time>
      </trkpt>
      <trkpt lat="42.689200" lon="0.091650">
        <ele>1780.073</ele>
        <time>2010-06-13T20:36:19Z</time>
      </trkpt>
      <trkpt lat="42.689220" lon="0.091690">
        <ele>1780.020</ele>
        <time>2010-06-13T20:36:22Z</time>
      </trkpt>
      <trkpt lat="42.689350" lon="0.091820">
        <ele>1786.006</ele>
        <time>2010-06-13T20:36:38Z</time>
      </trkpt>
      <trkpt lat="42.689390" lon="0.091880">
        <ele>1786.058</ele>
        <time>2010-06-13T20:36:44Z</time>
      </trkpt>
      <trkpt lat="42.689350" lon="0.091950">
        <ele>1786.045</ele>
        <time>2010-06-13T20:36:51Z</time>
      </trkpt>
      <trkpt lat="42.689370" lon="0.092120">
        <ele>1799.062</ele>
        <time>2010-06-13T20:37:03Z</time>
      </trkpt>
      <trkpt lat="42.689420" lon="0.092250">
        <ele>1799.030</ele>
        <time>2010-06-13T20:37:14Z</time>
      </trkpt>
      <trkpt lat="42.689440" lon="0.092380">
        <ele>1810.058</ele>
        <time>2010-06-13T20:37:24Z</time>
      </trkpt>
      <trkpt lat="42.689460" lon="0.092400">
        <ele>1810.070</ele>
        <time>2010-06-13T20:37:27Z</time>
      </trkpt>
      <trkpt lat="42.689460" lon="0.092460">
        <ele>1810.051</ele>
        <time>2010-06-13T20:37:30Z</time>
      </trkpt>
      <trkpt lat="42.689630" lon="0.092590">
        <ele>1802.001</ele>
        <time>2010-06-13T20:37:51Z</time>
      </trkpt>
      <trkpt lat="42.689350" lon="0.092980">
        <ele>1833.011</ele>
        <time>2010-06-13T20:38:31Z</time>
      </trkpt>
      <trkpt lat="42.689420" lon="0.093260">
        <ele>1843.006</ele>
        <time>2010-06-13T20:38:53Z</time>
      </trkpt>
      <trkpt lat="42.689330" lon="0.093340">
        <ele>1843.074</ele>
        <time>2010-06-13T20:39:03Z</time>
      </trkpt>
      <trkpt lat="42.689370" lon="0.093300">
        <ele>1843.071</ele>
        <time>2010-06-13T20:39:07Z</time>
      </trkpt>
      <trkpt lat="42.689350" lon="0.093320">
        <ele>1843.048</ele>
        <time>2010-06-13T20:39:11Z</time>
      </trkpt>
      <trkpt lat="42.689350" lon="0.093190">
        <ele>1833.096</ele>
        <time>2010-06-13T20:39:20Z</time>
      </trkpt>
      <trkpt lat="42.689310" lon="0.093100">
        <ele>1833.044</ele>
        <time>2010-06-13T20:39:28Z</time>
      </trkpt>
      <trkpt lat="42.689030" lon="0.093320">
        <ele>1853.096</ele>
        <time>2010-06-13T20:40:00Z</time>
      </trkpt>
      <trkpt lat="42.688880" lon="0.094010">
        <ele>1883.094</ele>
        <time>2010-06-13T20:40:53Z</time>
      </trkpt>
      <trkpt lat="42.689240" lon="0.094130">
        <ele>1880.057</ele>
        <time>2010-06-13T20:41:29Z</time>
      </trkpt>
      <trkpt lat="42.689090" lon="0.094390">
        <ele>1889.022</ele>
        <time>2010-06-13T20:41:55Z</time>
      </trkpt>
      <trkpt lat="42.689200" lon="0.094050">
        <ele>1880.006</ele>
        <time>2010-06-13T20:42:22Z</time>
      </trkpt>
      <trkpt lat="42.688970" lon="0.094290">
        <ele>1892.048</ele>
        <time>2010-06-13T20:42:50Z</time>
      </trkpt>
      <trkpt lat="42.688900" lon="0.094180">
        <ele>1892.055</ele>
        <time>2010-06-13T20:43:01Z</time>
      </trkpt>
      <trkpt lat="42.688900" lon="0.093980">
        <ele>1883.032</ele>
        <time>2010-06-13T20:43:16Z</time>
      </trkpt>
      <trkpt lat="42.688790" lon="0.093710">
        <ele>1875.040</ele>
        <time>2010-06-13T20:43:38Z</time>
      </trkpt>
      <trkpt lat="42.688690" lon="0.093750">
        <ele>1897.038</ele>
        <time>2010-06-13T20:43:49Z</time>
      </trkpt>
      <trkpt lat="42.688540" lon="0.093680">
        <ele>1888.020</ele>
        <time>2010-06-13T20:44:05Z</time>
      </trkpt>
      <trkpt lat="42.688260" lon="0.093580">
        <ele>1902.072</ele>
        <time>2010-06-13T20:44:35Z</time>
      </trkpt>
      <trkpt lat="42.688170" lon="0.093510">
        <ele>1914.013</ele>
        <time>2010-06-13T20:44:45Z</time>
      </trkpt>
      <trkpt lat="42.688060" lon="0.093510">
        <ele>1914.014</ele>
        <time>2010-06-13T20:44:56Z</time>
      </trkpt>
      <trkpt lat="42.688020" lon="0.093470">
        <ele>1904.006</ele>
        <time>2010-06-13T20:45:01Z</time>
      </trkpt>
      <trkpt lat="42.687740" lon="0.093300">
        <ele>1913.026</ele>
        <time>2010-06-13T20:45:31Z</time>
      </trkpt>
      <trkpt lat="42.687680" lon="0.093320">
        <ele>1913.063</ele>
        <time>2010-06-13T20:45:37Z</time>
      </trkpt>
      <trkpt lat="42.687550" lon="0.093260">
        <ele>1919.030</ele>
        <time>2010-06-13T20:45:50Z</time>
      </trkpt>
      <trkpt lat="42.687380" lon="0.093130">
        <ele>1907.068</ele>
        <time>2010-06-13T20:46:11Z</time>
      </trkpt>
      <trkpt lat="42.687100" lon="0.093020">
        <ele>1909.066</ele>
        <time>2010-06-13T20:46:40Z</time>
      </trkpt>
      <trkpt lat="42.686950" lon="0.093060">
        <ele>1909.028</ele>
        <time>2010-06-13T20:46:55Z</time>
      </trkpt>
      <trkpt lat="42.686840" lon="0.093360">
        <ele>1919.089</ele>
        <time>2010-06-13T20:47:19Z</time>
      </trkpt>
      <trkpt lat="42.686800" lon="0.093510">
        <ele>1924.006</ele>
        <time>2010-06-13T20:47:32Z</time>
      </trkpt>
      <trkpt lat="42.686670" lon="0.093730">
        <ele>1924.026</ele>
        <time>2010-06-13T20:47:53Z</time>
      </trkpt>
      <trkpt lat="42.686540" lon="0.093770">
        <ele>1932.006</ele>
        <time>2010-06-13T20:48:06Z</time>
      </trkpt>
      <trkpt lat="42.686580" lon="0.093810">
        <ele>1932.087</ele>
        <time>2010-06-13T20:48:10Z</time>
      </trkpt>
      <trkpt lat="42.686430" lon="0.094070">
        <ele>1935.044</ele>
        <time>2010-06-13T20:48:34Z</time>
      </trkpt>
      <trkpt lat="42.686350" lon="0.094160">
        <ele>1935.061</ele>
        <time>2010-06-13T20:48:45Z</time>
      </trkpt>
      <trkpt lat="42.686350" lon="0.094180">
        <ele>1935.089</ele>
        <time>2010-06-13T20:48:47Z</time>
      </trkpt>
      <trkpt lat="42.686330" lon="0.094290">
        <ele>1935.027</ele>
        <time>2010-06-13T20:48:55Z</time>
      </trkpt>
      <trkpt lat="42.686220" lon="0.094440">
        <ele>1941.099</ele>
        <time>2010-06-13T20:49:11Z</time>
      </trkpt>
      <trkpt lat="42.686150" lon="0.094630">
        <ele>1947.073</ele>
        <time>2010-06-13T20:49:27Z</time>
      </trkpt>
      <trkpt lat="42.686130" lon="0.094820">
        <ele>1947.085</ele>
        <time>2010-06-13T20:49:41Z</time>
      </trkpt>
      <trkpt lat="42.686000" lon="0.095230">
        <ele>1961.013</ele>
        <time>2010-06-13T20:50:13Z</time>
      </trkpt>
      <trkpt lat="42.685960" lon="0.095290">
        <ele>1961.006</ele>
        <time>2010-06-13T20:50:19Z</time>
      </trkpt>
      <trkpt lat="42.685900" lon="0.095490">
        <ele>1968.086</ele>
        <time>2010-06-13T20:50:35Z</time>
      </trkpt>
      <trkpt lat="42.685790" lon="0.095700">
        <ele>1977.093</ele>
        <time>2010-06-13T20:50:54Z</time>
      </trkpt>
      <trkpt lat="42.685700" lon="0.095530">
        <ele>1968.090</ele>
        <time>2010-06-13T20:51:10Z</time>
      </trkpt>
      <trkpt lat="42.685620" lon="0.095310">
        <ele>1965.068</ele>
        <time>2010-06-13T20:51:28Z</time>
      </trkpt>
      <trkpt lat="42.685550" lon="0.095250">
        <ele>1965.056</ele>
        <time>2010-06-13T20:51:36Z</time>
      </trkpt>
      <trkpt lat="42.685530" lon="0.095160">
        <ele>1965.038</ele>
        <time>2010-06-13T20:51:42Z</time>
      </trkpt>
      <trkpt lat="42.685470" lon="0.095080">
        <ele>1959.059</ele>
        <time>2010-06-13T20:51:51Z</time>
      </trkpt>
      <trkpt lat="42.685320" lon="0.095530">
        <ele>1974.003</ele>
        <time>2010-06-13T20:52:28Z</time>
      </trkpt>
      <trkpt lat="42.685250" lon="0.095510">
        <ele>1974.023</ele>
        <time>2010-06-13T20:52:35Z</time>
      </trkpt>
      <trkpt lat="42.685190" lon="0.095420">
        <ele>1974.006</ele>
        <time>2010-06-13T20:52:44Z</time>
      </trkpt>
      <trkpt lat="42.685120" lon="0.095420">
        <ele>1975.044</ele>
        <time>2010-06-13T20:52:50Z</time>
      </trkpt>
      <trkpt lat="42.685150" lon="0.095400">
        <ele>1969.051</ele>
        <time>2010-06-13T20:52:54Z</time>
      </trkpt>
      <trkpt lat="42.685120" lon="0.095380">
        <ele>1971.048</ele>
        <time>2010-06-13T20:52:58Z</time>
      </trkpt>
      <trkpt lat="42.685100" lon="0.095420">
        <ele>1975.066</ele>
        <time>2010-06-13T20:53:00Z</time>
      </trkpt>
      <trkpt lat="42.684870" lon="0.095570">
        <ele>1975.054</ele>
        <time>2010-06-13T20:53:27Z</time>
      </trkpt>
      <trkpt lat="42.684520" lon="0.095830">
        <ele>1973.016</ele>
        <time>2010-06-13T20:54:07Z</time>
      </trkpt>
      <trkpt lat="42.684400" lon="0.095980">
        <ele>1977.033</ele>
        <time>2010-06-13T20:54:23Z</time>
      </trkpt>
      <trkpt lat="42.684070" lon="0.096430">
        <ele>1975.023</ele>
        <time>2010-06-13T20:55:09Z</time>
      </trkpt>
      <trkpt lat="42.683940" lon="0.096670">
        <ele>1972.015</ele>
        <time>2010-06-13T20:55:31Z</time>
      </trkpt>
      <trkpt lat="42.683900" lon="0.096900">
        <ele>1977.006</ele>
        <time>2010-06-13T20:55:49Z</time>
      </trkpt>
      <trkpt lat="42.683820" lon="0.097100">
        <ele>1981.072</ele>
        <time>2010-06-13T20:56:06Z</time>
      </trkpt>
      <trkpt lat="42.683820" lon="0.097200">
        <ele>1981.069</ele>
        <time>2010-06-13T20:56:13Z</time>
      </trkpt>
      <trkpt lat="42.683690" lon="0.097350">
        <ele>1973.076</ele>
        <time>2010-06-13T20:56:30Z</time>
      </trkpt>
      <trkpt lat="42.683490" lon="0.097700">
        <ele>1982.064</ele>
        <time>2010-06-13T20:57:03Z</time>
      </trkpt>
      <trkpt lat="42.683450" lon="0.097830">
        <ele>1975.082</ele>
        <time>2010-06-13T20:57:13Z</time>
      </trkpt>
      <trkpt lat="42.683410" lon="0.098100">
        <ele>1979.014</ele>
        <time>2010-06-13T20:57:32Z</time>
      </trkpt>
      <trkpt lat="42.683320" lon="0.098320">
        <ele>1983.049</ele>
        <time>2010-06-13T20:57:51Z</time>
      </trkpt>
      <trkpt lat="42.683190" lon="0.098560">
        <ele>1980.002</ele>
        <time>2010-06-13T20:58:14Z</time>
      </trkpt>
      <trkpt lat="42.683190" lon="0.098600">
        <ele>1980.022</ele>
        <time>2010-06-13T20:58:17Z</time>
      </trkpt>
      <trkpt lat="42.683090" lon="0.098900">
        <ele>1983.006</ele>
        <time>2010-06-13T20:58:41Z</time>
      </trkpt>
      <trkpt lat="42.682830" lon="0.099480">
        <ele>1982.063</ele>
        <time>2010-06-13T20:59:30Z</time>
      </trkpt>
      <trkpt lat="42.682640" lon="0.099820">
        <ele>1984.080</ele>
        <time>2010-06-13T21:00:02Z</time>
      </trkpt>
      <trkpt lat="42.682360" lon="0.100400">
        <ele>1981.057</ele>
        <time>2010-06-13T21:00:53Z</time>
      </trkpt>
      <trkpt lat="42.682310" lon="0.100660">
        <ele>1983.095</ele>
        <time>2010-06-13T21:01:12Z</time>
      </trkpt>
      <trkpt lat="42.682230" lon="0.101220">
        <ele>1988.033</ele>
        <time>2010-06-13T21:01:55Z</time>
      </trkpt>
      <trkpt lat="42.682230" lon="0.101520">
        <ele>1991.025</ele>
        <time>2010-06-13T21:02:16Z</time>
      </trkpt>
      <trkpt lat="42.682250" lon="0.101560">
        <ele>1993.071</ele>
        <time>2010-06-13T21:02:20Z</time>
      </trkpt>
      <trkpt lat="42.682340" lon="0.101640">
        <ele>1993.041</ele>
        <time>2010-06-13T21:02:32Z</time>
      </trkpt>
      <trkpt lat="42.682340" lon="0.101690">
        <ele>1993.015</ele>
        <time>2010-06-13T21:02:35Z</time>
      </trkpt>
      <trkpt lat="42.682310" lon="0.101770">
        <ele>1993.006</ele>
        <time>2010-06-13T21:02:41Z</time>
      </trkpt>
      <trkpt lat="42.682290" lon="0.101880">
        <ele>1995.046</ele>
        <time>2010-06-13T21:02:49Z</time>
      </trkpt>
      <trkpt lat="42.682310" lon="0.102010">
        <ele>1995.053</ele>
        <time>2010-06-13T21:03:00Z</time>
      </trkpt>
      <trkpt lat="42.682380" lon="0.102200">
        <ele>2002.020</ele>
        <time>2010-06-13T21:03:16Z</time>
      </trkpt>
      <trkpt lat="42.682400" lon="0.102370">
        <ele>2004.088</ele>
        <time>2010-06-13T21:03:27Z</time>
      </trkpt>
      <trkpt lat="42.682380" lon="0.102830">
        <ele>2007.086</ele>
        <time>2010-06-13T21:04:01Z</time>
      </trkpt>
      <trkpt lat="42.682400" lon="0.102950">
        <ele>2012.058</ele>
        <time>2010-06-13T21:04:10Z</time>
      </trkpt>
      <trkpt lat="42.682360" lon="0.103280">
        <ele>2010.024</ele>
        <time>2010-06-13T21:04:36Z</time>
      </trkpt>
      <trkpt lat="42.682310" lon="0.103320">
        <ele>2010.004</ele>
        <time>2010-06-13T21:04:42Z</time>
      </trkpt>
      <trkpt lat="42.682250" lon="0.103580">
        <ele>2015.014</ele>
        <time>2010-06-13T21:05:01Z</time>
      </trkpt>
      <trkpt lat="42.682210" lon="0.103830">
        <ele>2019.006</ele>
        <time>2010-06-13T21:05:20Z</time>
      </trkpt>
      <trkpt lat="42.682100" lon="0.104090">
        <ele>2025.071</ele>
        <time>2010-06-13T21:05:43Z</time>
      </trkpt>
      <trkpt lat="42.682010" lon="0.104180">
        <ele>2017.088</ele>
        <time>2010-06-13T21:05:54Z</time>
      </trkpt>
      <trkpt lat="42.681910" lon="0.104520">
        <ele>2022.025</ele>
        <time>2010-06-13T21:06:21Z</time>
      </trkpt>
      <trkpt lat="42.681840" lon="0.104610">
        <ele>2028.083</ele>
        <time>2010-06-13T21:06:30Z</time>
      </trkpt>
      <trkpt lat="42.681840" lon="0.104760">
        <ele>2028.091</ele>
        <time>2010-06-13T21:06:40Z</time>
      </trkpt>
      <trkpt lat="42.681860" lon="0.104840">
        <ele>2028.013</ele>
        <time>2010-06-13T21:06:48Z</time>
      </trkpt>
      <trkpt lat="42.681820" lon="0.104930">
        <ele>2034.089</ele>
        <time>2010-06-13T21:06:54Z</time>
      </trkpt>
      <trkpt lat="42.681820" lon="0.105040">
        <ele>2034.006</ele>
        <time>2010-06-13T21:07:02Z</time>
      </trkpt>
      <trkpt lat="42.681780" lon="0.105120">
        <ele>2026.026</ele>
        <time>2010-06-13T21:07:10Z</time>
      </trkpt>
      <trkpt lat="42.681730" lon="0.105550">
        <ele>2036.006</ele>
        <time>2010-06-13T21:07:43Z</time>
      </trkpt>
      <trkpt lat="42.681520" lon="0.105940">
        <ele>2037.057</ele>
        <time>2010-06-13T21:08:18Z</time>
      </trkpt>
      <trkpt lat="42.681460" lon="0.106090">
        <ele>2043.024</ele>
        <time>2010-06-13T21:08:31Z</time>
      </trkpt>
      <trkpt lat="42.681370" lon="0.106090">
        <ele>2043.051</ele>
        <time>2010-06-13T21:08:39Z</time>
      </trkpt>
      <trkpt lat="42.681370" lon="0.106110">
        <ele>2043.019</ele>
        <time>2010-06-13T21:08:41Z</time>
      </trkpt>
      <trkpt lat="42.681410" lon="0.106220">
        <ele>2043.097</ele>
        <time>2010-06-13T21:08:50Z</time>
      </trkpt>
      <trkpt lat="42.681480" lon="0.106300">
        <ele>2050.059</ele>
        <time>2010-06-13T21:08:58Z</time>
      </trkpt>
      <trkpt lat="42.681500" lon="0.106430">
        <ele>2050.014</ele>
        <time>2010-06-13T21:09:09Z</time>
      </trkpt>
      <trkpt lat="42.681410" lon="0.106690">
        <ele>2056.054</ele>
        <time>2010-06-13T21:09:29Z</time>
      </trkpt>
      <trkpt lat="42.681410" lon="0.106900">
        <ele>2063.009</ele>
        <time>2010-06-13T21:09:46Z</time>
      </trkpt>
      <trkpt lat="42.681430" lon="0.106950">
        <ele>2063.006</ele>
        <time>2010-06-13T21:09:49Z</time>
      </trkpt>
      <trkpt lat="42.681500" lon="0.107030">
        <ele>2063.040</ele>
        <time>2010-06-13T21:09:59Z</time>
      </trkpt>
      <trkpt lat="42.681480" lon="0.107100">
        <ele>2068.047</ele>
        <time>2010-06-13T21:10:04Z</time>
      </trkpt>
      <trkpt lat="42.681480" lon="0.107250">
        <ele>2068.034</ele>
        <time>2010-06-13T21:10:16Z</time>
      </trkpt>
      <trkpt lat="42.681430" lon="0.107250">
        <ele>2068.072</ele>
        <time>2010-06-13T21:10:21Z</time>
      </trkpt>
      <trkpt lat="42.681370" lon="0.107310">
        <ele>2068.050</ele>
        <time>2010-06-13T21:10:28Z</time>
      </trkpt>
      <trkpt lat="42.681310" lon="0.107460">
        <ele>2074.072</ele>
        <time>2010-06-13T21:10:40Z</time>
      </trkpt>
      <trkpt lat="42.681280" lon="0.107480">
        <ele>2074.055</ele>
        <time>2010-06-13T21:10:43Z</time>
      </trkpt>
      <trkpt lat="42.681220" lon="0.107700">
        <ele>2079.007</ele>
        <time>2010-06-13T21:11:01Z</time>
      </trkpt>
      <trkpt lat="42.681180" lon="0.108020">
        <ele>2083.017</ele>
        <time>2010-06-13T21:11:25Z</time>
      </trkpt>
      <trkpt lat="42.681220" lon="0.108150">
        <ele>2083.006</ele>
        <time>2010-06-13T21:11:34Z</time>
      </trkpt>
      <trkpt lat="42.681220" lon="0.108300">
        <ele>2087.024</ele>
        <time>2010-06-13T21:11:47Z</time>
      </trkpt>
      <trkpt lat="42.681160" lon="0.108640">
        <ele>2091.071</ele>
        <time>2010-06-13T21:12:11Z</time>
      </trkpt>
      <trkpt lat="42.681090" lon="0.108790">
        <ele>2094.048</ele>
        <time>2010-06-13T21:12:24Z</time>
      </trkpt>
      <trkpt lat="42.681070" lon="0.108920">
        <ele>2094.086</ele>
        <time>2010-06-13T21:12:35Z</time>
      </trkpt>
      <trkpt lat="42.681010" lon="0.109000">
        <ele>2094.074</ele>
        <time>2010-06-13T21:12:43Z</time>
      </trkpt>
      <trkpt lat="42.680980" lon="0.109130">
        <ele>2097.016</ele>
        <time>2010-06-13T21:12:54Z</time>
      </trkpt>
      <trkpt lat="42.680940" lon="0.109200">
        <ele>2096.023</ele>
        <time>2010-06-13T21:12:59Z</time>
      </trkpt>
      <trkpt lat="42.680850" lon="0.109260">
        <ele>2096.083</ele>
        <time>2010-06-13T21:13:10Z</time>
      </trkpt>
      <trkpt lat="42.680600" lon="0.109630">
        <ele>2095.011</ele>
        <time>2010-06-13T21:13:47Z</time>
      </trkpt>
      <trkpt lat="42.680340" lon="0.110140">
        <ele>2091.006</ele>
        <time>2010-06-13T21:14:33Z</time>
      </trkpt>
      <trkpt lat="42.680060" lon="0.110590">
        <ele>2087.071</ele>
        <time>2010-06-13T21:15:16Z</time>
      </trkpt>
      <trkpt lat="42.680100" lon="0.110460">
        <ele>2087.078</ele>
        <time>2010-06-13T21:15:25Z</time>
      </trkpt>
      <trkpt lat="42.680020" lon="0.110610">
        <ele>2087.085</ele>
        <time>2010-06-13T21:15:40Z</time>
      </trkpt>
      <trkpt lat="42.679700" lon="0.111150">
        <ele>2082.063</ele>
        <time>2010-06-13T21:16:31Z</time>
      </trkpt>
      <trkpt lat="42.679350" lon="0.111710">
        <ele>2079.091</ele>
        <time>2010-06-13T21:17:25Z</time>
      </trkpt>
      <trkpt lat="42.679140" lon="0.111990">
        <ele>2076.073</ele>
        <time>2010-06-13T21:17:55Z</time>
      </trkpt>
      <trkpt lat="42.678970" lon="0.112350">
        <ele>2072.034</ele>
        <time>2010-06-13T21:18:25Z</time>
      </trkpt>
      <trkpt lat="42.678670" lon="0.112890">
        <ele>2069.055</ele>
        <time>2010-06-13T21:19:16Z</time>
      </trkpt>
      <trkpt lat="42.678370" lon="0.113320">
        <ele>2068.010</ele>
        <time>2010-06-13T21:19:59Z</time>
      </trkpt>
      <trkpt lat="42.678240" lon="0.113470">
        <ele>2068.006</ele>
        <time>2010-06-13T21:20:17Z</time>
      </trkpt>
      <trkpt lat="42.677760" lon="0.114130">
        <ele>2068.062</ele>
        <time>2010-06-13T21:21:25Z</time>
      </trkpt>
      <trkpt lat="42.677460" lon="0.115140">
        <ele>2073.089</ele>
        <time>2010-06-13T21:22:45Z</time>
      </trkpt>
      <trkpt lat="42.677340" lon="0.115490">
        <ele>2071.046</ele>
        <time>2010-06-13T21:23:13Z</time>
      </trkpt>
      <trkpt lat="42.677160" lon="0.115940">
        <ele>2073.074</ele>
        <time>2010-06-13T21:23:51Z</time>
      </trkpt>
      <trkpt lat="42.676840" lon="0.116840">
        <ele>2076.072</ele>
        <time>2010-06-13T21:25:05Z</time>
      </trkpt>
      <trkpt lat="42.676630" lon="0.117070">
        <ele>2072.064</ele>
        <time>2010-06-13T21:25:32Z</time>
      </trkpt>
      <trkpt lat="42.676480" lon="0.117370">
        <ele>2069.079</ele>
        <time>2010-06-13T21:25:57Z</time>
      </trkpt>
      <trkpt lat="42.676370" lon="0.117740">
        <ele>2071.005</ele>
        <time>2010-06-13T21:26:28Z</time>
      </trkpt>
      <trkpt lat="42.676200" lon="0.117950">
        <ele>2068.025</ele>
        <time>2010-06-13T21:26:50Z</time>
      </trkpt>
      <trkpt lat="42.675900" lon="0.118530">
        <ele>2066.006</ele>
        <time>2010-06-13T21:27:42Z</time>
      </trkpt>
      <trkpt lat="42.675750" lon="0.119030">
        <ele>2071.086</ele>
        <time>2010-06-13T21:28:22Z</time>
      </trkpt>
      <trkpt lat="42.675750" lon="0.119110">
        <ele>2071.043</ele>
        <time>2010-06-13T21:28:28Z</time>
      </trkpt>
      <trkpt lat="42.675700" lon="0.119430">
        <ele>2074.020</ele>
        <time>2010-06-13T21:28:52Z</time>
      </trkpt>
      <trkpt lat="42.675580" lon="0.119710">
        <ele>2070.068</ele>
        <time>2010-06-13T21:29:16Z</time>
      </trkpt>
      <trkpt lat="42.675580" lon="0.119860">
        <ele>2070.086</ele>
        <time>2010-06-13T21:29:26Z</time>
      </trkpt>
      <trkpt lat="42.675600" lon="0.120080">
        <ele>2074.088</ele>
        <time>2010-06-13T21:29:43Z</time>
      </trkpt>
      <trkpt lat="42.675550" lon="0.120210">
        <ele>2078.055</ele>
        <time>2010-06-13T21:29:54Z</time>
      </trkpt>
      <trkpt lat="42.675530" lon="0.120360">
        <ele>2078.007</ele>
        <time>2010-06-13T21:30:06Z</time>
      </trkpt>
      <trkpt lat="42.675530" lon="0.120640">
        <ele>2083.017</ele>
        <time>2010-06-13T21:30:26Z</time>
      </trkpt>
      <trkpt lat="42.675490" lon="0.120830">
        <ele>2089.006</ele>
        <time>2010-06-13T21:30:41Z</time>
      </trkpt>
      <trkpt lat="42.675490" lon="0.120940">
        <ele>2089.054</ele>
        <time>2010-06-13T21:30:49Z</time>
      </trkpt>
      <trkpt lat="42.675470" lon="0.121040">
        <ele>2095.081</ele>
        <time>2010-06-13T21:30:57Z</time>
      </trkpt>
      <trkpt lat="42.675470" lon="0.121130">
        <ele>2095.068</ele>
        <time>2010-06-13T21:31:03Z</time>
      </trkpt>
      <trkpt lat="42.675430" lon="0.121340">
        <ele>2100.026</ele>
        <time>2010-06-13T21:31:19Z</time>
      </trkpt>
      <trkpt lat="42.675430" lon="0.121510">
        <ele>2100.014</ele>
        <time>2010-06-13T21:31:32Z</time>
      </trkpt>
      <trkpt lat="42.675430" lon="0.121640">
        <ele>2106.046</ele>
        <time>2010-06-13T21:31:41Z</time>
      </trkpt>
      <trkpt lat="42.675400" lon="0.121710">
        <ele>2095.064</ele>
        <time>2010-06-13T21:31:46Z</time>
      </trkpt>
      <trkpt lat="42.675400" lon="0.121880">
        <ele>2100.006</ele>
        <time>2010-06-13T21:31:59Z</time>
      </trkpt>
      <trkpt lat="42.675360" lon="0.122050">
        <ele>2100.016</ele>
        <time>2010-06-13T21:32:13Z</time>
      </trkpt>
      <trkpt lat="42.675400" lon="0.122240">
        <ele>2105.006</ele>
        <time>2010-06-13T21:32:27Z</time>
      </trkpt>
      <trkpt lat="42.675430" lon="0.122310">
        <ele>2117.065</ele>
        <time>2010-06-13T21:32:32Z</time>
      </trkpt>
      <trkpt lat="42.675430" lon="0.122480">
        <ele>2122.072</ele>
        <time>2010-06-13T21:32:46Z</time>
      </trkpt>
      <trkpt lat="42.675450" lon="0.122670">
        <ele>2126.069</ele>
        <time>2010-06-13T21:32:59Z</time>
      </trkpt>
      <trkpt lat="42.675470" lon="0.122760">
        <ele>2126.087</ele>
        <time>2010-06-13T21:33:07Z</time>
      </trkpt>
      <trkpt lat="42.675450" lon="0.122850">
        <ele>2126.055</ele>
        <time>2010-06-13T21:33:13Z</time>
      </trkpt>
      <trkpt lat="42.675530" lon="0.123000">
        <ele>2131.017</ele>
        <time>2010-06-13T21:33:26Z</time>
      </trkpt>
      <trkpt lat="42.675530" lon="0.123060">
        <ele>2131.061</ele>
        <time>2010-06-13T21:33:31Z</time>
      </trkpt>
      <trkpt lat="42.675580" lon="0.123080">
        <ele>2131.021</ele>
        <time>2010-06-13T21:33:37Z</time>
      </trkpt>
      <trkpt lat="42.675680" lon="0.123150">
        <ele>2131.013</ele>
        <time>2010-06-13T21:33:47Z</time>
      </trkpt>
      <trkpt lat="42.675680" lon="0.123300">
        <ele>2135.006</ele>
        <time>2010-06-13T21:33:58Z</time>
      </trkpt>
      <trkpt lat="42.675730" lon="0.123340">
        <ele>2141.015</ele>
        <time>2010-06-13T21:34:04Z</time>
      </trkpt>
      <trkpt lat="42.675810" lon="0.123420">
        <ele>2141.092</ele>
        <time>2010-06-13T21:34:15Z</time>
      </trkpt>
      <trkpt lat="42.675860" lon="0.123450">
        <ele>2141.069</ele>
        <time>2010-06-13T21:34:20Z</time>
      </trkpt>
      <trkpt lat="42.675900" lon="0.123170">
        <ele>2138.087</ele>
        <time>2010-06-13T21:34:41Z</time>
      </trkpt>
      <trkpt lat="42.675860" lon="0.123360">
        <ele>2141.095</ele>
        <time>2010-06-13T21:34:55Z</time>
      </trkpt>
      <trkpt lat="42.675920" lon="0.123450">
        <ele>2141.027</ele>
        <time>2010-06-13T21:35:05Z</time>
      </trkpt>
      <trkpt lat="42.676200" lon="0.123360">
        <ele>2144.067</ele>
        <time>2010-06-13T21:35:34Z</time>
      </trkpt>
      <trkpt lat="42.676240" lon="0.123360">
        <ele>2144.081</ele>
        <time>2010-06-13T21:35:38Z</time>
      </trkpt>
      <trkpt lat="42.676430" lon="0.123300">
        <ele>2146.019</ele>
        <time>2010-06-13T21:35:57Z</time>
      </trkpt>
      <trkpt lat="42.676580" lon="0.123300">
        <ele>2144.006</ele>
        <time>2010-06-13T21:36:12Z</time>
      </trkpt>
      <trkpt lat="42.676630" lon="0.123340">
        <ele>2144.055</ele>
        <time>2010-06-13T21:36:18Z</time>
      </trkpt>
      <trkpt lat="42.676800" lon="0.123700">
        <ele>2143.082</ele>
        <time>2010-06-13T21:36:50Z</time>
      </trkpt>
      <trkpt lat="42.676910" lon="0.123750">
        <ele>2138.029</ele>
        <time>2010-06-13T21:37:01Z</time>
      </trkpt>
      <trkpt lat="42.676970" lon="0.123810">
        <ele>2138.067</ele>
        <time>2010-06-13T21:37:09Z</time>
      </trkpt>
      <trkpt lat="42.677060" lon="0.123810">
        <ele>2138.095</ele>
        <time>2010-06-13T21:37:17Z</time>
      </trkpt>
      <trkpt lat="42.677160" lon="0.123850">
        <ele>2132.037</ele>
        <time>2010-06-13T21:37:28Z</time>
      </trkpt>
      <trkpt lat="42.677190" lon="0.123830">
        <ele>2132.036</ele>
        <time>2010-06-13T21:37:31Z</time>
      </trkpt>
      <trkpt lat="42.677250" lon="0.123830">
        <ele>2132.017</ele>
        <time>2010-06-13T21:37:38Z</time>
      </trkpt>
      <trkpt lat="42.677290" lon="0.123810">
        <ele>2132.018</ele>
        <time>2010-06-13T21:37:42Z</time>
      </trkpt>
      <trkpt lat="42.677440" lon="0.123660">
        <ele>2128.006</ele>
        <time>2010-06-13T21:38:00Z</time>
      </trkpt>
      <trkpt lat="42.677610" lon="0.123600">
        <ele>2128.012</ele>
        <time>2010-06-13T21:38:18Z</time>
      </trkpt>
      <trkpt lat="42.677610" lon="0.123570">
        <ele>2128.059</ele>
        <time>2010-06-13T21:38:19Z</time>
      </trkpt>
      <trkpt lat="42.677700" lon="0.123490">
        <ele>2122.086</ele>
        <time>2010-06-13T21:38:30Z</time>
      </trkpt>
      <trkpt lat="42.677760" lon="0.123470">
        <ele>2123.084</ele>
        <time>2010-06-13T21:38:37Z</time>
      </trkpt>
      <trkpt lat="42.677790" lon="0.123470">
        <ele>2123.022</ele>
        <time>2010-06-13T21:38:40Z</time>
      </trkpt>
      <trkpt lat="42.677960" lon="0.123400">
        <ele>2117.014</ele>
        <time>2010-06-13T21:38:57Z</time>
      </trkpt>
      <trkpt lat="42.678110" lon="0.123400">
        <ele>2117.042</ele>
        <time>2010-06-13T21:39:12Z</time>
      </trkpt>
      <trkpt lat="42.678280" lon="0.123190">
        <ele>2113.022</ele>
        <time>2010-06-13T21:39:36Z</time>
      </trkpt>
      <trkpt lat="42.678430" lon="0.123060">
        <ele>2113.014</ele>
        <time>2010-06-13T21:39:53Z</time>
      </trkpt>
      <trkpt lat="42.678560" lon="0.122870">
        <ele>2109.006</ele>
        <time>2010-06-13T21:40:12Z</time>
      </trkpt>
      <trkpt lat="42.679050" lon="0.122720">
        <ele>2096.043</ele>
        <time>2010-06-13T21:41:03Z</time>
      </trkpt>
      <trkpt lat="42.679250" lon="0.122870">
        <ele>2096.030</ele>
        <time>2010-06-13T21:41:25Z</time>
      </trkpt>
      <trkpt lat="42.679460" lon="0.122970">
        <ele>2086.027</ele>
        <time>2010-06-13T21:41:48Z</time>
      </trkpt>
      <trkpt lat="42.679500" lon="0.123080">
        <ele>2086.075</ele>
        <time>2010-06-13T21:41:57Z</time>
      </trkpt>
      <trkpt lat="42.679500" lon="0.123150">
        <ele>2086.053</ele>
        <time>2010-06-13T21:42:02Z</time>
      </trkpt>
      <trkpt lat="42.679500" lon="0.123250">
        <ele>2083.075</ele>
        <time>2010-06-13T21:42:10Z</time>
      </trkpt>
      <trkpt lat="42.679550" lon="0.123470">
        <ele>2083.069</ele>
        <time>2010-06-13T21:42:26Z</time>
      </trkpt>
      <trkpt lat="42.679570" lon="0.123600">
        <ele>2081.004</ele>
        <time>2010-06-13T21:42:35Z</time>
      </trkpt>
      <trkpt lat="42.679610" lon="0.123700">
        <ele>2071.024</ele>
        <time>2010-06-13T21:42:45Z</time>
      </trkpt>
      <trkpt lat="42.679650" lon="0.123660">
        <ele>2071.006</ele>
        <time>2010-06-13T21:42:50Z</time>
      </trkpt>
      <trkpt lat="42.679650" lon="0.123600">
        <ele>2071.045</ele>
        <time>2010-06-13T21:42:54Z</time>
      </trkpt>
      <trkpt lat="42.679670" lon="0.123600">
        <ele>2071.042</ele>
        <time>2010-06-13T21:42:56Z</time>
      </trkpt>
      <trkpt lat="42.679670" lon="0.123530">
        <ele>2071.019</ele>
        <time>2010-06-13T21:43:01Z</time>
      </trkpt>
      <trkpt lat="42.679720" lon="0.123490">
        <ele>2071.047</ele>
        <time>2010-06-13T21:43:07Z</time>
      </trkpt>
      <trkpt lat="42.679760" lon="0.123420">
        <ele>2073.025</ele>
        <time>2010-06-13T21:43:14Z</time>
      </trkpt>
      <trkpt lat="42.679760" lon="0.123380">
        <ele>2073.067</ele>
        <time>2010-06-13T21:43:17Z</time>
      </trkpt>
      <trkpt lat="42.679800" lon="0.123380">
        <ele>2073.015</ele>
        <time>2010-06-13T21:43:20Z</time>
      </trkpt>
      <trkpt lat="42.679870" lon="0.123320">
        <ele>2063.065</ele>
        <time>2010-06-13T21:43:29Z</time>
      </trkpt>
      <trkpt lat="42.679850" lon="0.123320">
        <ele>2073.011</ele>
        <time>2010-06-13T21:43:31Z</time>
      </trkpt>
      <trkpt lat="42.679890" lon="0.123250">
        <ele>2063.006</ele>
        <time>2010-06-13T21:43:36Z</time>
      </trkpt>
      <trkpt lat="42.679930" lon="0.123270">
        <ele>2063.070</ele>
        <time>2010-06-13T21:43:42Z</time>
      </trkpt>
      <trkpt lat="42.679980" lon="0.123380">
        <ele>2063.097</ele>
        <time>2010-06-13T21:43:50Z</time>
      </trkpt>
      <trkpt lat="42.680020" lon="0.123320">
        <ele>2063.054</ele>
        <time>2010-06-13T21:43:57Z</time>
      </trkpt>
      <trkpt lat="42.680040" lon="0.123320">
        <ele>2063.052</ele>
        <time>2010-06-13T21:43:58Z</time>
      </trkpt>
      <trkpt lat="42.680040" lon="0.123270">
        <ele>2063.080</ele>
        <time>2010-06-13T21:44:03Z</time>
      </trkpt>
      <trkpt lat="42.680130" lon="0.123300">
        <ele>2063.072</ele>
        <time>2010-06-13T21:44:11Z</time>
      </trkpt>
      <trkpt lat="42.680100" lon="0.123250">
        <ele>2063.036</ele>
        <time>2010-06-13T21:44:17Z</time>
      </trkpt>
      <trkpt lat="42.680100" lon="0.123170">
        <ele>2068.017</ele>
        <time>2010-06-13T21:44:22Z</time>
      </trkpt>
      <trkpt lat="42.680210" lon="0.123120">
        <ele>2059.018</ele>
        <time>2010-06-13T21:44:33Z</time>
      </trkpt>
      <trkpt lat="42.680280" lon="0.123300">
        <ele>2052.006</ele>
        <time>2010-06-13T21:44:49Z</time>
      </trkpt>
      <trkpt lat="42.680360" lon="0.123320">
        <ele>2052.032</ele>
        <time>2010-06-13T21:44:57Z</time>
      </trkpt>
      <trkpt lat="42.680400" lon="0.123470">
        <ele>2052.029</ele>
        <time>2010-06-13T21:45:08Z</time>
      </trkpt>
      <trkpt lat="42.680530" lon="0.123550">
        <ele>2036.046</ele>
        <time>2010-06-13T21:45:23Z</time>
      </trkpt>
      <trkpt lat="42.680600" lon="0.123620">
        <ele>2036.054</ele>
        <time>2010-06-13T21:45:32Z</time>
      </trkpt>
      <trkpt lat="42.680680" lon="0.123750">
        <ele>2029.042</ele>
        <time>2010-06-13T21:45:45Z</time>
      </trkpt>
      <trkpt lat="42.680700" lon="0.123830">
        <ele>2020.034</ele>
        <time>2010-06-13T21:45:50Z</time>
      </trkpt>
      <trkpt lat="42.680790" lon="0.123960">
        <ele>2020.089</ele>
        <time>2010-06-13T21:46:04Z</time>
      </trkpt>
      <trkpt lat="42.680830" lon="0.124070">
        <ele>2013.006</ele>
        <time>2010-06-13T21:46:12Z</time>
      </trkpt>
      <trkpt lat="42.680920" lon="0.124200">
        <ele>2013.026</ele>
        <time>2010-06-13T21:46:25Z</time>
      </trkpt>
      <trkpt lat="42.681090" lon="0.124480">
        <ele>2002.006</ele>
        <time>2010-06-13T21:46:53Z</time>
      </trkpt>
      <trkpt lat="42.681240" lon="0.124650">
        <ele>1996.067</ele>
        <time>2010-06-13T21:47:12Z</time>
      </trkpt>
      <trkpt lat="42.681350" lon="0.124650">
        <ele>1993.034</ele>
        <time>2010-06-13T21:47:22Z</time>
      </trkpt>
      <trkpt lat="42.681430" lon="0.124580">
        <ele>2000.051</ele>
        <time>2010-06-13T21:47:33Z</time>
      </trkpt>
      <trkpt lat="42.681520" lon="0.124690">
        <ele>1993.059</ele>
        <time>2010-06-13T21:47:44Z</time>
      </trkpt>
      <trkpt lat="42.681520" lon="0.124710">
        <ele>1993.047</ele>
        <time>2010-06-13T21:47:47Z</time>
      </trkpt>
      <trkpt lat="42.681560" lon="0.124820">
        <ele>1992.059</ele>
        <time>2010-06-13T21:47:55Z</time>
      </trkpt>
      <trkpt lat="42.681540" lon="0.124840">
        <ele>1992.069</ele>
        <time>2010-06-13T21:47:57Z</time>
      </trkpt>
      <trkpt lat="42.681560" lon="0.124970">
        <ele>1984.004</ele>
        <time>2010-06-13T21:48:08Z</time>
      </trkpt>
      <trkpt lat="42.681690" lon="0.125180">
        <ele>1977.024</ele>
        <time>2010-06-13T21:48:27Z</time>
      </trkpt>
      <trkpt lat="42.681820" lon="0.125290">
        <ele>1977.006</ele>
        <time>2010-06-13T21:48:43Z</time>
      </trkpt>
      <trkpt lat="42.681860" lon="0.125610">
        <ele>1970.035</ele>
        <time>2010-06-13T21:49:07Z</time>
      </trkpt>
      <trkpt lat="42.682010" lon="0.125760">
        <ele>1963.022</ele>
        <time>2010-06-13T21:49:26Z</time>
      </trkpt>
      <trkpt lat="42.681990" lon="0.125940">
        <ele>1963.099</ele>
        <time>2010-06-13T21:49:39Z</time>
      </trkpt>
      <trkpt lat="42.681910" lon="0.126170">
        <ele>1957.057</ele>
        <time>2010-06-13T21:49:58Z</time>
      </trkpt>
      <trkpt lat="42.681880" lon="0.126260">
        <ele>1952.095</ele>
        <time>2010-06-13T21:50:04Z</time>
      </trkpt>
      <trkpt lat="42.681950" lon="0.126450">
        <ele>1952.047</ele>
        <time>2010-06-13T21:50:20Z</time>
      </trkpt>
      <trkpt lat="42.681950" lon="0.126580">
        <ele>1948.063</ele>
        <time>2010-06-13T21:50:30Z</time>
      </trkpt>
      <trkpt lat="42.681990" lon="0.127030">
        <ele>1945.044</ele>
        <time>2010-06-13T21:51:03Z</time>
      </trkpt>
      <trkpt lat="42.682060" lon="0.127350">
        <ele>1942.018</ele>
        <time>2010-06-13T21:51:27Z</time>
      </trkpt>
      <trkpt lat="42.682060" lon="0.127760">
        <ele>1936.006</ele>
        <time>2010-06-13T21:51:57Z</time>
      </trkpt>
      <trkpt lat="42.682080" lon="0.127760">
        <ele>1936.015</ele>
        <time>2010-06-13T21:51:59Z</time>
      </trkpt>
      <trkpt lat="42.682120" lon="0.127820">
        <ele>1929.052</ele>
        <time>2010-06-13T21:52:05Z</time>
      </trkpt>
      <trkpt lat="42.682120" lon="0.128020">
        <ele>1927.029</ele>
        <time>2010-06-13T21:52:21Z</time>
      </trkpt>
      <trkpt lat="42.682160" lon="0.128230">
        <ele>1925.097</ele>
        <time>2010-06-13T21:52:37Z</time>
      </trkpt>
      <trkpt lat="42.682160" lon="0.128300">
        <ele>1925.035</ele>
        <time>2010-06-13T21:52:42Z</time>
      </trkpt>
      <trkpt lat="42.682120" lon="0.128320">
        <ele>1925.057</ele>
        <time>2010-06-13T21:52:47Z</time>
      </trkpt>
      <trkpt lat="42.682120" lon="0.128510">
        <ele>1922.037</ele>
        <time>2010-06-13T21:53:00Z</time>
      </trkpt>
      <trkpt lat="42.682210" lon="0.128700">
        <ele>1922.049</ele>
        <time>2010-06-13T21:53:17Z</time>
      </trkpt>
      <trkpt lat="42.682310" lon="0.128790">
        <ele>1918.013</ele>
        <time>2010-06-13T21:53:28Z</time>
      </trkpt>
      <trkpt lat="42.682400" lon="0.128830">
        <ele>1918.006</ele>
        <time>2010-06-13T21:53:38Z</time>
      </trkpt>
      <trkpt lat="42.682490" lon="0.129090">
        <ele>1915.092</ele>
        <time>2010-06-13T21:54:00Z</time>
      </trkpt>
      <trkpt lat="42.682530" lon="0.129070">
        <ele>1915.099</ele>
        <time>2010-06-13T21:54:03Z</time>
      </trkpt>
      <trkpt lat="42.682550" lon="0.129090">
        <ele>1915.016</ele>
        <time>2010-06-13T21:54:06Z</time>
      </trkpt>
      <trkpt lat="42.682590" lon="0.129090">
        <ele>1915.084</ele>
        <time>2010-06-13T21:54:10Z</time>
      </trkpt>
      <trkpt lat="42.682610" lon="0.129070">
        <ele>1915.052</ele>
        <time>2010-06-13T21:54:13Z</time>
      </trkpt>
      <trkpt lat="42.682640" lon="0.129070">
        <ele>1919.014</ele>
        <time>2010-06-13T21:54:16Z</time>
      </trkpt>
      <trkpt lat="42.682700" lon="0.129050">
        <ele>1919.095</ele>
        <time>2010-06-13T21:54:22Z</time>
      </trkpt>
      <trkpt lat="42.682720" lon="0.129090">
        <ele>1919.049</ele>
        <time>2010-06-13T21:54:25Z</time>
      </trkpt>
      <trkpt lat="42.682870" lon="0.129580">
        <ele>1917.023</ele>
        <time>2010-06-13T21:55:04Z</time>
      </trkpt>
      <trkpt lat="42.682910" lon="0.129750">
        <ele>1916.006</ele>
        <time>2010-06-13T21:55:18Z</time>
      </trkpt>
      <trkpt lat="42.682940" lon="0.129820">
        <ele>1925.088</ele>
        <time>2010-06-13T21:55:23Z</time>
      </trkpt>
      <trkpt lat="42.682940" lon="0.129970">
        <ele>1924.035</ele>
        <time>2010-06-13T21:55:35Z</time>
      </trkpt>
      <trkpt lat="42.682980" lon="0.130660">
        <ele>1922.092</ele>
        <time>2010-06-13T21:56:26Z</time>
      </trkpt>
      <trkpt lat="42.682810" lon="0.131390">
        <ele>1909.040</ele>
        <time>2010-06-13T21:57:22Z</time>
      </trkpt>
      <trkpt lat="42.682740" lon="0.131540">
        <ele>1909.038</ele>
        <time>2010-06-13T21:57:35Z</time>
      </trkpt>
      <trkpt lat="42.682680" lon="0.131860">
        <ele>1909.040</ele>
        <time>2010-06-13T21:57:59Z</time>
      </trkpt>
      <trkpt lat="42.682550" lon="0.132200">
        <ele>1899.057</ele>
        <time>2010-06-13T21:58:27Z</time>
      </trkpt>
      <trkpt lat="42.682380" lon="0.132440">
        <ele>1897.000</ele>
        <time>2010-06-13T21:58:51Z</time>
      </trkpt>
      <trkpt lat="42.682340" lon="0.132780">
        <ele>1889.020</ele>
        <time>2010-06-13T21:59:18Z</time>
      </trkpt>
      <trkpt lat="42.682420" lon="0.133320">
        <ele>1892.006</ele>
        <time>2010-06-13T21:59:58Z</time>
      </trkpt>
      <trkpt lat="42.682420" lon="0.133620">
        <ele>1891.074</ele>
        <time>2010-06-13T22:00:19Z</time>
      </trkpt>
      <trkpt lat="42.682400" lon="0.133660">
        <ele>1891.021</ele>
        <time>2010-06-13T22:00:24Z</time>
      </trkpt>
      <trkpt lat="42.682490" lon="0.134300">
        <ele>1888.078</ele>
        <time>2010-06-13T22:01:11Z</time>
      </trkpt>
      <trkpt lat="42.682490" lon="0.134500">
        <ele>1887.096</ele>
        <time>2010-06-13T22:01:26Z</time>
      </trkpt>
      <trkpt lat="42.682460" lon="0.134670">
        <ele>1886.024</ele>
        <time>2010-06-13T22:01:39Z</time>
      </trkpt>
      <trkpt lat="42.682490" lon="0.135010">
        <ele>1885.086</ele>
        <time>2010-06-13T22:02:04Z</time>
      </trkpt>
      <trkpt lat="42.682460" lon="0.135270">
        <ele>1883.091</ele>
        <time>2010-06-13T22:02:23Z</time>
      </trkpt>
      <trkpt lat="42.682420" lon="0.135330">
        <ele>1883.081</ele>
        <time>2010-06-13T22:02:29Z</time>
      </trkpt>
      <trkpt lat="42.682360" lon="0.135550">
        <ele>1866.019</ele>
        <time>2010-06-13T22:02:47Z</time>
      </trkpt>
      <trkpt lat="42.682290" lon="0.135590">
        <ele>1866.006</ele>
        <time>2010-06-13T22:02:55Z</time>
      </trkpt>
      <trkpt lat="42.682340" lon="0.135660">
        <ele>1866.078</ele>
        <time>2010-06-13T22:03:01Z</time>
      </trkpt>
      <trkpt lat="42.682420" lon="0.135960">
        <ele>1883.065</ele>
        <time>2010-06-13T22:03:25Z</time>
      </trkpt>
      <trkpt lat="42.682190" lon="0.136490">
        <ele>1868.082</ele>
        <time>2010-06-13T22:04:11Z</time>
      </trkpt>
      <trkpt lat="42.681880" lon="0.136940">
        <ele>1858.020</ele>
        <time>2010-06-13T22:04:56Z</time>
      </trkpt>
      <trkpt lat="42.681820" lon="0.137540">
        <ele>1868.018</ele>
        <time>2010-06-13T22:05:40Z</time>
      </trkpt>
      <trkpt lat="42.681710" lon="0.137840">
        <ele>1858.080</ele>
        <time>2010-06-13T22:06:04Z</time>
      </trkpt>
      <trkpt lat="42.681540" lon="0.138100">
        <ele>1863.072</ele>
        <time>2010-06-13T22:06:31Z</time>
      </trkpt>
      <trkpt lat="42.681280" lon="0.138290">
        <ele>1852.013</ele>
        <time>2010-06-13T22:07:00Z</time>
      </trkpt>
      <trkpt lat="42.681070" lon="0.138530">
        <ele>1841.014</ele>
        <time>2010-06-13T22:07:27Z</time>
      </trkpt>
      <trkpt lat="42.680920" lon="0.138830">
        <ele>1830.006</ele>
        <time>2010-06-13T22:07:54Z</time>
      </trkpt>
      <trkpt lat="42.680880" lon="0.139240">
        <ele>1831.056</ele>
        <time>2010-06-13T22:08:24Z</time>
      </trkpt>
      <trkpt lat="42.680960" lon="0.139600">
        <ele>1828.083</ele>
        <time>2010-06-13T22:08:52Z</time>
      </trkpt>
      <trkpt lat="42.681110" lon="0.139930">
        <ele>1841.040</ele>
        <time>2010-06-13T22:09:20Z</time>
      </trkpt>
      <trkpt lat="42.681370" lon="0.140440">
        <ele>1856.028</ele>
        <time>2010-06-13T22:10:06Z</time>
      </trkpt>
      <trkpt lat="42.681370" lon="0.140550">
        <ele>1856.066</ele>
        <time>2010-06-13T22:10:14Z</time>
      </trkpt>
      <trkpt lat="42.681240" lon="0.140760">
        <ele>1844.018</ele>
        <time>2010-06-13T22:10:35Z</time>
      </trkpt>
      <trkpt lat="42.680880" lon="0.140980">
        <ele>1833.055</ele>
        <time>2010-06-13T22:11:13Z</time>
      </trkpt>
      <trkpt lat="42.680700" lon="0.141020">
        <ele>1833.007</ele>
        <time>2010-06-13T22:11:32Z</time>
      </trkpt>
      <trkpt lat="42.680250" lon="0.141280">
        <ele>1809.017</ele>
        <time>2010-06-13T22:12:22Z</time>
      </trkpt>
      <trkpt lat="42.680040" lon="0.141560">
        <ele>1799.006</ele>
        <time>2010-06-13T22:12:50Z</time>
      </trkpt>
      <trkpt lat="42.679800" lon="0.142240">
        <ele>1796.094</ele>
        <time>2010-06-13T22:13:47Z</time>
      </trkpt>
      <trkpt lat="42.679720" lon="0.142540">
        <ele>1804.041</ele>
        <time>2010-06-13T22:14:10Z</time>
      </trkpt>
      <trkpt lat="42.679520" lon="0.142710">
        <ele>1789.078</ele>
        <time>2010-06-13T22:14:34Z</time>
      </trkpt>
      <trkpt lat="42.679270" lon="0.143170">
        <ele>1775.066</ele>
        <time>2010-06-13T22:15:15Z</time>
      </trkpt>
      <trkpt lat="42.678950" lon="0.143570">
        <ele>1772.014</ele>
        <time>2010-06-13T22:15:58Z</time>
      </trkpt>
      <trkpt lat="42.678820" lon="0.143790">
        <ele>1781.076</ele>
        <time>2010-06-13T22:16:20Z</time>
      </trkpt>
      <trkpt lat="42.678600" lon="0.144020">
        <ele>1762.022</ele>
        <time>2010-06-13T22:16:48Z</time>
      </trkpt>
      <trkpt lat="42.678300" lon="0.144500">
        <ele>1762.062</ele>
        <time>2010-06-13T22:17:34Z</time>
      </trkpt>
      <trkpt lat="42.677920" lon="0.144950">
        <ele>1757.008</ele>
        <time>2010-06-13T22:18:25Z</time>
      </trkpt>
      <trkpt lat="42.677700" lon="0.145270">
        <ele>1743.006</ele>
        <time>2010-06-13T22:18:56Z</time>
      </trkpt>
      <trkpt lat="42.677400" lon="0.145590">
        <ele>1729.051</ele>
        <time>2010-06-13T22:19:35Z</time>
      </trkpt>
      <trkpt lat="42.677080" lon="0.146130">
        <ele>1707.068</ele>
        <time>2010-06-13T22:20:26Z</time>
      </trkpt>
      <trkpt lat="42.676860" lon="0.146660">
        <ele>1722.015</ele>
        <time>2010-06-13T22:21:10Z</time>
      </trkpt>
      <trkpt lat="42.676840" lon="0.146750">
        <ele>1722.083</ele>
        <time>2010-06-13T22:21:18Z</time>
      </trkpt>
      <trkpt lat="42.676280" lon="0.147240">
        <ele>1709.081</ele>
        <time>2010-06-13T22:22:23Z</time>
      </trkpt>
      <trkpt lat="42.675790" lon="0.147630">
        <ele>1688.053</ele>
        <time>2010-06-13T22:23:21Z</time>
      </trkpt>
      <trkpt lat="42.675550" lon="0.147890">
        <ele>1685.027</ele>
        <time>2010-06-13T22:23:52Z</time>
      </trkpt>
      <trkpt lat="42.675080" lon="0.148340">
        <ele>1684.068</ele>
        <time>2010-06-13T22:24:48Z</time>
      </trkpt>
      <trkpt lat="42.674590" lon="0.148640">
        <ele>1682.014</ele>
        <time>2010-06-13T22:25:42Z</time>
      </trkpt>
      <trkpt lat="42.674120" lon="0.148810">
        <ele>1671.006</ele>
        <time>2010-06-13T22:26:32Z</time>
      </trkpt>
      <trkpt lat="42.673670" lon="0.149300">
        <ele>1663.081</ele>
        <time>2010-06-13T22:27:29Z</time>
      </trkpt>
      <trkpt lat="42.673520" lon="0.149650">
        <ele>1672.018</ele>
        <time>2010-06-13T22:27:58Z</time>
      </trkpt>
      <trkpt lat="42.673220" lon="0.150420">
        <ele>1670.045</ele>
        <time>2010-06-13T22:29:03Z</time>
      </trkpt>
      <trkpt lat="42.673000" lon="0.151060">
        <ele>1665.093</ele>
        <time>2010-06-13T22:29:55Z</time>
      </trkpt>
      <trkpt lat="42.672920" lon="0.151320">
        <ele>1666.041</ele>
        <time>2010-06-13T22:30:15Z</time>
      </trkpt>
      <trkpt lat="42.673000" lon="0.151960">
        <ele>1673.073</ele>
        <time>2010-06-13T22:31:04Z</time>
      </trkpt>
      <trkpt lat="42.673000" lon="0.152240">
        <ele>1678.024</ele>
        <time>2010-06-13T22:31:23Z</time>
      </trkpt>
      <trkpt lat="42.672870" lon="0.152350">
        <ele>1670.004</ele>
        <time>2010-06-13T22:31:40Z</time>
      </trkpt>
      <trkpt lat="42.672310" lon="0.152480">
        <ele>1664.014</ele>
        <time>2010-06-13T22:32:36Z</time>
      </trkpt>
      <trkpt lat="42.671800" lon="0.152500">
        <ele>1646.006</ele>
        <time>2010-06-13T22:33:27Z</time>
      </trkpt>
      <trkpt lat="42.671560" lon="0.152690">
        <ele>1653.051</ele>
        <time>2010-06-13T22:33:54Z</time>
      </trkpt>
      <trkpt lat="42.671160" lon="0.153290">
        <ele>1641.098</ele>
        <time>2010-06-13T22:34:55Z</time>
      </trkpt>
      <trkpt lat="42.670960" lon="0.153550">
        <ele>1634.085</ele>
        <time>2010-06-13T22:35:23Z</time>
      </trkpt>
      <trkpt lat="42.670490" lon="0.154090">
        <ele>1641.093</ele>
        <time>2010-06-13T22:36:24Z</time>
      </trkpt>
      <trkpt lat="42.670080" lon="0.154560">
        <ele>1624.041</ele>
        <time>2010-06-13T22:37:18Z</time>
      </trkpt>
      <trkpt lat="42.670130" lon="0.154560">
        <ele>1624.043</ele>
        <time>2010-06-13T22:37:23Z</time>
      </trkpt>
      <trkpt lat="42.670100" lon="0.154560">
        <ele>1624.035</ele>
        <time>2010-06-13T22:37:26Z</time>
      </trkpt>
      <trkpt lat="42.669910" lon="0.154770">
        <ele>1635.086</ele>
        <time>2010-06-13T22:37:50Z</time>
      </trkpt>
      <trkpt lat="42.669530" lon="0.155330">
        <ele>1624.014</ele>
        <time>2010-06-13T22:38:47Z</time>
      </trkpt>
      <trkpt lat="42.669140" lon="0.156000">
        <ele>1632.006</ele>
        <time>2010-06-13T22:39:48Z</time>
      </trkpt>
      <trkpt lat="42.668970" lon="0.156430">
        <ele>1622.032</ele>
        <time>2010-06-13T22:40:24Z</time>
      </trkpt>
      <trkpt lat="42.668620" lon="0.157240">
        <ele>1623.089</ele>
        <time>2010-06-13T22:41:33Z</time>
      </trkpt>
      <trkpt lat="42.668450" lon="0.157740">
        <ele>1622.036</ele>
        <time>2010-06-13T22:42:14Z</time>
      </trkpt>
      <trkpt lat="42.668410" lon="0.157800">
        <ele>1622.014</ele>
        <time>2010-06-13T22:42:21Z</time>
      </trkpt>
      <trkpt lat="42.668450" lon="0.158210">
        <ele>1635.072</ele>
        <time>2010-06-13T22:42:51Z</time>
      </trkpt>
      <trkpt lat="42.668300" lon="0.158440">
        <ele>1635.094</ele>
        <time>2010-06-13T22:43:13Z</time>
      </trkpt>
      <trkpt lat="42.667740" lon="0.158720">
        <ele>1618.099</ele>
        <time>2010-06-13T22:44:14Z</time>
      </trkpt>
      <trkpt lat="42.667640" lon="0.158850">
        <ele>1625.007</ele>
        <time>2010-06-13T22:44:28Z</time>
      </trkpt>
      <trkpt lat="42.667320" lon="0.159600">
        <ele>1613.027</ele>
        <time>2010-06-13T22:45:30Z</time>
      </trkpt>
      <trkpt lat="42.667160" lon="0.160010">
        <ele>1618.006</ele>
        <time>2010-06-13T22:46:05Z</time>
      </trkpt>
      <trkpt lat="42.666860" lon="0.160910">
        <ele>1615.058</ele>
        <time>2010-06-13T22:47:17Z</time>
      </trkpt>
      <trkpt lat="42.666480" lon="0.161660">
        <ele>1596.085</ele>
        <time>2010-06-13T22:48:25Z</time>
      </trkpt>
      <trkpt lat="42.665980" lon="0.162310">
        <ele>1589.052</ele>
        <time>2010-06-13T22:49:35Z</time>
      </trkpt>
      <trkpt lat="42.665860" lon="0.162690">
        <ele>1577.040</ele>
        <time>2010-06-13T22:50:05Z</time>
      </trkpt>
      <trkpt lat="42.666010" lon="0.162890">
        <ele>1591.088</ele>
        <time>2010-06-13T22:50:26Z</time>
      </trkpt>
      <trkpt lat="42.666240" lon="0.162650">
        <ele>1591.050</ele>
        <time>2010-06-13T22:50:55Z</time>
      </trkpt>
      <trkpt lat="42.666540" lon="0.162500">
        <ele>1616.054</ele>
        <time>2010-06-13T22:51:27Z</time>
      </trkpt>
      <trkpt lat="42.666760" lon="0.162610">
        <ele>1616.056</ele>
        <time>2010-06-13T22:51:50Z</time>
      </trkpt>
      <trkpt lat="42.666610" lon="0.163040">
        <ele>1617.011</ele>
        <time>2010-06-13T22:52:25Z</time>
      </trkpt>
      <trkpt lat="42.666350" lon="0.163310">
        <ele>1604.006</ele>
        <time>2010-06-13T22:52:57Z</time>
      </trkpt>
      <trkpt lat="42.666160" lon="0.163660">
        <ele>1591.034</ele>
        <time>2010-06-13T22:53:29Z</time>
      </trkpt>
      <trkpt lat="42.666090" lon="0.163960">
        <ele>1591.061</ele>
        <time>2010-06-13T22:53:53Z</time>
      </trkpt>
      <trkpt lat="42.666070" lon="0.164320">
        <ele>1594.048</ele>
        <time>2010-06-13T22:54:20Z</time>
      </trkpt>
      <trkpt lat="42.665830" lon="0.165160">
        <ele>1587.016</ele>
        <time>2010-06-13T22:55:25Z</time>
      </trkpt>
      <trkpt lat="42.665640" lon="0.165400">
        <ele>1570.094</ele>
        <time>2010-06-13T22:55:52Z</time>
      </trkpt>
      <trkpt lat="42.665340" lon="0.166020">
        <ele>1568.066</ele>
        <time>2010-06-13T22:56:47Z</time>
      </trkpt>
      <trkpt lat="42.665190" lon="0.166400">
        <ele>1571.022</ele>
        <time>2010-06-13T22:57:18Z</time>
      </trkpt>
      <trkpt lat="42.665130" lon="0.166730">
        <ele>1559.062</ele>
        <time>2010-06-13T22:57:44Z</time>
      </trkpt>
      <trkpt lat="42.665150" lon="0.167560">
        <ele>1578.008</ele>
        <time>2010-06-13T22:58:44Z</time>
      </trkpt>
      <trkpt lat="42.665040" lon="0.167970">
        <ele>1568.006</ele>
        <time>2010-06-13T22:59:16Z</time>
      </trkpt>
      <trkpt lat="42.664830" lon="0.168160">
        <ele>1552.071</ele>
        <time>2010-06-13T22:59:42Z</time>
      </trkpt>
      <trkpt lat="42.664630" lon="0.168490">
        <ele>1559.058</ele>
        <time>2010-06-13T23:00:13Z</time>
      </trkpt>
      <trkpt lat="42.664590" lon="0.168830">
        <ele>1563.095</ele>
        <time>2010-06-13T23:00:39Z</time>
      </trkpt>
      <trkpt lat="42.664460" lon="0.169110">
        <ele>1552.093</ele>
        <time>2010-06-13T23:01:03Z</time>
      </trkpt>
      <trkpt lat="42.664250" lon="0.169340">
        <ele>1541.031</ele>
        <time>2010-06-13T23:01:30Z</time>
      </trkpt>
      <trkpt lat="42.664270" lon="0.169690">
        <ele>1546.093</ele>
        <time>2010-06-13T23:01:55Z</time>
      </trkpt>
      <trkpt lat="42.664200" lon="0.170090">
        <ele>1551.055</ele>
        <time>2010-06-13T23:02:26Z</time>
      </trkpt>
      <trkpt lat="42.664010" lon="0.170370">
        <ele>1545.007</ele>
        <time>2010-06-13T23:02:53Z</time>
      </trkpt>
      <trkpt lat="42.663800" lon="0.170310">
        <ele>1545.017</ele>
        <time>2010-06-13T23:03:15Z</time>
      </trkpt>
      <trkpt lat="42.663410" lon="0.170820">
        <ele>1531.006</ele>
        <time>2010-06-13T23:04:09Z</time>
      </trkpt>
      <trkpt lat="42.663170" lon="0.171080">
        <ele>1521.084</ele>
        <time>2010-06-13T23:04:41Z</time>
      </trkpt>
      <trkpt lat="42.662890" lon="0.171810">
        <ele>1523.031</ele>
        <time>2010-06-13T23:05:41Z</time>
      </trkpt>
      <trkpt lat="42.662590" lon="0.172220">
        <ele>1511.098</ele>
        <time>2010-06-13T23:06:23Z</time>
      </trkpt>
      <trkpt lat="42.662470" lon="0.172560">
        <ele>1517.076</ele>
        <time>2010-06-13T23:06:52Z</time>
      </trkpt>
      <trkpt lat="42.662120" lon="0.173340">
        <ele>1516.054</ele>
        <time>2010-06-13T23:07:58Z</time>
      </trkpt>
      <trkpt lat="42.661800" lon="0.174040">
        <ele>1493.026</ele>
        <time>2010-06-13T23:08:59Z</time>
      </trkpt>
      <trkpt lat="42.661780" lon="0.174430">
        <ele>1497.017</ele>
        <time>2010-06-13T23:09:28Z</time>
      </trkpt>
      <trkpt lat="42.661710" lon="0.174750">
        <ele>1499.087</ele>
        <time>2010-06-13T23:09:53Z</time>
      </trkpt>
      <trkpt lat="42.661800" lon="0.175590">
        <ele>1506.015</ele>
        <time>2010-06-13T23:10:55Z</time>
      </trkpt>
      <trkpt lat="42.661710" lon="0.176060">
        <ele>1512.006</ele>
        <time>2010-06-13T23:11:30Z</time>
      </trkpt>
      <trkpt lat="42.661390" lon="0.176880">
        <ele>1503.060</ele>
        <time>2010-06-13T23:12:39Z</time>
      </trkpt>
      <trkpt lat="42.661240" lon="0.177350">
        <ele>1486.067</ele>
        <time>2010-06-13T23:13:17Z</time>
      </trkpt>
      <trkpt lat="42.660860" lon="0.177990">
        <ele>1465.044</ele>
        <time>2010-06-13T23:14:17Z</time>
      </trkpt>
      <trkpt lat="42.660680" lon="0.178380">
        <ele>1445.062</ele>
        <time>2010-06-13T23:14:51Z</time>
      </trkpt>
      <trkpt lat="42.660770" lon="0.178720">
        <ele>1458.060</ele>
        <time>2010-06-13T23:15:18Z</time>
      </trkpt>
      <trkpt lat="42.661030" lon="0.178870">
        <ele>1470.032</ele>
        <time>2010-06-13T23:15:46Z</time>
      </trkpt>
      <trkpt lat="42.661500" lon="0.179410">
        <ele>1467.073</ele>
        <time>2010-06-13T23:16:47Z</time>
      </trkpt>
      <trkpt lat="42.661520" lon="0.179490">
        <ele>1467.085</ele>
        <time>2010-06-13T23:16:53Z</time>
      </trkpt>
      <trkpt lat="42.661780" lon="0.179770">
        <ele>1467.013</ele>
        <time>2010-06-13T23:17:27Z</time>
      </trkpt>
      <trkpt lat="42.662080" lon="0.180440">
        <ele>1444.006</ele>
        <time>2010-06-13T23:18:24Z</time>
      </trkpt>
      <trkpt lat="42.662530" lon="0.181100">
        <ele>1449.076</ele>
        <time>2010-06-13T23:19:31Z</time>
      </trkpt>
      <trkpt lat="42.662790" lon="0.181380">
        <ele>1450.023</ele>
        <time>2010-06-13T23:20:04Z</time>
      </trkpt>
      <trkpt lat="42.663300" lon="0.182180">
        <ele>1444.040</ele>
        <time>2010-06-13T23:21:21Z</time>
      </trkpt>
      <trkpt lat="42.663470" lon="0.182560">
        <ele>1433.028</ele>
        <time>2010-06-13T23:21:54Z</time>
      </trkpt>
      <trkpt lat="42.663750" lon="0.183290">
        <ele>1429.016</ele>
        <time>2010-06-13T23:22:56Z</time>
      </trkpt>
      <trkpt lat="42.664030" lon="0.184090">
        <ele>1412.038</ele>
        <time>2010-06-13T23:24:00Z</time>
      </trkpt>
      <trkpt lat="42.664180" lon="0.184390">
        <ele>1406.098</ele>
        <time>2010-06-13T23:24:27Z</time>
      </trkpt>
      <trkpt lat="42.664310" lon="0.184390">
        <ele>1412.015</ele>
        <time>2010-06-13T23:24:41Z</time>
      </trkpt>
      <trkpt lat="42.664590" lon="0.184170">
        <ele>1420.026</ele>
        <time>2010-06-13T23:25:13Z</time>
      </trkpt>
      <trkpt lat="42.664800" lon="0.184110">
        <ele>1420.006</ele>
        <time>2010-06-13T23:25:34Z</time>
      </trkpt>
      <trkpt lat="42.664850" lon="0.184150">
        <ele>1420.048</ele>
        <time>2010-06-13T23:25:39Z</time>
      </trkpt>
      <trkpt lat="42.664890" lon="0.184790">
        <ele>1416.025</ele>
        <time>2010-06-13T23:26:26Z</time>
      </trkpt>
      <trkpt lat="42.664950" lon="0.185420">
        <ele>1412.032</ele>
        <time>2010-06-13T23:27:14Z</time>
      </trkpt>
      <trkpt lat="42.665040" lon="0.185800">
        <ele>1412.090</ele>
        <time>2010-06-13T23:27:43Z</time>
      </trkpt>
      <trkpt lat="42.665260" lon="0.186170">
        <ele>1421.068</ele>
        <time>2010-06-13T23:28:18Z</time>
      </trkpt>
      <trkpt lat="42.665490" lon="0.186420">
        <ele>1431.060</ele>
        <time>2010-06-13T23:28:48Z</time>
      </trkpt>
      <trkpt lat="42.665710" lon="0.186570">
        <ele>1441.017</ele>
        <time>2010-06-13T23:29:12Z</time>
      </trkpt>
      <trkpt lat="42.665790" lon="0.186870">
        <ele>1448.087</ele>
        <time>2010-06-13T23:29:36Z</time>
      </trkpt>
      <trkpt lat="42.665770" lon="0.186980">
        <ele>1448.015</ele>
        <time>2010-06-13T23:29:44Z</time>
      </trkpt>
      <trkpt lat="42.665710" lon="0.187070">
        <ele>1448.006</ele>
        <time>2010-06-13T23:29:53Z</time>
      </trkpt>
      <trkpt lat="42.665320" lon="0.187110">
        <ele>1448.080</ele>
        <time>2010-06-13T23:30:33Z</time>
      </trkpt>
      <trkpt lat="42.664460" lon="0.186570">
        <ele>1412.027</ele>
        <time>2010-06-13T23:32:07Z</time>
      </trkpt>
      <trkpt lat="42.664140" lon="0.186660">
        <ele>1402.074</ele>
        <time>2010-06-13T23:32:39Z</time>
      </trkpt>
      <trkpt lat="42.663970" lon="0.186980">
        <ele>1394.032</ele>
        <time>2010-06-13T23:33:08Z</time>
      </trkpt>
      <trkpt lat="42.663860" lon="0.187390">
        <ele>1400.080</ele>
        <time>2010-06-13T23:33:41Z</time>
      </trkpt>
      <trkpt lat="42.663820" lon="0.188230">
        <ele>1403.082</ele>
        <time>2010-06-13T23:34:43Z</time>
      </trkpt>
      <trkpt lat="42.663880" lon="0.189110">
        <ele>1397.092</ele>
        <time>2010-06-13T23:35:47Z</time>
      </trkpt>
      <trkpt lat="42.663860" lon="0.189920">
        <ele>1388.073</ele>
        <time>2010-06-13T23:36:47Z</time>
      </trkpt>
      <trkpt lat="42.664010" lon="0.190650">
        <ele>1381.020</ele>
        <time>2010-06-13T23:37:43Z</time>
      </trkpt>
      <trkpt lat="42.664200" lon="0.190950">
        <ele>1386.006</ele>
        <time>2010-06-13T23:38:13Z</time>
      </trkpt>
      <trkpt lat="42.664650" lon="0.191320">
        <ele>1392.048</ele>
        <time>2010-06-13T23:39:04Z</time>
      </trkpt>
      <trkpt lat="42.665170" lon="0.191450">
        <ele>1411.015</ele>
        <time>2010-06-13T23:39:58Z</time>
      </trkpt>
      <trkpt lat="42.665490" lon="0.191490">
        <ele>1420.032</ele>
        <time>2010-06-13T23:40:30Z</time>
      </trkpt>
      <trkpt lat="42.665730" lon="0.191660">
        <ele>1422.090</ele>
        <time>2010-06-13T23:40:57Z</time>
      </trkpt>
      <trkpt lat="42.665620" lon="0.192070">
        <ele>1409.098</ele>
        <time>2010-06-13T23:41:29Z</time>
      </trkpt>
      <trkpt lat="42.665260" lon="0.192260">
        <ele>1399.010</ele>
        <time>2010-06-13T23:42:07Z</time>
      </trkpt>
      <trkpt lat="42.665040" lon="0.192500">
        <ele>1389.018</ele>
        <time>2010-06-13T23:42:37Z</time>
      </trkpt>
      <trkpt lat="42.664630" lon="0.193030">
        <ele>1383.098</ele>
        <time>2010-06-13T23:43:32Z</time>
      </trkpt>
      <trkpt lat="42.664570" lon="0.193080">
        <ele>1370.017</ele>
        <time>2010-06-13T23:43:40Z</time>
      </trkpt>
      <trkpt lat="42.664610" lon="0.193080">
        <ele>1383.006</ele>
        <time>2010-06-13T23:43:44Z</time>
      </trkpt>
      <trkpt lat="42.664590" lon="0.193120">
        <ele>1383.030</ele>
        <time>2010-06-13T23:43:48Z</time>
      </trkpt>
      <trkpt lat="42.664630" lon="0.193200">
        <ele>1385.037</ele>
        <time>2010-06-13T23:43:54Z</time>
      </trkpt>
      <trkpt lat="42.664570" lon="0.193960">
        <ele>1375.084</ele>
        <time>2010-06-13T23:44:51Z</time>
      </trkpt>
      <trkpt lat="42.664400" lon="0.194710">
        <ele>1372.022</ele>
        <time>2010-06-13T23:45:49Z</time>
      </trkpt>
      <trkpt lat="42.664420" lon="0.195140">
        <ele>1366.090</ele>
        <time>2010-06-13T23:46:20Z</time>
      </trkpt>
      <trkpt lat="42.664700" lon="0.195910">
        <ele>1374.072</ele>
        <time>2010-06-13T23:47:24Z</time>
      </trkpt>
      <trkpt lat="42.664740" lon="0.196360">
        <ele>1372.047</ele>
        <time>2010-06-13T23:47:56Z</time>
      </trkpt>
      <trkpt lat="42.664550" lon="0.196720">
        <ele>1356.029</ele>
        <time>2010-06-13T23:48:29Z</time>
      </trkpt>
      <trkpt lat="42.664270" lon="0.197110">
        <ele>1347.021</ele>
        <time>2010-06-13T23:49:09Z</time>
      </trkpt>
      <trkpt lat="42.663860" lon="0.197820">
        <ele>1341.006</ele>
        <time>2010-06-13T23:50:16Z</time>
      </trkpt>
      <trkpt lat="42.663880" lon="0.198230">
        <ele>1352.073</ele>
        <time>2010-06-13T23:50:46Z</time>
      </trkpt>
      <trkpt lat="42.663820" lon="0.198760">
        <ele>1358.010</ele>
        <time>2010-06-13T23:51:26Z</time>
      </trkpt>
      <trkpt lat="42.663500" lon="0.199060">
        <ele>1344.097</ele>
        <time>2010-06-13T23:52:04Z</time>
      </trkpt>
      <trkpt lat="42.663260" lon="0.199430">
        <ele>1332.055</ele>
        <time>2010-06-13T23:52:41Z</time>
      </trkpt>
      <trkpt lat="42.663090" lon="0.199900">
        <ele>1320.023</ele>
        <time>2010-06-13T23:53:19Z</time>
      </trkpt>
      <trkpt lat="42.663020" lon="0.200440">
        <ele>1321.085</ele>
        <time>2010-06-13T23:53:59Z</time>
      </trkpt>
      <trkpt lat="42.662890" lon="0.200650">
        <ele>1304.087</ele>
        <time>2010-06-13T23:54:20Z</time>
      </trkpt>
      <trkpt lat="42.662870" lon="0.200560">
        <ele>1304.042</ele>
        <time>2010-06-13T23:54:27Z</time>
      </trkpt>
      <trkpt lat="42.662960" lon="0.199810">
        <ele>1319.026</ele>
        <time>2010-06-13T23:55:22Z</time>
      </trkpt>
      <trkpt lat="42.662980" lon="0.199450">
        <ele>1318.006</ele>
        <time>2010-06-13T23:55:50Z</time>
      </trkpt>
      <trkpt lat="42.662890" lon="0.199300">
        <ele>1299.057</ele>
        <time>2010-06-13T23:56:03Z</time>
      </trkpt>
      <trkpt lat="42.662810" lon="0.199510">
        <ele>1302.074</ele>
        <time>2010-06-13T23:56:21Z</time>
      </trkpt>
      <trkpt lat="42.662810" lon="0.199940">
        <ele>1304.071</ele>
        <time>2010-06-13T23:56:52Z</time>
      </trkpt>
      <trkpt lat="42.662680" lon="0.200800">
        <ele>1304.079</ele>
        <time>2010-06-13T23:57:58Z</time>
      </trkpt>
      <trkpt lat="42.662660" lon="0.201170">
        <ele>1304.047</ele>
        <time>2010-06-13T23:58:25Z</time>
      </trkpt>
      <trkpt lat="42.662570" lon="0.201530">
        <ele>1290.059</ele>
        <time>2010-06-13T23:58:52Z</time>
      </trkpt>
      <trkpt lat="42.662590" lon="0.201590">
        <ele>1290.049</ele>
        <time>2010-06-13T23:58:58Z</time>
      </trkpt>
      <trkpt lat="42.662510" lon="0.202430">
        <ele>1288.002</ele>
        <time>2010-06-13T23:59:59Z</time>
      </trkpt>
      <trkpt lat="42.662470" lon="0.203400">
        <ele>1282.022</ele>
        <time>2010-06-14T00:01:12Z</time>
      </trkpt>
      <trkpt lat="42.662470" lon="0.203460">
        <ele>1282.006</ele>
        <time>2010-06-14T00:01:15Z</time>
      </trkpt>
      <trkpt lat="42.662440" lon="0.203480">
        <ele>1279.023</ele>
        <time>2010-06-14T00:01:18Z</time>
      </trkpt>
      <trkpt lat="42.662400" lon="0.203440">
        <ele>1282.080</ele>
        <time>2010-06-14T00:01:23Z</time>
      </trkpt>
      <trkpt lat="42.662400" lon="0.202900">
        <ele>1287.057</ele>
        <time>2010-06-14T00:02:03Z</time>
      </trkpt>
      <trkpt lat="42.662250" lon="0.202090">
        <ele>1276.085</ele>
        <time>2010-06-14T00:03:06Z</time>
      </trkpt>
      <trkpt lat="42.662210" lon="0.201720">
        <ele>1276.023</ele>
        <time>2010-06-14T00:03:32Z</time>
      </trkpt>
      <trkpt lat="42.662140" lon="0.201620">
        <ele>1276.045</ele>
        <time>2010-06-14T00:03:43Z</time>
      </trkpt>
      <trkpt lat="42.662080" lon="0.201700">
        <ele>1261.072</ele>
        <time>2010-06-14T00:03:51Z</time>
      </trkpt>
      <trkpt lat="42.662060" lon="0.202130">
        <ele>1261.013</ele>
        <time>2010-06-14T00:04:23Z</time>
      </trkpt>
      <trkpt lat="42.662120" lon="0.202540">
        <ele>1274.014</ele>
        <time>2010-06-14T00:04:53Z</time>
      </trkpt>
      <trkpt lat="42.662060" lon="0.203330">
        <ele>1251.006</ele>
        <time>2010-06-14T00:05:52Z</time>
      </trkpt>
      <trkpt lat="42.662060" lon="0.203610">
        <ele>1248.076</ele>
        <time>2010-06-14T00:06:13Z</time>
      </trkpt>
      <trkpt lat="42.662010" lon="0.203610">
        <ele>1248.023</ele>
        <time>2010-06-14T00:06:18Z</time>
      </trkpt>
      <trkpt lat="42.661990" lon="0.203570">
        <ele>1248.040</ele>
        <time>2010-06-14T00:06:21Z</time>
      </trkpt>
      <trkpt lat="42.661970" lon="0.203460">
        <ele>1251.068</ele>
        <time>2010-06-14T00:06:30Z</time>
      </trkpt>
      <trkpt lat="42.661910" lon="0.202690">
        <ele>1257.056</ele>
        <time>2010-06-14T00:07:26Z</time>
      </trkpt>
      <trkpt lat="42.661630" lon="0.201980">
        <ele>1243.088</ele>
        <time>2010-06-14T00:08:25Z</time>
      </trkpt>
      <trkpt lat="42.661540" lon="0.201680">
        <ele>1242.056</ele>
        <time>2010-06-14T00:08:50Z</time>
      </trkpt>
      <trkpt lat="42.661480" lon="0.201870">
        <ele>1222.059</ele>
        <time>2010-06-14T00:09:05Z</time>
      </trkpt>
      <trkpt lat="42.661520" lon="0.202240">
        <ele>1222.014</ele>
        <time>2010-06-14T00:09:32Z</time>
      </trkpt>
      <trkpt lat="42.661630" lon="0.202620">
        <ele>1241.006</ele>
        <time>2010-06-14T00:10:02Z</time>
      </trkpt>
      <trkpt lat="42.661670" lon="0.202990">
        <ele>1237.074</ele>
        <time>2010-06-14T00:10:29Z</time>
      </trkpt>
      <trkpt lat="42.661610" lon="0.203310">
        <ele>1235.011</ele>
        <time>2010-06-14T00:10:55Z</time>
      </trkpt>
      <trkpt lat="42.661540" lon="0.204150">
        <ele>1229.058</ele>
        <time>2010-06-14T00:11:57Z</time>
      </trkpt>
      <trkpt lat="42.661590" lon="0.204640">
        <ele>1223.096</ele>
        <time>2010-06-14T00:12:33Z</time>
      </trkpt>
      <trkpt lat="42.661670" lon="0.205030">
        <ele>1217.084</ele>
        <time>2010-06-14T00:13:02Z</time>
      </trkpt>
      <trkpt lat="42.661820" lon="0.205350">
        <ele>1223.066</ele>
        <time>2010-06-14T00:13:31Z</time>
      </trkpt>
      <trkpt lat="42.662040" lon="0.205590">
        <ele>1215.071</ele>
        <time>2010-06-14T00:13:59Z</time>
      </trkpt>
      <trkpt lat="42.662060" lon="0.205670">
        <ele>1215.041</ele>
        <time>2010-06-14T00:14:06Z</time>
      </trkpt>
      <trkpt lat="42.662010" lon="0.205690">
        <ele>1215.015</ele>
        <time>2010-06-14T00:14:10Z</time>
      </trkpt>
      <trkpt lat="42.661780" lon="0.205480">
        <ele>1203.006</ele>
        <time>2010-06-14T00:14:39Z</time>
      </trkpt>
      <trkpt lat="42.661330" lon="0.204900">
        <ele>1205.036</ele>
        <time>2010-06-14T00:15:41Z</time>
      </trkpt>
      <trkpt lat="42.661180" lon="0.204680">
        <ele>1198.043</ele>
        <time>2010-06-14T00:16:03Z</time>
      </trkpt>
      <trkpt lat="42.660730" lon="0.204080">
        <ele>1191.030</ele>
        <time>2010-06-14T00:17:06Z</time>
      </trkpt>
      <trkpt lat="42.660620" lon="0.204210">
        <ele>1179.068</ele>
        <time>2010-06-14T00:17:20Z</time>
      </trkpt>
      <trkpt lat="42.660860" lon="0.204770">
        <ele>1187.026</ele>
        <time>2010-06-14T00:18:08Z</time>
      </trkpt>
      <trkpt lat="42.660960" lon="0.205070">
        <ele>1182.038</ele>
        <time>2010-06-14T00:18:32Z</time>
      </trkpt>
      <trkpt lat="42.661200" lon="0.205630">
        <ele>1181.072</ele>
        <time>2010-06-14T00:19:19Z</time>
      </trkpt>
      <trkpt lat="42.661460" lon="0.206140">
        <ele>1176.013</ele>
        <time>2010-06-14T00:20:05Z</time>
      </trkpt>
      <trkpt lat="42.661760" lon="0.206660">
        <ele>1170.014</ele>
        <time>2010-06-14T00:20:53Z</time>
      </trkpt>
      <trkpt lat="42.661910" lon="0.206870">
        <ele>1171.006</ele>
        <time>2010-06-14T00:21:16Z</time>
      </trkpt>
      <trkpt lat="42.662170" lon="0.207470">
        <ele>1163.046</ele>
        <time>2010-06-14T00:22:06Z</time>
      </trkpt>
      <trkpt lat="42.662320" lon="0.207750">
        <ele>1154.063</ele>
        <time>2010-06-14T00:22:32Z</time>
      </trkpt>
      <trkpt lat="42.662770" lon="0.208120">
        <ele>1160.040</ele>
        <time>2010-06-14T00:23:24Z</time>
      </trkpt>
      <trkpt lat="42.663170" lon="0.208630">
        <ele>1148.068</ele>
        <time>2010-06-14T00:24:20Z</time>
      </trkpt>
      <trkpt lat="42.663300" lon="0.208980">
        <ele>1149.036</ele>
        <time>2010-06-14T00:24:49Z</time>
      </trkpt>
      <trkpt lat="42.663646" lon="0.210199">
        <ele>1135.078</ele>
        <time>2010-06-14T00:26:24Z</time>
      </trkpt>
      <trkpt lat="42.663860" lon="0.210435">
        <ele>1138.036</ele>
        <time>2010-06-14T00:26:53Z</time>
      </trkpt>
      <trkpt lat="42.664247" lon="0.210929">
        <ele>1140.017</ele>
        <time>2010-06-14T00:27:46Z</time>
      </trkpt>
      <trkpt lat="42.664547" lon="0.211358">
        <ele>1141.018</ele>
        <time>2010-06-14T00:28:29Z</time>
      </trkpt>
      <trkpt lat="42.665040" lon="0.211895">
        <ele>1145.006</ele>
        <time>2010-06-14T00:29:32Z</time>
      </trkpt>
      <trkpt lat="42.665277" lon="0.212088">
        <ele>1146.052</ele>
        <time>2010-06-14T00:29:59Z</time>
      </trkpt>
      <trkpt lat="42.665813" lon="0.212431">
        <ele>1147.059</ele>
        <time>2010-06-14T00:30:58Z</time>
      </trkpt>
      <trkpt lat="42.666414" lon="0.212646">
        <ele>1150.016</ele>
        <time>2010-06-14T00:32:02Z</time>
      </trkpt>
      <trkpt lat="42.667015" lon="0.212882">
        <ele>1159.034</ele>
        <time>2010-06-14T00:33:04Z</time>
      </trkpt>
      <trkpt lat="42.667615" lon="0.213161">
        <ele>1166.032</ele>
        <time>2010-06-14T00:34:08Z</time>
      </trkpt>
      <trkpt lat="42.667916" lon="0.213289">
        <ele>1166.024</ele>
        <time>2010-06-14T00:34:38Z</time>
      </trkpt>
      <trkpt lat="42.668474" lon="0.213547">
        <ele>1172.016</ele>
        <time>2010-06-14T00:35:38Z</time>
      </trkpt>
      <trkpt lat="42.669032" lon="0.213783">
        <ele>1172.076</ele>
        <time>2010-06-14T00:36:36Z</time>
      </trkpt>
      <trkpt lat="42.669289" lon="0.213890">
        <ele>1172.013</ele>
        <time>2010-06-14T00:37:04Z</time>
      </trkpt>
      <trkpt lat="42.669933" lon="0.214105">
        <ele>1174.006</ele>
        <time>2010-06-14T00:38:10Z</time>
      </trkpt>
      <trkpt lat="42.670190" lon="0.214169">
        <ele>1179.020</ele>
        <time>2010-06-14T00:38:35Z</time>
      </trkpt>
      <trkpt lat="42.670813" lon="0.214298">
        <ele>1190.017</ele>
        <time>2010-06-14T00:39:39Z</time>
      </trkpt>
      <trkpt lat="42.671092" lon="0.214341">
        <ele>1181.034</ele>
        <time>2010-06-14T00:40:06Z</time>
      </trkpt>
      <trkpt lat="42.671714" lon="0.214427">
        <ele>1188.072</ele>
        <time>2010-06-14T00:41:09Z</time>
      </trkpt>
      <trkpt lat="42.671821" lon="0.214448">
        <ele>1191.010</ele>
        <time>2010-06-14T00:41:21Z</time>
      </trkpt>
      <trkpt lat="42.671907" lon="0.214555">
        <ele>1191.082</ele>
        <time>2010-06-14T00:41:32Z</time>
      </trkpt>
      <trkpt lat="42.672529" lon="0.214663">
        <ele>1186.068</ele>
        <time>2010-06-14T00:42:35Z</time>
      </trkpt>
      <trkpt lat="42.672830" lon="0.214663">
        <ele>1188.042</ele>
        <time>2010-06-14T00:43:04Z</time>
      </trkpt>
      <trkpt lat="42.673023" lon="0.214727">
        <ele>1189.026</ele>
        <time>2010-06-14T00:43:25Z</time>
      </trkpt>
      <trkpt lat="42.673345" lon="0.214727">
        <ele>1189.006</ele>
        <time>2010-06-14T00:43:57Z</time>
      </trkpt>
      <trkpt lat="42.673666" lon="0.214942">
        <ele>1185.085</ele>
        <time>2010-06-14T00:44:33Z</time>
      </trkpt>
      <trkpt lat="42.673409" lon="0.214984">
        <ele>1184.082</ele>
        <time>2010-06-14T00:44:59Z</time>
      </trkpt>
      <trkpt lat="42.673409" lon="0.214942">
        <ele>1184.019</ele>
        <time>2010-06-14T00:45:02Z</time>
      </trkpt>
      <trkpt lat="42.673388" lon="0.214984">
        <ele>1184.067</ele>
        <time>2010-06-14T00:45:05Z</time>
      </trkpt>
      <trkpt lat="42.673302" lon="0.215607">
        <ele>1184.055</ele>
        <time>2010-06-14T00:45:51Z</time>
      </trkpt>
      <trkpt lat="42.673323" lon="0.215714">
        <ele>1187.037</ele>
        <time>2010-06-14T00:46:01Z</time>
      </trkpt>
      <trkpt lat="42.673280" lon="0.215757">
        <ele>1187.059</ele>
        <time>2010-06-14T00:46:06Z</time>
      </trkpt>
      <trkpt lat="42.672915" lon="0.216250">
        <ele>1194.003</ele>
        <time>2010-06-14T00:46:57Z</time>
      </trkpt>
      <trkpt lat="42.672765" lon="0.216358">
        <ele>1194.023</ele>
        <time>2010-06-14T00:47:14Z</time>
      </trkpt>
      <trkpt lat="42.672637" lon="0.216551">
        <ele>1199.006</ele>
        <time>2010-06-14T00:47:33Z</time>
      </trkpt>
      <trkpt lat="42.672250" lon="0.216701">
        <ele>1197.094</ele>
        <time>2010-06-14T00:48:13Z</time>
      </trkpt>
      <trkpt lat="42.672143" lon="0.216787">
        <ele>1197.031</ele>
        <time>2010-06-14T00:48:26Z</time>
      </trkpt>
      <trkpt lat="42.671907" lon="0.217023">
        <ele>1203.078</ele>
        <time>2010-06-14T00:48:56Z</time>
      </trkpt>
      <trkpt lat="42.671843" lon="0.217023">
        <ele>1203.026</ele>
        <time>2010-06-14T00:49:01Z</time>
      </trkpt>
      <trkpt lat="42.671649" lon="0.217237">
        <ele>1209.074</ele>
        <time>2010-06-14T00:49:26Z</time>
      </trkpt>
      <trkpt lat="42.671607" lon="0.217495">
        <ele>1221.016</ele>
        <time>2010-06-14T00:49:45Z</time>
      </trkpt>
      <trkpt lat="42.671800" lon="0.217431">
        <ele>1221.069</ele>
        <time>2010-06-14T00:50:06Z</time>
      </trkpt>
      <trkpt lat="42.671821" lon="0.217409">
        <ele>1227.004</ele>
        <time>2010-06-14T00:50:09Z</time>
      </trkpt>
      <trkpt lat="42.671993" lon="0.217280">
        <ele>1214.024</ele>
        <time>2010-06-14T00:50:28Z</time>
      </trkpt>
      <trkpt lat="42.672358" lon="0.217323">
        <ele>1219.006</ele>
        <time>2010-06-14T00:51:05Z</time>
      </trkpt>
      <trkpt lat="42.672594" lon="0.217345">
        <ele>1222.065</ele>
        <time>2010-06-14T00:51:29Z</time>
      </trkpt>
      <trkpt lat="42.672594" lon="0.217431">
        <ele>1237.022</ele>
        <time>2010-06-14T00:51:35Z</time>
      </trkpt>
      <trkpt lat="42.672572" lon="0.217495">
        <ele>1237.089</ele>
        <time>2010-06-14T00:51:40Z</time>
      </trkpt>
      <trkpt lat="42.672358" lon="0.217645">
        <ele>1247.087</ele>
        <time>2010-06-14T00:52:05Z</time>
      </trkpt>
      <trkpt lat="42.671864" lon="0.217752">
        <ele>1241.045</ele>
        <time>2010-06-14T00:52:55Z</time>
      </trkpt>
      <trkpt lat="42.671478" lon="0.217946">
        <ele>1242.037</ele>
        <time>2010-06-14T00:53:36Z</time>
      </trkpt>
      <trkpt lat="42.671113" lon="0.218010">
        <ele>1237.037</ele>
        <time>2010-06-14T00:54:13Z</time>
      </trkpt>
      <trkpt lat="42.670619" lon="0.218203">
        <ele>1248.049</ele>
        <time>2010-06-14T00:55:04Z</time>
      </trkpt>
      <trkpt lat="42.670298" lon="0.218332">
        <ele>1243.013</ele>
        <time>2010-06-14T00:55:37Z</time>
      </trkpt>
      <trkpt lat="42.670062" lon="0.218396">
        <ele>1238.006</ele>
        <time>2010-06-14T00:56:01Z</time>
      </trkpt>
      <trkpt lat="42.669783" lon="0.218546">
        <ele>1250.062</ele>
        <time>2010-06-14T00:56:31Z</time>
      </trkpt>
      <trkpt lat="42.669504" lon="0.218654">
        <ele>1248.069</ele>
        <time>2010-06-14T00:57:01Z</time>
      </trkpt>
      <trkpt lat="42.669225" lon="0.218868">
        <ele>1265.086</ele>
        <time>2010-06-14T00:57:33Z</time>
      </trkpt>
      <trkpt lat="42.668903" lon="0.219190">
        <ele>1280.064</ele>
        <time>2010-06-14T00:58:13Z</time>
      </trkpt>
      <trkpt lat="42.668796" lon="0.219362">
        <ele>1293.042</ele>
        <time>2010-06-14T00:58:29Z</time>
      </trkpt>
      <trkpt lat="42.668667" lon="0.219426">
        <ele>1289.064</ele>
        <time>2010-06-14T00:58:43Z</time>
      </trkpt>
      <trkpt lat="42.668302" lon="0.219855">
        <ele>1293.081</ele>
        <time>2010-06-14T00:59:31Z</time>
      </trkpt>
      <trkpt lat="42.668173" lon="0.220478">
        <ele>1307.061</ele>
        <time>2010-06-14T01:00:19Z</time>
      </trkpt>
      <trkpt lat="42.668066" lon="0.220885">
        <ele>1312.017</ele>
        <time>2010-06-14T01:00:51Z</time>
      </trkpt>
      <trkpt lat="42.668087" lon="0.221014">
        <ele>1316.006</ele>
        <time>2010-06-14T01:01:00Z</time>
      </trkpt>
      <trkpt lat="42.668087" lon="0.221035">
        <ele>1316.087</ele>
        <time>2010-06-14T01:01:02Z</time>
      </trkpt>
      <trkpt lat="42.668130" lon="0.221057">
        <ele>1316.064</ele>
        <time>2010-06-14T01:01:07Z</time>
      </trkpt>
      <trkpt lat="42.668216" lon="0.220950">
        <ele>1322.011</ele>
        <time>2010-06-14T01:01:18Z</time>
      </trkpt>
      <trkpt lat="42.668238" lon="0.220821">
        <ele>1322.059</ele>
        <time>2010-06-14T01:01:27Z</time>
      </trkpt>
      <trkpt lat="42.668324" lon="0.220606">
        <ele>1315.037</ele>
        <time>2010-06-14T01:01:45Z</time>
      </trkpt>
      <trkpt lat="42.668431" lon="0.220413">
        <ele>1308.039</ele>
        <time>2010-06-14T01:02:04Z</time>
      </trkpt>
      <trkpt lat="42.668517" lon="0.220306">
        <ele>1317.068</ele>
        <time>2010-06-14T01:02:15Z</time>
      </trkpt>
      <trkpt lat="42.668774" lon="0.220134">
        <ele>1316.042</ele>
        <time>2010-06-14T01:02:44Z</time>
      </trkpt>
      <trkpt lat="42.668946" lon="0.220134">
        <ele>1316.026</ele>
        <time>2010-06-14T01:03:01Z</time>
      </trkpt>
      <trkpt lat="42.668989" lon="0.220242">
        <ele>1327.006</ele>
        <time>2010-06-14T01:03:09Z</time>
      </trkpt>
      <trkpt lat="42.668967" lon="0.220306">
        <ele>1327.095</ele>
        <time>2010-06-14T01:03:16Z</time>
      </trkpt>
      <trkpt lat="42.668796" lon="0.220370">
        <ele>1327.082</ele>
        <time>2010-06-14T01:03:33Z</time>
      </trkpt>
      <trkpt lat="42.668774" lon="0.220370">
        <ele>1327.039</ele>
        <time>2010-06-14T01:03:36Z</time>
      </trkpt>
      <trkpt lat="42.668645" lon="0.220521">
        <ele>1325.097</ele>
        <time>2010-06-14T01:03:52Z</time>
      </trkpt>
      <trkpt lat="42.668560" lon="0.220864">
        <ele>1333.025</ele>
        <time>2010-06-14T01:04:18Z</time>
      </trkpt>
      <trkpt lat="42.668560" lon="0.220950">
        <ele>1333.097</ele>
        <time>2010-06-14T01:04:26Z</time>
      </trkpt>
      <trkpt lat="42.668538" lon="0.220993">
        <ele>1340.097</ele>
        <time>2010-06-14T01:04:29Z</time>
      </trkpt>
      <trkpt lat="42.668560" lon="0.221272">
        <ele>1346.023</ele>
        <time>2010-06-14T01:04:50Z</time>
      </trkpt>
      <trkpt lat="42.668452" lon="0.221765">
        <ele>1337.025</ele>
        <time>2010-06-14T01:05:28Z</time>
      </trkpt>
      <trkpt lat="42.668431" lon="0.222044">
        <ele>1341.006</ele>
        <time>2010-06-14T01:05:48Z</time>
      </trkpt>
      <trkpt lat="42.668324" lon="0.222580">
        <ele>1350.038</ele>
        <time>2010-06-14T01:06:28Z</time>
      </trkpt>
      <trkpt lat="42.668324" lon="0.222859">
        <ele>1354.045</ele>
        <time>2010-06-14T01:06:50Z</time>
      </trkpt>
      <trkpt lat="42.668195" lon="0.223632">
        <ele>1366.062</ele>
        <time>2010-06-14T01:07:48Z</time>
      </trkpt>
      <trkpt lat="42.668195" lon="0.223954">
        <ele>1369.020</ele>
        <time>2010-06-14T01:08:12Z</time>
      </trkpt>
      <trkpt lat="42.668087" lon="0.224233">
        <ele>1356.068</ele>
        <time>2010-06-14T01:08:35Z</time>
      </trkpt>
      <trkpt lat="42.668045" lon="0.224984">
        <ele>1367.030</ele>
        <time>2010-06-14T01:09:30Z</time>
      </trkpt>
      <trkpt lat="42.668023" lon="0.225499">
        <ele>1374.067</ele>
        <time>2010-06-14T01:10:08Z</time>
      </trkpt>
      <trkpt lat="42.668002" lon="0.225778">
        <ele>1377.081</ele>
        <time>2010-06-14T01:10:29Z</time>
      </trkpt>
      <trkpt lat="42.667894" lon="0.226378">
        <ele>1363.019</ele>
        <time>2010-06-14T01:11:15Z</time>
      </trkpt>
      <trkpt lat="42.667916" lon="0.226722">
        <ele>1365.006</ele>
        <time>2010-06-14T01:11:40Z</time>
      </trkpt>
      <trkpt lat="42.667959" lon="0.227387">
        <ele>1388.045</ele>
        <time>2010-06-14T01:12:28Z</time>
      </trkpt>
      <trkpt lat="42.668045" lon="0.228031">
        <ele>1391.082</ele>
        <time>2010-06-14T01:13:16Z</time>
      </trkpt>
      <trkpt lat="42.668023" lon="0.228825">
        <ele>1394.099</ele>
        <time>2010-06-14T01:14:16Z</time>
      </trkpt>
      <trkpt lat="42.668087" lon="0.229576">
        <ele>1393.097</ele>
        <time>2010-06-14T01:15:10Z</time>
      </trkpt>
      <trkpt lat="42.668066" lon="0.230134">
        <ele>1392.085</ele>
        <time>2010-06-14T01:15:52Z</time>
      </trkpt>
      <trkpt lat="42.668259" lon="0.230670">
        <ele>1401.077</ele>
        <time>2010-06-14T01:16:36Z</time>
      </trkpt>
      <trkpt lat="42.668302" lon="0.231035">
        <ele>1402.025</ele>
        <time>2010-06-14T01:17:03Z</time>
      </trkpt>
      <trkpt lat="42.668345" lon="0.231485">
        <ele>1404.026</ele>
        <time>2010-06-14T01:17:37Z</time>
      </trkpt>
      <trkpt lat="42.668431" lon="0.232065">
        <ele>1410.008</ele>
        <time>2010-06-14T01:18:21Z</time>
      </trkpt>
      <trkpt lat="42.668431" lon="0.232258">
        <ele>1413.006</ele>
        <time>2010-06-14T01:18:34Z</time>
      </trkpt>
      <trkpt lat="42.668538" lon="0.232773">
        <ele>1428.031</ele>
        <time>2010-06-14T01:19:14Z</time>
      </trkpt>
      <trkpt lat="42.668624" lon="0.233266">
        <ele>1437.028</ele>
        <time>2010-06-14T01:19:51Z</time>
      </trkpt>
      <trkpt lat="42.668602" lon="0.233524">
        <ele>1441.065</ele>
        <time>2010-06-14T01:20:10Z</time>
      </trkpt>
      <trkpt lat="42.668495" lon="0.233738">
        <ele>1441.023</ele>
        <time>2010-06-14T01:20:29Z</time>
      </trkpt>
      <trkpt lat="42.668388" lon="0.234168">
        <ele>1438.031</ele>
        <time>2010-06-14T01:21:02Z</time>
      </trkpt>
      <trkpt lat="42.668409" lon="0.234489">
        <ele>1441.093</ele>
        <time>2010-06-14T01:21:26Z</time>
      </trkpt>
      <trkpt lat="42.668474" lon="0.235069">
        <ele>1457.014</ele>
        <time>2010-06-14T01:22:09Z</time>
      </trkpt>
      <trkpt lat="42.668581" lon="0.235369">
        <ele>1458.054</ele>
        <time>2010-06-14T01:22:33Z</time>
      </trkpt>
      <trkpt lat="42.668667" lon="0.235734">
        <ele>1457.009</ele>
        <time>2010-06-14T01:23:03Z</time>
      </trkpt>
      <trkpt lat="42.668774" lon="0.235949">
        <ele>1473.006</ele>
        <time>2010-06-14T01:23:21Z</time>
      </trkpt>
      <trkpt lat="42.668839" lon="0.236185">
        <ele>1472.060</ele>
        <time>2010-06-14T01:23:40Z</time>
      </trkpt>
      <trkpt lat="42.668924" lon="0.236549">
        <ele>1471.027</ele>
        <time>2010-06-14T01:24:08Z</time>
      </trkpt>
      <trkpt lat="42.668946" lon="0.236893">
        <ele>1471.024</ele>
        <time>2010-06-14T01:24:34Z</time>
      </trkpt>
      <trkpt lat="42.669075" lon="0.237129">
        <ele>1488.062</ele>
        <time>2010-06-14T01:24:55Z</time>
      </trkpt>
      <trkpt lat="42.669096" lon="0.237494">
        <ele>1488.050</ele>
        <time>2010-06-14T01:25:22Z</time>
      </trkpt>
      <trkpt lat="42.669225" lon="0.237901">
        <ele>1489.082</ele>
        <time>2010-06-14T01:25:55Z</time>
      </trkpt>
      <trkpt lat="42.669246" lon="0.238223">
        <ele>1493.055</ele>
        <time>2010-06-14T01:26:19Z</time>
      </trkpt>
      <trkpt lat="42.669203" lon="0.238502">
        <ele>1495.007</ele>
        <time>2010-06-14T01:26:40Z</time>
      </trkpt>
      <trkpt lat="42.669075" lon="0.238953">
        <ele>1499.017</ele>
        <time>2010-06-14T01:27:15Z</time>
      </trkpt>
      <trkpt lat="42.668967" lon="0.239189">
        <ele>1490.006</ele>
        <time>2010-06-14T01:27:35Z</time>
      </trkpt>
      <trkpt lat="42.668924" lon="0.239446">
        <ele>1494.064</ele>
        <time>2010-06-14T01:27:55Z</time>
      </trkpt>
      <trkpt lat="42.668946" lon="0.239682">
        <ele>1498.051</ele>
        <time>2010-06-14T01:28:12Z</time>
      </trkpt>
      <trkpt lat="42.668989" lon="0.239682">
        <ele>1498.028</ele>
        <time>2010-06-14T01:28:17Z</time>
      </trkpt>
      <trkpt lat="42.669075" lon="0.239532">
        <ele>1506.016</ele>
        <time>2010-06-14T01:28:31Z</time>
      </trkpt>
      <trkpt lat="42.669182" lon="0.239189">
        <ele>1502.074</ele>
        <time>2010-06-14T01:28:58Z</time>
      </trkpt>
      <trkpt lat="42.669332" lon="0.238996">
        <ele>1515.046</ele>
        <time>2010-06-14T01:29:19Z</time>
      </trkpt>
      <trkpt lat="42.669611" lon="0.238631">
        <ele>1530.064</ele>
        <time>2010-06-14T01:29:57Z</time>
      </trkpt>
      <trkpt lat="42.669740" lon="0.238223">
        <ele>1527.006</ele>
        <time>2010-06-14T01:30:30Z</time>
      </trkpt>
      <trkpt lat="42.669933" lon="0.237880">
        <ele>1538.016</ele>
        <time>2010-06-14T01:31:02Z</time>
      </trkpt>
      <trkpt lat="42.669976" lon="0.237751">
        <ele>1538.006</ele>
        <time>2010-06-14T01:31:12Z</time>
      </trkpt>
      <trkpt lat="42.669976" lon="0.237429">
        <ele>1537.055</ele>
        <time>2010-06-14T01:31:36Z</time>
      </trkpt>
      <trkpt lat="42.670019" lon="0.237236">
        <ele>1536.012</ele>
        <time>2010-06-14T01:31:50Z</time>
      </trkpt>
      <trkpt lat="42.670083" lon="0.237193">
        <ele>1536.089</ele>
        <time>2010-06-14T01:31:58Z</time>
      </trkpt>
      <trkpt lat="42.670190" lon="0.237472">
        <ele>1553.047</ele>
        <time>2010-06-14T01:32:20Z</time>
      </trkpt>
      <trkpt lat="42.670147" lon="0.237944">
        <ele>1558.025</ele>
        <time>2010-06-14T01:32:55Z</time>
      </trkpt>
      <trkpt lat="42.670062" lon="0.238180">
        <ele>1541.037</ele>
        <time>2010-06-14T01:33:16Z</time>
      </trkpt>
      <trkpt lat="42.669954" lon="0.238931">
        <ele>1552.067</ele>
        <time>2010-06-14T01:34:12Z</time>
      </trkpt>
      <trkpt lat="42.669976" lon="0.238996">
        <ele>1552.081</ele>
        <time>2010-06-14T01:34:17Z</time>
      </trkpt>
      <trkpt lat="42.670040" lon="0.238974">
        <ele>1552.019</ele>
        <time>2010-06-14T01:34:23Z</time>
      </trkpt>
      <trkpt lat="42.670233" lon="0.238481">
        <ele>1566.006</ele>
        <time>2010-06-14T01:35:04Z</time>
      </trkpt>
      <trkpt lat="42.670362" lon="0.238416">
        <ele>1562.015</ele>
        <time>2010-06-14T01:35:19Z</time>
      </trkpt>
      <trkpt lat="42.670383" lon="0.238459">
        <ele>1562.072</ele>
        <time>2010-06-14T01:35:23Z</time>
      </trkpt>
      <trkpt lat="42.670255" lon="0.239081">
        <ele>1574.099</ele>
        <time>2010-06-14T01:36:10Z</time>
      </trkpt>
      <trkpt lat="42.670169" lon="0.239253">
        <ele>1574.047</ele>
        <time>2010-06-14T01:36:26Z</time>
      </trkpt>
      <trkpt lat="42.670126" lon="0.239446">
        <ele>1559.015</ele>
        <time>2010-06-14T01:36:40Z</time>
      </trkpt>
      <trkpt lat="42.670169" lon="0.239704">
        <ele>1578.087</ele>
        <time>2010-06-14T01:36:59Z</time>
      </trkpt>
      <trkpt lat="42.670169" lon="0.239725">
        <ele>1578.029</ele>
        <time>2010-06-14T01:37:01Z</time>
      </trkpt>
      <trkpt lat="42.670362" lon="0.239983">
        <ele>1580.000</ele>
        <time>2010-06-14T01:37:28Z</time>
      </trkpt>
      <trkpt lat="42.670405" lon="0.240090">
        <ele>1580.020</ele>
        <time>2010-06-14T01:37:37Z</time>
      </trkpt>
      <trkpt lat="42.670448" lon="0.240347">
        <ele>1593.006</ele>
        <time>2010-06-14T01:37:56Z</time>
      </trkpt>
      <trkpt lat="42.670577" lon="0.240626">
        <ele>1593.041</ele>
        <time>2010-06-14T01:38:20Z</time>
      </trkpt>
      <trkpt lat="42.670641" lon="0.240691">
        <ele>1593.048</ele>
        <time>2010-06-14T01:38:28Z</time>
      </trkpt>
      <trkpt lat="42.670791" lon="0.240755">
        <ele>1599.035</ele>
        <time>2010-06-14T01:38:44Z</time>
      </trkpt>
      <trkpt lat="42.670770" lon="0.241056">
        <ele>1599.043</ele>
        <time>2010-06-14T01:39:06Z</time>
      </trkpt>
      <trkpt lat="42.670684" lon="0.241163">
        <ele>1595.091</ele>
        <time>2010-06-14T01:39:19Z</time>
      </trkpt>
      <trkpt lat="42.670748" lon="0.241442">
        <ele>1600.053</ele>
        <time>2010-06-14T01:39:40Z</time>
      </trkpt>
      <trkpt lat="42.670941" lon="0.241570">
        <ele>1601.024</ele>
        <time>2010-06-14T01:40:02Z</time>
      </trkpt>
      <trkpt lat="42.670963" lon="0.241828">
        <ele>1603.004</ele>
        <time>2010-06-14T01:40:21Z</time>
      </trkpt>
      <trkpt lat="42.671049" lon="0.242171">
        <ele>1608.014</ele>
        <time>2010-06-14T01:40:47Z</time>
      </trkpt>
      <trkpt lat="42.671242" lon="0.242407">
        <ele>1609.006</ele>
        <time>2010-06-14T01:41:12Z</time>
      </trkpt>
      <trkpt lat="42.671757" lon="0.242794">
        <ele>1620.061</ele>
        <time>2010-06-14T01:42:11Z</time>
      </trkpt>
      <trkpt lat="42.671971" lon="0.243030">
        <ele>1623.048</ele>
        <time>2010-06-14T01:42:40Z</time>
      </trkpt>
      <trkpt lat="42.672250" lon="0.243223">
        <ele>1623.025</ele>
        <time>2010-06-14T01:43:11Z</time>
      </trkpt>
      <trkpt lat="42.672272" lon="0.243266">
        <ele>1623.093</ele>
        <time>2010-06-14T01:43:15Z</time>
      </trkpt>
      <trkpt lat="42.672508" lon="0.243459">
        <ele>1626.031</ele>
        <time>2010-06-14T01:43:43Z</time>
      </trkpt>
      <trkpt lat="42.672765" lon="0.243523">
        <ele>1622.033</ele>
        <time>2010-06-14T01:44:09Z</time>
      </trkpt>
      <trkpt lat="42.673366" lon="0.243523">
        <ele>1630.043</ele>
        <time>2010-06-14T01:45:09Z</time>
      </trkpt>
      <trkpt lat="42.673645" lon="0.243630">
        <ele>1637.064</ele>
        <time>2010-06-14T01:45:38Z</time>
      </trkpt>
      <trkpt lat="42.673838" lon="0.243802">
        <ele>1638.010</ele>
        <time>2010-06-14T01:46:00Z</time>
      </trkpt>
      <trkpt lat="42.673838" lon="0.243824">
        <ele>1638.006</ele>
        <time>2010-06-14T01:46:03Z</time>
      </trkpt>
      <trkpt lat="42.674310" lon="0.244188">
        <ele>1649.083</ele>
        <time>2010-06-14T01:46:57Z</time>
      </trkpt>
      <trkpt lat="42.674503" lon="0.244403">
        <ele>1643.050</ele>
        <time>2010-06-14T01:47:21Z</time>
      </trkpt>
      <trkpt lat="42.674654" lon="0.244682">
        <ele>1645.037</ele>
        <time>2010-06-14T01:47:47Z</time>
      </trkpt>
      <trkpt lat="42.675040" lon="0.245068">
        <ele>1651.075</ele>
        <time>2010-06-14T01:48:35Z</time>
      </trkpt>
      <trkpt lat="42.675061" lon="0.245326">
        <ele>1650.043</ele>
        <time>2010-06-14T01:48:54Z</time>
      </trkpt>
      <trkpt lat="42.675040" lon="0.245605">
        <ele>1650.015</ele>
        <time>2010-06-14T01:49:15Z</time>
      </trkpt>
      <trkpt lat="42.675061" lon="0.245862">
        <ele>1653.053</ele>
        <time>2010-06-14T01:49:34Z</time>
      </trkpt>
      <trkpt lat="42.675169" lon="0.246055">
        <ele>1660.004</ele>
        <time>2010-06-14T01:49:51Z</time>
      </trkpt>
      <trkpt lat="42.675383" lon="0.246077">
        <ele>1660.014</ele>
        <time>2010-06-14T01:50:12Z</time>
      </trkpt>
      <trkpt lat="42.675598" lon="0.246034">
        <ele>1663.006</ele>
        <time>2010-06-14T01:50:34Z</time>
      </trkpt>
      <trkpt lat="42.675791" lon="0.246055">
        <ele>1668.024</ele>
        <time>2010-06-14T01:50:55Z</time>
      </trkpt>
      <trkpt lat="42.675941" lon="0.246270">
        <ele>1667.051</ele>
        <time>2010-06-14T01:51:16Z</time>
      </trkpt>
      <trkpt lat="42.676070" lon="0.246398">
        <ele>1673.088</ele>
        <time>2010-06-14T01:51:31Z</time>
      </trkpt>
      <trkpt lat="42.676198" lon="0.246549">
        <ele>1671.076</ele>
        <time>2010-06-14T01:51:49Z</time>
      </trkpt>
      <trkpt lat="42.676413" lon="0.246935">
        <ele>1675.054</ele>
        <time>2010-06-14T01:52:25Z</time>
      </trkpt>
      <trkpt lat="42.676628" lon="0.247364">
        <ele>1679.066</ele>
        <time>2010-06-14T01:53:02Z</time>
      </trkpt>
      <trkpt lat="42.676778" lon="0.247793">
        <ele>1678.071</ele>
        <time>2010-06-14T01:53:37Z</time>
      </trkpt>
      <trkpt lat="42.676821" lon="0.248137">
        <ele>1684.041</ele>
        <time>2010-06-14T01:54:04Z</time>
      </trkpt>
      <trkpt lat="42.676950" lon="0.248373">
        <ele>1684.015</ele>
        <time>2010-06-14T01:54:25Z</time>
      </trkpt>
      <trkpt lat="42.677035" lon="0.248694">
        <ele>1684.006</ele>
        <time>2010-06-14T01:54:49Z</time>
      </trkpt>
      <trkpt lat="42.677336" lon="0.249188">
        <ele>1690.086</ele>
        <time>2010-06-14T01:55:38Z</time>
      </trkpt>
      <trkpt lat="42.677422" lon="0.249531">
        <ele>1699.013</ele>
        <time>2010-06-14T01:56:04Z</time>
      </trkpt>
      <trkpt lat="42.677615" lon="0.250111">
        <ele>1699.010</ele>
        <time>2010-06-14T01:56:50Z</time>
      </trkpt>
      <trkpt lat="42.677615" lon="0.250733">
        <ele>1704.058</ele>
        <time>2010-06-14T01:57:37Z</time>
      </trkpt>
      <trkpt lat="42.677743" lon="0.251269">
        <ele>1710.046</ele>
        <time>2010-06-14T01:58:17Z</time>
      </trkpt>
      <trkpt lat="42.677915" lon="0.251741">
        <ele>1710.038</ele>
        <time>2010-06-14T01:58:57Z</time>
      </trkpt>
      <trkpt lat="42.678022" lon="0.251956">
        <ele>1715.097</ele>
        <time>2010-06-14T01:59:16Z</time>
      </trkpt>
      <trkpt lat="42.678237" lon="0.252514">
        <ele>1722.023</ele>
        <time>2010-06-14T02:00:02Z</time>
      </trkpt>
      <trkpt lat="42.678366" lon="0.252793">
        <ele>1722.025</ele>
        <time>2010-06-14T02:00:26Z</time>
      </trkpt>
      <trkpt lat="42.678409" lon="0.253029">
        <ele>1723.006</ele>
        <time>2010-06-14T02:00:45Z</time>
      </trkpt>
      <trkpt lat="42.678494" lon="0.253522">
        <ele>1735.028</ele>
        <time>2010-06-14T02:01:22Z</time>
      </trkpt>
      <trkpt lat="42.678537" lon="0.253801">
        <ele>1737.085</ele>
        <time>2010-06-14T02:01:43Z</time>
      </trkpt>
      <trkpt lat="42.678516" lon="0.254102">
        <ele>1738.012</ele>
        <time>2010-06-14T02:02:05Z</time>
      </trkpt>
      <trkpt lat="42.678430" lon="0.254402">
        <ele>1734.010</ele>
        <time>2010-06-14T02:02:29Z</time>
      </trkpt>
      <trkpt lat="42.678452" lon="0.254745">
        <ele>1737.068</ele>
        <time>2010-06-14T02:02:53Z</time>
      </trkpt>
      <trkpt lat="42.678323" lon="0.255282">
        <ele>1744.080</ele>
        <time>2010-06-14T02:03:36Z</time>
      </trkpt>
      <trkpt lat="42.678258" lon="0.255861">
        <ele>1749.073</ele>
        <time>2010-06-14T02:04:19Z</time>
      </trkpt>
      <trkpt lat="42.678258" lon="0.255969">
        <ele>1749.085</ele>
        <time>2010-06-14T02:04:27Z</time>
      </trkpt>
      <trkpt lat="42.678366" lon="0.256548">
        <ele>1757.013</ele>
        <time>2010-06-14T02:05:10Z</time>
      </trkpt>
      <trkpt lat="42.678387" lon="0.256870">
        <ele>1759.006</ele>
        <time>2010-06-14T02:05:35Z</time>
      </trkpt>
      <trkpt lat="42.678516" lon="0.257127">
        <ele>1764.086</ele>
        <time>2010-06-14T02:05:57Z</time>
      </trkpt>
      <trkpt lat="42.678559" lon="0.257385">
        <ele>1766.083</ele>
        <time>2010-06-14T02:06:17Z</time>
      </trkpt>
      <trkpt lat="42.678516" lon="0.257921">
        <ele>1769.060</ele>
        <time>2010-06-14T02:06:56Z</time>
      </trkpt>
      <trkpt lat="42.678602" lon="0.258157">
        <ele>1769.018</ele>
        <time>2010-06-14T02:07:15Z</time>
      </trkpt>
      <trkpt lat="42.678623" lon="0.258436">
        <ele>1773.016</ele>
        <time>2010-06-14T02:07:36Z</time>
      </trkpt>
      <trkpt lat="42.678580" lon="0.259144">
        <ele>1781.098</ele>
        <time>2010-06-14T02:08:29Z</time>
      </trkpt>
      <trkpt lat="42.678623" lon="0.259423">
        <ele>1784.045</ele>
        <time>2010-06-14T02:08:49Z</time>
      </trkpt>
      <trkpt lat="42.678580" lon="0.259724">
        <ele>1788.047</ele>
        <time>2010-06-14T02:09:12Z</time>
      </trkpt>
      <trkpt lat="42.678473" lon="0.260003">
        <ele>1791.011</ele>
        <time>2010-06-14T02:09:36Z</time>
      </trkpt>
      <trkpt lat="42.678452" lon="0.260625">
        <ele>1790.006</ele>
        <time>2010-06-14T02:10:20Z</time>
      </trkpt>
      <trkpt lat="42.678473" lon="0.260754">
        <ele>1801.053</ele>
        <time>2010-06-14T02:10:31Z</time>
      </trkpt>
      <trkpt lat="42.678494" lon="0.260775">
        <ele>1801.050</ele>
        <time>2010-06-14T02:10:34Z</time>
      </trkpt>
      <trkpt lat="42.678537" lon="0.261054">
        <ele>1804.057</ele>
        <time>2010-06-14T02:10:55Z</time>
      </trkpt>
      <trkpt lat="42.678537" lon="0.261312">
        <ele>1808.075</ele>
        <time>2010-06-14T02:11:13Z</time>
      </trkpt>
      <trkpt lat="42.678452" lon="0.261483">
        <ele>1800.063</ele>
        <time>2010-06-14T02:11:29Z</time>
      </trkpt>
      <trkpt lat="42.678452" lon="0.261505">
        <ele>1800.015</ele>
        <time>2010-06-14T02:11:30Z</time>
      </trkpt>
      <trkpt lat="42.678323" lon="0.261655">
        <ele>1804.063</ele>
        <time>2010-06-14T02:11:46Z</time>
      </trkpt>
      <trkpt lat="42.678194" lon="0.262041">
        <ele>1807.044</ele>
        <time>2010-06-14T02:12:19Z</time>
      </trkpt>
      <trkpt lat="42.678022" lon="0.262363">
        <ele>1818.018</ele>
        <time>2010-06-14T02:12:48Z</time>
      </trkpt>
      <trkpt lat="42.678087" lon="0.262513">
        <ele>1818.006</ele>
        <time>2010-06-14T02:13:01Z</time>
      </trkpt>
      <trkpt lat="42.678173" lon="0.262513">
        <ele>1818.065</ele>
        <time>2010-06-14T02:13:09Z</time>
      </trkpt>
      <trkpt lat="42.678387" lon="0.262363">
        <ele>1820.052</ele>
        <time>2010-06-14T02:13:33Z</time>
      </trkpt>
      <trkpt lat="42.678430" lon="0.262406">
        <ele>1820.029</ele>
        <time>2010-06-14T02:13:39Z</time>
      </trkpt>
      <trkpt lat="42.678409" lon="0.262470">
        <ele>1820.047</ele>
        <time>2010-06-14T02:13:44Z</time>
      </trkpt>
      <trkpt lat="42.678409" lon="0.262535">
        <ele>1820.045</ele>
        <time>2010-06-14T02:13:49Z</time>
      </trkpt>
      <trkpt lat="42.678494" lon="0.262556">
        <ele>1828.057</ele>
        <time>2010-06-14T02:13:57Z</time>
      </trkpt>
      <trkpt lat="42.678537" lon="0.262749">
        <ele>1834.077</ele>
        <time>2010-06-14T02:14:11Z</time>
      </trkpt>
      <trkpt lat="42.678537" lon="0.262835">
        <ele>1834.061</ele>
        <time>2010-06-14T02:14:17Z</time>
      </trkpt>
      <trkpt lat="42.678387" lon="0.263329">
        <ele>1837.027</ele>
        <time>2010-06-14T02:14:57Z</time>
      </trkpt>
      <trkpt lat="42.678194" lon="0.263522">
        <ele>1841.006</ele>
        <time>2010-06-14T02:15:21Z</time>
      </trkpt>
      <trkpt lat="42.678173" lon="0.263801">
        <ele>1846.076</ele>
        <time>2010-06-14T02:15:42Z</time>
      </trkpt>
      <trkpt lat="42.678216" lon="0.264080">
        <ele>1850.073</ele>
        <time>2010-06-14T02:16:02Z</time>
      </trkpt>
      <trkpt lat="42.678580" lon="0.264530">
        <ele>1857.040</ele>
        <time>2010-06-14T02:16:53Z</time>
      </trkpt>
      <trkpt lat="42.678773" lon="0.264895">
        <ele>1868.038</ele>
        <time>2010-06-14T02:17:25Z</time>
      </trkpt>
      <trkpt lat="42.678924" lon="0.265067">
        <ele>1868.036</ele>
        <time>2010-06-14T02:17:44Z</time>
      </trkpt>
      <trkpt lat="42.678859" lon="0.265303">
        <ele>1871.028</ele>
        <time>2010-06-14T02:18:03Z</time>
      </trkpt>
      <trkpt lat="42.678838" lon="0.265861">
        <ele>1880.028</ele>
        <time>2010-06-14T02:18:45Z</time>
      </trkpt>
      <trkpt lat="42.678580" lon="0.266247">
        <ele>1875.089</ele>
        <time>2010-06-14T02:19:23Z</time>
      </trkpt>
      <trkpt lat="42.678344" lon="0.266440">
        <ele>1872.017</ele>
        <time>2010-06-14T02:19:50Z</time>
      </trkpt>
      <trkpt lat="42.678087" lon="0.266976">
        <ele>1880.006</ele>
        <time>2010-06-14T02:20:38Z</time>
      </trkpt>
      <trkpt lat="42.678087" lon="0.267041">
        <ele>1880.061</ele>
        <time>2010-06-14T02:20:43Z</time>
      </trkpt>
      <trkpt lat="42.677851" lon="0.267212">
        <ele>1883.048</ele>
        <time>2010-06-14T02:21:10Z</time>
      </trkpt>
      <trkpt lat="42.677722" lon="0.267448">
        <ele>1890.085</ele>
        <time>2010-06-14T02:21:30Z</time>
      </trkpt>
      <trkpt lat="42.677701" lon="0.267620">
        <ele>1890.053</ele>
        <time>2010-06-14T02:21:43Z</time>
      </trkpt>
      <trkpt lat="42.677550" lon="0.268028">
        <ele>1899.051</ele>
        <time>2010-06-14T02:22:18Z</time>
      </trkpt>
      <trkpt lat="42.677486" lon="0.268457">
        <ele>1904.063</ele>
        <time>2010-06-14T02:22:50Z</time>
      </trkpt>
      <trkpt lat="42.677379" lon="0.268629">
        <ele>1910.028</ele>
        <time>2010-06-14T02:23:06Z</time>
      </trkpt>
      <trkpt lat="42.677314" lon="0.268800">
        <ele>1917.089</ele>
        <time>2010-06-14T02:23:20Z</time>
      </trkpt>
      <trkpt lat="42.677314" lon="0.268865">
        <ele>1917.017</ele>
        <time>2010-06-14T02:23:25Z</time>
      </trkpt>
      <trkpt lat="42.677293" lon="0.268800">
        <ele>1917.006</ele>
        <time>2010-06-14T02:23:31Z</time>
      </trkpt>
      <trkpt lat="42.677271" lon="0.268822">
        <ele>1917.061</ele>
        <time>2010-06-14T02:23:33Z</time>
      </trkpt>
      <trkpt lat="42.677228" lon="0.268843">
        <ele>1917.018</ele>
        <time>2010-06-14T02:23:38Z</time>
      </trkpt>
      <trkpt lat="42.677207" lon="0.268865">
        <ele>1917.055</ele>
        <time>2010-06-14T02:23:41Z</time>
      </trkpt>
      <trkpt lat="42.677379" lon="0.268843">
        <ele>1918.083</ele>
        <time>2010-06-14T02:23:57Z</time>
      </trkpt>
      <trkpt lat="42.677443" lon="0.268865">
        <ele>1918.021</ele>
        <time>2010-06-14T02:24:03Z</time>
      </trkpt>
      <trkpt lat="42.677550" lon="0.268779">
        <ele>1918.073</ele>
        <time>2010-06-14T02:24:16Z</time>
      </trkpt>
      <trkpt lat="42.677701" lon="0.268779">
        <ele>1926.089</ele>
        <time>2010-06-14T02:24:32Z</time>
      </trkpt>
      <trkpt lat="42.677701" lon="0.268950">
        <ele>1926.006</ele>
        <time>2010-06-14T02:24:45Z</time>
      </trkpt>
      <trkpt lat="42.677572" lon="0.269187">
        <ele>1926.026</ele>
        <time>2010-06-14T02:25:05Z</time>
      </trkpt>
      <trkpt lat="42.677593" lon="0.269294">
        <ele>1926.006</ele>
        <time>2010-06-14T02:25:13Z</time>
      </trkpt>
      <trkpt lat="42.677636" lon="0.269272">
        <ele>1926.057</ele>
        <time>2010-06-14T02:25:19Z</time>
      </trkpt>
      <trkpt lat="42.677722" lon="0.269144">
        <ele>1934.014</ele>
        <time>2010-06-14T02:25:32Z</time>
      </trkpt>
      <trkpt lat="42.677786" lon="0.269229">
        <ele>1934.071</ele>
        <time>2010-06-14T02:25:40Z</time>
      </trkpt>
      <trkpt lat="42.677743" lon="0.269337">
        <ele>1941.089</ele>
        <time>2010-06-14T02:25:50Z</time>
      </trkpt>
      <trkpt lat="42.677743" lon="0.269465">
        <ele>1941.047</ele>
        <time>2010-06-14T02:25:58Z</time>
      </trkpt>
      <trkpt lat="42.677851" lon="0.269380">
        <ele>1941.039</ele>
        <time>2010-06-14T02:26:12Z</time>
      </trkpt>
      <trkpt lat="42.677851" lon="0.269487">
        <ele>1941.015</ele>
        <time>2010-06-14T02:26:20Z</time>
      </trkpt>
      <trkpt lat="42.677701" lon="0.269723">
        <ele>1947.065</ele>
        <time>2010-06-14T02:26:42Z</time>
      </trkpt>
      <trkpt lat="42.677679" lon="0.269787">
        <ele>1947.011</ele>
        <time>2010-06-14T02:26:47Z</time>
      </trkpt>
      <trkpt lat="42.677701" lon="0.270195">
        <ele>1957.006</ele>
        <time>2010-06-14T02:27:17Z</time>
      </trkpt>
      <trkpt lat="42.677701" lon="0.270731">
        <ele>1963.070</ele>
        <time>2010-06-14T02:27:57Z</time>
      </trkpt>
      <trkpt lat="42.677615" lon="0.271096">
        <ele>1958.067</ele>
        <time>2010-06-14T02:28:24Z</time>
      </trkpt>
      <trkpt lat="42.677636" lon="0.271354">
        <ele>1960.084</ele>
        <time>2010-06-14T02:28:45Z</time>
      </trkpt>
      <trkpt lat="42.677765" lon="0.271869">
        <ele>1973.022</ele>
        <time>2010-06-14T02:29:25Z</time>
      </trkpt>
      <trkpt lat="42.677808" lon="0.272234">
        <ele>1977.060</ele>
        <time>2010-06-14T02:29:52Z</time>
      </trkpt>
      <trkpt lat="42.677658" lon="0.272706">
        <ele>1985.062</ele>
        <time>2010-06-14T02:30:30Z</time>
      </trkpt>
      <trkpt lat="42.677379" lon="0.273371">
        <ele>1984.037</ele>
        <time>2010-06-14T02:31:26Z</time>
      </trkpt>
      <trkpt lat="42.677379" lon="0.273607">
        <ele>1988.049</ele>
        <time>2010-06-14T02:31:42Z</time>
      </trkpt>
      <trkpt lat="42.677507" lon="0.274036">
        <ele>1996.013</ele>
        <time>2010-06-14T02:32:17Z</time>
      </trkpt>
      <trkpt lat="42.677529" lon="0.274251">
        <ele>1996.006</ele>
        <time>2010-06-14T02:32:33Z</time>
      </trkpt>
      <trkpt lat="42.677507" lon="0.274401">
        <ele>2000.022</ele>
        <time>2010-06-14T02:32:45Z</time>
      </trkpt>
      <trkpt lat="42.677400" lon="0.274723">
        <ele>2004.029</ele>
        <time>2010-06-14T02:33:11Z</time>
      </trkpt>
      <trkpt lat="42.677250" lon="0.274766">
        <ele>1999.096</ele>
        <time>2010-06-14T02:33:25Z</time>
      </trkpt>
      <trkpt lat="42.677121" lon="0.274894">
        <ele>2003.094</ele>
        <time>2010-06-14T02:33:41Z</time>
      </trkpt>
      <trkpt lat="42.677164" lon="0.275452">
        <ele>2012.082</ele>
        <time>2010-06-14T02:34:22Z</time>
      </trkpt>
      <trkpt lat="42.677336" lon="0.275710">
        <ele>2015.014</ele>
        <time>2010-06-14T02:34:49Z</time>
      </trkpt>
      <trkpt lat="42.677357" lon="0.275860">
        <ele>2015.091</ele>
        <time>2010-06-14T02:34:59Z</time>
      </trkpt>
      <trkpt lat="42.677207" lon="0.276353">
        <ele>2020.081</ele>
        <time>2010-06-14T02:35:39Z</time>
      </trkpt>
      <trkpt lat="42.677228" lon="0.276396">
        <ele>2020.019</ele>
        <time>2010-06-14T02:35:42Z</time>
      </trkpt>
      <trkpt lat="42.677357" lon="0.276740">
        <ele>2022.006</ele>
        <time>2010-06-14T02:36:12Z</time>
      </trkpt>
      <trkpt lat="42.677443" lon="0.277147">
        <ele>2033.038</ele>
        <time>2010-06-14T02:36:43Z</time>
      </trkpt>
      <trkpt lat="42.677529" lon="0.277319">
        <ele>2033.055</ele>
        <time>2010-06-14T02:36:57Z</time>
      </trkpt>
      <trkpt lat="42.677550" lon="0.277619">
        <ele>2036.012</ele>
        <time>2010-06-14T02:37:19Z</time>
      </trkpt>
      <trkpt lat="42.677379" lon="0.278049">
        <ele>2046.020</ele>
        <time>2010-06-14T02:37:56Z</time>
      </trkpt>
      <trkpt lat="42.677078" lon="0.279121">
        <ele>2052.068</ele>
        <time>2010-06-14T02:39:20Z</time>
      </trkpt>
      <trkpt lat="42.676649" lon="0.279658">
        <ele>2061.060</ele>
        <time>2010-06-14T02:40:19Z</time>
      </trkpt>
      <trkpt lat="42.676499" lon="0.279765">
        <ele>2058.029</ele>
        <time>2010-06-14T02:40:36Z</time>
      </trkpt>
      <trkpt lat="42.676198" lon="0.280066">
        <ele>2061.000</ele>
        <time>2010-06-14T02:41:13Z</time>
      </trkpt>
      <trkpt lat="42.676113" lon="0.280280">
        <ele>2066.020</ele>
        <time>2010-06-14T02:41:31Z</time>
      </trkpt>
      <trkpt lat="42.675962" lon="0.280709">
        <ele>2071.006</ele>
        <time>2010-06-14T02:42:06Z</time>
      </trkpt>
      <trkpt lat="42.675920" lon="0.280902">
        <ele>2071.081</ele>
        <time>2010-06-14T02:42:20Z</time>
      </trkpt>
      <trkpt lat="42.675877" lon="0.281224">
        <ele>2076.098</ele>
        <time>2010-06-14T02:42:44Z</time>
      </trkpt>
      <trkpt lat="42.675748" lon="0.281460">
        <ele>2082.065</ele>
        <time>2010-06-14T02:43:06Z</time>
      </trkpt>
      <trkpt lat="42.675533" lon="0.281825">
        <ele>2087.053</ele>
        <time>2010-06-14T02:43:41Z</time>
      </trkpt>
      <trkpt lat="42.675512" lon="0.281975">
        <ele>2087.071</ele>
        <time>2010-06-14T02:43:51Z</time>
      </trkpt>
      <trkpt lat="42.675576" lon="0.281911">
        <ele>2087.043</ele>
        <time>2010-06-14T02:44:00Z</time>
      </trkpt>
      <trkpt lat="42.675469" lon="0.282426">
        <ele>2098.046</ele>
        <time>2010-06-14T02:44:40Z</time>
      </trkpt>
      <trkpt lat="42.675426" lon="0.282705">
        <ele>2104.088</ele>
        <time>2010-06-14T02:45:01Z</time>
      </trkpt>
      <trkpt lat="42.675362" lon="0.282877">
        <ele>2098.016</ele>
        <time>2010-06-14T02:45:15Z</time>
      </trkpt>
      <trkpt lat="42.675319" lon="0.282919">
        <ele>2103.006</ele>
        <time>2010-06-14T02:45:20Z</time>
      </trkpt>
      <trkpt lat="42.675083" lon="0.283306">
        <ele>2103.013</ele>
        <time>2010-06-14T02:45:57Z</time>
      </trkpt>
      <trkpt lat="42.675061" lon="0.283349">
        <ele>2103.070</ele>
        <time>2010-06-14T02:46:01Z</time>
      </trkpt>
      <trkpt lat="42.674975" lon="0.283649">
        <ele>2109.057</ele>
        <time>2010-06-14T02:46:25Z</time>
      </trkpt>
      <trkpt lat="42.674954" lon="0.283928">
        <ele>2114.075</ele>
        <time>2010-06-14T02:46:44Z</time>
      </trkpt>
      <trkpt lat="42.674868" lon="0.284293">
        <ele>2121.013</ele>
        <time>2010-06-14T02:47:13Z</time>
      </trkpt>
      <trkpt lat="42.674718" lon="0.284700">
        <ele>2127.025</ele>
        <time>2010-06-14T02:47:46Z</time>
      </trkpt>
      <trkpt lat="42.674611" lon="0.284894">
        <ele>2135.036</ele>
        <time>2010-06-14T02:48:05Z</time>
      </trkpt>
      <trkpt lat="42.674460" lon="0.285301">
        <ele>2137.017</ele>
        <time>2010-06-14T02:48:37Z</time>
      </trkpt>
      <trkpt lat="42.674396" lon="0.285387">
        <ele>2137.018</ele>
        <time>2010-06-14T02:48:47Z</time>
      </trkpt>
      <trkpt lat="42.674031" lon="0.285537">
        <ele>2141.006</ele>
        <time>2010-06-14T02:49:25Z</time>
      </trkpt>
      <trkpt lat="42.673817" lon="0.285580">
        <ele>2136.072</ele>
        <time>2010-06-14T02:49:47Z</time>
      </trkpt>
      <trkpt lat="42.673538" lon="0.285752">
        <ele>2144.059</ele>
        <time>2010-06-14T02:50:18Z</time>
      </trkpt>
      <trkpt lat="42.673323" lon="0.285988">
        <ele>2150.056</ele>
        <time>2010-06-14T02:50:45Z</time>
      </trkpt>
      <trkpt lat="42.673044" lon="0.286353">
        <ele>2154.014</ele>
        <time>2010-06-14T02:51:23Z</time>
      </trkpt>
      <trkpt lat="42.672958" lon="0.286524">
        <ele>2154.042</ele>
        <time>2010-06-14T02:51:39Z</time>
      </trkpt>
      <trkpt lat="42.672851" lon="0.286653">
        <ele>2159.044</ele>
        <time>2010-06-14T02:51:53Z</time>
      </trkpt>
      <trkpt lat="42.672658" lon="0.286846">
        <ele>2168.012</ele>
        <time>2010-06-14T02:52:17Z</time>
      </trkpt>
      <trkpt lat="42.672422" lon="0.287039">
        <ele>2166.032</ele>
        <time>2010-06-14T02:52:44Z</time>
      </trkpt>
      <trkpt lat="42.672229" lon="0.287254">
        <ele>2176.005</ele>
        <time>2010-06-14T02:53:10Z</time>
      </trkpt>
      <trkpt lat="42.672079" lon="0.287340">
        <ele>2178.006</ele>
        <time>2010-06-14T02:53:27Z</time>
      </trkpt>
      <trkpt lat="42.671843" lon="0.287554">
        <ele>2186.080</ele>
        <time>2010-06-14T02:53:54Z</time>
      </trkpt>
      <trkpt lat="42.671735" lon="0.287704">
        <ele>2196.027</ele>
        <time>2010-06-14T02:54:10Z</time>
      </trkpt>
      <trkpt lat="42.671499" lon="0.287855">
        <ele>2201.074</ele>
        <time>2010-06-14T02:54:36Z</time>
      </trkpt>
      <trkpt lat="42.671413" lon="0.287898">
        <ele>2201.072</ele>
        <time>2010-06-14T02:54:45Z</time>
      </trkpt>
      <trkpt lat="42.671156" lon="0.288069">
        <ele>2214.050</ele>
        <time>2010-06-14T02:55:14Z</time>
      </trkpt>
      <trkpt lat="42.670984" lon="0.288026">
        <ele>2214.052</ele>
        <time>2010-06-14T02:55:31Z</time>
      </trkpt>
      <trkpt lat="42.670813" lon="0.288005">
        <ele>2224.086</ele>
        <time>2010-06-14T02:55:49Z</time>
      </trkpt>
      <trkpt lat="42.670877" lon="0.288155">
        <ele>2224.060</ele>
        <time>2010-06-14T02:56:02Z</time>
      </trkpt>
      <trkpt lat="42.670898" lon="0.288434">
        <ele>2229.026</ele>
        <time>2010-06-14T02:56:22Z</time>
      </trkpt>
      <trkpt lat="42.670920" lon="0.288498">
        <ele>2236.006</ele>
        <time>2010-06-14T02:56:28Z</time>
      </trkpt>
      <trkpt lat="42.671027" lon="0.288649">
        <ele>2228.047</ele>
        <time>2010-06-14T02:56:43Z</time>
      </trkpt>
      <trkpt lat="42.671242" lon="0.288649">
        <ele>2228.064</ele>
        <time>2010-06-14T02:57:04Z</time>
      </trkpt>
      <trkpt lat="42.671285" lon="0.288734">
        <ele>2224.051</ele>
        <time>2010-06-14T02:57:12Z</time>
      </trkpt>
      <trkpt lat="42.671092" lon="0.288863">
        <ele>2237.039</ele>
        <time>2010-06-14T02:57:34Z</time>
      </trkpt>
      <trkpt lat="42.670984" lon="0.288885">
        <ele>2237.077</ele>
        <time>2010-06-14T02:57:43Z</time>
      </trkpt>
      <trkpt lat="42.670856" lon="0.288842">
        <ele>2244.089</ele>
        <time>2010-06-14T02:57:58Z</time>
      </trkpt>
      <trkpt lat="42.670791" lon="0.288777">
        <ele>2244.075</ele>
        <time>2010-06-14T02:58:06Z</time>
      </trkpt>
      <trkpt lat="42.670448" lon="0.288756">
        <ele>2254.028</ele>
        <time>2010-06-14T02:58:39Z</time>
      </trkpt>
      <trkpt lat="42.670255" lon="0.288670">
        <ele>2257.020</ele>
        <time>2010-06-14T02:59:00Z</time>
      </trkpt>
      <trkpt lat="42.670147" lon="0.288391">
        <ele>2251.006</ele>
        <time>2010-06-14T02:59:24Z</time>
      </trkpt>
      <trkpt lat="42.669976" lon="0.288219">
        <ele>2263.066</ele>
        <time>2010-06-14T02:59:44Z</time>
      </trkpt>
      <trkpt lat="42.669933" lon="0.288155">
        <ele>2260.073</ele>
        <time>2010-06-14T02:59:51Z</time>
      </trkpt>
      <trkpt lat="42.669868" lon="0.288198">
        <ele>2263.080</ele>
        <time>2010-06-14T02:59:59Z</time>
      </trkpt>
      <trkpt lat="42.669868" lon="0.288219">
        <ele>2263.018</ele>
        <time>2010-06-14T02:59:59Z</time>
      </trkpt>
      <trkpt lat="42.669783" lon="0.288219">
        <ele>2275.046</ele>
        <time>2010-06-14T03:00:08Z</time>
      </trkpt>
      <trkpt lat="42.669718" lon="0.288155">
        <ele>2273.068</ele>
        <time>2010-06-14T03:00:16Z</time>
      </trkpt>
      <trkpt lat="42.669611" lon="0.288134">
        <ele>2273.074</ele>
        <time>2010-06-14T03:00:27Z</time>
      </trkpt>
      <trkpt lat="42.669482" lon="0.288134">
        <ele>2285.056</ele>
        <time>2010-06-14T03:00:40Z</time>
      </trkpt>
      <trkpt lat="42.669396" lon="0.288177">
        <ele>2285.021</ele>
        <time>2010-06-14T03:00:50Z</time>
      </trkpt>
      <trkpt lat="42.669375" lon="0.288241">
        <ele>2286.006</ele>
        <time>2010-06-14T03:00:54Z</time>
      </trkpt>
      <trkpt lat="42.669225" lon="0.288155">
        <ele>2295.046</ele>
        <time>2010-06-14T03:01:10Z</time>
      </trkpt>
      <trkpt lat="42.669182" lon="0.288241">
        <ele>2295.063</ele>
        <time>2010-06-14T03:01:18Z</time>
      </trkpt>
      <trkpt lat="42.669139" lon="0.288241">
        <ele>2295.030</ele>
        <time>2010-06-14T03:01:23Z</time>
      </trkpt>
      <trkpt lat="42.669053" lon="0.288305">
        <ele>2295.088</ele>
        <time>2010-06-14T03:01:33Z</time>
      </trkpt>
      <trkpt lat="42.668839" lon="0.288520">
        <ele>2303.096</ele>
        <time>2010-06-14T03:01:58Z</time>
      </trkpt>
      <trkpt lat="42.668560" lon="0.288563">
        <ele>2306.058</ele>
        <time>2010-06-14T03:02:27Z</time>
      </trkpt>
      <trkpt lat="42.668431" lon="0.288541">
        <ele>2309.019</ele>
        <time>2010-06-14T03:02:40Z</time>
      </trkpt>
      <trkpt lat="42.668431" lon="0.288563">
        <ele>2309.009</ele>
        <time>2010-06-14T03:02:41Z</time>
      </trkpt>
      <trkpt lat="42.668366" lon="0.288498">
        <ele>2309.019</ele>
        <time>2010-06-14T03:02:49Z</time>
      </trkpt>
      <trkpt lat="42.668345" lon="0.288456">
        <ele>2313.006</ele>
        <time>2010-06-14T03:02:54Z</time>
      </trkpt>
      <trkpt lat="42.668345" lon="0.288413">
        <ele>2313.070</ele>
        <time>2010-06-14T03:02:57Z</time>
      </trkpt>
      <trkpt lat="42.668474" lon="0.288069">
        <ele>2311.097</ele>
        <time>2010-06-14T03:03:24Z</time>
      </trkpt>
      <trkpt lat="42.668474" lon="0.287855">
        <ele>2313.084</ele>
        <time>2010-06-14T03:03:41Z</time>
      </trkpt>
      <trkpt lat="42.668302" lon="0.287833">
        <ele>2319.052</ele>
        <time>2010-06-14T03:03:59Z</time>
      </trkpt>
      <trkpt lat="42.668195" lon="0.288048">
        <ele>2316.060</ele>
        <time>2010-06-14T03:04:18Z</time>
      </trkpt>
      <trkpt lat="42.667894" lon="0.288177">
        <ele>2325.022</ele>
        <time>2010-06-14T03:04:48Z</time>
      </trkpt>
      <trkpt lat="42.667830" lon="0.288177">
        <ele>2325.046</ele>
        <time>2010-06-14T03:04:55Z</time>
      </trkpt>
      <trkpt lat="42.667422" lon="0.288241">
        <ele>2321.088</ele>
        <time>2010-06-14T03:05:36Z</time>
      </trkpt>
      <trkpt lat="42.667401" lon="0.288219">
        <ele>2321.016</ele>
        <time>2010-06-14T03:05:39Z</time>
      </trkpt>
      <trkpt lat="42.667336" lon="0.288005">
        <ele>2330.006</ele>
        <time>2010-06-14T03:05:55Z</time>
      </trkpt>
      <trkpt lat="42.667336" lon="0.287704">
        <ele>2336.033</ele>
        <time>2010-06-14T03:06:19Z</time>
      </trkpt>
      <trkpt lat="42.667294" lon="0.287490">
        <ele>2340.010</ele>
        <time>2010-06-14T03:06:35Z</time>
      </trkpt>
      <trkpt lat="42.667186" lon="0.287297">
        <ele>2343.057</ele>
        <time>2010-06-14T03:06:53Z</time>
      </trkpt>
      <trkpt lat="42.667208" lon="0.286996">
        <ele>2346.095</ele>
        <time>2010-06-14T03:07:15Z</time>
      </trkpt>
      <trkpt lat="42.667294" lon="0.286760">
        <ele>2348.043</ele>
        <time>2010-06-14T03:07:34Z</time>
      </trkpt>
      <trkpt lat="42.667530" lon="0.286653">
        <ele>2346.045</ele>
        <time>2010-06-14T03:07:59Z</time>
      </trkpt>
      <trkpt lat="42.667615" lon="0.286567">
        <ele>2346.095</ele>
        <time>2010-06-14T03:08:09Z</time>
      </trkpt>
      <trkpt lat="42.667637" lon="0.286524">
        <ele>2349.049</ele>
        <time>2010-06-14T03:08:14Z</time>
      </trkpt>
      <trkpt lat="42.667980" lon="0.286095">
        <ele>2344.023</ele>
        <time>2010-06-14T03:09:00Z</time>
      </trkpt>
      <trkpt lat="42.667916" lon="0.286031">
        <ele>2349.006</ele>
        <time>2010-06-14T03:09:08Z</time>
      </trkpt>
      <trkpt lat="42.667465" lon="0.285923">
        <ele>2357.078</ele>
        <time>2010-06-14T03:09:54Z</time>
      </trkpt>
      <trkpt lat="42.666993" lon="0.285473">
        <ele>2360.045</ele>
        <time>2010-06-14T03:10:51Z</time>
      </trkpt>
      <trkpt lat="42.666779" lon="0.285473">
        <ele>2357.022</ele>
        <time>2010-06-14T03:11:12Z</time>
      </trkpt>
      <trkpt lat="42.666714" lon="0.285409">
        <ele>2360.030</ele>
        <time>2010-06-14T03:11:20Z</time>
      </trkpt>
      <trkpt lat="42.666693" lon="0.285065">
        <ele>2362.078</ele>
        <time>2010-06-14T03:11:47Z</time>
      </trkpt>
      <trkpt lat="42.666650" lon="0.284808">
        <ele>2363.070</ele>
        <time>2010-06-14T03:12:05Z</time>
      </trkpt>
      <trkpt lat="42.666564" lon="0.284679">
        <ele>2363.026</ele>
        <time>2010-06-14T03:12:19Z</time>
      </trkpt>
      <trkpt lat="42.666607" lon="0.284529">
        <ele>2364.047</ele>
        <time>2010-06-14T03:12:30Z</time>
      </trkpt>
      <trkpt lat="42.666607" lon="0.284357">
        <ele>2364.011</ele>
        <time>2010-06-14T03:12:43Z</time>
      </trkpt>
      <trkpt lat="42.667186" lon="0.285666">
        <ele>2362.006</ele>
        <time>2010-06-14T03:14:36Z</time>
      </trkpt>
      <trkpt lat="42.667401" lon="0.285859">
        <ele>2357.091</ele>
        <time>2010-06-14T03:15:01Z</time>
      </trkpt>
      <trkpt lat="42.667401" lon="0.285945">
        <ele>2357.038</ele>
        <time>2010-06-14T03:15:08Z</time>
      </trkpt>
      <trkpt lat="42.667422" lon="0.286009">
        <ele>2353.015</ele>
        <time>2010-06-14T03:15:13Z</time>
      </trkpt>
      <trkpt lat="42.667444" lon="0.286353">
        <ele>2349.043</ele>
        <time>2010-06-14T03:15:38Z</time>
      </trkpt>
      <trkpt lat="42.667551" lon="0.286632">
        <ele>2346.041</ele>
        <time>2010-06-14T03:16:02Z</time>
      </trkpt>
      <trkpt lat="42.667508" lon="0.286696">
        <ele>2346.063</ele>
        <time>2010-06-14T03:16:07Z</time>
      </trkpt>
      <trkpt lat="42.667294" lon="0.286825">
        <ele>2346.078</ele>
        <time>2010-06-14T03:16:31Z</time>
      </trkpt>
      <trkpt lat="42.667165" lon="0.287125">
        <ele>2343.033</ele>
        <time>2010-06-14T03:16:57Z</time>
      </trkpt>
      <trkpt lat="42.667229" lon="0.287468">
        <ele>2340.026</ele>
        <time>2010-06-14T03:17:23Z</time>
      </trkpt>
      <trkpt lat="42.667336" lon="0.287619">
        <ele>2340.006</ele>
        <time>2010-06-14T03:17:37Z</time>
      </trkpt>
      <trkpt lat="42.667315" lon="0.287962">
        <ele>2330.086</ele>
        <time>2010-06-14T03:18:04Z</time>
      </trkpt>
      <trkpt lat="42.667422" lon="0.288284">
        <ele>2321.083</ele>
        <time>2010-06-14T03:18:30Z</time>
      </trkpt>
      <trkpt lat="42.667766" lon="0.288284">
        <ele>2318.030</ele>
        <time>2010-06-14T03:19:03Z</time>
      </trkpt>
      <trkpt lat="42.667787" lon="0.288327">
        <ele>2318.058</ele>
        <time>2010-06-14T03:19:08Z</time>
      </trkpt>
      <trkpt lat="42.667787" lon="0.288498">
        <ele>2311.036</ele>
        <time>2010-06-14T03:19:21Z</time>
      </trkpt>
      <trkpt lat="42.667851" lon="0.288563">
        <ele>2311.088</ele>
        <time>2010-06-14T03:19:29Z</time>
      </trkpt>
      <trkpt lat="42.667894" lon="0.288563">
        <ele>2311.023</ele>
        <time>2010-06-14T03:19:33Z</time>
      </trkpt>
      <trkpt lat="42.668087" lon="0.288498">
        <ele>2310.083</ele>
        <time>2010-06-14T03:19:53Z</time>
      </trkpt>
      <trkpt lat="42.668109" lon="0.288477">
        <ele>2310.011</ele>
        <time>2010-06-14T03:19:54Z</time>
      </trkpt>
      <trkpt lat="42.668152" lon="0.288456">
        <ele>2316.006</ele>
        <time>2010-06-14T03:19:59Z</time>
      </trkpt>
      <trkpt lat="42.668195" lon="0.288456">
        <ele>2313.051</ele>
        <time>2010-06-14T03:20:04Z</time>
      </trkpt>
      <trkpt lat="42.668581" lon="0.288627">
        <ele>2306.068</ele>
        <time>2010-06-14T03:20:44Z</time>
      </trkpt>
      <trkpt lat="42.668495" lon="0.289035">
        <ele>2304.035</ele>
        <time>2010-06-14T03:21:16Z</time>
      </trkpt>
      <trkpt lat="42.668517" lon="0.289764">
        <ele>2302.013</ele>
        <time>2010-06-14T03:22:10Z</time>
      </trkpt>
      <trkpt lat="42.668624" lon="0.290279">
        <ele>2299.031</ele>
        <time>2010-06-14T03:22:48Z</time>
      </trkpt>
      <trkpt lat="42.668710" lon="0.290580">
        <ele>2297.063</ele>
        <time>2010-06-14T03:23:13Z</time>
      </trkpt>
      <trkpt lat="42.668817" lon="0.290751">
        <ele>2305.031</ele>
        <time>2010-06-14T03:23:29Z</time>
      </trkpt>
      <trkpt lat="42.668731" lon="0.290751">
        <ele>2295.061</ele>
        <time>2010-06-14T03:23:37Z</time>
      </trkpt>
      <trkpt lat="42.668688" lon="0.290902">
        <ele>2295.007</ele>
        <time>2010-06-14T03:23:50Z</time>
      </trkpt>
      <trkpt lat="42.668517" lon="0.291073">
        <ele>2292.006</ele>
        <time>2010-06-14T03:24:11Z</time>
      </trkpt>
      <trkpt lat="42.668581" lon="0.291138">
        <ele>2292.042</ele>
        <time>2010-06-14T03:24:19Z</time>
      </trkpt>
      <trkpt lat="42.668624" lon="0.291138">
        <ele>2292.019</ele>
        <time>2010-06-14T03:24:23Z</time>
      </trkpt>
      <trkpt lat="42.668624" lon="0.291224">
        <ele>2292.096</ele>
        <time>2010-06-14T03:24:30Z</time>
      </trkpt>
      <trkpt lat="42.668667" lon="0.291331">
        <ele>2289.074</ele>
        <time>2010-06-14T03:24:39Z</time>
      </trkpt>
      <trkpt lat="42.668667" lon="0.291545">
        <ele>2286.052</ele>
        <time>2010-06-14T03:24:55Z</time>
      </trkpt>
      <trkpt lat="42.668581" lon="0.291760">
        <ele>2286.094</ele>
        <time>2010-06-14T03:25:13Z</time>
      </trkpt>
      <trkpt lat="42.668474" lon="0.291932">
        <ele>2283.017</ele>
        <time>2010-06-14T03:25:29Z</time>
      </trkpt>
      <trkpt lat="42.668431" lon="0.292146">
        <ele>2268.087</ele>
        <time>2010-06-14T03:25:46Z</time>
      </trkpt>
      <trkpt lat="42.668302" lon="0.292468">
        <ele>2265.015</ele>
        <time>2010-06-14T03:26:13Z</time>
      </trkpt>
      <trkpt lat="42.668259" lon="0.292983">
        <ele>2262.006</ele>
        <time>2010-06-14T03:26:50Z</time>
      </trkpt>
      <trkpt lat="42.668195" lon="0.293262">
        <ele>2262.070</ele>
        <time>2010-06-14T03:27:12Z</time>
      </trkpt>
      <trkpt lat="42.667959" lon="0.294034">
        <ele>2249.087</ele>
        <time>2010-06-14T03:28:14Z</time>
      </trkpt>
      <trkpt lat="42.667980" lon="0.294077">
        <ele>2249.064</ele>
        <time>2010-06-14T03:28:16Z</time>
      </trkpt>
      <trkpt lat="42.668002" lon="0.294163">
        <ele>2249.032</ele>
        <time>2010-06-14T03:28:24Z</time>
      </trkpt>
      <trkpt lat="42.667830" lon="0.294743">
        <ele>2236.070</ele>
        <time>2010-06-14T03:29:10Z</time>
      </trkpt>
      <trkpt lat="42.667787" lon="0.295386">
        <ele>2237.012</ele>
        <time>2010-06-14T03:29:58Z</time>
      </trkpt>
      <trkpt lat="42.667787" lon="0.295579">
        <ele>2237.061</ele>
        <time>2010-06-14T03:30:12Z</time>
      </trkpt>
      <trkpt lat="42.667723" lon="0.295944">
        <ele>2238.021</ele>
        <time>2010-06-14T03:30:39Z</time>
      </trkpt>
      <trkpt lat="42.667723" lon="0.296245">
        <ele>2239.013</ele>
        <time>2010-06-14T03:31:01Z</time>
      </trkpt>
      <trkpt lat="42.667658" lon="0.296395">
        <ele>2241.006</ele>
        <time>2010-06-14T03:31:14Z</time>
      </trkpt>
      <trkpt lat="42.667487" lon="0.296588">
        <ele>2229.055</ele>
        <time>2010-06-14T03:31:36Z</time>
      </trkpt>
      <trkpt lat="42.667251" lon="0.297124">
        <ele>2220.072</ele>
        <time>2010-06-14T03:32:23Z</time>
      </trkpt>
      <trkpt lat="42.667122" lon="0.297618">
        <ele>2221.069</ele>
        <time>2010-06-14T03:33:01Z</time>
      </trkpt>
      <trkpt lat="42.667079" lon="0.297875">
        <ele>2214.087</ele>
        <time>2010-06-14T03:33:21Z</time>
      </trkpt>
      <trkpt lat="42.667100" lon="0.298111">
        <ele>2225.085</ele>
        <time>2010-06-14T03:33:37Z</time>
      </trkpt>
      <trkpt lat="42.667036" lon="0.298519">
        <ele>2219.077</ele>
        <time>2010-06-14T03:34:09Z</time>
      </trkpt>
      <trkpt lat="42.667036" lon="0.298862">
        <ele>2222.097</ele>
        <time>2010-06-14T03:34:33Z</time>
      </trkpt>
      <trkpt lat="42.667036" lon="0.299141">
        <ele>2226.023</ele>
        <time>2010-06-14T03:34:54Z</time>
      </trkpt>
      <trkpt lat="42.666972" lon="0.299377">
        <ele>2232.025</ele>
        <time>2010-06-14T03:35:13Z</time>
      </trkpt>
      <trkpt lat="42.666779" lon="0.299699">
        <ele>2226.006</ele>
        <time>2010-06-14T03:35:43Z</time>
      </trkpt>
      <trkpt lat="42.666671" lon="0.299957">
        <ele>2233.018</ele>
        <time>2010-06-14T03:36:05Z</time>
      </trkpt>
      <trkpt lat="42.666628" lon="0.300107">
        <ele>2233.045</ele>
        <time>2010-06-14T03:36:17Z</time>
      </trkpt>
      <trkpt lat="42.666521" lon="0.300257">
        <ele>2227.092</ele>
        <time>2010-06-14T03:36:32Z</time>
      </trkpt>
      <trkpt lat="42.666392" lon="0.300558">
        <ele>2236.070</ele>
        <time>2010-06-14T03:36:58Z</time>
      </trkpt>
      <trkpt lat="42.666307" lon="0.300751">
        <ele>2244.058</ele>
        <time>2010-06-14T03:37:14Z</time>
      </trkpt>
      <trkpt lat="42.666307" lon="0.300879">
        <ele>2244.050</ele>
        <time>2010-06-14T03:37:23Z</time>
      </trkpt>
      <trkpt lat="42.666242" lon="0.301180">
        <ele>2236.054</ele>
        <time>2010-06-14T03:37:46Z</time>
      </trkpt>
      <trkpt lat="42.666178" lon="0.301566">
        <ele>2246.056</ele>
        <time>2010-06-14T03:38:17Z</time>
      </trkpt>
      <trkpt lat="42.666156" lon="0.302060">
        <ele>2251.011</ele>
        <time>2010-06-14T03:38:53Z</time>
      </trkpt>
      <trkpt lat="42.666092" lon="0.302253">
        <ele>2254.006</ele>
        <time>2010-06-14T03:39:09Z</time>
      </trkpt>
      <trkpt lat="42.666070" lon="0.302811">
        <ele>2258.094</ele>
        <time>2010-06-14T03:39:50Z</time>
      </trkpt>
      <trkpt lat="42.666135" lon="0.303197">
        <ele>2259.091</ele>
        <time>2010-06-14T03:40:19Z</time>
      </trkpt>
      <trkpt lat="42.666070" lon="0.303733">
        <ele>2260.078</ele>
        <time>2010-06-14T03:40:58Z</time>
      </trkpt>
      <trkpt lat="42.665963" lon="0.303991">
        <ele>2251.066</ele>
        <time>2010-06-14T03:41:21Z</time>
      </trkpt>
      <trkpt lat="42.665727" lon="0.304549">
        <ele>2252.094</ele>
        <time>2010-06-14T03:42:07Z</time>
      </trkpt>
      <trkpt lat="42.665727" lon="0.304892">
        <ele>2250.066</ele>
        <time>2010-06-14T03:42:32Z</time>
      </trkpt>
      <trkpt lat="42.665985" lon="0.305493">
        <ele>2247.048</ele>
        <time>2010-06-14T03:43:23Z</time>
      </trkpt>
      <trkpt lat="42.666135" lon="0.305600">
        <ele>2247.061</ele>
        <time>2010-06-14T03:43:41Z</time>
      </trkpt>
      <trkpt lat="42.666199" lon="0.305579">
        <ele>2247.017</ele>
        <time>2010-06-14T03:43:47Z</time>
      </trkpt>
      <trkpt lat="42.666435" lon="0.305707">
        <ele>2241.006</ele>
        <time>2010-06-14T03:44:13Z</time>
      </trkpt>
      <trkpt lat="42.666564" lon="0.305707">
        <ele>2236.043</ele>
        <time>2010-06-14T03:44:25Z</time>
      </trkpt>
      <trkpt lat="42.666607" lon="0.305686">
        <ele>2242.020</ele>
        <time>2010-06-14T03:44:30Z</time>
      </trkpt>
      <trkpt lat="42.666628" lon="0.305729">
        <ele>2236.047</ele>
        <time>2010-06-14T03:44:35Z</time>
      </trkpt>
      <trkpt lat="42.666650" lon="0.305836">
        <ele>2236.095</ele>
        <time>2010-06-14T03:44:43Z</time>
      </trkpt>
      <trkpt lat="42.666543" lon="0.306051">
        <ele>2230.043</ele>
        <time>2010-06-14T03:45:02Z</time>
      </trkpt>
      <trkpt lat="42.666500" lon="0.306373">
        <ele>2228.055</ele>
        <time>2010-06-14T03:45:26Z</time>
      </trkpt>
      <trkpt lat="42.666457" lon="0.306716">
        <ele>2222.017</ele>
        <time>2010-06-14T03:45:51Z</time>
      </trkpt>
      <trkpt lat="42.666392" lon="0.306952">
        <ele>2216.087</ele>
        <time>2010-06-14T03:46:09Z</time>
      </trkpt>
      <trkpt lat="42.666392" lon="0.306973">
        <ele>2216.015</ele>
        <time>2010-06-14T03:46:12Z</time>
      </trkpt>
      <trkpt lat="42.666199" lon="0.307338">
        <ele>2212.006</ele>
        <time>2010-06-14T03:46:44Z</time>
      </trkpt>
      <trkpt lat="42.666135" lon="0.307488">
        <ele>2207.090</ele>
        <time>2010-06-14T03:46:58Z</time>
      </trkpt>
      <trkpt lat="42.665963" lon="0.307724">
        <ele>2201.047</ele>
        <time>2010-06-14T03:47:22Z</time>
      </trkpt>
      <trkpt lat="42.665727" lon="0.308282">
        <ele>2193.054</ele>
        <time>2010-06-14T03:48:08Z</time>
      </trkpt>
      <trkpt lat="42.665620" lon="0.308647">
        <ele>2186.012</ele>
        <time>2010-06-14T03:48:38Z</time>
      </trkpt>
      <trkpt lat="42.665534" lon="0.309312">
        <ele>2178.050</ele>
        <time>2010-06-14T03:49:28Z</time>
      </trkpt>
      <trkpt lat="42.665513" lon="0.309355">
        <ele>2178.062</ele>
        <time>2010-06-14T03:49:32Z</time>
      </trkpt>
      <trkpt lat="42.665384" lon="0.309849">
        <ele>2172.074</ele>
        <time>2010-06-14T03:50:09Z</time>
      </trkpt>
      <trkpt lat="42.665277" lon="0.310106">
        <ele>2172.056</ele>
        <time>2010-06-14T03:50:31Z</time>
      </trkpt>
      <trkpt lat="42.665105" lon="0.310600">
        <ele>2170.021</ele>
        <time>2010-06-14T03:51:11Z</time>
      </trkpt>
      <trkpt lat="42.664869" lon="0.310729">
        <ele>2171.006</ele>
        <time>2010-06-14T03:51:37Z</time>
      </trkpt>
      <trkpt lat="42.664804" lon="0.310793">
        <ele>2167.066</ele>
        <time>2010-06-14T03:51:46Z</time>
      </trkpt>
      <trkpt lat="42.664697" lon="0.311115">
        <ele>2170.023</ele>
        <time>2010-06-14T03:52:12Z</time>
      </trkpt>
      <trkpt lat="42.664676" lon="0.311308">
        <ele>2171.020</ele>
        <time>2010-06-14T03:52:26Z</time>
      </trkpt>
      <trkpt lat="42.664847" lon="0.311501">
        <ele>2171.028</ele>
        <time>2010-06-14T03:52:47Z</time>
      </trkpt>
      <trkpt lat="42.665019" lon="0.311608">
        <ele>2166.076</ele>
        <time>2010-06-14T03:53:06Z</time>
      </trkpt>
      <trkpt lat="42.665470" lon="0.311630">
        <ele>2152.068</ele>
        <time>2010-06-14T03:53:52Z</time>
      </trkpt>
      <trkpt lat="42.665663" lon="0.311501">
        <ele>2158.048</ele>
        <time>2010-06-14T03:54:13Z</time>
      </trkpt>
      <trkpt lat="42.665727" lon="0.311415">
        <ele>2149.061</ele>
        <time>2010-06-14T03:54:22Z</time>
      </trkpt>
      <trkpt lat="42.665899" lon="0.311201">
        <ele>2155.017</ele>
        <time>2010-06-14T03:54:46Z</time>
      </trkpt>
      <trkpt lat="42.665985" lon="0.311093">
        <ele>2144.006</ele>
        <time>2010-06-14T03:54:57Z</time>
      </trkpt>
      <trkpt lat="42.665985" lon="0.311072">
        <ele>2144.013</ele>
        <time>2010-06-14T03:55:00Z</time>
      </trkpt>
      <trkpt lat="42.666113" lon="0.310922">
        <ele>2150.070</ele>
        <time>2010-06-14T03:55:16Z</time>
      </trkpt>
      <trkpt lat="42.666178" lon="0.310900">
        <ele>2150.067</ele>
        <time>2010-06-14T03:55:23Z</time>
      </trkpt>
      <trkpt lat="42.666371" lon="0.310771">
        <ele>2138.055</ele>
        <time>2010-06-14T03:55:45Z</time>
      </trkpt>
      <trkpt lat="42.666521" lon="0.310750">
        <ele>2138.043</ele>
        <time>2010-06-14T03:55:59Z</time>
      </trkpt>
      <trkpt lat="42.666736" lon="0.310664">
        <ele>2132.095</ele>
        <time>2010-06-14T03:56:22Z</time>
      </trkpt>
      <trkpt lat="42.666779" lon="0.310729">
        <ele>2126.037</ele>
        <time>2010-06-14T03:56:28Z</time>
      </trkpt>
      <trkpt lat="42.666993" lon="0.310814">
        <ele>2115.049</ele>
        <time>2010-06-14T03:56:50Z</time>
      </trkpt>
      <trkpt lat="42.667015" lon="0.310857">
        <ele>2115.013</ele>
        <time>2010-06-14T03:56:55Z</time>
      </trkpt>
      <trkpt lat="42.666993" lon="0.310900">
        <ele>2115.006</ele>
        <time>2010-06-14T03:56:58Z</time>
      </trkpt>
      <trkpt lat="42.666972" lon="0.311008">
        <ele>2109.052</ele>
        <time>2010-06-14T03:57:06Z</time>
      </trkpt>
      <trkpt lat="42.667143" lon="0.311115">
        <ele>2101.069</ele>
        <time>2010-06-14T03:57:25Z</time>
      </trkpt>
      <trkpt lat="42.667186" lon="0.311265">
        <ele>2096.046</ele>
        <time>2010-06-14T03:57:38Z</time>
      </trkpt>
      <trkpt lat="42.667315" lon="0.311372">
        <ele>2096.074</ele>
        <time>2010-06-14T03:57:52Z</time>
      </trkpt>
      <trkpt lat="42.667336" lon="0.311415">
        <ele>2096.022</ele>
        <time>2010-06-14T03:57:57Z</time>
      </trkpt>
      <trkpt lat="42.667401" lon="0.311651">
        <ele>2083.034</ele>
        <time>2010-06-14T03:58:15Z</time>
      </trkpt>
      <trkpt lat="42.667573" lon="0.311737">
        <ele>2083.053</ele>
        <time>2010-06-14T03:58:32Z</time>
      </trkpt>
      <trkpt lat="42.667615" lon="0.311780">
        <ele>2083.004</ele>
        <time>2010-06-14T03:58:39Z</time>
      </trkpt>
      <trkpt lat="42.667680" lon="0.311952">
        <ele>2071.014</ele>
        <time>2010-06-14T03:58:53Z</time>
      </trkpt>
      <trkpt lat="42.667701" lon="0.311952">
        <ele>2071.006</ele>
        <time>2010-06-14T03:58:55Z</time>
      </trkpt>
      <trkpt lat="42.668023" lon="0.312467">
        <ele>2059.044</ele>
        <time>2010-06-14T03:59:44Z</time>
      </trkpt>
      <trkpt lat="42.668002" lon="0.312810">
        <ele>2055.081</ele>
        <time>2010-06-14T04:00:09Z</time>
      </trkpt>
      <trkpt lat="42.667809" lon="0.313003">
        <ele>2053.088</ele>
        <time>2010-06-14T04:00:33Z</time>
      </trkpt>
      <trkpt lat="42.667551" lon="0.313175">
        <ele>2055.026</ele>
        <time>2010-06-14T04:01:03Z</time>
      </trkpt>
      <trkpt lat="42.667530" lon="0.313239">
        <ele>2050.054</ele>
        <time>2010-06-14T04:01:07Z</time>
      </trkpt>
      <trkpt lat="42.667272" lon="0.313754">
        <ele>2041.096</ele>
        <time>2010-06-14T04:01:54Z</time>
      </trkpt>
      <trkpt lat="42.667186" lon="0.313926">
        <ele>2041.047</ele>
        <time>2010-06-14T04:02:09Z</time>
      </trkpt>
      <trkpt lat="42.667143" lon="0.313990">
        <ele>2041.029</ele>
        <time>2010-06-14T04:02:15Z</time>
      </trkpt>
      <trkpt lat="42.667079" lon="0.313990">
        <ele>2043.021</ele>
        <time>2010-06-14T04:02:21Z</time>
      </trkpt>
      <trkpt lat="42.666929" lon="0.314033">
        <ele>2037.006</ele>
        <time>2010-06-14T04:02:36Z</time>
      </trkpt>
      <trkpt lat="42.666907" lon="0.314033">
        <ele>2037.093</ele>
        <time>2010-06-14T04:02:39Z</time>
      </trkpt>
      <trkpt lat="42.666779" lon="0.314162">
        <ele>2039.020</ele>
        <time>2010-06-14T04:02:55Z</time>
      </trkpt>
      <trkpt lat="42.666779" lon="0.314205">
        <ele>2039.017</ele>
        <time>2010-06-14T04:02:58Z</time>
      </trkpt>
      <trkpt lat="42.666714" lon="0.314269">
        <ele>2039.025</ele>
        <time>2010-06-14T04:03:06Z</time>
      </trkpt>
      <trkpt lat="42.666671" lon="0.314527">
        <ele>2033.053</ele>
        <time>2010-06-14T04:03:25Z</time>
      </trkpt>
      <trkpt lat="42.666693" lon="0.314634">
        <ele>2026.015</ele>
        <time>2010-06-14T04:03:33Z</time>
      </trkpt>
      <trkpt lat="42.666628" lon="0.314870">
        <ele>2020.018</ele>
        <time>2010-06-14T04:03:52Z</time>
      </trkpt>
      <trkpt lat="42.666650" lon="0.314913">
        <ele>2020.098</ele>
        <time>2010-06-14T04:03:57Z</time>
      </trkpt>
      <trkpt lat="42.666628" lon="0.315342">
        <ele>2015.017</ele>
        <time>2010-06-14T04:04:27Z</time>
      </trkpt>
      <trkpt lat="42.666543" lon="0.315599">
        <ele>2011.006</ele>
        <time>2010-06-14T04:04:49Z</time>
      </trkpt>
      <trkpt lat="42.666478" lon="0.315664">
        <ele>2007.060</ele>
        <time>2010-06-14T04:04:56Z</time>
      </trkpt>
      <trkpt lat="42.666392" lon="0.315814">
        <ele>2003.037</ele>
        <time>2010-06-14T04:05:10Z</time>
      </trkpt>
      <trkpt lat="42.666371" lon="0.315921">
        <ele>2003.084</ele>
        <time>2010-06-14T04:05:18Z</time>
      </trkpt>
      <trkpt lat="42.666435" lon="0.315921">
        <ele>2003.072</ele>
        <time>2010-06-14T04:05:26Z</time>
      </trkpt>
      <trkpt lat="42.666500" lon="0.315878">
        <ele>2003.030</ele>
        <time>2010-06-14T04:05:33Z</time>
      </trkpt>
      <trkpt lat="42.666478" lon="0.315943">
        <ele>2003.012</ele>
        <time>2010-06-14T04:05:37Z</time>
      </trkpt>
      <trkpt lat="42.666478" lon="0.315964">
        <ele>2003.086</ele>
        <time>2010-06-14T04:05:40Z</time>
      </trkpt>
      <trkpt lat="42.666199" lon="0.316222">
        <ele>1992.060</ele>
        <time>2010-06-14T04:06:12Z</time>
      </trkpt>
      <trkpt lat="42.666006" lon="0.316565">
        <ele>1987.026</ele>
        <time>2010-06-14T04:06:44Z</time>
      </trkpt>
      <trkpt lat="42.666006" lon="0.316587">
        <ele>1987.006</ele>
        <time>2010-06-14T04:06:47Z</time>
      </trkpt>
      <trkpt lat="42.665942" lon="0.317016">
        <ele>1978.077</ele>
        <time>2010-06-14T04:07:19Z</time>
      </trkpt>
      <trkpt lat="42.665856" lon="0.317295">
        <ele>1978.044</ele>
        <time>2010-06-14T04:07:41Z</time>
      </trkpt>
      <trkpt lat="42.665684" lon="0.317638">
        <ele>1971.061</ele>
        <time>2010-06-14T04:08:12Z</time>
      </trkpt>
      <trkpt lat="42.665470" lon="0.317938">
        <ele>1979.059</ele>
        <time>2010-06-14T04:08:42Z</time>
      </trkpt>
      <trkpt lat="42.665105" lon="0.318325">
        <ele>1965.037</ele>
        <time>2010-06-14T04:09:28Z</time>
      </trkpt>
      <trkpt lat="42.664912" lon="0.318475">
        <ele>1971.069</ele>
        <time>2010-06-14T04:09:50Z</time>
      </trkpt>
      <trkpt lat="42.664547" lon="0.318711">
        <ele>1955.053</ele>
        <time>2010-06-14T04:10:32Z</time>
      </trkpt>
      <trkpt lat="42.664354" lon="0.318775">
        <ele>1958.004</ele>
        <time>2010-06-14T04:10:51Z</time>
      </trkpt>
      <trkpt lat="42.664139" lon="0.319097">
        <ele>1953.014</ele>
        <time>2010-06-14T04:11:23Z</time>
      </trkpt>
      <trkpt lat="42.664139" lon="0.319183">
        <ele>1953.006</ele>
        <time>2010-06-14T04:11:29Z</time>
      </trkpt>
      <trkpt lat="42.664118" lon="0.319312">
        <ele>1955.064</ele>
        <time>2010-06-14T04:11:40Z</time>
      </trkpt>
      <trkpt lat="42.664118" lon="0.319376">
        <ele>1955.091</ele>
        <time>2010-06-14T04:11:43Z</time>
      </trkpt>
      <trkpt lat="42.664011" lon="0.319719">
        <ele>1948.058</ele>
        <time>2010-06-14T04:12:12Z</time>
      </trkpt>
      <trkpt lat="42.663946" lon="0.319805">
        <ele>1948.076</ele>
        <time>2010-06-14T04:12:20Z</time>
      </trkpt>
      <trkpt lat="42.663689" lon="0.320342">
        <ele>1945.074</ele>
        <time>2010-06-14T04:13:08Z</time>
      </trkpt>
      <trkpt lat="42.663517" lon="0.320771">
        <ele>1957.016</ele>
        <time>2010-06-14T04:13:44Z</time>
      </trkpt>
      <trkpt lat="42.663045" lon="0.321436">
        <ele>1941.018</ele>
        <time>2010-06-14T04:14:51Z</time>
      </trkpt>
      <trkpt lat="42.662766" lon="0.321736">
        <ele>1928.098</ele>
        <time>2010-06-14T04:15:26Z</time>
      </trkpt>
      <trkpt lat="42.662616" lon="0.322058">
        <ele>1913.017</ele>
        <time>2010-06-14T04:15:55Z</time>
      </trkpt>
      <trkpt lat="42.662251" lon="0.322487">
        <ele>1901.006</ele>
        <time>2010-06-14T04:16:43Z</time>
      </trkpt>
      <trkpt lat="42.662337" lon="0.322552">
        <ele>1901.010</ele>
        <time>2010-06-14T04:16:54Z</time>
      </trkpt>
      <trkpt lat="42.662079" lon="0.322766">
        <ele>1891.097</ele>
        <time>2010-06-14T04:17:24Z</time>
      </trkpt>
      <trkpt lat="42.661865" lon="0.323024">
        <ele>1894.044</ele>
        <time>2010-06-14T04:17:53Z</time>
      </trkpt>
      <trkpt lat="42.661650" lon="0.323131">
        <ele>1884.062</ele>
        <time>2010-06-14T04:18:15Z</time>
      </trkpt>
      <trkpt lat="42.661629" lon="0.323238">
        <ele>1888.080</ele>
        <time>2010-06-14T04:18:23Z</time>
      </trkpt>
      <trkpt lat="42.661500" lon="0.323389">
        <ele>1879.052</ele>
        <time>2010-06-14T04:18:41Z</time>
      </trkpt>
      <trkpt lat="42.661500" lon="0.323432">
        <ele>1879.066</ele>
        <time>2010-06-14T04:18:44Z</time>
      </trkpt>
      <trkpt lat="42.661521" lon="0.323453">
        <ele>1879.029</ele>
        <time>2010-06-14T04:18:45Z</time>
      </trkpt>
      <trkpt lat="42.661178" lon="0.323775">
        <ele>1876.021</ele>
        <time>2010-06-14T04:19:28Z</time>
      </trkpt>
      <trkpt lat="42.661049" lon="0.323946">
        <ele>1876.006</ele>
        <time>2010-06-14T04:19:46Z</time>
      </trkpt>
      <trkpt lat="42.661006" lon="0.324032">
        <ele>1878.065</ele>
        <time>2010-06-14T04:19:54Z</time>
      </trkpt>
      <trkpt lat="42.660964" lon="0.324225">
        <ele>1870.062</ele>
        <time>2010-06-14T04:20:08Z</time>
      </trkpt>
      <trkpt lat="42.660921" lon="0.324311">
        <ele>1872.049</ele>
        <time>2010-06-14T04:20:16Z</time>
      </trkpt>
      <trkpt lat="42.660921" lon="0.324461">
        <ele>1872.057</ele>
        <time>2010-06-14T04:20:27Z</time>
      </trkpt>
      <trkpt lat="42.660835" lon="0.324569">
        <ele>1872.065</ele>
        <time>2010-06-14T04:20:38Z</time>
      </trkpt>
      <trkpt lat="42.660835" lon="0.324612">
        <ele>1873.077</ele>
        <time>2010-06-14T04:20:42Z</time>
      </trkpt>
      <trkpt lat="42.660770" lon="0.324805">
        <ele>1873.073</ele>
        <time>2010-06-14T04:20:57Z</time>
      </trkpt>
      <trkpt lat="42.660770" lon="0.325234">
        <ele>1875.085</ele>
        <time>2010-06-14T04:21:29Z</time>
      </trkpt>
      <trkpt lat="42.660813" lon="0.325470">
        <ele>1876.013</ele>
        <time>2010-06-14T04:21:47Z</time>
      </trkpt>
      <trkpt lat="42.660663" lon="0.325642">
        <ele>1867.006</ele>
        <time>2010-06-14T04:22:07Z</time>
      </trkpt>
      <trkpt lat="42.660577" lon="0.325856">
        <ele>1868.026</ele>
        <time>2010-06-14T04:22:25Z</time>
      </trkpt>
      <trkpt lat="42.660534" lon="0.325835">
        <ele>1868.043</ele>
        <time>2010-06-14T04:22:28Z</time>
      </trkpt>
      <trkpt lat="42.660449" lon="0.325642">
        <ele>1867.040</ele>
        <time>2010-06-14T04:22:46Z</time>
      </trkpt>
      <trkpt lat="42.660449" lon="0.325685">
        <ele>1867.018</ele>
        <time>2010-06-14T04:22:49Z</time>
      </trkpt>
      <trkpt lat="42.660427" lon="0.325706">
        <ele>1868.076</ele>
        <time>2010-06-14T04:22:52Z</time>
      </trkpt>
      <trkpt lat="42.660534" lon="0.326006">
        <ele>1867.048</ele>
        <time>2010-06-14T04:23:16Z</time>
      </trkpt>
      <trkpt lat="42.660513" lon="0.326114">
        <ele>1867.095</ele>
        <time>2010-06-14T04:23:24Z</time>
      </trkpt>
      <trkpt lat="42.660513" lon="0.326200">
        <ele>1867.049</ele>
        <time>2010-06-14T04:23:30Z</time>
      </trkpt>
      <trkpt lat="42.660470" lon="0.326757">
        <ele>1863.023</ele>
        <time>2010-06-14T04:24:12Z</time>
      </trkpt>
      <trkpt lat="42.660491" lon="0.327036">
        <ele>1861.006</ele>
        <time>2010-06-14T04:24:32Z</time>
      </trkpt>
      <trkpt lat="42.660577" lon="0.327187">
        <ele>1857.018</ele>
        <time>2010-06-14T04:24:47Z</time>
      </trkpt>
      <trkpt lat="42.660620" lon="0.327230">
        <ele>1857.075</ele>
        <time>2010-06-14T04:24:51Z</time>
      </trkpt>
      <trkpt lat="42.660728" lon="0.327487">
        <ele>1864.082</ele>
        <time>2010-06-14T04:25:14Z</time>
      </trkpt>
      <trkpt lat="42.660663" lon="0.327809">
        <ele>1851.040</ele>
        <time>2010-06-14T04:25:38Z</time>
      </trkpt>
      <trkpt lat="42.660706" lon="0.327873">
        <ele>1861.058</ele>
        <time>2010-06-14T04:25:44Z</time>
      </trkpt>
      <trkpt lat="42.660813" lon="0.328131">
        <ele>1859.070</ele>
        <time>2010-06-14T04:26:06Z</time>
      </trkpt>
      <trkpt lat="42.660749" lon="0.328217">
        <ele>1858.073</ele>
        <time>2010-06-14T04:26:16Z</time>
      </trkpt>
      <trkpt lat="42.660599" lon="0.328109">
        <ele>1848.085</ele>
        <time>2010-06-14T04:26:32Z</time>
      </trkpt>
      <trkpt lat="42.660577" lon="0.328109">
        <ele>1848.013</ele>
        <time>2010-06-14T04:26:35Z</time>
      </trkpt>
      <trkpt lat="42.660127" lon="0.328517">
        <ele>1822.006</ele>
        <time>2010-06-14T04:27:29Z</time>
      </trkpt>
      <trkpt lat="42.660084" lon="0.328689">
        <ele>1822.096</ele>
        <time>2010-06-14T04:27:42Z</time>
      </trkpt>
      <trkpt lat="42.659955" lon="0.328839">
        <ele>1821.063</ele>
        <time>2010-06-14T04:27:58Z</time>
      </trkpt>
      <trkpt lat="42.659676" lon="0.328925">
        <ele>1811.060</ele>
        <time>2010-06-14T04:28:28Z</time>
      </trkpt>
      <trkpt lat="42.659569" lon="0.329032">
        <ele>1802.048</ele>
        <time>2010-06-14T04:28:41Z</time>
      </trkpt>
      <trkpt lat="42.659397" lon="0.329096">
        <ele>1802.026</ele>
        <time>2010-06-14T04:28:58Z</time>
      </trkpt>
      <trkpt lat="42.659247" lon="0.329268">
        <ele>1794.088</ele>
        <time>2010-06-14T04:29:19Z</time>
      </trkpt>
      <trkpt lat="42.659204" lon="0.329289">
        <ele>1794.066</ele>
        <time>2010-06-14T04:29:22Z</time>
      </trkpt>
      <trkpt lat="42.658818" lon="0.329719">
        <ele>1791.029</ele>
        <time>2010-06-14T04:30:13Z</time>
      </trkpt>
      <trkpt lat="42.658710" lon="0.330083">
        <ele>1790.021</ele>
        <time>2010-06-14T04:30:42Z</time>
      </trkpt>
      <trkpt lat="42.658324" lon="0.330105">
        <ele>1781.006</ele>
        <time>2010-06-14T04:31:21Z</time>
      </trkpt>
      <trkpt lat="42.657938" lon="0.330362">
        <ele>1781.015</ele>
        <time>2010-06-14T04:32:03Z</time>
      </trkpt>
      <trkpt lat="42.657466" lon="0.330598">
        <ele>1778.032</ele>
        <time>2010-06-14T04:32:54Z</time>
      </trkpt>
      <trkpt lat="42.657123" lon="0.330834">
        <ele>1787.029</ele>
        <time>2010-06-14T04:33:32Z</time>
      </trkpt>
      <trkpt lat="42.656887" lon="0.331135">
        <ele>1801.047</ele>
        <time>2010-06-14T04:34:04Z</time>
      </trkpt>
      <trkpt lat="42.656929" lon="0.331135">
        <ele>1801.045</ele>
        <time>2010-06-14T04:34:09Z</time>
      </trkpt>
      <trkpt lat="42.657359" lon="0.331178">
        <ele>1801.037</ele>
        <time>2010-06-14T04:34:52Z</time>
      </trkpt>
      <trkpt lat="42.657337" lon="0.331371">
        <ele>1814.088</ele>
        <time>2010-06-14T04:35:07Z</time>
      </trkpt>
      <trkpt lat="42.657273" lon="0.331414">
        <ele>1814.024</ele>
        <time>2010-06-14T04:35:14Z</time>
      </trkpt>
      <trkpt lat="42.656865" lon="0.331414">
        <ele>1814.026</ele>
        <time>2010-06-14T04:35:55Z</time>
      </trkpt>
      <trkpt lat="42.656565" lon="0.331328">
        <ele>1816.006</ele>
        <time>2010-06-14T04:36:24Z</time>
      </trkpt>
      <trkpt lat="42.656479" lon="0.331328">
        <ele>1820.057</ele>
        <time>2010-06-14T04:36:34Z</time>
      </trkpt>
      <trkpt lat="42.656093" lon="0.331521">
        <ele>1824.044</ele>
        <time>2010-06-14T04:37:15Z</time>
      </trkpt>
      <trkpt lat="42.655921" lon="0.331671">
        <ele>1833.081</ele>
        <time>2010-06-14T04:37:36Z</time>
      </trkpt>
      <trkpt lat="42.655642" lon="0.331993">
        <ele>1838.069</ele>
        <time>2010-06-14T04:38:12Z</time>
      </trkpt>
      <trkpt lat="42.655385" lon="0.332572">
        <ele>1839.037</ele>
        <time>2010-06-14T04:39:02Z</time>
      </trkpt>
      <trkpt lat="42.655363" lon="0.332701">
        <ele>1838.049</ele>
        <time>2010-06-14T04:39:11Z</time>
      </trkpt>
      <trkpt lat="42.655363" lon="0.332937">
        <ele>1837.036</ele>
        <time>2010-06-14T04:39:29Z</time>
      </trkpt>
      <trkpt lat="42.655535" lon="0.333452">
        <ele>1838.017</ele>
        <time>2010-06-14T04:40:10Z</time>
      </trkpt>
      <trkpt lat="42.655363" lon="0.334482">
        <ele>1825.018</ele>
        <time>2010-06-14T04:41:28Z</time>
      </trkpt>
      <trkpt lat="42.655342" lon="0.335190">
        <ele>1816.006</ele>
        <time>2010-06-14T04:42:21Z</time>
      </trkpt>
      <trkpt lat="42.655771" lon="0.335834">
        <ele>1818.072</ele>
        <time>2010-06-14T04:43:24Z</time>
      </trkpt>
      <trkpt lat="42.655470" lon="0.336585">
        <ele>1807.089</ele>
        <time>2010-06-14T04:44:26Z</time>
      </trkpt>
      <trkpt lat="42.655427" lon="0.336714">
        <ele>1807.096</ele>
        <time>2010-06-14T04:44:38Z</time>
      </trkpt>
      <trkpt lat="42.654698" lon="0.336692">
        <ele>1794.094</ele>
        <time>2010-06-14T04:45:51Z</time>
      </trkpt>
      <trkpt lat="42.654655" lon="0.336456">
        <ele>1798.042</ele>
        <time>2010-06-14T04:46:08Z</time>
      </trkpt>
      <trkpt lat="42.654634" lon="0.336027">
        <ele>1801.014</ele>
        <time>2010-06-14T04:46:40Z</time>
      </trkpt>
      <trkpt lat="42.654505" lon="0.336049">
        <ele>1801.044</ele>
        <time>2010-06-14T04:46:53Z</time>
      </trkpt>
      <trkpt lat="42.654419" lon="0.336413">
        <ele>1797.005</ele>
        <time>2010-06-14T04:47:21Z</time>
      </trkpt>
      <trkpt lat="42.654119" lon="0.337122">
        <ele>1787.015</ele>
        <time>2010-06-14T04:48:22Z</time>
      </trkpt>
      <trkpt lat="42.654119" lon="0.337465">
        <ele>1782.006</ele>
        <time>2010-06-14T04:48:46Z</time>
      </trkpt>
      <trkpt lat="42.654440" lon="0.337744">
        <ele>1778.013</ele>
        <time>2010-06-14T04:49:24Z</time>
      </trkpt>
      <trkpt lat="42.654333" lon="0.337980">
        <ele>1774.010</ele>
        <time>2010-06-14T04:49:46Z</time>
      </trkpt>
      <trkpt lat="42.654247" lon="0.338023">
        <ele>1770.037</ele>
        <time>2010-06-14T04:49:54Z</time>
      </trkpt>
      <trkpt lat="42.653711" lon="0.338516">
        <ele>1751.095</ele>
        <time>2010-06-14T04:50:59Z</time>
      </trkpt>
      <trkpt lat="42.653303" lon="0.338817">
        <ele>1739.073</ele>
        <time>2010-06-14T04:51:46Z</time>
      </trkpt>
      <trkpt lat="42.653389" lon="0.338924">
        <ele>1739.025</ele>
        <time>2010-06-14T04:51:57Z</time>
      </trkpt>
      <trkpt lat="42.653432" lon="0.338945">
        <ele>1739.025</ele>
        <time>2010-06-14T04:52:02Z</time>
      </trkpt>
      <trkpt lat="42.653239" lon="0.338967">
        <ele>1739.026</ele>
        <time>2010-06-14T04:52:22Z</time>
      </trkpt>
      <trkpt lat="42.653131" lon="0.338945">
        <ele>1733.008</ele>
        <time>2010-06-14T04:52:32Z</time>
      </trkpt>
      <trkpt lat="42.653089" lon="0.338860">
        <ele>1733.006</ele>
        <time>2010-06-14T04:52:40Z</time>
      </trkpt>
      <trkpt lat="42.653046" lon="0.338860">
        <ele>1733.041</ele>
        <time>2010-06-14T04:52:43Z</time>
      </trkpt>
      <trkpt lat="42.652981" lon="0.339825">
        <ele>1725.068</ele>
        <time>2010-06-14T04:53:55Z</time>
      </trkpt>
      <trkpt lat="42.652681" lon="0.340040">
        <ele>1716.045</ele>
        <time>2010-06-14T04:54:30Z</time>
      </trkpt>
      <trkpt lat="42.652466" lon="0.340040">
        <ele>1709.013</ele>
        <time>2010-06-14T04:54:50Z</time>
      </trkpt>
      <trkpt lat="42.652252" lon="0.340126">
        <ele>1701.091</ele>
        <time>2010-06-14T04:55:13Z</time>
      </trkpt>
      <trkpt lat="42.652166" lon="0.340126">
        <ele>1701.073</ele>
        <time>2010-06-14T04:55:21Z</time>
      </trkpt>
      <trkpt lat="42.652273" lon="0.340104">
        <ele>1701.083</ele>
        <time>2010-06-14T04:55:33Z</time>
      </trkpt>
      <trkpt lat="42.652552" lon="0.340147">
        <ele>1706.025</ele>
        <time>2010-06-14T04:56:00Z</time>
      </trkpt>
      <trkpt lat="42.652380" lon="0.340340">
        <ele>1706.017</ele>
        <time>2010-06-14T04:56:23Z</time>
      </trkpt>
      <trkpt lat="42.652059" lon="0.340898">
        <ele>1688.006</ele>
        <time>2010-06-14T04:57:15Z</time>
      </trkpt>
      <trkpt lat="42.652059" lon="0.341027">
        <ele>1686.067</ele>
        <time>2010-06-14T04:57:25Z</time>
      </trkpt>
      <trkpt lat="42.651951" lon="0.341585">
        <ele>1682.024</ele>
        <time>2010-06-14T04:58:06Z</time>
      </trkpt>
      <trkpt lat="42.651737" lon="0.341864">
        <ele>1673.091</ele>
        <time>2010-06-14T04:58:36Z</time>
      </trkpt>
      <trkpt lat="42.652016" lon="0.342057">
        <ele>1679.039</ele>
        <time>2010-06-14T04:59:07Z</time>
      </trkpt>
      <trkpt lat="42.652102" lon="0.342164">
        <ele>1683.037</ele>
        <time>2010-06-14T04:59:19Z</time>
      </trkpt>
      <trkpt lat="42.652123" lon="0.342228">
        <ele>1683.039</ele>
        <time>2010-06-14T04:59:24Z</time>
      </trkpt>
      <trkpt lat="42.652123" lon="0.342250">
        <ele>1683.048</ele>
        <time>2010-06-14T04:59:26Z</time>
      </trkpt>
      <trkpt lat="42.652102" lon="0.342228">
        <ele>1683.061</ele>
        <time>2010-06-14T04:59:29Z</time>
      </trkpt>
      <trkpt lat="42.652080" lon="0.342100">
        <ele>1676.017</ele>
        <time>2010-06-14T04:59:39Z</time>
      </trkpt>
      <trkpt lat="42.652874" lon="0.342336">
        <ele>1701.006</ele>
        <time>2010-06-14T05:01:00Z</time>
      </trkpt>
      <trkpt lat="42.652895" lon="0.342357">
        <ele>1701.043</ele>
        <time>2010-06-14T05:01:03Z</time>
      </trkpt>
      <trkpt lat="42.652552" lon="0.342143">
        <ele>1692.030</ele>
        <time>2010-06-14T05:01:41Z</time>
      </trkpt>
      <trkpt lat="42.652810" lon="0.342314">
        <ele>1701.017</ele>
        <time>2010-06-14T05:02:10Z</time>
      </trkpt>
      <trkpt lat="42.652767" lon="0.342722">
        <ele>1694.025</ele>
        <time>2010-06-14T05:02:40Z</time>
      </trkpt>
      <trkpt lat="42.652552" lon="0.343323">
        <ele>1680.073</ele>
        <time>2010-06-14T05:03:28Z</time>
      </trkpt>
      <trkpt lat="42.652338" lon="0.343666">
        <ele>1669.095</ele>
        <time>2010-06-14T05:04:01Z</time>
      </trkpt>
      <trkpt lat="42.652316" lon="0.343988">
        <ele>1668.071</ele>
        <time>2010-06-14T05:04:25Z</time>
      </trkpt>
      <trkpt lat="42.652144" lon="0.344503">
        <ele>1668.041</ele>
        <time>2010-06-14T05:05:08Z</time>
      </trkpt>
      <trkpt lat="42.651930" lon="0.344718">
        <ele>1657.015</ele>
        <time>2010-06-14T05:05:34Z</time>
      </trkpt>
      <trkpt lat="42.651651" lon="0.344846">
        <ele>1645.006</ele>
        <time>2010-06-14T05:06:04Z</time>
      </trkpt>
      <trkpt lat="42.651801" lon="0.345490">
        <ele>1647.056</ele>
        <time>2010-06-14T05:06:53Z</time>
      </trkpt>
      <trkpt lat="42.651801" lon="0.346220">
        <ele>1649.033</ele>
        <time>2010-06-14T05:07:46Z</time>
      </trkpt>
      <trkpt lat="42.651758" lon="0.346305">
        <ele>1649.040</ele>
        <time>2010-06-14T05:07:55Z</time>
      </trkpt>
      <trkpt lat="42.651393" lon="0.346692">
        <ele>1632.088</ele>
        <time>2010-06-14T05:08:40Z</time>
      </trkpt>
      <trkpt lat="42.651329" lon="0.346820">
        <ele>1630.056</ele>
        <time>2010-06-14T05:08:53Z</time>
      </trkpt>
      <trkpt lat="42.651243" lon="0.347421">
        <ele>1610.088</ele>
        <time>2010-06-14T05:09:37Z</time>
      </trkpt>
      <trkpt lat="42.651737" lon="0.348666">
        <ele>1622.051</ele>
        <time>2010-06-14T05:11:22Z</time>
      </trkpt>
      <trkpt lat="42.651887" lon="0.349267">
        <ele>1623.001</ele>
        <time>2010-06-14T05:12:07Z</time>
      </trkpt>
      <trkpt lat="42.651973" lon="0.350404">
        <ele>1608.011</ele>
        <time>2010-06-14T05:13:33Z</time>
      </trkpt>
      <trkpt lat="42.651994" lon="0.350962">
        <ele>1602.006</ele>
        <time>2010-06-14T05:14:14Z</time>
      </trkpt>
      <trkpt lat="42.651865" lon="0.351348">
        <ele>1596.094</ele>
        <time>2010-06-14T05:14:44Z</time>
      </trkpt>
      <trkpt lat="42.651908" lon="0.351605">
        <ele>1593.051</ele>
        <time>2010-06-14T05:15:04Z</time>
      </trkpt>
      <trkpt lat="42.652037" lon="0.352485">
        <ele>1584.038</ele>
        <time>2010-06-14T05:16:09Z</time>
      </trkpt>
      <trkpt lat="42.652037" lon="0.353172">
        <ele>1575.046</ele>
        <time>2010-06-14T05:17:00Z</time>
      </trkpt>
      <trkpt lat="42.652144" lon="0.353644">
        <ele>1582.054</ele>
        <time>2010-06-14T05:17:36Z</time>
      </trkpt>
      <trkpt lat="42.651887" lon="0.354159">
        <ele>1560.096</ele>
        <time>2010-06-14T05:18:23Z</time>
      </trkpt>
      <trkpt lat="42.651887" lon="0.354223">
        <ele>1560.056</ele>
        <time>2010-06-14T05:18:27Z</time>
      </trkpt>
      <trkpt lat="42.652016" lon="0.354266">
        <ele>1560.059</ele>
        <time>2010-06-14T05:18:41Z</time>
      </trkpt>
      <trkpt lat="42.652037" lon="0.354502">
        <ele>1556.014</ele>
        <time>2010-06-14T05:18:59Z</time>
      </trkpt>
      <trkpt lat="42.651544" lon="0.355339">
        <ele>1530.006</ele>
        <time>2010-06-14T05:20:17Z</time>
      </trkpt>
      <trkpt lat="42.651329" lon="0.355618">
        <ele>1515.014</ele>
        <time>2010-06-14T05:20:46Z</time>
      </trkpt>
      <trkpt lat="42.651393" lon="0.355661">
        <ele>1515.041</ele>
        <time>2010-06-14T05:20:54Z</time>
      </trkpt>
      <trkpt lat="42.651780" lon="0.355747">
        <ele>1526.058</ele>
        <time>2010-06-14T05:21:34Z</time>
      </trkpt>
      <trkpt lat="42.652230" lon="0.356090">
        <ele>1558.086</ele>
        <time>2010-06-14T05:22:24Z</time>
      </trkpt>
      <trkpt lat="42.652273" lon="0.356412">
        <ele>1556.064</ele>
        <time>2010-06-14T05:22:48Z</time>
      </trkpt>
      <trkpt lat="42.652166" lon="0.356755">
        <ele>1555.046</ele>
        <time>2010-06-14T05:23:17Z</time>
      </trkpt>
      <trkpt lat="42.651994" lon="0.357614">
        <ele>1532.046</ele>
        <time>2010-06-14T05:24:22Z</time>
      </trkpt>
      <trkpt lat="42.651973" lon="0.358064">
        <ele>1529.088</ele>
        <time>2010-06-14T05:24:54Z</time>
      </trkpt>
      <trkpt lat="42.651973" lon="0.358644">
        <ele>1525.016</ele>
        <time>2010-06-14T05:25:37Z</time>
      </trkpt>
      <trkpt lat="42.652059" lon="0.359309">
        <ele>1522.006</ele>
        <time>2010-06-14T05:26:28Z</time>
      </trkpt>
      <trkpt lat="42.652080" lon="0.359802">
        <ele>1523.033</ele>
        <time>2010-06-14T05:27:03Z</time>
      </trkpt>
      <trkpt lat="42.651436" lon="0.360789">
        <ele>1533.010</ele>
        <time>2010-06-14T05:28:40Z</time>
      </trkpt>
      <trkpt lat="42.652681" lon="0.360961">
        <ele>1537.067</ele>
        <time>2010-06-14T05:30:47Z</time>
      </trkpt>
      <trkpt lat="42.652681" lon="0.360982">
        <ele>1535.075</ele>
        <time>2010-06-14T05:30:48Z</time>
      </trkpt>
      <trkpt lat="42.652831" lon="0.361626">
        <ele>1535.083</ele>
        <time>2010-06-14T05:31:38Z</time>
      </trkpt>
      <trkpt lat="42.652831" lon="0.361669">
        <ele>1535.025</ele>
        <time>2010-06-14T05:31:40Z</time>
      </trkpt>
      <trkpt lat="42.653217" lon="0.361841">
        <ele>1544.085</ele>
        <time>2010-06-14T05:32:21Z</time>
      </trkpt>
      <trkpt lat="42.653582" lon="0.362356">
        <ele>1548.089</ele>
        <time>2010-06-14T05:33:14Z</time>
      </trkpt>
      <trkpt lat="42.653990" lon="0.362763">
        <ele>1545.017</ele>
        <time>2010-06-14T05:34:05Z</time>
      </trkpt>
      <trkpt lat="42.654333" lon="0.363235">
        <ele>1546.006</ele>
        <time>2010-06-14T05:34:53Z</time>
      </trkpt>
      <trkpt lat="42.654634" lon="0.363793">
        <ele>1541.027</ele>
        <time>2010-06-14T05:35:44Z</time>
      </trkpt>
      <trkpt lat="42.654784" lon="0.363965">
        <ele>1541.044</ele>
        <time>2010-06-14T05:36:03Z</time>
      </trkpt>
      <trkpt lat="42.655084" lon="0.364265">
        <ele>1540.091</ele>
        <time>2010-06-14T05:36:41Z</time>
      </trkpt>
      <trkpt lat="42.655191" lon="0.364373">
        <ele>1541.089</ele>
        <time>2010-06-14T05:36:54Z</time>
      </trkpt>
      <trkpt lat="42.655642" lon="0.364974">
        <ele>1539.047</ele>
        <time>2010-06-14T05:37:57Z</time>
      </trkpt>
      <trkpt lat="42.656329" lon="0.365639">
        <ele>1548.039</ele>
        <time>2010-06-14T05:39:22Z</time>
      </trkpt>
      <trkpt lat="42.656972" lon="0.366111">
        <ele>1555.033</ele>
        <time>2010-06-14T05:40:36Z</time>
      </trkpt>
      <trkpt lat="42.657187" lon="0.366175">
        <ele>1561.023</ele>
        <time>2010-06-14T05:40:57Z</time>
      </trkpt>
      <trkpt lat="42.657809" lon="0.366497">
        <ele>1565.015</ele>
        <time>2010-06-14T05:42:04Z</time>
      </trkpt>
      <trkpt lat="42.658517" lon="0.366819">
        <ele>1563.006</ele>
        <time>2010-06-14T05:43:19Z</time>
      </trkpt>
      <trkpt lat="42.659247" lon="0.366948">
        <ele>1567.072</ele>
        <time>2010-06-14T05:44:32Z</time>
      </trkpt>
      <trkpt lat="42.659311" lon="0.367033">
        <ele>1569.039</ele>
        <time>2010-06-14T05:44:42Z</time>
      </trkpt>
      <trkpt lat="42.659633" lon="0.367227">
        <ele>1562.076</ele>
        <time>2010-06-14T05:45:17Z</time>
      </trkpt>
      <trkpt lat="42.659998" lon="0.367334">
        <ele>1564.074</ele>
        <time>2010-06-14T05:45:53Z</time>
      </trkpt>
      <trkpt lat="42.660062" lon="0.367441">
        <ele>1558.072</ele>
        <time>2010-06-14T05:46:04Z</time>
      </trkpt>
      <trkpt lat="42.659955" lon="0.367420">
        <ele>1558.024</ele>
        <time>2010-06-14T05:46:14Z</time>
      </trkpt>
      <trkpt lat="42.659976" lon="0.367463">
        <ele>1558.089</ele>
        <time>2010-06-14T05:46:19Z</time>
      </trkpt>
      <trkpt lat="42.660041" lon="0.367312">
        <ele>1564.006</ele>
        <time>2010-06-14T05:46:32Z</time>
      </trkpt>
      <trkpt lat="42.660384" lon="0.367548">
        <ele>1562.026</ele>
        <time>2010-06-14T05:47:10Z</time>
      </trkpt>
      <trkpt lat="42.660856" lon="0.367742">
        <ele>1570.006</ele>
        <time>2010-06-14T05:47:59Z</time>
      </trkpt>
      <trkpt lat="42.660964" lon="0.367827">
        <ele>1570.037</ele>
        <time>2010-06-14T05:48:12Z</time>
      </trkpt>
      <trkpt lat="42.659998" lon="0.368299">
        <ele>1553.084</ele>
        <time>2010-06-14T05:49:54Z</time>
      </trkpt>
      <trkpt lat="42.660041" lon="0.368342">
        <ele>1553.021</ele>
        <time>2010-06-14T05:50:00Z</time>
      </trkpt>
      <trkpt lat="42.659998" lon="0.368385">
        <ele>1553.089</ele>
        <time>2010-06-14T05:50:06Z</time>
      </trkpt>
      <trkpt lat="42.659976" lon="0.368428">
        <ele>1553.017</ele>
        <time>2010-06-14T05:50:08Z</time>
      </trkpt>
      <trkpt lat="42.659869" lon="0.368493">
        <ele>1553.069</ele>
        <time>2010-06-14T05:50:21Z</time>
      </trkpt>
      <trkpt lat="42.659848" lon="0.368514">
        <ele>1552.038</ele>
        <time>2010-06-14T05:50:24Z</time>
      </trkpt>
      <trkpt lat="42.659869" lon="0.368600">
        <ele>1553.070</ele>
        <time>2010-06-14T05:50:29Z</time>
      </trkpt>
      <trkpt lat="42.659740" lon="0.368986">
        <ele>1553.017</ele>
        <time>2010-06-14T05:51:01Z</time>
      </trkpt>
      <trkpt lat="42.660213" lon="0.369544">
        <ele>1560.006</ele>
        <time>2010-06-14T05:52:04Z</time>
      </trkpt>
      <trkpt lat="42.659976" lon="0.369480">
        <ele>1558.082</ele>
        <time>2010-06-14T05:52:28Z</time>
      </trkpt>
      <trkpt lat="42.660298" lon="0.369780">
        <ele>1562.089</ele>
        <time>2010-06-14T05:53:06Z</time>
      </trkpt>
      <trkpt lat="42.660427" lon="0.369995">
        <ele>1567.016</ele>
        <time>2010-06-14T05:53:27Z</time>
      </trkpt>
      <trkpt lat="42.660470" lon="0.370188">
        <ele>1569.014</ele>
        <time>2010-06-14T05:53:43Z</time>
      </trkpt>
      <trkpt lat="42.660813" lon="0.370595">
        <ele>1575.062</ele>
        <time>2010-06-14T05:54:28Z</time>
      </trkpt>
      <trkpt lat="42.660835" lon="0.370810">
        <ele>1578.044</ele>
        <time>2010-06-14T05:54:44Z</time>
      </trkpt>
      <trkpt lat="42.660685" lon="0.370960">
        <ele>1573.098</ele>
        <time>2010-06-14T05:55:03Z</time>
      </trkpt>
      <trkpt lat="42.660642" lon="0.371046">
        <ele>1576.015</ele>
        <time>2010-06-14T05:55:11Z</time>
      </trkpt>
      <trkpt lat="42.660728" lon="0.371132">
        <ele>1582.026</ele>
        <time>2010-06-14T05:55:20Z</time>
      </trkpt>
      <trkpt lat="42.660685" lon="0.371454">
        <ele>1580.006</ele>
        <time>2010-06-14T05:55:44Z</time>
      </trkpt>
      <trkpt lat="42.660770" lon="0.371840">
        <ele>1601.018</ele>
        <time>2010-06-14T05:56:14Z</time>
      </trkpt>
      <trkpt lat="42.660642" lon="0.372033">
        <ele>1594.065</ele>
        <time>2010-06-14T05:56:33Z</time>
      </trkpt>
      <trkpt lat="42.660427" lon="0.372162">
        <ele>1603.082</ele>
        <time>2010-06-14T05:56:57Z</time>
      </trkpt>
      <trkpt lat="42.660406" lon="0.372355">
        <ele>1599.070</ele>
        <time>2010-06-14T05:57:12Z</time>
      </trkpt>
      <trkpt lat="42.660277" lon="0.372527">
        <ele>1609.028</ele>
        <time>2010-06-14T05:57:29Z</time>
      </trkpt>
      <trkpt lat="42.660620" lon="0.373127">
        <ele>1630.080</ele>
        <time>2010-06-14T05:58:26Z</time>
      </trkpt>
      <trkpt lat="42.660170" lon="0.373449">
        <ele>1633.047</ele>
        <time>2010-06-14T05:59:17Z</time>
      </trkpt>
      <trkpt lat="42.660449" lon="0.373642">
        <ele>1644.029</ele>
        <time>2010-06-14T05:59:48Z</time>
      </trkpt>
      <trkpt lat="42.660513" lon="0.373771">
        <ele>1650.021</ele>
        <time>2010-06-14T05:59:59Z</time>
      </trkpt>
      <trkpt lat="42.660556" lon="0.373964">
        <ele>1650.006</ele>
        <time>2010-06-14T06:00:15Z</time>
      </trkpt>
      <trkpt lat="42.660556" lon="0.374157">
        <ele>1656.093</ele>
        <time>2010-06-14T06:00:29Z</time>
      </trkpt>
      <trkpt lat="42.660599" lon="0.374351">
        <ele>1663.020</ele>
        <time>2010-06-14T06:00:43Z</time>
      </trkpt>
      <trkpt lat="42.660320" lon="0.374930">
        <ele>1667.087</ele>
        <time>2010-06-14T06:01:34Z</time>
      </trkpt>
      <trkpt lat="42.659869" lon="0.375316">
        <ele>1667.065</ele>
        <time>2010-06-14T06:02:28Z</time>
      </trkpt>
      <trkpt lat="42.659740" lon="0.375381">
        <ele>1664.063</ele>
        <time>2010-06-14T06:02:41Z</time>
      </trkpt>
      <trkpt lat="42.659955" lon="0.375724">
        <ele>1681.075</ele>
        <time>2010-06-14T06:03:15Z</time>
      </trkpt>
      <trkpt lat="42.659869" lon="0.375874">
        <ele>1681.011</ele>
        <time>2010-06-14T06:03:29Z</time>
      </trkpt>
      <trkpt lat="42.659826" lon="0.376003">
        <ele>1681.021</ele>
        <time>2010-06-14T06:03:38Z</time>
      </trkpt>
      <trkpt lat="42.659762" lon="0.376325">
        <ele>1687.003</ele>
        <time>2010-06-14T06:04:04Z</time>
      </trkpt>
      <trkpt lat="42.659848" lon="0.376368">
        <ele>1687.006</ele>
        <time>2010-06-14T06:04:13Z</time>
      </trkpt>
      <trkpt lat="42.659869" lon="0.376346">
        <ele>1694.030</ele>
        <time>2010-06-14T06:04:15Z</time>
      </trkpt>
      <trkpt lat="42.660019" lon="0.376282">
        <ele>1694.087</ele>
        <time>2010-06-14T06:04:31Z</time>
      </trkpt>
      <trkpt lat="42.660084" lon="0.376217">
        <ele>1688.064</ele>
        <time>2010-06-14T06:04:39Z</time>
      </trkpt>
      <trkpt lat="42.660170" lon="0.376003">
        <ele>1697.082</ele>
        <time>2010-06-14T06:04:56Z</time>
      </trkpt>
      <trkpt lat="42.660277" lon="0.375981">
        <ele>1697.010</ele>
        <time>2010-06-14T06:05:08Z</time>
      </trkpt>
      <trkpt lat="42.660170" lon="0.376174">
        <ele>1697.062</ele>
        <time>2010-06-14T06:05:25Z</time>
      </trkpt>
      <trkpt lat="42.660105" lon="0.376689">
        <ele>1700.078</ele>
        <time>2010-06-14T06:06:03Z</time>
      </trkpt>
      <trkpt lat="42.660127" lon="0.376883">
        <ele>1704.033</ele>
        <time>2010-06-14T06:06:19Z</time>
      </trkpt>
      <trkpt lat="42.660019" lon="0.376990">
        <ele>1704.026</ele>
        <time>2010-06-14T06:06:32Z</time>
      </trkpt>
      <trkpt lat="42.660127" lon="0.376968">
        <ele>1704.006</ele>
        <time>2010-06-14T06:06:43Z</time>
      </trkpt>
      <trkpt lat="42.660341" lon="0.376818">
        <ele>1711.046</ele>
        <time>2010-06-14T06:07:07Z</time>
      </trkpt>
      <trkpt lat="42.660470" lon="0.376925">
        <ele>1716.063</ele>
        <time>2010-06-14T06:07:21Z</time>
      </trkpt>
      <trkpt lat="42.660685" lon="0.377033">
        <ele>1716.040</ele>
        <time>2010-06-14T06:07:45Z</time>
      </trkpt>
      <trkpt lat="42.660685" lon="0.377162">
        <ele>1717.048</ele>
        <time>2010-06-14T06:07:55Z</time>
      </trkpt>
      <trkpt lat="42.660663" lon="0.377162">
        <ele>1717.036</ele>
        <time>2010-06-14T06:07:56Z</time>
      </trkpt>
      <trkpt lat="42.660513" lon="0.378428">
        <ele>1710.018</ele>
        <time>2010-06-14T06:09:30Z</time>
      </trkpt>
      <trkpt lat="42.660406" lon="0.378728">
        <ele>1704.052</ele>
        <time>2010-06-14T06:09:56Z</time>
      </trkpt>
      <trkpt lat="42.660534" lon="0.378921">
        <ele>1705.053</ele>
        <time>2010-06-14T06:10:15Z</time>
      </trkpt>
      <trkpt lat="42.660513" lon="0.378943">
        <ele>1705.008</ele>
        <time>2010-06-14T06:10:18Z</time>
      </trkpt>
      <trkpt lat="42.660577" lon="0.379157">
        <ele>1702.006</ele>
        <time>2010-06-14T06:10:35Z</time>
      </trkpt>
      <trkpt lat="42.660620" lon="0.379479">
        <ele>1700.044</ele>
        <time>2010-06-14T06:10:58Z</time>
      </trkpt>
      <trkpt lat="42.660749" lon="0.379994">
        <ele>1706.061</ele>
        <time>2010-06-14T06:11:39Z</time>
      </trkpt>
      <trkpt lat="42.660749" lon="0.380487">
        <ele>1707.068</ele>
        <time>2010-06-14T06:12:14Z</time>
      </trkpt>
      <trkpt lat="42.660685" lon="0.381067">
        <ele>1699.096</ele>
        <time>2010-06-14T06:12:57Z</time>
      </trkpt>
      <trkpt lat="42.660577" lon="0.381346">
        <ele>1700.044</ele>
        <time>2010-06-14T06:13:21Z</time>
      </trkpt>
      <trkpt lat="42.660556" lon="0.381646">
        <ele>1701.036</ele>
        <time>2010-06-14T06:13:43Z</time>
      </trkpt>
      <trkpt lat="42.660513" lon="0.382183">
        <ele>1705.035</ele>
        <time>2010-06-14T06:14:23Z</time>
      </trkpt>
      <trkpt lat="42.660491" lon="0.382311">
        <ele>1705.086</ele>
        <time>2010-06-14T06:14:33Z</time>
      </trkpt>
      <trkpt lat="42.660513" lon="0.382333">
        <ele>1705.014</ele>
        <time>2010-06-14T06:14:36Z</time>
      </trkpt>
      <trkpt lat="42.660513" lon="0.382826">
        <ele>1710.006</ele>
        <time>2010-06-14T06:15:12Z</time>
      </trkpt>
      <trkpt lat="42.660534" lon="0.382891">
        <ele>1710.082</ele>
        <time>2010-06-14T06:15:16Z</time>
      </trkpt>
      <trkpt lat="42.660534" lon="0.383041">
        <ele>1712.029</ele>
        <time>2010-06-14T06:15:28Z</time>
      </trkpt>
      <trkpt lat="42.660599" lon="0.383234">
        <ele>1714.036</ele>
        <time>2010-06-14T06:15:44Z</time>
      </trkpt>
      <trkpt lat="42.660620" lon="0.383255">
        <ele>1714.094</ele>
        <time>2010-06-14T06:15:47Z</time>
      </trkpt>
      <trkpt lat="42.660577" lon="0.383620">
        <ele>1715.012</ele>
        <time>2010-06-14T06:16:13Z</time>
      </trkpt>
      <trkpt lat="42.660577" lon="0.384285">
        <ele>1718.094</ele>
        <time>2010-06-14T06:17:02Z</time>
      </trkpt>
      <trkpt lat="42.660642" lon="0.384972">
        <ele>1723.011</ele>
        <time>2010-06-14T06:17:53Z</time>
      </trkpt>
      <trkpt lat="42.660556" lon="0.385466">
        <ele>1727.021</ele>
        <time>2010-06-14T06:18:30Z</time>
      </trkpt>
      <trkpt lat="42.660599" lon="0.385659">
        <ele>1727.003</ele>
        <time>2010-06-14T06:18:46Z</time>
      </trkpt>
      <trkpt lat="42.660642" lon="0.385895">
        <ele>1729.006</ele>
        <time>2010-06-14T06:19:03Z</time>
      </trkpt>
      <trkpt lat="42.660620" lon="0.386088">
        <ele>1730.040</ele>
        <time>2010-06-14T06:19:18Z</time>
      </trkpt>
      <trkpt lat="42.660706" lon="0.386367">
        <ele>1743.067</ele>
        <time>2010-06-14T06:19:40Z</time>
      </trkpt>
      <trkpt lat="42.660770" lon="0.386689">
        <ele>1743.074</ele>
        <time>2010-06-14T06:20:05Z</time>
      </trkpt>
      <trkpt lat="42.661006" lon="0.387032">
        <ele>1756.062</ele>
        <time>2010-06-14T06:20:40Z</time>
      </trkpt>
      <trkpt lat="42.661157" lon="0.387225">
        <ele>1753.020</ele>
        <time>2010-06-14T06:21:00Z</time>
      </trkpt>
      <trkpt lat="42.661178" lon="0.387440">
        <ele>1749.062</ele>
        <time>2010-06-14T06:21:16Z</time>
      </trkpt>
      <trkpt lat="42.661500" lon="0.387976">
        <ele>1750.027</ele>
        <time>2010-06-14T06:22:06Z</time>
      </trkpt>
      <trkpt lat="42.661736" lon="0.388641">
        <ele>1748.068</ele>
        <time>2010-06-14T06:23:02Z</time>
      </trkpt>
      <trkpt lat="42.661951" lon="0.388899">
        <ele>1753.014</ele>
        <time>2010-06-14T06:23:29Z</time>
      </trkpt>
      <trkpt lat="42.661951" lon="0.388963">
        <ele>1753.006</ele>
        <time>2010-06-14T06:23:35Z</time>
      </trkpt>
      <trkpt lat="42.661972" lon="0.389028">
        <ele>1747.021</ele>
        <time>2010-06-14T06:23:39Z</time>
      </trkpt>
      <trkpt lat="42.662058" lon="0.389135">
        <ele>1747.088</ele>
        <time>2010-06-14T06:23:52Z</time>
      </trkpt>
      <trkpt lat="42.662251" lon="0.389199">
        <ele>1761.065</ele>
        <time>2010-06-14T06:24:12Z</time>
      </trkpt>
      <trkpt lat="42.662294" lon="0.389307">
        <ele>1754.023</ele>
        <time>2010-06-14T06:24:20Z</time>
      </trkpt>
      <trkpt lat="42.662315" lon="0.389414">
        <ele>1754.051</ele>
        <time>2010-06-14T06:24:28Z</time>
      </trkpt>
      <trkpt lat="42.662315" lon="0.389736">
        <ele>1750.093</ele>
        <time>2010-06-14T06:24:52Z</time>
      </trkpt>
      <trkpt lat="42.662530" lon="0.390208">
        <ele>1754.061</ele>
        <time>2010-06-14T06:25:33Z</time>
      </trkpt>
      <trkpt lat="42.662659" lon="0.390422">
        <ele>1763.021</ele>
        <time>2010-06-14T06:25:54Z</time>
      </trkpt>
      <trkpt lat="42.662745" lon="0.390508">
        <ele>1763.013</ele>
        <time>2010-06-14T06:26:04Z</time>
      </trkpt>
      <trkpt lat="42.663023" lon="0.391002">
        <ele>1765.006</ele>
        <time>2010-06-14T06:26:50Z</time>
      </trkpt>
      <trkpt lat="42.663131" lon="0.391023">
        <ele>1765.045</ele>
        <time>2010-06-14T06:27:01Z</time>
      </trkpt>
      <trkpt lat="42.663174" lon="0.391066">
        <ele>1765.072</ele>
        <time>2010-06-14T06:27:06Z</time>
      </trkpt>
      <trkpt lat="42.663217" lon="0.391281">
        <ele>1772.039</ele>
        <time>2010-06-14T06:27:22Z</time>
      </trkpt>
      <trkpt lat="42.663367" lon="0.391409">
        <ele>1772.097</ele>
        <time>2010-06-14T06:27:41Z</time>
      </trkpt>
      <trkpt lat="42.663538" lon="0.391452">
        <ele>1787.075</ele>
        <time>2010-06-14T06:27:57Z</time>
      </trkpt>
      <trkpt lat="42.663581" lon="0.391517">
        <ele>1787.077</ele>
        <time>2010-06-14T06:28:03Z</time>
      </trkpt>
      <trkpt lat="42.663624" lon="0.391731">
        <ele>1779.077</ele>
        <time>2010-06-14T06:28:21Z</time>
      </trkpt>
      <trkpt lat="42.663581" lon="0.391774">
        <ele>1779.061</ele>
        <time>2010-06-14T06:28:25Z</time>
      </trkpt>
      <trkpt lat="42.663774" lon="0.391946">
        <ele>1786.027</ele>
        <time>2010-06-14T06:28:49Z</time>
      </trkpt>
      <trkpt lat="42.664096" lon="0.392203">
        <ele>1793.006</ele>
        <time>2010-06-14T06:29:26Z</time>
      </trkpt>
      <trkpt lat="42.664268" lon="0.392311">
        <ele>1793.096</ele>
        <time>2010-06-14T06:29:45Z</time>
      </trkpt>
      <trkpt lat="42.664397" lon="0.392332">
        <ele>1808.053</ele>
        <time>2010-06-14T06:29:58Z</time>
      </trkpt>
      <trkpt lat="42.664568" lon="0.392525">
        <ele>1800.090</ele>
        <time>2010-06-14T06:30:20Z</time>
      </trkpt>
      <trkpt lat="42.664719" lon="0.392826">
        <ele>1807.028</ele>
        <time>2010-06-14T06:30:48Z</time>
      </trkpt>
      <trkpt lat="42.664783" lon="0.392911">
        <ele>1807.036</ele>
        <time>2010-06-14T06:30:57Z</time>
      </trkpt>
      <trkpt lat="42.664783" lon="0.392997">
        <ele>1801.098</ele>
        <time>2010-06-14T06:31:03Z</time>
      </trkpt>
      <trkpt lat="42.664762" lon="0.392997">
        <ele>1801.061</ele>
        <time>2010-06-14T06:31:05Z</time>
      </trkpt>
      <trkpt lat="42.664847" lon="0.393019">
        <ele>1801.021</ele>
        <time>2010-06-14T06:31:14Z</time>
      </trkpt>
      <trkpt lat="42.664762" lon="0.393040">
        <ele>1801.013</ele>
        <time>2010-06-14T06:31:22Z</time>
      </trkpt>
      <trkpt lat="42.664740" lon="0.393298">
        <ele>1796.006</ele>
        <time>2010-06-14T06:31:41Z</time>
      </trkpt>
      <trkpt lat="42.664740" lon="0.393405">
        <ele>1796.035</ele>
        <time>2010-06-14T06:31:49Z</time>
      </trkpt>
      <trkpt lat="42.664762" lon="0.393512">
        <ele>1792.082</ele>
        <time>2010-06-14T06:31:57Z</time>
      </trkpt>
      <trkpt lat="42.664740" lon="0.393641">
        <ele>1792.059</ele>
        <time>2010-06-14T06:32:07Z</time>
      </trkpt>
      <trkpt lat="42.664762" lon="0.393770">
        <ele>1790.037</ele>
        <time>2010-06-14T06:32:16Z</time>
      </trkpt>
      <trkpt lat="42.664847" lon="0.393834">
        <ele>1790.095</ele>
        <time>2010-06-14T06:32:27Z</time>
      </trkpt>
      <trkpt lat="42.664912" lon="0.393941">
        <ele>1803.047</ele>
        <time>2010-06-14T06:32:37Z</time>
      </trkpt>
      <trkpt lat="42.664912" lon="0.394027">
        <ele>1803.069</ele>
        <time>2010-06-14T06:32:43Z</time>
      </trkpt>
      <trkpt lat="42.664976" lon="0.394263">
        <ele>1801.004</ele>
        <time>2010-06-14T06:33:02Z</time>
      </trkpt>
      <trkpt lat="42.665212" lon="0.394392">
        <ele>1812.024</ele>
        <time>2010-06-14T06:33:26Z</time>
      </trkpt>
      <trkpt lat="42.665234" lon="0.394435">
        <ele>1812.006</ele>
        <time>2010-06-14T06:33:31Z</time>
      </trkpt>
      <trkpt lat="42.665620" lon="0.394714">
        <ele>1819.045</ele>
        <time>2010-06-14T06:34:15Z</time>
      </trkpt>
      <trkpt lat="42.665620" lon="0.394735">
        <ele>1819.012</ele>
        <time>2010-06-14T06:34:16Z</time>
      </trkpt>
      <trkpt lat="42.665813" lon="0.395186">
        <ele>1816.029</ele>
        <time>2010-06-14T06:34:54Z</time>
      </trkpt>
      <trkpt lat="42.665877" lon="0.395272">
        <ele>1816.087</ele>
        <time>2010-06-14T06:35:03Z</time>
      </trkpt>
      <trkpt lat="42.666006" lon="0.395379">
        <ele>1824.015</ele>
        <time>2010-06-14T06:35:19Z</time>
      </trkpt>
      <trkpt lat="42.666006" lon="0.395422">
        <ele>1817.047</ele>
        <time>2010-06-14T06:35:22Z</time>
      </trkpt>
      <trkpt lat="42.666049" lon="0.395529">
        <ele>1817.065</ele>
        <time>2010-06-14T06:35:30Z</time>
      </trkpt>
      <trkpt lat="42.666221" lon="0.395679">
        <ele>1817.068</ele>
        <time>2010-06-14T06:35:51Z</time>
      </trkpt>
      <trkpt lat="42.666285" lon="0.395701">
        <ele>1821.014</ele>
        <time>2010-06-14T06:35:57Z</time>
      </trkpt>
      <trkpt lat="42.666371" lon="0.395980">
        <ele>1815.006</ele>
        <time>2010-06-14T06:36:20Z</time>
      </trkpt>
      <trkpt lat="42.666564" lon="0.396409">
        <ele>1824.095</ele>
        <time>2010-06-14T06:36:56Z</time>
      </trkpt>
      <trkpt lat="42.666693" lon="0.396838">
        <ele>1816.072</ele>
        <time>2010-06-14T06:37:30Z</time>
      </trkpt>
      <trkpt lat="42.666714" lon="0.396881">
        <ele>1816.049</ele>
        <time>2010-06-14T06:37:35Z</time>
      </trkpt>
      <trkpt lat="42.666714" lon="0.396924">
        <ele>1816.077</ele>
        <time>2010-06-14T06:37:38Z</time>
      </trkpt>
      <trkpt lat="42.666779" lon="0.397010">
        <ele>1816.025</ele>
        <time>2010-06-14T06:37:46Z</time>
      </trkpt>
      <trkpt lat="42.666779" lon="0.397267">
        <ele>1814.077</ele>
        <time>2010-06-14T06:38:05Z</time>
      </trkpt>
      <trkpt lat="42.666972" lon="0.397697">
        <ele>1822.075</ele>
        <time>2010-06-14T06:38:43Z</time>
      </trkpt>
      <trkpt lat="42.667058" lon="0.397890">
        <ele>1822.028</ele>
        <time>2010-06-14T06:38:59Z</time>
      </trkpt>
      <trkpt lat="42.667229" lon="0.398383">
        <ele>1829.020</ele>
        <time>2010-06-14T06:39:40Z</time>
      </trkpt>
      <trkpt lat="42.667401" lon="0.398726">
        <ele>1836.006</ele>
        <time>2010-06-14T06:40:11Z</time>
      </trkpt>
      <trkpt lat="42.667551" lon="0.398984">
        <ele>1833.096</ele>
        <time>2010-06-14T06:40:34Z</time>
      </trkpt>
      <trkpt lat="42.667680" lon="0.399177">
        <ele>1838.033</ele>
        <time>2010-06-14T06:40:54Z</time>
      </trkpt>
      <trkpt lat="42.667766" lon="0.399349">
        <ele>1835.060</ele>
        <time>2010-06-14T06:41:09Z</time>
      </trkpt>
      <trkpt lat="42.667766" lon="0.399456">
        <ele>1835.048</ele>
        <time>2010-06-14T06:41:16Z</time>
      </trkpt>
      <trkpt lat="42.667894" lon="0.399628">
        <ele>1833.016</ele>
        <time>2010-06-14T06:41:35Z</time>
      </trkpt>
      <trkpt lat="42.667937" lon="0.399756">
        <ele>1838.098</ele>
        <time>2010-06-14T06:41:46Z</time>
      </trkpt>
      <trkpt lat="42.668066" lon="0.399950">
        <ele>1836.074</ele>
        <time>2010-06-14T06:42:05Z</time>
      </trkpt>
      <trkpt lat="42.668066" lon="0.399971">
        <ele>1836.056</ele>
        <time>2010-06-14T06:42:05Z</time>
      </trkpt>
      <trkpt lat="42.668087" lon="0.400100">
        <ele>1836.021</ele>
        <time>2010-06-14T06:42:16Z</time>
      </trkpt>
      <trkpt lat="42.668109" lon="0.400121">
        <ele>1836.006</ele>
        <time>2010-06-14T06:42:19Z</time>
      </trkpt>
      <trkpt lat="42.668259" lon="0.400443">
        <ele>1838.076</ele>
        <time>2010-06-14T06:42:47Z</time>
      </trkpt>
      <trkpt lat="42.668388" lon="0.400743">
        <ele>1838.043</ele>
        <time>2010-06-14T06:43:12Z</time>
      </trkpt>
      <trkpt lat="42.668560" lon="0.401001">
        <ele>1842.020</ele>
        <time>2010-06-14T06:43:38Z</time>
      </trkpt>
      <trkpt lat="42.668688" lon="0.401130">
        <ele>1842.098</ele>
        <time>2010-06-14T06:43:53Z</time>
      </trkpt>
      <trkpt lat="42.668774" lon="0.401173">
        <ele>1848.026</ele>
        <time>2010-06-14T06:44:03Z</time>
      </trkpt>
      <trkpt lat="42.668796" lon="0.401216">
        <ele>1848.098</ele>
        <time>2010-06-14T06:44:06Z</time>
      </trkpt>
      <trkpt lat="42.668881" lon="0.401387">
        <ele>1845.097</ele>
        <time>2010-06-14T06:44:22Z</time>
      </trkpt>
      <trkpt lat="42.668946" lon="0.401473">
        <ele>1845.023</ele>
        <time>2010-06-14T06:44:30Z</time>
      </trkpt>
      <trkpt lat="42.669032" lon="0.401516">
        <ele>1852.025</ele>
        <time>2010-06-14T06:44:40Z</time>
      </trkpt>
      <trkpt lat="42.669117" lon="0.401666">
        <ele>1849.006</ele>
        <time>2010-06-14T06:44:54Z</time>
      </trkpt>
      <trkpt lat="42.669139" lon="0.401752">
        <ele>1849.068</ele>
        <time>2010-06-14T06:45:00Z</time>
      </trkpt>
      <trkpt lat="42.669268" lon="0.401945">
        <ele>1848.055</ele>
        <time>2010-06-14T06:45:19Z</time>
      </trkpt>
      <trkpt lat="42.669396" lon="0.402246">
        <ele>1851.042</ele>
        <time>2010-06-14T06:45:46Z</time>
      </trkpt>
      <trkpt lat="42.669439" lon="0.402288">
        <ele>1851.040</ele>
        <time>2010-06-14T06:45:50Z</time>
      </trkpt>
      <trkpt lat="42.669632" lon="0.402868">
        <ele>1854.078</ele>
        <time>2010-06-14T06:46:37Z</time>
      </trkpt>
      <trkpt lat="42.669654" lon="0.403018">
        <ele>1855.050</ele>
        <time>2010-06-14T06:46:49Z</time>
      </trkpt>
      <trkpt lat="42.669847" lon="0.403318">
        <ele>1856.072</ele>
        <time>2010-06-14T06:47:19Z</time>
      </trkpt>
      <trkpt lat="42.669933" lon="0.403383">
        <ele>1859.013</ele>
        <time>2010-06-14T06:47:28Z</time>
      </trkpt>
      <trkpt lat="42.669954" lon="0.403576">
        <ele>1859.014</ele>
        <time>2010-06-14T06:47:43Z</time>
      </trkpt>
      <trkpt lat="42.670362" lon="0.403898">
        <ele>1862.006</ele>
        <time>2010-06-14T06:48:29Z</time>
      </trkpt>
      <trkpt lat="42.670469" lon="0.404069">
        <ele>1864.086</ele>
        <time>2010-06-14T06:48:46Z</time>
      </trkpt>
      <trkpt lat="42.670469" lon="0.404091">
        <ele>1864.053</ele>
        <time>2010-06-14T06:48:48Z</time>
      </trkpt>
      <trkpt lat="42.670662" lon="0.404327">
        <ele>1864.090</ele>
        <time>2010-06-14T06:49:13Z</time>
      </trkpt>
      <trkpt lat="42.670984" lon="0.404520">
        <ele>1871.058</ele>
        <time>2010-06-14T06:49:48Z</time>
      </trkpt>
      <trkpt lat="42.671006" lon="0.404520">
        <ele>1871.016</ele>
        <time>2010-06-14T06:49:52Z</time>
      </trkpt>
      <trkpt lat="42.671263" lon="0.404670">
        <ele>1875.078</ele>
        <time>2010-06-14T06:50:20Z</time>
      </trkpt>
      <trkpt lat="42.671435" lon="0.404863">
        <ele>1872.051</ele>
        <time>2010-06-14T06:50:42Z</time>
      </trkpt>
      <trkpt lat="42.671542" lon="0.405228">
        <ele>1875.001</ele>
        <time>2010-06-14T06:51:11Z</time>
      </trkpt>
      <trkpt lat="42.671649" lon="0.405378">
        <ele>1875.011</ele>
        <time>2010-06-14T06:51:26Z</time>
      </trkpt>
      <trkpt lat="42.671692" lon="0.405293">
        <ele>1875.006</ele>
        <time>2010-06-14T06:51:34Z</time>
      </trkpt>
      <trkpt lat="42.671714" lon="0.405164">
        <ele>1875.024</ele>
        <time>2010-06-14T06:51:43Z</time>
      </trkpt>
      <trkpt lat="42.671778" lon="0.405078">
        <ele>1878.061</ele>
        <time>2010-06-14T06:51:51Z</time>
      </trkpt>
      <trkpt lat="42.671757" lon="0.405014">
        <ele>1878.038</ele>
        <time>2010-06-14T06:51:57Z</time>
      </trkpt>
      <trkpt lat="42.671800" lon="0.404949">
        <ele>1878.056</ele>
        <time>2010-06-14T06:52:04Z</time>
      </trkpt>
      <trkpt lat="42.671821" lon="0.404885">
        <ele>1886.054</ele>
        <time>2010-06-14T06:52:09Z</time>
      </trkpt>
      <trkpt lat="42.671843" lon="0.404863">
        <ele>1886.036</ele>
        <time>2010-06-14T06:52:12Z</time>
      </trkpt>
      <trkpt lat="42.671885" lon="0.404799">
        <ele>1893.085</ele>
        <time>2010-06-14T06:52:18Z</time>
      </trkpt>
      <trkpt lat="42.671885" lon="0.404713">
        <ele>1893.089</ele>
        <time>2010-06-14T06:52:24Z</time>
      </trkpt>
      <trkpt lat="42.671907" lon="0.404627">
        <ele>1893.017</ele>
        <time>2010-06-14T06:52:31Z</time>
      </trkpt>
      <trkpt lat="42.671907" lon="0.404499">
        <ele>1900.006</ele>
        <time>2010-06-14T06:52:40Z</time>
      </trkpt>
      <trkpt lat="42.672014" lon="0.404370">
        <ele>1900.087</ele>
        <time>2010-06-14T06:52:55Z</time>
      </trkpt>
      <trkpt lat="42.672036" lon="0.404327">
        <ele>1900.074</ele>
        <time>2010-06-14T06:52:59Z</time>
      </trkpt>
      <trkpt lat="42.672079" lon="0.404327">
        <ele>1900.021</ele>
        <time>2010-06-14T06:53:03Z</time>
      </trkpt>
      <trkpt lat="42.672079" lon="0.404348">
        <ele>1900.099</ele>
        <time>2010-06-14T06:53:04Z</time>
      </trkpt>
      <trkpt lat="42.672315" lon="0.404606">
        <ele>1903.067</ele>
        <time>2010-06-14T06:53:35Z</time>
      </trkpt>
      <trkpt lat="42.672443" lon="0.404670">
        <ele>1913.089</ele>
        <time>2010-06-14T06:53:49Z</time>
      </trkpt>
      <trkpt lat="42.672465" lon="0.404670">
        <ele>1913.014</ele>
        <time>2010-06-14T06:53:50Z</time>
      </trkpt>
      <trkpt lat="42.672508" lon="0.404778">
        <ele>1913.054</ele>
        <time>2010-06-14T06:54:00Z</time>
      </trkpt>
      <trkpt lat="42.672701" lon="0.404885">
        <ele>1911.009</ele>
        <time>2010-06-14T06:54:21Z</time>
      </trkpt>
      <trkpt lat="42.673259" lon="0.405121">
        <ele>1928.006</ele>
        <time>2010-06-14T06:55:19Z</time>
      </trkpt>
      <trkpt lat="42.673280" lon="0.405293">
        <ele>1918.060</ele>
        <time>2010-06-14T06:55:32Z</time>
      </trkpt>
      <trkpt lat="42.673323" lon="0.405293">
        <ele>1918.087</ele>
        <time>2010-06-14T06:55:36Z</time>
      </trkpt>
      <trkpt lat="42.673409" lon="0.405357">
        <ele>1918.084</ele>
        <time>2010-06-14T06:55:45Z</time>
      </trkpt>
      <trkpt lat="42.673688" lon="0.405421">
        <ele>1918.012</ele>
        <time>2010-06-14T06:56:14Z</time>
      </trkpt>
      <trkpt lat="42.674181" lon="0.405550">
        <ele>1935.060</ele>
        <time>2010-06-14T06:57:05Z</time>
      </trkpt>
      <trkpt lat="42.674418" lon="0.405722">
        <ele>1932.072</ele>
        <time>2010-06-14T06:57:32Z</time>
      </trkpt>
      <trkpt lat="42.674825" lon="0.405958">
        <ele>1939.085</ele>
        <time>2010-06-14T06:58:15Z</time>
      </trkpt>
      <trkpt lat="42.675169" lon="0.406129">
        <ele>1946.089</ele>
        <time>2010-06-14T06:58:53Z</time>
      </trkpt>
      <trkpt lat="42.675426" lon="0.406065">
        <ele>1954.017</ele>
        <time>2010-06-14T06:59:18Z</time>
      </trkpt>
      <trkpt lat="42.675576" lon="0.406108">
        <ele>1954.006</ele>
        <time>2010-06-14T06:59:34Z</time>
      </trkpt>
      <trkpt lat="42.676177" lon="0.406387">
        <ele>1964.087</ele>
        <time>2010-06-14T07:00:38Z</time>
      </trkpt>
      <trkpt lat="42.676628" lon="0.406516">
        <ele>1984.064</ele>
        <time>2010-06-14T07:01:24Z</time>
      </trkpt>
      <trkpt lat="42.677550" lon="0.406687">
        <ele>2008.051</ele>
        <time>2010-06-14T07:02:57Z</time>
      </trkpt>
      <trkpt lat="42.677958" lon="0.406752">
        <ele>2042.089</ele>
        <time>2010-06-14T07:03:38Z</time>
      </trkpt>
      <trkpt lat="42.678194" lon="0.406945">
        <ele>2028.017</ele>
        <time>2010-06-14T07:04:05Z</time>
      </trkpt>
      <trkpt lat="42.678301" lon="0.407159">
        <ele>2036.059</ele>
        <time>2010-06-14T07:04:24Z</time>
      </trkpt>
      <trkpt lat="42.678430" lon="0.407288">
        <ele>2036.063</ele>
        <time>2010-06-14T07:04:40Z</time>
      </trkpt>
      <trkpt lat="42.678387" lon="0.407653">
        <ele>2023.044</ele>
        <time>2010-06-14T07:05:07Z</time>
      </trkpt>
      <trkpt lat="42.678473" lon="0.407975">
        <ele>2034.018</ele>
        <time>2010-06-14T07:05:33Z</time>
      </trkpt>
      <trkpt lat="42.678494" lon="0.408103">
        <ele>2034.006</ele>
        <time>2010-06-14T07:05:42Z</time>
      </trkpt>
      <trkpt lat="42.678473" lon="0.408232">
        <ele>2034.085</ele>
        <time>2010-06-14T07:05:52Z</time>
      </trkpt>
      <trkpt lat="42.678473" lon="0.408382">
        <ele>2034.042</ele>
        <time>2010-06-14T07:06:03Z</time>
      </trkpt>
      <trkpt lat="42.678516" lon="0.408533">
        <ele>2036.019</ele>
        <time>2010-06-14T07:06:15Z</time>
      </trkpt>
      <trkpt lat="42.678516" lon="0.408640">
        <ele>2036.097</ele>
        <time>2010-06-14T07:06:22Z</time>
      </trkpt>
      <trkpt lat="42.678473" lon="0.408747">
        <ele>2036.095</ele>
        <time>2010-06-14T07:06:31Z</time>
      </trkpt>
      <trkpt lat="42.678494" lon="0.408919">
        <ele>2039.077</ele>
        <time>2010-06-14T07:06:44Z</time>
      </trkpt>
      <trkpt lat="42.678452" lon="0.409219">
        <ele>2036.092</ele>
        <time>2010-06-14T07:07:06Z</time>
      </trkpt>
      <trkpt lat="42.678473" lon="0.409327">
        <ele>2046.073</ele>
        <time>2010-06-14T07:07:16Z</time>
      </trkpt>
      <trkpt lat="42.678516" lon="0.409412">
        <ele>2046.020</ele>
        <time>2010-06-14T07:07:22Z</time>
      </trkpt>
      <trkpt lat="42.678602" lon="0.409541">
        <ele>2046.006</ele>
        <time>2010-06-14T07:07:35Z</time>
      </trkpt>
      <trkpt lat="42.678709" lon="0.409606">
        <ele>2049.048</ele>
        <time>2010-06-14T07:07:48Z</time>
      </trkpt>
      <trkpt lat="42.679031" lon="0.409648">
        <ele>2059.055</ele>
        <time>2010-06-14T07:08:20Z</time>
      </trkpt>
      <trkpt lat="42.679245" lon="0.409606">
        <ele>2059.072</ele>
        <time>2010-06-14T07:08:42Z</time>
      </trkpt>
      <trkpt lat="42.679460" lon="0.409434">
        <ele>2065.020</ele>
        <time>2010-06-14T07:09:07Z</time>
      </trkpt>
      <trkpt lat="42.679653" lon="0.409455">
        <ele>2069.058</ele>
        <time>2010-06-14T07:09:26Z</time>
      </trkpt>
      <trkpt lat="42.679760" lon="0.409584">
        <ele>2066.010</ele>
        <time>2010-06-14T07:09:39Z</time>
      </trkpt>
      <trkpt lat="42.679911" lon="0.409606">
        <ele>2067.037</ele>
        <time>2010-06-14T07:09:55Z</time>
      </trkpt>
      <trkpt lat="42.680297" lon="0.409606">
        <ele>2068.049</ele>
        <time>2010-06-14T07:10:33Z</time>
      </trkpt>
      <trkpt lat="42.680404" lon="0.409648">
        <ele>2068.013</ele>
        <time>2010-06-14T07:10:45Z</time>
      </trkpt>
      <trkpt lat="42.680533" lon="0.409799">
        <ele>2070.006</ele>
        <time>2010-06-14T07:11:02Z</time>
      </trkpt>
      <trkpt lat="42.680554" lon="0.409884">
        <ele>2066.082</ele>
        <time>2010-06-14T07:11:08Z</time>
      </trkpt>
      <trkpt lat="42.680769" lon="0.410142">
        <ele>2065.019</ele>
        <time>2010-06-14T07:11:37Z</time>
      </trkpt>
      <trkpt lat="42.680984" lon="0.410228">
        <ele>2067.086</ele>
        <time>2010-06-14T07:11:59Z</time>
      </trkpt>
      <trkpt lat="42.681026" lon="0.410314">
        <ele>2067.054</ele>
        <time>2010-06-14T07:12:07Z</time>
      </trkpt>
      <trkpt lat="42.681005" lon="0.410614">
        <ele>2064.072</ele>
        <time>2010-06-14T07:12:30Z</time>
      </trkpt>
      <trkpt lat="42.681026" lon="0.410657">
        <ele>2064.074</ele>
        <time>2010-06-14T07:12:34Z</time>
      </trkpt>
      <trkpt lat="42.681005" lon="0.410700">
        <ele>2063.025</ele>
        <time>2010-06-14T07:12:38Z</time>
      </trkpt>
      <trkpt lat="42.681091" lon="0.410743">
        <ele>2063.026</ele>
        <time>2010-06-14T07:12:47Z</time>
      </trkpt>
      <trkpt lat="42.681112" lon="0.410786">
        <ele>2063.008</ele>
        <time>2010-06-14T07:12:50Z</time>
      </trkpt>
      <trkpt lat="42.681112" lon="0.410872">
        <ele>2063.006</ele>
        <time>2010-06-14T07:12:57Z</time>
      </trkpt>
      <trkpt lat="42.681134" lon="0.410914">
        <ele>2063.021</ele>
        <time>2010-06-14T07:13:00Z</time>
      </trkpt>
      <trkpt lat="42.681198" lon="0.410936">
        <ele>2063.048</ele>
        <time>2010-06-14T07:13:06Z</time>
      </trkpt>
      <trkpt lat="42.681091" lon="0.410872">
        <ele>2063.045</ele>
        <time>2010-06-14T07:13:19Z</time>
      </trkpt>
      <trkpt lat="42.680984" lon="0.410936">
        <ele>2063.033</ele>
        <time>2010-06-14T07:13:30Z</time>
      </trkpt>
      <trkpt lat="42.680705" lon="0.411022">
        <ele>2062.011</ele>
        <time>2010-06-14T07:13:59Z</time>
      </trkpt>
      <trkpt lat="42.680662" lon="0.411150">
        <ele>2064.053</ele>
        <time>2010-06-14T07:14:10Z</time>
      </trkpt>
      <trkpt lat="42.680447" lon="0.411172">
        <ele>2064.085</ele>
        <time>2010-06-14T07:14:31Z</time>
      </trkpt>
      <trkpt lat="42.680447" lon="0.411344">
        <ele>2068.089</ele>
        <time>2010-06-14T07:14:43Z</time>
      </trkpt>
      <trkpt lat="42.680426" lon="0.411451">
        <ele>2068.017</ele>
        <time>2010-06-14T07:14:51Z</time>
      </trkpt>
      <trkpt lat="42.680361" lon="0.411472">
        <ele>2073.006</ele>
        <time>2010-06-14T07:14:58Z</time>
      </trkpt>
      <trkpt lat="42.680318" lon="0.411837">
        <ele>2089.087</ele>
        <time>2010-06-14T07:15:26Z</time>
      </trkpt>
      <trkpt lat="42.680190" lon="0.412095">
        <ele>2100.084</ele>
        <time>2010-06-14T07:15:49Z</time>
      </trkpt>
      <trkpt lat="42.680233" lon="0.412438">
        <ele>2111.041</ele>
        <time>2010-06-14T07:16:14Z</time>
      </trkpt>
      <trkpt lat="42.680361" lon="0.412481">
        <ele>2111.089</ele>
        <time>2010-06-14T07:16:27Z</time>
      </trkpt>
      <trkpt lat="42.680447" lon="0.412717">
        <ele>2105.067</ele>
        <time>2010-06-14T07:16:46Z</time>
      </trkpt>
      <trkpt lat="42.680469" lon="0.413167">
        <ele>2113.049</ele>
        <time>2010-06-14T07:17:19Z</time>
      </trkpt>
      <trkpt lat="42.680426" lon="0.413318">
        <ele>2120.067</ele>
        <time>2010-06-14T07:17:32Z</time>
      </trkpt>
      <trkpt lat="42.680404" lon="0.413747">
        <ele>2147.081</ele>
        <time>2010-06-14T07:18:04Z</time>
      </trkpt>
      <trkpt lat="42.680426" lon="0.414262">
        <ele>2133.019</ele>
        <time>2010-06-14T07:18:42Z</time>
      </trkpt>
      <trkpt lat="42.680383" lon="0.414455">
        <ele>2159.006</ele>
        <time>2010-06-14T07:18:56Z</time>
      </trkpt>
      <trkpt lat="42.680383" lon="0.414605">
        <ele>2161.055</ele>
        <time>2010-06-14T07:19:06Z</time>
      </trkpt>
      <trkpt lat="42.680426" lon="0.414820">
        <ele>2138.072</ele>
        <time>2010-06-14T07:19:24Z</time>
      </trkpt>
      <trkpt lat="42.680361" lon="0.415249">
        <ele>2165.089</ele>
        <time>2010-06-14T07:19:55Z</time>
      </trkpt>
      <trkpt lat="42.680318" lon="0.415485">
        <ele>2165.037</ele>
        <time>2010-06-14T07:20:13Z</time>
      </trkpt>
      <trkpt lat="42.680340" lon="0.415592">
        <ele>2165.065</ele>
        <time>2010-06-14T07:20:22Z</time>
      </trkpt>
      <trkpt lat="42.680318" lon="0.415742">
        <ele>2165.087</ele>
        <time>2010-06-14T07:20:32Z</time>
      </trkpt>
      <trkpt lat="42.680361" lon="0.415871">
        <ele>2165.084</ele>
        <time>2010-06-14T07:20:43Z</time>
      </trkpt>
      <trkpt lat="42.680361" lon="0.416150">
        <ele>2167.007</ele>
        <time>2010-06-14T07:21:04Z</time>
      </trkpt>
      <trkpt lat="42.680340" lon="0.416644">
        <ele>2171.017</ele>
        <time>2010-06-14T07:21:40Z</time>
      </trkpt>
      <trkpt lat="42.680297" lon="0.416837">
        <ele>2173.006</ele>
        <time>2010-06-14T07:21:55Z</time>
      </trkpt>
      <trkpt lat="42.680190" lon="0.417030">
        <ele>2173.017</ele>
        <time>2010-06-14T07:22:12Z</time>
      </trkpt>
      <trkpt lat="42.680147" lon="0.417073">
        <ele>2173.094</ele>
        <time>2010-06-14T07:22:19Z</time>
      </trkpt>
      <trkpt lat="42.680168" lon="0.417159">
        <ele>2175.021</ele>
        <time>2010-06-14T07:22:25Z</time>
      </trkpt>
      <trkpt lat="42.680168" lon="0.417287">
        <ele>2175.059</ele>
        <time>2010-06-14T07:22:35Z</time>
      </trkpt>
      <trkpt lat="42.680104" lon="0.417309">
        <ele>2196.057</ele>
        <time>2010-06-14T07:22:41Z</time>
      </trkpt>
      <trkpt lat="42.680039" lon="0.417438">
        <ele>2198.079</ele>
        <time>2010-06-14T07:22:52Z</time>
      </trkpt>
      <trkpt lat="42.680018" lon="0.417438">
        <ele>2198.082</ele>
        <time>2010-06-14T07:22:55Z</time>
      </trkpt>
      <trkpt lat="42.680018" lon="0.417416">
        <ele>2198.043</ele>
        <time>2010-06-14T07:22:57Z</time>
      </trkpt>
      <trkpt lat="42.679975" lon="0.417674">
        <ele>2201.017</ele>
        <time>2010-06-14T07:23:16Z</time>
      </trkpt>
      <trkpt lat="42.679889" lon="0.417781">
        <ele>2201.006</ele>
        <time>2010-06-14T07:23:27Z</time>
      </trkpt>
      <trkpt lat="42.679846" lon="0.417931">
        <ele>2228.087</ele>
        <time>2010-06-14T07:23:40Z</time>
      </trkpt>
      <trkpt lat="42.679803" lon="0.418017">
        <ele>2228.084</ele>
        <time>2010-06-14T07:23:46Z</time>
      </trkpt>
      <trkpt lat="42.679782" lon="0.418124">
        <ele>2228.031</ele>
        <time>2010-06-14T07:23:54Z</time>
      </trkpt>
      <trkpt lat="42.679653" lon="0.418210">
        <ele>2231.039</ele>
        <time>2010-06-14T07:24:10Z</time>
      </trkpt>
      <trkpt lat="42.679653" lon="0.418317">
        <ele>2231.037</ele>
        <time>2010-06-14T07:24:18Z</time>
      </trkpt>
      <trkpt lat="42.679567" lon="0.418553">
        <ele>2258.079</ele>
        <time>2010-06-14T07:24:37Z</time>
      </trkpt>
      <trkpt lat="42.679546" lon="0.418639">
        <ele>2258.027</ele>
        <time>2010-06-14T07:24:44Z</time>
      </trkpt>
      <trkpt lat="42.679546" lon="0.418875">
        <ele>2261.068</ele>
        <time>2010-06-14T07:25:01Z</time>
      </trkpt>
      <trkpt lat="42.679482" lon="0.418983">
        <ele>2261.014</ele>
        <time>2010-06-14T07:25:11Z</time>
      </trkpt>
      <trkpt lat="42.679374" lon="0.419219">
        <ele>2264.006</ele>
        <time>2010-06-14T07:25:31Z</time>
      </trkpt>
      <trkpt lat="42.679353" lon="0.419369">
        <ele>2268.011</ele>
        <time>2010-06-14T07:25:42Z</time>
      </trkpt>
      <trkpt lat="42.679267" lon="0.419519">
        <ele>2286.058</ele>
        <time>2010-06-14T07:25:57Z</time>
      </trkpt>
      <trkpt lat="42.679267" lon="0.419648">
        <ele>2288.065</ele>
        <time>2010-06-14T07:26:06Z</time>
      </trkpt>
      <trkpt lat="42.679310" lon="0.420034">
        <ele>2277.073</ele>
        <time>2010-06-14T07:26:35Z</time>
      </trkpt>
      <trkpt lat="42.679267" lon="0.420184">
        <ele>2295.021</ele>
        <time>2010-06-14T07:26:46Z</time>
      </trkpt>
      <trkpt lat="42.679267" lon="0.420270">
        <ele>2295.023</ele>
        <time>2010-06-14T07:26:52Z</time>
      </trkpt>
      <trkpt lat="42.679245" lon="0.420377">
        <ele>2295.073</ele>
        <time>2010-06-14T07:27:00Z</time>
      </trkpt>
      <trkpt lat="42.679245" lon="0.420485">
        <ele>2299.085</ele>
        <time>2010-06-14T07:27:08Z</time>
      </trkpt>
      <trkpt lat="42.679181" lon="0.420635">
        <ele>2299.013</ele>
        <time>2010-06-14T07:27:21Z</time>
      </trkpt>
      <trkpt lat="42.679160" lon="0.420978">
        <ele>2309.006</ele>
        <time>2010-06-14T07:27:47Z</time>
      </trkpt>
      <trkpt lat="42.679181" lon="0.421107">
        <ele>2309.076</ele>
        <time>2010-06-14T07:27:56Z</time>
      </trkpt>
      <trkpt lat="42.679181" lon="0.421257">
        <ele>2314.053</ele>
        <time>2010-06-14T07:28:07Z</time>
      </trkpt>
      <trkpt lat="42.679224" lon="0.421429">
        <ele>2314.010</ele>
        <time>2010-06-14T07:28:22Z</time>
      </trkpt>
      <trkpt lat="42.679245" lon="0.421729">
        <ele>2318.028</ele>
        <time>2010-06-14T07:28:44Z</time>
      </trkpt>
      <trkpt lat="42.679224" lon="0.421944">
        <ele>2323.086</ele>
        <time>2010-06-14T07:29:00Z</time>
      </trkpt>
      <trkpt lat="42.679331" lon="0.422180">
        <ele>2320.028</ele>
        <time>2010-06-14T07:29:20Z</time>
      </trkpt>
      <trkpt lat="42.679374" lon="0.422244">
        <ele>2320.064</ele>
        <time>2010-06-14T07:29:27Z</time>
      </trkpt>
      <trkpt lat="42.679353" lon="0.422695">
        <ele>2329.006</ele>
        <time>2010-06-14T07:29:59Z</time>
      </trkpt>
      <trkpt lat="42.679331" lon="0.422823">
        <ele>2329.016</ele>
        <time>2010-06-14T07:30:08Z</time>
      </trkpt>
      <trkpt lat="42.679374" lon="0.423274">
        <ele>2341.006</ele>
        <time>2010-06-14T07:30:43Z</time>
      </trkpt>
      <trkpt lat="42.679310" lon="0.423360">
        <ele>2341.035</ele>
        <time>2010-06-14T07:30:51Z</time>
      </trkpt>
      <trkpt lat="42.679310" lon="0.423467">
        <ele>2341.012</ele>
        <time>2010-06-14T07:30:59Z</time>
      </trkpt>
      <trkpt lat="42.679353" lon="0.423553">
        <ele>2347.019</ele>
        <time>2010-06-14T07:31:07Z</time>
      </trkpt>
      <trkpt lat="42.679439" lon="0.423918">
        <ele>2353.017</ele>
        <time>2010-06-14T07:31:36Z</time>
      </trkpt>
      <trkpt lat="42.679439" lon="0.424068">
        <ele>2360.095</ele>
        <time>2010-06-14T07:31:47Z</time>
      </trkpt>
      <trkpt lat="42.679374" lon="0.424154">
        <ele>2360.087</ele>
        <time>2010-06-14T07:31:56Z</time>
      </trkpt>
      <trkpt lat="42.679396" lon="0.424261">
        <ele>2360.096</ele>
        <time>2010-06-14T07:32:03Z</time>
      </trkpt>
      <trkpt lat="42.679439" lon="0.424347">
        <ele>2367.031</ele>
        <time>2010-06-14T07:32:12Z</time>
      </trkpt>
      <trkpt lat="42.679482" lon="0.424604">
        <ele>2374.024</ele>
        <time>2010-06-14T07:32:31Z</time>
      </trkpt>
      <trkpt lat="42.679460" lon="0.424969">
        <ele>2381.006</ele>
        <time>2010-06-14T07:32:57Z</time>
      </trkpt>
      <trkpt lat="42.679482" lon="0.425141">
        <ele>2387.078</ele>
        <time>2010-06-14T07:33:10Z</time>
      </trkpt>
      <trkpt lat="42.679439" lon="0.425591">
        <ele>2392.065</ele>
        <time>2010-06-14T07:33:43Z</time>
      </trkpt>
      <trkpt lat="42.679353" lon="0.425978">
        <ele>2402.032</ele>
        <time>2010-06-14T07:34:13Z</time>
      </trkpt>
      <trkpt lat="42.679331" lon="0.426171">
        <ele>2402.020</ele>
        <time>2010-06-14T07:34:28Z</time>
      </trkpt>
      <trkpt lat="42.679331" lon="0.426450">
        <ele>2407.028</ele>
        <time>2010-06-14T07:34:48Z</time>
      </trkpt>
      <trkpt lat="42.679310" lon="0.426621">
        <ele>2411.030</ele>
        <time>2010-06-14T07:35:01Z</time>
      </trkpt>
      <trkpt lat="42.679353" lon="0.426707">
        <ele>2411.098</ele>
        <time>2010-06-14T07:35:09Z</time>
      </trkpt>
      <trkpt lat="42.679310" lon="0.427136">
        <ele>2418.015</ele>
        <time>2010-06-14T07:35:41Z</time>
      </trkpt>
      <trkpt lat="42.679310" lon="0.427201">
        <ele>2418.026</ele>
        <time>2010-06-14T07:35:46Z</time>
      </trkpt>
      <trkpt lat="42.679267" lon="0.427673">
        <ele>2431.006</ele>
        <time>2010-06-14T07:36:21Z</time>
      </trkpt>
      <trkpt lat="42.679288" lon="0.428016">
        <ele>2434.098</ele>
        <time>2010-06-14T07:36:46Z</time>
      </trkpt>
      <trkpt lat="42.679245" lon="0.428510">
        <ele>2441.035</ele>
        <time>2010-06-14T07:37:23Z</time>
      </trkpt>
      <trkpt lat="42.679245" lon="0.428767">
        <ele>2445.012</ele>
        <time>2010-06-14T07:37:42Z</time>
      </trkpt>
      <trkpt lat="42.679224" lon="0.428810">
        <ele>2445.030</ele>
        <time>2010-06-14T07:37:45Z</time>
      </trkpt>
      <trkpt lat="42.679245" lon="0.429003">
        <ele>2445.028</ele>
        <time>2010-06-14T07:38:00Z</time>
      </trkpt>
      <trkpt lat="42.679245" lon="0.429368">
        <ele>2455.060</ele>
        <time>2010-06-14T07:38:27Z</time>
      </trkpt>
      <trkpt lat="42.679245" lon="0.429604">
        <ele>2460.018</ele>
        <time>2010-06-14T07:38:44Z</time>
      </trkpt>
      <trkpt lat="42.679288" lon="0.429797">
        <ele>2460.098</ele>
        <time>2010-06-14T07:38:58Z</time>
      </trkpt>
      <trkpt lat="42.679288" lon="0.429862">
        <ele>2465.017</ele>
        <time>2010-06-14T07:39:03Z</time>
      </trkpt>
      <trkpt lat="42.679310" lon="0.429969">
        <ele>2460.006</ele>
        <time>2010-06-14T07:39:11Z</time>
      </trkpt>
      <trkpt lat="42.679353" lon="0.430162">
        <ele>2465.090</ele>
        <time>2010-06-14T07:39:27Z</time>
      </trkpt>
      <trkpt lat="42.679460" lon="0.430355">
        <ele>2465.047</ele>
        <time>2010-06-14T07:39:44Z</time>
      </trkpt>
      <trkpt lat="42.679503" lon="0.430462">
        <ele>2471.084</ele>
        <time>2010-06-14T07:39:53Z</time>
      </trkpt>
      <trkpt lat="42.679482" lon="0.430677">
        <ele>2471.092</ele>
        <time>2010-06-14T07:40:08Z</time>
      </trkpt>
      <trkpt lat="42.679503" lon="0.430784">
        <ele>2476.070</ele>
        <time>2010-06-14T07:40:16Z</time>
      </trkpt>
      <trkpt lat="42.679503" lon="0.430956">
        <ele>2476.052</ele>
        <time>2010-06-14T07:40:29Z</time>
      </trkpt>
      <trkpt lat="42.679482" lon="0.431085">
        <ele>2482.061</ele>
        <time>2010-06-14T07:40:39Z</time>
      </trkpt>
      <trkpt lat="42.679460" lon="0.431342">
        <ele>2487.021</ele>
        <time>2010-06-14T07:40:58Z</time>
      </trkpt>
      <trkpt lat="42.679546" lon="0.431449">
        <ele>2487.013</ele>
        <time>2010-06-14T07:41:11Z</time>
      </trkpt>
      <trkpt lat="42.679610" lon="0.431728">
        <ele>2492.006</ele>
        <time>2010-06-14T07:41:31Z</time>
      </trkpt>
      <trkpt lat="42.679589" lon="0.431879">
        <ele>2498.055</ele>
        <time>2010-06-14T07:41:42Z</time>
      </trkpt>
      <trkpt lat="42.679610" lon="0.431921">
        <ele>2498.062</ele>
        <time>2010-06-14T07:41:47Z</time>
      </trkpt>
      <trkpt lat="42.679546" lon="0.432308">
        <ele>2505.089</ele>
        <time>2010-06-14T07:42:16Z</time>
      </trkpt>
      <trkpt lat="42.679567" lon="0.432329">
        <ele>2505.017</ele>
        <time>2010-06-14T07:42:19Z</time>
      </trkpt>
      <trkpt lat="42.679503" lon="0.432458">
        <ele>2511.075</ele>
        <time>2010-06-14T07:42:30Z</time>
      </trkpt>
      <trkpt lat="42.679482" lon="0.432694">
        <ele>2517.037</ele>
        <time>2010-06-14T07:42:48Z</time>
      </trkpt>
      <trkpt lat="42.679482" lon="0.432909">
        <ele>2517.075</ele>
        <time>2010-06-14T07:43:04Z</time>
      </trkpt>
      <trkpt lat="42.679439" lon="0.433080">
        <ele>2522.028</ele>
        <time>2010-06-14T07:43:16Z</time>
      </trkpt>
      <trkpt lat="42.679439" lon="0.433338">
        <ele>2528.020</ele>
        <time>2010-06-14T07:43:35Z</time>
      </trkpt>
      <trkpt lat="42.679439" lon="0.433531">
        <ele>2534.006</ele>
        <time>2010-06-14T07:43:50Z</time>
      </trkpt>
      <trkpt lat="42.679396" lon="0.433831">
        <ele>2540.026</ele>
        <time>2010-06-14T07:44:12Z</time>
      </trkpt>
      <trkpt lat="42.679417" lon="0.434239">
        <ele>2546.093</ele>
        <time>2010-06-14T07:44:42Z</time>
      </trkpt>
      <trkpt lat="42.679439" lon="0.434432">
        <ele>2552.040</ele>
        <time>2010-06-14T07:44:57Z</time>
      </trkpt>
      <trkpt lat="42.679396" lon="0.434647">
        <ele>2558.018</ele>
        <time>2010-06-14T07:45:13Z</time>
      </trkpt>
      <trkpt lat="42.679417" lon="0.434711">
        <ele>2558.026</ele>
        <time>2010-06-14T07:45:19Z</time>
      </trkpt>
      <trkpt lat="42.679417" lon="0.434968">
        <ele>2564.058</ele>
        <time>2010-06-14T07:45:38Z</time>
      </trkpt>
      <trkpt lat="42.679482" lon="0.435054">
        <ele>2564.023</ele>
        <time>2010-06-14T07:45:47Z</time>
      </trkpt>
      <trkpt lat="42.679482" lon="0.435355">
        <ele>2569.083</ele>
        <time>2010-06-14T07:46:08Z</time>
      </trkpt>
      <trkpt lat="42.679503" lon="0.435526">
        <ele>2573.011</ele>
        <time>2010-06-14T07:46:21Z</time>
      </trkpt>
      <trkpt lat="42.679482" lon="0.435762">
        <ele>2576.006</ele>
        <time>2010-06-14T07:46:39Z</time>
      </trkpt>
      <trkpt lat="42.679503" lon="0.435934">
        <ele>2576.041</ele>
        <time>2010-06-14T07:46:51Z</time>
      </trkpt>
      <trkpt lat="42.679482" lon="0.436106">
        <ele>2578.028</ele>
        <time>2010-06-14T07:47:04Z</time>
      </trkpt>
      <trkpt lat="42.679524" lon="0.436363">
        <ele>2579.085</ele>
        <time>2010-06-14T07:47:23Z</time>
      </trkpt>
      <trkpt lat="42.679310" lon="0.436428">
        <ele>2579.033</ele>
        <time>2010-06-14T07:47:45Z</time>
      </trkpt>
      <trkpt lat="42.678924" lon="0.436835">
        <ele>2574.041</ele>
        <time>2010-06-14T07:48:35Z</time>
      </trkpt>
      <trkpt lat="42.678816" lon="0.436964">
        <ele>2574.083</ele>
        <time>2010-06-14T07:48:49Z</time>
      </trkpt>
      <trkpt lat="42.678773" lon="0.437093">
        <ele>2569.069</ele>
        <time>2010-06-14T07:49:00Z</time>
      </trkpt>
      <trkpt lat="42.678688" lon="0.437200">
        <ele>2567.004</ele>
        <time>2010-06-14T07:49:11Z</time>
      </trkpt>
      <trkpt lat="42.678602" lon="0.437157">
        <ele>2567.024</ele>
        <time>2010-06-14T07:49:19Z</time>
      </trkpt>
      <trkpt lat="42.678473" lon="0.437243">
        <ele>2567.006</ele>
        <time>2010-06-14T07:49:35Z</time>
      </trkpt>
      <trkpt lat="42.678452" lon="0.437222">
        <ele>2566.015</ele>
        <time>2010-06-14T07:49:37Z</time>
      </trkpt>
      <trkpt lat="42.678301" lon="0.437136">
        <ele>2566.082</ele>
        <time>2010-06-14T07:49:53Z</time>
      </trkpt>
      <trkpt lat="42.678108" lon="0.437093">
        <ele>2564.039</ele>
        <time>2010-06-14T07:50:12Z</time>
      </trkpt>
      <trkpt lat="42.678044" lon="0.437093">
        <ele>2564.067</ele>
        <time>2010-06-14T07:50:20Z</time>
      </trkpt>
      <trkpt lat="42.678044" lon="0.437071">
        <ele>2570.045</ele>
        <time>2010-06-14T07:50:21Z</time>
      </trkpt>
      <trkpt lat="42.678065" lon="0.437071">
        <ele>2570.057</ele>
        <time>2010-06-14T07:50:23Z</time>
      </trkpt>
      <trkpt lat="42.678044" lon="0.437007">
        <ele>2570.032</ele>
        <time>2010-06-14T07:50:28Z</time>
      </trkpt>
      <trkpt lat="42.677958" lon="0.437007">
        <ele>2570.092</ele>
        <time>2010-06-14T07:50:37Z</time>
      </trkpt>
      <trkpt lat="42.677829" lon="0.437071">
        <ele>2568.011</ele>
        <time>2010-06-14T07:50:50Z</time>
      </trkpt>
      <trkpt lat="42.677679" lon="0.437222">
        <ele>2562.006</ele>
        <time>2010-06-14T07:51:09Z</time>
      </trkpt>
      <trkpt lat="42.677615" lon="0.437222">
        <ele>2562.092</ele>
        <time>2010-06-14T07:51:16Z</time>
      </trkpt>
      <trkpt lat="42.677593" lon="0.437243">
        <ele>2562.019</ele>
        <time>2010-06-14T07:51:19Z</time>
      </trkpt>
      <trkpt lat="42.677550" lon="0.437243">
        <ele>2562.066</ele>
        <time>2010-06-14T07:51:22Z</time>
      </trkpt>
      <trkpt lat="42.677400" lon="0.437393">
        <ele>2556.054</ele>
        <time>2010-06-14T07:51:41Z</time>
      </trkpt>
      <trkpt lat="42.677314" lon="0.437694">
        <ele>2554.032</ele>
        <time>2010-06-14T07:52:05Z</time>
      </trkpt>
      <trkpt lat="42.676950" lon="0.437844">
        <ele>2559.074</ele>
        <time>2010-06-14T07:52:43Z</time>
      </trkpt>
      <trkpt lat="42.676778" lon="0.437908">
        <ele>2565.055</ele>
        <time>2010-06-14T07:53:01Z</time>
      </trkpt>
      <trkpt lat="42.676671" lon="0.437973">
        <ele>2559.007</ele>
        <time>2010-06-14T07:53:13Z</time>
      </trkpt>
      <trkpt lat="42.676499" lon="0.438230">
        <ele>2564.017</ele>
        <time>2010-06-14T07:53:39Z</time>
      </trkpt>
      <trkpt lat="42.676499" lon="0.438294">
        <ele>2564.006</ele>
        <time>2010-06-14T07:53:42Z</time>
      </trkpt>
      <trkpt lat="42.676413" lon="0.438466">
        <ele>2564.074</ele>
        <time>2010-06-14T07:53:58Z</time>
      </trkpt>
      <trkpt lat="42.676413" lon="0.438573">
        <ele>2557.031</ele>
        <time>2010-06-14T07:54:06Z</time>
      </trkpt>
      <trkpt lat="42.676456" lon="0.438638">
        <ele>2557.048</ele>
        <time>2010-06-14T07:54:12Z</time>
      </trkpt>
      <trkpt lat="42.676413" lon="0.438809">
        <ele>2550.076</ele>
        <time>2010-06-14T07:54:26Z</time>
      </trkpt>
      <trkpt lat="42.676413" lon="0.438895">
        <ele>2550.034</ele>
        <time>2010-06-14T07:54:33Z</time>
      </trkpt>
      <trkpt lat="42.676477" lon="0.439045">
        <ele>2544.066</ele>
        <time>2010-06-14T07:54:44Z</time>
      </trkpt>
      <trkpt lat="42.676435" lon="0.439239">
        <ele>2544.041</ele>
        <time>2010-06-14T07:55:00Z</time>
      </trkpt>
      <trkpt lat="42.676413" lon="0.439539">
        <ele>2538.081</ele>
        <time>2010-06-14T07:55:21Z</time>
      </trkpt>
      <trkpt lat="42.676413" lon="0.439603">
        <ele>2534.009</ele>
        <time>2010-06-14T07:55:27Z</time>
      </trkpt>
      <trkpt lat="42.676456" lon="0.439947">
        <ele>2531.006</ele>
        <time>2010-06-14T07:55:53Z</time>
      </trkpt>
      <trkpt lat="42.676477" lon="0.440183">
        <ele>2530.013</ele>
        <time>2010-06-14T07:56:10Z</time>
      </trkpt>
      <trkpt lat="42.676606" lon="0.440547">
        <ele>2505.070</ele>
        <time>2010-06-14T07:56:40Z</time>
      </trkpt>
      <trkpt lat="42.676628" lon="0.440633">
        <ele>2505.057</ele>
        <time>2010-06-14T07:56:47Z</time>
      </trkpt>
      <trkpt lat="42.676735" lon="0.440848">
        <ele>2506.065</ele>
        <time>2010-06-14T07:57:06Z</time>
      </trkpt>
      <trkpt lat="42.676864" lon="0.441170">
        <ele>2482.033</ele>
        <time>2010-06-14T07:57:33Z</time>
      </trkpt>
      <trkpt lat="42.676885" lon="0.441234">
        <ele>2482.085</ele>
        <time>2010-06-14T07:57:38Z</time>
      </trkpt>
      <trkpt lat="42.676907" lon="0.441492">
        <ele>2482.068</ele>
        <time>2010-06-14T07:57:57Z</time>
      </trkpt>
      <trkpt lat="42.676950" lon="0.441663">
        <ele>2480.042</ele>
        <time>2010-06-14T07:58:09Z</time>
      </trkpt>
      <trkpt lat="42.676950" lon="0.441749">
        <ele>2480.026</ele>
        <time>2010-06-14T07:58:16Z</time>
      </trkpt>
      <trkpt lat="42.676971" lon="0.441792">
        <ele>2480.006</ele>
        <time>2010-06-14T07:58:19Z</time>
      </trkpt>
      <trkpt lat="42.676992" lon="0.442050">
        <ele>2477.075</ele>
        <time>2010-06-14T07:58:40Z</time>
      </trkpt>
      <trkpt lat="42.677035" lon="0.442221">
        <ele>2473.012</ele>
        <time>2010-06-14T07:58:52Z</time>
      </trkpt>
      <trkpt lat="42.677014" lon="0.442479">
        <ele>2470.079</ele>
        <time>2010-06-14T07:59:12Z</time>
      </trkpt>
      <trkpt lat="42.677057" lon="0.442801">
        <ele>2468.017</ele>
        <time>2010-06-14T07:59:35Z</time>
      </trkpt>
      <trkpt lat="42.677164" lon="0.442951">
        <ele>2446.055</ele>
        <time>2010-06-14T07:59:51Z</time>
      </trkpt>
      <trkpt lat="42.677207" lon="0.443037">
        <ele>2446.077</ele>
        <time>2010-06-14T07:59:58Z</time>
      </trkpt>
      <trkpt lat="42.677207" lon="0.443058">
        <ele>2446.028</ele>
        <time>2010-06-14T08:00:01Z</time>
      </trkpt>
      <trkpt lat="42.677250" lon="0.443165">
        <ele>2446.089</ele>
        <time>2010-06-14T08:00:10Z</time>
      </trkpt>
      <trkpt lat="42.677250" lon="0.443230">
        <ele>2446.017</ele>
        <time>2010-06-14T08:00:14Z</time>
      </trkpt>
      <trkpt lat="42.677293" lon="0.443444">
        <ele>2446.006</ele>
        <time>2010-06-14T08:00:31Z</time>
      </trkpt>
      <trkpt lat="42.677357" lon="0.443530">
        <ele>2447.021</ele>
        <time>2010-06-14T08:00:39Z</time>
      </trkpt>
      <trkpt lat="42.677486" lon="0.443680">
        <ele>2430.038</ele>
        <time>2010-06-14T08:00:57Z</time>
      </trkpt>
      <trkpt lat="42.677615" lon="0.443959">
        <ele>2430.055</ele>
        <time>2010-06-14T08:01:20Z</time>
      </trkpt>
      <trkpt lat="42.677765" lon="0.444217">
        <ele>2413.063</ele>
        <time>2010-06-14T08:01:44Z</time>
      </trkpt>
      <trkpt lat="42.677894" lon="0.444324">
        <ele>2412.081</ele>
        <time>2010-06-14T08:01:59Z</time>
      </trkpt>
      <trkpt lat="42.677894" lon="0.444453">
        <ele>2412.013</ele>
        <time>2010-06-14T08:02:10Z</time>
      </trkpt>
      <trkpt lat="42.678001" lon="0.444860">
        <ele>2391.031</ele>
        <time>2010-06-14T08:02:40Z</time>
      </trkpt>
      <trkpt lat="42.678022" lon="0.445118">
        <ele>2386.061</ele>
        <time>2010-06-14T08:03:01Z</time>
      </trkpt>
      <trkpt lat="42.678087" lon="0.445375">
        <ele>2382.007</ele>
        <time>2010-06-14T08:03:21Z</time>
      </trkpt>
      <trkpt lat="42.678087" lon="0.445611">
        <ele>2379.006</ele>
        <time>2010-06-14T08:03:37Z</time>
      </trkpt>
      <trkpt lat="42.678151" lon="0.446062">
        <ele>2370.012</ele>
        <time>2010-06-14T08:04:12Z</time>
      </trkpt>
      <trkpt lat="42.678344" lon="0.446212">
        <ele>2356.049</ele>
        <time>2010-06-14T08:04:33Z</time>
      </trkpt>
      <trkpt lat="42.678516" lon="0.446363">
        <ele>2345.016</ele>
        <time>2010-06-14T08:04:54Z</time>
      </trkpt>
      <trkpt lat="42.678602" lon="0.446556">
        <ele>2340.044</ele>
        <time>2010-06-14T08:05:10Z</time>
      </trkpt>
      <trkpt lat="42.678602" lon="0.446577">
        <ele>2340.012</ele>
        <time>2010-06-14T08:05:13Z</time>
      </trkpt>
      <trkpt lat="42.678580" lon="0.446641">
        <ele>2340.054</ele>
        <time>2010-06-14T08:05:18Z</time>
      </trkpt>
      <trkpt lat="42.678559" lon="0.446770">
        <ele>2340.035</ele>
        <time>2010-06-14T08:05:27Z</time>
      </trkpt>
      <trkpt lat="42.678602" lon="0.446877">
        <ele>2335.086</ele>
        <time>2010-06-14T08:05:37Z</time>
      </trkpt>
      <trkpt lat="42.678580" lon="0.447114">
        <ele>2329.014</ele>
        <time>2010-06-14T08:05:54Z</time>
      </trkpt>
      <trkpt lat="42.678580" lon="0.447156">
        <ele>2329.006</ele>
        <time>2010-06-14T08:05:57Z</time>
      </trkpt>
      <trkpt lat="42.678516" lon="0.447371">
        <ele>2323.082</ele>
        <time>2010-06-14T08:06:13Z</time>
      </trkpt>
      <trkpt lat="42.678516" lon="0.447457">
        <ele>2323.019</ele>
        <time>2010-06-14T08:06:20Z</time>
      </trkpt>
      <trkpt lat="42.678409" lon="0.447543">
        <ele>2329.036</ele>
        <time>2010-06-14T08:06:32Z</time>
      </trkpt>
      <trkpt lat="42.678323" lon="0.447650">
        <ele>2322.014</ele>
        <time>2010-06-14T08:06:45Z</time>
      </trkpt>
      <trkpt lat="42.678258" lon="0.447843">
        <ele>2322.092</ele>
        <time>2010-06-14T08:07:00Z</time>
      </trkpt>
      <trkpt lat="42.678258" lon="0.447929">
        <ele>2316.034</ele>
        <time>2010-06-14T08:07:07Z</time>
      </trkpt>
      <trkpt lat="42.678216" lon="0.448058">
        <ele>2316.042</ele>
        <time>2010-06-14T08:07:17Z</time>
      </trkpt>
      <trkpt lat="42.678258" lon="0.448186">
        <ele>2316.022</ele>
        <time>2010-06-14T08:07:27Z</time>
      </trkpt>
      <trkpt lat="42.678323" lon="0.448208">
        <ele>2310.014</ele>
        <time>2010-06-14T08:07:33Z</time>
      </trkpt>
      <trkpt lat="42.678323" lon="0.448272">
        <ele>2310.006</ele>
        <time>2010-06-14T08:07:39Z</time>
      </trkpt>
      <trkpt lat="42.678366" lon="0.448380">
        <ele>2310.023</ele>
        <time>2010-06-14T08:07:47Z</time>
      </trkpt>
      <trkpt lat="42.678387" lon="0.448508">
        <ele>2305.030</ele>
        <time>2010-06-14T08:07:57Z</time>
      </trkpt>
      <trkpt lat="42.678366" lon="0.448680">
        <ele>2305.027</ele>
        <time>2010-06-14T08:08:10Z</time>
      </trkpt>
      <trkpt lat="42.678387" lon="0.448701">
        <ele>2305.055</ele>
        <time>2010-06-14T08:08:13Z</time>
      </trkpt>
      <trkpt lat="42.678387" lon="0.448852">
        <ele>2298.033</ele>
        <time>2010-06-14T08:08:24Z</time>
      </trkpt>
      <trkpt lat="42.678323" lon="0.449259">
        <ele>2290.025</ele>
        <time>2010-06-14T08:08:54Z</time>
      </trkpt>
      <trkpt lat="42.678323" lon="0.449409">
        <ele>2280.055</ele>
        <time>2010-06-14T08:09:05Z</time>
      </trkpt>
      <trkpt lat="42.678237" lon="0.449796">
        <ele>2269.007</ele>
        <time>2010-06-14T08:09:34Z</time>
      </trkpt>
      <trkpt lat="42.678151" lon="0.450096">
        <ele>2268.017</ele>
        <time>2010-06-14T08:09:59Z</time>
      </trkpt>
      <trkpt lat="42.678130" lon="0.450289">
        <ele>2257.006</ele>
        <time>2010-06-14T08:10:12Z</time>
      </trkpt>
      <trkpt lat="42.678065" lon="0.450547">
        <ele>2248.044</ele>
        <time>2010-06-14T08:10:33Z</time>
      </trkpt>
      <trkpt lat="42.677979" lon="0.450912">
        <ele>2239.061</ele>
        <time>2010-06-14T08:11:02Z</time>
      </trkpt>
      <trkpt lat="42.677915" lon="0.451062">
        <ele>2242.058</ele>
        <time>2010-06-14T08:11:13Z</time>
      </trkpt>
      <trkpt lat="42.677894" lon="0.451169">
        <ele>2242.026</ele>
        <time>2010-06-14T08:11:22Z</time>
      </trkpt>
      <trkpt lat="42.677915" lon="0.451255">
        <ele>2236.074</ele>
        <time>2010-06-14T08:11:29Z</time>
      </trkpt>
      <trkpt lat="42.677894" lon="0.451469">
        <ele>2236.066</ele>
        <time>2010-06-14T08:11:45Z</time>
      </trkpt>
      <trkpt lat="42.677937" lon="0.451663">
        <ele>2218.026</ele>
        <time>2010-06-14T08:12:00Z</time>
      </trkpt>
      <trkpt lat="42.678001" lon="0.451856">
        <ele>2212.047</ele>
        <time>2010-06-14T08:12:16Z</time>
      </trkpt>
      <trkpt lat="42.678044" lon="0.451877">
        <ele>2212.011</ele>
        <time>2010-06-14T08:12:20Z</time>
      </trkpt>
      <trkpt lat="42.678173" lon="0.452092">
        <ele>2206.006</ele>
        <time>2010-06-14T08:12:40Z</time>
      </trkpt>
      <trkpt lat="42.678258" lon="0.452285">
        <ele>2199.041</ele>
        <time>2010-06-14T08:12:56Z</time>
      </trkpt>
      <trkpt lat="42.678387" lon="0.452371">
        <ele>2193.038</ele>
        <time>2010-06-14T08:13:12Z</time>
      </trkpt>
      <trkpt lat="42.678473" lon="0.452585">
        <ele>2191.055</ele>
        <time>2010-06-14T08:13:29Z</time>
      </trkpt>
      <trkpt lat="42.678494" lon="0.452886">
        <ele>2184.023</ele>
        <time>2010-06-14T08:13:52Z</time>
      </trkpt>
      <trkpt lat="42.678559" lon="0.453186">
        <ele>2178.061</ele>
        <time>2010-06-14T08:14:14Z</time>
      </trkpt>
      <trkpt lat="42.678580" lon="0.453208">
        <ele>2173.093</ele>
        <time>2010-06-14T08:14:17Z</time>
      </trkpt>
      <trkpt lat="42.678580" lon="0.453293">
        <ele>2173.025</ele>
        <time>2010-06-14T08:14:24Z</time>
      </trkpt>
      <trkpt lat="42.678623" lon="0.453486">
        <ele>2169.026</ele>
        <time>2010-06-14T08:14:38Z</time>
      </trkpt>
      <trkpt lat="42.678623" lon="0.453894">
        <ele>2165.008</ele>
        <time>2010-06-14T08:15:08Z</time>
      </trkpt>
      <trkpt lat="42.678580" lon="0.454023">
        <ele>2165.006</ele>
        <time>2010-06-14T08:15:18Z</time>
      </trkpt>
      <trkpt lat="42.678602" lon="0.454130">
        <ele>2161.031</ele>
        <time>2010-06-14T08:15:27Z</time>
      </trkpt>
      <trkpt lat="42.678666" lon="0.454366">
        <ele>2157.068</ele>
        <time>2010-06-14T08:15:46Z</time>
      </trkpt>
      <trkpt lat="42.678666" lon="0.454388">
        <ele>2157.015</ele>
        <time>2010-06-14T08:15:47Z</time>
      </trkpt>
      <trkpt lat="42.678730" lon="0.454645">
        <ele>2153.093</ele>
        <time>2010-06-14T08:16:07Z</time>
      </trkpt>
      <trkpt lat="42.678688" lon="0.454710">
        <ele>2153.041</ele>
        <time>2010-06-14T08:16:14Z</time>
      </trkpt>
      <trkpt lat="42.678666" lon="0.454731">
        <ele>2153.013</ele>
        <time>2010-06-14T08:16:15Z</time>
      </trkpt>
      <trkpt lat="42.678623" lon="0.454817">
        <ele>2153.079</ele>
        <time>2010-06-14T08:16:23Z</time>
      </trkpt>
      <trkpt lat="42.678623" lon="0.454860">
        <ele>2153.005</ele>
        <time>2010-06-14T08:16:26Z</time>
      </trkpt>
      <trkpt lat="42.678688" lon="0.455074">
        <ele>2150.025</ele>
        <time>2010-06-14T08:16:44Z</time>
      </trkpt>
      <trkpt lat="42.678688" lon="0.455246">
        <ele>2148.006</ele>
        <time>2010-06-14T08:16:57Z</time>
      </trkpt>
      <trkpt lat="42.678623" lon="0.455375">
        <ele>2148.096</ele>
        <time>2010-06-14T08:17:08Z</time>
      </trkpt>
      <trkpt lat="42.678773" lon="0.455568">
        <ele>2140.013</ele>
        <time>2010-06-14T08:17:28Z</time>
      </trkpt>
      <trkpt lat="42.678902" lon="0.455804">
        <ele>2137.070</ele>
        <time>2010-06-14T08:17:51Z</time>
      </trkpt>
      <trkpt lat="42.679095" lon="0.456383">
        <ele>2125.038</ele>
        <time>2010-06-14T08:18:37Z</time>
      </trkpt>
      <trkpt lat="42.679181" lon="0.456877">
        <ele>2114.046</ele>
        <time>2010-06-14T08:19:15Z</time>
      </trkpt>
      <trkpt lat="42.679288" lon="0.457327">
        <ele>2109.048</ele>
        <time>2010-06-14T08:19:48Z</time>
      </trkpt>
      <trkpt lat="42.679310" lon="0.457478">
        <ele>2104.099</ele>
        <time>2010-06-14T08:20:01Z</time>
      </trkpt>
      <trkpt lat="42.679417" lon="0.457735">
        <ele>2099.007</ele>
        <time>2010-06-14T08:20:22Z</time>
      </trkpt>
      <trkpt lat="42.679460" lon="0.458100">
        <ele>2095.027</ele>
        <time>2010-06-14T08:20:49Z</time>
      </trkpt>
      <trkpt lat="42.679353" lon="0.458357">
        <ele>2091.006</ele>
        <time>2010-06-14T08:21:11Z</time>
      </trkpt>
      <trkpt lat="42.679331" lon="0.458701">
        <ele>2087.088</ele>
        <time>2010-06-14T08:21:37Z</time>
      </trkpt>
      <trkpt lat="42.679353" lon="0.458744">
        <ele>2087.055</ele>
        <time>2010-06-14T08:21:40Z</time>
      </trkpt>
      <trkpt lat="42.679353" lon="0.458679">
        <ele>2087.032</ele>
        <time>2010-06-14T08:21:45Z</time>
      </trkpt>
      <trkpt lat="42.679310" lon="0.458872">
        <ele>2084.020</ele>
        <time>2010-06-14T08:21:59Z</time>
      </trkpt>
      <trkpt lat="42.679310" lon="0.458958">
        <ele>2084.078</ele>
        <time>2010-06-14T08:22:07Z</time>
      </trkpt>
      <trkpt lat="42.679331" lon="0.459044">
        <ele>2082.050</ele>
        <time>2010-06-14T08:22:12Z</time>
      </trkpt>
      <trkpt lat="42.679374" lon="0.459108">
        <ele>2082.099</ele>
        <time>2010-06-14T08:22:20Z</time>
      </trkpt>
      <trkpt lat="42.679482" lon="0.459194">
        <ele>2082.007</ele>
        <time>2010-06-14T08:22:31Z</time>
      </trkpt>
      <trkpt lat="42.679524" lon="0.459173">
        <ele>2082.027</ele>
        <time>2010-06-14T08:22:37Z</time>
      </trkpt>
      <trkpt lat="42.679546" lon="0.459344">
        <ele>2079.006</ele>
        <time>2010-06-14T08:22:48Z</time>
      </trkpt>
      <trkpt lat="42.679503" lon="0.459666">
        <ele>2077.078</ele>
        <time>2010-06-14T08:23:14Z</time>
      </trkpt>
      <trkpt lat="42.679482" lon="0.459709">
        <ele>2077.055</ele>
        <time>2010-06-14T08:23:17Z</time>
      </trkpt>
      <trkpt lat="42.679460" lon="0.459731">
        <ele>2077.092</ele>
        <time>2010-06-14T08:23:20Z</time>
      </trkpt>
      <trkpt lat="42.679482" lon="0.460095">
        <ele>2075.030</ele>
        <time>2010-06-14T08:23:47Z</time>
      </trkpt>
      <trkpt lat="42.679439" lon="0.460460">
        <ele>2071.038</ele>
        <time>2010-06-14T08:24:13Z</time>
      </trkpt>
      <trkpt lat="42.679417" lon="0.460525">
        <ele>2071.010</ele>
        <time>2010-06-14T08:24:19Z</time>
      </trkpt>
      <trkpt lat="42.679503" lon="0.460804">
        <ele>2069.064</ele>
        <time>2010-06-14T08:24:41Z</time>
      </trkpt>
      <trkpt lat="42.679503" lon="0.461104">
        <ele>2068.006</ele>
        <time>2010-06-14T08:25:04Z</time>
      </trkpt>
      <trkpt lat="42.679567" lon="0.461404">
        <ele>2066.016</ele>
        <time>2010-06-14T08:25:26Z</time>
      </trkpt>
      <trkpt lat="42.679567" lon="0.461662">
        <ele>2063.006</ele>
        <time>2010-06-14T08:25:45Z</time>
      </trkpt>
      <trkpt lat="42.679439" lon="0.461833">
        <ele>2059.025</ele>
        <time>2010-06-14T08:26:04Z</time>
      </trkpt>
      <trkpt lat="42.679396" lon="0.462220">
        <ele>2055.092</ele>
        <time>2010-06-14T08:26:31Z</time>
      </trkpt>
      <trkpt lat="42.679396" lon="0.462906">
        <ele>2048.089</ele>
        <time>2010-06-14T08:27:22Z</time>
      </trkpt>
      <trkpt lat="42.679439" lon="0.463164">
        <ele>2046.027</ele>
        <time>2010-06-14T08:27:41Z</time>
      </trkpt>
      <trkpt lat="42.679396" lon="0.463572">
        <ele>2040.015</ele>
        <time>2010-06-14T08:28:13Z</time>
      </trkpt>
      <trkpt lat="42.679396" lon="0.463679">
        <ele>2040.067</ele>
        <time>2010-06-14T08:28:21Z</time>
      </trkpt>
      <trkpt lat="42.679460" lon="0.463893">
        <ele>2037.091</ele>
        <time>2010-06-14T08:28:37Z</time>
      </trkpt>
      <trkpt lat="42.679417" lon="0.464129">
        <ele>2034.081</ele>
        <time>2010-06-14T08:28:55Z</time>
      </trkpt>
      <trkpt lat="42.679417" lon="0.464301">
        <ele>2034.019</ele>
        <time>2010-06-14T08:29:07Z</time>
      </trkpt>
      <trkpt lat="42.679331" lon="0.464580">
        <ele>2029.006</ele>
        <time>2010-06-14T08:29:30Z</time>
      </trkpt>
      <trkpt lat="42.679310" lon="0.464709">
        <ele>2024.068</ele>
        <time>2010-06-14T08:29:39Z</time>
      </trkpt>
      <trkpt lat="42.679310" lon="0.464838">
        <ele>2024.075</ele>
        <time>2010-06-14T08:29:50Z</time>
      </trkpt>
      <trkpt lat="42.679353" lon="0.464923">
        <ele>2018.012</ele>
        <time>2010-06-14T08:29:57Z</time>
      </trkpt>
      <trkpt lat="42.679353" lon="0.464988">
        <ele>2018.070</ele>
        <time>2010-06-14T08:30:01Z</time>
      </trkpt>
      <trkpt lat="42.679396" lon="0.465159">
        <ele>2011.018</ele>
        <time>2010-06-14T08:30:14Z</time>
      </trkpt>
      <trkpt lat="42.679374" lon="0.465267">
        <ele>2011.010</ele>
        <time>2010-06-14T08:30:22Z</time>
      </trkpt>
      <trkpt lat="42.679396" lon="0.465353">
        <ele>2011.018</ele>
        <time>2010-06-14T08:30:30Z</time>
      </trkpt>
      <trkpt lat="42.679396" lon="0.465395">
        <ele>2011.098</ele>
        <time>2010-06-14T08:30:33Z</time>
      </trkpt>
      <trkpt lat="42.679331" lon="0.465631">
        <ele>2004.017</ele>
        <time>2010-06-14T08:30:51Z</time>
      </trkpt>
      <trkpt lat="42.679396" lon="0.465782">
        <ele>1997.006</ele>
        <time>2010-06-14T08:31:05Z</time>
      </trkpt>
      <trkpt lat="42.679396" lon="0.466082">
        <ele>1992.030</ele>
        <time>2010-06-14T08:31:26Z</time>
      </trkpt>
      <trkpt lat="42.679353" lon="0.466425">
        <ele>1987.077</ele>
        <time>2010-06-14T08:31:51Z</time>
      </trkpt>
      <trkpt lat="42.679353" lon="0.466940">
        <ele>1977.094</ele>
        <time>2010-06-14T08:32:29Z</time>
      </trkpt>
      <trkpt lat="42.679331" lon="0.466983">
        <ele>1977.012</ele>
        <time>2010-06-14T08:32:34Z</time>
      </trkpt>
      <trkpt lat="42.679138" lon="0.467219">
        <ele>1966.020</ele>
        <time>2010-06-14T08:33:00Z</time>
      </trkpt>
      <trkpt lat="42.679095" lon="0.467348">
        <ele>1966.082</ele>
        <time>2010-06-14T08:33:09Z</time>
      </trkpt>
      <trkpt lat="42.679117" lon="0.467412">
        <ele>1960.055</ele>
        <time>2010-06-14T08:33:16Z</time>
      </trkpt>
      <trkpt lat="42.679138" lon="0.467412">
        <ele>1960.007</ele>
        <time>2010-06-14T08:33:17Z</time>
      </trkpt>
      <trkpt lat="42.679181" lon="0.467498">
        <ele>1960.017</ele>
        <time>2010-06-14T08:33:25Z</time>
      </trkpt>
      <trkpt lat="42.679160" lon="0.467649">
        <ele>1955.006</ele>
        <time>2010-06-14T08:33:36Z</time>
      </trkpt>
      <trkpt lat="42.679052" lon="0.467691">
        <ele>1955.054</ele>
        <time>2010-06-14T08:33:47Z</time>
      </trkpt>
      <trkpt lat="42.678988" lon="0.467885">
        <ele>1951.061</ele>
        <time>2010-06-14T08:34:03Z</time>
      </trkpt>
      <trkpt lat="42.678795" lon="0.467949">
        <ele>1946.038</ele>
        <time>2010-06-14T08:34:22Z</time>
      </trkpt>
      <trkpt lat="42.678752" lon="0.468035">
        <ele>1946.046</ele>
        <time>2010-06-14T08:34:30Z</time>
      </trkpt>
      <trkpt lat="42.678838" lon="0.468142">
        <ele>1946.084</ele>
        <time>2010-06-14T08:34:43Z</time>
      </trkpt>
      <trkpt lat="42.678838" lon="0.468185">
        <ele>1946.086</ele>
        <time>2010-06-14T08:34:46Z</time>
      </trkpt>
      <trkpt lat="42.678795" lon="0.468357">
        <ele>1943.041</ele>
        <time>2010-06-14T08:34:59Z</time>
      </trkpt>
      <trkpt lat="42.678881" lon="0.468464">
        <ele>1943.081</ele>
        <time>2010-06-14T08:35:10Z</time>
      </trkpt>
      <trkpt lat="42.678902" lon="0.468528">
        <ele>1941.009</ele>
        <time>2010-06-14T08:35:15Z</time>
      </trkpt>
      <trkpt lat="42.678645" lon="0.468593">
        <ele>1937.006</ele>
        <time>2010-06-14T08:35:42Z</time>
      </trkpt>
      <trkpt lat="42.678409" lon="0.468743">
        <ele>1935.053</ele>
        <time>2010-06-14T08:36:08Z</time>
      </trkpt>
      <trkpt lat="42.678430" lon="0.468829">
        <ele>1933.090</ele>
        <time>2010-06-14T08:36:15Z</time>
      </trkpt>
      <trkpt lat="42.678516" lon="0.469344">
        <ele>1934.087</ele>
        <time>2010-06-14T08:36:54Z</time>
      </trkpt>
      <trkpt lat="42.678516" lon="0.469430">
        <ele>1934.045</ele>
        <time>2010-06-14T08:37:00Z</time>
      </trkpt>
      <trkpt lat="42.678430" lon="0.469644">
        <ele>1928.023</ele>
        <time>2010-06-14T08:37:18Z</time>
      </trkpt>
      <trkpt lat="42.678323" lon="0.470052">
        <ele>1927.055</ele>
        <time>2010-06-14T08:37:49Z</time>
      </trkpt>
      <trkpt lat="42.678108" lon="0.470481">
        <ele>1917.092</ele>
        <time>2010-06-14T08:38:28Z</time>
      </trkpt>
      <trkpt lat="42.678022" lon="0.470545">
        <ele>1917.073</ele>
        <time>2010-06-14T08:38:37Z</time>
      </trkpt>
      <trkpt lat="42.677808" lon="0.470953">
        <ele>1909.020</ele>
        <time>2010-06-14T08:39:14Z</time>
      </trkpt>
      <trkpt lat="42.677765" lon="0.471146">
        <ele>1908.006</ele>
        <time>2010-06-14T08:39:30Z</time>
      </trkpt>
      <trkpt lat="42.677765" lon="0.471168">
        <ele>1908.098</ele>
        <time>2010-06-14T08:39:30Z</time>
      </trkpt>
      <trkpt lat="42.677636" lon="0.471575">
        <ele>1902.075</ele>
        <time>2010-06-14T08:40:03Z</time>
      </trkpt>
      <trkpt lat="42.677357" lon="0.472348">
        <ele>1899.022</ele>
        <time>2010-06-14T08:41:07Z</time>
      </trkpt>
      <trkpt lat="42.677357" lon="0.472412">
        <ele>1901.020</ele>
        <time>2010-06-14T08:41:12Z</time>
      </trkpt>
      <trkpt lat="42.677207" lon="0.472734">
        <ele>1904.098</ele>
        <time>2010-06-14T08:41:40Z</time>
      </trkpt>
      <trkpt lat="42.677143" lon="0.473013">
        <ele>1908.070</ele>
        <time>2010-06-14T08:42:02Z</time>
      </trkpt>
      <trkpt lat="42.677057" lon="0.473185">
        <ele>1898.084</ele>
        <time>2010-06-14T08:42:17Z</time>
      </trkpt>
      <trkpt lat="42.676907" lon="0.473721">
        <ele>1905.007</ele>
        <time>2010-06-14T08:42:58Z</time>
      </trkpt>
      <trkpt lat="42.676885" lon="0.473914">
        <ele>1907.017</ele>
        <time>2010-06-14T08:43:13Z</time>
      </trkpt>
      <trkpt lat="42.676606" lon="0.474558">
        <ele>1902.006</ele>
        <time>2010-06-14T08:44:07Z</time>
      </trkpt>
      <trkpt lat="42.676435" lon="0.475009">
        <ele>1900.057</ele>
        <time>2010-06-14T08:44:45Z</time>
      </trkpt>
      <trkpt lat="42.676370" lon="0.475373">
        <ele>1904.014</ele>
        <time>2010-06-14T08:45:13Z</time>
      </trkpt>
      <trkpt lat="42.676284" lon="0.476124">
        <ele>1915.051</ele>
        <time>2010-06-14T08:46:08Z</time>
      </trkpt>
      <trkpt lat="42.676220" lon="0.476961">
        <ele>1903.049</ele>
        <time>2010-06-14T08:47:11Z</time>
      </trkpt>
      <trkpt lat="42.676177" lon="0.477090">
        <ele>1904.017</ele>
        <time>2010-06-14T08:47:21Z</time>
      </trkpt>
      <trkpt lat="42.676241" lon="0.477390">
        <ele>1905.039</ele>
        <time>2010-06-14T08:47:45Z</time>
      </trkpt>
      <trkpt lat="42.676241" lon="0.477455">
        <ele>1905.071</ele>
        <time>2010-06-14T08:47:49Z</time>
      </trkpt>
      <trkpt lat="42.676134" lon="0.477948">
        <ele>1908.041</ele>
        <time>2010-06-14T08:48:26Z</time>
      </trkpt>
      <trkpt lat="42.676091" lon="0.478420">
        <ele>1910.015</ele>
        <time>2010-06-14T08:49:01Z</time>
      </trkpt>
      <trkpt lat="42.676134" lon="0.479021">
        <ele>1912.006</ele>
        <time>2010-06-14T08:49:47Z</time>
      </trkpt>
      <trkpt lat="42.676048" lon="0.479364">
        <ele>1913.096</ele>
        <time>2010-06-14T08:50:13Z</time>
      </trkpt>
      <trkpt lat="42.676027" lon="0.479944">
        <ele>1913.043</ele>
        <time>2010-06-14T08:50:56Z</time>
      </trkpt>
      <trkpt lat="42.675962" lon="0.480201">
        <ele>1893.010</ele>
        <time>2010-06-14T08:51:16Z</time>
      </trkpt>
      <trkpt lat="42.675941" lon="0.480437">
        <ele>1893.038</ele>
        <time>2010-06-14T08:51:32Z</time>
      </trkpt>
      <trkpt lat="42.675962" lon="0.480545">
        <ele>1893.086</ele>
        <time>2010-06-14T08:51:42Z</time>
      </trkpt>
      <trkpt lat="42.675962" lon="0.480866">
        <ele>1893.028</ele>
        <time>2010-06-14T08:52:04Z</time>
      </trkpt>
      <trkpt lat="42.675920" lon="0.481768">
        <ele>1895.064</ele>
        <time>2010-06-14T08:53:11Z</time>
      </trkpt>
      <trkpt lat="42.675920" lon="0.482669">
        <ele>1898.006</ele>
        <time>2010-06-14T08:54:18Z</time>
      </trkpt>
      <trkpt lat="42.675791" lon="0.483570">
        <ele>1899.016</ele>
        <time>2010-06-14T08:55:25Z</time>
      </trkpt>
      <trkpt lat="42.675684" lon="0.483634">
        <ele>1879.006</ele>
        <time>2010-06-14T08:55:36Z</time>
      </trkpt>
      <trkpt lat="42.675641" lon="0.483828">
        <ele>1880.045</ele>
        <time>2010-06-14T08:55:52Z</time>
      </trkpt>
      <trkpt lat="42.675598" lon="0.484622">
        <ele>1881.042</ele>
        <time>2010-06-14T08:56:51Z</time>
      </trkpt>
      <trkpt lat="42.675641" lon="0.484986">
        <ele>1880.069</ele>
        <time>2010-06-14T08:57:18Z</time>
      </trkpt>
      <trkpt lat="42.675555" lon="0.485287">
        <ele>1879.077</ele>
        <time>2010-06-14T08:57:42Z</time>
      </trkpt>
      <trkpt lat="42.675340" lon="0.485630">
        <ele>1866.075</ele>
        <time>2010-06-14T08:58:14Z</time>
      </trkpt>
      <trkpt lat="42.675469" lon="0.485673">
        <ele>1877.037</ele>
        <time>2010-06-14T08:58:28Z</time>
      </trkpt>
      <trkpt lat="42.675469" lon="0.485759">
        <ele>1875.063</ele>
        <time>2010-06-14T08:58:33Z</time>
      </trkpt>
      <trkpt lat="42.675405" lon="0.485780">
        <ele>1865.044</ele>
        <time>2010-06-14T08:58:41Z</time>
      </trkpt>
      <trkpt lat="42.675405" lon="0.485737">
        <ele>1865.018</ele>
        <time>2010-06-14T08:58:44Z</time>
      </trkpt>
      <trkpt lat="42.675276" lon="0.485330">
        <ele>1867.006</ele>
        <time>2010-06-14T08:59:17Z</time>
      </trkpt>
      <trkpt lat="42.675233" lon="0.485394">
        <ele>1867.085</ele>
        <time>2010-06-14T08:59:22Z</time>
      </trkpt>
      <trkpt lat="42.675104" lon="0.485930">
        <ele>1857.062</ele>
        <time>2010-06-14T09:00:05Z</time>
      </trkpt>
      <trkpt lat="42.675147" lon="0.486145">
        <ele>1864.099</ele>
        <time>2010-06-14T09:00:21Z</time>
      </trkpt>
      <trkpt lat="42.675018" lon="0.486317">
        <ele>1856.037</ele>
        <time>2010-06-14T09:00:39Z</time>
      </trkpt>
      <trkpt lat="42.674975" lon="0.486274">
        <ele>1856.025</ele>
        <time>2010-06-14T09:00:45Z</time>
      </trkpt>
      <trkpt lat="42.674997" lon="0.486295">
        <ele>1856.037</ele>
        <time>2010-06-14T09:00:47Z</time>
      </trkpt>
      <trkpt lat="42.675040" lon="0.486295">
        <ele>1856.055</ele>
        <time>2010-06-14T09:00:51Z</time>
      </trkpt>
      <trkpt lat="42.675061" lon="0.486317">
        <ele>1856.007</ele>
        <time>2010-06-14T09:00:53Z</time>
      </trkpt>
      <trkpt lat="42.675276" lon="0.486403">
        <ele>1862.017</ele>
        <time>2010-06-14T09:01:17Z</time>
      </trkpt>
      <trkpt lat="42.675340" lon="0.486467">
        <ele>1862.006</ele>
        <time>2010-06-14T09:01:25Z</time>
      </trkpt>
      <trkpt lat="42.675340" lon="0.486789">
        <ele>1861.054</ele>
        <time>2010-06-14T09:01:47Z</time>
      </trkpt>
      <trkpt lat="42.675297" lon="0.487046">
        <ele>1861.031</ele>
        <time>2010-06-14T09:02:08Z</time>
      </trkpt>
      <trkpt lat="42.675169" lon="0.487304">
        <ele>1860.018</ele>
        <time>2010-06-14T09:02:31Z</time>
      </trkpt>
      <trkpt lat="42.675083" lon="0.487947">
        <ele>1855.056</ele>
        <time>2010-06-14T09:03:19Z</time>
      </trkpt>
      <trkpt lat="42.675061" lon="0.488312">
        <ele>1856.094</ele>
        <time>2010-06-14T09:03:45Z</time>
      </trkpt>
      <trkpt lat="42.675104" lon="0.488677">
        <ele>1856.046</ele>
        <time>2010-06-14T09:04:13Z</time>
      </trkpt>
      <trkpt lat="42.675061" lon="0.488956">
        <ele>1857.066</ele>
        <time>2010-06-14T09:04:34Z</time>
      </trkpt>
      <trkpt lat="42.674911" lon="0.489428">
        <ele>1858.029</ele>
        <time>2010-06-14T09:05:11Z</time>
      </trkpt>
      <trkpt lat="42.674911" lon="0.489664">
        <ele>1859.021</ele>
        <time>2010-06-14T09:05:28Z</time>
      </trkpt>
      <trkpt lat="42.674632" lon="0.490243">
        <ele>1856.006</ele>
        <time>2010-06-14T09:06:19Z</time>
      </trkpt>
      <trkpt lat="42.674589" lon="0.490394">
        <ele>1856.065</ele>
        <time>2010-06-14T09:06:32Z</time>
      </trkpt>
      <trkpt lat="42.674525" lon="0.490458">
        <ele>1852.042</ele>
        <time>2010-06-14T09:06:40Z</time>
      </trkpt>
      <trkpt lat="42.674375" lon="0.490780">
        <ele>1852.099</ele>
        <time>2010-06-14T09:07:08Z</time>
      </trkpt>
      <trkpt lat="42.674289" lon="0.491102">
        <ele>1848.047</ele>
        <time>2010-06-14T09:07:32Z</time>
      </trkpt>
      <trkpt lat="42.674203" lon="0.491960">
        <ele>1848.065</ele>
        <time>2010-06-14T09:08:36Z</time>
      </trkpt>
      <trkpt lat="42.674117" lon="0.492346">
        <ele>1847.097</ele>
        <time>2010-06-14T09:09:06Z</time>
      </trkpt>
      <trkpt lat="42.673924" lon="0.493119">
        <ele>1832.088</ele>
        <time>2010-06-14T09:10:05Z</time>
      </trkpt>
      <trkpt lat="42.673903" lon="0.493097">
        <ele>1832.024</ele>
        <time>2010-06-14T09:10:08Z</time>
      </trkpt>
      <trkpt lat="42.673924" lon="0.492883">
        <ele>1835.026</ele>
        <time>2010-06-14T09:10:24Z</time>
      </trkpt>
      <trkpt lat="42.673903" lon="0.492432">
        <ele>1838.006</ele>
        <time>2010-06-14T09:10:58Z</time>
      </trkpt>
      <trkpt lat="42.673817" lon="0.492218">
        <ele>1840.047</ele>
        <time>2010-06-14T09:11:15Z</time>
      </trkpt>
      <trkpt lat="42.673688" lon="0.492733">
        <ele>1827.074</ele>
        <time>2010-06-14T09:11:55Z</time>
      </trkpt>
      <trkpt lat="42.673688" lon="0.492775">
        <ele>1827.031</ele>
        <time>2010-06-14T09:11:58Z</time>
      </trkpt>
      <trkpt lat="42.673516" lon="0.493526">
        <ele>1818.069</ele>
        <time>2010-06-14T09:12:57Z</time>
      </trkpt>
      <trkpt lat="42.673430" lon="0.493741">
        <ele>1813.087</ele>
        <time>2010-06-14T09:13:15Z</time>
      </trkpt>
      <trkpt lat="42.673430" lon="0.493763">
        <ele>1811.019</ele>
        <time>2010-06-14T09:13:16Z</time>
      </trkpt>
      <trkpt lat="42.673366" lon="0.493827">
        <ele>1811.055</ele>
        <time>2010-06-14T09:13:24Z</time>
      </trkpt>
      <trkpt lat="42.673302" lon="0.494449">
        <ele>1808.007</ele>
        <time>2010-06-14T09:14:10Z</time>
      </trkpt>
      <trkpt lat="42.673259" lon="0.495093">
        <ele>1808.017</ele>
        <time>2010-06-14T09:14:58Z</time>
      </trkpt>
      <trkpt lat="42.673173" lon="0.495415">
        <ele>1801.006</ele>
        <time>2010-06-14T09:15:24Z</time>
      </trkpt>
      <trkpt lat="42.673151" lon="0.495758">
        <ele>1801.094</ele>
        <time>2010-06-14T09:15:49Z</time>
      </trkpt>
      <trkpt lat="42.672915" lon="0.496659">
        <ele>1797.071</ele>
        <time>2010-06-14T09:16:59Z</time>
      </trkpt>
      <trkpt lat="42.672722" lon="0.497153">
        <ele>1802.068</ele>
        <time>2010-06-14T09:17:41Z</time>
      </trkpt>
      <trkpt lat="42.672637" lon="0.497646">
        <ele>1793.016</ele>
        <time>2010-06-14T09:18:17Z</time>
      </trkpt>
      <trkpt lat="42.672315" lon="0.498548">
        <ele>1789.024</ele>
        <time>2010-06-14T09:19:32Z</time>
      </trkpt>
      <trkpt lat="42.672122" lon="0.499256">
        <ele>1789.016</ele>
        <time>2010-06-14T09:20:26Z</time>
      </trkpt>
      <trkpt lat="42.672100" lon="0.499299">
        <ele>1789.073</ele>
        <time>2010-06-14T09:20:31Z</time>
      </trkpt>
      <trkpt lat="42.672036" lon="0.499663">
        <ele>1783.085</ele>
        <time>2010-06-14T09:20:59Z</time>
      </trkpt>
      <trkpt lat="42.671843" lon="0.500457">
        <ele>1783.013</ele>
        <time>2010-06-14T09:22:00Z</time>
      </trkpt>
      <trkpt lat="42.671735" lon="0.501466">
        <ele>1780.006</ele>
        <time>2010-06-14T09:23:15Z</time>
      </trkpt>
      <trkpt lat="42.671564" lon="0.502002">
        <ele>1784.026</ele>
        <time>2010-06-14T09:23:58Z</time>
      </trkpt>
      <trkpt lat="42.671392" lon="0.502968">
        <ele>1786.083</ele>
        <time>2010-06-14T09:25:11Z</time>
      </trkpt>
      <trkpt lat="42.671306" lon="0.503740">
        <ele>1790.090</ele>
        <time>2010-06-14T09:26:08Z</time>
      </trkpt>
      <trkpt lat="42.671242" lon="0.504169">
        <ele>1784.098</ele>
        <time>2010-06-14T09:26:40Z</time>
      </trkpt>
      <trkpt lat="42.670963" lon="0.504835">
        <ele>1778.096</ele>
        <time>2010-06-14T09:27:37Z</time>
      </trkpt>
      <trkpt lat="42.670941" lon="0.504856">
        <ele>1778.018</ele>
        <time>2010-06-14T09:27:39Z</time>
      </trkpt>
      <trkpt lat="42.670856" lon="0.504577">
        <ele>1780.062</ele>
        <time>2010-06-14T09:28:01Z</time>
      </trkpt>
      <trkpt lat="42.670813" lon="0.504556">
        <ele>1780.083</ele>
        <time>2010-06-14T09:28:06Z</time>
      </trkpt>
      <trkpt lat="42.670813" lon="0.504642">
        <ele>1778.011</ele>
        <time>2010-06-14T09:28:13Z</time>
      </trkpt>
      <trkpt lat="42.670748" lon="0.504985">
        <ele>1776.006</ele>
        <time>2010-06-14T09:28:38Z</time>
      </trkpt>
      <trkpt lat="42.670619" lon="0.505264">
        <ele>1772.025</ele>
        <time>2010-06-14T09:29:03Z</time>
      </trkpt>
      <trkpt lat="42.670319" lon="0.505843">
        <ele>1766.042</ele>
        <time>2010-06-14T09:29:56Z</time>
      </trkpt>
      <trkpt lat="42.670147" lon="0.506315">
        <ele>1760.059</ele>
        <time>2010-06-14T09:30:33Z</time>
      </trkpt>
      <trkpt lat="42.670105" lon="0.506315">
        <ele>1761.027</ele>
        <time>2010-06-14T09:30:39Z</time>
      </trkpt>
      <trkpt lat="42.669890" lon="0.506423">
        <ele>1761.075</ele>
        <time>2010-06-14T09:31:01Z</time>
      </trkpt>
      <trkpt lat="42.669375" lon="0.506787">
        <ele>1762.097</ele>
        <time>2010-06-14T09:31:59Z</time>
      </trkpt>
      <trkpt lat="42.668903" lon="0.506938">
        <ele>1768.086</ele>
        <time>2010-06-14T09:32:48Z</time>
      </trkpt>
      <trkpt lat="42.668710" lon="0.506980">
        <ele>1778.060</ele>
        <time>2010-06-14T09:33:07Z</time>
      </trkpt>
      <trkpt lat="42.668667" lon="0.506959">
        <ele>1778.026</ele>
        <time>2010-06-14T09:33:12Z</time>
      </trkpt>
      <trkpt lat="42.668538" lon="0.507174">
        <ele>1768.006</ele>
        <time>2010-06-14T09:33:33Z</time>
      </trkpt>
      <trkpt lat="42.668624" lon="0.507152">
        <ele>1768.087</ele>
        <time>2010-06-14T09:33:41Z</time>
      </trkpt>
      <trkpt lat="42.668324" lon="0.507817">
        <ele>1762.044</ele>
        <time>2010-06-14T09:34:38Z</time>
      </trkpt>
      <trkpt lat="42.668281" lon="0.507882">
        <ele>1762.091</ele>
        <time>2010-06-14T09:34:44Z</time>
      </trkpt>
      <trkpt lat="42.668216" lon="0.508161">
        <ele>1756.019</ele>
        <time>2010-06-14T09:35:07Z</time>
      </trkpt>
      <trkpt lat="42.668195" lon="0.508504">
        <ele>1746.017</ele>
        <time>2010-06-14T09:35:32Z</time>
      </trkpt>
      <trkpt lat="42.668238" lon="0.508611">
        <ele>1746.069</ele>
        <time>2010-06-14T09:35:41Z</time>
      </trkpt>
      <trkpt lat="42.668238" lon="0.508740">
        <ele>1746.048</ele>
        <time>2010-06-14T09:35:51Z</time>
      </trkpt>
      <trkpt lat="42.668087" lon="0.509040">
        <ele>1740.061</ele>
        <time>2010-06-14T09:36:17Z</time>
      </trkpt>
      <trkpt lat="42.667680" lon="0.509727">
        <ele>1734.017</ele>
        <time>2010-06-14T09:37:22Z</time>
      </trkpt>
      <trkpt lat="42.667465" lon="0.510027">
        <ele>1731.006</ele>
        <time>2010-06-14T09:37:52Z</time>
      </trkpt>
      <trkpt lat="42.666972" lon="0.510542">
        <ele>1731.033</ele>
        <time>2010-06-14T09:38:54Z</time>
      </trkpt>
      <trkpt lat="42.666500" lon="0.511401">
        <ele>1737.020</ele>
        <time>2010-06-14T09:40:14Z</time>
      </trkpt>
      <trkpt lat="42.666328" lon="0.511572">
        <ele>1738.017</ele>
        <time>2010-06-14T09:40:36Z</time>
      </trkpt>
      <trkpt lat="42.666307" lon="0.511551">
        <ele>1738.025</ele>
        <time>2010-06-14T09:40:38Z</time>
      </trkpt>
      <trkpt lat="42.666070" lon="0.511422">
        <ele>1737.063</ele>
        <time>2010-06-14T09:41:03Z</time>
      </trkpt>
      <trkpt lat="42.666028" lon="0.511422">
        <ele>1737.035</ele>
        <time>2010-06-14T09:41:08Z</time>
      </trkpt>
      <trkpt lat="42.665427" lon="0.511122">
        <ele>1727.028</ele>
        <time>2010-06-14T09:42:12Z</time>
      </trkpt>
      <trkpt lat="42.665255" lon="0.511186">
        <ele>1719.089</ele>
        <time>2010-06-14T09:42:29Z</time>
      </trkpt>
      <trkpt lat="42.665040" lon="0.511143">
        <ele>1710.017</ele>
        <time>2010-06-14T09:42:51Z</time>
      </trkpt>
      <trkpt lat="42.665019" lon="0.510607">
        <ele>1714.006</ele>
        <time>2010-06-14T09:43:31Z</time>
      </trkpt>
      <trkpt lat="42.664890" lon="0.509727">
        <ele>1728.021</ele>
        <time>2010-06-14T09:44:36Z</time>
      </trkpt>
      <trkpt lat="42.664783" lon="0.509470">
        <ele>1736.048</ele>
        <time>2010-06-14T09:44:59Z</time>
      </trkpt>
      <trkpt lat="42.664719" lon="0.509448">
        <ele>1736.015</ele>
        <time>2010-06-14T09:45:05Z</time>
      </trkpt>
      <trkpt lat="42.664568" lon="0.509448">
        <ele>1740.063</ele>
        <time>2010-06-14T09:45:21Z</time>
      </trkpt>
      <trkpt lat="42.664182" lon="0.509963">
        <ele>1728.031</ele>
        <time>2010-06-14T09:46:15Z</time>
      </trkpt>
      <trkpt lat="42.664011" lon="0.510135">
        <ele>1733.013</ele>
        <time>2010-06-14T09:46:36Z</time>
      </trkpt>
      <trkpt lat="42.663989" lon="0.510178">
        <ele>1723.019</ele>
        <time>2010-06-14T09:46:40Z</time>
      </trkpt>
      <trkpt lat="42.663753" lon="0.510757">
        <ele>1704.009</ele>
        <time>2010-06-14T09:47:28Z</time>
      </trkpt>
      <trkpt lat="42.663624" lon="0.510972">
        <ele>1708.019</ele>
        <time>2010-06-14T09:47:49Z</time>
      </trkpt>
      <trkpt lat="42.663453" lon="0.511551">
        <ele>1692.006</ele>
        <time>2010-06-14T09:48:35Z</time>
      </trkpt>
      <trkpt lat="42.663302" lon="0.512216">
        <ele>1681.060</ele>
        <time>2010-06-14T09:49:26Z</time>
      </trkpt>
      <trkpt lat="42.663088" lon="0.512753">
        <ele>1676.047</ele>
        <time>2010-06-14T09:50:11Z</time>
      </trkpt>
      <trkpt lat="42.662981" lon="0.513439">
        <ele>1668.034</ele>
        <time>2010-06-14T09:51:02Z</time>
      </trkpt>
      <trkpt lat="42.662787" lon="0.513804">
        <ele>1662.012</ele>
        <time>2010-06-14T09:51:35Z</time>
      </trkpt>
      <trkpt lat="42.662272" lon="0.514298">
        <ele>1660.070</ele>
        <time>2010-06-14T09:52:39Z</time>
      </trkpt>
      <trkpt lat="42.661779" lon="0.514641">
        <ele>1649.012</ele>
        <time>2010-06-14T09:53:34Z</time>
      </trkpt>
      <trkpt lat="42.661307" lon="0.515156">
        <ele>1643.081</ele>
        <time>2010-06-14T09:54:35Z</time>
      </trkpt>
      <trkpt lat="42.660835" lon="0.515671">
        <ele>1647.061</ele>
        <time>2010-06-14T09:55:35Z</time>
      </trkpt>
      <trkpt lat="42.660728" lon="0.515842">
        <ele>1643.017</ele>
        <time>2010-06-14T09:55:51Z</time>
      </trkpt>
      <trkpt lat="42.660706" lon="0.515971">
        <ele>1643.006</ele>
        <time>2010-06-14T09:56:01Z</time>
      </trkpt>
      <trkpt lat="42.660234" lon="0.516830">
        <ele>1634.067</ele>
        <time>2010-06-14T09:57:21Z</time>
      </trkpt>
      <trkpt lat="42.659719" lon="0.517280">
        <ele>1636.014</ele>
        <time>2010-06-14T09:58:21Z</time>
      </trkpt>
      <trkpt lat="42.659333" lon="0.517859">
        <ele>1631.081</ele>
        <time>2010-06-14T09:59:18Z</time>
      </trkpt>
      <trkpt lat="42.659311" lon="0.517859">
        <ele>1631.079</ele>
        <time>2010-06-14T09:59:21Z</time>
      </trkpt>
      <trkpt lat="42.659183" lon="0.518353">
        <ele>1628.017</ele>
        <time>2010-06-14T10:00:00Z</time>
      </trkpt>
      <trkpt lat="42.658839" lon="0.518589">
        <ele>1628.099</ele>
        <time>2010-06-14T10:00:38Z</time>
      </trkpt>
      <trkpt lat="42.658668" lon="0.518847">
        <ele>1628.058</ele>
        <time>2010-06-14T10:01:03Z</time>
      </trkpt>
      <trkpt lat="42.658560" lon="0.518954">
        <ele>1628.052</ele>
        <time>2010-06-14T10:01:18Z</time>
      </trkpt>
      <trkpt lat="42.658389" lon="0.519018">
        <ele>1631.017</ele>
        <time>2010-06-14T10:01:35Z</time>
      </trkpt>
      <trkpt lat="42.658024" lon="0.519319">
        <ele>1620.006</ele>
        <time>2010-06-14T10:02:17Z</time>
      </trkpt>
      <trkpt lat="42.657981" lon="0.519319">
        <ele>1620.014</ele>
        <time>2010-06-14T10:02:21Z</time>
      </trkpt>
      <trkpt lat="42.657917" lon="0.519233">
        <ele>1625.051</ele>
        <time>2010-06-14T10:02:31Z</time>
      </trkpt>
      <trkpt lat="42.657702" lon="0.519340">
        <ele>1618.088</ele>
        <time>2010-06-14T10:02:53Z</time>
      </trkpt>
      <trkpt lat="42.657380" lon="0.519855">
        <ele>1611.056</ele>
        <time>2010-06-14T10:03:43Z</time>
      </trkpt>
      <trkpt lat="42.657294" lon="0.519898">
        <ele>1606.084</ele>
        <time>2010-06-14T10:03:52Z</time>
      </trkpt>
      <trkpt lat="42.657015" lon="0.519769">
        <ele>1615.056</ele>
        <time>2010-06-14T10:04:22Z</time>
      </trkpt>
      <trkpt lat="42.656908" lon="0.519876">
        <ele>1609.028</ele>
        <time>2010-06-14T10:04:35Z</time>
      </trkpt>
      <trkpt lat="42.656865" lon="0.520198">
        <ele>1605.089</ele>
        <time>2010-06-14T10:04:59Z</time>
      </trkpt>
      <trkpt lat="42.656758" lon="0.520349">
        <ele>1610.017</ele>
        <time>2010-06-14T10:05:15Z</time>
      </trkpt>
      <trkpt lat="42.656629" lon="0.520606">
        <ele>1604.006</ele>
        <time>2010-06-14T10:05:37Z</time>
      </trkpt>
      <trkpt lat="42.656243" lon="0.520928">
        <ele>1607.091</ele>
        <time>2010-06-14T10:06:23Z</time>
      </trkpt>
      <trkpt lat="42.655857" lon="0.521185">
        <ele>1609.048</ele>
        <time>2010-06-14T10:07:06Z</time>
      </trkpt>
      <trkpt lat="42.655449" lon="0.521636">
        <ele>1607.035</ele>
        <time>2010-06-14T10:07:59Z</time>
      </trkpt>
      <trkpt lat="42.655320" lon="0.521743">
        <ele>1620.053</ele>
        <time>2010-06-14T10:08:13Z</time>
      </trkpt>
      <trkpt lat="42.655041" lon="0.522430">
        <ele>1615.051</ele>
        <time>2010-06-14T10:09:12Z</time>
      </trkpt>
      <trkpt lat="42.654848" lon="0.522687">
        <ele>1619.083</ele>
        <time>2010-06-14T10:09:39Z</time>
      </trkpt>
      <trkpt lat="42.654719" lon="0.522966">
        <ele>1609.056</ele>
        <time>2010-06-14T10:10:03Z</time>
      </trkpt>
      <trkpt lat="42.654226" lon="0.523653">
        <ele>1609.059</ele>
        <time>2010-06-14T10:11:13Z</time>
      </trkpt>
      <trkpt lat="42.653904" lon="0.524125">
        <ele>1602.014</ele>
        <time>2010-06-14T10:12:01Z</time>
      </trkpt>
      <trkpt lat="42.653668" lon="0.524919">
        <ele>1586.006</ele>
        <time>2010-06-14T10:13:05Z</time>
      </trkpt>
      <trkpt lat="42.653561" lon="0.525134">
        <ele>1586.034</ele>
        <time>2010-06-14T10:13:24Z</time>
      </trkpt>
      <trkpt lat="42.653539" lon="0.525219">
        <ele>1576.071</ele>
        <time>2010-06-14T10:13:30Z</time>
      </trkpt>
      <trkpt lat="42.653389" lon="0.525520">
        <ele>1573.048</ele>
        <time>2010-06-14T10:13:57Z</time>
      </trkpt>
      <trkpt lat="42.653067" lon="0.525928">
        <ele>1571.026</ele>
        <time>2010-06-14T10:14:40Z</time>
      </trkpt>
      <trkpt lat="42.652895" lon="0.526056">
        <ele>1571.094</ele>
        <time>2010-06-14T10:15:01Z</time>
      </trkpt>
      <trkpt lat="42.652767" lon="0.526185">
        <ele>1571.046</ele>
        <time>2010-06-14T10:15:17Z</time>
      </trkpt>
      <trkpt lat="42.652767" lon="0.526207">
        <ele>1571.046</ele>
        <time>2010-06-14T10:15:17Z</time>
      </trkpt>
      <trkpt lat="42.652745" lon="0.526271">
        <ele>1565.088</ele>
        <time>2010-06-14T10:15:23Z</time>
      </trkpt>
      <trkpt lat="42.652445" lon="0.526743">
        <ele>1565.016</ele>
        <time>2010-06-14T10:16:08Z</time>
      </trkpt>
      <trkpt lat="42.652080" lon="0.527022">
        <ele>1574.006</ele>
        <time>2010-06-14T10:16:51Z</time>
      </trkpt>
      <trkpt lat="42.651908" lon="0.527236">
        <ele>1567.033</ele>
        <time>2010-06-14T10:17:15Z</time>
      </trkpt>
      <trkpt lat="42.651780" lon="0.527515">
        <ele>1567.020</ele>
        <time>2010-06-14T10:17:38Z</time>
      </trkpt>
      <trkpt lat="42.651565" lon="0.527794">
        <ele>1559.037</ele>
        <time>2010-06-14T10:18:09Z</time>
      </trkpt>
      <trkpt lat="42.651436" lon="0.527880">
        <ele>1566.055</ele>
        <time>2010-06-14T10:18:23Z</time>
      </trkpt>
      <trkpt lat="42.651072" lon="0.527966">
        <ele>1566.083</ele>
        <time>2010-06-14T10:19:00Z</time>
      </trkpt>
      <trkpt lat="42.650728" lon="0.528245">
        <ele>1566.075</ele>
        <time>2010-06-14T10:19:39Z</time>
      </trkpt>
      <trkpt lat="42.650492" lon="0.528674">
        <ele>1567.046</ele>
        <time>2010-06-14T10:20:19Z</time>
      </trkpt>
      <trkpt lat="42.649956" lon="0.529296">
        <ele>1569.088</ele>
        <time>2010-06-14T10:21:29Z</time>
      </trkpt>
      <trkpt lat="42.649806" lon="0.529404">
        <ele>1567.016</ele>
        <time>2010-06-14T10:21:47Z</time>
      </trkpt>
      <trkpt lat="42.649655" lon="0.529790">
        <ele>1558.006</ele>
        <time>2010-06-14T10:22:19Z</time>
      </trkpt>
      <trkpt lat="42.649312" lon="0.530112">
        <ele>1554.063</ele>
        <time>2010-06-14T10:23:00Z</time>
      </trkpt>
      <trkpt lat="42.649033" lon="0.530584">
        <ele>1544.060</ele>
        <time>2010-06-14T10:23:45Z</time>
      </trkpt>
      <trkpt lat="42.648776" lon="0.530820">
        <ele>1543.067</ele>
        <time>2010-06-14T10:24:15Z</time>
      </trkpt>
      <trkpt lat="42.648368" lon="0.531056">
        <ele>1545.085</ele>
        <time>2010-06-14T10:25:01Z</time>
      </trkpt>
      <trkpt lat="42.648110" lon="0.531249">
        <ele>1550.013</ele>
        <time>2010-06-14T10:25:30Z</time>
      </trkpt>
      <trkpt lat="42.647810" lon="0.531700">
        <ele>1536.085</ele>
        <time>2010-06-14T10:26:14Z</time>
      </trkpt>
      <trkpt lat="42.647746" lon="0.531871">
        <ele>1529.091</ele>
        <time>2010-06-14T10:26:29Z</time>
      </trkpt>
      <trkpt lat="42.647595" lon="0.532107">
        <ele>1525.081</ele>
        <time>2010-06-14T10:26:51Z</time>
      </trkpt>
      <trkpt lat="42.647381" lon="0.532515">
        <ele>1518.019</ele>
        <time>2010-06-14T10:27:29Z</time>
      </trkpt>
      <trkpt lat="42.647188" lon="0.532687">
        <ele>1515.006</ele>
        <time>2010-06-14T10:27:51Z</time>
      </trkpt>
      <trkpt lat="42.647123" lon="0.532730">
        <ele>1515.068</ele>
        <time>2010-06-14T10:27:58Z</time>
      </trkpt>
      <trkpt lat="42.646866" lon="0.532815">
        <ele>1518.015</ele>
        <time>2010-06-14T10:28:26Z</time>
      </trkpt>
      <trkpt lat="42.646737" lon="0.532901">
        <ele>1526.032</ele>
        <time>2010-06-14T10:28:39Z</time>
      </trkpt>
      <trkpt lat="42.646651" lon="0.533073">
        <ele>1518.010</ele>
        <time>2010-06-14T10:28:55Z</time>
      </trkpt>
      <trkpt lat="42.646544" lon="0.533180">
        <ele>1518.048</ele>
        <time>2010-06-14T10:29:08Z</time>
      </trkpt>
      <trkpt lat="42.646523" lon="0.533245">
        <ele>1520.040</ele>
        <time>2010-06-14T10:29:14Z</time>
      </trkpt>
      <trkpt lat="42.646222" lon="0.533717">
        <ele>1521.095</ele>
        <time>2010-06-14T10:29:59Z</time>
      </trkpt>
      <trkpt lat="42.645857" lon="0.534210">
        <ele>1512.049</ele>
        <time>2010-06-14T10:30:51Z</time>
      </trkpt>
      <trkpt lat="42.645643" lon="0.534403">
        <ele>1509.023</ele>
        <time>2010-06-14T10:31:17Z</time>
      </trkpt>
      <trkpt lat="42.645299" lon="0.534961">
        <ele>1503.006</ele>
        <time>2010-06-14T10:32:11Z</time>
      </trkpt>
      <trkpt lat="42.644892" lon="0.535390">
        <ele>1503.098</ele>
        <time>2010-06-14T10:33:02Z</time>
      </trkpt>
      <trkpt lat="42.644827" lon="0.535390">
        <ele>1508.095</ele>
        <time>2010-06-14T10:33:08Z</time>
      </trkpt>
      <trkpt lat="42.644720" lon="0.535433">
        <ele>1503.092</ele>
        <time>2010-06-14T10:33:19Z</time>
      </trkpt>
      <trkpt lat="42.644591" lon="0.535626">
        <ele>1503.090</ele>
        <time>2010-06-14T10:33:38Z</time>
      </trkpt>
      <trkpt lat="42.644312" lon="0.535820">
        <ele>1501.058</ele>
        <time>2010-06-14T10:34:10Z</time>
      </trkpt>
      <trkpt lat="42.643819" lon="0.536313">
        <ele>1494.090</ele>
        <time>2010-06-14T10:35:11Z</time>
      </trkpt>
      <trkpt lat="42.643497" lon="0.536356">
        <ele>1494.018</ele>
        <time>2010-06-14T10:35:44Z</time>
      </trkpt>
      <trkpt lat="42.643003" lon="0.536485">
        <ele>1496.098</ele>
        <time>2010-06-14T10:36:35Z</time>
      </trkpt>
      <trkpt lat="42.642252" lon="0.536656">
        <ele>1497.017</ele>
        <time>2010-06-14T10:37:50Z</time>
      </trkpt>
      <trkpt lat="42.641995" lon="0.536785">
        <ele>1503.006</ele>
        <time>2010-06-14T10:38:18Z</time>
      </trkpt>
      <trkpt lat="42.641780" lon="0.537064">
        <ele>1498.070</ele>
        <time>2010-06-14T10:38:47Z</time>
      </trkpt>
      <trkpt lat="42.641287" lon="0.537536">
        <ele>1486.027</ele>
        <time>2010-06-14T10:39:48Z</time>
      </trkpt>
      <trkpt lat="42.641094" lon="0.537794">
        <ele>1484.044</ele>
        <time>2010-06-14T10:40:15Z</time>
      </trkpt>
      <trkpt lat="42.640750" lon="0.538223">
        <ele>1477.092</ele>
        <time>2010-06-14T10:41:01Z</time>
      </trkpt>
      <trkpt lat="42.640407" lon="0.538824">
        <ele>1472.060</ele>
        <time>2010-06-14T10:41:58Z</time>
      </trkpt>
      <trkpt lat="42.640364" lon="0.538867">
        <ele>1472.092</ele>
        <time>2010-06-14T10:42:03Z</time>
      </trkpt>
      <trkpt lat="42.640257" lon="0.538888">
        <ele>1472.079</ele>
        <time>2010-06-14T10:42:14Z</time>
      </trkpt>
      <trkpt lat="42.640128" lon="0.539060">
        <ele>1471.005</ele>
        <time>2010-06-14T10:42:32Z</time>
      </trkpt>
      <trkpt lat="42.639742" lon="0.538974">
        <ele>1471.025</ele>
        <time>2010-06-14T10:43:11Z</time>
      </trkpt>
      <trkpt lat="42.639570" lon="0.539060">
        <ele>1466.006</ele>
        <time>2010-06-14T10:43:29Z</time>
      </trkpt>
      <trkpt lat="42.639570" lon="0.539081">
        <ele>1466.076</ele>
        <time>2010-06-14T10:43:31Z</time>
      </trkpt>
      <trkpt lat="42.639420" lon="0.539446">
        <ele>1468.073</ele>
        <time>2010-06-14T10:44:02Z</time>
      </trkpt>
      <trkpt lat="42.639205" lon="0.539317">
        <ele>1463.040</ele>
        <time>2010-06-14T10:44:25Z</time>
      </trkpt>
      <trkpt lat="42.638755" lon="0.539274">
        <ele>1456.018</ele>
        <time>2010-06-14T10:45:11Z</time>
      </trkpt>
      <trkpt lat="42.638519" lon="0.539360">
        <ele>1451.086</ele>
        <time>2010-06-14T10:45:35Z</time>
      </trkpt>
      <trkpt lat="42.638240" lon="0.539317">
        <ele>1447.018</ele>
        <time>2010-06-14T10:46:03Z</time>
      </trkpt>
      <trkpt lat="42.638004" lon="0.539360">
        <ele>1444.059</ele>
        <time>2010-06-14T10:46:26Z</time>
      </trkpt>
      <trkpt lat="42.637489" lon="0.539446">
        <ele>1443.003</ele>
        <time>2010-06-14T10:47:18Z</time>
      </trkpt>
      <trkpt lat="42.636995" lon="0.539446">
        <ele>1442.023</ele>
        <time>2010-06-14T10:48:08Z</time>
      </trkpt>
      <trkpt lat="42.636824" lon="0.539231">
        <ele>1442.006</ele>
        <time>2010-06-14T10:48:32Z</time>
      </trkpt>
      <trkpt lat="42.636566" lon="0.539167">
        <ele>1441.044</ele>
        <time>2010-06-14T10:48:58Z</time>
      </trkpt>
      <trkpt lat="42.636330" lon="0.539188">
        <ele>1440.081</ele>
        <time>2010-06-14T10:49:21Z</time>
      </trkpt>
      <trkpt lat="42.635794" lon="0.539167">
        <ele>1439.088</ele>
        <time>2010-06-14T10:50:15Z</time>
      </trkpt>
      <trkpt lat="42.635343" lon="0.539253">
        <ele>1433.046</ele>
        <time>2010-06-14T10:51:01Z</time>
      </trkpt>
      <trkpt lat="42.634871" lon="0.539274">
        <ele>1428.034</ele>
        <time>2010-06-14T10:51:47Z</time>
      </trkpt>
      <trkpt lat="42.634270" lon="0.539188">
        <ele>1413.076</ele>
        <time>2010-06-14T10:52:48Z</time>
      </trkpt>
      <trkpt lat="42.634034" lon="0.538974">
        <ele>1405.022</ele>
        <time>2010-06-14T10:53:17Z</time>
      </trkpt>
      <trkpt lat="42.634034" lon="0.538802">
        <ele>1405.062</ele>
        <time>2010-06-14T10:53:29Z</time>
      </trkpt>
      <trkpt lat="42.633948" lon="0.538480">
        <ele>1398.008</ele>
        <time>2010-06-14T10:53:55Z</time>
      </trkpt>
      <trkpt lat="42.633798" lon="0.538352">
        <ele>1398.006</ele>
        <time>2010-06-14T10:54:12Z</time>
      </trkpt>
      <trkpt lat="42.633541" lon="0.538416">
        <ele>1393.031</ele>
        <time>2010-06-14T10:54:39Z</time>
      </trkpt>
      <trkpt lat="42.633219" lon="0.538394">
        <ele>1387.058</ele>
        <time>2010-06-14T10:55:11Z</time>
      </trkpt>
      <trkpt lat="42.632918" lon="0.538545">
        <ele>1383.075</ele>
        <time>2010-06-14T10:55:43Z</time>
      </trkpt>
      <trkpt lat="42.632403" lon="0.538566">
        <ele>1376.013</ele>
        <time>2010-06-14T10:56:34Z</time>
      </trkpt>
      <trkpt lat="42.632103" lon="0.538480">
        <ele>1375.061</ele>
        <time>2010-06-14T10:57:04Z</time>
      </trkpt>
      <trkpt lat="42.631545" lon="0.538330">
        <ele>1376.083</ele>
        <time>2010-06-14T10:58:01Z</time>
      </trkpt>
      <trkpt lat="42.631266" lon="0.538244">
        <ele>1373.056</ele>
        <time>2010-06-14T10:58:30Z</time>
      </trkpt>
      <trkpt lat="42.630687" lon="0.538394">
        <ele>1354.059</ele>
        <time>2010-06-14T10:59:29Z</time>
      </trkpt>
      <trkpt lat="42.630215" lon="0.538287">
        <ele>1350.014</ele>
        <time>2010-06-14T11:00:17Z</time>
      </trkpt>
      <trkpt lat="42.629764" lon="0.538437">
        <ele>1354.006</ele>
        <time>2010-06-14T11:01:04Z</time>
      </trkpt>
      <trkpt lat="42.629614" lon="0.538566">
        <ele>1344.064</ele>
        <time>2010-06-14T11:01:22Z</time>
      </trkpt>
      <trkpt lat="42.629592" lon="0.538652">
        <ele>1344.011</ele>
        <time>2010-06-14T11:01:28Z</time>
      </trkpt>
      <trkpt lat="42.629571" lon="0.538888">
        <ele>1340.098</ele>
        <time>2010-06-14T11:01:46Z</time>
      </trkpt>
      <trkpt lat="42.629421" lon="0.539210">
        <ele>1332.016</ele>
        <time>2010-06-14T11:02:14Z</time>
      </trkpt>
      <trkpt lat="42.629571" lon="0.539875">
        <ele>1322.034</ele>
        <time>2010-06-14T11:03:06Z</time>
      </trkpt>
      <trkpt lat="42.629592" lon="0.540369">
        <ele>1328.076</ele>
        <time>2010-06-14T11:03:42Z</time>
      </trkpt>
      <trkpt lat="42.629528" lon="0.541098">
        <ele>1320.017</ele>
        <time>2010-06-14T11:04:35Z</time>
      </trkpt>
      <trkpt lat="42.629464" lon="0.541356">
        <ele>1321.087</ele>
        <time>2010-06-14T11:04:55Z</time>
      </trkpt>
      <trkpt lat="42.629271" lon="0.541956">
        <ele>1314.015</ele>
        <time>2010-06-14T11:05:43Z</time>
      </trkpt>
      <trkpt lat="42.629206" lon="0.541978">
        <ele>1314.006</ele>
        <time>2010-06-14T11:05:51Z</time>
      </trkpt>
      <trkpt lat="42.629185" lon="0.541956">
        <ele>1314.020</ele>
        <time>2010-06-14T11:05:54Z</time>
      </trkpt>
      <trkpt lat="42.629206" lon="0.541828">
        <ele>1314.057</ele>
        <time>2010-06-14T11:06:02Z</time>
      </trkpt>
      <trkpt lat="42.629206" lon="0.541699">
        <ele>1311.074</ele>
        <time>2010-06-14T11:06:13Z</time>
      </trkpt>
      <trkpt lat="42.629356" lon="0.541291">
        <ele>1321.082</ele>
        <time>2010-06-14T11:06:45Z</time>
      </trkpt>
      <trkpt lat="42.629292" lon="0.541034">
        <ele>1311.020</ele>
        <time>2010-06-14T11:07:06Z</time>
      </trkpt>
      <trkpt lat="42.629249" lon="0.541077">
        <ele>1311.022</ele>
        <time>2010-06-14T11:07:11Z</time>
      </trkpt>
      <trkpt lat="42.629228" lon="0.541141">
        <ele>1311.022</ele>
        <time>2010-06-14T11:07:17Z</time>
      </trkpt>
      <trkpt lat="42.628970" lon="0.541420">
        <ele>1302.062</ele>
        <time>2010-06-14T11:07:49Z</time>
      </trkpt>
      <trkpt lat="42.628820" lon="0.541506">
        <ele>1302.008</ele>
        <time>2010-06-14T11:08:05Z</time>
      </trkpt>
      <trkpt lat="42.628734" lon="0.541506">
        <ele>1296.006</ele>
        <time>2010-06-14T11:08:14Z</time>
      </trkpt>
      <trkpt lat="42.628584" lon="0.541356">
        <ele>1296.091</ele>
        <time>2010-06-14T11:08:33Z</time>
      </trkpt>
      <trkpt lat="42.628477" lon="0.541313">
        <ele>1296.068</ele>
        <time>2010-06-14T11:08:45Z</time>
      </trkpt>
      <trkpt lat="42.628241" lon="0.541420">
        <ele>1290.025</ele>
        <time>2010-06-14T11:09:10Z</time>
      </trkpt>
      <trkpt lat="42.628133" lon="0.541720">
        <ele>1283.053</ele>
        <time>2010-06-14T11:09:34Z</time>
      </trkpt>
      <trkpt lat="42.628047" lon="0.542514">
        <ele>1283.031</ele>
        <time>2010-06-14T11:10:33Z</time>
      </trkpt>
      <trkpt lat="42.627962" lon="0.542686">
        <ele>1283.093</ele>
        <time>2010-06-14T11:10:47Z</time>
      </trkpt>
      <trkpt lat="42.627940" lon="0.542686">
        <ele>1283.067</ele>
        <time>2010-06-14T11:10:50Z</time>
      </trkpt>
      <trkpt lat="42.627511" lon="0.542579">
        <ele>1276.081</ele>
        <time>2010-06-14T11:11:33Z</time>
      </trkpt>
      <trkpt lat="42.627339" lon="0.542665">
        <ele>1276.019</ele>
        <time>2010-06-14T11:11:52Z</time>
      </trkpt>
      <trkpt lat="42.627296" lon="0.542729">
        <ele>1276.006</ele>
        <time>2010-06-14T11:11:59Z</time>
      </trkpt>
      <trkpt lat="42.627082" lon="0.542815">
        <ele>1277.035</ele>
        <time>2010-06-14T11:12:21Z</time>
      </trkpt>
      <trkpt lat="42.626867" lon="0.542986">
        <ele>1276.052</ele>
        <time>2010-06-14T11:12:45Z</time>
      </trkpt>
      <trkpt lat="42.626696" lon="0.543201">
        <ele>1277.029</ele>
        <time>2010-06-14T11:13:10Z</time>
      </trkpt>
      <trkpt lat="42.626374" lon="0.543759">
        <ele>1272.047</ele>
        <time>2010-06-14T11:14:01Z</time>
      </trkpt>
      <trkpt lat="42.626352" lon="0.543952">
        <ele>1272.095</ele>
        <time>2010-06-14T11:14:16Z</time>
      </trkpt>
      <trkpt lat="42.626610" lon="0.543973">
        <ele>1272.097</ele>
        <time>2010-06-14T11:14:41Z</time>
      </trkpt>
      <trkpt lat="42.627103" lon="0.543909">
        <ele>1270.069</ele>
        <time>2010-06-14T11:15:32Z</time>
      </trkpt>
      <trkpt lat="42.627211" lon="0.543866">
        <ele>1270.004</ele>
        <time>2010-06-14T11:15:43Z</time>
      </trkpt>
      <trkpt lat="42.627275" lon="0.543888">
        <ele>1270.024</ele>
        <time>2010-06-14T11:15:48Z</time>
      </trkpt>
      <trkpt lat="42.627254" lon="0.543973">
        <ele>1270.006</ele>
        <time>2010-06-14T11:15:56Z</time>
      </trkpt>
      <trkpt lat="42.626760" lon="0.544231">
        <ele>1269.075</ele>
        <time>2010-06-14T11:16:49Z</time>
      </trkpt>
      <trkpt lat="42.626524" lon="0.544467">
        <ele>1266.072</ele>
        <time>2010-06-14T11:17:17Z</time>
      </trkpt>
      <trkpt lat="42.626073" lon="0.545068">
        <ele>1257.039</ele>
        <time>2010-06-14T11:18:22Z</time>
      </trkpt>
      <trkpt lat="42.625623" lon="0.545261">
        <ele>1252.017</ele>
        <time>2010-06-14T11:19:09Z</time>
      </trkpt>
      <trkpt lat="42.625408" lon="0.545411">
        <ele>1251.025</ele>
        <time>2010-06-14T11:19:33Z</time>
      </trkpt>
      <trkpt lat="42.624936" lon="0.545411">
        <ele>1250.017</ele>
        <time>2010-06-14T11:20:20Z</time>
      </trkpt>
      <trkpt lat="42.624893" lon="0.545390">
        <ele>1250.033</ele>
        <time>2010-06-14T11:20:25Z</time>
      </trkpt>
      <trkpt lat="42.624185" lon="0.544853">
        <ele>1241.023</ele>
        <time>2010-06-14T11:21:46Z</time>
      </trkpt>
      <trkpt lat="42.623949" lon="0.544531">
        <ele>1238.015</ele>
        <time>2010-06-14T11:22:18Z</time>
      </trkpt>
      <trkpt lat="42.624035" lon="0.544360">
        <ele>1239.006</ele>
        <time>2010-06-14T11:22:34Z</time>
      </trkpt>
      <trkpt lat="42.624550" lon="0.544081">
        <ele>1239.082</ele>
        <time>2010-06-14T11:23:30Z</time>
      </trkpt>
      <trkpt lat="42.624764" lon="0.544446">
        <ele>1244.029</ele>
        <time>2010-06-14T11:24:05Z</time>
      </trkpt>
      <trkpt lat="42.625151" lon="0.544918">
        <ele>1251.076</ele>
        <time>2010-06-14T11:24:57Z</time>
      </trkpt>
      <trkpt lat="42.625408" lon="0.545261">
        <ele>1251.064</ele>
        <time>2010-06-14T11:25:32Z</time>
      </trkpt>
      <trkpt lat="42.625644" lon="0.545561">
        <ele>1253.012</ele>
        <time>2010-06-14T11:26:04Z</time>
      </trkpt>
      <trkpt lat="42.625773" lon="0.545647">
        <ele>1253.074</ele>
        <time>2010-06-14T11:26:19Z</time>
      </trkpt>
      <trkpt lat="42.625859" lon="0.545819">
        <ele>1253.062</ele>
        <time>2010-06-14T11:26:34Z</time>
      </trkpt>
      <trkpt lat="42.625880" lon="0.545926">
        <ele>1253.083</ele>
        <time>2010-06-14T11:26:42Z</time>
      </trkpt>
      <trkpt lat="42.625880" lon="0.546184">
        <ele>1255.011</ele>
        <time>2010-06-14T11:27:02Z</time>
      </trkpt>
      <trkpt lat="42.625945" lon="0.546570">
        <ele>1259.006</ele>
        <time>2010-06-14T11:27:30Z</time>
      </trkpt>
      <trkpt lat="42.626052" lon="0.546827">
        <ele>1260.075</ele>
        <time>2010-06-14T11:27:52Z</time>
      </trkpt>
      <trkpt lat="42.626245" lon="0.547407">
        <ele>1265.062</ele>
        <time>2010-06-14T11:28:40Z</time>
      </trkpt>
      <trkpt lat="42.626331" lon="0.547450">
        <ele>1265.039</ele>
        <time>2010-06-14T11:28:48Z</time>
      </trkpt>
      <trkpt lat="42.626374" lon="0.547450">
        <ele>1265.077</ele>
        <time>2010-06-14T11:28:53Z</time>
      </trkpt>
      <trkpt lat="42.626374" lon="0.547428">
        <ele>1265.075</ele>
        <time>2010-06-14T11:28:55Z</time>
      </trkpt>
      <trkpt lat="42.626503" lon="0.547278">
        <ele>1262.077</ele>
        <time>2010-06-14T11:29:12Z</time>
      </trkpt>
      <trkpt lat="42.626524" lon="0.547321">
        <ele>1262.086</ele>
        <time>2010-06-14T11:29:15Z</time>
      </trkpt>
      <trkpt lat="42.626588" lon="0.547557">
        <ele>1265.060</ele>
        <time>2010-06-14T11:29:34Z</time>
      </trkpt>
      <trkpt lat="42.626631" lon="0.547943">
        <ele>1269.026</ele>
        <time>2010-06-14T11:30:03Z</time>
      </trkpt>
      <trkpt lat="42.626824" lon="0.548093">
        <ele>1267.006</ele>
        <time>2010-06-14T11:30:25Z</time>
      </trkpt>
      <trkpt lat="42.627361" lon="0.548158">
        <ele>1265.047</ele>
        <time>2010-06-14T11:31:19Z</time>
      </trkpt>
      <trkpt lat="42.627854" lon="0.548522">
        <ele>1265.094</ele>
        <time>2010-06-14T11:32:15Z</time>
      </trkpt>
      <trkpt lat="42.628412" lon="0.548737">
        <ele>1263.041</ele>
        <time>2010-06-14T11:33:12Z</time>
      </trkpt>
      <trkpt lat="42.628605" lon="0.548930">
        <ele>1265.089</ele>
        <time>2010-06-14T11:33:36Z</time>
      </trkpt>
      <trkpt lat="42.628863" lon="0.548995">
        <ele>1267.017</ele>
        <time>2010-06-14T11:34:02Z</time>
      </trkpt>
      <trkpt lat="42.629399" lon="0.548716">
        <ele>1274.049</ele>
        <time>2010-06-14T11:35:01Z</time>
      </trkpt>
      <trkpt lat="42.629678" lon="0.548673">
        <ele>1279.031</ele>
        <time>2010-06-14T11:35:28Z</time>
      </trkpt>
      <trkpt lat="42.629914" lon="0.548737">
        <ele>1285.061</ele>
        <time>2010-06-14T11:35:53Z</time>
      </trkpt>
      <trkpt lat="42.630129" lon="0.548973">
        <ele>1278.007</ele>
        <time>2010-06-14T11:36:20Z</time>
      </trkpt>
      <trkpt lat="42.630150" lon="0.549660">
        <ele>1277.006</ele>
        <time>2010-06-14T11:37:11Z</time>
      </trkpt>
      <trkpt lat="42.630193" lon="0.550389">
        <ele>1280.082</ele>
        <time>2010-06-14T11:38:04Z</time>
      </trkpt>
      <trkpt lat="42.630215" lon="0.550668">
        <ele>1283.099</ele>
        <time>2010-06-14T11:38:26Z</time>
      </trkpt>
      <trkpt lat="42.630472" lon="0.551355">
        <ele>1286.026</ele>
        <time>2010-06-14T11:39:22Z</time>
      </trkpt>
      <trkpt lat="42.630730" lon="0.551806">
        <ele>1284.064</ele>
        <time>2010-06-14T11:40:05Z</time>
      </trkpt>
      <trkpt lat="42.630773" lon="0.552063">
        <ele>1284.082</ele>
        <time>2010-06-14T11:40:24Z</time>
      </trkpt>
      <trkpt lat="42.630708" lon="0.552578">
        <ele>1288.064</ele>
        <time>2010-06-14T11:41:02Z</time>
      </trkpt>
      <trkpt lat="42.630708" lon="0.552835">
        <ele>1290.056</ele>
        <time>2010-06-14T11:41:21Z</time>
      </trkpt>
      <trkpt lat="42.630880" lon="0.553458">
        <ele>1294.059</ele>
        <time>2010-06-14T11:42:09Z</time>
      </trkpt>
      <trkpt lat="42.631009" lon="0.553715">
        <ele>1291.014</ele>
        <time>2010-06-14T11:42:33Z</time>
      </trkpt>
      <trkpt lat="42.631223" lon="0.553887">
        <ele>1294.006</ele>
        <time>2010-06-14T11:42:57Z</time>
      </trkpt>
      <trkpt lat="42.631416" lon="0.553951">
        <ele>1291.014</ele>
        <time>2010-06-14T11:43:17Z</time>
      </trkpt>
      <trkpt lat="42.631459" lon="0.554037">
        <ele>1294.061</ele>
        <time>2010-06-14T11:43:25Z</time>
      </trkpt>
      <trkpt lat="42.631459" lon="0.554295">
        <ele>1294.088</ele>
        <time>2010-06-14T11:43:44Z</time>
      </trkpt>
      <trkpt lat="42.631395" lon="0.554380">
        <ele>1297.036</ele>
        <time>2010-06-14T11:43:54Z</time>
      </trkpt>
      <trkpt lat="42.631438" lon="0.554380">
        <ele>1297.034</ele>
        <time>2010-06-14T11:43:57Z</time>
      </trkpt>
      <trkpt lat="42.631459" lon="0.554659">
        <ele>1301.046</ele>
        <time>2010-06-14T11:44:19Z</time>
      </trkpt>
      <trkpt lat="42.631459" lon="0.555282">
        <ele>1308.062</ele>
        <time>2010-06-14T11:45:04Z</time>
      </trkpt>
      <trkpt lat="42.631845" lon="0.556119">
        <ele>1311.083</ele>
        <time>2010-06-14T11:46:17Z</time>
      </trkpt>
      <trkpt lat="42.631974" lon="0.556355">
        <ele>1315.011</ele>
        <time>2010-06-14T11:46:39Z</time>
      </trkpt>
      <trkpt lat="42.632232" lon="0.556741">
        <ele>1315.006</ele>
        <time>2010-06-14T11:47:16Z</time>
      </trkpt>
      <trkpt lat="42.632425" lon="0.556891">
        <ele>1318.095</ele>
        <time>2010-06-14T11:47:38Z</time>
      </trkpt>
      <trkpt lat="42.632511" lon="0.557020">
        <ele>1318.052</ele>
        <time>2010-06-14T11:47:51Z</time>
      </trkpt>
      <trkpt lat="42.632339" lon="0.557342">
        <ele>1323.029</ele>
        <time>2010-06-14T11:48:21Z</time>
      </trkpt>
      <trkpt lat="42.632339" lon="0.557363">
        <ele>1328.067</ele>
        <time>2010-06-14T11:48:23Z</time>
      </trkpt>
      <trkpt lat="42.632275" lon="0.557449">
        <ele>1328.095</ele>
        <time>2010-06-14T11:48:31Z</time>
      </trkpt>
      <trkpt lat="42.632318" lon="0.557556">
        <ele>1328.097</ele>
        <time>2010-06-14T11:48:41Z</time>
      </trkpt>
      <trkpt lat="42.632339" lon="0.557728">
        <ele>1334.026</ele>
        <time>2010-06-14T11:48:53Z</time>
      </trkpt>
      <trkpt lat="42.632318" lon="0.558050">
        <ele>1339.047</ele>
        <time>2010-06-14T11:49:17Z</time>
      </trkpt>
      <trkpt lat="42.632189" lon="0.558286">
        <ele>1345.011</ele>
        <time>2010-06-14T11:49:38Z</time>
      </trkpt>
      <trkpt lat="42.632039" lon="0.558393">
        <ele>1345.006</ele>
        <time>2010-06-14T11:49:55Z</time>
      </trkpt>
      <trkpt lat="42.631931" lon="0.558522">
        <ele>1348.071</ele>
        <time>2010-06-14T11:50:10Z</time>
      </trkpt>
      <trkpt lat="42.631781" lon="0.558908">
        <ele>1355.088</ele>
        <time>2010-06-14T11:50:43Z</time>
      </trkpt>
      <trkpt lat="42.631652" lon="0.559788">
        <ele>1364.075</ele>
        <time>2010-06-14T11:51:48Z</time>
      </trkpt>
      <trkpt lat="42.631652" lon="0.559917">
        <ele>1368.023</ele>
        <time>2010-06-14T11:51:58Z</time>
      </trkpt>
      <trkpt lat="42.631567" lon="0.560195">
        <ele>1372.091</ele>
        <time>2010-06-14T11:52:20Z</time>
      </trkpt>
      <trkpt lat="42.631631" lon="0.560389">
        <ele>1372.053</ele>
        <time>2010-06-14T11:52:36Z</time>
      </trkpt>
      <trkpt lat="42.631631" lon="0.560582">
        <ele>1377.039</ele>
        <time>2010-06-14T11:52:49Z</time>
      </trkpt>
      <trkpt lat="42.631652" lon="0.560689">
        <ele>1377.001</ele>
        <time>2010-06-14T11:52:58Z</time>
      </trkpt>
      <trkpt lat="42.631674" lon="0.560689">
        <ele>1377.021</ele>
        <time>2010-06-14T11:53:00Z</time>
      </trkpt>
      <trkpt lat="42.631717" lon="0.560732">
        <ele>1385.006</ele>
        <time>2010-06-14T11:53:05Z</time>
      </trkpt>
      <trkpt lat="42.631996" lon="0.560839">
        <ele>1385.042</ele>
        <time>2010-06-14T11:53:35Z</time>
      </trkpt>
      <trkpt lat="42.632146" lon="0.560839">
        <ele>1386.039</ele>
        <time>2010-06-14T11:53:49Z</time>
      </trkpt>
      <trkpt lat="42.632682" lon="0.560474">
        <ele>1380.076</ele>
        <time>2010-06-14T11:54:50Z</time>
      </trkpt>
      <trkpt lat="42.633026" lon="0.560303">
        <ele>1376.074</ele>
        <time>2010-06-14T11:55:27Z</time>
      </trkpt>
      <trkpt lat="42.633519" lon="0.559874">
        <ele>1370.062</ele>
        <time>2010-06-14T11:56:25Z</time>
      </trkpt>
      <trkpt lat="42.633605" lon="0.559895">
        <ele>1370.014</ele>
        <time>2010-06-14T11:56:33Z</time>
      </trkpt>
      <trkpt lat="42.633626" lon="0.559981">
        <ele>1370.033</ele>
        <time>2010-06-14T11:56:41Z</time>
      </trkpt>
      <trkpt lat="42.634077" lon="0.560517">
        <ele>1371.023</ele>
        <time>2010-06-14T11:57:40Z</time>
      </trkpt>
      <trkpt lat="42.634506" lon="0.560796">
        <ele>1373.015</ele>
        <time>2010-06-14T11:58:28Z</time>
      </trkpt>
      <trkpt lat="42.635257" lon="0.560839">
        <ele>1372.006</ele>
        <time>2010-06-14T11:59:43Z</time>
      </trkpt>
      <trkpt lat="42.635922" lon="0.560989">
        <ele>1375.072</ele>
        <time>2010-06-14T12:00:50Z</time>
      </trkpt>
      <trkpt lat="42.636395" lon="0.561290">
        <ele>1372.039</ele>
        <time>2010-06-14T12:01:42Z</time>
      </trkpt>
      <trkpt lat="42.636631" lon="0.561419">
        <ele>1369.066</ele>
        <time>2010-06-14T12:02:09Z</time>
      </trkpt>
      <trkpt lat="42.636824" lon="0.561676">
        <ele>1370.064</ele>
        <time>2010-06-14T12:02:35Z</time>
      </trkpt>
      <trkpt lat="42.637060" lon="0.561869">
        <ele>1374.052</ele>
        <time>2010-06-14T12:03:03Z</time>
      </trkpt>
      <trkpt lat="42.637210" lon="0.561934">
        <ele>1371.024</ele>
        <time>2010-06-14T12:03:19Z</time>
      </trkpt>
      <trkpt lat="42.637446" lon="0.561912">
        <ele>1368.073</ele>
        <time>2010-06-14T12:03:43Z</time>
      </trkpt>
      <trkpt lat="42.637682" lon="0.561762">
        <ele>1364.085</ele>
        <time>2010-06-14T12:04:09Z</time>
      </trkpt>
      <trkpt lat="42.637725" lon="0.561783">
        <ele>1364.013</ele>
        <time>2010-06-14T12:04:13Z</time>
      </trkpt>
      <trkpt lat="42.637832" lon="0.562191">
        <ele>1369.006</ele>
        <time>2010-06-14T12:04:45Z</time>
      </trkpt>
      <trkpt lat="42.637875" lon="0.562620">
        <ele>1372.066</ele>
        <time>2010-06-14T12:05:17Z</time>
      </trkpt>
      <trkpt lat="42.637939" lon="0.562835">
        <ele>1373.033</ele>
        <time>2010-06-14T12:05:33Z</time>
      </trkpt>
      <trkpt lat="42.637982" lon="0.562856">
        <ele>1373.030</ele>
        <time>2010-06-14T12:05:39Z</time>
      </trkpt>
      <trkpt lat="42.638347" lon="0.562813">
        <ele>1373.058</ele>
        <time>2010-06-14T12:06:16Z</time>
      </trkpt>
      <trkpt lat="42.638390" lon="0.562792">
        <ele>1373.046</ele>
        <time>2010-06-14T12:06:19Z</time>
      </trkpt>
      <trkpt lat="42.638454" lon="0.562685">
        <ele>1373.028</ele>
        <time>2010-06-14T12:06:30Z</time>
      </trkpt>
      <trkpt lat="42.638669" lon="0.562706">
        <ele>1373.042</ele>
        <time>2010-06-14T12:06:51Z</time>
      </trkpt>
      <trkpt lat="42.638712" lon="0.562727">
        <ele>1373.022</ele>
        <time>2010-06-14T12:06:56Z</time>
      </trkpt>
      <trkpt lat="42.639205" lon="0.563307">
        <ele>1375.014</ele>
        <time>2010-06-14T12:08:01Z</time>
      </trkpt>
      <trkpt lat="42.639120" lon="0.563886">
        <ele>1378.006</ele>
        <time>2010-06-14T12:08:44Z</time>
      </trkpt>
      <trkpt lat="42.638991" lon="0.563908">
        <ele>1382.043</ele>
        <time>2010-06-14T12:08:57Z</time>
      </trkpt>
      <trkpt lat="42.638562" lon="0.564873">
        <ele>1396.030</ele>
        <time>2010-06-14T12:10:21Z</time>
      </trkpt>
      <trkpt lat="42.638454" lon="0.565281">
        <ele>1402.067</ele>
        <time>2010-06-14T12:10:53Z</time>
      </trkpt>
      <trkpt lat="42.638390" lon="0.565302">
        <ele>1402.085</ele>
        <time>2010-06-14T12:10:59Z</time>
      </trkpt>
      <trkpt lat="42.638133" lon="0.565882">
        <ele>1413.023</ele>
        <time>2010-06-14T12:11:49Z</time>
      </trkpt>
      <trkpt lat="42.638111" lon="0.565882">
        <ele>1413.045</ele>
        <time>2010-06-14T12:11:52Z</time>
      </trkpt>
      <trkpt lat="42.638111" lon="0.565925">
        <ele>1413.051</ele>
        <time>2010-06-14T12:11:55Z</time>
      </trkpt>
      <trkpt lat="42.638390" lon="0.566912">
        <ele>1425.001</ele>
        <time>2010-06-14T12:13:13Z</time>
      </trkpt>
      <trkpt lat="42.638562" lon="0.567255">
        <ele>1422.011</ele>
        <time>2010-06-14T12:13:43Z</time>
      </trkpt>
      <trkpt lat="42.638755" lon="0.567577">
        <ele>1418.006</ele>
        <time>2010-06-14T12:14:14Z</time>
      </trkpt>
      <trkpt lat="42.639055" lon="0.568028">
        <ele>1425.014</ele>
        <time>2010-06-14T12:14:58Z</time>
      </trkpt>
      <trkpt lat="42.639184" lon="0.568328">
        <ele>1436.041</ele>
        <time>2010-06-14T12:15:24Z</time>
      </trkpt>
      <trkpt lat="42.639441" lon="0.568671">
        <ele>1439.088</ele>
        <time>2010-06-14T12:16:00Z</time>
      </trkpt>
      <trkpt lat="42.639956" lon="0.569444">
        <ele>1458.036</ele>
        <time>2010-06-14T12:17:17Z</time>
      </trkpt>
      <trkpt lat="42.639999" lon="0.569572">
        <ele>1458.034</ele>
        <time>2010-06-14T12:17:26Z</time>
      </trkpt>
      <trkpt lat="42.636502" lon="0.569680">
        <ele>1527.016</ele>
        <time>2010-06-14T12:23:17Z</time>
      </trkpt>
      <trkpt lat="42.636459" lon="0.569723">
        <ele>1527.026</ele>
        <time>2010-06-14T12:23:23Z</time>
      </trkpt>
      <trkpt lat="42.636266" lon="0.569808">
        <ele>1527.047</ele>
        <time>2010-06-14T12:23:42Z</time>
      </trkpt>
      <trkpt lat="42.635536" lon="0.570602">
        <ele>1558.011</ele>
        <time>2010-06-14T12:25:17Z</time>
      </trkpt>
      <trkpt lat="42.635300" lon="0.570710">
        <ele>1570.006</ele>
        <time>2010-06-14T12:25:41Z</time>
      </trkpt>
      <trkpt lat="42.635064" lon="0.570731">
        <ele>1568.071</ele>
        <time>2010-06-14T12:26:05Z</time>
      </trkpt>
      <trkpt lat="42.634892" lon="0.570881">
        <ele>1568.058</ele>
        <time>2010-06-14T12:26:26Z</time>
      </trkpt>
      <trkpt lat="42.634656" lon="0.570946">
        <ele>1567.055</ele>
        <time>2010-06-14T12:26:50Z</time>
      </trkpt>
      <trkpt lat="42.634442" lon="0.570860">
        <ele>1562.083</ele>
        <time>2010-06-14T12:27:12Z</time>
      </trkpt>
      <trkpt lat="42.634270" lon="0.570517">
        <ele>1530.091</ele>
        <time>2010-06-14T12:27:42Z</time>
      </trkpt>
      <trkpt lat="42.634206" lon="0.570495">
        <ele>1530.053</ele>
        <time>2010-06-14T12:27:49Z</time>
      </trkpt>
      <trkpt lat="42.634184" lon="0.570581">
        <ele>1530.071</ele>
        <time>2010-06-14T12:27:55Z</time>
      </trkpt>
      <trkpt lat="42.633991" lon="0.570924">
        <ele>1533.041</ele>
        <time>2010-06-14T12:28:28Z</time>
      </trkpt>
      <trkpt lat="42.633798" lon="0.571675">
        <ele>1579.015</ele>
        <time>2010-06-14T12:29:26Z</time>
      </trkpt>
      <trkpt lat="42.633820" lon="0.571761">
        <ele>1579.006</ele>
        <time>2010-06-14T12:29:32Z</time>
      </trkpt>
      <trkpt lat="42.633948" lon="0.571976">
        <ele>1589.096</ele>
        <time>2010-06-14T12:29:53Z</time>
      </trkpt>
      <trkpt lat="42.633948" lon="0.572512">
        <ele>1605.023</ele>
        <time>2010-06-14T12:30:33Z</time>
      </trkpt>
      <trkpt lat="42.634120" lon="0.572684">
        <ele>1627.050</ele>
        <time>2010-06-14T12:30:53Z</time>
      </trkpt>
      <trkpt lat="42.633948" lon="0.573177">
        <ele>1622.028</ele>
        <time>2010-06-14T12:31:33Z</time>
      </trkpt>
      <trkpt lat="42.633841" lon="0.573349">
        <ele>1633.096</ele>
        <time>2010-06-14T12:31:51Z</time>
      </trkpt>
      <trkpt lat="42.633626" lon="0.573392">
        <ele>1624.058</ele>
        <time>2010-06-14T12:32:13Z</time>
      </trkpt>
      <trkpt lat="42.633090" lon="0.573456">
        <ele>1611.017</ele>
        <time>2010-06-14T12:33:07Z</time>
      </trkpt>
      <trkpt lat="42.632875" lon="0.573220">
        <ele>1605.087</ele>
        <time>2010-06-14T12:33:34Z</time>
      </trkpt>
      <trkpt lat="42.632833" lon="0.573220">
        <ele>1605.015</ele>
        <time>2010-06-14T12:33:37Z</time>
      </trkpt>
      <trkpt lat="42.632596" lon="0.573306">
        <ele>1601.006</ele>
        <time>2010-06-14T12:34:03Z</time>
      </trkpt>
      <trkpt lat="42.632446" lon="0.573521">
        <ele>1620.030</ele>
        <time>2010-06-14T12:34:25Z</time>
      </trkpt>
      <trkpt lat="42.632360" lon="0.573564">
        <ele>1616.067</ele>
        <time>2010-06-14T12:34:33Z</time>
      </trkpt>
      <trkpt lat="42.631910" lon="0.573521">
        <ele>1613.054</ele>
        <time>2010-06-14T12:35:19Z</time>
      </trkpt>
      <trkpt lat="42.631695" lon="0.573585">
        <ele>1613.092</ele>
        <time>2010-06-14T12:35:41Z</time>
      </trkpt>
      <trkpt lat="42.631524" lon="0.573692">
        <ele>1616.020</ele>
        <time>2010-06-14T12:35:59Z</time>
      </trkpt>
      <trkpt lat="42.631309" lon="0.573735">
        <ele>1616.072</ele>
        <time>2010-06-14T12:36:21Z</time>
      </trkpt>
      <trkpt lat="42.631094" lon="0.573628">
        <ele>1618.072</ele>
        <time>2010-06-14T12:36:45Z</time>
      </trkpt>
      <trkpt lat="42.630901" lon="0.573692">
        <ele>1613.013</ele>
        <time>2010-06-14T12:37:04Z</time>
      </trkpt>
      <trkpt lat="42.630837" lon="0.573800">
        <ele>1618.014</ele>
        <time>2010-06-14T12:37:14Z</time>
      </trkpt>
      <trkpt lat="42.630944" lon="0.574336">
        <ele>1630.006</ele>
        <time>2010-06-14T12:37:55Z</time>
      </trkpt>
      <trkpt lat="42.631009" lon="0.574529">
        <ele>1644.036</ele>
        <time>2010-06-14T12:38:11Z</time>
      </trkpt>
      <trkpt lat="42.631180" lon="0.575237">
        <ele>1659.043</ele>
        <time>2010-06-14T12:39:05Z</time>
      </trkpt>
      <trkpt lat="42.631223" lon="0.575473">
        <ele>1665.090</ele>
        <time>2010-06-14T12:39:24Z</time>
      </trkpt>
      <trkpt lat="42.631180" lon="0.575581">
        <ele>1665.068</ele>
        <time>2010-06-14T12:39:32Z</time>
      </trkpt>
      <trkpt lat="42.631094" lon="0.575709">
        <ele>1672.046</ele>
        <time>2010-06-14T12:39:45Z</time>
      </trkpt>
      <trkpt lat="42.631073" lon="0.576074">
        <ele>1680.038</ele>
        <time>2010-06-14T12:40:12Z</time>
      </trkpt>
      <trkpt lat="42.630987" lon="0.576332">
        <ele>1689.098</ele>
        <time>2010-06-14T12:40:34Z</time>
      </trkpt>
      <trkpt lat="42.630816" lon="0.576525">
        <ele>1679.015</ele>
        <time>2010-06-14T12:40:55Z</time>
      </trkpt>
      <trkpt lat="42.630558" lon="0.576632">
        <ele>1680.026</ele>
        <time>2010-06-14T12:41:22Z</time>
      </trkpt>
      <trkpt lat="42.630472" lon="0.576632">
        <ele>1680.006</ele>
        <time>2010-06-14T12:41:30Z</time>
      </trkpt>
      <trkpt lat="42.630365" lon="0.576546">
        <ele>1669.088</ele>
        <time>2010-06-14T12:41:44Z</time>
      </trkpt>
      <trkpt lat="42.630279" lon="0.576546">
        <ele>1669.035</ele>
        <time>2010-06-14T12:41:51Z</time>
      </trkpt>
      <trkpt lat="42.630215" lon="0.576589">
        <ele>1669.092</ele>
        <time>2010-06-14T12:42:00Z</time>
      </trkpt>
      <trkpt lat="42.630193" lon="0.576589">
        <ele>1669.050</ele>
        <time>2010-06-14T12:42:02Z</time>
      </trkpt>
      <trkpt lat="42.629743" lon="0.576611">
        <ele>1647.058</ele>
        <time>2010-06-14T12:42:47Z</time>
      </trkpt>
      <trkpt lat="42.629356" lon="0.576739">
        <ele>1635.040</ele>
        <time>2010-06-14T12:43:26Z</time>
      </trkpt>
      <trkpt lat="42.629142" lon="0.577040">
        <ele>1627.021</ele>
        <time>2010-06-14T12:43:58Z</time>
      </trkpt>
      <trkpt lat="42.629335" lon="0.577383">
        <ele>1663.041</ele>
        <time>2010-06-14T12:44:28Z</time>
      </trkpt>
      <trkpt lat="42.629356" lon="0.577405">
        <ele>1663.005</ele>
        <time>2010-06-14T12:44:32Z</time>
      </trkpt>
      <trkpt lat="42.629528" lon="0.578327">
        <ele>1685.006</ele>
        <time>2010-06-14T12:45:42Z</time>
      </trkpt>
      <trkpt lat="42.629507" lon="0.578649">
        <ele>1695.041</ele>
        <time>2010-06-14T12:46:06Z</time>
      </trkpt>
      <trkpt lat="42.629421" lon="0.578907">
        <ele>1706.088</ele>
        <time>2010-06-14T12:46:26Z</time>
      </trkpt>
      <trkpt lat="42.629292" lon="0.578971">
        <ele>1692.065</ele>
        <time>2010-06-14T12:46:40Z</time>
      </trkpt>
      <trkpt lat="42.629035" lon="0.578928">
        <ele>1692.013</ele>
        <time>2010-06-14T12:47:06Z</time>
      </trkpt>
      <trkpt lat="42.628820" lon="0.579014">
        <ele>1682.041</ele>
        <time>2010-06-14T12:47:28Z</time>
      </trkpt>
      <trkpt lat="42.628562" lon="0.578842">
        <ele>1674.053</ele>
        <time>2010-06-14T12:47:57Z</time>
      </trkpt>
      <trkpt lat="42.628477" lon="0.578821">
        <ele>1674.088</ele>
        <time>2010-06-14T12:48:06Z</time>
      </trkpt>
      <trkpt lat="42.628176" lon="0.579100">
        <ele>1672.024</ele>
        <time>2010-06-14T12:48:43Z</time>
      </trkpt>
      <trkpt lat="42.628026" lon="0.579293">
        <ele>1672.026</ele>
        <time>2010-06-14T12:49:02Z</time>
      </trkpt>
      <trkpt lat="42.627876" lon="0.579700">
        <ele>1690.006</ele>
        <time>2010-06-14T12:49:36Z</time>
      </trkpt>
      <trkpt lat="42.627876" lon="0.579915">
        <ele>1703.047</ele>
        <time>2010-06-14T12:49:52Z</time>
      </trkpt>
      <trkpt lat="42.627747" lon="0.580194">
        <ele>1716.094</ele>
        <time>2010-06-14T12:50:17Z</time>
      </trkpt>
      <trkpt lat="42.627511" lon="0.580409">
        <ele>1701.071</ele>
        <time>2010-06-14T12:50:44Z</time>
      </trkpt>
      <trkpt lat="42.627082" lon="0.580688">
        <ele>1692.029</ele>
        <time>2010-06-14T12:51:33Z</time>
      </trkpt>
      <trkpt lat="42.626889" lon="0.580902">
        <ele>1702.017</ele>
        <time>2010-06-14T12:51:57Z</time>
      </trkpt>
      <trkpt lat="42.626567" lon="0.581460">
        <ele>1709.069</ele>
        <time>2010-06-14T12:52:50Z</time>
      </trkpt>
      <trkpt lat="42.626417" lon="0.581760">
        <ele>1702.022</ele>
        <time>2010-06-14T12:53:17Z</time>
      </trkpt>
      <trkpt lat="42.626395" lon="0.582082">
        <ele>1709.062</ele>
        <time>2010-06-14T12:53:41Z</time>
      </trkpt>
      <trkpt lat="42.626288" lon="0.582747">
        <ele>1731.008</ele>
        <time>2010-06-14T12:54:30Z</time>
      </trkpt>
      <trkpt lat="42.626159" lon="0.583069">
        <ele>1718.006</ele>
        <time>2010-06-14T12:54:57Z</time>
      </trkpt>
      <trkpt lat="42.625966" lon="0.583327">
        <ele>1704.081</ele>
        <time>2010-06-14T12:55:24Z</time>
      </trkpt>
      <trkpt lat="42.625902" lon="0.583670">
        <ele>1712.048</ele>
        <time>2010-06-14T12:55:51Z</time>
      </trkpt>
      <trkpt lat="42.625902" lon="0.583735">
        <ele>1712.045</ele>
        <time>2010-06-14T12:55:56Z</time>
      </trkpt>
      <trkpt lat="42.625988" lon="0.583992">
        <ele>1740.073</ele>
        <time>2010-06-14T12:56:15Z</time>
      </trkpt>
      <trkpt lat="42.626030" lon="0.584250">
        <ele>1748.081</ele>
        <time>2010-06-14T12:56:36Z</time>
      </trkpt>
      <trkpt lat="42.625623" lon="0.584550">
        <ele>1720.073</ele>
        <time>2010-06-14T12:57:22Z</time>
      </trkpt>
      <trkpt lat="42.625387" lon="0.585065">
        <ele>1725.044</ele>
        <time>2010-06-14T12:58:07Z</time>
      </trkpt>
      <trkpt lat="42.625237" lon="0.585258">
        <ele>1735.005</ele>
        <time>2010-06-14T12:58:27Z</time>
      </trkpt>
      <trkpt lat="42.625000" lon="0.585451">
        <ele>1731.015</ele>
        <time>2010-06-14T12:58:55Z</time>
      </trkpt>
      <trkpt lat="42.624850" lon="0.585687">
        <ele>1717.006</ele>
        <time>2010-06-14T12:59:18Z</time>
      </trkpt>
      <trkpt lat="42.624571" lon="0.586352">
        <ele>1738.083</ele>
        <time>2010-06-14T13:00:14Z</time>
      </trkpt>
      <trkpt lat="42.624400" lon="0.586653">
        <ele>1750.020</ele>
        <time>2010-06-14T13:00:43Z</time>
      </trkpt>
      <trkpt lat="42.624035" lon="0.587082">
        <ele>1746.087</ele>
        <time>2010-06-14T13:01:31Z</time>
      </trkpt>
      <trkpt lat="42.623756" lon="0.587661">
        <ele>1766.075</ele>
        <time>2010-06-14T13:02:21Z</time>
      </trkpt>
      <trkpt lat="42.623498" lon="0.587876">
        <ele>1751.023</ele>
        <time>2010-06-14T13:02:52Z</time>
      </trkpt>
      <trkpt lat="42.623155" lon="0.588455">
        <ele>1744.015</ele>
        <time>2010-06-14T13:03:46Z</time>
      </trkpt>
      <trkpt lat="42.623177" lon="0.588498">
        <ele>1755.058</ele>
        <time>2010-06-14T13:03:51Z</time>
      </trkpt>
      <trkpt lat="42.623112" lon="0.588713">
        <ele>1755.052</ele>
        <time>2010-06-14T13:04:08Z</time>
      </trkpt>
      <trkpt lat="42.622919" lon="0.589335">
        <ele>1783.017</ele>
        <time>2010-06-14T13:04:58Z</time>
      </trkpt>
      <trkpt lat="42.622833" lon="0.589829">
        <ele>1780.006</ele>
        <time>2010-06-14T13:05:34Z</time>
      </trkpt>
      <trkpt lat="42.622619" lon="0.589871">
        <ele>1781.054</ele>
        <time>2010-06-14T13:05:56Z</time>
      </trkpt>
      <trkpt lat="42.622533" lon="0.589829">
        <ele>1773.071</ele>
        <time>2010-06-14T13:06:06Z</time>
      </trkpt>
      <trkpt lat="42.622361" lon="0.589635">
        <ele>1763.088</ele>
        <time>2010-06-14T13:06:28Z</time>
      </trkpt>
      <trkpt lat="42.622190" lon="0.589764">
        <ele>1763.016</ele>
        <time>2010-06-14T13:06:47Z</time>
      </trkpt>
      <trkpt lat="42.622168" lon="0.590065">
        <ele>1771.034</ele>
        <time>2010-06-14T13:07:10Z</time>
      </trkpt>
      <trkpt lat="42.622254" lon="0.590816">
        <ele>1784.046</ele>
        <time>2010-06-14T13:08:05Z</time>
      </trkpt>
      <trkpt lat="42.622232" lon="0.591180">
        <ele>1788.083</ele>
        <time>2010-06-14T13:08:32Z</time>
      </trkpt>
      <trkpt lat="42.621996" lon="0.591803">
        <ele>1781.025</ele>
        <time>2010-06-14T13:09:23Z</time>
      </trkpt>
      <trkpt lat="42.621760" lon="0.592339">
        <ele>1782.017</ele>
        <time>2010-06-14T13:10:10Z</time>
      </trkpt>
      <trkpt lat="42.621460" lon="0.592833">
        <ele>1790.006</ele>
        <time>2010-06-14T13:10:57Z</time>
      </trkpt>
      <trkpt lat="42.621074" lon="0.593154">
        <ele>1792.057</ele>
        <time>2010-06-14T13:11:43Z</time>
      </trkpt>
      <trkpt lat="42.621009" lon="0.593262">
        <ele>1803.084</ele>
        <time>2010-06-14T13:11:53Z</time>
      </trkpt>
      <trkpt lat="42.620988" lon="0.593627">
        <ele>1814.051</ele>
        <time>2010-06-14T13:12:20Z</time>
      </trkpt>
      <trkpt lat="42.620623" lon="0.593948">
        <ele>1799.019</ele>
        <time>2010-06-14T13:13:03Z</time>
      </trkpt>
      <trkpt lat="42.620451" lon="0.594313">
        <ele>1811.077</ele>
        <time>2010-06-14T13:13:35Z</time>
      </trkpt>
      <trkpt lat="42.620323" lon="0.594914">
        <ele>1807.079</ele>
        <time>2010-06-14T13:14:21Z</time>
      </trkpt>
      <trkpt lat="42.620258" lon="0.595729">
        <ele>1818.013</ele>
        <time>2010-06-14T13:15:22Z</time>
      </trkpt>
      <trkpt lat="42.620194" lon="0.596030">
        <ele>1821.043</ele>
        <time>2010-06-14T13:15:45Z</time>
      </trkpt>
      <trkpt lat="42.619958" lon="0.596631">
        <ele>1823.007</ele>
        <time>2010-06-14T13:16:35Z</time>
      </trkpt>
      <trkpt lat="42.619872" lon="0.596974">
        <ele>1828.006</ele>
        <time>2010-06-14T13:17:02Z</time>
      </trkpt>
      <trkpt lat="42.619765" lon="0.597510">
        <ele>1831.030</ele>
        <time>2010-06-14T13:17:43Z</time>
      </trkpt>
      <trkpt lat="42.619658" lon="0.598240">
        <ele>1839.047</ele>
        <time>2010-06-14T13:18:37Z</time>
      </trkpt>
      <trkpt lat="42.619529" lon="0.598776">
        <ele>1837.044</ele>
        <time>2010-06-14T13:19:19Z</time>
      </trkpt>
      <trkpt lat="42.619443" lon="0.599291">
        <ele>1841.062</ele>
        <time>2010-06-14T13:19:57Z</time>
      </trkpt>
      <trkpt lat="42.619250" lon="0.599356">
        <ele>1840.070</ele>
        <time>2010-06-14T13:20:18Z</time>
      </trkpt>
      <trkpt lat="42.619078" lon="0.599570">
        <ele>1840.082</ele>
        <time>2010-06-14T13:20:41Z</time>
      </trkpt>
      <trkpt lat="42.618649" lon="0.599849">
        <ele>1838.051</ele>
        <time>2010-06-14T13:21:29Z</time>
      </trkpt>
      <trkpt lat="42.618585" lon="0.599957">
        <ele>1840.001</ele>
        <time>2010-06-14T13:21:39Z</time>
      </trkpt>
      <trkpt lat="42.618563" lon="0.600107">
        <ele>1840.011</ele>
        <time>2010-06-14T13:21:50Z</time>
      </trkpt>
      <trkpt lat="42.618628" lon="0.600750">
        <ele>1848.006</ele>
        <time>2010-06-14T13:22:38Z</time>
      </trkpt>
      <trkpt lat="42.618563" lon="0.600922">
        <ele>1848.084</ele>
        <time>2010-06-14T13:22:52Z</time>
      </trkpt>
      <trkpt lat="42.618220" lon="0.601265">
        <ele>1848.081</ele>
        <time>2010-06-14T13:23:35Z</time>
      </trkpt>
      <trkpt lat="42.618070" lon="0.601501">
        <ele>1844.068</ele>
        <time>2010-06-14T13:23:57Z</time>
      </trkpt>
      <trkpt lat="42.617962" lon="0.601780">
        <ele>1847.086</ele>
        <time>2010-06-14T13:24:21Z</time>
      </trkpt>
      <trkpt lat="42.617662" lon="0.602424">
        <ele>1857.054</ele>
        <time>2010-06-14T13:25:17Z</time>
      </trkpt>
      <trkpt lat="42.617490" lon="0.602639">
        <ele>1857.036</ele>
        <time>2010-06-14T13:25:41Z</time>
      </trkpt>
      <trkpt lat="42.617126" lon="0.602810">
        <ele>1852.091</ele>
        <time>2010-06-14T13:26:19Z</time>
      </trkpt>
      <trkpt lat="42.617104" lon="0.602810">
        <ele>1852.081</ele>
        <time>2010-06-14T13:26:21Z</time>
      </trkpt>
      <trkpt lat="42.616718" lon="0.603304">
        <ele>1853.019</ele>
        <time>2010-06-14T13:27:13Z</time>
      </trkpt>
      <trkpt lat="42.616482" lon="0.603819">
        <ele>1860.006</ele>
        <time>2010-06-14T13:27:58Z</time>
      </trkpt>
      <trkpt lat="42.616460" lon="0.603948">
        <ele>1860.028</ele>
        <time>2010-06-14T13:28:09Z</time>
      </trkpt>
      <trkpt lat="42.615731" lon="0.604312">
        <ele>1865.095</ele>
        <time>2010-06-14T13:29:27Z</time>
      </trkpt>
      <trkpt lat="42.615495" lon="0.604420">
        <ele>1865.042</ele>
        <time>2010-06-14T13:29:52Z</time>
      </trkpt>
      <trkpt lat="42.615259" lon="0.604699">
        <ele>1868.040</ele>
        <time>2010-06-14T13:30:23Z</time>
      </trkpt>
      <trkpt lat="42.615430" lon="0.605407">
        <ele>1872.098</ele>
        <time>2010-06-14T13:31:18Z</time>
      </trkpt>
      <trkpt lat="42.615473" lon="0.606072">
        <ele>1885.080</ele>
        <time>2010-06-14T13:32:06Z</time>
      </trkpt>
      <trkpt lat="42.615473" lon="0.606093">
        <ele>1885.016</ele>
        <time>2010-06-14T13:32:08Z</time>
      </trkpt>
      <trkpt lat="42.615409" lon="0.606244">
        <ele>1883.076</ele>
        <time>2010-06-14T13:32:20Z</time>
      </trkpt>
      <trkpt lat="42.614872" lon="0.606394">
        <ele>1885.013</ele>
        <time>2010-06-14T13:33:16Z</time>
      </trkpt>
      <trkpt lat="42.614229" lon="0.606995">
        <ele>1890.006</ele>
        <time>2010-06-14T13:34:34Z</time>
      </trkpt>
      <trkpt lat="42.613907" lon="0.607746">
        <ele>1895.020</ele>
        <time>2010-06-14T13:35:38Z</time>
      </trkpt>
      <trkpt lat="42.613757" lon="0.608025">
        <ele>1899.047</ele>
        <time>2010-06-14T13:36:03Z</time>
      </trkpt>
      <trkpt lat="42.613392" lon="0.608561">
        <ele>1899.084</ele>
        <time>2010-06-14T13:36:56Z</time>
      </trkpt>
      <trkpt lat="42.613134" lon="0.609119">
        <ele>1902.082</ele>
        <time>2010-06-14T13:37:45Z</time>
      </trkpt>
      <trkpt lat="42.613027" lon="0.609591">
        <ele>1910.020</ele>
        <time>2010-06-14T13:38:22Z</time>
      </trkpt>
      <trkpt lat="42.613006" lon="0.610020">
        <ele>1913.012</ele>
        <time>2010-06-14T13:38:54Z</time>
      </trkpt>
      <trkpt lat="42.613006" lon="0.610728">
        <ele>1915.045</ele>
        <time>2010-06-14T13:39:46Z</time>
      </trkpt>
      <trkpt lat="42.612963" lon="0.611115">
        <ele>1916.047</ele>
        <time>2010-06-14T13:40:15Z</time>
      </trkpt>
      <trkpt lat="42.612727" lon="0.611887">
        <ele>1914.011</ele>
        <time>2010-06-14T13:41:17Z</time>
      </trkpt>
      <trkpt lat="42.612576" lon="0.612273">
        <ele>1912.006</ele>
        <time>2010-06-14T13:41:49Z</time>
      </trkpt>
      <trkpt lat="42.612512" lon="0.612574">
        <ele>1914.093</ele>
        <time>2010-06-14T13:42:11Z</time>
      </trkpt>
      <trkpt lat="42.612298" lon="0.613325">
        <ele>1920.090</ele>
        <time>2010-06-14T13:43:11Z</time>
      </trkpt>
      <trkpt lat="42.612040" lon="0.613818">
        <ele>1927.067</ele>
        <time>2010-06-14T13:43:56Z</time>
      </trkpt>
      <trkpt lat="42.612062" lon="0.613883">
        <ele>1927.015</ele>
        <time>2010-06-14T13:44:01Z</time>
      </trkpt>
      <trkpt lat="42.612040" lon="0.613990">
        <ele>1927.063</ele>
        <time>2010-06-14T13:44:09Z</time>
      </trkpt>
      <trkpt lat="42.612190" lon="0.614655">
        <ele>1937.015</ele>
        <time>2010-06-14T13:45:00Z</time>
      </trkpt>
      <trkpt lat="42.612126" lon="0.615191">
        <ele>1941.022</ele>
        <time>2010-06-14T13:45:40Z</time>
      </trkpt>
      <trkpt lat="42.612083" lon="0.615835">
        <ele>1942.062</ele>
        <time>2010-06-14T13:46:27Z</time>
      </trkpt>
      <trkpt lat="42.612019" lon="0.616179">
        <ele>1943.008</ele>
        <time>2010-06-14T13:46:54Z</time>
      </trkpt>
      <trkpt lat="42.611868" lon="0.616436">
        <ele>1944.006</ele>
        <time>2010-06-14T13:47:17Z</time>
      </trkpt>
      <trkpt lat="42.611568" lon="0.617166">
        <ele>1946.091</ele>
        <time>2010-06-14T13:48:20Z</time>
      </trkpt>
      <trkpt lat="42.611396" lon="0.617766">
        <ele>1947.038</ele>
        <time>2010-06-14T13:49:07Z</time>
      </trkpt>
      <trkpt lat="42.611332" lon="0.618238">
        <ele>1951.075</ele>
        <time>2010-06-14T13:49:43Z</time>
      </trkpt>
      <trkpt lat="42.611353" lon="0.618711">
        <ele>1952.063</ele>
        <time>2010-06-14T13:50:18Z</time>
      </trkpt>
      <trkpt lat="42.611310" lon="0.619032">
        <ele>1953.081</ele>
        <time>2010-06-14T13:50:42Z</time>
      </trkpt>
      <trkpt lat="42.611053" lon="0.619698">
        <ele>1953.083</ele>
        <time>2010-06-14T13:51:36Z</time>
      </trkpt>
      <trkpt lat="42.610731" lon="0.620427">
        <ele>1952.023</ele>
        <time>2010-06-14T13:52:40Z</time>
      </trkpt>
      <trkpt lat="42.610645" lon="0.620706">
        <ele>1952.083</ele>
        <time>2010-06-14T13:53:02Z</time>
      </trkpt>
      <trkpt lat="42.610538" lon="0.620899">
        <ele>1952.011</ele>
        <time>2010-06-14T13:53:20Z</time>
      </trkpt>
      <trkpt lat="42.610345" lon="0.621371">
        <ele>1953.006</ele>
        <time>2010-06-14T13:53:58Z</time>
      </trkpt>
      <trkpt lat="42.610281" lon="0.621736">
        <ele>1954.081</ele>
        <time>2010-06-14T13:54:27Z</time>
      </trkpt>
      <trkpt lat="42.610259" lon="0.622036">
        <ele>1954.058</ele>
        <time>2010-06-14T13:54:49Z</time>
      </trkpt>
      <trkpt lat="42.610173" lon="0.622380">
        <ele>1956.015</ele>
        <time>2010-06-14T13:55:16Z</time>
      </trkpt>
      <trkpt lat="42.610152" lon="0.622637">
        <ele>1956.013</ele>
        <time>2010-06-14T13:55:35Z</time>
      </trkpt>
      <trkpt lat="42.610173" lon="0.622723">
        <ele>1957.081</ele>
        <time>2010-06-14T13:55:41Z</time>
      </trkpt>
      <trkpt lat="42.610173" lon="0.623109">
        <ele>1958.093</ele>
        <time>2010-06-14T13:56:10Z</time>
      </trkpt>
      <trkpt lat="42.610195" lon="0.623174">
        <ele>1958.095</ele>
        <time>2010-06-14T13:56:15Z</time>
      </trkpt>
      <trkpt lat="42.610216" lon="0.623667">
        <ele>1960.049</ele>
        <time>2010-06-14T13:56:51Z</time>
      </trkpt>
      <trkpt lat="42.610259" lon="0.623968">
        <ele>1961.023</ele>
        <time>2010-06-14T13:57:14Z</time>
      </trkpt>
      <trkpt lat="42.610259" lon="0.624204">
        <ele>1962.006</ele>
        <time>2010-06-14T13:57:31Z</time>
      </trkpt>
      <trkpt lat="42.610259" lon="0.624547">
        <ele>1964.028</ele>
        <time>2010-06-14T13:57:57Z</time>
      </trkpt>
      <trkpt lat="42.610302" lon="0.625126">
        <ele>1968.025</ele>
        <time>2010-06-14T13:58:40Z</time>
      </trkpt>
      <trkpt lat="42.610323" lon="0.625470">
        <ele>1973.052</ele>
        <time>2010-06-14T13:59:05Z</time>
      </trkpt>
      <trkpt lat="42.610495" lon="0.625770">
        <ele>1977.050</ele>
        <time>2010-06-14T13:59:32Z</time>
      </trkpt>
      <trkpt lat="42.610581" lon="0.625942">
        <ele>1977.038</ele>
        <time>2010-06-14T13:59:48Z</time>
      </trkpt>
      <trkpt lat="42.610645" lon="0.626178">
        <ele>1980.030</ele>
        <time>2010-06-14T14:00:07Z</time>
      </trkpt>
      <trkpt lat="42.610645" lon="0.626349">
        <ele>1983.038</ele>
        <time>2010-06-14T14:00:20Z</time>
      </trkpt>
      <trkpt lat="42.610495" lon="0.626521">
        <ele>1983.070</ele>
        <time>2010-06-14T14:00:39Z</time>
      </trkpt>
      <trkpt lat="42.610323" lon="0.626478">
        <ele>1984.017</ele>
        <time>2010-06-14T14:00:57Z</time>
      </trkpt>
      <trkpt lat="42.610195" lon="0.626371">
        <ele>1984.006</ele>
        <time>2010-06-14T14:01:11Z</time>
      </trkpt>
      <trkpt lat="42.610087" lon="0.626392">
        <ele>1984.092</ele>
        <time>2010-06-14T14:01:22Z</time>
      </trkpt>
      <trkpt lat="42.610002" lon="0.626478">
        <ele>1984.019</ele>
        <time>2010-06-14T14:01:33Z</time>
      </trkpt>
      <trkpt lat="42.610002" lon="0.627079">
        <ele>1994.066</ele>
        <time>2010-06-14T14:02:18Z</time>
      </trkpt>
      <trkpt lat="42.609959" lon="0.627294">
        <ele>1998.024</ele>
        <time>2010-06-14T14:02:34Z</time>
      </trkpt>
      <trkpt lat="42.609873" lon="0.627422">
        <ele>2002.012</ele>
        <time>2010-06-14T14:02:46Z</time>
      </trkpt>
      <trkpt lat="42.609851" lon="0.627487">
        <ele>2002.074</ele>
        <time>2010-06-14T14:02:51Z</time>
      </trkpt>
      <trkpt lat="42.609701" lon="0.627701">
        <ele>2006.082</ele>
        <time>2010-06-14T14:03:13Z</time>
      </trkpt>
      <trkpt lat="42.609336" lon="0.627916">
        <ele>2006.043</ele>
        <time>2010-06-14T14:03:53Z</time>
      </trkpt>
      <trkpt lat="42.609293" lon="0.628002">
        <ele>2010.017</ele>
        <time>2010-06-14T14:04:00Z</time>
      </trkpt>
      <trkpt lat="42.609293" lon="0.628130">
        <ele>2010.006</ele>
        <time>2010-06-14T14:04:11Z</time>
      </trkpt>
      <trkpt lat="42.609251" lon="0.628345">
        <ele>2013.047</ele>
        <time>2010-06-14T14:04:27Z</time>
      </trkpt>
      <trkpt lat="42.609165" lon="0.628538">
        <ele>2016.034</ele>
        <time>2010-06-14T14:04:44Z</time>
      </trkpt>
      <trkpt lat="42.609100" lon="0.628796">
        <ele>2020.011</ele>
        <time>2010-06-14T14:05:03Z</time>
      </trkpt>
      <trkpt lat="42.609100" lon="0.628924">
        <ele>2020.029</ele>
        <time>2010-06-14T14:05:13Z</time>
      </trkpt>
      <trkpt lat="42.608993" lon="0.629118">
        <ele>2024.097</ele>
        <time>2010-06-14T14:05:30Z</time>
      </trkpt>
      <trkpt lat="42.608907" lon="0.629139">
        <ele>2024.079</ele>
        <time>2010-06-14T14:05:40Z</time>
      </trkpt>
      <trkpt lat="42.608778" lon="0.629289">
        <ele>2024.044</ele>
        <time>2010-06-14T14:05:57Z</time>
      </trkpt>
      <trkpt lat="42.608714" lon="0.629482">
        <ele>2028.005</ele>
        <time>2010-06-14T14:06:13Z</time>
      </trkpt>
      <trkpt lat="42.608564" lon="0.629740">
        <ele>2032.015</ele>
        <time>2010-06-14T14:06:36Z</time>
      </trkpt>
      <trkpt lat="42.608542" lon="0.629804">
        <ele>2032.006</ele>
        <time>2010-06-14T14:06:42Z</time>
      </trkpt>
      <trkpt lat="42.608435" lon="0.629954">
        <ele>2038.023</ele>
        <time>2010-06-14T14:06:56Z</time>
      </trkpt>
      <trkpt lat="42.608349" lon="0.630169">
        <ele>2044.080</ele>
        <time>2010-06-14T14:07:14Z</time>
      </trkpt>
      <trkpt lat="42.608306" lon="0.630491">
        <ele>2050.027</ele>
        <time>2010-06-14T14:07:39Z</time>
      </trkpt>
      <trkpt lat="42.608199" lon="0.630748">
        <ele>2056.095</ele>
        <time>2010-06-14T14:08:00Z</time>
      </trkpt>
      <trkpt lat="42.607899" lon="0.631199">
        <ele>2060.033</ele>
        <time>2010-06-14T14:08:46Z</time>
      </trkpt>
      <trkpt lat="42.607770" lon="0.631456">
        <ele>2064.055</ele>
        <time>2010-06-14T14:09:09Z</time>
      </trkpt>
      <trkpt lat="42.607727" lon="0.631800">
        <ele>2070.075</ele>
        <time>2010-06-14T14:09:34Z</time>
      </trkpt>
      <trkpt lat="42.607598" lon="0.632100">
        <ele>2079.028</ele>
        <time>2010-06-14T14:09:59Z</time>
      </trkpt>
      <trkpt lat="42.607577" lon="0.632422">
        <ele>2083.020</ele>
        <time>2010-06-14T14:10:23Z</time>
      </trkpt>
      <trkpt lat="42.607598" lon="0.632551">
        <ele>2083.006</ele>
        <time>2010-06-14T14:10:34Z</time>
      </trkpt>
      <trkpt lat="42.607534" lon="0.632787">
        <ele>2085.046</ele>
        <time>2010-06-14T14:10:52Z</time>
      </trkpt>
      <trkpt lat="42.607427" lon="0.633194">
        <ele>2087.093</ele>
        <time>2010-06-14T14:11:24Z</time>
      </trkpt>
      <trkpt lat="42.607362" lon="0.633302">
        <ele>2088.010</ele>
        <time>2010-06-14T14:11:33Z</time>
      </trkpt>
      <trkpt lat="42.607341" lon="0.633409">
        <ele>2091.038</ele>
        <time>2010-06-14T14:11:43Z</time>
      </trkpt>
      <trkpt lat="42.607298" lon="0.633495">
        <ele>2091.066</ele>
        <time>2010-06-14T14:11:49Z</time>
      </trkpt>
      <trkpt lat="42.607298" lon="0.633559">
        <ele>2091.058</ele>
        <time>2010-06-14T14:11:54Z</time>
      </trkpt>
      <trkpt lat="42.607362" lon="0.633752">
        <ele>2090.058</ele>
        <time>2010-06-14T14:12:10Z</time>
      </trkpt>
      <trkpt lat="42.607362" lon="0.633903">
        <ele>2090.052</ele>
        <time>2010-06-14T14:12:21Z</time>
      </trkpt>
      <trkpt lat="42.607319" lon="0.634224">
        <ele>2093.017</ele>
        <time>2010-06-14T14:12:45Z</time>
      </trkpt>
      <trkpt lat="42.607319" lon="0.634310">
        <ele>2094.006</ele>
        <time>2010-06-14T14:12:51Z</time>
      </trkpt>
      <trkpt lat="42.607298" lon="0.634439">
        <ele>2094.094</ele>
        <time>2010-06-14T14:13:01Z</time>
      </trkpt>
      <trkpt lat="42.607255" lon="0.634525">
        <ele>2094.031</ele>
        <time>2010-06-14T14:13:09Z</time>
      </trkpt>
      <trkpt lat="42.607276" lon="0.634546">
        <ele>2094.078</ele>
        <time>2010-06-14T14:13:12Z</time>
      </trkpt>
      <trkpt lat="42.607276" lon="0.634696">
        <ele>2096.086</ele>
        <time>2010-06-14T14:13:23Z</time>
      </trkpt>
      <trkpt lat="42.607255" lon="0.634782">
        <ele>2096.034</ele>
        <time>2010-06-14T14:13:30Z</time>
      </trkpt>
      <trkpt lat="42.607255" lon="0.634825">
        <ele>2096.086</ele>
        <time>2010-06-14T14:13:33Z</time>
      </trkpt>
      <trkpt lat="42.607105" lon="0.635147">
        <ele>2100.086</ele>
        <time>2010-06-14T14:14:01Z</time>
      </trkpt>
      <trkpt lat="42.606955" lon="0.635533">
        <ele>2101.060</ele>
        <time>2010-06-14T14:14:33Z</time>
      </trkpt>
      <trkpt lat="42.606890" lon="0.635855">
        <ele>2102.026</ele>
        <time>2010-06-14T14:14:57Z</time>
      </trkpt>
      <trkpt lat="42.606804" lon="0.636005">
        <ele>2103.006</ele>
        <time>2010-06-14T14:15:11Z</time>
      </trkpt>
      <trkpt lat="42.606719" lon="0.636306">
        <ele>2105.077</ele>
        <time>2010-06-14T14:15:34Z</time>
      </trkpt>
      <trkpt lat="42.606611" lon="0.636456">
        <ele>2105.054</ele>
        <time>2010-06-14T14:15:50Z</time>
      </trkpt>
      <trkpt lat="42.606568" lon="0.636563">
        <ele>2107.021</ele>
        <time>2010-06-14T14:15:59Z</time>
      </trkpt>
      <trkpt lat="42.606568" lon="0.636585">
        <ele>2107.089</ele>
        <time>2010-06-14T14:16:02Z</time>
      </trkpt>
      <trkpt lat="42.606611" lon="0.636671">
        <ele>2107.017</ele>
        <time>2010-06-14T14:16:09Z</time>
      </trkpt>
      <trkpt lat="42.606611" lon="0.636756">
        <ele>2107.079</ele>
        <time>2010-06-14T14:16:15Z</time>
      </trkpt>
      <trkpt lat="42.606633" lon="0.636885">
        <ele>2110.078</ele>
        <time>2010-06-14T14:16:25Z</time>
      </trkpt>
      <trkpt lat="42.606633" lon="0.637014">
        <ele>2110.033</ele>
        <time>2010-06-14T14:16:34Z</time>
      </trkpt>
      <trkpt lat="42.606633" lon="0.637186">
        <ele>2114.026</ele>
        <time>2010-06-14T14:16:47Z</time>
      </trkpt>
      <trkpt lat="42.606611" lon="0.637293">
        <ele>2114.006</ele>
        <time>2010-06-14T14:16:56Z</time>
      </trkpt>
      <trkpt lat="42.606611" lon="0.637572">
        <ele>2118.026</ele>
        <time>2010-06-14T14:17:16Z</time>
      </trkpt>
      <trkpt lat="42.606590" lon="0.637658">
        <ele>2122.023</ele>
        <time>2010-06-14T14:17:22Z</time>
      </trkpt>
      <trkpt lat="42.606611" lon="0.637872">
        <ele>2122.080</ele>
        <time>2010-06-14T14:17:38Z</time>
      </trkpt>
      <trkpt lat="42.606590" lon="0.637980">
        <ele>2127.088</ele>
        <time>2010-06-14T14:17:47Z</time>
      </trkpt>
      <trkpt lat="42.606590" lon="0.638173">
        <ele>2127.086</ele>
        <time>2010-06-14T14:18:00Z</time>
      </trkpt>
      <trkpt lat="42.606654" lon="0.638366">
        <ele>2131.058</ele>
        <time>2010-06-14T14:18:16Z</time>
      </trkpt>
      <trkpt lat="42.606697" lon="0.638430">
        <ele>2131.071</ele>
        <time>2010-06-14T14:18:23Z</time>
      </trkpt>
      <trkpt lat="42.606697" lon="0.638516">
        <ele>2135.041</ele>
        <time>2010-06-14T14:18:29Z</time>
      </trkpt>
      <trkpt lat="42.606697" lon="0.638731">
        <ele>2135.015</ele>
        <time>2010-06-14T14:18:45Z</time>
      </trkpt>
      <trkpt lat="42.606761" lon="0.638945">
        <ele>2139.006</ele>
        <time>2010-06-14T14:19:01Z</time>
      </trkpt>
      <trkpt lat="42.607148" lon="0.639825">
        <ele>2152.046</ele>
        <time>2010-06-14T14:20:17Z</time>
      </trkpt>
      <trkpt lat="42.607276" lon="0.640039">
        <ele>2155.023</ele>
        <time>2010-06-14T14:20:38Z</time>
      </trkpt>
      <trkpt lat="42.607319" lon="0.640147">
        <ele>2159.040</ele>
        <time>2010-06-14T14:20:46Z</time>
      </trkpt>
      <trkpt lat="42.607405" lon="0.640254">
        <ele>2162.018</ele>
        <time>2010-06-14T14:20:59Z</time>
      </trkpt>
      <trkpt lat="42.607448" lon="0.640383">
        <ele>2162.016</ele>
        <time>2010-06-14T14:21:08Z</time>
      </trkpt>
      <trkpt lat="42.607491" lon="0.640404">
        <ele>2162.038</ele>
        <time>2010-06-14T14:21:14Z</time>
      </trkpt>
      <trkpt lat="42.607598" lon="0.640383">
        <ele>2162.096</ele>
        <time>2010-06-14T14:21:24Z</time>
      </trkpt>
      <trkpt lat="42.607641" lon="0.640297">
        <ele>2166.031</ele>
        <time>2010-06-14T14:21:32Z</time>
      </trkpt>
      <trkpt lat="42.607663" lon="0.640211">
        <ele>2166.024</ele>
        <time>2010-06-14T14:21:38Z</time>
      </trkpt>
      <trkpt lat="42.607663" lon="0.640104">
        <ele>2163.006</ele>
        <time>2010-06-14T14:21:46Z</time>
      </trkpt>
      <trkpt lat="42.607641" lon="0.640039">
        <ele>2163.068</ele>
        <time>2010-06-14T14:21:51Z</time>
      </trkpt>
      <trkpt lat="42.607577" lon="0.639932">
        <ele>2158.085</ele>
        <time>2010-06-14T14:22:02Z</time>
      </trkpt>
      <trkpt lat="42.607620" lon="0.639954">
        <ele>2158.092</ele>
        <time>2010-06-14T14:22:07Z</time>
      </trkpt>
      <trkpt lat="42.607641" lon="0.640233">
        <ele>2166.090</ele>
        <time>2010-06-14T14:22:28Z</time>
      </trkpt>
      <trkpt lat="42.607684" lon="0.640318">
        <ele>2166.028</ele>
        <time>2010-06-14T14:22:34Z</time>
      </trkpt>
      <trkpt lat="42.607791" lon="0.640383">
        <ele>2166.040</ele>
        <time>2010-06-14T14:22:47Z</time>
      </trkpt>
      <trkpt lat="42.607834" lon="0.640426">
        <ele>2169.032</ele>
        <time>2010-06-14T14:22:52Z</time>
      </trkpt>
      <trkpt lat="42.607856" lon="0.640533">
        <ele>2169.092</ele>
        <time>2010-06-14T14:23:00Z</time>
      </trkpt>
      <trkpt lat="42.607920" lon="0.640619">
        <ele>2174.011</ele>
        <time>2010-06-14T14:23:09Z</time>
      </trkpt>
      <trkpt lat="42.607920" lon="0.640705">
        <ele>2177.006</ele>
        <time>2010-06-14T14:23:15Z</time>
      </trkpt>
      <trkpt lat="42.607985" lon="0.640855">
        <ele>2177.082</ele>
        <time>2010-06-14T14:23:28Z</time>
      </trkpt>
      <trkpt lat="42.608006" lon="0.640941">
        <ele>2177.069</ele>
        <time>2010-06-14T14:23:35Z</time>
      </trkpt>
      <trkpt lat="42.608049" lon="0.641005">
        <ele>2179.086</ele>
        <time>2010-06-14T14:23:41Z</time>
      </trkpt>
      <trkpt lat="42.608242" lon="0.641177">
        <ele>2185.014</ele>
        <time>2010-06-14T14:24:05Z</time>
      </trkpt>
      <trkpt lat="42.608414" lon="0.641327">
        <ele>2187.042</ele>
        <time>2010-06-14T14:24:25Z</time>
      </trkpt>
      <trkpt lat="42.608478" lon="0.641370">
        <ele>2193.064</ele>
        <time>2010-06-14T14:24:32Z</time>
      </trkpt>
      <trkpt lat="42.608542" lon="0.641477">
        <ele>2193.034</ele>
        <time>2010-06-14T14:24:41Z</time>
      </trkpt>
      <trkpt lat="42.608585" lon="0.641627">
        <ele>2195.055</ele>
        <time>2010-06-14T14:24:54Z</time>
      </trkpt>
      <trkpt lat="42.608585" lon="0.641713">
        <ele>2195.010</ele>
        <time>2010-06-14T14:25:01Z</time>
      </trkpt>
      <trkpt lat="42.608650" lon="0.641885">
        <ele>2196.006</ele>
        <time>2010-06-14T14:25:15Z</time>
      </trkpt>
      <trkpt lat="42.608714" lon="0.641949">
        <ele>2196.022</ele>
        <time>2010-06-14T14:25:23Z</time>
      </trkpt>
      <trkpt lat="42.608757" lon="0.641949">
        <ele>2199.019</ele>
        <time>2010-06-14T14:25:26Z</time>
      </trkpt>
      <trkpt lat="42.608864" lon="0.642035">
        <ele>2199.056</ele>
        <time>2010-06-14T14:25:39Z</time>
      </trkpt>
      <trkpt lat="42.609015" lon="0.642142">
        <ele>2200.064</ele>
        <time>2010-06-14T14:25:56Z</time>
      </trkpt>
      <trkpt lat="42.609079" lon="0.642142">
        <ele>2201.012</ele>
        <time>2010-06-14T14:26:03Z</time>
      </trkpt>
      <trkpt lat="42.609272" lon="0.642056">
        <ele>2201.054</ele>
        <time>2010-06-14T14:26:23Z</time>
      </trkpt>
      <trkpt lat="42.609379" lon="0.641971">
        <ele>2204.018</ele>
        <time>2010-06-14T14:26:36Z</time>
      </trkpt>
      <trkpt lat="42.609379" lon="0.642078">
        <ele>2204.098</ele>
        <time>2010-06-14T14:26:44Z</time>
      </trkpt>
      <trkpt lat="42.609422" lon="0.642164">
        <ele>2202.017</ele>
        <time>2010-06-14T14:26:50Z</time>
      </trkpt>
      <trkpt lat="42.609487" lon="0.642185">
        <ele>2202.006</ele>
        <time>2010-06-14T14:26:58Z</time>
      </trkpt>
      <trkpt lat="42.609530" lon="0.642164">
        <ele>2202.090</ele>
        <time>2010-06-14T14:27:03Z</time>
      </trkpt>
      <trkpt lat="42.609594" lon="0.642271">
        <ele>2205.057</ele>
        <time>2010-06-14T14:27:13Z</time>
      </trkpt>
      <trkpt lat="42.609572" lon="0.642314">
        <ele>2202.054</ele>
        <time>2010-06-14T14:27:17Z</time>
      </trkpt>
      <trkpt lat="42.609572" lon="0.642421">
        <ele>2201.052</ele>
        <time>2010-06-14T14:27:24Z</time>
      </trkpt>
      <trkpt lat="42.609572" lon="0.642507">
        <ele>2201.080</ele>
        <time>2010-06-14T14:27:30Z</time>
      </trkpt>
      <trkpt lat="42.609680" lon="0.642679">
        <ele>2203.092</ele>
        <time>2010-06-14T14:27:46Z</time>
      </trkpt>
      <trkpt lat="42.609701" lon="0.642679">
        <ele>2203.019</ele>
        <time>2010-06-14T14:27:49Z</time>
      </trkpt>
      <trkpt lat="42.609744" lon="0.642743">
        <ele>2203.009</ele>
        <time>2010-06-14T14:27:56Z</time>
      </trkpt>
      <trkpt lat="42.609830" lon="0.642786">
        <ele>2203.019</ele>
        <time>2010-06-14T14:28:05Z</time>
      </trkpt>
      <trkpt lat="42.609851" lon="0.642786">
        <ele>2203.006</ele>
        <time>2010-06-14T14:28:07Z</time>
      </trkpt>
      <trkpt lat="42.609894" lon="0.642872">
        <ele>2207.030</ele>
        <time>2010-06-14T14:28:15Z</time>
      </trkpt>
      <trkpt lat="42.609894" lon="0.642915">
        <ele>2207.097</ele>
        <time>2010-06-14T14:28:18Z</time>
      </trkpt>
      <trkpt lat="42.609959" lon="0.643022">
        <ele>2207.064</ele>
        <time>2010-06-14T14:28:27Z</time>
      </trkpt>
      <trkpt lat="42.609937" lon="0.643044">
        <ele>2207.052</ele>
        <time>2010-06-14T14:28:31Z</time>
      </trkpt>
      <trkpt lat="42.609959" lon="0.643086">
        <ele>2207.030</ele>
        <time>2010-06-14T14:28:34Z</time>
      </trkpt>
      <trkpt lat="42.610109" lon="0.643387">
        <ele>2207.022</ele>
        <time>2010-06-14T14:29:02Z</time>
      </trkpt>
      <trkpt lat="42.610173" lon="0.643580">
        <ele>2212.054</ele>
        <time>2010-06-14T14:29:17Z</time>
      </trkpt>
      <trkpt lat="42.610259" lon="0.643687">
        <ele>2212.056</ele>
        <time>2010-06-14T14:29:28Z</time>
      </trkpt>
      <trkpt lat="42.610302" lon="0.643687">
        <ele>2212.011</ele>
        <time>2010-06-14T14:29:33Z</time>
      </trkpt>
      <trkpt lat="42.610452" lon="0.643752">
        <ele>2218.006</ele>
        <time>2010-06-14T14:29:49Z</time>
      </trkpt>
      <trkpt lat="42.610474" lon="0.643773">
        <ele>2218.044</ele>
        <time>2010-06-14T14:29:52Z</time>
      </trkpt>
      <trkpt lat="42.610538" lon="0.643880">
        <ele>2218.021</ele>
        <time>2010-06-14T14:30:01Z</time>
      </trkpt>
      <trkpt lat="42.610559" lon="0.643988">
        <ele>2218.068</ele>
        <time>2010-06-14T14:30:09Z</time>
      </trkpt>
      <trkpt lat="42.610581" lon="0.643966">
        <ele>2218.026</ele>
        <time>2010-06-14T14:30:13Z</time>
      </trkpt>
      <trkpt lat="42.610602" lon="0.643923">
        <ele>2218.054</ele>
        <time>2010-06-14T14:30:16Z</time>
      </trkpt>
      <trkpt lat="42.610538" lon="0.643859">
        <ele>2218.086</ele>
        <time>2010-06-14T14:30:24Z</time>
      </trkpt>
      <trkpt lat="42.610452" lon="0.643859">
        <ele>2218.016</ele>
        <time>2010-06-14T14:30:33Z</time>
      </trkpt>
      <trkpt lat="42.610388" lon="0.643859">
        <ele>2212.076</ele>
        <time>2010-06-14T14:30:38Z</time>
      </trkpt>
      <trkpt lat="42.610345" lon="0.643837">
        <ele>2212.013</ele>
        <time>2010-06-14T14:30:44Z</time>
      </trkpt>
      <trkpt lat="42.610216" lon="0.644009">
        <ele>2212.006</ele>
        <time>2010-06-14T14:31:02Z</time>
      </trkpt>
      <trkpt lat="42.610152" lon="0.644159">
        <ele>2212.020</ele>
        <time>2010-06-14T14:31:15Z</time>
      </trkpt>
      <trkpt lat="42.609916" lon="0.644116">
        <ele>2207.047</ele>
        <time>2010-06-14T14:31:39Z</time>
      </trkpt>
      <trkpt lat="42.609701" lon="0.644159">
        <ele>2204.034</ele>
        <time>2010-06-14T14:31:59Z</time>
      </trkpt>
      <trkpt lat="42.609615" lon="0.644331">
        <ele>2204.052</ele>
        <time>2010-06-14T14:32:15Z</time>
      </trkpt>
      <trkpt lat="42.609530" lon="0.644288">
        <ele>2204.070</ele>
        <time>2010-06-14T14:32:25Z</time>
      </trkpt>
      <trkpt lat="42.609465" lon="0.644524">
        <ele>2204.072</ele>
        <time>2010-06-14T14:32:42Z</time>
      </trkpt>
      <trkpt lat="42.609444" lon="0.644503">
        <ele>2204.039</ele>
        <time>2010-06-14T14:32:45Z</time>
      </trkpt>
      <trkpt lat="42.609422" lon="0.644524">
        <ele>2204.001</ele>
        <time>2010-06-14T14:32:49Z</time>
      </trkpt>
      <trkpt lat="42.609401" lon="0.644524">
        <ele>2204.021</ele>
        <time>2010-06-14T14:32:50Z</time>
      </trkpt>
      <trkpt lat="42.609315" lon="0.644610">
        <ele>2204.006</ele>
        <time>2010-06-14T14:33:01Z</time>
      </trkpt>
      <trkpt lat="42.609208" lon="0.644631">
        <ele>2207.012</ele>
        <time>2010-06-14T14:33:11Z</time>
      </trkpt>
      <trkpt lat="42.609015" lon="0.644610">
        <ele>2212.029</ele>
        <time>2010-06-14T14:33:32Z</time>
      </trkpt>
      <trkpt lat="42.608929" lon="0.644653">
        <ele>2212.086</ele>
        <time>2010-06-14T14:33:41Z</time>
      </trkpt>
      <trkpt lat="42.608907" lon="0.644631">
        <ele>2212.054</ele>
        <time>2010-06-14T14:33:43Z</time>
      </trkpt>
      <trkpt lat="42.608843" lon="0.644846">
        <ele>2212.032</ele>
        <time>2010-06-14T14:34:00Z</time>
      </trkpt>
      <trkpt lat="42.608843" lon="0.645039">
        <ele>2212.014</ele>
        <time>2010-06-14T14:34:15Z</time>
      </trkpt>
      <trkpt lat="42.608757" lon="0.645168">
        <ele>2214.062</ele>
        <time>2010-06-14T14:34:27Z</time>
      </trkpt>
      <trkpt lat="42.608693" lon="0.645168">
        <ele>2221.083</ele>
        <time>2010-06-14T14:34:34Z</time>
      </trkpt>
      <trkpt lat="42.608628" lon="0.645082">
        <ele>2220.011</ele>
        <time>2010-06-14T14:34:43Z</time>
      </trkpt>
      <trkpt lat="42.608564" lon="0.644889">
        <ele>2220.006</ele>
        <time>2010-06-14T14:34:59Z</time>
      </trkpt>
      <trkpt lat="42.608585" lon="0.644889">
        <ele>2220.015</ele>
        <time>2010-06-14T14:35:01Z</time>
      </trkpt>
      <trkpt lat="42.608435" lon="0.644867">
        <ele>2228.072</ele>
        <time>2010-06-14T14:35:15Z</time>
      </trkpt>
      <trkpt lat="42.608263" lon="0.645146">
        <ele>2230.099</ele>
        <time>2010-06-14T14:35:42Z</time>
      </trkpt>
      <trkpt lat="42.608221" lon="0.645254">
        <ele>2230.087</ele>
        <time>2010-06-14T14:35:52Z</time>
      </trkpt>
      <trkpt lat="42.608178" lon="0.645297">
        <ele>2237.045</ele>
        <time>2010-06-14T14:35:56Z</time>
      </trkpt>
      <trkpt lat="42.608092" lon="0.645318">
        <ele>2237.067</ele>
        <time>2010-06-14T14:36:06Z</time>
      </trkpt>
      <trkpt lat="42.608006" lon="0.645425">
        <ele>2239.066</ele>
        <time>2010-06-14T14:36:17Z</time>
      </trkpt>
      <trkpt lat="42.608006" lon="0.645533">
        <ele>2239.029</ele>
        <time>2010-06-14T14:36:25Z</time>
      </trkpt>
      <trkpt lat="42.607963" lon="0.645511">
        <ele>2239.021</ele>
        <time>2010-06-14T14:36:30Z</time>
      </trkpt>
      <trkpt lat="42.607899" lon="0.645683">
        <ele>2246.006</ele>
        <time>2010-06-14T14:36:44Z</time>
      </trkpt>
      <trkpt lat="42.607813" lon="0.645769">
        <ele>2248.095</ele>
        <time>2010-06-14T14:36:54Z</time>
      </trkpt>
      <trkpt lat="42.607791" lon="0.645833">
        <ele>2248.082</ele>
        <time>2010-06-14T14:37:00Z</time>
      </trkpt>
      <trkpt lat="42.607749" lon="0.645833">
        <ele>2248.079</ele>
        <time>2010-06-14T14:37:03Z</time>
      </trkpt>
      <trkpt lat="42.607706" lon="0.645854">
        <ele>2248.027</ele>
        <time>2010-06-14T14:37:08Z</time>
      </trkpt>
      <trkpt lat="42.607620" lon="0.645833">
        <ele>2255.035</ele>
        <time>2010-06-14T14:37:18Z</time>
      </trkpt>
      <trkpt lat="42.607534" lon="0.645876">
        <ele>2255.097</ele>
        <time>2010-06-14T14:37:27Z</time>
      </trkpt>
      <trkpt lat="42.607448" lon="0.646048">
        <ele>2258.085</ele>
        <time>2010-06-14T14:37:41Z</time>
      </trkpt>
      <trkpt lat="42.607448" lon="0.646219">
        <ele>2258.089</ele>
        <time>2010-06-14T14:37:54Z</time>
      </trkpt>
      <trkpt lat="42.607427" lon="0.646284">
        <ele>2260.017</ele>
        <time>2010-06-14T14:38:00Z</time>
      </trkpt>
      <trkpt lat="42.607384" lon="0.646327">
        <ele>2260.006</ele>
        <time>2010-06-14T14:38:04Z</time>
      </trkpt>
      <trkpt lat="42.607405" lon="0.646520">
        <ele>2260.087</ele>
        <time>2010-06-14T14:38:20Z</time>
      </trkpt>
      <trkpt lat="42.607362" lon="0.646563">
        <ele>2263.044</ele>
        <time>2010-06-14T14:38:24Z</time>
      </trkpt>
      <trkpt lat="42.607362" lon="0.646691">
        <ele>2263.071</ele>
        <time>2010-06-14T14:38:34Z</time>
      </trkpt>
      <trkpt lat="42.607212" lon="0.646820">
        <ele>2276.029</ele>
        <time>2010-06-14T14:38:52Z</time>
      </trkpt>
      <trkpt lat="42.607105" lon="0.647078">
        <ele>2276.097</ele>
        <time>2010-06-14T14:39:14Z</time>
      </trkpt>
      <trkpt lat="42.607040" lon="0.647271">
        <ele>2289.069</ele>
        <time>2010-06-14T14:39:30Z</time>
      </trkpt>
      <trkpt lat="42.606997" lon="0.647249">
        <ele>2289.017</ele>
        <time>2010-06-14T14:39:33Z</time>
      </trkpt>
      <trkpt lat="42.606847" lon="0.647399">
        <ele>2294.087</ele>
        <time>2010-06-14T14:39:52Z</time>
      </trkpt>
      <trkpt lat="42.606783" lon="0.647421">
        <ele>2303.015</ele>
        <time>2010-06-14T14:40:00Z</time>
      </trkpt>
      <trkpt lat="42.606719" lon="0.647528">
        <ele>2303.006</ele>
        <time>2010-06-14T14:40:10Z</time>
      </trkpt>
      <trkpt lat="42.606719" lon="0.647550">
        <ele>2303.050</ele>
        <time>2010-06-14T14:40:11Z</time>
      </trkpt>
      <trkpt lat="42.606697" lon="0.647614">
        <ele>2303.017</ele>
        <time>2010-06-14T14:40:17Z</time>
      </trkpt>
      <trkpt lat="42.606654" lon="0.647678">
        <ele>2308.034</ele>
        <time>2010-06-14T14:40:22Z</time>
      </trkpt>
      <trkpt lat="42.606461" lon="0.647936">
        <ele>2322.072</ele>
        <time>2010-06-14T14:40:49Z</time>
      </trkpt>
      <trkpt lat="42.606440" lon="0.647936">
        <ele>2322.070</ele>
        <time>2010-06-14T14:40:52Z</time>
      </trkpt>
      <trkpt lat="42.606375" lon="0.648000">
        <ele>2322.092</ele>
        <time>2010-06-14T14:40:59Z</time>
      </trkpt>
      <trkpt lat="42.606289" lon="0.648043">
        <ele>2322.083</ele>
        <time>2010-06-14T14:41:08Z</time>
      </trkpt>
      <trkpt lat="42.606225" lon="0.648108">
        <ele>2331.025</ele>
        <time>2010-06-14T14:41:16Z</time>
      </trkpt>
      <trkpt lat="42.606204" lon="0.648086">
        <ele>2331.017</ele>
        <time>2010-06-14T14:41:20Z</time>
      </trkpt>
      <trkpt lat="42.606010" lon="0.648215">
        <ele>2335.006</ele>
        <time>2010-06-14T14:41:42Z</time>
      </trkpt>
      <trkpt lat="42.605860" lon="0.648365">
        <ele>2343.057</ele>
        <time>2010-06-14T14:41:59Z</time>
      </trkpt>
      <trkpt lat="42.605817" lon="0.648451">
        <ele>2343.054</ele>
        <time>2010-06-14T14:42:07Z</time>
      </trkpt>
      <trkpt lat="42.605817" lon="0.648494">
        <ele>2347.061</ele>
        <time>2010-06-14T14:42:11Z</time>
      </trkpt>
      <trkpt lat="42.605753" lon="0.648708">
        <ele>2347.059</ele>
        <time>2010-06-14T14:42:28Z</time>
      </trkpt>
      <trkpt lat="42.605624" lon="0.648923">
        <ele>2357.047</ele>
        <time>2010-06-14T14:42:47Z</time>
      </trkpt>
      <trkpt lat="42.605603" lon="0.649245">
        <ele>2359.059</ele>
        <time>2010-06-14T14:43:12Z</time>
      </trkpt>
      <trkpt lat="42.605624" lon="0.649288">
        <ele>2359.052</ele>
        <time>2010-06-14T14:43:16Z</time>
      </trkpt>
      <trkpt lat="42.605624" lon="0.649309">
        <ele>2362.053</ele>
        <time>2010-06-14T14:43:17Z</time>
      </trkpt>
      <trkpt lat="42.605581" lon="0.649524">
        <ele>2362.008</ele>
        <time>2010-06-14T14:43:33Z</time>
      </trkpt>
      <trkpt lat="42.605603" lon="0.649567">
        <ele>2362.006</ele>
        <time>2010-06-14T14:43:38Z</time>
      </trkpt>
      <trkpt lat="42.605624" lon="0.649717">
        <ele>2364.064</ele>
        <time>2010-06-14T14:43:49Z</time>
      </trkpt>
      <trkpt lat="42.605603" lon="0.649867">
        <ele>2368.061</ele>
        <time>2010-06-14T14:44:00Z</time>
      </trkpt>
      <trkpt lat="42.605646" lon="0.649974">
        <ele>2368.088</ele>
        <time>2010-06-14T14:44:08Z</time>
      </trkpt>
      <trkpt lat="42.605603" lon="0.650125">
        <ele>2368.056</ele>
        <time>2010-06-14T14:44:21Z</time>
      </trkpt>
      <trkpt lat="42.605603" lon="0.650146">
        <ele>2373.074</ele>
        <time>2010-06-14T14:44:23Z</time>
      </trkpt>
      <trkpt lat="42.605560" lon="0.650275">
        <ele>2373.036</ele>
        <time>2010-06-14T14:44:32Z</time>
      </trkpt>
      <trkpt lat="42.605453" lon="0.650425">
        <ele>2378.046</ele>
        <time>2010-06-14T14:44:48Z</time>
      </trkpt>
      <trkpt lat="42.605388" lon="0.650661">
        <ele>2383.088</ele>
        <time>2010-06-14T14:45:07Z</time>
      </trkpt>
      <trkpt lat="42.605345" lon="0.650640">
        <ele>2383.016</ele>
        <time>2010-06-14T14:45:12Z</time>
      </trkpt>
      <trkpt lat="42.605259" lon="0.650704">
        <ele>2389.006</ele>
        <time>2010-06-14T14:45:22Z</time>
      </trkpt>
      <trkpt lat="42.606611" lon="0.650704">
        <ele>2382.043</ele>
        <time>2010-06-14T14:47:37Z</time>
      </trkpt>
      <trkpt lat="42.606332" lon="0.650940">
        <ele>2380.050</ele>
        <time>2010-06-14T14:48:09Z</time>
      </trkpt>
      <trkpt lat="42.605989" lon="0.651069">
        <ele>2389.037</ele>
        <time>2010-06-14T14:48:44Z</time>
      </trkpt>
      <trkpt lat="42.605817" lon="0.651240">
        <ele>2390.035</ele>
        <time>2010-06-14T14:49:06Z</time>
      </trkpt>
      <trkpt lat="42.605517" lon="0.651391">
        <ele>2400.053</ele>
        <time>2010-06-14T14:49:38Z</time>
      </trkpt>
      <trkpt lat="42.605345" lon="0.651476">
        <ele>2403.035</ele>
        <time>2010-06-14T14:49:57Z</time>
      </trkpt>
      <trkpt lat="42.605324" lon="0.651584">
        <ele>2410.013</ele>
        <time>2010-06-14T14:50:05Z</time>
      </trkpt>
      <trkpt lat="42.605259" lon="0.651734">
        <ele>2410.043</ele>
        <time>2010-06-14T14:50:18Z</time>
      </trkpt>
      <trkpt lat="42.605259" lon="0.651820">
        <ele>2417.007</ele>
        <time>2010-06-14T14:50:24Z</time>
      </trkpt>
      <trkpt lat="42.605217" lon="0.651906">
        <ele>2417.006</ele>
        <time>2010-06-14T14:50:32Z</time>
      </trkpt>
      <trkpt lat="42.605217" lon="0.652077">
        <ele>2417.010</ele>
        <time>2010-06-14T14:50:45Z</time>
      </trkpt>
      <trkpt lat="42.605238" lon="0.652163">
        <ele>2424.097</ele>
        <time>2010-06-14T14:50:51Z</time>
      </trkpt>
      <trkpt lat="42.605174" lon="0.652356">
        <ele>2424.064</ele>
        <time>2010-06-14T14:51:07Z</time>
      </trkpt>
      <trkpt lat="42.605131" lon="0.652549">
        <ele>2430.062</ele>
        <time>2010-06-14T14:51:21Z</time>
      </trkpt>
      <trkpt lat="42.605066" lon="0.652807">
        <ele>2434.060</ele>
        <time>2010-06-14T14:51:42Z</time>
      </trkpt>
      <trkpt lat="42.605066" lon="0.652957">
        <ele>2436.092</ele>
        <time>2010-06-14T14:51:53Z</time>
      </trkpt>
      <trkpt lat="42.605002" lon="0.653086">
        <ele>2436.063</ele>
        <time>2010-06-14T14:52:04Z</time>
      </trkpt>
      <trkpt lat="42.605002" lon="0.653150">
        <ele>2436.044</ele>
        <time>2010-06-14T14:52:09Z</time>
      </trkpt>
      <trkpt lat="42.604980" lon="0.653236">
        <ele>2438.018</ele>
        <time>2010-06-14T14:52:15Z</time>
      </trkpt>
      <trkpt lat="42.604980" lon="0.653343">
        <ele>2438.006</ele>
        <time>2010-06-14T14:52:23Z</time>
      </trkpt>
      <trkpt lat="42.604959" lon="0.653579">
        <ele>2440.015</ele>
        <time>2010-06-14T14:52:41Z</time>
      </trkpt>
      <trkpt lat="42.604916" lon="0.653665">
        <ele>2440.022</ele>
        <time>2010-06-14T14:52:49Z</time>
      </trkpt>
      <trkpt lat="42.604916" lon="0.653687">
        <ele>2440.089</ele>
        <time>2010-06-14T14:52:49Z</time>
      </trkpt>
      <trkpt lat="42.604830" lon="0.653965">
        <ele>2442.077</ele>
        <time>2010-06-14T14:53:13Z</time>
      </trkpt>
      <trkpt lat="42.604852" lon="0.654094">
        <ele>2443.095</ele>
        <time>2010-06-14T14:53:21Z</time>
      </trkpt>
      <trkpt lat="42.604852" lon="0.654202">
        <ele>2443.027</ele>
        <time>2010-06-14T14:53:30Z</time>
      </trkpt>
      <trkpt lat="42.604873" lon="0.654330">
        <ele>2442.059</ele>
        <time>2010-06-14T14:53:40Z</time>
      </trkpt>
      <trkpt lat="42.604852" lon="0.654566">
        <ele>2442.003</ele>
        <time>2010-06-14T14:53:57Z</time>
      </trkpt>
      <trkpt lat="42.604895" lon="0.654695">
        <ele>2441.023</ele>
        <time>2010-06-14T14:54:08Z</time>
      </trkpt>
      <trkpt lat="42.604916" lon="0.654824">
        <ele>2441.006</ele>
        <time>2010-06-14T14:54:18Z</time>
      </trkpt>
      <trkpt lat="42.605002" lon="0.654910">
        <ele>2440.064</ele>
        <time>2010-06-14T14:54:28Z</time>
      </trkpt>
      <trkpt lat="42.604980" lon="0.654953">
        <ele>2440.021</ele>
        <time>2010-06-14T14:54:31Z</time>
      </trkpt>
      <trkpt lat="42.604959" lon="0.655060">
        <ele>2440.078</ele>
        <time>2010-06-14T14:54:40Z</time>
      </trkpt>
      <trkpt lat="42.604938" lon="0.655081">
        <ele>2440.086</ele>
        <time>2010-06-14T14:54:43Z</time>
      </trkpt>
      <trkpt lat="42.604938" lon="0.655360">
        <ele>2439.084</ele>
        <time>2010-06-14T14:55:04Z</time>
      </trkpt>
      <trkpt lat="42.604895" lon="0.655489">
        <ele>2439.076</ele>
        <time>2010-06-14T14:55:14Z</time>
      </trkpt>
      <trkpt lat="42.604916" lon="0.655618">
        <ele>2439.058</ele>
        <time>2010-06-14T14:55:23Z</time>
      </trkpt>
      <trkpt lat="42.604852" lon="0.655983">
        <ele>2436.052</ele>
        <time>2010-06-14T14:55:50Z</time>
      </trkpt>
      <trkpt lat="42.604852" lon="0.656004">
        <ele>2436.017</ele>
        <time>2010-06-14T14:55:53Z</time>
      </trkpt>
      <trkpt lat="42.604916" lon="0.656176">
        <ele>2438.006</ele>
        <time>2010-06-14T14:56:06Z</time>
      </trkpt>
      <trkpt lat="42.604916" lon="0.656197">
        <ele>2438.044</ele>
        <time>2010-06-14T14:56:09Z</time>
      </trkpt>
      <trkpt lat="42.604938" lon="0.656283">
        <ele>2438.031</ele>
        <time>2010-06-14T14:56:14Z</time>
      </trkpt>
      <trkpt lat="42.604916" lon="0.656369">
        <ele>2438.058</ele>
        <time>2010-06-14T14:56:22Z</time>
      </trkpt>
      <trkpt lat="42.604916" lon="0.656519">
        <ele>2438.086</ele>
        <time>2010-06-14T14:56:32Z</time>
      </trkpt>
      <trkpt lat="42.605045" lon="0.656626">
        <ele>2436.084</ele>
        <time>2010-06-14T14:56:48Z</time>
      </trkpt>
      <trkpt lat="42.605302" lon="0.656712">
        <ele>2439.016</ele>
        <time>2010-06-14T14:57:15Z</time>
      </trkpt>
      <trkpt lat="42.605345" lon="0.656734">
        <ele>2439.087</ele>
        <time>2010-06-14T14:57:19Z</time>
      </trkpt>
      <trkpt lat="42.605410" lon="0.656734">
        <ele>2439.042</ele>
        <time>2010-06-14T14:57:26Z</time>
      </trkpt>
      <trkpt lat="42.605581" lon="0.656948">
        <ele>2441.026</ele>
        <time>2010-06-14T14:57:48Z</time>
      </trkpt>
      <trkpt lat="42.605689" lon="0.657034">
        <ele>2441.006</ele>
        <time>2010-06-14T14:58:01Z</time>
      </trkpt>
      <trkpt lat="42.605839" lon="0.657249">
        <ele>2446.057</ele>
        <time>2010-06-14T14:58:23Z</time>
      </trkpt>
      <trkpt lat="42.605860" lon="0.657334">
        <ele>2446.024</ele>
        <time>2010-06-14T14:58:30Z</time>
      </trkpt>
      <trkpt lat="42.605860" lon="0.657356">
        <ele>2446.031</ele>
        <time>2010-06-14T14:58:31Z</time>
      </trkpt>
      <trkpt lat="42.605903" lon="0.657485">
        <ele>2445.039</ele>
        <time>2010-06-14T14:58:42Z</time>
      </trkpt>
      <trkpt lat="42.605903" lon="0.657635">
        <ele>2445.077</ele>
        <time>2010-06-14T14:58:52Z</time>
      </trkpt>
      <trkpt lat="42.605925" lon="0.657742">
        <ele>2444.069</ele>
        <time>2010-06-14T14:59:01Z</time>
      </trkpt>
      <trkpt lat="42.605903" lon="0.657935">
        <ele>2443.057</ele>
        <time>2010-06-14T14:59:16Z</time>
      </trkpt>
      <trkpt lat="42.605968" lon="0.658193">
        <ele>2443.000</ele>
        <time>2010-06-14T14:59:36Z</time>
      </trkpt>
      <trkpt lat="42.606053" lon="0.658321">
        <ele>2451.020</ele>
        <time>2010-06-14T14:59:48Z</time>
      </trkpt>
      <trkpt lat="42.606032" lon="0.658515">
        <ele>2451.006</ele>
        <time>2010-06-14T15:00:02Z</time>
      </trkpt>
      <trkpt lat="42.605989" lon="0.658815">
        <ele>2452.054</ele>
        <time>2010-06-14T15:00:24Z</time>
      </trkpt>
      <trkpt lat="42.606010" lon="0.658922">
        <ele>2452.021</ele>
        <time>2010-06-14T15:00:34Z</time>
      </trkpt>
      <trkpt lat="42.606010" lon="0.659072">
        <ele>2453.038</ele>
        <time>2010-06-14T15:00:45Z</time>
      </trkpt>
      <trkpt lat="42.606032" lon="0.659094">
        <ele>2453.036</ele>
        <time>2010-06-14T15:00:47Z</time>
      </trkpt>
      <trkpt lat="42.606010" lon="0.659158">
        <ele>2453.094</ele>
        <time>2010-06-14T15:00:53Z</time>
      </trkpt>
      <trkpt lat="42.605925" lon="0.659266">
        <ele>2445.086</ele>
        <time>2010-06-14T15:01:04Z</time>
      </trkpt>
      <trkpt lat="42.605946" lon="0.659330">
        <ele>2447.035</ele>
        <time>2010-06-14T15:01:09Z</time>
      </trkpt>
      <trkpt lat="42.605989" lon="0.659394">
        <ele>2455.086</ele>
        <time>2010-06-14T15:01:15Z</time>
      </trkpt>
      <trkpt lat="42.605946" lon="0.659244">
        <ele>2445.014</ele>
        <time>2010-06-14T15:01:28Z</time>
      </trkpt>
      <trkpt lat="42.605903" lon="0.659266">
        <ele>2445.006</ele>
        <time>2010-06-14T15:01:31Z</time>
      </trkpt>
      <trkpt lat="42.605925" lon="0.659201">
        <ele>2445.072</ele>
        <time>2010-06-14T15:01:37Z</time>
      </trkpt>
      <trkpt lat="42.605925" lon="0.659158">
        <ele>2445.079</ele>
        <time>2010-06-14T15:01:41Z</time>
      </trkpt>
      <trkpt lat="42.605989" lon="0.659180">
        <ele>2453.026</ele>
        <time>2010-06-14T15:01:47Z</time>
      </trkpt>
      <trkpt lat="42.606010" lon="0.659180">
        <ele>2453.074</ele>
        <time>2010-06-14T15:01:49Z</time>
      </trkpt>
      <trkpt lat="42.606032" lon="0.659158">
        <ele>2453.012</ele>
        <time>2010-06-14T15:01:52Z</time>
      </trkpt>
      <trkpt lat="42.606010" lon="0.659158">
        <ele>2453.054</ele>
        <time>2010-06-14T15:01:53Z</time>
      </trkpt>
      <trkpt lat="42.606032" lon="0.659137">
        <ele>2453.089</ele>
        <time>2010-06-14T15:01:57Z</time>
      </trkpt>
      <trkpt lat="42.606032" lon="0.659072">
        <ele>2453.006</ele>
        <time>2010-06-14T15:02:01Z</time>
      </trkpt>
      <trkpt lat="42.605946" lon="0.658987">
        <ele>2444.026</ele>
        <time>2010-06-14T15:02:12Z</time>
      </trkpt>
      <trkpt lat="42.605903" lon="0.658965">
        <ele>2444.006</ele>
        <time>2010-06-14T15:02:16Z</time>
      </trkpt>
      <trkpt lat="42.605860" lon="0.658965">
        <ele>2444.097</ele>
        <time>2010-06-14T15:02:20Z</time>
      </trkpt>
      <trkpt lat="42.605817" lon="0.659072">
        <ele>2445.034</ele>
        <time>2010-06-14T15:02:30Z</time>
      </trkpt>
      <trkpt lat="42.605796" lon="0.659180">
        <ele>2445.011</ele>
        <time>2010-06-14T15:02:38Z</time>
      </trkpt>
      <trkpt lat="42.605753" lon="0.659201">
        <ele>2445.099</ele>
        <time>2010-06-14T15:02:43Z</time>
      </trkpt>
      <trkpt lat="42.605731" lon="0.659308">
        <ele>2447.077</ele>
        <time>2010-06-14T15:02:51Z</time>
      </trkpt>
      <trkpt lat="42.605710" lon="0.659351">
        <ele>2447.079</ele>
        <time>2010-06-14T15:02:54Z</time>
      </trkpt>
      <trkpt lat="42.605689" lon="0.659459">
        <ele>2442.098</ele>
        <time>2010-06-14T15:03:03Z</time>
      </trkpt>
      <trkpt lat="42.605646" lon="0.659459">
        <ele>2442.015</ele>
        <time>2010-06-14T15:03:08Z</time>
      </trkpt>
      <trkpt lat="42.605581" lon="0.659652">
        <ele>2444.026</ele>
        <time>2010-06-14T15:03:23Z</time>
      </trkpt>
      <trkpt lat="42.605603" lon="0.659716">
        <ele>2444.006</ele>
        <time>2010-06-14T15:03:27Z</time>
      </trkpt>
      <trkpt lat="42.605581" lon="0.659802">
        <ele>2444.098</ele>
        <time>2010-06-14T15:03:35Z</time>
      </trkpt>
      <trkpt lat="42.605517" lon="0.659866">
        <ele>2447.065</ele>
        <time>2010-06-14T15:03:43Z</time>
      </trkpt>
      <trkpt lat="42.605388" lon="0.660081">
        <ele>2442.072</ele>
        <time>2010-06-14T15:04:04Z</time>
      </trkpt>
      <trkpt lat="42.605367" lon="0.660167">
        <ele>2445.030</ele>
        <time>2010-06-14T15:04:10Z</time>
      </trkpt>
      <trkpt lat="42.605431" lon="0.660338">
        <ele>2451.088</ele>
        <time>2010-06-14T15:04:23Z</time>
      </trkpt>
      <trkpt lat="42.605410" lon="0.660532">
        <ele>2448.090</ele>
        <time>2010-06-14T15:04:39Z</time>
      </trkpt>
      <trkpt lat="42.605410" lon="0.660768">
        <ele>2452.053</ele>
        <time>2010-06-14T15:04:55Z</time>
      </trkpt>
      <trkpt lat="42.605367" lon="0.660810">
        <ele>2452.004</ele>
        <time>2010-06-14T15:05:01Z</time>
      </trkpt>
      <trkpt lat="42.605259" lon="0.661025">
        <ele>2456.014</ele>
        <time>2010-06-14T15:05:20Z</time>
      </trkpt>
      <trkpt lat="42.605195" lon="0.661175">
        <ele>2456.006</ele>
        <time>2010-06-14T15:05:33Z</time>
      </trkpt>
      <trkpt lat="42.605109" lon="0.661304">
        <ele>2452.044</ele>
        <time>2010-06-14T15:05:46Z</time>
      </trkpt>
      <trkpt lat="42.605109" lon="0.661540">
        <ele>2455.031</ele>
        <time>2010-06-14T15:06:03Z</time>
      </trkpt>
      <trkpt lat="42.605088" lon="0.661905">
        <ele>2458.038</ele>
        <time>2010-06-14T15:06:30Z</time>
      </trkpt>
      <trkpt lat="42.605088" lon="0.662034">
        <ele>2458.086</ele>
        <time>2010-06-14T15:06:40Z</time>
      </trkpt>
      <trkpt lat="42.605045" lon="0.662119">
        <ele>2459.054</ele>
        <time>2010-06-14T15:06:48Z</time>
      </trkpt>
      <trkpt lat="42.605045" lon="0.662141">
        <ele>2459.036</ele>
        <time>2010-06-14T15:06:49Z</time>
      </trkpt>
      <trkpt lat="42.605109" lon="0.662227">
        <ele>2459.028</ele>
        <time>2010-06-14T15:06:57Z</time>
      </trkpt>
      <trkpt lat="42.605131" lon="0.662334">
        <ele>2459.089</ele>
        <time>2010-06-14T15:07:05Z</time>
      </trkpt>
      <trkpt lat="42.605131" lon="0.662463">
        <ele>2459.017</ele>
        <time>2010-06-14T15:07:15Z</time>
      </trkpt>
      <trkpt lat="42.605109" lon="0.662527">
        <ele>2459.006</ele>
        <time>2010-06-14T15:07:21Z</time>
      </trkpt>
      <trkpt lat="42.605088" lon="0.662656">
        <ele>2460.041</ele>
        <time>2010-06-14T15:07:31Z</time>
      </trkpt>
      <trkpt lat="42.605045" lon="0.662742">
        <ele>2460.018</ele>
        <time>2010-06-14T15:07:39Z</time>
      </trkpt>
      <trkpt lat="42.605066" lon="0.662785">
        <ele>2460.065</ele>
        <time>2010-06-14T15:07:42Z</time>
      </trkpt>
      <trkpt lat="42.605045" lon="0.662763">
        <ele>2460.043</ele>
        <time>2010-06-14T15:07:45Z</time>
      </trkpt>
      <trkpt lat="42.605045" lon="0.662978">
        <ele>2462.031</ele>
        <time>2010-06-14T15:08:01Z</time>
      </trkpt>
      <trkpt lat="42.605023" lon="0.663064">
        <ele>2462.053</ele>
        <time>2010-06-14T15:08:07Z</time>
      </trkpt>
      <trkpt lat="42.605023" lon="0.663192">
        <ele>2462.069</ele>
        <time>2010-06-14T15:08:17Z</time>
      </trkpt>
      <trkpt lat="42.605002" lon="0.663214">
        <ele>2463.004</ele>
        <time>2010-06-14T15:08:20Z</time>
      </trkpt>
      <trkpt lat="42.604938" lon="0.663321">
        <ele>2463.024</ele>
        <time>2010-06-14T15:08:30Z</time>
      </trkpt>
      <trkpt lat="42.604916" lon="0.663342">
        <ele>2463.006</ele>
        <time>2010-06-14T15:08:33Z</time>
      </trkpt>
      <trkpt lat="42.604895" lon="0.663450">
        <ele>2463.015</ele>
        <time>2010-06-14T15:08:41Z</time>
      </trkpt>
      <trkpt lat="42.604830" lon="0.663493">
        <ele>2464.052</ele>
        <time>2010-06-14T15:08:47Z</time>
      </trkpt>
      <trkpt lat="42.604809" lon="0.663600">
        <ele>2464.039</ele>
        <time>2010-06-14T15:08:55Z</time>
      </trkpt>
      <trkpt lat="42.604809" lon="0.663664">
        <ele>2464.017</ele>
        <time>2010-06-14T15:09:00Z</time>
      </trkpt>
      <trkpt lat="42.604830" lon="0.663879">
        <ele>2467.065</ele>
        <time>2010-06-14T15:09:16Z</time>
      </trkpt>
      <trkpt lat="42.604809" lon="0.663900">
        <ele>2467.067</ele>
        <time>2010-06-14T15:09:19Z</time>
      </trkpt>
      <trkpt lat="42.604830" lon="0.664008">
        <ele>2467.058</ele>
        <time>2010-06-14T15:09:27Z</time>
      </trkpt>
      <trkpt lat="42.604938" lon="0.664222">
        <ele>2469.052</ele>
        <time>2010-06-14T15:09:46Z</time>
      </trkpt>
      <trkpt lat="42.604959" lon="0.664287">
        <ele>2469.017</ele>
        <time>2010-06-14T15:09:51Z</time>
      </trkpt>
      <trkpt lat="42.604938" lon="0.664394">
        <ele>2471.006</ele>
        <time>2010-06-14T15:10:00Z</time>
      </trkpt>
      <trkpt lat="42.604980" lon="0.664501">
        <ele>2471.094</ele>
        <time>2010-06-14T15:10:08Z</time>
      </trkpt>
      <trkpt lat="42.604980" lon="0.664630">
        <ele>2473.061</ele>
        <time>2010-06-14T15:10:19Z</time>
      </trkpt>
      <trkpt lat="42.605045" lon="0.664694">
        <ele>2473.088</ele>
        <time>2010-06-14T15:10:26Z</time>
      </trkpt>
      <trkpt lat="42.605152" lon="0.664845">
        <ele>2473.026</ele>
        <time>2010-06-14T15:10:42Z</time>
      </trkpt>
      <trkpt lat="42.605174" lon="0.664909">
        <ele>2474.094</ele>
        <time>2010-06-14T15:10:47Z</time>
      </trkpt>
      <trkpt lat="42.605088" lon="0.665381">
        <ele>2478.026</ele>
        <time>2010-06-14T15:11:23Z</time>
      </trkpt>
      <trkpt lat="42.605066" lon="0.665510">
        <ele>2481.096</ele>
        <time>2010-06-14T15:11:33Z</time>
      </trkpt>
      <trkpt lat="42.605066" lon="0.665638">
        <ele>2481.031</ele>
        <time>2010-06-14T15:11:42Z</time>
      </trkpt>
      <trkpt lat="42.605088" lon="0.665681">
        <ele>2481.024</ele>
        <time>2010-06-14T15:11:46Z</time>
      </trkpt>
      <trkpt lat="42.605152" lon="0.665917">
        <ele>2480.006</ele>
        <time>2010-06-14T15:12:05Z</time>
      </trkpt>
      <trkpt lat="42.605238" lon="0.666368">
        <ele>2485.078</ele>
        <time>2010-06-14T15:12:38Z</time>
      </trkpt>
      <trkpt lat="42.605217" lon="0.666497">
        <ele>2485.055</ele>
        <time>2010-06-14T15:12:49Z</time>
      </trkpt>
      <trkpt lat="42.605259" lon="0.666969">
        <ele>2490.052</ele>
        <time>2010-06-14T15:13:24Z</time>
      </trkpt>
      <trkpt lat="42.605281" lon="0.667033">
        <ele>2490.090</ele>
        <time>2010-06-14T15:13:29Z</time>
      </trkpt>
      <trkpt lat="42.605302" lon="0.667248">
        <ele>2495.058</ele>
        <time>2010-06-14T15:13:45Z</time>
      </trkpt>
      <trkpt lat="42.605259" lon="0.667312">
        <ele>2495.010</ele>
        <time>2010-06-14T15:13:50Z</time>
      </trkpt>
      <trkpt lat="42.605324" lon="0.667419">
        <ele>2500.045</ele>
        <time>2010-06-14T15:14:01Z</time>
      </trkpt>
      <trkpt lat="42.605410" lon="0.667655">
        <ele>2506.047</ele>
        <time>2010-06-14T15:14:21Z</time>
      </trkpt>
      <trkpt lat="42.605410" lon="0.667870">
        <ele>2506.011</ele>
        <time>2010-06-14T15:14:37Z</time>
      </trkpt>
      <trkpt lat="42.605410" lon="0.668321">
        <ele>2519.006</ele>
        <time>2010-06-14T15:15:09Z</time>
      </trkpt>
      <trkpt lat="42.605603" lon="0.668685">
        <ele>2519.083</ele>
        <time>2010-06-14T15:15:43Z</time>
      </trkpt>
      <trkpt lat="42.605667" lon="0.668900">
        <ele>2526.090</ele>
        <time>2010-06-14T15:16:00Z</time>
      </trkpt>
      <trkpt lat="42.605646" lon="0.669115">
        <ele>2533.017</ele>
        <time>2010-06-14T15:16:16Z</time>
      </trkpt>
      <trkpt lat="42.605517" lon="0.669308">
        <ele>2540.025</ele>
        <time>2010-06-14T15:16:35Z</time>
      </trkpt>
      <trkpt lat="42.605453" lon="0.669458">
        <ele>2540.033</ele>
        <time>2010-06-14T15:16:48Z</time>
      </trkpt>
      <trkpt lat="42.605367" lon="0.669694">
        <ele>2550.025</ele>
        <time>2010-06-14T15:17:07Z</time>
      </trkpt>
      <trkpt lat="42.605367" lon="0.669758">
        <ele>2550.083</ele>
        <time>2010-06-14T15:17:12Z</time>
      </trkpt>
      <trkpt lat="42.605302" lon="0.669866">
        <ele>2556.025</ele>
        <time>2010-06-14T15:17:21Z</time>
      </trkpt>
      <trkpt lat="42.605238" lon="0.669909">
        <ele>2556.017</ele>
        <time>2010-06-14T15:17:29Z</time>
      </trkpt>
      <trkpt lat="42.605195" lon="0.669909">
        <ele>2556.006</ele>
        <time>2010-06-14T15:17:34Z</time>
      </trkpt>
      <trkpt lat="42.605131" lon="0.670016">
        <ele>2560.027</ele>
        <time>2010-06-14T15:17:44Z</time>
      </trkpt>
      <trkpt lat="42.605109" lon="0.670145">
        <ele>2566.014</ele>
        <time>2010-06-14T15:17:53Z</time>
      </trkpt>
      <trkpt lat="42.605066" lon="0.670187">
        <ele>2566.031</ele>
        <time>2010-06-14T15:17:58Z</time>
      </trkpt>
      <trkpt lat="42.605066" lon="0.670359">
        <ele>2566.089</ele>
        <time>2010-06-14T15:18:11Z</time>
      </trkpt>
      <trkpt lat="42.605023" lon="0.670488">
        <ele>2572.077</ele>
        <time>2010-06-14T15:18:22Z</time>
      </trkpt>
      <trkpt lat="42.605023" lon="0.670681">
        <ele>2572.049</ele>
        <time>2010-06-14T15:18:36Z</time>
      </trkpt>
      <trkpt lat="42.604895" lon="0.670681">
        <ele>2572.092</ele>
        <time>2010-06-14T15:18:49Z</time>
      </trkpt>
      <trkpt lat="42.604895" lon="0.670896">
        <ele>2579.073</ele>
        <time>2010-06-14T15:19:05Z</time>
      </trkpt>
      <trkpt lat="42.604916" lon="0.670960">
        <ele>2579.020</ele>
        <time>2010-06-14T15:19:10Z</time>
      </trkpt>
      <trkpt lat="42.604830" lon="0.671110">
        <ele>2590.006</ele>
        <time>2010-06-14T15:19:24Z</time>
      </trkpt>
      <trkpt lat="42.604809" lon="0.671175">
        <ele>2590.088</ele>
        <time>2010-06-14T15:19:29Z</time>
      </trkpt>
      <trkpt lat="42.604744" lon="0.671346">
        <ele>2597.025</ele>
        <time>2010-06-14T15:19:43Z</time>
      </trkpt>
      <trkpt lat="42.604702" lon="0.671561">
        <ele>2603.062</ele>
        <time>2010-06-14T15:19:59Z</time>
      </trkpt>
      <trkpt lat="42.604637" lon="0.671711">
        <ele>2603.040</ele>
        <time>2010-06-14T15:20:12Z</time>
      </trkpt>
      <trkpt lat="42.604573" lon="0.671904">
        <ele>2616.078</ele>
        <time>2010-06-14T15:20:28Z</time>
      </trkpt>
      <trkpt lat="42.604551" lon="0.672076">
        <ele>2616.050</ele>
        <time>2010-06-14T15:20:40Z</time>
      </trkpt>
      <trkpt lat="42.604465" lon="0.672162">
        <ele>2621.024</ele>
        <time>2010-06-14T15:20:52Z</time>
      </trkpt>
      <trkpt lat="42.604380" lon="0.672162">
        <ele>2621.004</ele>
        <time>2010-06-14T15:21:00Z</time>
      </trkpt>
      <trkpt lat="42.604251" lon="0.672247">
        <ele>2629.014</ele>
        <time>2010-06-14T15:21:15Z</time>
      </trkpt>
      <trkpt lat="42.604144" lon="0.672247">
        <ele>2629.006</ele>
        <time>2010-06-14T15:21:25Z</time>
      </trkpt>
      <trkpt lat="42.604079" lon="0.672312">
        <ele>2629.071</ele>
        <time>2010-06-14T15:21:34Z</time>
      </trkpt>
      <trkpt lat="42.603972" lon="0.672312">
        <ele>2637.048</ele>
        <time>2010-06-14T15:21:44Z</time>
      </trkpt>
      <trkpt lat="42.603929" lon="0.672355">
        <ele>2637.015</ele>
        <time>2010-06-14T15:21:50Z</time>
      </trkpt>
      <trkpt lat="42.603865" lon="0.672355">
        <ele>2637.083</ele>
        <time>2010-06-14T15:21:55Z</time>
      </trkpt>
      <trkpt lat="42.603736" lon="0.672398">
        <ele>2651.031</ele>
        <time>2010-06-14T15:22:08Z</time>
      </trkpt>
      <trkpt lat="42.603586" lon="0.672526">
        <ele>2651.073</ele>
        <time>2010-06-14T15:22:27Z</time>
      </trkpt>
      <trkpt lat="42.603521" lon="0.672548">
        <ele>2651.041</ele>
        <time>2010-06-14T15:22:34Z</time>
      </trkpt>
      <trkpt lat="42.603521" lon="0.672612">
        <ele>2651.081</ele>
        <time>2010-06-14T15:22:38Z</time>
      </trkpt>
      <trkpt lat="42.603436" lon="0.672612">
        <ele>2661.009</ele>
        <time>2010-06-14T15:22:46Z</time>
      </trkpt>
      <trkpt lat="42.603393" lon="0.672762">
        <ele>2667.006</ele>
        <time>2010-06-14T15:22:59Z</time>
      </trkpt>
      <trkpt lat="42.603393" lon="0.672934">
        <ele>2673.063</ele>
        <time>2010-06-14T15:23:10Z</time>
      </trkpt>
      <trkpt lat="42.603436" lon="0.673041">
        <ele>2673.030</ele>
        <time>2010-06-14T15:23:20Z</time>
      </trkpt>
      <trkpt lat="42.603436" lon="0.673192">
        <ele>2673.047</ele>
        <time>2010-06-14T15:23:32Z</time>
      </trkpt>
      <trkpt lat="42.603371" lon="0.673513">
        <ele>2681.055</ele>
        <time>2010-06-14T15:23:55Z</time>
      </trkpt>
      <trkpt lat="42.603371" lon="0.673664">
        <ele>2681.083</ele>
        <time>2010-06-14T15:24:07Z</time>
      </trkpt>
      <trkpt lat="42.603285" lon="0.673749">
        <ele>2681.085</ele>
        <time>2010-06-14T15:24:17Z</time>
      </trkpt>
      <trkpt lat="42.603242" lon="0.673835">
        <ele>2685.029</ele>
        <time>2010-06-14T15:24:26Z</time>
      </trkpt>
      <trkpt lat="42.603221" lon="0.673814">
        <ele>2685.000</ele>
        <time>2010-06-14T15:24:28Z</time>
      </trkpt>
      <trkpt lat="42.603049" lon="0.674179">
        <ele>2704.020</ele>
        <time>2010-06-14T15:25:00Z</time>
      </trkpt>
      <trkpt lat="42.603049" lon="0.673878">
        <ele>2700.006</ele>
        <time>2010-06-14T15:25:21Z</time>
      </trkpt>
      <trkpt lat="42.602942" lon="0.674071">
        <ele>2704.081</ele>
        <time>2010-06-14T15:25:40Z</time>
      </trkpt>
      <trkpt lat="42.602921" lon="0.674307">
        <ele>2708.088</ele>
        <time>2010-06-14T15:25:57Z</time>
      </trkpt>
      <trkpt lat="42.602921" lon="0.674372">
        <ele>2708.035</ele>
        <time>2010-06-14T15:26:02Z</time>
      </trkpt>
      <trkpt lat="42.602878" lon="0.674522">
        <ele>2722.013</ele>
        <time>2010-06-14T15:26:13Z</time>
      </trkpt>
      <trkpt lat="42.602878" lon="0.674651">
        <ele>2725.071</ele>
        <time>2010-06-14T15:26:24Z</time>
      </trkpt>
      <trkpt lat="42.602835" lon="0.674758">
        <ele>2725.023</ele>
        <time>2010-06-14T15:26:32Z</time>
      </trkpt>
      <trkpt lat="42.602770" lon="0.674822">
        <ele>2725.092</ele>
        <time>2010-06-14T15:26:40Z</time>
      </trkpt>
      <trkpt lat="42.602770" lon="0.674930">
        <ele>2727.073</ele>
        <time>2010-06-14T15:26:48Z</time>
      </trkpt>
      <trkpt lat="42.602727" lon="0.674994">
        <ele>2727.020</ele>
        <time>2010-06-14T15:26:55Z</time>
      </trkpt>
      <trkpt lat="42.602770" lon="0.674994">
        <ele>2727.006</ele>
        <time>2010-06-14T15:26:59Z</time>
      </trkpt>
      <trkpt lat="42.602727" lon="0.675101">
        <ele>2727.088</ele>
        <time>2010-06-14T15:27:07Z</time>
      </trkpt>
      <trkpt lat="42.602642" lon="0.675123">
        <ele>2727.055</ele>
        <time>2010-06-14T15:27:17Z</time>
      </trkpt>
      <trkpt lat="42.602620" lon="0.675144">
        <ele>2730.022</ele>
        <time>2010-06-14T15:27:20Z</time>
      </trkpt>
      <trkpt lat="42.602642" lon="0.675230">
        <ele>2729.020</ele>
        <time>2010-06-14T15:27:25Z</time>
      </trkpt>
      <trkpt lat="42.602599" lon="0.675251">
        <ele>2730.018</ele>
        <time>2010-06-14T15:27:31Z</time>
      </trkpt>
      <trkpt lat="42.602577" lon="0.675316">
        <ele>2730.020</ele>
        <time>2010-06-14T15:27:36Z</time>
      </trkpt>
      <trkpt lat="42.602577" lon="0.675423">
        <ele>2729.036</ele>
        <time>2010-06-14T15:27:44Z</time>
      </trkpt>
      <trkpt lat="42.602534" lon="0.675466">
        <ele>2729.017</ele>
        <time>2010-06-14T15:27:49Z</time>
      </trkpt>
      <trkpt lat="42.602448" lon="0.675423">
        <ele>2729.018</ele>
        <time>2010-06-14T15:27:58Z</time>
      </trkpt>
      <trkpt lat="42.602427" lon="0.675423">
        <ele>2729.006</ele>
        <time>2010-06-14T15:28:00Z</time>
      </trkpt>
      <trkpt lat="42.602384" lon="0.675488">
        <ele>2729.052</ele>
        <time>2010-06-14T15:28:06Z</time>
      </trkpt>
      <trkpt lat="42.602384" lon="0.675595">
        <ele>2729.049</ele>
        <time>2010-06-14T15:28:14Z</time>
      </trkpt>
      <trkpt lat="42.602341" lon="0.675659">
        <ele>2724.036</ele>
        <time>2010-06-14T15:28:21Z</time>
      </trkpt>
      <trkpt lat="42.602298" lon="0.675659">
        <ele>2724.084</ele>
        <time>2010-06-14T15:28:25Z</time>
      </trkpt>
      <trkpt lat="42.602277" lon="0.675638">
        <ele>2724.052</ele>
        <time>2010-06-14T15:28:28Z</time>
      </trkpt>
      <trkpt lat="42.602277" lon="0.675702">
        <ele>2720.074</ele>
        <time>2010-06-14T15:28:32Z</time>
      </trkpt>
      <trkpt lat="42.602234" lon="0.675702">
        <ele>2720.066</ele>
        <time>2010-06-14T15:28:36Z</time>
      </trkpt>
      <trkpt lat="42.602212" lon="0.675724">
        <ele>2720.029</ele>
        <time>2010-06-14T15:28:40Z</time>
      </trkpt>
      <trkpt lat="42.602148" lon="0.675745">
        <ele>2720.021</ele>
        <time>2010-06-14T15:28:47Z</time>
      </trkpt>
      <trkpt lat="42.602127" lon="0.675766">
        <ele>2720.006</ele>
        <time>2010-06-14T15:28:49Z</time>
      </trkpt>
      <trkpt lat="42.602062" lon="0.675788">
        <ele>2709.075</ele>
        <time>2010-06-14T15:28:56Z</time>
      </trkpt>
      <trkpt lat="42.602019" lon="0.675852">
        <ele>2709.032</ele>
        <time>2010-06-14T15:29:02Z</time>
      </trkpt>
      <trkpt lat="42.601998" lon="0.675917">
        <ele>2709.099</ele>
        <time>2010-06-14T15:29:07Z</time>
      </trkpt>
      <trkpt lat="42.601955" lon="0.675917">
        <ele>2709.057</ele>
        <time>2010-06-14T15:29:12Z</time>
      </trkpt>
      <trkpt lat="42.601955" lon="0.675981">
        <ele>2699.035</ele>
        <time>2010-06-14T15:29:16Z</time>
      </trkpt>
      <trkpt lat="42.601933" lon="0.675981">
        <ele>2699.027</ele>
        <time>2010-06-14T15:29:19Z</time>
      </trkpt>
      <trkpt lat="42.601848" lon="0.676110">
        <ele>2699.032</ele>
        <time>2010-06-14T15:29:32Z</time>
      </trkpt>
      <trkpt lat="42.601826" lon="0.676174">
        <ele>2699.092</ele>
        <time>2010-06-14T15:29:37Z</time>
      </trkpt>
      <trkpt lat="42.601805" lon="0.676303">
        <ele>2675.011</ele>
        <time>2010-06-14T15:29:45Z</time>
      </trkpt>
      <trkpt lat="42.601762" lon="0.676410">
        <ele>2675.006</ele>
        <time>2010-06-14T15:29:54Z</time>
      </trkpt>
      <trkpt lat="42.601697" lon="0.676668">
        <ele>2666.012</ele>
        <time>2010-06-14T15:30:15Z</time>
      </trkpt>
      <trkpt lat="42.601697" lon="0.676689">
        <ele>2666.029</ele>
        <time>2010-06-14T15:30:17Z</time>
      </trkpt>
      <trkpt lat="42.601633" lon="0.676796">
        <ele>2666.056</ele>
        <time>2010-06-14T15:30:26Z</time>
      </trkpt>
      <trkpt lat="42.601633" lon="0.676925">
        <ele>2662.084</ele>
        <time>2010-06-14T15:30:36Z</time>
      </trkpt>
      <trkpt lat="42.601612" lon="0.676925">
        <ele>2662.072</ele>
        <time>2010-06-14T15:30:39Z</time>
      </trkpt>
      <trkpt lat="42.601569" lon="0.677097">
        <ele>2659.084</ele>
        <time>2010-06-14T15:30:52Z</time>
      </trkpt>
      <trkpt lat="42.601526" lon="0.677161">
        <ele>2652.041</ele>
        <time>2010-06-14T15:30:58Z</time>
      </trkpt>
      <trkpt lat="42.601440" lon="0.677354">
        <ele>2652.081</ele>
        <time>2010-06-14T15:31:14Z</time>
      </trkpt>
      <trkpt lat="42.601311" lon="0.677462">
        <ele>2648.009</ele>
        <time>2010-06-14T15:31:30Z</time>
      </trkpt>
      <trkpt lat="42.601268" lon="0.677483">
        <ele>2648.006</ele>
        <time>2010-06-14T15:31:35Z</time>
      </trkpt>
      <trkpt lat="42.601204" lon="0.677612">
        <ele>2641.053</ele>
        <time>2010-06-14T15:31:46Z</time>
      </trkpt>
      <trkpt lat="42.601097" lon="0.677741">
        <ele>2635.060</ele>
        <time>2010-06-14T15:32:00Z</time>
      </trkpt>
      <trkpt lat="42.601075" lon="0.677741">
        <ele>2635.087</ele>
        <time>2010-06-14T15:32:02Z</time>
      </trkpt>
      <trkpt lat="42.601054" lon="0.677805">
        <ele>2635.035</ele>
        <time>2010-06-14T15:32:08Z</time>
      </trkpt>
      <trkpt lat="42.600989" lon="0.677848">
        <ele>2635.073</ele>
        <time>2010-06-14T15:32:15Z</time>
      </trkpt>
      <trkpt lat="42.600968" lon="0.677891">
        <ele>2627.075</ele>
        <time>2010-06-14T15:32:18Z</time>
      </trkpt>
      <trkpt lat="42.600882" lon="0.677912">
        <ele>2627.085</ele>
        <time>2010-06-14T15:32:27Z</time>
      </trkpt>
      <trkpt lat="42.600818" lon="0.677998">
        <ele>2619.089</ele>
        <time>2010-06-14T15:32:37Z</time>
      </trkpt>
      <trkpt lat="42.600753" lon="0.678020">
        <ele>2619.017</ele>
        <time>2010-06-14T15:32:43Z</time>
      </trkpt>
      <trkpt lat="42.600753" lon="0.678041">
        <ele>2619.006</ele>
        <time>2010-06-14T15:32:45Z</time>
      </trkpt>
      <trkpt lat="42.600689" lon="0.678020">
        <ele>2610.067</ele>
        <time>2010-06-14T15:32:51Z</time>
      </trkpt>
      <trkpt lat="42.600689" lon="0.678041">
        <ele>2610.024</ele>
        <time>2010-06-14T15:32:53Z</time>
      </trkpt>
      <trkpt lat="42.600646" lon="0.678062">
        <ele>2610.041</ele>
        <time>2010-06-14T15:32:58Z</time>
      </trkpt>
      <trkpt lat="42.600582" lon="0.678191">
        <ele>2610.089</ele>
        <time>2010-06-14T15:33:09Z</time>
      </trkpt>
      <trkpt lat="42.600582" lon="0.678320">
        <ele>2602.027</ele>
        <time>2010-06-14T15:33:18Z</time>
      </trkpt>
      <trkpt lat="42.600539" lon="0.678427">
        <ele>2602.029</ele>
        <time>2010-06-14T15:33:28Z</time>
      </trkpt>
      <trkpt lat="42.600474" lon="0.678492">
        <ele>2595.055</ele>
        <time>2010-06-14T15:33:36Z</time>
      </trkpt>
      <trkpt lat="42.600346" lon="0.678577">
        <ele>2585.007</ele>
        <time>2010-06-14T15:33:50Z</time>
      </trkpt>
      <trkpt lat="42.600303" lon="0.678556">
        <ele>2585.017</ele>
        <time>2010-06-14T15:33:55Z</time>
      </trkpt>
      <trkpt lat="42.600260" lon="0.678663">
        <ele>2585.006</ele>
        <time>2010-06-14T15:34:03Z</time>
      </trkpt>
      <trkpt lat="42.600217" lon="0.678728">
        <ele>2585.034</ele>
        <time>2010-06-14T15:34:09Z</time>
      </trkpt>
      <trkpt lat="42.600195" lon="0.678856">
        <ele>2580.091</ele>
        <time>2010-06-14T15:34:19Z</time>
      </trkpt>
      <trkpt lat="42.600110" lon="0.678899">
        <ele>2571.058</ele>
        <time>2010-06-14T15:34:28Z</time>
      </trkpt>
      <trkpt lat="42.600067" lon="0.678985">
        <ele>2571.096</ele>
        <time>2010-06-14T15:34:36Z</time>
      </trkpt>
      <trkpt lat="42.600024" lon="0.678942">
        <ele>2571.084</ele>
        <time>2010-06-14T15:34:41Z</time>
      </trkpt>
      <trkpt lat="42.599874" lon="0.679071">
        <ele>2566.086</ele>
        <time>2010-06-14T15:35:00Z</time>
      </trkpt>
      <trkpt lat="42.599809" lon="0.679071">
        <ele>2557.014</ele>
        <time>2010-06-14T15:35:06Z</time>
      </trkpt>
      <trkpt lat="42.599766" lon="0.679007">
        <ele>2562.054</ele>
        <time>2010-06-14T15:35:13Z</time>
      </trkpt>
      <trkpt lat="42.599616" lon="0.679092">
        <ele>2557.009</ele>
        <time>2010-06-14T15:35:29Z</time>
      </trkpt>
      <trkpt lat="42.599530" lon="0.679135">
        <ele>2548.006</ele>
        <time>2010-06-14T15:35:38Z</time>
      </trkpt>
      <trkpt lat="42.599487" lon="0.679178">
        <ele>2548.080</ele>
        <time>2010-06-14T15:35:43Z</time>
      </trkpt>
      <trkpt lat="42.599444" lon="0.679200">
        <ele>2548.017</ele>
        <time>2010-06-14T15:35:48Z</time>
      </trkpt>
      <trkpt lat="42.599423" lon="0.679092">
        <ele>2548.094</ele>
        <time>2010-06-14T15:35:56Z</time>
      </trkpt>
      <trkpt lat="42.599359" lon="0.679028">
        <ele>2548.062</ele>
        <time>2010-06-14T15:36:04Z</time>
      </trkpt>
      <trkpt lat="42.599337" lon="0.678964">
        <ele>2553.070</ele>
        <time>2010-06-14T15:36:09Z</time>
      </trkpt>
      <trkpt lat="42.599273" lon="0.679007">
        <ele>2544.042</ele>
        <time>2010-06-14T15:36:16Z</time>
      </trkpt>
      <trkpt lat="42.599165" lon="0.678985">
        <ele>2544.029</ele>
        <time>2010-06-14T15:36:26Z</time>
      </trkpt>
      <trkpt lat="42.598994" lon="0.678835">
        <ele>2536.000</ele>
        <time>2010-06-14T15:36:48Z</time>
      </trkpt>
      <trkpt lat="42.598886" lon="0.678771">
        <ele>2536.020</ele>
        <time>2010-06-14T15:37:00Z</time>
      </trkpt>
      <trkpt lat="42.598865" lon="0.678706">
        <ele>2540.006</ele>
        <time>2010-06-14T15:37:04Z</time>
      </trkpt>
      <trkpt lat="42.598822" lon="0.678706">
        <ele>2540.021</ele>
        <time>2010-06-14T15:37:09Z</time>
      </trkpt>
      <trkpt lat="42.598715" lon="0.678663">
        <ele>2535.048</ele>
        <time>2010-06-14T15:37:20Z</time>
      </trkpt>
      <trkpt lat="42.598650" lon="0.678706">
        <ele>2535.095</ele>
        <time>2010-06-14T15:37:27Z</time>
      </trkpt>
      <trkpt lat="42.598522" lon="0.678663">
        <ele>2535.093</ele>
        <time>2010-06-14T15:37:41Z</time>
      </trkpt>
      <trkpt lat="42.598393" lon="0.678599">
        <ele>2530.071</ele>
        <time>2010-06-14T15:37:54Z</time>
      </trkpt>
      <trkpt lat="42.598264" lon="0.678599">
        <ele>2530.033</ele>
        <time>2010-06-14T15:38:06Z</time>
      </trkpt>
      <trkpt lat="42.598157" lon="0.678706">
        <ele>2527.031</ele>
        <time>2010-06-14T15:38:21Z</time>
      </trkpt>
      <trkpt lat="42.598093" lon="0.678792">
        <ele>2524.061</ele>
        <time>2010-06-14T15:38:30Z</time>
      </trkpt>
      <trkpt lat="42.598028" lon="0.678813">
        <ele>2524.007</ele>
        <time>2010-06-14T15:38:35Z</time>
      </trkpt>
      <trkpt lat="42.598028" lon="0.678942">
        <ele>2524.006</ele>
        <time>2010-06-14T15:38:46Z</time>
      </trkpt>
      <trkpt lat="42.598135" lon="0.679307">
        <ele>2516.072</ele>
        <time>2010-06-14T15:39:15Z</time>
      </trkpt>
      <trkpt lat="42.598200" lon="0.679393">
        <ele>2518.069</ele>
        <time>2010-06-14T15:39:24Z</time>
      </trkpt>
      <trkpt lat="42.598200" lon="0.679457">
        <ele>2518.046</ele>
        <time>2010-06-14T15:39:29Z</time>
      </trkpt>
      <trkpt lat="42.598157" lon="0.679672">
        <ele>2509.054</ele>
        <time>2010-06-14T15:39:45Z</time>
      </trkpt>
      <trkpt lat="42.598114" lon="0.679715">
        <ele>2509.022</ele>
        <time>2010-06-14T15:39:50Z</time>
      </trkpt>
      <trkpt lat="42.598093" lon="0.679779">
        <ele>2509.054</ele>
        <time>2010-06-14T15:39:55Z</time>
      </trkpt>
      <trkpt lat="42.598093" lon="0.679951">
        <ele>2502.097</ele>
        <time>2010-06-14T15:40:07Z</time>
      </trkpt>
      <trkpt lat="42.598028" lon="0.680144">
        <ele>2495.023</ele>
        <time>2010-06-14T15:40:23Z</time>
      </trkpt>
      <trkpt lat="42.598050" lon="0.680230">
        <ele>2495.025</ele>
        <time>2010-06-14T15:40:30Z</time>
      </trkpt>
      <trkpt lat="42.598071" lon="0.680230">
        <ele>2495.006</ele>
        <time>2010-06-14T15:40:33Z</time>
      </trkpt>
      <trkpt lat="42.598114" lon="0.680294">
        <ele>2495.078</ele>
        <time>2010-06-14T15:40:38Z</time>
      </trkpt>
      <trkpt lat="42.598178" lon="0.680509">
        <ele>2486.035</ele>
        <time>2010-06-14T15:40:55Z</time>
      </trkpt>
      <trkpt lat="42.598221" lon="0.680616">
        <ele>2491.082</ele>
        <time>2010-06-14T15:41:05Z</time>
      </trkpt>
      <trkpt lat="42.598178" lon="0.680702">
        <ele>2476.050</ele>
        <time>2010-06-14T15:41:13Z</time>
      </trkpt>
      <trkpt lat="42.598157" lon="0.680788">
        <ele>2476.028</ele>
        <time>2010-06-14T15:41:19Z</time>
      </trkpt>
      <trkpt lat="42.598221" lon="0.680895">
        <ele>2481.030</ele>
        <time>2010-06-14T15:41:30Z</time>
      </trkpt>
      <trkpt lat="42.598243" lon="0.680959">
        <ele>2481.078</ele>
        <time>2010-06-14T15:41:35Z</time>
      </trkpt>
      <trkpt lat="42.598243" lon="0.680981">
        <ele>2471.033</ele>
        <time>2010-06-14T15:41:35Z</time>
      </trkpt>
      <trkpt lat="42.598286" lon="0.681088">
        <ele>2471.026</ele>
        <time>2010-06-14T15:41:45Z</time>
      </trkpt>
      <trkpt lat="42.598264" lon="0.681131">
        <ele>2471.006</ele>
        <time>2010-06-14T15:41:48Z</time>
      </trkpt>
      <trkpt lat="42.598286" lon="0.681195">
        <ele>2471.096</ele>
        <time>2010-06-14T15:41:54Z</time>
      </trkpt>
      <trkpt lat="42.598243" lon="0.681281">
        <ele>2462.013</ele>
        <time>2010-06-14T15:42:02Z</time>
      </trkpt>
      <trkpt lat="42.598264" lon="0.681367">
        <ele>2462.060</ele>
        <time>2010-06-14T15:42:08Z</time>
      </trkpt>
      <trkpt lat="42.598350" lon="0.681410">
        <ele>2462.058</ele>
        <time>2010-06-14T15:42:18Z</time>
      </trkpt>
      <trkpt lat="42.598372" lon="0.681410">
        <ele>2462.066</ele>
        <time>2010-06-14T15:42:20Z</time>
      </trkpt>
      <trkpt lat="42.598522" lon="0.681560">
        <ele>2465.028</ele>
        <time>2010-06-14T15:42:39Z</time>
      </trkpt>
      <trkpt lat="42.598500" lon="0.681667">
        <ele>2465.048</ele>
        <time>2010-06-14T15:42:47Z</time>
      </trkpt>
      <trkpt lat="42.598436" lon="0.681646">
        <ele>2454.061</ele>
        <time>2010-06-14T15:42:53Z</time>
      </trkpt>
      <trkpt lat="42.598350" lon="0.681732">
        <ele>2454.017</ele>
        <time>2010-06-14T15:43:04Z</time>
      </trkpt>
      <trkpt lat="42.598264" lon="0.681753">
        <ele>2454.006</ele>
        <time>2010-06-14T15:43:12Z</time>
      </trkpt>
      <trkpt lat="42.598200" lon="0.681796">
        <ele>2454.053</ele>
        <time>2010-06-14T15:43:20Z</time>
      </trkpt>
      <trkpt lat="42.598178" lon="0.681839">
        <ele>2440.090</ele>
        <time>2010-06-14T15:43:23Z</time>
      </trkpt>
      <trkpt lat="42.598135" lon="0.681882">
        <ele>2440.047</ele>
        <time>2010-06-14T15:43:29Z</time>
      </trkpt>
      <trkpt lat="42.598114" lon="0.681968">
        <ele>2440.085</ele>
        <time>2010-06-14T15:43:36Z</time>
      </trkpt>
      <trkpt lat="42.598114" lon="0.682011">
        <ele>2440.053</ele>
        <time>2010-06-14T15:43:39Z</time>
      </trkpt>
      <trkpt lat="42.598028" lon="0.682075">
        <ele>2440.045</ele>
        <time>2010-06-14T15:43:49Z</time>
      </trkpt>
      <trkpt lat="42.597899" lon="0.682204">
        <ele>2428.037</ele>
        <time>2010-06-14T15:44:05Z</time>
      </trkpt>
      <trkpt lat="42.597792" lon="0.682225">
        <ele>2428.049</ele>
        <time>2010-06-14T15:44:16Z</time>
      </trkpt>
      <trkpt lat="42.597642" lon="0.682161">
        <ele>2428.013</ele>
        <time>2010-06-14T15:44:32Z</time>
      </trkpt>
      <trkpt lat="42.597578" lon="0.682118">
        <ele>2425.006</ele>
        <time>2010-06-14T15:44:38Z</time>
      </trkpt>
      <trkpt lat="42.597556" lon="0.682161">
        <ele>2425.062</ele>
        <time>2010-06-14T15:44:43Z</time>
      </trkpt>
      <trkpt lat="42.597556" lon="0.682182">
        <ele>2425.079</ele>
        <time>2010-06-14T15:44:43Z</time>
      </trkpt>
      <trkpt lat="42.597535" lon="0.682182">
        <ele>2425.056</ele>
        <time>2010-06-14T15:44:46Z</time>
      </trkpt>
      <trkpt lat="42.597513" lon="0.682204">
        <ele>2425.014</ele>
        <time>2010-06-14T15:44:49Z</time>
      </trkpt>
      <trkpt lat="42.597470" lon="0.682182">
        <ele>2425.022</ele>
        <time>2010-06-14T15:44:52Z</time>
      </trkpt>
      <trkpt lat="42.597384" lon="0.682204">
        <ele>2425.044</ele>
        <time>2010-06-14T15:45:02Z</time>
      </trkpt>
      <trkpt lat="42.597320" lon="0.682161">
        <ele>2422.099</ele>
        <time>2010-06-14T15:45:08Z</time>
      </trkpt>
      <trkpt lat="42.597320" lon="0.682096">
        <ele>2422.007</ele>
        <time>2010-06-14T15:45:13Z</time>
      </trkpt>
      <trkpt lat="42.597277" lon="0.682011">
        <ele>2427.027</ele>
        <time>2010-06-14T15:45:21Z</time>
      </trkpt>
      <trkpt lat="42.597213" lon="0.681968">
        <ele>2427.006</ele>
        <time>2010-06-14T15:45:29Z</time>
      </trkpt>
      <trkpt lat="42.597170" lon="0.681968">
        <ele>2427.098</ele>
        <time>2010-06-14T15:45:32Z</time>
      </trkpt>
      <trkpt lat="42.596934" lon="0.681989">
        <ele>2423.095</ele>
        <time>2010-06-14T15:45:56Z</time>
      </trkpt>
      <trkpt lat="42.596827" lon="0.681968">
        <ele>2423.012</ele>
        <time>2010-06-14T15:46:07Z</time>
      </trkpt>
      <trkpt lat="42.596784" lon="0.681989">
        <ele>2420.070</ele>
        <time>2010-06-14T15:46:12Z</time>
      </trkpt>
      <trkpt lat="42.596719" lon="0.682075">
        <ele>2420.088</ele>
        <time>2010-06-14T15:46:21Z</time>
      </trkpt>
      <trkpt lat="42.596462" lon="0.682096">
        <ele>2412.060</ele>
        <time>2010-06-14T15:46:47Z</time>
      </trkpt>
      <trkpt lat="42.596354" lon="0.682075">
        <ele>2417.063</ele>
        <time>2010-06-14T15:46:58Z</time>
      </trkpt>
      <trkpt lat="42.596290" lon="0.682118">
        <ele>2412.044</ele>
        <time>2010-06-14T15:47:05Z</time>
      </trkpt>
      <trkpt lat="42.596269" lon="0.682118">
        <ele>2412.018</ele>
        <time>2010-06-14T15:47:06Z</time>
      </trkpt>
      <trkpt lat="42.596054" lon="0.682139">
        <ele>2410.006</ele>
        <time>2010-06-14T15:47:28Z</time>
      </trkpt>
      <trkpt lat="42.595968" lon="0.682182">
        <ele>2408.035</ele>
        <time>2010-06-14T15:47:38Z</time>
      </trkpt>
      <trkpt lat="42.595818" lon="0.682182">
        <ele>2408.072</ele>
        <time>2010-06-14T15:47:52Z</time>
      </trkpt>
      <trkpt lat="42.595711" lon="0.682204">
        <ele>2408.099</ele>
        <time>2010-06-14T15:48:03Z</time>
      </trkpt>
      <trkpt lat="42.595646" lon="0.682268">
        <ele>2405.097</ele>
        <time>2010-06-14T15:48:11Z</time>
      </trkpt>
      <trkpt lat="42.595603" lon="0.682354">
        <ele>2405.025</ele>
        <time>2010-06-14T15:48:19Z</time>
      </trkpt>
      <trkpt lat="42.595217" lon="0.682311">
        <ele>2401.097</ele>
        <time>2010-06-14T15:48:58Z</time>
      </trkpt>
      <trkpt lat="42.594938" lon="0.682247">
        <ele>2396.085</ele>
        <time>2010-06-14T15:49:26Z</time>
      </trkpt>
      <trkpt lat="42.594616" lon="0.682161">
        <ele>2391.089</ele>
        <time>2010-06-14T15:49:58Z</time>
      </trkpt>
      <trkpt lat="42.594488" lon="0.682247">
        <ele>2384.017</ele>
        <time>2010-06-14T15:50:14Z</time>
      </trkpt>
      <trkpt lat="42.594423" lon="0.682247">
        <ele>2384.006</ele>
        <time>2010-06-14T15:50:20Z</time>
      </trkpt>
      <trkpt lat="42.594166" lon="0.682139">
        <ele>2378.047</ele>
        <time>2010-06-14T15:50:46Z</time>
      </trkpt>
      <trkpt lat="42.594037" lon="0.681989">
        <ele>2378.024</ele>
        <time>2010-06-14T15:51:03Z</time>
      </trkpt>
      <trkpt lat="42.593865" lon="0.681946">
        <ele>2370.091</ele>
        <time>2010-06-14T15:51:21Z</time>
      </trkpt>
      <trkpt lat="42.593844" lon="0.681968">
        <ele>2370.089</ele>
        <time>2010-06-14T15:51:24Z</time>
      </trkpt>
      <trkpt lat="42.593694" lon="0.681989">
        <ele>2364.047</ele>
        <time>2010-06-14T15:51:38Z</time>
      </trkpt>
      <trkpt lat="42.593651" lon="0.681968">
        <ele>2364.029</ele>
        <time>2010-06-14T15:51:43Z</time>
      </trkpt>
      <trkpt lat="42.593629" lon="0.681903">
        <ele>2364.083</ele>
        <time>2010-06-14T15:51:49Z</time>
      </trkpt>
      <trkpt lat="42.593608" lon="0.681903">
        <ele>2364.025</ele>
        <time>2010-06-14T15:51:51Z</time>
      </trkpt>
      <trkpt lat="42.593565" lon="0.681860">
        <ele>2364.017</ele>
        <time>2010-06-14T15:51:56Z</time>
      </trkpt>
      <trkpt lat="42.593479" lon="0.681818">
        <ele>2364.006</ele>
        <time>2010-06-14T15:52:05Z</time>
      </trkpt>
      <trkpt lat="42.593436" lon="0.681775">
        <ele>2354.067</ele>
        <time>2010-06-14T15:52:10Z</time>
      </trkpt>
      <trkpt lat="42.593415" lon="0.681775">
        <ele>2354.014</ele>
        <time>2010-06-14T15:52:12Z</time>
      </trkpt>
      <trkpt lat="42.593222" lon="0.681603">
        <ele>2354.061</ele>
        <time>2010-06-14T15:52:36Z</time>
      </trkpt>
      <trkpt lat="42.593114" lon="0.681560">
        <ele>2350.039</ele>
        <time>2010-06-14T15:52:47Z</time>
      </trkpt>
      <trkpt lat="42.593071" lon="0.681388">
        <ele>2344.037</ele>
        <time>2010-06-14T15:53:01Z</time>
      </trkpt>
      <trkpt lat="42.592921" lon="0.681260">
        <ele>2344.099</ele>
        <time>2010-06-14T15:53:19Z</time>
      </trkpt>
      <trkpt lat="42.592664" lon="0.681238">
        <ele>2334.036</ele>
        <time>2010-06-14T15:53:44Z</time>
      </trkpt>
      <trkpt lat="42.592514" lon="0.681152">
        <ele>2331.017</ele>
        <time>2010-06-14T15:54:00Z</time>
      </trkpt>
      <trkpt lat="42.592320" lon="0.681152">
        <ele>2329.018</ele>
        <time>2010-06-14T15:54:19Z</time>
      </trkpt>
      <trkpt lat="42.592256" lon="0.681238">
        <ele>2329.006</ele>
        <time>2010-06-14T15:54:29Z</time>
      </trkpt>
      <trkpt lat="42.592127" lon="0.681217">
        <ele>2329.092</ele>
        <time>2010-06-14T15:54:41Z</time>
      </trkpt>
      <trkpt lat="42.592020" lon="0.681152">
        <ele>2329.029</ele>
        <time>2010-06-14T15:54:54Z</time>
      </trkpt>
      <trkpt lat="42.591934" lon="0.681131">
        <ele>2329.056</ele>
        <time>2010-06-14T15:55:02Z</time>
      </trkpt>
      <trkpt lat="42.591612" lon="0.681088">
        <ele>2330.094</ele>
        <time>2010-06-14T15:55:35Z</time>
      </trkpt>
      <trkpt lat="42.591312" lon="0.681002">
        <ele>2330.082</ele>
        <time>2010-06-14T15:56:06Z</time>
      </trkpt>
      <trkpt lat="42.591226" lon="0.681002">
        <ele>2330.034</ele>
        <time>2010-06-14T15:56:14Z</time>
      </trkpt>
      <trkpt lat="42.590926" lon="0.681045">
        <ele>2330.095</ele>
        <time>2010-06-14T15:56:45Z</time>
      </trkpt>
      <trkpt lat="42.590797" lon="0.681131">
        <ele>2330.049</ele>
        <time>2010-06-14T15:56:58Z</time>
      </trkpt>
      <trkpt lat="42.590797" lon="0.681152">
        <ele>2330.023</ele>
        <time>2010-06-14T15:57:01Z</time>
      </trkpt>
      <trkpt lat="42.590647" lon="0.681303">
        <ele>2335.006</ele>
        <time>2010-06-14T15:57:19Z</time>
      </trkpt>
      <trkpt lat="42.590497" lon="0.681367">
        <ele>2335.098</ele>
        <time>2010-06-14T15:57:35Z</time>
      </trkpt>
      <trkpt lat="42.590475" lon="0.681388">
        <ele>2335.065</ele>
        <time>2010-06-14T15:57:38Z</time>
      </trkpt>
      <trkpt lat="42.590261" lon="0.681517">
        <ele>2336.052</ele>
        <time>2010-06-14T15:58:00Z</time>
      </trkpt>
      <trkpt lat="42.590196" lon="0.681517">
        <ele>2336.030</ele>
        <time>2010-06-14T15:58:08Z</time>
      </trkpt>
      <trkpt lat="42.589960" lon="0.681496">
        <ele>2336.038</ele>
        <time>2010-06-14T15:58:31Z</time>
      </trkpt>
      <trkpt lat="42.589810" lon="0.681560">
        <ele>2339.090</ele>
        <time>2010-06-14T15:58:47Z</time>
      </trkpt>
      <trkpt lat="42.589681" lon="0.681517">
        <ele>2336.084</ele>
        <time>2010-06-14T15:58:59Z</time>
      </trkpt>
      <trkpt lat="42.589531" lon="0.681582">
        <ele>2337.007</ele>
        <time>2010-06-14T15:59:15Z</time>
      </trkpt>
      <trkpt lat="42.589509" lon="0.681624">
        <ele>2337.017</ele>
        <time>2010-06-14T15:59:20Z</time>
      </trkpt>
      <trkpt lat="42.589445" lon="0.681882">
        <ele>2342.006</ele>
        <time>2010-06-14T15:59:39Z</time>
      </trkpt>
      <trkpt lat="42.589467" lon="0.681903">
        <ele>2342.037</ele>
        <time>2010-06-14T15:59:42Z</time>
      </trkpt>
      <trkpt lat="42.589767" lon="0.681775">
        <ele>2339.064</ele>
        <time>2010-06-14T16:00:14Z</time>
      </trkpt>
      <trkpt lat="42.589724" lon="0.681753">
        <ele>2339.071</ele>
        <time>2010-06-14T16:00:19Z</time>
      </trkpt>
      <trkpt lat="42.589660" lon="0.681582">
        <ele>2339.049</ele>
        <time>2010-06-14T16:00:33Z</time>
      </trkpt>
      <trkpt lat="42.589552" lon="0.681453">
        <ele>2335.097</ele>
        <time>2010-06-14T16:00:47Z</time>
      </trkpt>
      <trkpt lat="42.589531" lon="0.681281">
        <ele>2335.059</ele>
        <time>2010-06-14T16:01:00Z</time>
      </trkpt>
      <trkpt lat="42.589509" lon="0.681238">
        <ele>2333.073</ele>
        <time>2010-06-14T16:01:03Z</time>
      </trkpt>
      <trkpt lat="42.589402" lon="0.681195">
        <ele>2333.085</ele>
        <time>2010-06-14T16:01:15Z</time>
      </trkpt>
      <trkpt lat="42.589338" lon="0.681238">
        <ele>2333.013</ele>
        <time>2010-06-14T16:01:22Z</time>
      </trkpt>
      <trkpt lat="42.589252" lon="0.681152">
        <ele>2328.006</ele>
        <time>2010-06-14T16:01:32Z</time>
      </trkpt>
      <trkpt lat="42.589209" lon="0.681067">
        <ele>2328.046</ele>
        <time>2010-06-14T16:01:40Z</time>
      </trkpt>
      <trkpt lat="42.589209" lon="0.680981">
        <ele>2328.073</ele>
        <time>2010-06-14T16:01:46Z</time>
      </trkpt>
      <trkpt lat="42.589188" lon="0.680916">
        <ele>2328.020</ele>
        <time>2010-06-14T16:01:51Z</time>
      </trkpt>
      <trkpt lat="42.589166" lon="0.680895">
        <ele>2328.018</ele>
        <time>2010-06-14T16:01:54Z</time>
      </trkpt>
      <trkpt lat="42.588866" lon="0.680680">
        <ele>2318.096</ele>
        <time>2010-06-14T16:02:29Z</time>
      </trkpt>
      <trkpt lat="42.588780" lon="0.680444">
        <ele>2318.068</ele>
        <time>2010-06-14T16:02:48Z</time>
      </trkpt>
      <trkpt lat="42.588694" lon="0.680358">
        <ele>2305.077</ele>
        <time>2010-06-14T16:02:58Z</time>
      </trkpt>
      <trkpt lat="42.588522" lon="0.680015">
        <ele>2307.061</ele>
        <time>2010-06-14T16:03:28Z</time>
      </trkpt>
      <trkpt lat="42.588372" lon="0.679586">
        <ele>2290.027</ele>
        <time>2010-06-14T16:04:03Z</time>
      </trkpt>
      <trkpt lat="42.588179" lon="0.679221">
        <ele>2279.006</ele>
        <time>2010-06-14T16:04:37Z</time>
      </trkpt>
      <trkpt lat="42.588115" lon="0.679221">
        <ele>2279.076</ele>
        <time>2010-06-14T16:04:43Z</time>
      </trkpt>
      <trkpt lat="42.587965" lon="0.679178">
        <ele>2279.023</ele>
        <time>2010-06-14T16:04:59Z</time>
      </trkpt>
      <trkpt lat="42.587814" lon="0.679157">
        <ele>2264.030</ele>
        <time>2010-06-14T16:05:13Z</time>
      </trkpt>
      <trkpt lat="42.587686" lon="0.679264">
        <ele>2264.048</ele>
        <time>2010-06-14T16:05:28Z</time>
      </trkpt>
      <trkpt lat="42.587643" lon="0.679350">
        <ele>2260.096</ele>
        <time>2010-06-14T16:05:37Z</time>
      </trkpt>
      <trkpt lat="42.587578" lon="0.679328">
        <ele>2248.018</ele>
        <time>2010-06-14T16:05:44Z</time>
      </trkpt>
      <trkpt lat="42.587557" lon="0.679371">
        <ele>2248.089</ele>
        <time>2010-06-14T16:05:47Z</time>
      </trkpt>
      <trkpt lat="42.587450" lon="0.679436">
        <ele>2248.006</ele>
        <time>2010-06-14T16:05:59Z</time>
      </trkpt>
      <trkpt lat="42.587385" lon="0.679457">
        <ele>2248.026</ele>
        <time>2010-06-14T16:06:06Z</time>
      </trkpt>
      <trkpt lat="42.587235" lon="0.679457">
        <ele>2240.006</ele>
        <time>2010-06-14T16:06:20Z</time>
      </trkpt>
      <trkpt lat="42.587085" lon="0.679543">
        <ele>2240.057</ele>
        <time>2010-06-14T16:06:36Z</time>
      </trkpt>
      <trkpt lat="42.587020" lon="0.679564">
        <ele>2235.074</ele>
        <time>2010-06-14T16:06:44Z</time>
      </trkpt>
      <trkpt lat="42.586956" lon="0.679629">
        <ele>2229.041</ele>
        <time>2010-06-14T16:06:52Z</time>
      </trkpt>
      <trkpt lat="42.586870" lon="0.679629">
        <ele>2229.059</ele>
        <time>2010-06-14T16:07:00Z</time>
      </trkpt>
      <trkpt lat="42.586741" lon="0.679715">
        <ele>2227.067</ele>
        <time>2010-06-14T16:07:14Z</time>
      </trkpt>
      <trkpt lat="42.586656" lon="0.679822">
        <ele>2227.049</ele>
        <time>2010-06-14T16:07:27Z</time>
      </trkpt>
      <trkpt lat="42.586870" lon="0.680165">
        <ele>2217.044</ele>
        <time>2010-06-14T16:08:00Z</time>
      </trkpt>
      <trkpt lat="42.586935" lon="0.680380">
        <ele>2217.005</ele>
        <time>2010-06-14T16:08:17Z</time>
      </trkpt>
      <trkpt lat="42.586935" lon="0.680487">
        <ele>2212.015</ele>
        <time>2010-06-14T16:08:24Z</time>
      </trkpt>
      <trkpt lat="42.586977" lon="0.680573">
        <ele>2212.006</ele>
        <time>2010-06-14T16:08:32Z</time>
      </trkpt>
      <trkpt lat="42.587020" lon="0.680616">
        <ele>2212.053</ele>
        <time>2010-06-14T16:08:37Z</time>
      </trkpt>
      <trkpt lat="42.587042" lon="0.680680">
        <ele>2212.070</ele>
        <time>2010-06-14T16:08:42Z</time>
      </trkpt>
      <trkpt lat="42.587085" lon="0.681109">
        <ele>2214.017</ele>
        <time>2010-06-14T16:09:14Z</time>
      </trkpt>
      <trkpt lat="42.587042" lon="0.681238">
        <ele>2205.015</ele>
        <time>2010-06-14T16:09:25Z</time>
      </trkpt>
      <trkpt lat="42.587042" lon="0.681345">
        <ele>2203.073</ele>
        <time>2010-06-14T16:09:33Z</time>
      </trkpt>
      <trkpt lat="42.586999" lon="0.681410">
        <ele>2203.015</ele>
        <time>2010-06-14T16:09:39Z</time>
      </trkpt>
      <trkpt lat="42.586913" lon="0.681667">
        <ele>2202.082</ele>
        <time>2010-06-14T16:10:00Z</time>
      </trkpt>
      <trkpt lat="42.586763" lon="0.681925">
        <ele>2195.043</ele>
        <time>2010-06-14T16:10:24Z</time>
      </trkpt>
      <trkpt lat="42.586548" lon="0.682440">
        <ele>2198.017</ele>
        <time>2010-06-14T16:11:08Z</time>
      </trkpt>
      <trkpt lat="42.586398" lon="0.682762">
        <ele>2192.006</ele>
        <time>2010-06-14T16:11:35Z</time>
      </trkpt>
      <trkpt lat="42.586269" lon="0.682933">
        <ele>2195.047</ele>
        <time>2010-06-14T16:11:53Z</time>
      </trkpt>
      <trkpt lat="42.586205" lon="0.683169">
        <ele>2188.024</ele>
        <time>2010-06-14T16:12:12Z</time>
      </trkpt>
      <trkpt lat="42.586076" lon="0.683362">
        <ele>2189.051</ele>
        <time>2010-06-14T16:12:31Z</time>
      </trkpt>
      <trkpt lat="42.585948" lon="0.683749">
        <ele>2185.059</ele>
        <time>2010-06-14T16:13:03Z</time>
      </trkpt>
      <trkpt lat="42.585862" lon="0.683963">
        <ele>2187.087</ele>
        <time>2010-06-14T16:13:21Z</time>
      </trkpt>
      <trkpt lat="42.585754" lon="0.684457">
        <ele>2192.059</ele>
        <time>2010-06-14T16:13:59Z</time>
      </trkpt>
      <trkpt lat="42.585733" lon="0.684607">
        <ele>2194.093</ele>
        <time>2010-06-14T16:14:10Z</time>
      </trkpt>
      <trkpt lat="42.585711" lon="0.684650">
        <ele>2194.065</ele>
        <time>2010-06-14T16:14:13Z</time>
      </trkpt>
      <trkpt lat="42.585583" lon="0.685079">
        <ele>2188.021</ele>
        <time>2010-06-14T16:14:48Z</time>
      </trkpt>
      <trkpt lat="42.585583" lon="0.685101">
        <ele>2188.006</ele>
        <time>2010-06-14T16:14:50Z</time>
      </trkpt>
      <trkpt lat="42.585626" lon="0.685251">
        <ele>2190.088</ele>
        <time>2010-06-14T16:15:01Z</time>
      </trkpt>
      <trkpt lat="42.585604" lon="0.685594">
        <ele>2193.095</ele>
        <time>2010-06-14T16:15:26Z</time>
      </trkpt>
      <trkpt lat="42.585604" lon="0.685916">
        <ele>2196.022</ele>
        <time>2010-06-14T16:15:50Z</time>
      </trkpt>
      <trkpt lat="42.585647" lon="0.685959">
        <ele>2196.020</ele>
        <time>2010-06-14T16:15:55Z</time>
      </trkpt>
      <trkpt lat="42.585626" lon="0.686088">
        <ele>2200.038</ele>
        <time>2010-06-14T16:16:06Z</time>
      </trkpt>
      <trkpt lat="42.585604" lon="0.686474">
        <ele>2204.010</ele>
        <time>2010-06-14T16:16:35Z</time>
      </trkpt>
      <trkpt lat="42.585604" lon="0.686667">
        <ele>2207.017</ele>
        <time>2010-06-14T16:16:49Z</time>
      </trkpt>
      <trkpt lat="42.585604" lon="0.686946">
        <ele>2210.087</ele>
        <time>2010-06-14T16:17:08Z</time>
      </trkpt>
      <trkpt lat="42.585626" lon="0.686989">
        <ele>2210.015</ele>
        <time>2010-06-14T16:17:13Z</time>
      </trkpt>
      <trkpt lat="42.585604" lon="0.687203">
        <ele>2212.006</ele>
        <time>2010-06-14T16:17:29Z</time>
      </trkpt>
      <trkpt lat="42.585669" lon="0.687289">
        <ele>2212.070</ele>
        <time>2010-06-14T16:17:37Z</time>
      </trkpt>
      <trkpt lat="42.585626" lon="0.687375">
        <ele>2214.087</ele>
        <time>2010-06-14T16:17:46Z</time>
      </trkpt>
      <trkpt lat="42.585690" lon="0.687482">
        <ele>2214.034</ele>
        <time>2010-06-14T16:17:56Z</time>
      </trkpt>
      <trkpt lat="42.585690" lon="0.687633">
        <ele>2214.012</ele>
        <time>2010-06-14T16:18:07Z</time>
      </trkpt>
      <trkpt lat="42.585754" lon="0.687804">
        <ele>2229.050</ele>
        <time>2010-06-14T16:18:21Z</time>
      </trkpt>
      <trkpt lat="42.585733" lon="0.687869">
        <ele>2229.022</ele>
        <time>2010-06-14T16:18:26Z</time>
      </trkpt>
      <trkpt lat="42.585754" lon="0.687933">
        <ele>2230.058</ele>
        <time>2010-06-14T16:18:31Z</time>
      </trkpt>
      <trkpt lat="42.585561" lon="0.688427">
        <ele>2214.052</ele>
        <time>2010-06-14T16:19:12Z</time>
      </trkpt>
      <trkpt lat="42.585475" lon="0.688663">
        <ele>2214.017</ele>
        <time>2010-06-14T16:19:32Z</time>
      </trkpt>
      <trkpt lat="42.585454" lon="0.688813">
        <ele>2214.006</ele>
        <time>2010-06-14T16:19:44Z</time>
      </trkpt>
      <trkpt lat="42.585475" lon="0.689113">
        <ele>2213.014</ele>
        <time>2010-06-14T16:20:06Z</time>
      </trkpt>
      <trkpt lat="42.585475" lon="0.689392">
        <ele>2212.031</ele>
        <time>2010-06-14T16:20:26Z</time>
      </trkpt>
      <trkpt lat="42.585454" lon="0.689607">
        <ele>2212.058</ele>
        <time>2010-06-14T16:20:42Z</time>
      </trkpt>
      <trkpt lat="42.585475" lon="0.689714">
        <ele>2212.096</ele>
        <time>2010-06-14T16:20:50Z</time>
      </trkpt>
      <trkpt lat="42.585368" lon="0.690422">
        <ele>2193.094</ele>
        <time>2010-06-14T16:21:44Z</time>
      </trkpt>
      <trkpt lat="42.585304" lon="0.690959">
        <ele>2195.086</ele>
        <time>2010-06-14T16:22:23Z</time>
      </trkpt>
      <trkpt lat="42.585325" lon="0.691259">
        <ele>2201.031</ele>
        <time>2010-06-14T16:22:46Z</time>
      </trkpt>
      <trkpt lat="42.585304" lon="0.691323">
        <ele>2201.061</ele>
        <time>2010-06-14T16:22:50Z</time>
      </trkpt>
      <trkpt lat="42.585239" lon="0.691345">
        <ele>2201.007</ele>
        <time>2010-06-14T16:22:58Z</time>
      </trkpt>
      <trkpt lat="42.585218" lon="0.691388">
        <ele>2201.006</ele>
        <time>2010-06-14T16:23:02Z</time>
      </trkpt>
      <trkpt lat="42.585154" lon="0.691473">
        <ele>2201.022</ele>
        <time>2010-06-14T16:23:11Z</time>
      </trkpt>
      <trkpt lat="42.585111" lon="0.691688">
        <ele>2185.019</ele>
        <time>2010-06-14T16:23:27Z</time>
      </trkpt>
      <trkpt lat="42.585154" lon="0.692010">
        <ele>2205.076</ele>
        <time>2010-06-14T16:23:51Z</time>
      </trkpt>
      <trkpt lat="42.585025" lon="0.692117">
        <ele>2190.054</ele>
        <time>2010-06-14T16:24:05Z</time>
      </trkpt>
      <trkpt lat="42.585025" lon="0.692246">
        <ele>2190.042</ele>
        <time>2010-06-14T16:24:15Z</time>
      </trkpt>
      <trkpt lat="42.584960" lon="0.692353">
        <ele>2190.074</ele>
        <time>2010-06-14T16:24:26Z</time>
      </trkpt>
      <trkpt lat="42.584875" lon="0.692439">
        <ele>2194.045</ele>
        <time>2010-06-14T16:24:37Z</time>
      </trkpt>
      <trkpt lat="42.584639" lon="0.692911">
        <ele>2186.047</ele>
        <time>2010-06-14T16:25:19Z</time>
      </trkpt>
      <trkpt lat="42.584639" lon="0.692933">
        <ele>2189.011</ele>
        <time>2010-06-14T16:25:20Z</time>
      </trkpt>
      <trkpt lat="42.584660" lon="0.693233">
        <ele>2191.006</ele>
        <time>2010-06-14T16:25:41Z</time>
      </trkpt>
      <trkpt lat="42.584531" lon="0.693426">
        <ele>2182.023</ele>
        <time>2010-06-14T16:26:02Z</time>
      </trkpt>
      <trkpt lat="42.584553" lon="0.693619">
        <ele>2183.090</ele>
        <time>2010-06-14T16:26:16Z</time>
      </trkpt>
      <trkpt lat="42.584531" lon="0.693684">
        <ele>2183.087</ele>
        <time>2010-06-14T16:26:21Z</time>
      </trkpt>
      <trkpt lat="42.584510" lon="0.694091">
        <ele>2188.015</ele>
        <time>2010-06-14T16:26:51Z</time>
      </trkpt>
      <trkpt lat="42.584553" lon="0.694220">
        <ele>2188.043</ele>
        <time>2010-06-14T16:27:02Z</time>
      </trkpt>
      <trkpt lat="42.584574" lon="0.694413">
        <ele>2190.065</ele>
        <time>2010-06-14T16:27:16Z</time>
      </trkpt>
      <trkpt lat="42.584531" lon="0.694542">
        <ele>2190.085</ele>
        <time>2010-06-14T16:27:26Z</time>
      </trkpt>
      <trkpt lat="42.584317" lon="0.695550">
        <ele>2208.089</ele>
        <time>2010-06-14T16:28:44Z</time>
      </trkpt>
      <trkpt lat="42.584102" lon="0.696001">
        <ele>2216.017</ele>
        <time>2010-06-14T16:29:22Z</time>
      </trkpt>
      <trkpt lat="42.583952" lon="0.696173">
        <ele>2209.006</ele>
        <time>2010-06-14T16:29:43Z</time>
      </trkpt>
      <trkpt lat="42.583737" lon="0.696924">
        <ele>2249.027</ele>
        <time>2010-06-14T16:30:43Z</time>
      </trkpt>
      <trkpt lat="42.583652" lon="0.696795">
        <ele>2231.094</ele>
        <time>2010-06-14T16:30:54Z</time>
      </trkpt>
      <trkpt lat="42.583501" lon="0.696795">
        <ele>2231.051</ele>
        <time>2010-06-14T16:31:09Z</time>
      </trkpt>
      <trkpt lat="42.583179" lon="0.697095">
        <ele>2254.039</ele>
        <time>2010-06-14T16:31:49Z</time>
      </trkpt>
      <trkpt lat="42.583437" lon="0.697095">
        <ele>2259.097</ele>
        <time>2010-06-14T16:32:14Z</time>
      </trkpt>
      <trkpt lat="42.583523" lon="0.697246">
        <ele>2267.099</ele>
        <time>2010-06-14T16:32:28Z</time>
      </trkpt>
      <trkpt lat="42.583652" lon="0.697331">
        <ele>2267.063</ele>
        <time>2010-06-14T16:32:44Z</time>
      </trkpt>
      <trkpt lat="42.583501" lon="0.697396">
        <ele>2284.044</ele>
        <time>2010-06-14T16:33:00Z</time>
      </trkpt>
      <trkpt lat="42.583458" lon="0.697482">
        <ele>2276.018</ele>
        <time>2010-06-14T16:33:07Z</time>
      </trkpt>
      <trkpt lat="42.583587" lon="0.697460">
        <ele>2284.006</ele>
        <time>2010-06-14T16:33:19Z</time>
      </trkpt>
      <trkpt lat="42.583437" lon="0.697589">
        <ele>2276.025</ele>
        <time>2010-06-14T16:33:38Z</time>
      </trkpt>
      <trkpt lat="42.583501" lon="0.697589">
        <ele>2284.012</ele>
        <time>2010-06-14T16:33:43Z</time>
      </trkpt>
      <trkpt lat="42.583544" lon="0.697610">
        <ele>2284.059</ele>
        <time>2010-06-14T16:33:48Z</time>
      </trkpt>
      <trkpt lat="42.583587" lon="0.697696">
        <ele>2301.037</ele>
        <time>2010-06-14T16:33:57Z</time>
      </trkpt>
      <trkpt lat="42.583716" lon="0.697653">
        <ele>2301.055</ele>
        <time>2010-06-14T16:34:10Z</time>
      </trkpt>
      <trkpt lat="42.583759" lon="0.697567">
        <ele>2293.037</ele>
        <time>2010-06-14T16:34:18Z</time>
      </trkpt>
      <trkpt lat="42.583866" lon="0.697482">
        <ele>2293.027</ele>
        <time>2010-06-14T16:34:29Z</time>
      </trkpt>
      <trkpt lat="42.583952" lon="0.697482">
        <ele>2293.068</ele>
        <time>2010-06-14T16:34:39Z</time>
      </trkpt>
      <trkpt lat="42.584124" lon="0.697331">
        <ele>2284.014</ele>
        <time>2010-06-14T16:34:58Z</time>
      </trkpt>
      <trkpt lat="42.584145" lon="0.697331">
        <ele>2284.006</ele>
        <time>2010-06-14T16:35:01Z</time>
      </trkpt>
      <trkpt lat="42.584295" lon="0.697224">
        <ele>2284.071</ele>
        <time>2010-06-14T16:35:17Z</time>
      </trkpt>
      <trkpt lat="42.584488" lon="0.697224">
        <ele>2293.078</ele>
        <time>2010-06-14T16:35:36Z</time>
      </trkpt>
      <trkpt lat="42.584746" lon="0.697095">
        <ele>2302.065</ele>
        <time>2010-06-14T16:36:05Z</time>
      </trkpt>
      <trkpt lat="42.584832" lon="0.697074">
        <ele>2289.043</ele>
        <time>2010-06-14T16:36:14Z</time>
      </trkpt>
      <trkpt lat="42.584896" lon="0.697095">
        <ele>2313.061</ele>
        <time>2010-06-14T16:36:19Z</time>
      </trkpt>
      <trkpt lat="42.585089" lon="0.697095">
        <ele>2313.043</ele>
        <time>2010-06-14T16:36:40Z</time>
      </trkpt>
      <trkpt lat="42.585218" lon="0.697095">
        <ele>2328.032</ele>
        <time>2010-06-14T16:36:53Z</time>
      </trkpt>
      <trkpt lat="42.585261" lon="0.697117">
        <ele>2328.092</ele>
        <time>2010-06-14T16:36:56Z</time>
      </trkpt>
      <trkpt lat="42.585132" lon="0.697310">
        <ele>2313.011</ele>
        <time>2010-06-14T16:37:15Z</time>
      </trkpt>
      <trkpt lat="42.585046" lon="0.697331">
        <ele>2313.006</ele>
        <time>2010-06-14T16:37:24Z</time>
      </trkpt>
      <trkpt lat="42.584982" lon="0.697417">
        <ele>2324.092</ele>
        <time>2010-06-14T16:37:34Z</time>
      </trkpt>
      <trkpt lat="42.584896" lon="0.697589">
        <ele>2324.039</ele>
        <time>2010-06-14T16:37:48Z</time>
      </trkpt>
      <trkpt lat="42.584832" lon="0.697675">
        <ele>2328.016</ele>
        <time>2010-06-14T16:37:58Z</time>
      </trkpt>
      <trkpt lat="42.584853" lon="0.697718">
        <ele>2328.034</ele>
        <time>2010-06-14T16:38:01Z</time>
      </trkpt>
      <trkpt lat="42.585003" lon="0.697675">
        <ele>2337.012</ele>
        <time>2010-06-14T16:38:18Z</time>
      </trkpt>
      <trkpt lat="42.585025" lon="0.697739">
        <ele>2337.094</ele>
        <time>2010-06-14T16:38:22Z</time>
      </trkpt>
      <trkpt lat="42.584982" lon="0.697804">
        <ele>2337.035</ele>
        <time>2010-06-14T16:38:28Z</time>
      </trkpt>
      <trkpt lat="42.585003" lon="0.697868">
        <ele>2337.086</ele>
        <time>2010-06-14T16:38:34Z</time>
      </trkpt>
      <trkpt lat="42.584960" lon="0.697889">
        <ele>2337.014</ele>
        <time>2010-06-14T16:38:38Z</time>
      </trkpt>
      <trkpt lat="42.584918" lon="0.697954">
        <ele>2351.006</ele>
        <time>2010-06-14T16:38:44Z</time>
      </trkpt>
      <trkpt lat="42.585025" lon="0.698082">
        <ele>2351.012</ele>
        <time>2010-06-14T16:39:00Z</time>
      </trkpt>
      <trkpt lat="42.585175" lon="0.698125">
        <ele>2361.019</ele>
        <time>2010-06-14T16:39:14Z</time>
      </trkpt>
      <trkpt lat="42.585390" lon="0.698104">
        <ele>2361.096</ele>
        <time>2010-06-14T16:39:35Z</time>
      </trkpt>
      <trkpt lat="42.585475" lon="0.698061">
        <ele>2370.064</ele>
        <time>2010-06-14T16:39:46Z</time>
      </trkpt>
      <trkpt lat="42.585518" lon="0.698125">
        <ele>2370.012</ele>
        <time>2010-06-14T16:39:51Z</time>
      </trkpt>
      <trkpt lat="42.585604" lon="0.698104">
        <ele>2370.064</ele>
        <time>2010-06-14T16:40:01Z</time>
      </trkpt>
      <trkpt lat="42.585647" lon="0.698061">
        <ele>2370.017</ele>
        <time>2010-06-14T16:40:05Z</time>
      </trkpt>
      <trkpt lat="42.585669" lon="0.698061">
        <ele>2370.087</ele>
        <time>2010-06-14T16:40:07Z</time>
      </trkpt>
      <trkpt lat="42.585626" lon="0.698147">
        <ele>2370.015</ele>
        <time>2010-06-14T16:40:16Z</time>
      </trkpt>
      <trkpt lat="42.585540" lon="0.698340">
        <ele>2378.006</ele>
        <time>2010-06-14T16:40:32Z</time>
      </trkpt>
      <trkpt lat="42.585518" lon="0.698404">
        <ele>2378.020</ele>
        <time>2010-06-14T16:40:37Z</time>
      </trkpt>
      <trkpt lat="42.585411" lon="0.698597">
        <ele>2383.057</ele>
        <time>2010-06-14T16:40:55Z</time>
      </trkpt>
      <trkpt lat="42.585433" lon="0.698640">
        <ele>2384.014</ele>
        <time>2010-06-14T16:40:58Z</time>
      </trkpt>
      <trkpt lat="42.585475" lon="0.698662">
        <ele>2384.052</ele>
        <time>2010-06-14T16:41:04Z</time>
      </trkpt>
      <trkpt lat="42.585647" lon="0.698555">
        <ele>2384.010</ele>
        <time>2010-06-14T16:41:23Z</time>
      </trkpt>
      <trkpt lat="42.585733" lon="0.698512">
        <ele>2382.092</ele>
        <time>2010-06-14T16:41:31Z</time>
      </trkpt>
      <trkpt lat="42.585948" lon="0.698490">
        <ele>2382.059</ele>
        <time>2010-06-14T16:41:54Z</time>
      </trkpt>
      <trkpt lat="42.586055" lon="0.698512">
        <ele>2375.003</ele>
        <time>2010-06-14T16:42:03Z</time>
      </trkpt>
      <trkpt lat="42.586119" lon="0.698383">
        <ele>2379.023</ele>
        <time>2010-06-14T16:42:16Z</time>
      </trkpt>
      <trkpt lat="42.586226" lon="0.698426">
        <ele>2379.006</ele>
        <time>2010-06-14T16:42:27Z</time>
      </trkpt>
      <trkpt lat="42.586377" lon="0.698404">
        <ele>2378.014</ele>
        <time>2010-06-14T16:42:41Z</time>
      </trkpt>
      <trkpt lat="42.586441" lon="0.698404">
        <ele>2378.041</ele>
        <time>2010-06-14T16:42:49Z</time>
      </trkpt>
      <trkpt lat="42.586441" lon="0.698533">
        <ele>2366.068</ele>
        <time>2010-06-14T16:42:57Z</time>
      </trkpt>
      <trkpt lat="42.586398" lon="0.698619">
        <ele>2366.036</ele>
        <time>2010-06-14T16:43:05Z</time>
      </trkpt>
      <trkpt lat="42.586420" lon="0.698705">
        <ele>2366.074</ele>
        <time>2010-06-14T16:43:12Z</time>
      </trkpt>
      <trkpt lat="42.586377" lon="0.698833">
        <ele>2357.046</ele>
        <time>2010-06-14T16:43:23Z</time>
      </trkpt>
      <trkpt lat="42.586420" lon="0.698876">
        <ele>2357.087</ele>
        <time>2010-06-14T16:43:27Z</time>
      </trkpt>
      <trkpt lat="42.586420" lon="0.698984">
        <ele>2357.042</ele>
        <time>2010-06-14T16:43:35Z</time>
      </trkpt>
      <trkpt lat="42.586441" lon="0.699070">
        <ele>2354.026</ele>
        <time>2010-06-14T16:43:43Z</time>
      </trkpt>
      <trkpt lat="42.586377" lon="0.699241">
        <ele>2354.006</ele>
        <time>2010-06-14T16:43:56Z</time>
      </trkpt>
      <trkpt lat="42.586355" lon="0.699284">
        <ele>2354.037</ele>
        <time>2010-06-14T16:44:01Z</time>
      </trkpt>
      <trkpt lat="42.586355" lon="0.699348">
        <ele>2355.064</ele>
        <time>2010-06-14T16:44:06Z</time>
      </trkpt>
      <trkpt lat="42.586312" lon="0.699520">
        <ele>2355.021</ele>
        <time>2010-06-14T16:44:18Z</time>
      </trkpt>
      <trkpt lat="42.586334" lon="0.699542">
        <ele>2355.039</ele>
        <time>2010-06-14T16:44:22Z</time>
      </trkpt>
      <trkpt lat="42.586312" lon="0.699627">
        <ele>2358.057</ele>
        <time>2010-06-14T16:44:28Z</time>
      </trkpt>
      <trkpt lat="42.586248" lon="0.699756">
        <ele>2373.019</ele>
        <time>2010-06-14T16:44:39Z</time>
      </trkpt>
      <trkpt lat="42.586248" lon="0.699821">
        <ele>2373.054</ele>
        <time>2010-06-14T16:44:44Z</time>
      </trkpt>
      <trkpt lat="42.586269" lon="0.699885">
        <ele>2360.056</ele>
        <time>2010-06-14T16:44:50Z</time>
      </trkpt>
      <trkpt lat="42.586269" lon="0.700164">
        <ele>2359.011</ele>
        <time>2010-06-14T16:45:09Z</time>
      </trkpt>
      <trkpt lat="42.586312" lon="0.700185">
        <ele>2359.006</ele>
        <time>2010-06-14T16:45:14Z</time>
      </trkpt>
      <trkpt lat="42.586312" lon="0.700357">
        <ele>2359.024</ele>
        <time>2010-06-14T16:45:27Z</time>
      </trkpt>
      <trkpt lat="42.586334" lon="0.700443">
        <ele>2358.091</ele>
        <time>2010-06-14T16:45:33Z</time>
      </trkpt>
      <trkpt lat="42.586334" lon="0.700572">
        <ele>2358.038</ele>
        <time>2010-06-14T16:45:44Z</time>
      </trkpt>
      <trkpt lat="42.586355" lon="0.700679">
        <ele>2358.046</ele>
        <time>2010-06-14T16:45:51Z</time>
      </trkpt>
      <trkpt lat="42.586355" lon="0.700743">
        <ele>2354.084</ele>
        <time>2010-06-14T16:45:57Z</time>
      </trkpt>
      <trkpt lat="42.586398" lon="0.700743">
        <ele>2354.046</ele>
        <time>2010-06-14T16:46:00Z</time>
      </trkpt>
      <trkpt lat="42.586420" lon="0.700700">
        <ele>2354.037</ele>
        <time>2010-06-14T16:46:05Z</time>
      </trkpt>
      <trkpt lat="42.586505" lon="0.700700">
        <ele>2354.049</ele>
        <time>2010-06-14T16:46:13Z</time>
      </trkpt>
      <trkpt lat="42.586484" lon="0.700829">
        <ele>2354.013</ele>
        <time>2010-06-14T16:46:23Z</time>
      </trkpt>
      <trkpt lat="42.586420" lon="0.701001">
        <ele>2349.006</ele>
        <time>2010-06-14T16:46:37Z</time>
      </trkpt>
      <trkpt lat="42.586355" lon="0.701258">
        <ele>2341.052</ele>
        <time>2010-06-14T16:46:57Z</time>
      </trkpt>
      <trkpt lat="42.586355" lon="0.701473">
        <ele>2341.099</ele>
        <time>2010-06-14T16:47:13Z</time>
      </trkpt>
      <trkpt lat="42.586334" lon="0.701623">
        <ele>2332.066</ele>
        <time>2010-06-14T16:47:23Z</time>
      </trkpt>
      <trkpt lat="42.586312" lon="0.701687">
        <ele>2332.044</ele>
        <time>2010-06-14T16:47:29Z</time>
      </trkpt>
      <trkpt lat="42.586377" lon="0.701644">
        <ele>2332.022</ele>
        <time>2010-06-14T16:47:36Z</time>
      </trkpt>
      <trkpt lat="42.586420" lon="0.701687">
        <ele>2332.014</ele>
        <time>2010-06-14T16:47:42Z</time>
      </trkpt>
      <trkpt lat="42.586441" lon="0.701730">
        <ele>2332.012</ele>
        <time>2010-06-14T16:47:45Z</time>
      </trkpt>
      <trkpt lat="42.586420" lon="0.701859">
        <ele>2324.032</ele>
        <time>2010-06-14T16:47:55Z</time>
      </trkpt>
      <trkpt lat="42.586505" lon="0.701902">
        <ele>2324.005</ele>
        <time>2010-06-14T16:48:04Z</time>
      </trkpt>
      <trkpt lat="42.586548" lon="0.701966">
        <ele>2310.006</ele>
        <time>2010-06-14T16:48:11Z</time>
      </trkpt>
      <trkpt lat="42.586591" lon="0.702095">
        <ele>2301.050</ele>
        <time>2010-06-14T16:48:22Z</time>
      </trkpt>
      <trkpt lat="42.586570" lon="0.702159">
        <ele>2301.017</ele>
        <time>2010-06-14T16:48:27Z</time>
      </trkpt>
      <trkpt lat="42.586613" lon="0.702202">
        <ele>2301.034</ele>
        <time>2010-06-14T16:48:32Z</time>
      </trkpt>
      <trkpt lat="42.586699" lon="0.702245">
        <ele>2301.072</ele>
        <time>2010-06-14T16:48:41Z</time>
      </trkpt>
      <trkpt lat="42.586784" lon="0.702417">
        <ele>2293.090</ele>
        <time>2010-06-14T16:48:55Z</time>
      </trkpt>
      <trkpt lat="42.586827" lon="0.702438">
        <ele>2281.072</ele>
        <time>2010-06-14T16:49:00Z</time>
      </trkpt>
      <trkpt lat="42.586892" lon="0.702567">
        <ele>2281.041</ele>
        <time>2010-06-14T16:49:13Z</time>
      </trkpt>
      <trkpt lat="42.586892" lon="0.702674">
        <ele>2277.081</ele>
        <time>2010-06-14T16:49:19Z</time>
      </trkpt>
      <trkpt lat="42.586806" lon="0.703061">
        <ele>2272.009</ele>
        <time>2010-06-14T16:49:50Z</time>
      </trkpt>
      <trkpt lat="42.586827" lon="0.703168">
        <ele>2272.006</ele>
        <time>2010-06-14T16:49:58Z</time>
      </trkpt>
      <trkpt lat="42.586763" lon="0.703511">
        <ele>2272.033</ele>
        <time>2010-06-14T16:50:24Z</time>
      </trkpt>
      <trkpt lat="42.586784" lon="0.703533">
        <ele>2272.030</ele>
        <time>2010-06-14T16:50:26Z</time>
      </trkpt>
      <trkpt lat="42.586677" lon="0.703747">
        <ele>2272.037</ele>
        <time>2010-06-14T16:50:45Z</time>
      </trkpt>
      <trkpt lat="42.586634" lon="0.703876">
        <ele>2269.015</ele>
        <time>2010-06-14T16:50:56Z</time>
      </trkpt>
      <trkpt lat="42.586591" lon="0.703919">
        <ele>2269.093</ele>
        <time>2010-06-14T16:51:01Z</time>
      </trkpt>
      <trkpt lat="42.586570" lon="0.704005">
        <ele>2269.075</ele>
        <time>2010-06-14T16:51:09Z</time>
      </trkpt>
      <trkpt lat="42.586548" lon="0.704584">
        <ele>2264.076</ele>
        <time>2010-06-14T16:51:51Z</time>
      </trkpt>
      <trkpt lat="42.586527" lon="0.704820">
        <ele>2272.090</ele>
        <time>2010-06-14T16:52:08Z</time>
      </trkpt>
      <trkpt lat="42.586441" lon="0.704906">
        <ele>2270.019</ele>
        <time>2010-06-14T16:52:19Z</time>
      </trkpt>
      <trkpt lat="42.586441" lon="0.704970">
        <ele>2270.006</ele>
        <time>2010-06-14T16:52:24Z</time>
      </trkpt>
      <trkpt lat="42.586484" lon="0.705056">
        <ele>2270.056</ele>
        <time>2010-06-14T16:52:32Z</time>
      </trkpt>
      <trkpt lat="42.586570" lon="0.705335">
        <ele>2259.093</ele>
        <time>2010-06-14T16:52:54Z</time>
      </trkpt>
      <trkpt lat="42.586570" lon="0.705378">
        <ele>2259.080</ele>
        <time>2010-06-14T16:52:57Z</time>
      </trkpt>
      <trkpt lat="42.586699" lon="0.705550">
        <ele>2258.078</ele>
        <time>2010-06-14T16:53:15Z</time>
      </trkpt>
      <trkpt lat="42.586849" lon="0.705743">
        <ele>2255.056</ele>
        <time>2010-06-14T16:53:36Z</time>
      </trkpt>
      <trkpt lat="42.586892" lon="0.705850">
        <ele>2255.068</ele>
        <time>2010-06-14T16:53:45Z</time>
      </trkpt>
      <trkpt lat="42.586892" lon="0.705936">
        <ele>2255.075</ele>
        <time>2010-06-14T16:53:51Z</time>
      </trkpt>
      <trkpt lat="42.586977" lon="0.706086">
        <ele>2256.028</ele>
        <time>2010-06-14T16:54:04Z</time>
      </trkpt>
      <trkpt lat="42.587063" lon="0.706172">
        <ele>2256.020</ele>
        <time>2010-06-14T16:54:15Z</time>
      </trkpt>
      <trkpt lat="42.587106" lon="0.706193">
        <ele>2255.006</ele>
        <time>2010-06-14T16:54:20Z</time>
      </trkpt>
      <trkpt lat="42.587235" lon="0.706451">
        <ele>2255.056</ele>
        <time>2010-06-14T16:54:44Z</time>
      </trkpt>
      <trkpt lat="42.587535" lon="0.706773">
        <ele>2255.073</ele>
        <time>2010-06-14T16:55:21Z</time>
      </trkpt>
      <trkpt lat="42.587664" lon="0.707009">
        <ele>2255.030</ele>
        <time>2010-06-14T16:55:43Z</time>
      </trkpt>
      <trkpt lat="42.588050" lon="0.707438">
        <ele>2253.058</ele>
        <time>2010-06-14T16:56:32Z</time>
      </trkpt>
      <trkpt lat="42.588136" lon="0.707567">
        <ele>2253.096</ele>
        <time>2010-06-14T16:56:45Z</time>
      </trkpt>
      <trkpt lat="42.588136" lon="0.707588">
        <ele>2253.068</ele>
        <time>2010-06-14T16:56:48Z</time>
      </trkpt>
      <trkpt lat="42.588179" lon="0.707653">
        <ele>2253.068</ele>
        <time>2010-06-14T16:56:53Z</time>
      </trkpt>
      <trkpt lat="42.588394" lon="0.707867">
        <ele>2252.042</ele>
        <time>2010-06-14T16:57:20Z</time>
      </trkpt>
      <trkpt lat="42.588415" lon="0.707910">
        <ele>2252.026</ele>
        <time>2010-06-14T16:57:25Z</time>
      </trkpt>
      <trkpt lat="42.588608" lon="0.708103">
        <ele>2249.006</ele>
        <time>2010-06-14T16:57:49Z</time>
      </trkpt>
      <trkpt lat="42.588694" lon="0.708189">
        <ele>2249.035</ele>
        <time>2010-06-14T16:57:58Z</time>
      </trkpt>
      <trkpt lat="42.589123" lon="0.708404">
        <ele>2243.082</ele>
        <time>2010-06-14T16:58:44Z</time>
      </trkpt>
      <trkpt lat="42.589295" lon="0.708404">
        <ele>2243.019</ele>
        <time>2010-06-14T16:59:02Z</time>
      </trkpt>
      <trkpt lat="42.589359" lon="0.708425">
        <ele>2241.057</ele>
        <time>2010-06-14T16:59:08Z</time>
      </trkpt>
      <trkpt lat="42.589359" lon="0.708447">
        <ele>2241.045</ele>
        <time>2010-06-14T16:59:10Z</time>
      </trkpt>
      <trkpt lat="42.589381" lon="0.708468">
        <ele>2241.067</ele>
        <time>2010-06-14T16:59:13Z</time>
      </trkpt>
      <trkpt lat="42.589381" lon="0.708532">
        <ele>2240.036</ele>
        <time>2010-06-14T16:59:18Z</time>
      </trkpt>
      <trkpt lat="42.589445" lon="0.708597">
        <ele>2240.017</ele>
        <time>2010-06-14T16:59:26Z</time>
      </trkpt>
      <trkpt lat="42.589509" lon="0.708897">
        <ele>2239.018</ele>
        <time>2010-06-14T16:59:48Z</time>
      </trkpt>
      <trkpt lat="42.589552" lon="0.708962">
        <ele>2239.006</ele>
        <time>2010-06-14T16:59:54Z</time>
      </trkpt>
      <trkpt lat="42.589574" lon="0.709026">
        <ele>2239.022</ele>
        <time>2010-06-14T17:00:01Z</time>
      </trkpt>
      <trkpt lat="42.589574" lon="0.709176">
        <ele>2239.079</ele>
        <time>2010-06-14T17:00:12Z</time>
      </trkpt>
      <trkpt lat="42.589681" lon="0.709434">
        <ele>2237.016</ele>
        <time>2010-06-14T17:00:33Z</time>
      </trkpt>
      <trkpt lat="42.589703" lon="0.709412">
        <ele>2237.074</ele>
        <time>2010-06-14T17:00:36Z</time>
      </trkpt>
      <trkpt lat="42.589788" lon="0.709412">
        <ele>2237.012</ele>
        <time>2010-06-14T17:00:45Z</time>
      </trkpt>
      <trkpt lat="42.589853" lon="0.709391">
        <ele>2237.024</ele>
        <time>2010-06-14T17:00:50Z</time>
      </trkpt>
      <trkpt lat="42.590110" lon="0.709391">
        <ele>2234.069</ele>
        <time>2010-06-14T17:01:17Z</time>
      </trkpt>
      <trkpt lat="42.590067" lon="0.709326">
        <ele>2234.004</ele>
        <time>2010-06-14T17:01:24Z</time>
      </trkpt>
      <trkpt lat="42.589960" lon="0.709391">
        <ele>2234.024</ele>
        <time>2010-06-14T17:01:35Z</time>
      </trkpt>
      <trkpt lat="42.589788" lon="0.709605">
        <ele>2237.006</ele>
        <time>2010-06-14T17:01:59Z</time>
      </trkpt>
      <trkpt lat="42.589703" lon="0.709841">
        <ele>2237.025</ele>
        <time>2010-06-14T17:02:18Z</time>
      </trkpt>
      <trkpt lat="42.589724" lon="0.709927">
        <ele>2236.072</ele>
        <time>2010-06-14T17:02:24Z</time>
      </trkpt>
      <trkpt lat="42.589681" lon="0.710313">
        <ele>2234.099</ele>
        <time>2010-06-14T17:02:53Z</time>
      </trkpt>
      <trkpt lat="42.589767" lon="0.710464">
        <ele>2232.047</ele>
        <time>2010-06-14T17:03:07Z</time>
      </trkpt>
      <trkpt lat="42.589788" lon="0.710592">
        <ele>2232.095</ele>
        <time>2010-06-14T17:03:17Z</time>
      </trkpt>
      <trkpt lat="42.589746" lon="0.710764">
        <ele>2230.067</ele>
        <time>2010-06-14T17:03:31Z</time>
      </trkpt>
      <trkpt lat="42.589746" lon="0.710828">
        <ele>2230.084</ele>
        <time>2010-06-14T17:03:34Z</time>
      </trkpt>
      <trkpt lat="42.589831" lon="0.711043">
        <ele>2228.007</ele>
        <time>2010-06-14T17:03:53Z</time>
      </trkpt>
      <trkpt lat="42.590110" lon="0.711408">
        <ele>2222.017</ele>
        <time>2010-06-14T17:04:32Z</time>
      </trkpt>
      <trkpt lat="42.590132" lon="0.711579">
        <ele>2222.006</ele>
        <time>2010-06-14T17:04:44Z</time>
      </trkpt>
      <trkpt lat="42.590110" lon="0.711601">
        <ele>2222.017</ele>
        <time>2010-06-14T17:04:47Z</time>
      </trkpt>
      <trkpt lat="42.590067" lon="0.711601">
        <ele>2222.074</ele>
        <time>2010-06-14T17:04:52Z</time>
      </trkpt>
      <trkpt lat="42.590089" lon="0.711665">
        <ele>2222.031</ele>
        <time>2010-06-14T17:04:57Z</time>
      </trkpt>
      <trkpt lat="42.590089" lon="0.711687">
        <ele>2222.039</ele>
        <time>2010-06-14T17:04:59Z</time>
      </trkpt>
      <trkpt lat="42.590175" lon="0.711730">
        <ele>2217.047</ele>
        <time>2010-06-14T17:05:08Z</time>
      </trkpt>
      <trkpt lat="42.590239" lon="0.711687">
        <ele>2217.089</ele>
        <time>2010-06-14T17:05:14Z</time>
      </trkpt>
      <trkpt lat="42.590475" lon="0.711794">
        <ele>2213.042</ele>
        <time>2010-06-14T17:05:40Z</time>
      </trkpt>
      <trkpt lat="42.590625" lon="0.711923">
        <ele>2214.022</ele>
        <time>2010-06-14T17:05:57Z</time>
      </trkpt>
      <trkpt lat="42.590625" lon="0.711944">
        <ele>2214.014</ele>
        <time>2010-06-14T17:05:59Z</time>
      </trkpt>
      <trkpt lat="42.590754" lon="0.712137">
        <ele>2212.006</ele>
        <time>2010-06-14T17:06:18Z</time>
      </trkpt>
      <trkpt lat="42.590861" lon="0.712245">
        <ele>2212.023</ele>
        <time>2010-06-14T17:06:32Z</time>
      </trkpt>
      <trkpt lat="42.590947" lon="0.712395">
        <ele>2213.050</ele>
        <time>2010-06-14T17:06:45Z</time>
      </trkpt>
      <trkpt lat="42.590969" lon="0.712459">
        <ele>2213.057</ele>
        <time>2010-06-14T17:06:51Z</time>
      </trkpt>
      <trkpt lat="42.590990" lon="0.712609">
        <ele>2211.025</ele>
        <time>2010-06-14T17:07:01Z</time>
      </trkpt>
      <trkpt lat="42.590990" lon="0.712888">
        <ele>2212.043</ele>
        <time>2010-06-14T17:07:23Z</time>
      </trkpt>
      <trkpt lat="42.590969" lon="0.712953">
        <ele>2215.095</ele>
        <time>2010-06-14T17:07:28Z</time>
      </trkpt>
      <trkpt lat="42.590969" lon="0.712974">
        <ele>2215.074</ele>
        <time>2010-06-14T17:07:30Z</time>
      </trkpt>
      <trkpt lat="42.591012" lon="0.713189">
        <ele>2213.056</ele>
        <time>2010-06-14T17:07:46Z</time>
      </trkpt>
      <trkpt lat="42.591012" lon="0.713253">
        <ele>2214.021</ele>
        <time>2010-06-14T17:07:50Z</time>
      </trkpt>
      <trkpt lat="42.591119" lon="0.713360">
        <ele>2214.006</ele>
        <time>2010-06-14T17:08:03Z</time>
      </trkpt>
      <trkpt lat="42.591441" lon="0.713382">
        <ele>2211.036</ele>
        <time>2010-06-14T17:08:35Z</time>
      </trkpt>
      <trkpt lat="42.591612" lon="0.713575">
        <ele>2209.053</ele>
        <time>2010-06-14T17:08:57Z</time>
      </trkpt>
      <trkpt lat="42.591720" lon="0.713832">
        <ele>2209.090</ele>
        <time>2010-06-14T17:09:20Z</time>
      </trkpt>
      <trkpt lat="42.591827" lon="0.714004">
        <ele>2207.038</ele>
        <time>2010-06-14T17:09:37Z</time>
      </trkpt>
      <trkpt lat="42.591977" lon="0.714133">
        <ele>2207.066</ele>
        <time>2010-06-14T17:09:55Z</time>
      </trkpt>
      <trkpt lat="42.591977" lon="0.714154">
        <ele>2207.048</ele>
        <time>2010-06-14T17:09:56Z</time>
      </trkpt>
      <trkpt lat="42.592041" lon="0.714197">
        <ele>2207.031</ele>
        <time>2010-06-14T17:10:03Z</time>
      </trkpt>
      <trkpt lat="42.592192" lon="0.714433">
        <ele>2206.061</ele>
        <time>2010-06-14T17:10:25Z</time>
      </trkpt>
      <trkpt lat="42.592320" lon="0.714540">
        <ele>2206.007</ele>
        <time>2010-06-14T17:10:41Z</time>
      </trkpt>
      <trkpt lat="42.592342" lon="0.714605">
        <ele>2206.006</ele>
        <time>2010-06-14T17:10:47Z</time>
      </trkpt>
      <trkpt lat="42.592406" lon="0.714819">
        <ele>2205.082</ele>
        <time>2010-06-14T17:11:03Z</time>
      </trkpt>
      <trkpt lat="42.592449" lon="0.714884">
        <ele>2205.019</ele>
        <time>2010-06-14T17:11:09Z</time>
      </trkpt>
      <trkpt lat="42.592621" lon="0.715034">
        <ele>2205.046</ele>
        <time>2010-06-14T17:11:30Z</time>
      </trkpt>
      <trkpt lat="42.592664" lon="0.715292">
        <ele>2204.084</ele>
        <time>2010-06-14T17:11:49Z</time>
      </trkpt>
      <trkpt lat="42.592771" lon="0.715463">
        <ele>2205.082</ele>
        <time>2010-06-14T17:12:07Z</time>
      </trkpt>
      <trkpt lat="42.592814" lon="0.715656">
        <ele>2205.044</ele>
        <time>2010-06-14T17:12:21Z</time>
      </trkpt>
      <trkpt lat="42.592857" lon="0.715742">
        <ele>2205.042</ele>
        <time>2010-06-14T17:12:29Z</time>
      </trkpt>
      <trkpt lat="42.592900" lon="0.715785">
        <ele>2205.022</ele>
        <time>2010-06-14T17:12:34Z</time>
      </trkpt>
      <trkpt lat="42.593007" lon="0.716300">
        <ele>2201.014</ele>
        <time>2010-06-14T17:13:14Z</time>
      </trkpt>
      <trkpt lat="42.593050" lon="0.716343">
        <ele>2201.006</ele>
        <time>2010-06-14T17:13:18Z</time>
      </trkpt>
      <trkpt lat="42.593093" lon="0.716493">
        <ele>2201.063</ele>
        <time>2010-06-14T17:13:31Z</time>
      </trkpt>
      <trkpt lat="42.593093" lon="0.716579">
        <ele>2200.040</ele>
        <time>2010-06-14T17:13:36Z</time>
      </trkpt>
      <trkpt lat="42.593071" lon="0.716665">
        <ele>2200.057</ele>
        <time>2010-06-14T17:13:44Z</time>
      </trkpt>
      <trkpt lat="42.593136" lon="0.716901">
        <ele>2200.045</ele>
        <time>2010-06-14T17:14:03Z</time>
      </trkpt>
      <trkpt lat="42.593093" lon="0.717244">
        <ele>2200.053</ele>
        <time>2010-06-14T17:14:27Z</time>
      </trkpt>
      <trkpt lat="42.593050" lon="0.717652">
        <ele>2199.025</ele>
        <time>2010-06-14T17:14:59Z</time>
      </trkpt>
      <trkpt lat="42.593007" lon="0.718060">
        <ele>2198.079</ele>
        <time>2010-06-14T17:15:29Z</time>
      </trkpt>
      <trkpt lat="42.592986" lon="0.718124">
        <ele>2198.005</ele>
        <time>2010-06-14T17:15:34Z</time>
      </trkpt>
      <trkpt lat="42.593029" lon="0.718253">
        <ele>2198.025</ele>
        <time>2010-06-14T17:15:45Z</time>
      </trkpt>
      <trkpt lat="42.593157" lon="0.718381">
        <ele>2198.006</ele>
        <time>2010-06-14T17:16:01Z</time>
      </trkpt>
      <trkpt lat="42.593286" lon="0.718596">
        <ele>2190.026</ele>
        <time>2010-06-14T17:16:21Z</time>
      </trkpt>
      <trkpt lat="42.593243" lon="0.718768">
        <ele>2189.033</ele>
        <time>2010-06-14T17:16:34Z</time>
      </trkpt>
      <trkpt lat="42.593265" lon="0.719090">
        <ele>2188.030</ele>
        <time>2010-06-14T17:16:58Z</time>
      </trkpt>
      <trkpt lat="42.593308" lon="0.719411">
        <ele>2187.018</ele>
        <time>2010-06-14T17:17:22Z</time>
      </trkpt>
      <trkpt lat="42.593329" lon="0.719519">
        <ele>2187.046</ele>
        <time>2010-06-14T17:17:30Z</time>
      </trkpt>
      <trkpt lat="42.593350" lon="0.719948">
        <ele>2182.098</ele>
        <time>2010-06-14T17:18:02Z</time>
      </trkpt>
      <trkpt lat="42.593393" lon="0.719991">
        <ele>2182.035</ele>
        <time>2010-06-14T17:18:07Z</time>
      </trkpt>
      <trkpt lat="42.593393" lon="0.720034">
        <ele>2182.086</ele>
        <time>2010-06-14T17:18:10Z</time>
      </trkpt>
      <trkpt lat="42.593436" lon="0.720141">
        <ele>2179.014</ele>
        <time>2010-06-14T17:18:19Z</time>
      </trkpt>
      <trkpt lat="42.593436" lon="0.720291">
        <ele>2179.006</ele>
        <time>2010-06-14T17:18:30Z</time>
      </trkpt>
      <trkpt lat="42.593479" lon="0.720398">
        <ele>2171.092</ele>
        <time>2010-06-14T17:18:40Z</time>
      </trkpt>
      <trkpt lat="42.593565" lon="0.720506">
        <ele>2168.049</ele>
        <time>2010-06-14T17:18:51Z</time>
      </trkpt>
      <trkpt lat="42.593586" lon="0.720634">
        <ele>2168.066</ele>
        <time>2010-06-14T17:19:01Z</time>
      </trkpt>
      <trkpt lat="42.593629" lon="0.720613">
        <ele>2168.024</ele>
        <time>2010-06-14T17:19:05Z</time>
      </trkpt>
      <trkpt lat="42.593715" lon="0.720720">
        <ele>2163.012</ele>
        <time>2010-06-14T17:19:17Z</time>
      </trkpt>
      <trkpt lat="42.593780" lon="0.721064">
        <ele>2160.034</ele>
        <time>2010-06-14T17:19:42Z</time>
      </trkpt>
      <trkpt lat="42.593780" lon="0.721343">
        <ele>2156.018</ele>
        <time>2010-06-14T17:20:04Z</time>
      </trkpt>
      <trkpt lat="42.593651" lon="0.721664">
        <ele>2156.098</ele>
        <time>2010-06-14T17:20:30Z</time>
      </trkpt>
      <trkpt lat="42.593672" lon="0.721815">
        <ele>2153.017</ele>
        <time>2010-06-14T17:20:42Z</time>
      </trkpt>
      <trkpt lat="42.593651" lon="0.722115">
        <ele>2150.006</ele>
        <time>2010-06-14T17:21:03Z</time>
      </trkpt>
      <trkpt lat="42.593651" lon="0.722158">
        <ele>2150.080</ele>
        <time>2010-06-14T17:21:08Z</time>
      </trkpt>
      <trkpt lat="42.593629" lon="0.722179">
        <ele>2150.097</ele>
        <time>2010-06-14T17:21:10Z</time>
      </trkpt>
      <trkpt lat="42.593672" lon="0.722244">
        <ele>2150.064</ele>
        <time>2010-06-14T17:21:17Z</time>
      </trkpt>
      <trkpt lat="42.593651" lon="0.722351">
        <ele>2150.022</ele>
        <time>2010-06-14T17:21:24Z</time>
      </trkpt>
      <trkpt lat="42.593672" lon="0.722651">
        <ele>2138.030</ele>
        <time>2010-06-14T17:21:46Z</time>
      </trkpt>
      <trkpt lat="42.593651" lon="0.722759">
        <ele>2138.082</ele>
        <time>2010-06-14T17:21:54Z</time>
      </trkpt>
      <trkpt lat="42.593672" lon="0.722845">
        <ele>2138.098</ele>
        <time>2010-06-14T17:22:02Z</time>
      </trkpt>
      <trkpt lat="42.593672" lon="0.722995">
        <ele>2129.015</ele>
        <time>2010-06-14T17:22:12Z</time>
      </trkpt>
      <trkpt lat="42.593629" lon="0.723209">
        <ele>2120.026</ele>
        <time>2010-06-14T17:22:28Z</time>
      </trkpt>
      <trkpt lat="42.593436" lon="0.723381">
        <ele>2122.006</ele>
        <time>2010-06-14T17:22:52Z</time>
      </trkpt>
      <trkpt lat="42.593436" lon="0.723424">
        <ele>2122.088</ele>
        <time>2010-06-14T17:22:56Z</time>
      </trkpt>
      <trkpt lat="42.593372" lon="0.723531">
        <ele>2112.015</ele>
        <time>2010-06-14T17:23:06Z</time>
      </trkpt>
      <trkpt lat="42.593393" lon="0.723574">
        <ele>2112.092</ele>
        <time>2010-06-14T17:23:09Z</time>
      </trkpt>
      <trkpt lat="42.593286" lon="0.723746">
        <ele>2112.020</ele>
        <time>2010-06-14T17:23:25Z</time>
      </trkpt>
      <trkpt lat="42.593286" lon="0.723767">
        <ele>2102.098</ele>
        <time>2010-06-14T17:23:28Z</time>
      </trkpt>
      <trkpt lat="42.593222" lon="0.723810">
        <ele>2102.070</ele>
        <time>2010-06-14T17:23:35Z</time>
      </trkpt>
      <trkpt lat="42.593157" lon="0.723960">
        <ele>2105.013</ele>
        <time>2010-06-14T17:23:47Z</time>
      </trkpt>
      <trkpt lat="42.593157" lon="0.724111">
        <ele>2095.043</ele>
        <time>2010-06-14T17:23:58Z</time>
      </trkpt>
      <trkpt lat="42.593093" lon="0.724218">
        <ele>2095.007</ele>
        <time>2010-06-14T17:24:09Z</time>
      </trkpt>
      <trkpt lat="42.593200" lon="0.724347">
        <ele>2085.006</ele>
        <time>2010-06-14T17:24:22Z</time>
      </trkpt>
      <trkpt lat="42.593157" lon="0.724454">
        <ele>2086.050</ele>
        <time>2010-06-14T17:24:32Z</time>
      </trkpt>
      <trkpt lat="42.593157" lon="0.724518">
        <ele>2086.037</ele>
        <time>2010-06-14T17:24:37Z</time>
      </trkpt>
      <trkpt lat="42.593093" lon="0.724626">
        <ele>2077.034</ele>
        <time>2010-06-14T17:24:46Z</time>
      </trkpt>
      <trkpt lat="42.593029" lon="0.724690">
        <ele>2077.012</ele>
        <time>2010-06-14T17:24:54Z</time>
      </trkpt>
      <trkpt lat="42.593007" lon="0.724690">
        <ele>2077.030</ele>
        <time>2010-06-14T17:24:57Z</time>
      </trkpt>
      <trkpt lat="42.592943" lon="0.724862">
        <ele>2068.082</ele>
        <time>2010-06-14T17:25:12Z</time>
      </trkpt>
      <trkpt lat="42.592986" lon="0.725012">
        <ele>2068.059</ele>
        <time>2010-06-14T17:25:23Z</time>
      </trkpt>
      <trkpt lat="42.592964" lon="0.725119">
        <ele>2068.003</ele>
        <time>2010-06-14T17:25:32Z</time>
      </trkpt>
      <trkpt lat="42.593007" lon="0.725205">
        <ele>2060.023</ele>
        <time>2010-06-14T17:25:39Z</time>
      </trkpt>
      <trkpt lat="42.592986" lon="0.725334">
        <ele>2060.006</ele>
        <time>2010-06-14T17:25:48Z</time>
      </trkpt>
      <trkpt lat="42.592986" lon="0.725441">
        <ele>2051.044</ele>
        <time>2010-06-14T17:25:56Z</time>
      </trkpt>
      <trkpt lat="42.592943" lon="0.725548">
        <ele>2051.021</ele>
        <time>2010-06-14T17:26:06Z</time>
      </trkpt>
      <trkpt lat="42.592943" lon="0.725634">
        <ele>2051.038</ele>
        <time>2010-06-14T17:26:12Z</time>
      </trkpt>
      <trkpt lat="42.592857" lon="0.725784">
        <ele>2040.096</ele>
        <time>2010-06-14T17:26:26Z</time>
      </trkpt>
      <trkpt lat="42.592835" lon="0.725892">
        <ele>2040.074</ele>
        <time>2010-06-14T17:26:33Z</time>
      </trkpt>
      <trkpt lat="42.592793" lon="0.725977">
        <ele>2032.036</ele>
        <time>2010-06-14T17:26:42Z</time>
      </trkpt>
      <trkpt lat="42.592750" lon="0.726020">
        <ele>2032.068</ele>
        <time>2010-06-14T17:26:47Z</time>
      </trkpt>
      <trkpt lat="42.592707" lon="0.726235">
        <ele>2032.042</ele>
        <time>2010-06-14T17:27:03Z</time>
      </trkpt>
      <trkpt lat="42.592707" lon="0.726342">
        <ele>2026.026</ele>
        <time>2010-06-14T17:27:11Z</time>
      </trkpt>
      <trkpt lat="42.592685" lon="0.726450">
        <ele>2026.006</ele>
        <time>2010-06-14T17:27:20Z</time>
      </trkpt>
      <trkpt lat="42.592642" lon="0.726492">
        <ele>2026.035</ele>
        <time>2010-06-14T17:27:24Z</time>
      </trkpt>
      <trkpt lat="42.592642" lon="0.726836">
        <ele>2017.022</ele>
        <time>2010-06-14T17:27:51Z</time>
      </trkpt>
      <trkpt lat="42.592664" lon="0.726879">
        <ele>2017.059</ele>
        <time>2010-06-14T17:27:54Z</time>
      </trkpt>
      <trkpt lat="42.592685" lon="0.726900">
        <ele>2017.027</ele>
        <time>2010-06-14T17:27:57Z</time>
      </trkpt>
      <trkpt lat="42.592685" lon="0.727158">
        <ele>2014.095</ele>
        <time>2010-06-14T17:28:15Z</time>
      </trkpt>
      <trkpt lat="42.592621" lon="0.727372">
        <ele>2017.077</ele>
        <time>2010-06-14T17:28:32Z</time>
      </trkpt>
      <trkpt lat="42.592707" lon="0.727565">
        <ele>2011.082</ele>
        <time>2010-06-14T17:28:50Z</time>
      </trkpt>
      <trkpt lat="42.592728" lon="0.727587">
        <ele>2011.043</ele>
        <time>2010-06-14T17:28:51Z</time>
      </trkpt>
      <trkpt lat="42.592642" lon="0.728145">
        <ele>2006.017</ele>
        <time>2010-06-14T17:29:34Z</time>
      </trkpt>
      <trkpt lat="42.592685" lon="0.728209">
        <ele>2004.006</ele>
        <time>2010-06-14T17:29:41Z</time>
      </trkpt>
      <trkpt lat="42.592707" lon="0.728295">
        <ele>2004.057</ele>
        <time>2010-06-14T17:29:47Z</time>
      </trkpt>
      <trkpt lat="42.592728" lon="0.728316">
        <ele>2004.094</ele>
        <time>2010-06-14T17:29:50Z</time>
      </trkpt>
      <trkpt lat="42.592750" lon="0.728381">
        <ele>2004.021</ele>
        <time>2010-06-14T17:29:55Z</time>
      </trkpt>
      <trkpt lat="42.592771" lon="0.728509">
        <ele>2003.029</ele>
        <time>2010-06-14T17:30:05Z</time>
      </trkpt>
      <trkpt lat="42.592835" lon="0.728767">
        <ele>2001.017</ele>
        <time>2010-06-14T17:30:25Z</time>
      </trkpt>
      <trkpt lat="42.592878" lon="0.728896">
        <ele>2001.069</ele>
        <time>2010-06-14T17:30:35Z</time>
      </trkpt>
      <trkpt lat="42.592878" lon="0.729089">
        <ele>1995.046</ele>
        <time>2010-06-14T17:30:49Z</time>
      </trkpt>
      <trkpt lat="42.592900" lon="0.729260">
        <ele>1995.088</ele>
        <time>2010-06-14T17:31:02Z</time>
      </trkpt>
      <trkpt lat="42.592857" lon="0.729368">
        <ele>1990.016</ele>
        <time>2010-06-14T17:31:10Z</time>
      </trkpt>
      <trkpt lat="42.592793" lon="0.729582">
        <ele>1990.006</ele>
        <time>2010-06-14T17:31:29Z</time>
      </trkpt>
      <trkpt lat="42.592750" lon="0.729668">
        <ele>1985.063</ele>
        <time>2010-06-14T17:31:35Z</time>
      </trkpt>
      <trkpt lat="42.592750" lon="0.729775">
        <ele>1985.070</ele>
        <time>2010-06-14T17:31:43Z</time>
      </trkpt>
      <trkpt lat="42.592771" lon="0.729883">
        <ele>1980.077</ele>
        <time>2010-06-14T17:31:51Z</time>
      </trkpt>
      <trkpt lat="42.592771" lon="0.730033">
        <ele>1980.065</ele>
        <time>2010-06-14T17:32:02Z</time>
      </trkpt>
      <trkpt lat="42.592728" lon="0.730140">
        <ele>1975.043</ele>
        <time>2010-06-14T17:32:12Z</time>
      </trkpt>
      <trkpt lat="42.592728" lon="0.730205">
        <ele>1975.065</ele>
        <time>2010-06-14T17:32:17Z</time>
      </trkpt>
      <trkpt lat="42.592750" lon="0.730226">
        <ele>1975.068</ele>
        <time>2010-06-14T17:32:20Z</time>
      </trkpt>
      <trkpt lat="42.592750" lon="0.730376">
        <ele>1975.042</ele>
        <time>2010-06-14T17:32:31Z</time>
      </trkpt>
      <trkpt lat="42.592728" lon="0.730419">
        <ele>1971.026</ele>
        <time>2010-06-14T17:32:34Z</time>
      </trkpt>
      <trkpt lat="42.592621" lon="0.730634">
        <ele>1991.006</ele>
        <time>2010-06-14T17:32:53Z</time>
      </trkpt>
      <trkpt lat="42.592599" lon="0.730720">
        <ele>1988.035</ele>
        <time>2010-06-14T17:33:01Z</time>
      </trkpt>
      <trkpt lat="42.592621" lon="0.730827">
        <ele>1988.052</ele>
        <time>2010-06-14T17:33:08Z</time>
      </trkpt>
      <trkpt lat="42.592621" lon="0.730870">
        <ele>1988.099</ele>
        <time>2010-06-14T17:33:11Z</time>
      </trkpt>
      <trkpt lat="42.592599" lon="0.730956">
        <ele>1988.047</ele>
        <time>2010-06-14T17:33:19Z</time>
      </trkpt>
      <trkpt lat="42.592707" lon="0.730741">
        <ele>1969.035</ele>
        <time>2010-06-14T17:33:38Z</time>
      </trkpt>
      <trkpt lat="42.592771" lon="0.730677">
        <ele>1971.067</ele>
        <time>2010-06-14T17:33:46Z</time>
      </trkpt>
      <trkpt lat="42.592750" lon="0.730762">
        <ele>1969.028</ele>
        <time>2010-06-14T17:33:52Z</time>
      </trkpt>
      <trkpt lat="42.592728" lon="0.730805">
        <ele>1969.089</ele>
        <time>2010-06-14T17:33:55Z</time>
      </trkpt>
      <trkpt lat="42.592728" lon="0.730870">
        <ele>1969.017</ele>
        <time>2010-06-14T17:34:00Z</time>
      </trkpt>
      <trkpt lat="42.592771" lon="0.730956">
        <ele>1969.006</ele>
        <time>2010-06-14T17:34:08Z</time>
      </trkpt>
      <trkpt lat="42.592814" lon="0.730913">
        <ele>1969.031</ele>
        <time>2010-06-14T17:34:14Z</time>
      </trkpt>
      <trkpt lat="42.592900" lon="0.730762">
        <ele>1969.088</ele>
        <time>2010-06-14T17:34:27Z</time>
      </trkpt>
      <trkpt lat="42.592943" lon="0.730762">
        <ele>1949.055</ele>
        <time>2010-06-14T17:34:32Z</time>
      </trkpt>
      <trkpt lat="42.592943" lon="0.730891">
        <ele>1949.083</ele>
        <time>2010-06-14T17:34:42Z</time>
      </trkpt>
      <trkpt lat="42.593007" lon="0.730913">
        <ele>1949.061</ele>
        <time>2010-06-14T17:34:48Z</time>
      </trkpt>
      <trkpt lat="42.593071" lon="0.730891">
        <ele>1949.053</ele>
        <time>2010-06-14T17:34:54Z</time>
      </trkpt>
      <trkpt lat="42.593093" lon="0.730977">
        <ele>1947.094</ele>
        <time>2010-06-14T17:35:02Z</time>
      </trkpt>
      <trkpt lat="42.593136" lon="0.731020">
        <ele>1947.057</ele>
        <time>2010-06-14T17:35:07Z</time>
      </trkpt>
      <trkpt lat="42.593222" lon="0.730913">
        <ele>1930.022</ele>
        <time>2010-06-14T17:35:18Z</time>
      </trkpt>
      <trkpt lat="42.593265" lon="0.730913">
        <ele>1930.006</ele>
        <time>2010-06-14T17:35:23Z</time>
      </trkpt>
      <trkpt lat="42.593372" lon="0.731041">
        <ele>1926.088</ele>
        <time>2010-06-14T17:35:37Z</time>
      </trkpt>
      <trkpt lat="42.593415" lon="0.731041">
        <ele>1926.035</ele>
        <time>2010-06-14T17:35:42Z</time>
      </trkpt>
      <trkpt lat="42.593522" lon="0.731084">
        <ele>1908.092</ele>
        <time>2010-06-14T17:35:53Z</time>
      </trkpt>
      <trkpt lat="42.593586" lon="0.731127">
        <ele>1908.070</ele>
        <time>2010-06-14T17:36:00Z</time>
      </trkpt>
      <trkpt lat="42.593586" lon="0.731149">
        <ele>1908.088</ele>
        <time>2010-06-14T17:36:01Z</time>
      </trkpt>
      <trkpt lat="42.593629" lon="0.731235">
        <ele>1908.010</ele>
        <time>2010-06-14T17:36:09Z</time>
      </trkpt>
      <trkpt lat="42.593694" lon="0.731213">
        <ele>1908.029</ele>
        <time>2010-06-14T17:36:16Z</time>
      </trkpt>
      <trkpt lat="42.593715" lon="0.731235">
        <ele>1908.000</ele>
        <time>2010-06-14T17:36:19Z</time>
      </trkpt>
      <trkpt lat="42.593801" lon="0.731320">
        <ele>1884.020</ele>
        <time>2010-06-14T17:36:28Z</time>
      </trkpt>
      <trkpt lat="42.593865" lon="0.731320">
        <ele>1884.006</ele>
        <time>2010-06-14T17:36:36Z</time>
      </trkpt>
      <trkpt lat="42.593973" lon="0.731471">
        <ele>1884.091</ele>
        <time>2010-06-14T17:36:51Z</time>
      </trkpt>
      <trkpt lat="42.593994" lon="0.731578">
        <ele>1879.058</ele>
        <time>2010-06-14T17:36:58Z</time>
      </trkpt>
      <trkpt lat="42.594123" lon="0.731707">
        <ele>1865.035</ele>
        <time>2010-06-14T17:37:14Z</time>
      </trkpt>
      <trkpt lat="42.594187" lon="0.731707">
        <ele>1865.083</ele>
        <time>2010-06-14T17:37:22Z</time>
      </trkpt>
      <trkpt lat="42.594187" lon="0.731750">
        <ele>1865.041</ele>
        <time>2010-06-14T17:37:25Z</time>
      </trkpt>
      <trkpt lat="42.594209" lon="0.731835">
        <ele>1860.053</ele>
        <time>2010-06-14T17:37:32Z</time>
      </trkpt>
      <trkpt lat="42.594209" lon="0.731943">
        <ele>1860.065</ele>
        <time>2010-06-14T17:37:38Z</time>
      </trkpt>
      <trkpt lat="42.594166" lon="0.732050">
        <ele>1860.068</ele>
        <time>2010-06-14T17:37:48Z</time>
      </trkpt>
      <trkpt lat="42.594166" lon="0.732093">
        <ele>1855.014</ele>
        <time>2010-06-14T17:37:51Z</time>
      </trkpt>
      <trkpt lat="42.594187" lon="0.732136">
        <ele>1855.006</ele>
        <time>2010-06-14T17:37:54Z</time>
      </trkpt>
      <trkpt lat="42.594273" lon="0.732179">
        <ele>1855.085</ele>
        <time>2010-06-14T17:38:04Z</time>
      </trkpt>
      <trkpt lat="42.594316" lon="0.732243">
        <ele>1842.022</ele>
        <time>2010-06-14T17:38:10Z</time>
      </trkpt>
      <trkpt lat="42.594337" lon="0.732329">
        <ele>1842.099</ele>
        <time>2010-06-14T17:38:18Z</time>
      </trkpt>
      <trkpt lat="42.594337" lon="0.732350">
        <ele>1842.077</ele>
        <time>2010-06-14T17:38:18Z</time>
      </trkpt>
      <trkpt lat="42.594402" lon="0.732415">
        <ele>1837.055</ele>
        <time>2010-06-14T17:38:26Z</time>
      </trkpt>
      <trkpt lat="42.594402" lon="0.732586">
        <ele>1837.067</ele>
        <time>2010-06-14T17:38:39Z</time>
      </trkpt>
      <trkpt lat="42.594423" lon="0.732629">
        <ele>1837.098</ele>
        <time>2010-06-14T17:38:44Z</time>
      </trkpt>
      <trkpt lat="42.594423" lon="0.732694">
        <ele>1832.015</ele>
        <time>2010-06-14T17:38:48Z</time>
      </trkpt>
      <trkpt lat="42.594552" lon="0.732844">
        <ele>1832.026</ele>
        <time>2010-06-14T17:39:04Z</time>
      </trkpt>
      <trkpt lat="42.594574" lon="0.732908">
        <ele>1832.006</ele>
        <time>2010-06-14T17:39:11Z</time>
      </trkpt>
      <trkpt lat="42.594638" lon="0.732994">
        <ele>1813.018</ele>
        <time>2010-06-14T17:39:20Z</time>
      </trkpt>
      <trkpt lat="42.594702" lon="0.733037">
        <ele>1813.055</ele>
        <time>2010-06-14T17:39:27Z</time>
      </trkpt>
      <trkpt lat="42.594724" lon="0.733166">
        <ele>1813.092</ele>
        <time>2010-06-14T17:39:36Z</time>
      </trkpt>
      <trkpt lat="42.594767" lon="0.733252">
        <ele>1807.040</ele>
        <time>2010-06-14T17:39:44Z</time>
      </trkpt>
      <trkpt lat="42.594960" lon="0.733359">
        <ele>1795.098</ele>
        <time>2010-06-14T17:40:05Z</time>
      </trkpt>
      <trkpt lat="42.595003" lon="0.733359">
        <ele>1795.060</ele>
        <time>2010-06-14T17:40:08Z</time>
      </trkpt>
      <trkpt lat="42.595067" lon="0.733423">
        <ele>1795.072</ele>
        <time>2010-06-14T17:40:17Z</time>
      </trkpt>
      <trkpt lat="42.595131" lon="0.733552">
        <ele>1788.013</ele>
        <time>2010-06-14T17:40:29Z</time>
      </trkpt>
      <trkpt lat="42.595110" lon="0.733552">
        <ele>1788.014</ele>
        <time>2010-06-14T17:40:30Z</time>
      </trkpt>
      <trkpt lat="42.595496" lon="0.733638">
        <ele>1759.006</ele>
        <time>2010-06-14T17:41:10Z</time>
      </trkpt>
      <trkpt lat="42.595410" lon="0.733595">
        <ele>1775.036</ele>
        <time>2010-06-14T17:41:18Z</time>
      </trkpt>
      <trkpt lat="42.595518" lon="0.733659">
        <ele>1759.033</ele>
        <time>2010-06-14T17:41:31Z</time>
      </trkpt>
      <trkpt lat="42.595539" lon="0.733724">
        <ele>1759.070</ele>
        <time>2010-06-14T17:41:35Z</time>
      </trkpt>
      <trkpt lat="42.595625" lon="0.733767">
        <ele>1752.098</ele>
        <time>2010-06-14T17:41:45Z</time>
      </trkpt>
      <trkpt lat="42.595689" lon="0.733724">
        <ele>1759.016</ele>
        <time>2010-06-14T17:41:53Z</time>
      </trkpt>
      <trkpt lat="42.595711" lon="0.733724">
        <ele>1744.078</ele>
        <time>2010-06-14T17:41:55Z</time>
      </trkpt>
      <trkpt lat="42.595775" lon="0.733681">
        <ele>1744.033</ele>
        <time>2010-06-14T17:42:02Z</time>
      </trkpt>
      <trkpt lat="42.595818" lon="0.733616">
        <ele>1744.023</ele>
        <time>2010-06-14T17:42:07Z</time>
      </trkpt>
      <trkpt lat="42.595882" lon="0.733595">
        <ele>1744.015</ele>
        <time>2010-06-14T17:42:15Z</time>
      </trkpt>
      <trkpt lat="42.595968" lon="0.733659">
        <ele>1744.006</ele>
        <time>2010-06-14T17:42:25Z</time>
      </trkpt>
      <trkpt lat="42.596033" lon="0.733874">
        <ele>1724.052</ele>
        <time>2010-06-14T17:42:41Z</time>
      </trkpt>
      <trkpt lat="42.596226" lon="0.733960">
        <ele>1724.019</ele>
        <time>2010-06-14T17:43:01Z</time>
      </trkpt>
      <trkpt lat="42.596140" lon="0.734303">
        <ele>1716.056</ele>
        <time>2010-06-14T17:43:29Z</time>
      </trkpt>
      <trkpt lat="42.596312" lon="0.734668">
        <ele>1694.074</ele>
        <time>2010-06-14T17:44:00Z</time>
      </trkpt>
      <trkpt lat="42.596312" lon="0.734775">
        <ele>1694.072</ele>
        <time>2010-06-14T17:44:08Z</time>
      </trkpt>
      <trkpt lat="42.596376" lon="0.734904">
        <ele>1689.034</ele>
        <time>2010-06-14T17:44:19Z</time>
      </trkpt>
      <trkpt lat="42.596483" lon="0.735140">
        <ele>1686.015</ele>
        <time>2010-06-14T17:44:40Z</time>
      </trkpt>
      <trkpt lat="42.596569" lon="0.735269">
        <ele>1682.065</ele>
        <time>2010-06-14T17:44:53Z</time>
      </trkpt>
      <trkpt lat="42.596591" lon="0.735354">
        <ele>1682.011</ele>
        <time>2010-06-14T17:44:59Z</time>
      </trkpt>
      <trkpt lat="42.596591" lon="0.735376">
        <ele>1682.006</ele>
        <time>2010-06-14T17:45:01Z</time>
      </trkpt>
      <trkpt lat="42.596548" lon="0.735526">
        <ele>1679.020</ele>
        <time>2010-06-14T17:45:14Z</time>
      </trkpt>
      <trkpt lat="42.596419" lon="0.735655">
        <ele>1682.087</ele>
        <time>2010-06-14T17:45:30Z</time>
      </trkpt>
      <trkpt lat="42.596419" lon="0.735676">
        <ele>1682.064</ele>
        <time>2010-06-14T17:45:31Z</time>
      </trkpt>
      <trkpt lat="42.596333" lon="0.735848">
        <ele>1677.032</ele>
        <time>2010-06-14T17:45:45Z</time>
      </trkpt>
      <trkpt lat="42.596312" lon="0.735998">
        <ele>1672.030</ele>
        <time>2010-06-14T17:45:58Z</time>
      </trkpt>
      <trkpt lat="42.596333" lon="0.736213">
        <ele>1672.022</ele>
        <time>2010-06-14T17:46:14Z</time>
      </trkpt>
      <trkpt lat="42.596269" lon="0.736728">
        <ele>1663.033</ele>
        <time>2010-06-14T17:46:52Z</time>
      </trkpt>
      <trkpt lat="42.596226" lon="0.736856">
        <ele>1666.023</ele>
        <time>2010-06-14T17:47:02Z</time>
      </trkpt>
      <trkpt lat="42.596226" lon="0.737071">
        <ele>1666.015</ele>
        <time>2010-06-14T17:47:18Z</time>
      </trkpt>
      <trkpt lat="42.596204" lon="0.737178">
        <ele>1663.006</ele>
        <time>2010-06-14T17:47:27Z</time>
      </trkpt>
      <trkpt lat="42.596226" lon="0.737350">
        <ele>1663.092</ele>
        <time>2010-06-14T17:47:38Z</time>
      </trkpt>
      <trkpt lat="42.596204" lon="0.737586">
        <ele>1660.049</ele>
        <time>2010-06-14T17:47:56Z</time>
      </trkpt>
      <trkpt lat="42.596226" lon="0.737844">
        <ele>1657.076</ele>
        <time>2010-06-14T17:48:15Z</time>
      </trkpt>
      <trkpt lat="42.596333" lon="0.738101">
        <ele>1645.094</ele>
        <time>2010-06-14T17:48:37Z</time>
      </trkpt>
      <trkpt lat="42.596333" lon="0.738165">
        <ele>1645.052</ele>
        <time>2010-06-14T17:48:42Z</time>
      </trkpt>
      <trkpt lat="42.596397" lon="0.738273">
        <ele>1642.084</ele>
        <time>2010-06-14T17:48:53Z</time>
      </trkpt>
      <trkpt lat="42.596483" lon="0.738294">
        <ele>1642.018</ele>
        <time>2010-06-14T17:49:00Z</time>
      </trkpt>
      <trkpt lat="42.596483" lon="0.738401">
        <ele>1642.098</ele>
        <time>2010-06-14T17:49:09Z</time>
      </trkpt>
      <trkpt lat="42.596612" lon="0.738873">
        <ele>1630.017</ele>
        <time>2010-06-14T17:49:46Z</time>
      </trkpt>
      <trkpt lat="42.596784" lon="0.739002">
        <ele>1630.006</ele>
        <time>2010-06-14T17:50:06Z</time>
      </trkpt>
      <trkpt lat="42.596912" lon="0.739260">
        <ele>1625.020</ele>
        <time>2010-06-14T17:50:29Z</time>
      </trkpt>
      <trkpt lat="42.596955" lon="0.739946">
        <ele>1625.067</ele>
        <time>2010-06-14T17:51:20Z</time>
      </trkpt>
      <trkpt lat="42.596934" lon="0.740097">
        <ele>1625.094</ele>
        <time>2010-06-14T17:51:31Z</time>
      </trkpt>
      <trkpt lat="42.596934" lon="0.740333">
        <ele>1626.012</ele>
        <time>2010-06-14T17:51:48Z</time>
      </trkpt>
      <trkpt lat="42.597041" lon="0.740440">
        <ele>1626.010</ele>
        <time>2010-06-14T17:52:01Z</time>
      </trkpt>
      <trkpt lat="42.597063" lon="0.740461">
        <ele>1626.092</ele>
        <time>2010-06-14T17:52:04Z</time>
      </trkpt>
      <trkpt lat="42.597084" lon="0.740526">
        <ele>1623.071</ele>
        <time>2010-06-14T17:52:09Z</time>
      </trkpt>
      <trkpt lat="42.597213" lon="0.740633">
        <ele>1623.041</ele>
        <time>2010-06-14T17:52:25Z</time>
      </trkpt>
      <trkpt lat="42.597234" lon="0.740912">
        <ele>1621.015</ele>
        <time>2010-06-14T17:52:44Z</time>
      </trkpt>
      <trkpt lat="42.597170" lon="0.741169">
        <ele>1619.006</ele>
        <time>2010-06-14T17:53:05Z</time>
      </trkpt>
      <trkpt lat="42.597234" lon="0.742071">
        <ele>1613.076</ele>
        <time>2010-06-14T17:54:12Z</time>
      </trkpt>
      <trkpt lat="42.597191" lon="0.742242">
        <ele>1612.033</ele>
        <time>2010-06-14T17:54:24Z</time>
      </trkpt>
      <trkpt lat="42.597234" lon="0.742371">
        <ele>1611.070</ele>
        <time>2010-06-14T17:54:36Z</time>
      </trkpt>
      <trkpt lat="42.597277" lon="0.742693">
        <ele>1612.038</ele>
        <time>2010-06-14T17:54:59Z</time>
      </trkpt>
      <trkpt lat="42.597492" lon="0.743358">
        <ele>1608.096</ele>
        <time>2010-06-14T17:55:54Z</time>
      </trkpt>
      <trkpt lat="42.597513" lon="0.744131">
        <ele>1610.098</ele>
        <time>2010-06-14T17:56:51Z</time>
      </trkpt>
      <trkpt lat="42.597492" lon="0.744667">
        <ele>1613.045</ele>
        <time>2010-06-14T17:57:29Z</time>
      </trkpt>
      <trkpt lat="42.597835" lon="0.744796">
        <ele>1602.047</ele>
        <time>2010-06-14T17:58:06Z</time>
      </trkpt>
      <trkpt lat="42.597942" lon="0.745010">
        <ele>1596.011</ele>
        <time>2010-06-14T17:58:25Z</time>
      </trkpt>
      <trkpt lat="42.598050" lon="0.745676">
        <ele>1596.006</ele>
        <time>2010-06-14T17:59:14Z</time>
      </trkpt>
      <trkpt lat="42.598050" lon="0.745697">
        <ele>1596.023</ele>
        <time>2010-06-14T17:59:17Z</time>
      </trkpt>
      <trkpt lat="42.597899" lon="0.746512">
        <ele>1604.030</ele>
        <time>2010-06-14T18:00:18Z</time>
      </trkpt>
      <trkpt lat="42.597985" lon="0.746942">
        <ele>1590.037</ele>
        <time>2010-06-14T18:00:50Z</time>
      </trkpt>
      <trkpt lat="42.598007" lon="0.746963">
        <ele>1590.055</ele>
        <time>2010-06-14T18:00:53Z</time>
      </trkpt>
      <trkpt lat="42.598114" lon="0.747414">
        <ele>1586.063</ele>
        <time>2010-06-14T18:01:28Z</time>
      </trkpt>
      <trkpt lat="42.598114" lon="0.747757">
        <ele>1583.015</ele>
        <time>2010-06-14T18:01:53Z</time>
      </trkpt>
      <trkpt lat="42.598178" lon="0.747907">
        <ele>1583.079</ele>
        <time>2010-06-14T18:02:06Z</time>
      </trkpt>
      <trkpt lat="42.598350" lon="0.748229">
        <ele>1571.005</ele>
        <time>2010-06-14T18:02:35Z</time>
      </trkpt>
      <trkpt lat="42.598436" lon="0.748293">
        <ele>1571.025</ele>
        <time>2010-06-14T18:02:46Z</time>
      </trkpt>
      <trkpt lat="42.598522" lon="0.748594">
        <ele>1567.006</ele>
        <time>2010-06-14T18:03:10Z</time>
      </trkpt>
      <trkpt lat="42.598457" lon="0.749002">
        <ele>1567.096</ele>
        <time>2010-06-14T18:03:41Z</time>
      </trkpt>
      <trkpt lat="42.598586" lon="0.749280">
        <ele>1561.063</ele>
        <time>2010-06-14T18:04:04Z</time>
      </trkpt>
      <trkpt lat="42.598650" lon="0.749946">
        <ele>1555.040</ele>
        <time>2010-06-14T18:04:53Z</time>
      </trkpt>
      <trkpt lat="42.598608" lon="0.750396">
        <ele>1553.058</ele>
        <time>2010-06-14T18:05:27Z</time>
      </trkpt>
      <trkpt lat="42.598736" lon="0.750761">
        <ele>1549.016</ele>
        <time>2010-06-14T18:05:57Z</time>
      </trkpt>
      <trkpt lat="42.598608" lon="0.751255">
        <ele>1544.048</ele>
        <time>2010-06-14T18:06:35Z</time>
      </trkpt>
      <trkpt lat="42.598565" lon="0.751791">
        <ele>1540.041</ele>
        <time>2010-06-14T18:07:15Z</time>
      </trkpt>
      <trkpt lat="42.598500" lon="0.752006">
        <ele>1537.081</ele>
        <time>2010-06-14T18:07:32Z</time>
      </trkpt>
      <trkpt lat="42.598522" lon="0.752199">
        <ele>1534.009</ele>
        <time>2010-06-14T18:07:47Z</time>
      </trkpt>
      <trkpt lat="42.598500" lon="0.752435">
        <ele>1531.006</ele>
        <time>2010-06-14T18:08:04Z</time>
      </trkpt>
      <trkpt lat="42.598264" lon="0.753014">
        <ele>1531.073</ele>
        <time>2010-06-14T18:08:54Z</time>
      </trkpt>
      <trkpt lat="42.598522" lon="0.753272">
        <ele>1519.090</ele>
        <time>2010-06-14T18:09:25Z</time>
      </trkpt>
      <trkpt lat="42.598608" lon="0.753379">
        <ele>1519.097</ele>
        <time>2010-06-14T18:09:37Z</time>
      </trkpt>
      <trkpt lat="42.598586" lon="0.753508">
        <ele>1516.045</ele>
        <time>2010-06-14T18:09:46Z</time>
      </trkpt>
      <trkpt lat="42.598672" lon="0.753787">
        <ele>1512.013</ele>
        <time>2010-06-14T18:10:08Z</time>
      </trkpt>
      <trkpt lat="42.598650" lon="0.754023">
        <ele>1512.075</ele>
        <time>2010-06-14T18:10:26Z</time>
      </trkpt>
      <trkpt lat="42.598586" lon="0.754859">
        <ele>1504.021</ele>
        <time>2010-06-14T18:11:28Z</time>
      </trkpt>
      <trkpt lat="42.598844" lon="0.755117">
        <ele>1500.041</ele>
        <time>2010-06-14T18:12:01Z</time>
      </trkpt>
      <trkpt lat="42.598908" lon="0.755503">
        <ele>1494.005</ele>
        <time>2010-06-14T18:12:30Z</time>
      </trkpt>
      <trkpt lat="42.598736" lon="0.756125">
        <ele>1485.006</ele>
        <time>2010-06-14T18:13:18Z</time>
      </trkpt>
      <trkpt lat="42.598329" lon="0.756834">
        <ele>1475.041</ele>
        <time>2010-06-14T18:14:25Z</time>
      </trkpt>
      <trkpt lat="42.597857" lon="0.757198">
        <ele>1473.098</ele>
        <time>2010-06-14T18:15:19Z</time>
      </trkpt>
      <trkpt lat="42.597492" lon="0.757692">
        <ele>1467.045</ele>
        <time>2010-06-14T18:16:10Z</time>
      </trkpt>
      <trkpt lat="42.596934" lon="0.758121">
        <ele>1460.063</ele>
        <time>2010-06-14T18:17:15Z</time>
      </trkpt>
      <trkpt lat="42.596869" lon="0.758185">
        <ele>1460.011</ele>
        <time>2010-06-14T18:17:23Z</time>
      </trkpt>
      <trkpt lat="42.596827" lon="0.758207">
        <ele>1456.053</ele>
        <time>2010-06-14T18:17:28Z</time>
      </trkpt>
      <trkpt lat="42.596762" lon="0.758271">
        <ele>1454.039</ele>
        <time>2010-06-14T18:17:36Z</time>
      </trkpt>
      <trkpt lat="42.596741" lon="0.758271">
        <ele>1454.001</ele>
        <time>2010-06-14T18:17:37Z</time>
      </trkpt>
      <trkpt lat="42.596569" lon="0.758357">
        <ele>1454.021</ele>
        <time>2010-06-14T18:17:55Z</time>
      </trkpt>
      <trkpt lat="42.596397" lon="0.758207">
        <ele>1453.006</ele>
        <time>2010-06-14T18:18:17Z</time>
      </trkpt>
      <trkpt lat="42.596333" lon="0.758207">
        <ele>1453.042</ele>
        <time>2010-06-14T18:18:23Z</time>
      </trkpt>
      <trkpt lat="42.596290" lon="0.758228">
        <ele>1453.049</ele>
        <time>2010-06-14T18:18:27Z</time>
      </trkpt>
      <trkpt lat="42.596247" lon="0.758357">
        <ele>1452.056</ele>
        <time>2010-06-14T18:18:38Z</time>
      </trkpt>
      <trkpt lat="42.596419" lon="0.758572">
        <ele>1448.014</ele>
        <time>2010-06-14T18:19:00Z</time>
      </trkpt>
      <trkpt lat="42.596569" lon="0.758915">
        <ele>1447.062</ele>
        <time>2010-06-14T18:19:30Z</time>
      </trkpt>
      <trkpt lat="42.596633" lon="0.759258">
        <ele>1443.054</ele>
        <time>2010-06-14T18:19:56Z</time>
      </trkpt>
      <trkpt lat="42.596698" lon="0.760031">
        <ele>1438.073</ele>
        <time>2010-06-14T18:20:53Z</time>
      </trkpt>
      <trkpt lat="42.596741" lon="0.760396">
        <ele>1438.085</ele>
        <time>2010-06-14T18:21:20Z</time>
      </trkpt>
      <trkpt lat="42.597859" lon="0.762593">
        <ele>1456.013</ele>
        <time>2010-06-14T18:24:38Z</time>
      </trkpt>
      <trkpt lat="42.599000" lon="0.763405">
        <ele>1476.006</ele>
        <time>2010-06-14T18:26:47Z</time>
      </trkpt>
      <trkpt lat="42.599188" lon="0.763764">
        <ele>1477.096</ele>
        <time>2010-06-14T18:27:20Z</time>
      </trkpt>
      <trkpt lat="42.598655" lon="0.764149">
        <ele>1478.023</ele>
        <time>2010-06-14T18:28:19Z</time>
      </trkpt>
      <trkpt lat="42.600115" lon="0.765133">
        <ele>1484.060</ele>
        <time>2010-06-14T18:31:03Z</time>
      </trkpt>
      <trkpt lat="42.601786" lon="0.765378">
        <ele>1482.078</ele>
        <time>2010-06-14T18:33:50Z</time>
      </trkpt>
      <trkpt lat="42.602509" lon="0.765901">
        <ele>1484.056</ele>
        <time>2010-06-14T18:35:13Z</time>
      </trkpt>
      <trkpt lat="42.603553" lon="0.766290">
        <ele>1485.058</ele>
        <time>2010-06-14T18:37:01Z</time>
      </trkpt>
      <trkpt lat="42.605195" lon="0.767389">
        <ele>1498.091</ele>
        <time>2010-06-14T18:40:04Z</time>
      </trkpt>
      <trkpt lat="42.606635" lon="0.767338">
        <ele>1497.081</ele>
        <time>2010-06-14T18:42:29Z</time>
      </trkpt>
      <trkpt lat="42.608004" lon="0.768264">
        <ele>1513.019</ele>
        <time>2010-06-14T18:45:02Z</time>
      </trkpt>
      <trkpt lat="42.611173" lon="0.769187">
        <ele>1552.006</ele>
        <time>2010-06-14T18:50:25Z</time>
      </trkpt>
      <trkpt lat="42.612012" lon="0.768304">
        <ele>1540.048</ele>
        <time>2010-06-14T18:52:12Z</time>
      </trkpt>
      <trkpt lat="42.613322" lon="0.768562">
        <ele>1557.075</ele>
        <time>2010-06-14T18:54:25Z</time>
      </trkpt>
      <trkpt lat="42.614324" lon="0.769136">
        <ele>1564.012</ele>
        <time>2010-06-14T18:56:14Z</time>
      </trkpt>
      <trkpt lat="42.617289" lon="0.768786">
        <ele>1584.050</ele>
        <time>2010-06-14T19:01:11Z</time>
      </trkpt>
      <trkpt lat="42.618181" lon="0.768328">
        <ele>1582.098</ele>
        <time>2010-06-14T19:02:47Z</time>
      </trkpt>
      <trkpt lat="42.620533" lon="0.768914">
        <ele>1601.020</ele>
        <time>2010-06-14T19:06:46Z</time>
      </trkpt>
      <trkpt lat="42.621125" lon="0.769259">
        <ele>1606.022</ele>
        <time>2010-06-14T19:07:51Z</time>
      </trkpt>
      <trkpt lat="42.622829" lon="0.768893">
        <ele>1598.062</ele>
        <time>2010-06-14T19:10:43Z</time>
      </trkpt>
      <trkpt lat="42.623270" lon="0.768390">
        <ele>1599.008</ele>
        <time>2010-06-14T19:11:40Z</time>
      </trkpt>
      <trkpt lat="42.622977" lon="0.767242">
        <ele>1595.006</ele>
        <time>2010-06-14T19:13:11Z</time>
      </trkpt>
      <trkpt lat="42.624283" lon="0.764939">
        <ele>1589.051</ele>
        <time>2010-06-14T19:16:44Z</time>
      </trkpt>
      <trkpt lat="42.625086" lon="0.764545">
        <ele>1596.098</ele>
        <time>2010-06-14T19:18:09Z</time>
      </trkpt>
      <trkpt lat="42.626277" lon="0.763283">
        <ele>1602.085</ele>
        <time>2010-06-14T19:20:41Z</time>
      </trkpt>
      <trkpt lat="42.627019" lon="0.764414">
        <ele>1618.083</ele>
        <time>2010-06-14T19:22:33Z</time>
      </trkpt>
      <trkpt lat="42.626404" lon="0.765168">
        <ele>1621.041</ele>
        <time>2010-06-14T19:23:56Z</time>
      </trkpt>
      <trkpt lat="42.626784" lon="0.766862">
        <ele>1653.063</ele>
        <time>2010-06-14T19:26:06Z</time>
      </trkpt>
      <trkpt lat="42.626637" lon="0.769001">
        <ele>1665.017</ele>
        <time>2010-06-14T19:28:44Z</time>
      </trkpt>
      <trkpt lat="42.626033" lon="0.770364">
        <ele>1676.087</ele>
        <time>2010-06-14T19:30:40Z</time>
      </trkpt>
      <trkpt lat="42.626166" lon="0.771786">
        <ele>1706.015</ele>
        <time>2010-06-14T19:32:27Z</time>
      </trkpt>
      <trkpt lat="42.627319" lon="0.773208">
        <ele>1740.006</ele>
        <time>2010-06-14T19:35:03Z</time>
      </trkpt>
      <trkpt lat="42.627388" lon="0.774425">
        <ele>1751.010</ele>
        <time>2010-06-14T19:36:33Z</time>
      </trkpt>
      <trkpt lat="42.627629" lon="0.775270">
        <ele>1765.037</ele>
        <time>2010-06-14T19:37:39Z</time>
      </trkpt>
      <trkpt lat="42.627949" lon="0.777820">
        <ele>1789.054</ele>
        <time>2010-06-14T19:40:50Z</time>
      </trkpt>
      <trkpt lat="42.628138" lon="0.778301">
        <ele>1792.032</ele>
        <time>2010-06-14T19:41:30Z</time>
      </trkpt>
      <trkpt lat="42.628164" lon="0.779641">
        <ele>1805.010</ele>
        <time>2010-06-14T19:43:08Z</time>
      </trkpt>
      <trkpt lat="42.628359" lon="0.780366">
        <ele>1806.022</ele>
        <time>2010-06-14T19:44:06Z</time>
      </trkpt>
      <trkpt lat="42.628241" lon="0.781285">
        <ele>1815.029</ele>
        <time>2010-06-14T19:45:14Z</time>
      </trkpt>
      <trkpt lat="42.627384" lon="0.783510">
        <ele>1830.000</ele>
        <time>2010-06-14T19:48:19Z</time>
      </trkpt>
      <trkpt lat="42.627433" lon="0.786070">
        <ele>1867.020</ele>
        <time>2010-06-14T19:51:28Z</time>
      </trkpt>
      <trkpt lat="42.628025" lon="0.786414">
        <ele>1875.006</ele>
        <time>2010-06-14T19:52:32Z</time>
      </trkpt>
      <trkpt lat="42.628839" lon="0.786569">
        <ele>1888.041</ele>
        <time>2010-06-14T19:53:53Z</time>
      </trkpt>
      <trkpt lat="42.630161" lon="0.787436">
        <ele>1958.078</ele>
        <time>2010-06-14T19:56:21Z</time>
      </trkpt>
      <trkpt lat="42.630796" lon="0.785341">
        <ele>1983.095</ele>
        <time>2010-06-14T19:59:07Z</time>
      </trkpt>
      <trkpt lat="42.630882" lon="0.782777">
        <ele>1953.023</ele>
        <time>2010-06-14T20:02:16Z</time>
      </trkpt>
      <trkpt lat="42.631819" lon="0.782377">
        <ele>2060.021</ele>
        <time>2010-06-14T20:03:55Z</time>
      </trkpt>
      <trkpt lat="42.632117" lon="0.783769">
        <ele>2087.043</ele>
        <time>2010-06-14T20:05:42Z</time>
      </trkpt>
      <trkpt lat="42.632516" lon="0.783450">
        <ele>2103.094</ele>
        <time>2010-06-14T20:06:28Z</time>
      </trkpt>
      <trkpt lat="42.633097" lon="0.783247">
        <ele>2143.057</ele>
        <time>2010-06-14T20:07:28Z</time>
      </trkpt>
      <trkpt lat="42.633072" lon="0.784284">
        <ele>2153.022</ele>
        <time>2010-06-14T20:08:45Z</time>
      </trkpt>
      <trkpt lat="42.633568" lon="0.784328">
        <ele>2202.006</ele>
        <time>2010-06-14T20:09:34Z</time>
      </trkpt>
      <trkpt lat="42.633586" lon="0.785242">
        <ele>2204.018</ele>
        <time>2010-06-14T20:10:41Z</time>
      </trkpt>
      <trkpt lat="42.634038" lon="0.785348">
        <ele>2253.035</ele>
        <time>2010-06-14T20:11:28Z</time>
      </trkpt>
      <trkpt lat="42.634571" lon="0.784963">
        <ele>2280.022</ele>
        <time>2010-06-14T20:12:28Z</time>
      </trkpt>
      <trkpt lat="42.634937" lon="0.785255">
        <ele>2317.040</ele>
        <time>2010-06-14T20:13:10Z</time>
      </trkpt>
      <trkpt lat="42.634912" lon="0.786292">
        <ele>2296.028</ele>
        <time>2010-06-14T20:14:27Z</time>
      </trkpt>
      <trkpt lat="42.635143" lon="0.786589">
        <ele>2311.090</ele>
        <time>2010-06-14T20:14:59Z</time>
      </trkpt>
      <trkpt lat="42.635634" lon="0.786389">
        <ele>2338.099</ele>
        <time>2010-06-14T20:15:50Z</time>
      </trkpt>
      <trkpt lat="42.636150" lon="0.787468">
        <ele>2358.007</ele>
        <time>2010-06-14T20:17:25Z</time>
      </trkpt>
      <trkpt lat="42.636553" lon="0.787332">
        <ele>2401.027</ele>
        <time>2010-06-14T20:18:07Z</time>
      </trkpt>
      <trkpt lat="42.637467" lon="0.788031">
        <ele>2424.006</ele>
        <time>2010-06-14T20:19:50Z</time>
      </trkpt>
      <trkpt lat="42.635672" lon="0.788339">
        <ele>2303.018</ele>
        <time>2010-06-14T20:22:53Z</time>
      </trkpt>
      <trkpt lat="42.635199" lon="0.789514">
        <ele>2290.075</ele>
        <time>2010-06-14T20:24:30Z</time>
      </trkpt>
      <trkpt lat="42.635232" lon="0.791220">
        <ele>2315.052</ele>
        <time>2010-06-14T20:26:36Z</time>
      </trkpt>
      <trkpt lat="42.635714" lon="0.792850">
        <ele>2343.040</ele>
        <time>2010-06-14T20:28:46Z</time>
      </trkpt>
      <trkpt lat="42.636523" lon="0.795138">
        <ele>2342.028</ele>
        <time>2010-06-14T20:31:53Z</time>
      </trkpt>
      <trkpt lat="42.637159" lon="0.795421">
        <ele>2363.040</ele>
        <time>2010-06-14T20:33:00Z</time>
      </trkpt>
      <trkpt lat="42.637800" lon="0.795947">
        <ele>2379.084</ele>
        <time>2010-06-14T20:34:15Z</time>
      </trkpt>
      <trkpt lat="42.638330" lon="0.795441">
        <ele>2390.007</ele>
        <time>2010-06-14T20:35:20Z</time>
      </trkpt>
      <trkpt lat="42.638989" lon="0.796942">
        <ele>2363.017</ele>
        <time>2010-06-14T20:37:27Z</time>
      </trkpt>
      <trkpt lat="42.639540" lon="0.797471">
        <ele>2352.006</ele>
        <time>2010-06-14T20:38:36Z</time>
      </trkpt>
      <trkpt lat="42.639829" lon="0.798437">
        <ele>2340.017</ele>
        <time>2010-06-14T20:39:52Z</time>
      </trkpt>
      <trkpt lat="42.640415" lon="0.798477">
        <ele>2338.034</ele>
        <time>2010-06-14T20:40:51Z</time>
      </trkpt>
      <trkpt lat="42.641238" lon="0.799119">
        <ele>2338.041</ele>
        <time>2010-06-14T20:42:25Z</time>
      </trkpt>
      <trkpt lat="42.641435" lon="0.802344">
        <ele>2326.099</ele>
        <time>2010-06-14T20:46:25Z</time>
      </trkpt>
      <trkpt lat="42.641102" lon="0.806137">
        <ele>2345.017</ele>
        <time>2010-06-14T20:51:05Z</time>
      </trkpt>
      <trkpt lat="42.640439" lon="0.806770">
        <ele>2331.089</ele>
        <time>2010-06-14T20:52:27Z</time>
      </trkpt>
      <trkpt lat="42.639770" lon="0.807099">
        <ele>2327.093</ele>
        <time>2010-06-14T20:53:37Z</time>
      </trkpt>
      <trkpt lat="42.639523" lon="0.808327">
        <ele>2317.065</ele>
        <time>2010-06-14T20:55:12Z</time>
      </trkpt>
      <trkpt lat="42.639750" lon="0.810759">
        <ele>2272.021</ele>
        <time>2010-06-14T20:58:12Z</time>
      </trkpt>
      <trkpt lat="42.639181" lon="0.811632">
        <ele>2262.006</ele>
        <time>2010-06-14T20:59:38Z</time>
      </trkpt>
      <trkpt lat="42.639111" lon="0.812671">
        <ele>2253.018</ele>
        <time>2010-06-14T21:00:54Z</time>
      </trkpt>
      <trkpt lat="42.639617" lon="0.813264">
        <ele>2233.075</ele>
        <time>2010-06-14T21:02:01Z</time>
      </trkpt>
      <trkpt lat="42.639906" lon="0.814229">
        <ele>2223.042</ele>
        <time>2010-06-14T21:03:19Z</time>
      </trkpt>
      <trkpt lat="42.639940" lon="0.815997">
        <ele>2204.060</ele>
        <time>2010-06-14T21:05:28Z</time>
      </trkpt>
      <trkpt lat="42.640466" lon="0.817625">
        <ele>2180.018</ele>
        <time>2010-06-14T21:07:40Z</time>
      </trkpt>
      <trkpt lat="42.640174" lon="0.818855">
        <ele>2161.080</ele>
        <time>2010-06-14T21:09:14Z</time>
      </trkpt>
      <trkpt lat="42.639246" lon="0.819741">
        <ele>2164.058</ele>
        <time>2010-06-14T21:11:07Z</time>
      </trkpt>
      <trkpt lat="42.638865" lon="0.821035">
        <ele>2138.052</ele>
        <time>2010-06-14T21:12:51Z</time>
      </trkpt>
      <trkpt lat="42.639431" lon="0.824735">
        <ele>2079.017</ele>
        <time>2010-06-14T21:17:29Z</time>
      </trkpt>
      <trkpt lat="42.639772" lon="0.826126">
        <ele>2068.006</ele>
        <time>2010-06-14T21:19:16Z</time>
      </trkpt>
      <trkpt lat="42.640318" lon="0.826412">
        <ele>2050.094</ele>
        <time>2010-06-14T21:20:15Z</time>
      </trkpt>
      <trkpt lat="42.640512" lon="0.827137">
        <ele>2042.081</ele>
        <time>2010-06-14T21:21:12Z</time>
      </trkpt>
      <trkpt lat="42.641026" lon="0.830534">
        <ele>1996.078</ele>
        <time>2010-06-14T21:25:27Z</time>
      </trkpt>
      <trkpt lat="42.641153" lon="0.832481">
        <ele>1962.056</ele>
        <time>2010-06-14T21:27:52Z</time>
      </trkpt>
      <trkpt lat="42.640808" lon="0.833286">
        <ele>1963.054</ele>
        <time>2010-06-14T21:29:00Z</time>
      </trkpt>
      <trkpt lat="42.640647" lon="0.834268">
        <ele>1962.096</ele>
        <time>2010-06-14T21:30:14Z</time>
      </trkpt>
      <trkpt lat="42.640672" lon="0.835608">
        <ele>1951.071</ele>
        <time>2010-06-14T21:31:52Z</time>
      </trkpt>
      <trkpt lat="42.640140" lon="0.836054">
        <ele>1953.041</ele>
        <time>2010-06-14T21:32:54Z</time>
      </trkpt>
      <trkpt lat="42.639841" lon="0.836918">
        <ele>1967.015</ele>
        <time>2010-06-14T21:34:06Z</time>
      </trkpt>
      <trkpt lat="42.638966" lon="0.838229">
        <ele>2003.006</ele>
        <time>2010-06-14T21:36:16Z</time>
      </trkpt>
      <trkpt lat="42.638228" lon="0.842096">
        <ele>1990.026</ele>
        <time>2010-06-14T21:41:09Z</time>
      </trkpt>
      <trkpt lat="42.638339" lon="0.843190">
        <ele>1969.053</ele>
        <time>2010-06-14T21:42:32Z</time>
      </trkpt>
      <trkpt lat="42.637761" lon="0.843576">
        <ele>1964.090</ele>
        <time>2010-06-14T21:43:36Z</time>
      </trkpt>
      <trkpt lat="42.637023" lon="0.845065">
        <ele>1946.088</ele>
        <time>2010-06-14T21:45:48Z</time>
      </trkpt>
      <trkpt lat="42.636351" lon="0.845210">
        <ele>1958.036</ele>
        <time>2010-06-14T21:46:56Z</time>
      </trkpt>
      <trkpt lat="42.635737" lon="0.846085">
        <ele>1962.018</ele>
        <time>2010-06-14T21:48:24Z</time>
      </trkpt>
      <trkpt lat="42.635851" lon="0.847362">
        <ele>1974.017</ele>
        <time>2010-06-14T21:50:00Z</time>
      </trkpt>
      <trkpt lat="42.636753" lon="0.849831">
        <ele>2010.087</ele>
        <time>2010-06-14T21:53:22Z</time>
      </trkpt>
      <trkpt lat="42.636128" lon="0.852536">
        <ele>1997.015</ele>
        <time>2010-06-14T21:56:52Z</time>
      </trkpt>
      <trkpt lat="42.636155" lon="0.853998">
        <ele>1975.006</ele>
        <time>2010-06-14T21:58:39Z</time>
      </trkpt>
      <trkpt lat="42.638855" lon="0.853906">
        <ele>1871.040</ele>
        <time>2010-06-14T22:03:09Z</time>
      </trkpt>
      <trkpt lat="42.638795" lon="0.853115">
        <ele>1875.057</ele>
        <time>2010-06-14T22:04:08Z</time>
      </trkpt>
      <trkpt lat="42.639147" lon="0.852676">
        <ele>1853.024</ele>
        <time>2010-06-14T22:04:56Z</time>
      </trkpt>
      <trkpt lat="42.639653" lon="0.853207">
        <ele>1789.082</ele>
        <time>2010-06-14T22:06:00Z</time>
      </trkpt>
      <trkpt lat="42.640186" lon="0.850445">
        <ele>1759.030</ele>
        <time>2010-06-14T22:09:30Z</time>
      </trkpt>
      <trkpt lat="42.640679" lon="0.850306">
        <ele>1733.062</ele>
        <time>2010-06-14T22:10:21Z</time>
      </trkpt>
      <trkpt lat="42.641372" lon="0.851258">
        <ele>1687.043</ele>
        <time>2010-06-14T22:11:59Z</time>
      </trkpt>
      <trkpt lat="42.642375" lon="0.851894">
        <ele>1651.064</ele>
        <time>2010-06-14T22:13:49Z</time>
      </trkpt>
      <trkpt lat="42.642936" lon="0.853033">
        <ele>1639.010</ele>
        <time>2010-06-14T22:15:31Z</time>
      </trkpt>
      <trkpt lat="42.645106" lon="0.855886">
        <ele>1617.006</ele>
        <time>2010-06-14T22:20:32Z</time>
      </trkpt>
      <trkpt lat="42.647431" lon="0.859832">
        <ele>1579.053</ele>
        <time>2010-06-14T22:26:45Z</time>
      </trkpt>
      <trkpt lat="42.649265" lon="0.864039">
        <ele>1515.090</ele>
        <time>2010-06-14T22:32:44Z</time>
      </trkpt>
      <trkpt lat="42.650039" lon="0.866879">
        <ele>1487.027</ele>
        <time>2010-06-14T22:36:27Z</time>
      </trkpt>
      <trkpt lat="42.650862" lon="0.867583">
        <ele>1470.065</ele>
        <time>2010-06-14T22:38:04Z</time>
      </trkpt>
      <trkpt lat="42.651451" lon="0.867746">
        <ele>1464.063</ele>
        <time>2010-06-14T22:39:05Z</time>
      </trkpt>
      <trkpt lat="42.652732" lon="0.868861">
        <ele>1443.055</ele>
        <time>2010-06-14T22:41:38Z</time>
      </trkpt>
      <trkpt lat="42.653434" lon="0.870301">
        <ele>1432.071</ele>
        <time>2010-06-14T22:43:45Z</time>
      </trkpt>
      <trkpt lat="42.655938" lon="0.871740">
        <ele>1421.041</ele>
        <time>2010-06-14T22:48:17Z</time>
      </trkpt>
      <trkpt lat="42.657174" lon="0.872857">
        <ele>1435.015</ele>
        <time>2010-06-14T22:50:44Z</time>
      </trkpt>
      <trkpt lat="42.657596" lon="0.873758">
        <ele>1447.006</ele>
        <time>2010-06-14T22:52:03Z</time>
      </trkpt>
      <trkpt lat="42.656614" lon="0.874218">
        <ele>1467.066</ele>
        <time>2010-06-14T22:53:48Z</time>
      </trkpt>
      <trkpt lat="42.656580" lon="0.874829">
        <ele>1479.093</ele>
        <time>2010-06-14T22:54:33Z</time>
      </trkpt>
      <trkpt lat="42.656758" lon="0.874701">
        <ele>1479.040</ele>
        <time>2010-06-14T22:54:52Z</time>
      </trkpt>
      <trkpt lat="42.658137" lon="0.876241">
        <ele>1499.038</ele>
        <time>2010-06-14T22:57:52Z</time>
      </trkpt>
      <trkpt lat="42.656599" lon="0.875866">
        <ele>1528.076</ele>
        <time>2010-06-14T23:00:28Z</time>
      </trkpt>
      <trkpt lat="42.655892" lon="0.876561">
        <ele>1548.078</ele>
        <time>2010-06-14T23:01:55Z</time>
      </trkpt>
      <trkpt lat="42.655040" lon="0.876773">
        <ele>1552.035</ele>
        <time>2010-06-14T23:03:21Z</time>
      </trkpt>
      <trkpt lat="42.655773" lon="0.877419">
        <ele>1569.086</ele>
        <time>2010-06-14T23:04:50Z</time>
      </trkpt>
      <trkpt lat="42.656526" lon="0.876783">
        <ele>1557.014</ele>
        <time>2010-06-14T23:06:18Z</time>
      </trkpt>
      <trkpt lat="42.656807" lon="0.877323">
        <ele>1575.006</ele>
        <time>2010-06-14T23:07:07Z</time>
      </trkpt>
      <trkpt lat="42.657164" lon="0.877189">
        <ele>1569.022</ele>
        <time>2010-06-14T23:07:44Z</time>
      </trkpt>
      <trkpt lat="42.657456" lon="0.878338">
        <ele>1579.029</ele>
        <time>2010-06-14T23:09:12Z</time>
      </trkpt>
      <trkpt lat="42.657241" lon="0.878894">
        <ele>1596.026</ele>
        <time>2010-06-14T23:09:59Z</time>
      </trkpt>
      <trkpt lat="42.657177" lon="0.880299">
        <ele>1605.024</ele>
        <time>2010-06-14T23:11:43Z</time>
      </trkpt>
      <trkpt lat="42.656299" lon="0.881549">
        <ele>1626.072</ele>
        <time>2010-06-14T23:13:49Z</time>
      </trkpt>
      <trkpt lat="42.655872" lon="0.885224">
        <ele>1642.064</ele>
        <time>2010-06-14T23:18:24Z</time>
      </trkpt>
      <trkpt lat="42.654857" lon="0.886356">
        <ele>1648.065</ele>
        <time>2010-06-14T23:20:36Z</time>
      </trkpt>
      <trkpt lat="42.654691" lon="0.887094">
        <ele>1660.068</ele>
        <time>2010-06-14T23:21:32Z</time>
      </trkpt>
      <trkpt lat="42.654159" lon="0.887539">
        <ele>1667.014</ele>
        <time>2010-06-14T23:22:34Z</time>
      </trkpt>
      <trkpt lat="42.653911" lon="0.888767">
        <ele>1687.006</ele>
        <time>2010-06-14T23:24:09Z</time>
      </trkpt>
      <trkpt lat="42.653387" lon="0.889639">
        <ele>1688.055</ele>
        <time>2010-06-14T23:25:32Z</time>
      </trkpt>
      <trkpt lat="42.653277" lon="0.890984">
        <ele>1708.072</ele>
        <time>2010-06-14T23:27:11Z</time>
      </trkpt>
      <trkpt lat="42.651351" lon="0.891538">
        <ele>1730.059</ele>
        <time>2010-06-14T23:30:28Z</time>
      </trkpt>
      <trkpt lat="42.650741" lon="0.892656">
        <ele>1754.017</ele>
        <time>2010-06-14T23:32:10Z</time>
      </trkpt>
      <trkpt lat="42.648778" lon="0.893637">
        <ele>1769.085</ele>
        <time>2010-06-14T23:35:40Z</time>
      </trkpt>
      <trkpt lat="42.647429" lon="0.893744">
        <ele>1785.087</ele>
        <time>2010-06-14T23:37:54Z</time>
      </trkpt>
      <trkpt lat="42.648211" lon="0.894632">
        <ele>1803.087</ele>
        <time>2010-06-14T23:39:36Z</time>
      </trkpt>
      <trkpt lat="42.648893" lon="0.894975">
        <ele>1820.042</ele>
        <time>2010-06-14T23:40:49Z</time>
      </trkpt>
      <trkpt lat="42.646576" lon="0.896334">
        <ele>1856.026</ele>
        <time>2010-06-14T23:45:01Z</time>
      </trkpt>
      <trkpt lat="42.643461" lon="0.895890">
        <ele>1891.006</ele>
        <time>2010-06-14T23:50:16Z</time>
      </trkpt>
      <trkpt lat="42.643226" lon="0.895349">
        <ele>1887.047</ele>
        <time>2010-06-14T23:51:01Z</time>
      </trkpt>
      <trkpt lat="42.641992" lon="0.896794">
        <ele>1908.084</ele>
        <time>2010-06-14T23:53:45Z</time>
      </trkpt>
      <trkpt lat="42.641697" lon="0.900341">
        <ele>2027.051</ele>
        <time>2010-06-14T23:58:07Z</time>
      </trkpt>
      <trkpt lat="42.641906" lon="0.901919">
        <ele>2053.059</ele>
        <time>2010-06-15T00:00:05Z</time>
      </trkpt>
      <trkpt lat="42.640026" lon="0.904969">
        <ele>2051.067</ele>
        <time>2010-06-15T00:04:58Z</time>
      </trkpt>
      <trkpt lat="42.638145" lon="0.908020">
        <ele>2101.059</ele>
        <time>2010-06-15T00:09:51Z</time>
      </trkpt>
      <trkpt lat="42.637174" lon="0.909089">
        <ele>2146.054</ele>
        <time>2010-06-15T00:11:57Z</time>
      </trkpt>
      <trkpt lat="42.636453" lon="0.909053">
        <ele>2166.056</ele>
        <time>2010-06-15T00:13:08Z</time>
      </trkpt>
      <trkpt lat="42.635616" lon="0.910056">
        <ele>2200.011</ele>
        <time>2010-06-15T00:15:00Z</time>
      </trkpt>
      <trkpt lat="42.635144" lon="0.911353">
        <ele>2235.006</ele>
        <time>2010-06-15T00:16:46Z</time>
      </trkpt>
      <trkpt lat="42.635653" lon="0.912067">
        <ele>2246.024</ele>
        <time>2010-06-15T00:18:01Z</time>
      </trkpt>
      <trkpt lat="42.635306" lon="0.912811">
        <ele>2276.081</ele>
        <time>2010-06-15T00:19:05Z</time>
      </trkpt>
      <trkpt lat="42.636158" lon="0.912599">
        <ele>2276.048</ele>
        <time>2010-06-15T00:20:31Z</time>
      </trkpt>
      <trkpt lat="42.634517" lon="0.913996">
        <ele>2305.046</ele>
        <time>2010-06-15T00:23:45Z</time>
      </trkpt>
      <trkpt lat="42.635986" lon="0.915532">
        <ele>2232.014</ele>
        <time>2010-06-15T00:26:50Z</time>
      </trkpt>
      <trkpt lat="42.637989" lon="0.916746">
        <ele>2173.016</ele>
        <time>2010-06-15T00:30:31Z</time>
      </trkpt>
      <trkpt lat="42.636872" lon="0.917210">
        <ele>2141.062</ele>
        <time>2010-06-15T00:32:27Z</time>
      </trkpt>
      <trkpt lat="42.636063" lon="0.917298">
        <ele>2114.083</ele>
        <time>2010-06-15T00:33:49Z</time>
      </trkpt>
      <trkpt lat="42.632981" lon="0.916181">
        <ele>2153.011</ele>
        <time>2010-06-15T00:39:08Z</time>
      </trkpt>
      <trkpt lat="42.629611" lon="0.916538">
        <ele>2170.006</ele>
        <time>2010-06-15T00:44:46Z</time>
      </trkpt>
      <trkpt lat="42.628316" lon="0.917130">
        <ele>2193.015</ele>
        <time>2010-06-15T00:47:03Z</time>
      </trkpt>
      <trkpt lat="42.627608" lon="0.917824">
        <ele>2201.092</ele>
        <time>2010-06-15T00:48:30Z</time>
      </trkpt>
      <trkpt lat="42.627323" lon="0.919480">
        <ele>2186.089</ele>
        <time>2010-06-15T00:50:36Z</time>
      </trkpt>
      <trkpt lat="42.627556" lon="0.922399">
        <ele>2097.097</ele>
        <time>2010-06-15T00:54:11Z</time>
      </trkpt>
      <trkpt lat="42.627424" lon="0.925086">
        <ele>2083.045</ele>
        <time>2010-06-15T00:57:30Z</time>
      </trkpt>
      <trkpt lat="42.626666" lon="0.925477">
        <ele>2115.087</ele>
        <time>2010-06-15T00:58:50Z</time>
      </trkpt>
      <trkpt lat="42.626102" lon="0.924154">
        <ele>2112.064</ele>
        <time>2010-06-15T01:00:44Z</time>
      </trkpt>
      <trkpt lat="42.625312" lon="0.925278">
        <ele>2142.006</ele>
        <time>2010-06-15T01:02:37Z</time>
      </trkpt>
      <trkpt lat="42.625793" lon="0.926969">
        <ele>2181.016</ele>
        <time>2010-06-15T01:04:51Z</time>
      </trkpt>
      <trkpt lat="42.625317" lon="0.928082">
        <ele>2210.006</ele>
        <time>2010-06-15T01:06:27Z</time>
      </trkpt>
      <trkpt lat="42.624486" lon="0.926952">
        <ele>2200.025</ele>
        <time>2010-06-15T01:08:23Z</time>
      </trkpt>
      <trkpt lat="42.624507" lon="0.928109">
        <ele>2211.032</ele>
        <time>2010-06-15T01:09:49Z</time>
      </trkpt>
      <trkpt lat="42.624085" lon="0.929648">
        <ele>2179.089</ele>
        <time>2010-06-15T01:11:50Z</time>
      </trkpt>
      <trkpt lat="42.623458" lon="0.929851">
        <ele>2182.057</ele>
        <time>2010-06-15T01:12:55Z</time>
      </trkpt>
      <trkpt lat="42.623018" lon="0.930415">
        <ele>2174.065</ele>
        <time>2010-06-15T01:13:56Z</time>
      </trkpt>
      <trkpt lat="42.622508" lon="0.932078">
        <ele>2173.047</ele>
        <time>2010-06-15T01:16:08Z</time>
      </trkpt>
      <trkpt lat="42.622231" lon="0.931721">
        <ele>2177.025</ele>
        <time>2010-06-15T01:16:46Z</time>
      </trkpt>
      <trkpt lat="42.621537" lon="0.933146">
        <ele>2170.026</ele>
        <time>2010-06-15T01:18:52Z</time>
      </trkpt>
      <trkpt lat="42.619422" lon="0.935716">
        <ele>2174.008</ele>
        <time>2010-06-15T01:23:35Z</time>
      </trkpt>
      <trkpt lat="42.618994" lon="0.936949">
        <ele>2179.006</ele>
        <time>2010-06-15T01:25:17Z</time>
      </trkpt>
      <trkpt lat="42.618064" lon="0.937833">
        <ele>2200.051</ele>
        <time>2010-06-15T01:27:10Z</time>
      </trkpt>
      <trkpt lat="42.617893" lon="0.938327">
        <ele>2211.098</ele>
        <time>2010-06-15T01:27:50Z</time>
      </trkpt>
      <trkpt lat="42.617310" lon="0.938468">
        <ele>2228.045</ele>
        <time>2010-06-15T01:28:49Z</time>
      </trkpt>
      <trkpt lat="42.617138" lon="0.938900">
        <ele>2227.073</ele>
        <time>2010-06-15T01:29:25Z</time>
      </trkpt>
      <trkpt lat="42.614253" lon="0.938752">
        <ele>2241.021</ele>
        <time>2010-06-15T01:34:15Z</time>
      </trkpt>
      <trkpt lat="42.613600" lon="0.939992">
        <ele>2238.063</ele>
        <time>2010-06-15T01:36:06Z</time>
      </trkpt>
      <trkpt lat="42.611600" lon="0.941460">
        <ele>2252.035</ele>
        <time>2010-06-15T01:39:54Z</time>
      </trkpt>
      <trkpt lat="42.611745" lon="0.942004">
        <ele>2245.086</ele>
        <time>2010-06-15T01:40:37Z</time>
      </trkpt>
      <trkpt lat="42.611394" lon="0.942503">
        <ele>2244.014</ele>
        <time>2010-06-15T01:41:28Z</time>
      </trkpt>
      <trkpt lat="42.611642" lon="0.943775">
        <ele>2241.006</ele>
        <time>2010-06-15T01:43:05Z</time>
      </trkpt>
      <trkpt lat="42.611385" lon="0.944515">
        <ele>2263.012</ele>
        <time>2010-06-15T01:44:04Z</time>
      </trkpt>
      <trkpt lat="42.611952" lon="0.946020">
        <ele>2261.059</ele>
        <time>2010-06-15T01:46:10Z</time>
      </trkpt>
      <trkpt lat="42.611559" lon="0.946704">
        <ele>2279.056</ele>
        <time>2010-06-15T01:47:14Z</time>
      </trkpt>
      <trkpt lat="42.611224" lon="0.948056">
        <ele>2319.014</ele>
        <time>2010-06-15T01:48:59Z</time>
      </trkpt>
      <trkpt lat="42.611196" lon="0.949032">
        <ele>2351.062</ele>
        <time>2010-06-15T01:50:10Z</time>
      </trkpt>
      <trkpt lat="42.610528" lon="0.949420">
        <ele>2364.024</ele>
        <time>2010-06-15T01:51:22Z</time>
      </trkpt>
      <trkpt lat="42.611166" lon="0.949887">
        <ele>2383.052</ele>
        <time>2010-06-15T01:52:35Z</time>
      </trkpt>
      <trkpt lat="42.610672" lon="0.949964">
        <ele>2384.053</ele>
        <time>2010-06-15T01:53:26Z</time>
      </trkpt>
      <trkpt lat="42.610508" lon="0.950823">
        <ele>2417.008</ele>
        <time>2010-06-15T01:54:30Z</time>
      </trkpt>
      <trkpt lat="42.610971" lon="0.951539">
        <ele>2455.006</ele>
        <time>2010-06-15T01:55:40Z</time>
      </trkpt>
      <trkpt lat="42.610900" lon="0.952638">
        <ele>2487.094</ele>
        <time>2010-06-15T01:57:02Z</time>
      </trkpt>
      <trkpt lat="42.610168" lon="0.951992">
        <ele>2458.071</ele>
        <time>2010-06-15T01:58:30Z</time>
      </trkpt>
      <trkpt lat="42.609057" lon="0.952803">
        <ele>2479.048</ele>
        <time>2010-06-15T02:00:36Z</time>
      </trkpt>
      <trkpt lat="42.608308" lon="0.953741">
        <ele>2514.056</ele>
        <time>2010-06-15T02:02:18Z</time>
      </trkpt>
      <trkpt lat="42.607103" lon="0.956829">
        <ele>2568.054</ele>
        <time>2010-06-15T02:06:34Z</time>
      </trkpt>
      <trkpt lat="42.606742" lon="0.956779">
        <ele>2565.056</ele>
        <time>2010-06-15T02:07:11Z</time>
      </trkpt>
      <trkpt lat="42.605656" lon="0.959009">
        <ele>2567.028</ele>
        <time>2010-06-15T02:10:28Z</time>
      </trkpt>
      <trkpt lat="42.605018" lon="0.958603">
        <ele>2579.089</ele>
        <time>2010-06-15T02:11:38Z</time>
      </trkpt>
      <trkpt lat="42.604665" lon="0.958981">
        <ele>2581.017</ele>
        <time>2010-06-15T02:12:23Z</time>
      </trkpt>
      <trkpt lat="42.604210" lon="0.958752">
        <ele>2583.006</ele>
        <time>2010-06-15T02:13:12Z</time>
      </trkpt>
      <trkpt lat="42.603404" lon="0.958961">
        <ele>2581.021</ele>
        <time>2010-06-15T02:14:35Z</time>
      </trkpt>
      <trkpt lat="42.602934" lon="0.960378">
        <ele>2564.018</ele>
        <time>2010-06-15T02:16:28Z</time>
      </trkpt>
      <trkpt lat="42.602946" lon="0.963608">
        <ele>2534.065</ele>
        <time>2010-06-15T02:20:27Z</time>
      </trkpt>
      <trkpt lat="42.602436" lon="0.965331">
        <ele>2507.063</ele>
        <time>2010-06-15T02:22:44Z</time>
      </trkpt>
      <trkpt lat="42.601776" lon="0.966206">
        <ele>2470.041</ele>
        <time>2010-06-15T02:24:16Z</time>
      </trkpt>
      <trkpt lat="42.600251" lon="0.966499">
        <ele>2441.053</ele>
        <time>2010-06-15T02:26:49Z</time>
      </trkpt>
      <trkpt lat="42.599498" lon="0.967194">
        <ele>2413.058</ele>
        <time>2010-06-15T02:28:21Z</time>
      </trkpt>
      <trkpt lat="42.598900" lon="0.969042">
        <ele>2355.052</ele>
        <time>2010-06-15T02:30:49Z</time>
      </trkpt>
      <trkpt lat="42.597855" lon="0.973586">
        <ele>2307.017</ele>
        <time>2010-06-15T02:36:41Z</time>
      </trkpt>
      <trkpt lat="42.596982" lon="0.975138">
        <ele>2304.006</ele>
        <time>2010-06-15T02:39:04Z</time>
      </trkpt>
      <trkpt lat="42.594838" lon="0.976121">
        <ele>2280.014</ele>
        <time>2010-06-15T02:42:50Z</time>
      </trkpt>
      <trkpt lat="42.594594" lon="0.977592">
        <ele>2293.051</ele>
        <time>2010-06-15T02:44:42Z</time>
      </trkpt>
      <trkpt lat="42.593980" lon="0.978526">
        <ele>2269.078</ele>
        <time>2010-06-15T02:46:14Z</time>
      </trkpt>
      <trkpt lat="42.593550" lon="0.979697">
        <ele>2261.036</ele>
        <time>2010-06-15T02:47:51Z</time>
      </trkpt>
      <trkpt lat="42.592351" lon="0.980650">
        <ele>2229.044</ele>
        <time>2010-06-15T02:50:10Z</time>
      </trkpt>
      <trkpt lat="42.592051" lon="0.981513">
        <ele>2232.016</ele>
        <time>2010-06-15T02:51:20Z</time>
      </trkpt>
      <trkpt lat="42.592159" lon="0.982484">
        <ele>2235.056</ele>
        <time>2010-06-15T02:52:33Z</time>
      </trkpt>
      <trkpt lat="42.591989" lon="0.983099">
        <ele>2232.059</ele>
        <time>2010-06-15T02:53:21Z</time>
      </trkpt>
      <trkpt lat="42.592307" lon="0.983272">
        <ele>2230.014</ele>
        <time>2010-06-15T02:53:54Z</time>
      </trkpt>
      <trkpt lat="42.591562" lon="0.984393">
        <ele>2225.006</ele>
        <time>2010-06-15T02:55:47Z</time>
      </trkpt>
      <trkpt lat="42.591594" lon="0.986220">
        <ele>2205.034</ele>
        <time>2010-06-15T02:58:01Z</time>
      </trkpt>
      <trkpt lat="42.591224" lon="0.985683">
        <ele>2206.051</ele>
        <time>2010-06-15T02:58:55Z</time>
      </trkpt>
      <trkpt lat="42.590654" lon="0.989114">
        <ele>2151.038</ele>
        <time>2010-06-15T03:03:15Z</time>
      </trkpt>
      <trkpt lat="42.589813" lon="0.989933">
        <ele>2144.096</ele>
        <time>2010-06-15T03:04:58Z</time>
      </trkpt>
      <trkpt lat="42.589291" lon="0.990986">
        <ele>2143.054</ele>
        <time>2010-06-15T03:06:32Z</time>
      </trkpt>
      <trkpt lat="42.588784" lon="0.992891">
        <ele>2127.016</ele>
        <time>2010-06-15T03:09:00Z</time>
      </trkpt>
      <trkpt lat="42.588802" lon="0.993927">
        <ele>2128.082</ele>
        <time>2010-06-15T03:10:16Z</time>
      </trkpt>
      <trkpt lat="42.587730" lon="0.996947">
        <ele>2110.043</ele>
        <time>2010-06-15T03:14:23Z</time>
      </trkpt>
      <trkpt lat="42.587702" lon="0.997923">
        <ele>2097.017</ele>
        <time>2010-06-15T03:15:35Z</time>
      </trkpt>
      <trkpt lat="42.586835" lon="0.999839">
        <ele>2047.006</ele>
        <time>2010-06-15T03:18:22Z</time>
      </trkpt>
      <trkpt lat="42.586013" lon="0.999195">
        <ele>2010.087</ele>
        <time>2010-06-15T03:19:56Z</time>
      </trkpt>
      <trkpt lat="42.585734" lon="0.998717">
        <ele>2004.074</ele>
        <time>2010-06-15T03:20:42Z</time>
      </trkpt>
      <trkpt lat="42.584332" lon="0.998335">
        <ele>1952.021</ele>
        <time>2010-06-15T03:23:04Z</time>
      </trkpt>
      <trkpt lat="42.584474" lon="0.998757">
        <ele>1944.099</ele>
        <time>2010-06-15T03:23:39Z</time>
      </trkpt>
      <trkpt lat="42.584232" lon="1.000349">
        <ele>1923.087</ele>
        <time>2010-06-15T03:25:38Z</time>
      </trkpt>
      <trkpt lat="42.583223" lon="1.001905">
        <ele>1922.049</ele>
        <time>2010-06-15T03:28:12Z</time>
      </trkpt>
      <trkpt lat="42.583235" lon="1.005134">
        <ele>1931.014</ele>
        <time>2010-06-15T03:32:10Z</time>
      </trkpt>
      <trkpt lat="42.582586" lon="1.009237">
        <ele>1915.054</ele>
        <time>2010-06-15T03:37:19Z</time>
      </trkpt>
      <trkpt lat="42.581126" lon="1.010745">
        <ele>1896.009</ele>
        <time>2010-06-15T03:40:22Z</time>
      </trkpt>
      <trkpt lat="42.580712" lon="1.012830">
        <ele>1859.006</ele>
        <time>2010-06-15T03:43:01Z</time>
      </trkpt>
      <trkpt lat="42.581126" lon="1.013365">
        <ele>1854.040</ele>
        <time>2010-06-15T03:43:58Z</time>
      </trkpt>
      <trkpt lat="42.580955" lon="1.013858">
        <ele>1847.037</ele>
        <time>2010-06-15T03:44:38Z</time>
      </trkpt>
      <trkpt lat="42.581323" lon="1.014334">
        <ele>1843.084</ele>
        <time>2010-06-15T03:45:30Z</time>
      </trkpt>
      <trkpt lat="42.581370" lon="1.017013">
        <ele>1814.062</ele>
        <time>2010-06-15T03:48:46Z</time>
      </trkpt>
      <trkpt lat="42.580934" lon="1.017880">
        <ele>1808.060</ele>
        <time>2010-06-15T03:50:04Z</time>
      </trkpt>
      <trkpt lat="42.580953" lon="1.018976">
        <ele>1804.042</ele>
        <time>2010-06-15T03:51:24Z</time>
      </trkpt>
      <trkpt lat="42.581586" lon="1.021698">
        <ele>1793.018</ele>
        <time>2010-06-15T03:54:56Z</time>
      </trkpt>
      <trkpt lat="42.581676" lon="1.024315">
        <ele>1781.098</ele>
        <time>2010-06-15T03:58:08Z</time>
      </trkpt>
      <trkpt lat="42.581065" lon="1.025431">
        <ele>1766.017</ele>
        <time>2010-06-15T03:59:50Z</time>
      </trkpt>
      <trkpt lat="42.581535" lon="1.026574">
        <ele>1768.006</ele>
        <time>2010-06-15T04:01:27Z</time>
      </trkpt>
      <trkpt lat="42.581687" lon="1.030164">
        <ele>1736.020</ele>
        <time>2010-06-15T04:05:53Z</time>
      </trkpt>
      <trkpt lat="42.582190" lon="1.030635">
        <ele>1733.057</ele>
        <time>2010-06-15T04:06:54Z</time>
      </trkpt>
      <trkpt lat="42.582573" lon="1.031964">
        <ele>1722.064</ele>
        <time>2010-06-15T04:08:39Z</time>
      </trkpt>
      <trkpt lat="42.583308" lon="1.035414">
        <ele>1695.082</ele>
        <time>2010-06-15T04:13:03Z</time>
      </trkpt>
      <trkpt lat="42.583736" lon="1.036741">
        <ele>1697.020</ele>
        <time>2010-06-15T04:14:50Z</time>
      </trkpt>
      <trkpt lat="42.584846" lon="1.038473">
        <ele>1698.082</ele>
        <time>2010-06-15T04:17:40Z</time>
      </trkpt>
      <trkpt lat="42.585165" lon="1.041327">
        <ele>1688.099</ele>
        <time>2010-06-15T04:21:12Z</time>
      </trkpt>
      <trkpt lat="42.585203" lon="1.043580">
        <ele>1673.007</ele>
        <time>2010-06-15T04:23:57Z</time>
      </trkpt>
      <trkpt lat="42.586093" lon="1.045563">
        <ele>1673.027</ele>
        <time>2010-06-15T04:26:48Z</time>
      </trkpt>
      <trkpt lat="42.586845" lon="1.050048">
        <ele>1639.006</ele>
        <time>2010-06-15T04:32:28Z</time>
      </trkpt>
      <trkpt lat="42.586521" lon="1.054872">
        <ele>1597.028</ele>
        <time>2010-06-15T04:38:25Z</time>
      </trkpt>
      <trkpt lat="42.584967" lon="1.061440">
        <ele>1527.095</ele>
        <time>2010-06-15T04:46:54Z</time>
      </trkpt>
      <trkpt lat="42.584483" lon="1.064807">
        <ele>1500.072</ele>
        <time>2010-06-15T04:51:06Z</time>
      </trkpt>
      <trkpt lat="42.584587" lon="1.065595">
        <ele>1505.080</ele>
        <time>2010-06-15T04:52:05Z</time>
      </trkpt>
      <trkpt lat="42.583917" lon="1.068602">
        <ele>1460.078</ele>
        <time>2010-06-15T04:55:56Z</time>
      </trkpt>
      <trkpt lat="42.583678" lon="1.070437">
        <ele>1450.070</ele>
        <time>2010-06-15T04:58:14Z</time>
      </trkpt>
      <trkpt lat="42.582924" lon="1.071131">
        <ele>1441.038</ele>
        <time>2010-06-15T04:59:45Z</time>
      </trkpt>
      <trkpt lat="42.582985" lon="1.072104">
        <ele>1431.070</ele>
        <time>2010-06-15T05:00:57Z</time>
      </trkpt>
      <trkpt lat="42.582638" lon="1.072845">
        <ele>1433.017</ele>
        <time>2010-06-15T05:02:02Z</time>
      </trkpt>
      <trkpt lat="42.582471" lon="1.073643">
        <ele>1419.006</ele>
        <time>2010-06-15T05:03:02Z</time>
      </trkpt>
      <trkpt lat="42.581840" lon="1.078963">
        <ele>1376.082</ele>
        <time>2010-06-15T05:09:40Z</time>
      </trkpt>
      <trkpt lat="42.581245" lon="1.081114">
        <ele>1354.049</ele>
        <time>2010-06-15T05:12:29Z</time>
      </trkpt>
      <trkpt lat="42.580136" lon="1.082062">
        <ele>1347.066</ele>
        <time>2010-06-15T05:14:41Z</time>
      </trkpt>
      <trkpt lat="42.579978" lon="1.083407">
        <ele>1334.094</ele>
        <time>2010-06-15T05:16:21Z</time>
      </trkpt>
      <trkpt lat="42.578466" lon="1.084550">
        <ele>1338.032</ele>
        <time>2010-06-15T05:19:13Z</time>
      </trkpt>
      <trkpt lat="42.577931" lon="1.085602">
        <ele>1325.094</ele>
        <time>2010-06-15T05:20:47Z</time>
      </trkpt>
      <trkpt lat="42.577137" lon="1.086357">
        <ele>1315.078</ele>
        <time>2010-06-15T05:22:24Z</time>
      </trkpt>
      <trkpt lat="42.576301" lon="1.088515">
        <ele>1311.033</ele>
        <time>2010-06-15T05:25:24Z</time>
      </trkpt>
      <trkpt lat="42.574984" lon="1.089043">
        <ele>1302.026</ele>
        <time>2010-06-15T05:27:43Z</time>
      </trkpt>
      <trkpt lat="42.573971" lon="1.090414">
        <ele>1302.006</ele>
        <time>2010-06-15T05:30:06Z</time>
      </trkpt>
      <trkpt lat="42.573504" lon="1.092073">
        <ele>1298.046</ele>
        <time>2010-06-15T05:32:17Z</time>
      </trkpt>
      <trkpt lat="42.572795" lon="1.092765">
        <ele>1300.043</ele>
        <time>2010-06-15T05:33:43Z</time>
      </trkpt>
      <trkpt lat="42.571838" lon="1.094804">
        <ele>1300.020</ele>
        <time>2010-06-15T05:36:41Z</time>
      </trkpt>
      <trkpt lat="42.571415" lon="1.096462">
        <ele>1304.038</ele>
        <time>2010-06-15T05:38:51Z</time>
      </trkpt>
      <trkpt lat="42.571342" lon="1.097439">
        <ele>1301.046</ele>
        <time>2010-06-15T05:40:03Z</time>
      </trkpt>
      <trkpt lat="42.570859" lon="1.100926">
        <ele>1290.048</ele>
        <time>2010-06-15T05:44:24Z</time>
      </trkpt>
      <trkpt lat="42.571202" lon="1.102621">
        <ele>1276.036</ele>
        <time>2010-06-15T05:46:35Z</time>
      </trkpt>
      <trkpt lat="42.570736" lon="1.104341">
        <ele>1278.017</ele>
        <time>2010-06-15T05:48:50Z</time>
      </trkpt>
      <trkpt lat="42.569895" lon="1.105219">
        <ele>1260.018</ele>
        <time>2010-06-15T05:50:35Z</time>
      </trkpt>
      <trkpt lat="42.569919" lon="1.106681">
        <ele>1267.006</ele>
        <time>2010-06-15T05:52:23Z</time>
      </trkpt>
      <trkpt lat="42.569415" lon="1.108889">
        <ele>1250.082</ele>
        <time>2010-06-15T05:55:14Z</time>
      </trkpt>
      <trkpt lat="42.569425" lon="1.112239">
        <ele>1251.069</ele>
        <time>2010-06-15T05:59:21Z</time>
      </trkpt>
      <trkpt lat="42.570238" lon="1.112397">
        <ele>1284.016</ele>
        <time>2010-06-15T06:00:43Z</time>
      </trkpt>
      <trkpt lat="42.571599" lon="1.115768">
        <ele>1272.094</ele>
        <time>2010-06-15T06:05:27Z</time>
      </trkpt>
      <trkpt lat="42.572543" lon="1.115617">
        <ele>1288.082</ele>
        <time>2010-06-15T06:07:02Z</time>
      </trkpt>
      <trkpt lat="42.572845" lon="1.114816">
        <ele>1324.064</ele>
        <time>2010-06-15T06:08:07Z</time>
      </trkpt>
      <trkpt lat="42.573361" lon="1.116080">
        <ele>1296.027</ele>
        <time>2010-06-15T06:09:54Z</time>
      </trkpt>
      <trkpt lat="42.574972" lon="1.118225">
        <ele>1308.068</ele>
        <time>2010-06-15T06:13:40Z</time>
      </trkpt>
      <trkpt lat="42.576028" lon="1.119473">
        <ele>1317.014</ele>
        <time>2010-06-15T06:16:00Z</time>
      </trkpt>
      <trkpt lat="42.577346" lon="1.120225">
        <ele>1340.006</ele>
        <time>2010-06-15T06:18:24Z</time>
      </trkpt>
      <trkpt lat="42.577698" lon="1.122469">
        <ele>1308.041</ele>
        <time>2010-06-15T06:21:12Z</time>
      </trkpt>
      <trkpt lat="42.578435" lon="1.123482">
        <ele>1311.038</ele>
        <time>2010-06-15T06:22:57Z</time>
      </trkpt>
      <trkpt lat="42.578964" lon="1.125538">
        <ele>1310.035</ele>
        <time>2010-06-15T06:25:38Z</time>
      </trkpt>
      <trkpt lat="42.581042" lon="1.125963">
        <ele>1349.023</ele>
        <time>2010-06-15T06:29:07Z</time>
      </trkpt>
      <trkpt lat="42.582068" lon="1.122642">
        <ele>1348.081</ele>
        <time>2010-06-15T06:33:34Z</time>
      </trkpt>
      <trkpt lat="42.582774" lon="1.121707">
        <ele>1335.023</ele>
        <time>2010-06-15T06:35:11Z</time>
      </trkpt>
      <trkpt lat="42.583577" lon="1.121256">
        <ele>1328.038</ele>
        <time>2010-06-15T06:36:39Z</time>
      </trkpt>
      <trkpt lat="42.584438" lon="1.121596">
        <ele>1310.070</ele>
        <time>2010-06-15T06:38:08Z</time>
      </trkpt>
      <trkpt lat="42.585236" lon="1.120841">
        <ele>1337.017</ele>
        <time>2010-06-15T06:39:45Z</time>
      </trkpt>
      <trkpt lat="42.585699" lon="1.121619">
        <ele>1326.006</ele>
        <time>2010-06-15T06:41:00Z</time>
      </trkpt>
      <trkpt lat="42.586511" lon="1.121717">
        <ele>1338.092</ele>
        <time>2010-06-15T06:42:21Z</time>
      </trkpt>
      <trkpt lat="42.586615" lon="1.119825">
        <ele>1358.089</ele>
        <time>2010-06-15T06:44:41Z</time>
      </trkpt>
      <trkpt lat="42.587455" lon="1.118885">
        <ele>1355.076</ele>
        <time>2010-06-15T06:46:29Z</time>
      </trkpt>
      <trkpt lat="42.588356" lon="1.118919">
        <ele>1337.084</ele>
        <time>2010-06-15T06:48:00Z</time>
      </trkpt>
      <trkpt lat="42.588750" lon="1.118237">
        <ele>1341.062</ele>
        <time>2010-06-15T06:49:04Z</time>
      </trkpt>
      <trkpt lat="42.589415" lon="1.117608">
        <ele>1382.054</ele>
        <time>2010-06-15T06:50:25Z</time>
      </trkpt>
      <trkpt lat="42.590292" lon="1.118922">
        <ele>1345.081</ele>
        <time>2010-06-15T06:52:36Z</time>
      </trkpt>
      <trkpt lat="42.590928" lon="1.119268">
        <ele>1349.061</ele>
        <time>2010-06-15T06:53:44Z</time>
      </trkpt>
      <trkpt lat="42.592275" lon="1.118984">
        <ele>1335.017</ele>
        <time>2010-06-15T06:56:01Z</time>
      </trkpt>
      <trkpt lat="42.593227" lon="1.116640">
        <ele>1338.006</ele>
        <time>2010-06-15T06:59:18Z</time>
      </trkpt>
      <trkpt lat="42.594202" lon="1.115696">
        <ele>1316.097</ele>
        <time>2010-06-15T07:01:18Z</time>
      </trkpt>
      <trkpt lat="42.594454" lon="1.114592">
        <ele>1323.054</ele>
        <time>2010-06-15T07:02:42Z</time>
      </trkpt>
      <trkpt lat="42.596277" lon="1.113196">
        <ele>1298.091</ele>
        <time>2010-06-15T07:06:12Z</time>
      </trkpt>
      <trkpt lat="42.596575" lon="1.112151">
        <ele>1312.049</ele>
        <time>2010-06-15T07:07:35Z</time>
      </trkpt>
      <trkpt lat="42.598597" lon="1.114650">
        <ele>1297.017</ele>
        <time>2010-06-15T07:12:09Z</time>
      </trkpt>
      <trkpt lat="42.598245" lon="1.115148">
        <ele>1285.029</ele>
        <time>2010-06-15T07:13:00Z</time>
      </trkpt>
      <trkpt lat="42.597687" lon="1.116810">
        <ele>1251.068</ele>
        <time>2010-06-15T07:15:14Z</time>
      </trkpt>
      <trkpt lat="42.596653" lon="1.122387">
        <ele>1182.042</ele>
        <time>2010-06-15T07:22:17Z</time>
      </trkpt>
      <trkpt lat="42.595072" lon="1.124811">
        <ele>1094.026</ele>
        <time>2010-06-15T07:26:16Z</time>
      </trkpt>
      <trkpt lat="42.595129" lon="1.125541">
        <ele>1062.006</ele>
        <time>2010-06-15T07:27:10Z</time>
      </trkpt>
      <trkpt lat="42.594782" lon="1.126344">
        <ele>1017.065</ele>
        <time>2010-06-15T07:28:18Z</time>
      </trkpt>
      <trkpt lat="42.596167" lon="1.128435">
        <ele>975.042</ele>
        <time>2010-06-15T07:31:47Z</time>
      </trkpt>
      <trkpt lat="42.594948" lon="1.128289">
        <ele>964.019</ele>
        <time>2010-06-15T07:33:48Z</time>
      </trkpt>
      <trkpt lat="42.594059" lon="1.128986">
        <ele>953.027</ele>
        <time>2010-06-15T07:35:31Z</time>
      </trkpt>
      <trkpt lat="42.593962" lon="1.131304">
        <ele>930.075</ele>
        <time>2010-06-15T07:38:22Z</time>
      </trkpt>
      <trkpt lat="42.593480" lon="1.132111">
        <ele>929.057</ele>
        <time>2010-06-15T07:39:38Z</time>
      </trkpt>
      <trkpt lat="42.593733" lon="1.133810">
        <ele>934.042</ele>
        <time>2010-06-15T07:41:47Z</time>
      </trkpt>
      <trkpt lat="42.591529" lon="1.133998">
        <ele>918.022</ele>
        <time>2010-06-15T07:45:28Z</time>
      </trkpt>
      <trkpt lat="42.590913" lon="1.134869">
        <ele>942.014</ele>
        <time>2010-06-15T07:46:57Z</time>
      </trkpt>
      <trkpt lat="42.590284" lon="1.134949">
        <ele>930.006</ele>
        <time>2010-06-15T07:48:00Z</time>
      </trkpt>
      <trkpt lat="42.589801" lon="1.135694">
        <ele>950.063</ele>
        <time>2010-06-15T07:49:13Z</time>
      </trkpt>
      <trkpt lat="42.588812" lon="1.135785">
        <ele>957.030</ele>
        <time>2010-06-15T07:50:53Z</time>
      </trkpt>
      <trkpt lat="42.587409" lon="1.138142">
        <ele>1044.027</ele>
        <time>2010-06-15T07:54:36Z</time>
      </trkpt>
      <trkpt lat="42.588275" lon="1.138787">
        <ele>1090.045</ele>
        <time>2010-06-15T07:56:15Z</time>
      </trkpt>
      <trkpt lat="42.587436" lon="1.139787">
        <ele>1087.093</ele>
        <time>2010-06-15T07:58:06Z</time>
      </trkpt>
      <trkpt lat="42.587507" lon="1.141369">
        <ele>1138.045</ele>
        <time>2010-06-15T08:00:02Z</time>
      </trkpt>
      <trkpt lat="42.587290" lon="1.141863">
        <ele>1137.015</ele>
        <time>2010-06-15T08:00:45Z</time>
      </trkpt>
      <trkpt lat="42.587097" lon="1.143879">
        <ele>1178.065</ele>
        <time>2010-06-15T08:03:15Z</time>
      </trkpt>
      <trkpt lat="42.587425" lon="1.144662">
        <ele>1201.011</ele>
        <time>2010-06-15T08:04:22Z</time>
      </trkpt>
      <trkpt lat="42.588241" lon="1.145003">
        <ele>1236.006</ele>
        <time>2010-06-15T08:05:46Z</time>
      </trkpt>
      <trkpt lat="42.587493" lon="1.146061">
        <ele>1231.070</ele>
        <time>2010-06-15T08:07:35Z</time>
      </trkpt>
      <trkpt lat="42.588224" lon="1.146710">
        <ele>1265.057</ele>
        <time>2010-06-15T08:09:02Z</time>
      </trkpt>
      <trkpt lat="42.590350" lon="1.147317">
        <ele>1346.084</ele>
        <time>2010-06-15T08:12:40Z</time>
      </trkpt>
      <trkpt lat="42.590415" lon="1.148595">
        <ele>1363.022</ele>
        <time>2010-06-15T08:14:14Z</time>
      </trkpt>
      <trkpt lat="42.591002" lon="1.148638">
        <ele>1383.040</ele>
        <time>2010-06-15T08:15:13Z</time>
      </trkpt>
      <trkpt lat="42.591616" lon="1.147645">
        <ele>1384.062</ele>
        <time>2010-06-15T08:16:49Z</time>
      </trkpt>
      <trkpt lat="42.592116" lon="1.147935">
        <ele>1399.013</ele>
        <time>2010-06-15T08:17:43Z</time>
      </trkpt>
      <trkpt lat="42.591641" lon="1.149229">
        <ele>1401.043</ele>
        <time>2010-06-15T08:19:29Z</time>
      </trkpt>
      <trkpt lat="42.592942" lon="1.148886">
        <ele>1433.007</ele>
        <time>2010-06-15T08:21:42Z</time>
      </trkpt>
      <trkpt lat="42.593840" lon="1.148737">
        <ele>1452.006</ele>
        <time>2010-06-15T08:23:12Z</time>
      </trkpt>
      <trkpt lat="42.594834" lon="1.148952">
        <ele>1488.060</ele>
        <time>2010-06-15T08:24:54Z</time>
      </trkpt>
      <trkpt lat="42.595303" lon="1.150096">
        <ele>1531.057</ele>
        <time>2010-06-15T08:26:30Z</time>
      </trkpt>
      <trkpt lat="42.595198" lon="1.151988">
        <ele>1567.064</ele>
        <time>2010-06-15T08:28:50Z</time>
      </trkpt>
      <trkpt lat="42.596412" lon="1.151891">
        <ele>1623.062</ele>
        <time>2010-06-15T08:30:51Z</time>
      </trkpt>
      <trkpt lat="42.596578" lon="1.153775">
        <ele>1650.080</ele>
        <time>2010-06-15T08:33:11Z</time>
      </trkpt>
      <trkpt lat="42.598158" lon="1.154034">
        <ele>1666.092</ele>
        <time>2010-06-15T08:35:50Z</time>
      </trkpt>
      <trkpt lat="42.598489" lon="1.154999">
        <ele>1690.034</ele>
        <time>2010-06-15T08:37:08Z</time>
      </trkpt>
      <trkpt lat="42.598564" lon="1.156886">
        <ele>1716.055</ele>
        <time>2010-06-15T08:39:28Z</time>
      </trkpt>
      <trkpt lat="42.598057" lon="1.158973">
        <ele>1770.010</ele>
        <time>2010-06-15T08:42:09Z</time>
      </trkpt>
      <trkpt lat="42.596636" lon="1.162976">
        <ele>1913.006</ele>
        <time>2010-06-15T08:47:37Z</time>
      </trkpt>
      <trkpt lat="42.596653" lon="1.166876">
        <ele>1990.092</ele>
        <time>2010-06-15T08:52:25Z</time>
      </trkpt>
      <trkpt lat="42.596946" lon="1.168330">
        <ele>2008.069</ele>
        <time>2010-06-15T08:54:15Z</time>
      </trkpt>
      <trkpt lat="42.596972" lon="1.169953">
        <ele>2045.016</ele>
        <time>2010-06-15T08:56:16Z</time>
      </trkpt>
      <trkpt lat="42.596048" lon="1.171282">
        <ele>2105.054</ele>
        <time>2010-06-15T08:58:30Z</time>
      </trkpt>
      <trkpt lat="42.595714" lon="1.172937">
        <ele>2120.062</ele>
        <time>2010-06-15T09:00:37Z</time>
      </trkpt>
      <trkpt lat="42.596527" lon="1.175899">
        <ele>2142.084</ele>
        <time>2010-06-15T09:04:29Z</time>
      </trkpt>
      <trkpt lat="42.596724" lon="1.176991">
        <ele>2173.055</ele>
        <time>2010-06-15T09:05:52Z</time>
      </trkpt>
      <trkpt lat="42.595644" lon="1.179826">
        <ele>2200.007</ele>
        <time>2010-06-15T09:09:48Z</time>
      </trkpt>
      <trkpt lat="42.595935" lon="1.181158">
        <ele>2197.017</ele>
        <time>2010-06-15T09:11:30Z</time>
      </trkpt>
      <trkpt lat="42.596812" lon="1.182534">
        <ele>2144.006</ele>
        <time>2010-06-15T09:13:43Z</time>
      </trkpt>
      <trkpt lat="42.596918" lon="1.186370">
        <ele>2050.044</ele>
        <time>2010-06-15T09:18:27Z</time>
      </trkpt>
      <trkpt lat="42.597077" lon="1.187889">
        <ele>2011.071</ele>
        <time>2010-06-15T09:20:20Z</time>
      </trkpt>
      <trkpt lat="42.596920" lon="1.189357">
        <ele>1965.088</ele>
        <time>2010-06-15T09:22:08Z</time>
      </trkpt>
      <trkpt lat="42.598299" lon="1.191145">
        <ele>1865.066</ele>
        <time>2010-06-15T09:25:19Z</time>
      </trkpt>
      <trkpt lat="42.598427" lon="1.193518">
        <ele>1806.084</ele>
        <time>2010-06-15T09:28:14Z</time>
      </trkpt>
      <trkpt lat="42.597675" lon="1.194393">
        <ele>1785.056</ele>
        <time>2010-06-15T09:29:54Z</time>
      </trkpt>
      <trkpt lat="42.597196" lon="1.195382">
        <ele>1777.045</ele>
        <time>2010-06-15T09:31:20Z</time>
      </trkpt>
      <trkpt lat="42.596292" lon="1.195164">
        <ele>1786.047</ele>
        <time>2010-06-15T09:32:53Z</time>
      </trkpt>
      <trkpt lat="42.595981" lon="1.195478">
        <ele>1790.011</ele>
        <time>2010-06-15T09:33:31Z</time>
      </trkpt>
      <trkpt lat="42.596538" lon="1.196498">
        <ele>1760.006</ele>
        <time>2010-06-15T09:35:06Z</time>
      </trkpt>
      <trkpt lat="42.596277" lon="1.197115">
        <ele>1730.023</ele>
        <time>2010-06-15T09:35:57Z</time>
      </trkpt>
      <trkpt lat="42.596067" lon="1.198035">
        <ele>1698.060</ele>
        <time>2010-06-15T09:37:09Z</time>
      </trkpt>
      <trkpt lat="42.596340" lon="1.198271">
        <ele>1680.027</ele>
        <time>2010-06-15T09:37:41Z</time>
      </trkpt>
      <trkpt lat="42.596067" lon="1.200900">
        <ele>1551.065</ele>
        <time>2010-06-15T09:40:57Z</time>
      </trkpt>
      <trkpt lat="42.595446" lon="1.201527">
        <ele>1507.043</ele>
        <time>2010-06-15T09:42:15Z</time>
      </trkpt>
      <trkpt lat="42.595333" lon="1.202932">
        <ele>1463.095</ele>
        <time>2010-06-15T09:43:58Z</time>
      </trkpt>
      <trkpt lat="42.594718" lon="1.203925">
        <ele>1458.062</ele>
        <time>2010-06-15T09:45:34Z</time>
      </trkpt>
      <trkpt lat="42.593943" lon="1.206202">
        <ele>1415.083</ele>
        <time>2010-06-15T09:48:38Z</time>
      </trkpt>
      <trkpt lat="42.592763" lon="1.208490">
        <ele>1400.011</ele>
        <time>2010-06-15T09:52:05Z</time>
      </trkpt>
      <trkpt lat="42.592741" lon="1.209953">
        <ele>1347.006</ele>
        <time>2010-06-15T09:53:52Z</time>
      </trkpt>
      <trkpt lat="42.592158" lon="1.210092">
        <ele>1381.035</ele>
        <time>2010-06-15T09:54:51Z</time>
      </trkpt>
      <trkpt lat="42.591685" lon="1.211507">
        <ele>1318.062</ele>
        <time>2010-06-15T09:56:46Z</time>
      </trkpt>
      <trkpt lat="42.590377" lon="1.211362">
        <ele>1282.019</ele>
        <time>2010-06-15T09:58:58Z</time>
      </trkpt>
      <trkpt lat="42.590327" lon="1.211058">
        <ele>1294.047</ele>
        <time>2010-06-15T09:59:21Z</time>
      </trkpt>
      <trkpt lat="42.589372" lon="1.210476">
        <ele>1284.035</ele>
        <time>2010-06-15T10:01:05Z</time>
      </trkpt>
      <trkpt lat="42.588753" lon="1.211164">
        <ele>1256.017</ele>
        <time>2010-06-15T10:02:25Z</time>
      </trkpt>
      <trkpt lat="42.588424" lon="1.210260">
        <ele>1257.042</ele>
        <time>2010-06-15T10:03:39Z</time>
      </trkpt>
      <trkpt lat="42.587964" lon="1.212528">
        <ele>1212.022</ele>
        <time>2010-06-15T10:06:33Z</time>
      </trkpt>
      <trkpt lat="42.592125" lon="1.213749">
        <ele>1232.014</ele>
        <time>2010-06-15T10:13:38Z</time>
      </trkpt>
      <trkpt lat="42.592605" lon="1.212761">
        <ele>1235.006</ele>
        <time>2010-06-15T10:15:06Z</time>
      </trkpt>
      <trkpt lat="42.593318" lon="1.212314">
        <ele>1246.013</ele>
        <time>2010-06-15T10:16:25Z</time>
      </trkpt>
      <trkpt lat="42.593397" lon="1.211580">
        <ele>1257.090</ele>
        <time>2010-06-15T10:17:19Z</time>
      </trkpt>
      <trkpt lat="42.595099" lon="1.210983">
        <ele>1276.017</ele>
        <time>2010-06-15T10:20:14Z</time>
      </trkpt>
      <trkpt lat="42.595654" lon="1.211942">
        <ele>1287.055</ele>
        <time>2010-06-15T10:21:45Z</time>
      </trkpt>
      <trkpt lat="42.597597" lon="1.212374">
        <ele>1311.033</ele>
        <time>2010-06-15T10:25:02Z</time>
      </trkpt>
      <trkpt lat="42.598333" lon="1.213389">
        <ele>1325.015</ele>
        <time>2010-06-15T10:26:46Z</time>
      </trkpt>
      <trkpt lat="42.599994" lon="1.213037">
        <ele>1337.013</ele>
        <time>2010-06-15T10:29:36Z</time>
      </trkpt>
      <trkpt lat="42.601739" lon="1.209452">
        <ele>1341.043</ele>
        <time>2010-06-15T10:34:52Z</time>
      </trkpt>
      <trkpt lat="42.603854" lon="1.209391">
        <ele>1383.007</ele>
        <time>2010-06-15T10:38:23Z</time>
      </trkpt>
      <trkpt lat="42.605087" lon="1.210514">
        <ele>1397.006</ele>
        <time>2010-06-15T10:40:51Z</time>
      </trkpt>
      <trkpt lat="42.606665" lon="1.210591">
        <ele>1406.060</ele>
        <time>2010-06-15T10:43:29Z</time>
      </trkpt>
      <trkpt lat="42.607447" lon="1.211666">
        <ele>1411.077</ele>
        <time>2010-06-15T10:45:22Z</time>
      </trkpt>
      <trkpt lat="42.609698" lon="1.211662">
        <ele>1426.064</ele>
        <time>2010-06-15T10:49:07Z</time>
      </trkpt>
      <trkpt lat="42.610456" lon="1.211153">
        <ele>1431.092</ele>
        <time>2010-06-15T10:50:31Z</time>
      </trkpt>
      <trkpt lat="42.611075" lon="1.210465">
        <ele>1430.050</ele>
        <time>2010-06-15T10:51:52Z</time>
      </trkpt>
      <trkpt lat="42.611975" lon="1.210439">
        <ele>1450.032</ele>
        <time>2010-06-15T10:53:21Z</time>
      </trkpt>
      <trkpt lat="42.613382" lon="1.211130">
        <ele>1471.019</ele>
        <time>2010-06-15T10:55:52Z</time>
      </trkpt>
      <trkpt lat="42.615718" lon="1.210759">
        <ele>1494.009</ele>
        <time>2010-06-15T10:59:47Z</time>
      </trkpt>
      <trkpt lat="42.618065" lon="1.211118">
        <ele>1524.019</ele>
        <time>2010-06-15T11:03:42Z</time>
      </trkpt>
      <trkpt lat="42.617812" lon="1.212223">
        <ele>1557.006</ele>
        <time>2010-06-15T11:05:08Z</time>
      </trkpt>
      <trkpt lat="42.617853" lon="1.214904">
        <ele>1700.080</ele>
        <time>2010-06-15T11:08:26Z</time>
      </trkpt>
      <trkpt lat="42.615972" lon="1.218433">
        <ele>1784.057</ele>
        <time>2010-06-15T11:13:47Z</time>
      </trkpt>
      <trkpt lat="42.614652" lon="1.220421">
        <ele>1808.024</ele>
        <time>2010-06-15T11:17:03Z</time>
      </trkpt>
      <trkpt lat="42.614268" lon="1.221773">
        <ele>1784.032</ele>
        <time>2010-06-15T11:18:51Z</time>
      </trkpt>
      <trkpt lat="42.613786" lon="1.222640">
        <ele>1746.070</ele>
        <time>2010-06-15T11:20:11Z</time>
      </trkpt>
      <trkpt lat="42.613184" lon="1.224425">
        <ele>1692.062</ele>
        <time>2010-06-15T11:22:34Z</time>
      </trkpt>
      <trkpt lat="42.613516" lon="1.225513">
        <ele>1681.056</ele>
        <time>2010-06-15T11:24:02Z</time>
      </trkpt>
      <trkpt lat="42.612129" lon="1.226101">
        <ele>1646.059</ele>
        <time>2010-06-15T11:26:28Z</time>
      </trkpt>
      <trkpt lat="42.611741" lon="1.227209">
        <ele>1606.014</ele>
        <time>2010-06-15T11:27:57Z</time>
      </trkpt>
      <trkpt lat="42.615470" lon="1.229603">
        <ele>1589.006</ele>
        <time>2010-06-15T11:34:51Z</time>
      </trkpt>
      <trkpt lat="42.620070" lon="1.230082">
        <ele>1581.064</ele>
        <time>2010-06-15T11:42:31Z</time>
      </trkpt>
      <trkpt lat="42.621205" lon="1.230660">
        <ele>1528.061</ele>
        <time>2010-06-15T11:44:34Z</time>
      </trkpt>
      <trkpt lat="42.621360" lon="1.231997">
        <ele>1478.098</ele>
        <time>2010-06-15T11:46:13Z</time>
      </trkpt>
      <trkpt lat="42.621011" lon="1.232677">
        <ele>1451.066</ele>
        <time>2010-06-15T11:47:14Z</time>
      </trkpt>
      <trkpt lat="42.621026" lon="1.233652">
        <ele>1424.094</ele>
        <time>2010-06-15T11:48:26Z</time>
      </trkpt>
      <trkpt lat="42.621214" lon="1.234196">
        <ele>1405.076</ele>
        <time>2010-06-15T11:49:09Z</time>
      </trkpt>
      <trkpt lat="42.621976" lon="1.233930">
        <ele>1422.058</ele>
        <time>2010-06-15T11:50:29Z</time>
      </trkpt>
      <trkpt lat="42.623631" lon="1.236200">
        <ele>1442.052</ele>
        <time>2010-06-15T11:54:24Z</time>
      </trkpt>
      <trkpt lat="42.624073" lon="1.238566">
        <ele>1388.017</ele>
        <time>2010-06-15T11:57:23Z</time>
      </trkpt>
      <trkpt lat="42.625970" lon="1.241866">
        <ele>1342.006</ele>
        <time>2010-06-15T12:02:33Z</time>
      </trkpt>
      <trkpt lat="42.629359" lon="1.242685">
        <ele>1382.094</ele>
        <time>2010-06-15T12:08:17Z</time>
      </trkpt>
      <trkpt lat="42.630162" lon="1.242175">
        <ele>1432.061</ele>
        <time>2010-06-15T12:09:46Z</time>
      </trkpt>
      <trkpt lat="42.630802" lon="1.242767">
        <ele>1369.058</ele>
        <time>2010-06-15T12:11:03Z</time>
      </trkpt>
      <trkpt lat="42.631384" lon="1.242567">
        <ele>1367.066</ele>
        <time>2010-06-15T12:12:03Z</time>
      </trkpt>
      <trkpt lat="42.632015" lon="1.242610">
        <ele>1372.024</ele>
        <time>2010-06-15T12:13:07Z</time>
      </trkpt>
      <trkpt lat="42.632366" lon="1.241991">
        <ele>1418.096</ele>
        <time>2010-06-15T12:14:04Z</time>
      </trkpt>
      <trkpt lat="42.632949" lon="1.241852">
        <ele>1437.017</ele>
        <time>2010-06-15T12:15:03Z</time>
      </trkpt>
      <trkpt lat="42.633138" lon="1.242457">
        <ele>1413.087</ele>
        <time>2010-06-15T12:15:51Z</time>
      </trkpt>
      <trkpt lat="42.634499" lon="1.243089">
        <ele>1415.015</ele>
        <time>2010-06-15T12:18:16Z</time>
      </trkpt>
      <trkpt lat="42.635263" lon="1.243007">
        <ele>1417.006</ele>
        <time>2010-06-15T12:19:32Z</time>
      </trkpt>
      <trkpt lat="42.635844" lon="1.242747">
        <ele>1428.010</ele>
        <time>2010-06-15T12:20:34Z</time>
      </trkpt>
      <trkpt lat="42.636680" lon="1.241442">
        <ele>1467.037</ele>
        <time>2010-06-15T12:22:41Z</time>
      </trkpt>
      <trkpt lat="42.636789" lon="1.242720">
        <ele>1412.064</ele>
        <time>2010-06-15T12:24:15Z</time>
      </trkpt>
      <trkpt lat="42.636591" lon="1.244433">
        <ele>1344.052</ele>
        <time>2010-06-15T12:26:23Z</time>
      </trkpt>
      <trkpt lat="42.637284" lon="1.245589">
        <ele>1293.080</ele>
        <time>2010-06-15T12:28:13Z</time>
      </trkpt>
      <trkpt lat="42.637400" lon="1.247291">
        <ele>1234.012</ele>
        <time>2010-06-15T12:30:18Z</time>
      </trkpt>
      <trkpt lat="42.638645" lon="1.249208">
        <ele>1212.031</ele>
        <time>2010-06-15T12:33:26Z</time>
      </trkpt>
      <trkpt lat="42.639789" lon="1.250457">
        <ele>1160.061</ele>
        <time>2010-06-15T12:35:54Z</time>
      </trkpt>
      <trkpt lat="42.641242" lon="1.251209">
        <ele>1195.007</ele>
        <time>2010-06-15T12:38:30Z</time>
      </trkpt>
      <trkpt lat="42.643256" lon="1.253348">
        <ele>1145.006</ele>
        <time>2010-06-15T12:42:45Z</time>
      </trkpt>
      <trkpt lat="42.643813" lon="1.254491">
        <ele>1137.082</ele>
        <time>2010-06-15T12:44:25Z</time>
      </trkpt>
      <trkpt lat="42.643565" lon="1.255901">
        <ele>1113.019</ele>
        <time>2010-06-15T12:46:12Z</time>
      </trkpt>
      <trkpt lat="42.643800" lon="1.256565">
        <ele>1113.046</ele>
        <time>2010-06-15T12:47:06Z</time>
      </trkpt>
      <trkpt lat="42.643589" lon="1.257486">
        <ele>1125.024</ele>
        <time>2010-06-15T12:48:18Z</time>
      </trkpt>
      <trkpt lat="42.642782" lon="1.257752">
        <ele>1166.082</ele>
        <time>2010-06-15T12:49:41Z</time>
      </trkpt>
      <trkpt lat="42.641139" lon="1.256274">
        <ele>1174.034</ele>
        <time>2010-06-15T12:52:59Z</time>
      </trkpt>
      <trkpt lat="42.640279" lon="1.255993">
        <ele>1196.066</ele>
        <time>2010-06-15T12:54:27Z</time>
      </trkpt>
      <trkpt lat="42.638167" lon="1.256296">
        <ele>1323.029</ele>
        <time>2010-06-15T12:57:59Z</time>
      </trkpt>
      <trkpt lat="42.637168" lon="1.258641">
        <ele>1426.021</ele>
        <time>2010-06-15T13:01:19Z</time>
      </trkpt>
      <trkpt lat="42.635616" lon="1.260270">
        <ele>1518.006</ele>
        <time>2010-06-15T13:04:35Z</time>
      </trkpt>
      <trkpt lat="42.634640" lon="1.261212">
        <ele>1555.055</ele>
        <time>2010-06-15T13:06:35Z</time>
      </trkpt>
      <trkpt lat="42.634104" lon="1.261470">
        <ele>1552.062</ele>
        <time>2010-06-15T13:07:32Z</time>
      </trkpt>
      <trkpt lat="42.632664" lon="1.261571">
        <ele>1550.059</ele>
        <time>2010-06-15T13:09:55Z</time>
      </trkpt>
      <trkpt lat="42.632267" lon="1.262070">
        <ele>1558.017</ele>
        <time>2010-06-15T13:10:49Z</time>
      </trkpt>
      <trkpt lat="42.631673" lon="1.261538">
        <ele>1533.075</ele>
        <time>2010-06-15T13:12:02Z</time>
      </trkpt>
      <trkpt lat="42.630927" lon="1.262778">
        <ele>1565.017</ele>
        <time>2010-06-15T13:14:00Z</time>
      </trkpt>
      <trkpt lat="42.630498" lon="1.261205">
        <ele>1491.063</ele>
        <time>2010-06-15T13:16:03Z</time>
      </trkpt>
      <trkpt lat="42.630186" lon="1.261457">
        <ele>1510.044</ele>
        <time>2010-06-15T13:16:39Z</time>
      </trkpt>
      <trkpt lat="42.630069" lon="1.259692">
        <ele>1421.018</ele>
        <time>2010-06-15T13:18:50Z</time>
      </trkpt>
      <trkpt lat="42.629390" lon="1.259406">
        <ele>1518.006</ele>
        <time>2010-06-15T13:20:00Z</time>
      </trkpt>
      <trkpt lat="42.628444" lon="1.259433">
        <ele>1515.025</ele>
        <time>2010-06-15T13:21:36Z</time>
      </trkpt>
      <trkpt lat="42.627869" lon="1.260119">
        <ele>1534.062</ele>
        <time>2010-06-15T13:22:52Z</time>
      </trkpt>
      <trkpt lat="42.626920" lon="1.259841">
        <ele>1519.079</ele>
        <time>2010-06-15T13:24:29Z</time>
      </trkpt>
      <trkpt lat="42.626046" lon="1.258646">
        <ele>1523.017</ele>
        <time>2010-06-15T13:26:33Z</time>
      </trkpt>
      <trkpt lat="42.624194" lon="1.258271">
        <ele>1530.035</ele>
        <time>2010-06-15T13:29:41Z</time>
      </trkpt>
      <trkpt lat="42.622765" lon="1.259042">
        <ele>1516.087</ele>
        <time>2010-06-15T13:32:14Z</time>
      </trkpt>
      <trkpt lat="42.621707" lon="1.260535">
        <ele>1498.043</ele>
        <time>2010-06-15T13:34:47Z</time>
      </trkpt>
      <trkpt lat="42.619557" lon="1.264253">
        <ele>1514.064</ele>
        <time>2010-06-15T13:40:36Z</time>
      </trkpt>
      <trkpt lat="42.618580" lon="1.265133">
        <ele>1524.010</ele>
        <time>2010-06-15T13:42:33Z</time>
      </trkpt>
      <trkpt lat="42.617833" lon="1.266373">
        <ele>1491.006</ele>
        <time>2010-06-15T13:44:31Z</time>
      </trkpt>
      <trkpt lat="42.619248" lon="1.267614">
        <ele>1537.023</ele>
        <time>2010-06-15T13:47:20Z</time>
      </trkpt>
      <trkpt lat="42.619084" lon="1.268655">
        <ele>1521.050</ele>
        <time>2010-06-15T13:48:38Z</time>
      </trkpt>
      <trkpt lat="42.618595" lon="1.269096">
        <ele>1519.017</ele>
        <time>2010-06-15T13:49:37Z</time>
      </trkpt>
      <trkpt lat="42.617376" lon="1.268886">
        <ele>1486.085</ele>
        <time>2010-06-15T13:51:39Z</time>
      </trkpt>
      <trkpt lat="42.616387" lon="1.268974">
        <ele>1462.073</ele>
        <time>2010-06-15T13:53:18Z</time>
      </trkpt>
      <trkpt lat="42.615953" lon="1.270083">
        <ele>1503.085</ele>
        <time>2010-06-15T13:54:50Z</time>
      </trkpt>
      <trkpt lat="42.615970" lon="1.271180">
        <ele>1549.099</ele>
        <time>2010-06-15T13:56:12Z</time>
      </trkpt>
      <trkpt lat="42.615521" lon="1.271254">
        <ele>1549.007</ele>
        <time>2010-06-15T13:56:56Z</time>
      </trkpt>
      <trkpt lat="42.613807" lon="1.274044">
        <ele>1497.027</ele>
        <time>2010-06-15T14:01:25Z</time>
      </trkpt>
      <trkpt lat="42.613845" lon="1.276604">
        <ele>1514.006</ele>
        <time>2010-06-15T14:04:33Z</time>
      </trkpt>
      <trkpt lat="42.613367" lon="1.277775">
        <ele>1510.088</ele>
        <time>2010-06-15T14:06:12Z</time>
      </trkpt>
      <trkpt lat="42.613837" lon="1.279042">
        <ele>1541.075</ele>
        <time>2010-06-15T14:07:57Z</time>
      </trkpt>
      <trkpt lat="42.613133" lon="1.280159">
        <ele>1554.042</ele>
        <time>2010-06-15T14:09:45Z</time>
      </trkpt>
      <trkpt lat="42.612811" lon="1.279680">
        <ele>1545.090</ele>
        <time>2010-06-15T14:10:33Z</time>
      </trkpt>
      <trkpt lat="42.611999" lon="1.279580">
        <ele>1558.038</ele>
        <time>2010-06-15T14:11:54Z</time>
      </trkpt>
      <trkpt lat="42.611176" lon="1.278750">
        <ele>1569.090</ele>
        <time>2010-06-15T14:13:36Z</time>
      </trkpt>
      <trkpt lat="42.611158" lon="1.277592">
        <ele>1553.069</ele>
        <time>2010-06-15T14:15:02Z</time>
      </trkpt>
      <trkpt lat="42.609241" lon="1.275877">
        <ele>1594.004</ele>
        <time>2010-06-15T14:18:51Z</time>
      </trkpt>
      <trkpt lat="42.608289" lon="1.275416">
        <ele>1601.024</ele>
        <time>2010-06-15T14:20:33Z</time>
      </trkpt>
      <trkpt lat="42.606890" lon="1.275210">
        <ele>1630.006</ele>
        <time>2010-06-15T14:22:53Z</time>
      </trkpt>
      <trkpt lat="42.606109" lon="1.274196">
        <ele>1630.055</ele>
        <time>2010-06-15T14:24:41Z</time>
      </trkpt>
      <trkpt lat="42.606041" lon="1.272674">
        <ele>1618.012</ele>
        <time>2010-06-15T14:26:33Z</time>
      </trkpt>
      <trkpt lat="42.605328" lon="1.270134">
        <ele>1647.099</ele>
        <time>2010-06-15T14:29:55Z</time>
      </trkpt>
      <trkpt lat="42.604911" lon="1.269353">
        <ele>1654.047</ele>
        <time>2010-06-15T14:31:05Z</time>
      </trkpt>
      <trkpt lat="42.604607" lon="1.264151">
        <ele>1684.065</ele>
        <time>2010-06-15T14:37:29Z</time>
      </trkpt>
      <trkpt lat="42.604211" lon="1.264801">
        <ele>1682.077</ele>
        <time>2010-06-15T14:38:32Z</time>
      </trkpt>
      <trkpt lat="42.603221" lon="1.270740">
        <ele>1727.024</ele>
        <time>2010-06-15T14:46:01Z</time>
      </trkpt>
      <trkpt lat="42.602997" lon="1.273855">
        <ele>1749.004</ele>
        <time>2010-06-15T14:49:51Z</time>
      </trkpt>
      <trkpt lat="42.603658" lon="1.278835">
        <ele>1884.014</ele>
        <time>2010-06-15T14:56:03Z</time>
      </trkpt>
      <trkpt lat="42.602661" lon="1.281422">
        <ele>1912.006</ele>
        <time>2010-06-15T14:59:38Z</time>
      </trkpt>
      <trkpt lat="42.601302" lon="1.283897">
        <ele>1909.061</ele>
        <time>2010-06-15T15:03:26Z</time>
      </trkpt>
      <trkpt lat="42.601499" lon="1.285050">
        <ele>1933.038</ele>
        <time>2010-06-15T15:04:53Z</time>
      </trkpt>
      <trkpt lat="42.602125" lon="1.284728">
        <ele>1942.095</ele>
        <time>2010-06-15T15:06:00Z</time>
      </trkpt>
      <trkpt lat="42.602826" lon="1.283429">
        <ele>1946.073</ele>
        <time>2010-06-15T15:07:59Z</time>
      </trkpt>
      <trkpt lat="42.603187" lon="1.283480">
        <ele>1960.031</ele>
        <time>2010-06-15T15:08:36Z</time>
      </trkpt>
      <trkpt lat="42.603424" lon="1.284266">
        <ele>1974.033</ele>
        <time>2010-06-15T15:09:38Z</time>
      </trkpt>
      <trkpt lat="42.603021" lon="1.287446">
        <ele>2069.029</ele>
        <time>2010-06-15T15:13:35Z</time>
      </trkpt>
      <trkpt lat="42.601556" lon="1.291875">
        <ele>2208.000</ele>
        <time>2010-06-15T15:19:34Z</time>
      </trkpt>
      <trkpt lat="42.600716" lon="1.292873">
        <ele>2204.020</ele>
        <time>2010-06-15T15:21:25Z</time>
      </trkpt>
      <trkpt lat="42.599244" lon="1.293827">
        <ele>2212.006</ele>
        <time>2010-06-15T15:24:09Z</time>
      </trkpt>
      <trkpt lat="42.597227" lon="1.294431">
        <ele>2228.041</ele>
        <time>2010-06-15T15:27:34Z</time>
      </trkpt>
      <trkpt lat="42.595851" lon="1.295809">
        <ele>2229.078</ele>
        <time>2010-06-15T15:30:26Z</time>
      </trkpt>
      <trkpt lat="42.593775" lon="1.298486">
        <ele>2194.065</ele>
        <time>2010-06-15T15:35:13Z</time>
      </trkpt>
      <trkpt lat="42.592787" lon="1.298696">
        <ele>2184.073</ele>
        <time>2010-06-15T15:36:53Z</time>
      </trkpt>
      <trkpt lat="42.589906" lon="1.298713">
        <ele>2091.051</ele>
        <time>2010-06-15T15:41:41Z</time>
      </trkpt>
      <trkpt lat="42.592143" lon="1.300785">
        <ele>2061.023</ele>
        <time>2010-06-15T15:46:12Z</time>
      </trkpt>
      <trkpt lat="42.591654" lon="1.301225">
        <ele>2041.035</ele>
        <time>2010-06-15T15:47:11Z</time>
      </trkpt>
      <trkpt lat="42.590803" lon="1.301492">
        <ele>2026.086</ele>
        <time>2010-06-15T15:48:38Z</time>
      </trkpt>
      <trkpt lat="42.590045" lon="1.302000">
        <ele>1994.014</ele>
        <time>2010-06-15T15:50:03Z</time>
      </trkpt>
      <trkpt lat="42.590599" lon="1.302960">
        <ele>1943.006</ele>
        <time>2010-06-15T15:51:33Z</time>
      </trkpt>
      <trkpt lat="42.591374" lon="1.303548">
        <ele>1963.072</ele>
        <time>2010-06-15T15:53:01Z</time>
      </trkpt>
      <trkpt lat="42.590526" lon="1.304059">
        <ele>1905.069</ele>
        <time>2010-06-15T15:54:33Z</time>
      </trkpt>
      <trkpt lat="42.589851" lon="1.304138">
        <ele>1903.046</ele>
        <time>2010-06-15T15:55:42Z</time>
      </trkpt>
      <trkpt lat="42.589315" lon="1.304396">
        <ele>1894.024</ele>
        <time>2010-06-15T15:56:39Z</time>
      </trkpt>
      <trkpt lat="42.590639" lon="1.305640">
        <ele>1856.082</ele>
        <time>2010-06-15T15:59:20Z</time>
      </trkpt>
      <trkpt lat="42.590692" lon="1.306187">
        <ele>1829.024</ele>
        <time>2010-06-15T16:00:00Z</time>
      </trkpt>
      <trkpt lat="42.588948" lon="1.306966">
        <ele>1784.093</ele>
        <time>2010-06-15T16:03:04Z</time>
      </trkpt>
      <trkpt lat="42.589945" lon="1.307426">
        <ele>1766.065</ele>
        <time>2010-06-15T16:04:50Z</time>
      </trkpt>
      <trkpt lat="42.590540" lon="1.308080">
        <ele>1756.021</ele>
        <time>2010-06-15T16:06:06Z</time>
      </trkpt>
      <trkpt lat="42.590148" lon="1.309005">
        <ele>1739.006</ele>
        <time>2010-06-15T16:07:25Z</time>
      </trkpt>
      <trkpt lat="42.589897" lon="1.310291">
        <ele>1717.018</ele>
        <time>2010-06-15T16:09:03Z</time>
      </trkpt>
      <trkpt lat="42.589102" lon="1.311349">
        <ele>1711.025</ele>
        <time>2010-06-15T16:10:54Z</time>
      </trkpt>
      <trkpt lat="42.586258" lon="1.313863">
        <ele>1761.072</ele>
        <time>2010-06-15T16:16:33Z</time>
      </trkpt>
      <trkpt lat="42.586669" lon="1.314278">
        <ele>1752.080</ele>
        <time>2010-06-15T16:17:24Z</time>
      </trkpt>
      <trkpt lat="42.587891" lon="1.314733">
        <ele>1727.068</ele>
        <time>2010-06-15T16:19:32Z</time>
      </trkpt>
      <trkpt lat="42.588606" lon="1.314348">
        <ele>1708.010</ele>
        <time>2010-06-15T16:20:48Z</time>
      </trkpt>
      <trkpt lat="42.589600" lon="1.314565">
        <ele>1669.039</ele>
        <time>2010-06-15T16:22:30Z</time>
      </trkpt>
      <trkpt lat="42.590625" lon="1.313867">
        <ele>1638.001</ele>
        <time>2010-06-15T16:24:24Z</time>
      </trkpt>
      <trkpt lat="42.590145" lon="1.314916">
        <ele>1625.021</ele>
        <time>2010-06-15T16:25:55Z</time>
      </trkpt>
      <trkpt lat="42.590828" lon="1.315385">
        <ele>1587.006</ele>
        <time>2010-06-15T16:27:12Z</time>
      </trkpt>
      <trkpt lat="42.592903" lon="1.315634">
        <ele>1496.062</ele>
        <time>2010-06-15T16:30:40Z</time>
      </trkpt>
      <trkpt lat="42.593733" lon="1.316952">
        <ele>1452.049</ele>
        <time>2010-06-15T16:32:49Z</time>
      </trkpt>
      <trkpt lat="42.596524" lon="1.319985">
        <ele>1365.046</ele>
        <time>2010-06-15T16:38:46Z</time>
      </trkpt>
      <trkpt lat="42.597216" lon="1.321125">
        <ele>1331.074</ele>
        <time>2010-06-15T16:40:35Z</time>
      </trkpt>
      <trkpt lat="42.597832" lon="1.323241">
        <ele>1312.092</ele>
        <time>2010-06-15T16:43:23Z</time>
      </trkpt>
      <trkpt lat="42.599262" lon="1.322472">
        <ele>1305.094</ele>
        <time>2010-06-15T16:45:57Z</time>
      </trkpt>
      <trkpt lat="42.599984" lon="1.322574">
        <ele>1302.029</ele>
        <time>2010-06-15T16:47:09Z</time>
      </trkpt>
      <trkpt lat="42.601237" lon="1.322053">
        <ele>1303.000</ele>
        <time>2010-06-15T16:49:19Z</time>
      </trkpt>
      <trkpt lat="42.602767" lon="1.322012">
        <ele>1327.020</ele>
        <time>2010-06-15T16:51:54Z</time>
      </trkpt>
      <trkpt lat="42.604092" lon="1.323317">
        <ele>1335.006</ele>
        <time>2010-06-15T16:54:36Z</time>
      </trkpt>
      <trkpt lat="42.605260" lon="1.323164">
        <ele>1339.061</ele>
        <time>2010-06-15T16:56:34Z</time>
      </trkpt>
      <trkpt lat="42.605388" lon="1.322673">
        <ele>1337.098</ele>
        <time>2010-06-15T16:57:12Z</time>
      </trkpt>
      <trkpt lat="42.605405" lon="1.320722">
        <ele>1345.085</ele>
        <time>2010-06-15T16:59:37Z</time>
      </trkpt>
      <trkpt lat="42.606693" lon="1.319529">
        <ele>1373.093</ele>
        <time>2010-06-15T17:02:13Z</time>
      </trkpt>
      <trkpt lat="42.607328" lon="1.319817">
        <ele>1371.081</ele>
        <time>2010-06-15T17:03:20Z</time>
      </trkpt>
      <trkpt lat="42.608136" lon="1.319673">
        <ele>1378.083</ele>
        <time>2010-06-15T17:04:41Z</time>
      </trkpt>
      <trkpt lat="42.608754" lon="1.318803">
        <ele>1399.082</ele>
        <time>2010-06-15T17:06:10Z</time>
      </trkpt>
      <trkpt lat="42.609659" lon="1.319145">
        <ele>1405.043</ele>
        <time>2010-06-15T17:07:44Z</time>
      </trkpt>
      <trkpt lat="42.611297" lon="1.320259">
        <ele>1395.017</ele>
        <time>2010-06-15T17:10:47Z</time>
      </trkpt>
      <trkpt lat="42.612196" lon="1.320174">
        <ele>1407.006</ele>
        <time>2010-06-15T17:12:18Z</time>
      </trkpt>
      <trkpt lat="42.613289" lon="1.321059">
        <ele>1407.077</ele>
        <time>2010-06-15T17:14:24Z</time>
      </trkpt>
      <trkpt lat="42.613574" lon="1.322027">
        <ele>1415.024</ele>
        <time>2010-06-15T17:15:42Z</time>
      </trkpt>
      <trkpt lat="42.616953" lon="1.322180">
        <ele>1434.051</ele>
        <time>2010-06-15T17:21:19Z</time>
      </trkpt>
      <trkpt lat="42.617544" lon="1.322530">
        <ele>1436.049</ele>
        <time>2010-06-15T17:22:24Z</time>
      </trkpt>
      <trkpt lat="42.617964" lon="1.323555">
        <ele>1445.047</ele>
        <time>2010-06-15T17:23:50Z</time>
      </trkpt>
      <trkpt lat="42.618470" lon="1.324334">
        <ele>1451.019</ele>
        <time>2010-06-15T17:25:07Z</time>
      </trkpt>
      <trkpt lat="42.618431" lon="1.327810">
        <ele>1521.089</ele>
        <time>2010-06-15T17:29:23Z</time>
      </trkpt>
      <trkpt lat="42.618612" lon="1.330914">
        <ele>1574.006</ele>
        <time>2010-06-15T17:33:12Z</time>
      </trkpt>
      <trkpt lat="42.619169" lon="1.332119">
        <ele>1577.026</ele>
        <time>2010-06-15T17:34:58Z</time>
      </trkpt>
      <trkpt lat="42.619290" lon="1.334249">
        <ele>1588.006</ele>
        <time>2010-06-15T17:37:35Z</time>
      </trkpt>
      <trkpt lat="42.620281" lon="1.337332">
        <ele>1604.057</ele>
        <time>2010-06-15T17:41:43Z</time>
      </trkpt>
      <trkpt lat="42.620309" lon="1.339282">
        <ele>1629.044</ele>
        <time>2010-06-15T17:44:07Z</time>
      </trkpt>
      <trkpt lat="42.619843" lon="1.338197">
        <ele>1639.071</ele>
        <time>2010-06-15T17:45:39Z</time>
      </trkpt>
      <trkpt lat="42.618840" lon="1.337371">
        <ele>1658.059</ele>
        <time>2010-06-15T17:47:37Z</time>
      </trkpt>
      <trkpt lat="42.619404" lon="1.339002">
        <ele>1656.047</ele>
        <time>2010-06-15T17:49:49Z</time>
      </trkpt>
      <trkpt lat="42.618973" lon="1.340293">
        <ele>1697.099</ele>
        <time>2010-06-15T17:51:34Z</time>
      </trkpt>
      <trkpt lat="42.619707" lon="1.341249">
        <ele>1685.038</ele>
        <time>2010-06-15T17:53:14Z</time>
      </trkpt>
      <trkpt lat="42.620481" lon="1.341839">
        <ele>1682.070</ele>
        <time>2010-06-15T17:54:44Z</time>
      </trkpt>
      <trkpt lat="42.621034" lon="1.342677">
        <ele>1685.017</ele>
        <time>2010-06-15T17:56:06Z</time>
      </trkpt>
      <trkpt lat="42.621050" lon="1.343835">
        <ele>1688.006</ele>
        <time>2010-06-15T17:57:32Z</time>
      </trkpt>
      <trkpt lat="42.621663" lon="1.345709">
        <ele>1692.092</ele>
        <time>2010-06-15T18:00:02Z</time>
      </trkpt>
      <trkpt lat="42.622000" lon="1.347224">
        <ele>1686.099</ele>
        <time>2010-06-15T18:02:00Z</time>
      </trkpt>
      <trkpt lat="42.622704" lon="1.349218">
        <ele>1653.046</ele>
        <time>2010-06-15T18:04:42Z</time>
      </trkpt>
      <trkpt lat="42.623711" lon="1.353459">
        <ele>1712.064</ele>
        <time>2010-06-15T18:10:10Z</time>
      </trkpt>
      <trkpt lat="42.624392" lon="1.353868">
        <ele>1711.022</ele>
        <time>2010-06-15T18:11:26Z</time>
      </trkpt>
      <trkpt lat="42.625309" lon="1.355002">
        <ele>1725.054</ele>
        <time>2010-06-15T18:13:29Z</time>
      </trkpt>
      <trkpt lat="42.625726" lon="1.355845">
        <ele>1701.076</ele>
        <time>2010-06-15T18:14:44Z</time>
      </trkpt>
      <trkpt lat="42.625783" lon="1.356697">
        <ele>1725.090</ele>
        <time>2010-06-15T18:15:47Z</time>
      </trkpt>
      <trkpt lat="42.625483" lon="1.357742">
        <ele>1786.019</ele>
        <time>2010-06-15T18:17:10Z</time>
      </trkpt>
      <trkpt lat="42.625942" lon="1.358339">
        <ele>1783.006</ele>
        <time>2010-06-15T18:18:14Z</time>
      </trkpt>
      <trkpt lat="42.626267" lon="1.359001">
        <ele>1745.016</ele>
        <time>2010-06-15T18:19:11Z</time>
      </trkpt>
      <trkpt lat="42.626291" lon="1.360708">
        <ele>1727.033</ele>
        <time>2010-06-15T18:21:17Z</time>
      </trkpt>
      <trkpt lat="42.626930" lon="1.361301">
        <ele>1679.040</ele>
        <time>2010-06-15T18:22:35Z</time>
      </trkpt>
      <trkpt lat="42.626245" lon="1.363758">
        <ele>1770.028</ele>
        <time>2010-06-15T18:25:49Z</time>
      </trkpt>
      <trkpt lat="42.626267" lon="1.365343">
        <ele>1741.086</ele>
        <time>2010-06-15T18:27:44Z</time>
      </trkpt>
      <trkpt lat="42.625717" lon="1.370966">
        <ele>1759.028</ele>
        <time>2010-06-15T18:34:43Z</time>
      </trkpt>
      <trkpt lat="42.625746" lon="1.373039">
        <ele>1761.094</ele>
        <time>2010-06-15T18:37:15Z</time>
      </trkpt>
      <trkpt lat="42.625509" lon="1.378532">
        <ele>1759.057</ele>
        <time>2010-06-15T18:44:01Z</time>
      </trkpt>
      <trkpt lat="42.625041" lon="1.380496">
        <ele>1773.022</ele>
        <time>2010-06-15T18:46:33Z</time>
      </trkpt>
      <trkpt lat="42.624474" lon="1.381730">
        <ele>1795.006</ele>
        <time>2010-06-15T18:48:19Z</time>
      </trkpt>
      <trkpt lat="42.623984" lon="1.382169">
        <ele>1820.038</ele>
        <time>2010-06-15T18:49:18Z</time>
      </trkpt>
      <trkpt lat="42.623019" lon="1.383962">
        <ele>1834.025</ele>
        <time>2010-06-15T18:52:02Z</time>
      </trkpt>
      <trkpt lat="42.623126" lon="1.385179">
        <ele>1832.052</ele>
        <time>2010-06-15T18:53:33Z</time>
      </trkpt>
      <trkpt lat="42.622504" lon="1.385744">
        <ele>1844.010</ele>
        <time>2010-06-15T18:54:48Z</time>
      </trkpt>
      <trkpt lat="42.621871" lon="1.385577">
        <ele>1866.078</ele>
        <time>2010-06-15T18:55:51Z</time>
      </trkpt>
      <trkpt lat="42.621068" lon="1.386086">
        <ele>1864.060</ele>
        <time>2010-06-15T18:57:21Z</time>
      </trkpt>
      <trkpt lat="42.620537" lon="1.386770">
        <ele>1857.051</ele>
        <time>2010-06-15T18:58:34Z</time>
      </trkpt>
      <trkpt lat="42.619454" lon="1.386554">
        <ele>1879.001</ele>
        <time>2010-06-15T19:00:24Z</time>
      </trkpt>
      <trkpt lat="42.618829" lon="1.386936">
        <ele>1887.011</ele>
        <time>2010-06-15T19:01:32Z</time>
      </trkpt>
      <trkpt lat="42.615960" lon="1.391073">
        <ele>1921.006</ele>
        <time>2010-06-15T19:08:31Z</time>
      </trkpt>
      <trkpt lat="42.613592" lon="1.392414">
        <ele>1994.054</ele>
        <time>2010-06-15T19:12:47Z</time>
      </trkpt>
      <trkpt lat="42.611694" lon="1.395145">
        <ele>2025.061</ele>
        <time>2010-06-15T19:17:24Z</time>
      </trkpt>
      <trkpt lat="42.611491" lon="1.396674">
        <ele>2026.018</ele>
        <time>2010-06-15T19:19:19Z</time>
      </trkpt>
      <trkpt lat="42.611605" lon="1.401609">
        <ele>2077.056</ele>
        <time>2010-06-15T19:25:22Z</time>
      </trkpt>
      <trkpt lat="42.611060" lon="1.404549">
        <ele>2118.054</ele>
        <time>2010-06-15T19:29:06Z</time>
      </trkpt>
      <trkpt lat="42.610012" lon="1.406892">
        <ele>2148.086</ele>
        <time>2010-06-15T19:32:27Z</time>
      </trkpt>
      <trkpt lat="42.610080" lon="1.408536">
        <ele>2151.054</ele>
        <time>2010-06-15T19:34:29Z</time>
      </trkpt>
      <trkpt lat="42.610559" lon="1.410596">
        <ele>2199.056</ele>
        <time>2010-06-15T19:37:08Z</time>
      </trkpt>
      <trkpt lat="42.610501" lon="1.412914">
        <ele>2269.011</ele>
        <time>2010-06-15T19:39:59Z</time>
      </trkpt>
      <trkpt lat="42.609905" lon="1.415368">
        <ele>2296.006</ele>
        <time>2010-06-15T19:43:08Z</time>
      </trkpt>
      <trkpt lat="42.608895" lon="1.417283">
        <ele>2295.034</ele>
        <time>2010-06-15T19:46:03Z</time>
      </trkpt>
      <trkpt lat="42.606501" lon="1.418867">
        <ele>2318.091</ele>
        <time>2010-06-15T19:50:28Z</time>
      </trkpt>
      <trkpt lat="42.602794" lon="1.422171">
        <ele>2364.048</ele>
        <time>2010-06-15T19:57:53Z</time>
      </trkpt>
      <trkpt lat="42.601847" lon="1.425304">
        <ele>2403.026</ele>
        <time>2010-06-15T20:02:02Z</time>
      </trkpt>
      <trkpt lat="42.601092" lon="1.426115">
        <ele>2411.094</ele>
        <time>2010-06-15T20:03:39Z</time>
      </trkpt>
      <trkpt lat="42.599790" lon="1.426391">
        <ele>2435.096</ele>
        <time>2010-06-15T20:05:50Z</time>
      </trkpt>
      <trkpt lat="42.598631" lon="1.427213">
        <ele>2458.021</ele>
        <time>2010-06-15T20:08:00Z</time>
      </trkpt>
      <trkpt lat="42.597927" lon="1.428389">
        <ele>2476.041</ele>
        <time>2010-06-15T20:09:53Z</time>
      </trkpt>
      <trkpt lat="42.597809" lon="1.429671">
        <ele>2496.005</ele>
        <time>2010-06-15T20:11:28Z</time>
      </trkpt>
      <trkpt lat="42.598164" lon="1.432588">
        <ele>2506.006</ele>
        <time>2010-06-15T20:15:05Z</time>
      </trkpt>
      <trkpt lat="42.597592" lon="1.433577">
        <ele>2535.081</ele>
        <time>2010-06-15T20:16:39Z</time>
      </trkpt>
      <trkpt lat="42.595082" lon="1.434372">
        <ele>2558.048</ele>
        <time>2010-06-15T20:20:55Z</time>
      </trkpt>
      <trkpt lat="42.594067" lon="1.435920">
        <ele>2616.035</ele>
        <time>2010-06-15T20:23:28Z</time>
      </trkpt>
      <trkpt lat="42.590178" lon="1.437968">
        <ele>2684.083</ele>
        <time>2010-06-15T20:30:27Z</time>
      </trkpt>
      <trkpt lat="42.589020" lon="1.438911">
        <ele>2685.051</ele>
        <time>2010-06-15T20:32:42Z</time>
      </trkpt>
      <trkpt lat="42.587160" lon="1.437921">
        <ele>2664.063</ele>
        <time>2010-06-15T20:36:01Z</time>
      </trkpt>
      <trkpt lat="42.585490" lon="1.437597">
        <ele>2641.076</ele>
        <time>2010-06-15T20:38:50Z</time>
      </trkpt>
      <trkpt lat="42.584893" lon="1.436759">
        <ele>2614.090</ele>
        <time>2010-06-15T20:40:16Z</time>
      </trkpt>
      <trkpt lat="42.583711" lon="1.435936">
        <ele>2546.019</ele>
        <time>2010-06-15T20:42:28Z</time>
      </trkpt>
      <trkpt lat="42.582943" lon="1.435711">
        <ele>2511.006</ele>
        <time>2010-06-15T20:43:48Z</time>
      </trkpt>
      <trkpt lat="42.582548" lon="1.436513">
        <ele>2465.066</ele>
        <time>2010-06-15T20:44:58Z</time>
      </trkpt>
      <trkpt lat="42.582476" lon="1.437794">
        <ele>2430.043</ele>
        <time>2010-06-15T20:46:33Z</time>
      </trkpt>
      <trkpt lat="42.581486" lon="1.437819">
        <ele>2360.070</ele>
        <time>2010-06-15T20:48:12Z</time>
      </trkpt>
      <trkpt lat="42.580599" lon="1.438816">
        <ele>2298.038</ele>
        <time>2010-06-15T20:50:08Z</time>
      </trkpt>
      <trkpt lat="42.580122" lon="1.440168">
        <ele>2274.096</ele>
        <time>2010-06-15T20:51:58Z</time>
      </trkpt>
      <trkpt lat="42.580201" lon="1.442725">
        <ele>2254.078</ele>
        <time>2010-06-15T20:55:06Z</time>
      </trkpt>
      <trkpt lat="42.579905" lon="1.444134">
        <ele>2249.067</ele>
        <time>2010-06-15T20:56:54Z</time>
      </trkpt>
      <trkpt lat="42.580221" lon="1.447477">
        <ele>2219.081</ele>
        <time>2010-06-15T21:01:02Z</time>
      </trkpt>
      <trkpt lat="42.580861" lon="1.448193">
        <ele>2216.019</ele>
        <time>2010-06-15T21:02:25Z</time>
      </trkpt>
      <trkpt lat="42.581712" lon="1.451218">
        <ele>2204.006</ele>
        <time>2010-06-15T21:06:24Z</time>
      </trkpt>
      <trkpt lat="42.581794" lon="1.453897">
        <ele>2074.085</ele>
        <time>2010-06-15T21:09:43Z</time>
      </trkpt>
      <trkpt lat="42.581407" lon="1.455247">
        <ele>2043.042</ele>
        <time>2010-06-15T21:11:28Z</time>
      </trkpt>
      <trkpt lat="42.581207" lon="1.457141">
        <ele>2025.069</ele>
        <time>2010-06-15T21:13:50Z</time>
      </trkpt>
      <trkpt lat="42.581698" lon="1.460175">
        <ele>1952.087</ele>
        <time>2010-06-15T21:17:39Z</time>
      </trkpt>
      <trkpt lat="42.581668" lon="1.461273">
        <ele>1944.015</ele>
        <time>2010-06-15T21:19:00Z</time>
      </trkpt>
      <trkpt lat="42.582088" lon="1.462420">
        <ele>1891.067</ele>
        <time>2010-06-15T21:20:34Z</time>
      </trkpt>
      <trkpt lat="42.582002" lon="1.463985">
        <ele>1879.017</ele>
        <time>2010-06-15T21:22:29Z</time>
      </trkpt>
      <trkpt lat="42.582217" lon="1.463971">
        <ele>1863.087</ele>
        <time>2010-06-15T21:22:51Z</time>
      </trkpt>
      <trkpt lat="42.582133" lon="1.464332">
        <ele>1854.015</ele>
        <time>2010-06-15T21:23:20Z</time>
      </trkpt>
      <trkpt lat="42.582366" lon="1.464189">
        <ele>1844.006</ele>
        <time>2010-06-15T21:23:45Z</time>
      </trkpt>
      <trkpt lat="42.582668" lon="1.464370">
        <ele>1824.060</ele>
        <time>2010-06-15T21:24:17Z</time>
      </trkpt>
      <trkpt lat="42.582678" lon="1.464700">
        <ele>1816.017</ele>
        <time>2010-06-15T21:24:42Z</time>
      </trkpt>
      <trkpt lat="42.582575" lon="1.464774">
        <ele>1831.014</ele>
        <time>2010-06-15T21:24:54Z</time>
      </trkpt>
      <trkpt lat="42.582953" lon="1.464936">
        <ele>1798.012</ele>
        <time>2010-06-15T21:25:33Z</time>
      </trkpt>
      <trkpt lat="42.582928" lon="1.465211">
        <ele>1792.070</ele>
        <time>2010-06-15T21:25:54Z</time>
      </trkpt>
      <trkpt lat="42.583145" lon="1.464581">
        <ele>1814.082</ele>
        <time>2010-06-15T21:26:45Z</time>
      </trkpt>
      <trkpt lat="42.583916" lon="1.465167">
        <ele>1788.076</ele>
        <time>2010-06-15T21:28:14Z</time>
      </trkpt>
      <trkpt lat="42.583782" lon="1.465351">
        <ele>1788.090</ele>
        <time>2010-06-15T21:28:32Z</time>
      </trkpt>
      <trkpt lat="42.583736" lon="1.466831">
        <ele>1755.019</ele>
        <time>2010-06-15T21:30:22Z</time>
      </trkpt>
      <trkpt lat="42.584068" lon="1.467665">
        <ele>1746.006</ele>
        <time>2010-06-15T21:31:32Z</time>
      </trkpt>
      <trkpt lat="42.583798" lon="1.467710">
        <ele>1737.096</ele>
        <time>2010-06-15T21:31:59Z</time>
      </trkpt>
      <trkpt lat="42.583776" lon="1.468882">
        <ele>1744.073</ele>
        <time>2010-06-15T21:33:26Z</time>
      </trkpt>
      <trkpt lat="42.583450" lon="1.469482">
        <ele>1740.050</ele>
        <time>2010-06-15T21:34:20Z</time>
      </trkpt>
      <trkpt lat="42.582955" lon="1.470550">
        <ele>1746.048</ele>
        <time>2010-06-15T21:35:54Z</time>
      </trkpt>
      <trkpt lat="42.581562" lon="1.471915">
        <ele>1687.096</ele>
        <time>2010-06-15T21:38:46Z</time>
      </trkpt>
      <trkpt lat="42.581220" lon="1.472738">
        <ele>1665.048</ele>
        <time>2010-06-15T21:39:55Z</time>
      </trkpt>
      <trkpt lat="42.581357" lon="1.473384">
        <ele>1677.043</ele>
        <time>2010-06-15T21:40:44Z</time>
      </trkpt>
      <trkpt lat="42.581101" lon="1.474502">
        <ele>1657.064</ele>
        <time>2010-06-15T21:42:10Z</time>
      </trkpt>
      <trkpt lat="42.581400" lon="1.476319">
        <ele>1645.010</ele>
        <time>2010-06-15T21:44:27Z</time>
      </trkpt>
      <trkpt lat="42.580581" lon="1.478369">
        <ele>1602.006</ele>
        <time>2010-06-15T21:47:19Z</time>
      </trkpt>
      <trkpt lat="42.580507" lon="1.479084">
        <ele>1612.013</ele>
        <time>2010-06-15T21:48:13Z</time>
      </trkpt>
      <trkpt lat="42.580167" lon="1.479428">
        <ele>1605.060</ele>
        <time>2010-06-15T21:48:56Z</time>
      </trkpt>
      <trkpt lat="42.579640" lon="1.479004">
        <ele>1587.087</ele>
        <time>2010-06-15T21:49:56Z</time>
      </trkpt>
      <trkpt lat="42.579499" lon="1.478560">
        <ele>1579.025</ele>
        <time>2010-06-15T21:50:33Z</time>
      </trkpt>
      <trkpt lat="42.579520" lon="1.478273">
        <ele>1576.093</ele>
        <time>2010-06-15T21:50:54Z</time>
      </trkpt>
      <trkpt lat="42.579627" lon="1.478028">
        <ele>1578.055</ele>
        <time>2010-06-15T21:51:14Z</time>
      </trkpt>
      <trkpt lat="42.579318" lon="1.477212">
        <ele>1572.051</ele>
        <time>2010-06-15T21:52:21Z</time>
      </trkpt>
      <trkpt lat="42.579025" lon="1.476812">
        <ele>1574.001</ele>
        <time>2010-06-15T21:53:03Z</time>
      </trkpt>
      <trkpt lat="42.578041" lon="1.479475">
        <ele>1561.011</ele>
        <time>2010-06-15T21:56:44Z</time>
      </trkpt>
      <trkpt lat="42.577308" lon="1.480664">
        <ele>1537.006</ele>
        <time>2010-06-15T21:58:37Z</time>
      </trkpt>
      <trkpt lat="42.576528" lon="1.481121">
        <ele>1525.094</ele>
        <time>2010-06-15T22:00:03Z</time>
      </trkpt>
      <trkpt lat="42.575842" lon="1.481437">
        <ele>1510.021</ele>
        <time>2010-06-15T22:01:15Z</time>
      </trkpt>
      <trkpt lat="42.575388" lon="1.481361">
        <ele>1502.068</ele>
        <time>2010-06-15T22:02:01Z</time>
      </trkpt>
      <trkpt lat="42.575061" lon="1.481490">
        <ele>1499.096</ele>
        <time>2010-06-15T22:02:34Z</time>
      </trkpt>
      <trkpt lat="42.575055" lon="1.481498">
        <ele>1499.054</ele>
        <time>2010-06-15T22:02:36Z</time>
      </trkpt>
      <trkpt lat="42.574632" lon="1.481833">
        <ele>1491.066</ele>
        <time>2010-06-15T22:03:25Z</time>
      </trkpt>
      <trkpt lat="42.573376" lon="1.483295">
        <ele>1479.068</ele>
        <time>2010-06-15T22:06:11Z</time>
      </trkpt>
      <trkpt lat="42.573165" lon="1.483695">
        <ele>1478.042</ele>
        <time>2010-06-15T22:06:47Z</time>
      </trkpt>
      <trkpt lat="42.571979" lon="1.483918">
        <ele>1468.026</ele>
        <time>2010-06-15T22:08:47Z</time>
      </trkpt>
      <trkpt lat="42.571276" lon="1.485892">
        <ele>1458.006</ele>
        <time>2010-06-15T22:11:28Z</time>
      </trkpt>
      <trkpt lat="42.570981" lon="1.486275">
        <ele>1454.025</ele>
        <time>2010-06-15T22:12:09Z</time>
      </trkpt>
      <trkpt lat="42.570989" lon="1.486531">
        <ele>1456.012</ele>
        <time>2010-06-15T22:12:28Z</time>
      </trkpt>
      <trkpt lat="42.570783" lon="1.486782">
        <ele>1449.059</ele>
        <time>2010-06-15T22:12:55Z</time>
      </trkpt>
      <trkpt lat="42.570661" lon="1.487192">
        <ele>1446.037</ele>
        <time>2010-06-15T22:13:28Z</time>
      </trkpt>
      <trkpt lat="42.570372" lon="1.488481">
        <ele>1455.035</ele>
        <time>2010-06-15T22:15:07Z</time>
      </trkpt>
      <trkpt lat="42.569532" lon="1.489499">
        <ele>1454.057</ele>
        <time>2010-06-15T22:16:59Z</time>
      </trkpt>
      <trkpt lat="42.569502" lon="1.490526">
        <ele>1475.086</ele>
        <time>2010-06-15T22:18:15Z</time>
      </trkpt>
      <trkpt lat="42.569426" lon="1.490751">
        <ele>1481.060</ele>
        <time>2010-06-15T22:18:34Z</time>
      </trkpt>
      <trkpt lat="42.569178" lon="1.490713">
        <ele>1476.026</ele>
        <time>2010-06-15T22:18:58Z</time>
      </trkpt>
      <trkpt lat="42.568000" lon="1.491461">
        <ele>1481.006</ele>
        <time>2010-06-15T22:21:09Z</time>
      </trkpt>
      <trkpt lat="42.568208" lon="1.491628">
        <ele>1495.037</ele>
        <time>2010-06-15T22:21:34Z</time>
      </trkpt>
      <trkpt lat="42.569051" lon="1.491356">
        <ele>1490.024</ele>
        <time>2010-06-15T22:23:00Z</time>
      </trkpt>
      <trkpt lat="42.569516" lon="1.491471">
        <ele>1494.061</ele>
        <time>2010-06-15T22:23:48Z</time>
      </trkpt>
      <trkpt lat="42.569955" lon="1.491860">
        <ele>1519.079</ele>
        <time>2010-06-15T22:24:40Z</time>
      </trkpt>
      <trkpt lat="42.570144" lon="1.491859">
        <ele>1522.057</ele>
        <time>2010-06-15T22:24:59Z</time>
      </trkpt>
      <trkpt lat="42.570285" lon="1.491793">
        <ele>1514.019</ele>
        <time>2010-06-15T22:25:14Z</time>
      </trkpt>
      <trkpt lat="42.570353" lon="1.491223">
        <ele>1504.037</ele>
        <time>2010-06-15T22:25:55Z</time>
      </trkpt>
      <trkpt lat="42.570531" lon="1.491382">
        <ele>1517.049</ele>
        <time>2010-06-15T22:26:17Z</time>
      </trkpt>
      <trkpt lat="42.570545" lon="1.491735">
        <ele>1521.013</ele>
        <time>2010-06-15T22:26:44Z</time>
      </trkpt>
      <trkpt lat="42.571270" lon="1.492819">
        <ele>1562.006</ele>
        <time>2010-06-15T22:28:31Z</time>
      </trkpt>
      <trkpt lat="42.571731" lon="1.492927">
        <ele>1573.032</ele>
        <time>2010-06-15T22:29:19Z</time>
      </trkpt>
      <trkpt lat="42.572124" lon="1.493541">
        <ele>1596.059</ele>
        <time>2010-06-15T22:30:18Z</time>
      </trkpt>
      <trkpt lat="42.572479" lon="1.493683">
        <ele>1603.056</ele>
        <time>2010-06-15T22:30:56Z</time>
      </trkpt>
      <trkpt lat="42.572203" lon="1.493990">
        <ele>1604.094</ele>
        <time>2010-06-15T22:31:31Z</time>
      </trkpt>
      <trkpt lat="42.572649" lon="1.494643">
        <ele>1648.072</ele>
        <time>2010-06-15T22:32:36Z</time>
      </trkpt>
      <trkpt lat="42.571674" lon="1.494564">
        <ele>1638.074</ele>
        <time>2010-06-15T22:34:15Z</time>
      </trkpt>
      <trkpt lat="42.571605" lon="1.494965">
        <ele>1667.033</ele>
        <time>2010-06-15T22:34:45Z</time>
      </trkpt>
      <trkpt lat="42.572419" lon="1.496081">
        <ele>1712.023</ele>
        <time>2010-06-15T22:36:40Z</time>
      </trkpt>
      <trkpt lat="42.572632" lon="1.496701">
        <ele>1749.015</ele>
        <time>2010-06-15T22:37:31Z</time>
      </trkpt>
      <trkpt lat="42.572952" lon="1.496883">
        <ele>1755.006</ele>
        <time>2010-06-15T22:38:06Z</time>
      </trkpt>
      <trkpt lat="42.572954" lon="1.497268">
        <ele>1770.052</ele>
        <time>2010-06-15T22:38:34Z</time>
      </trkpt>
      <trkpt lat="42.573179" lon="1.497474">
        <ele>1785.089</ele>
        <time>2010-06-15T22:39:00Z</time>
      </trkpt>
      <trkpt lat="42.573557" lon="1.497447">
        <ele>1785.036</ele>
        <time>2010-06-15T22:39:38Z</time>
      </trkpt>
      <trkpt lat="42.573635" lon="1.497671">
        <ele>1799.054</ele>
        <time>2010-06-15T22:39:57Z</time>
      </trkpt>
      <trkpt lat="42.573518" lon="1.497961">
        <ele>1814.082</ele>
        <time>2010-06-15T22:40:21Z</time>
      </trkpt>
      <trkpt lat="42.573596" lon="1.498128">
        <ele>1814.014</ele>
        <time>2010-06-15T22:40:37Z</time>
      </trkpt>
      <trkpt lat="42.574668" lon="1.497614">
        <ele>1826.013</ele>
        <time>2010-06-15T22:42:30Z</time>
      </trkpt>
      <trkpt lat="42.574987" lon="1.497667">
        <ele>1847.043</ele>
        <time>2010-06-15T22:43:02Z</time>
      </trkpt>
      <trkpt lat="42.574995" lon="1.498036">
        <ele>1857.007</ele>
        <time>2010-06-15T22:43:29Z</time>
      </trkpt>
      <trkpt lat="42.575297" lon="1.498130">
        <ele>1871.006</ele>
        <time>2010-06-15T22:44:01Z</time>
      </trkpt>
      <trkpt lat="42.575157" lon="1.498484">
        <ele>1897.060</ele>
        <time>2010-06-15T22:44:30Z</time>
      </trkpt>
      <trkpt lat="42.575335" lon="1.498763">
        <ele>1910.017</ele>
        <time>2010-06-15T22:44:57Z</time>
      </trkpt>
      <trkpt lat="42.575248" lon="1.499028">
        <ele>1921.064</ele>
        <time>2010-06-15T22:45:19Z</time>
      </trkpt>
      <trkpt lat="42.575479" lon="1.499155">
        <ele>1928.052</ele>
        <time>2010-06-15T22:45:44Z</time>
      </trkpt>
      <trkpt lat="42.575362" lon="1.499444">
        <ele>1930.030</ele>
        <time>2010-06-15T22:46:07Z</time>
      </trkpt>
      <trkpt lat="42.575800" lon="1.499641">
        <ele>1944.022</ele>
        <time>2010-06-15T22:46:54Z</time>
      </trkpt>
      <trkpt lat="42.576037" lon="1.499937">
        <ele>1948.053</ele>
        <time>2010-06-15T22:47:26Z</time>
      </trkpt>
      <trkpt lat="42.576132" lon="1.500334">
        <ele>1949.004</ele>
        <time>2010-06-15T22:47:57Z</time>
      </trkpt>
      <trkpt lat="42.576696" lon="1.500696">
        <ele>1942.014</ele>
        <time>2010-06-15T22:49:00Z</time>
      </trkpt>
      <trkpt lat="42.577038" lon="1.501196">
        <ele>1932.006</ele>
        <time>2010-06-15T22:49:50Z</time>
      </trkpt>
      <trkpt lat="42.577619" lon="1.503224">
        <ele>1848.054</ele>
        <time>2010-06-15T22:52:29Z</time>
      </trkpt>
      <trkpt lat="42.577569" lon="1.504094">
        <ele>1829.011</ele>
        <time>2010-06-15T22:53:35Z</time>
      </trkpt>
      <trkpt lat="42.577734" lon="1.504826">
        <ele>1815.028</ele>
        <time>2010-06-15T22:54:30Z</time>
      </trkpt>
      <trkpt lat="42.578044" lon="1.505211">
        <ele>1803.036</ele>
        <time>2010-06-15T22:55:13Z</time>
      </trkpt>
      <trkpt lat="42.578090" lon="1.505148">
        <ele>1803.024</ele>
        <time>2010-06-15T22:55:19Z</time>
      </trkpt>
      <trkpt lat="42.578030" lon="1.505536">
        <ele>1794.046</ele>
        <time>2010-06-15T22:55:49Z</time>
      </trkpt>
      <trkpt lat="42.578312" lon="1.506445">
        <ele>1769.042</ele>
        <time>2010-06-15T22:57:02Z</time>
      </trkpt>
      <trkpt lat="42.578312" lon="1.508016">
        <ele>1718.022</ele>
        <time>2010-06-15T22:58:57Z</time>
      </trkpt>
      <trkpt lat="42.578220" lon="1.508216">
        <ele>1705.014</ele>
        <time>2010-06-15T22:59:15Z</time>
      </trkpt>
      <trkpt lat="42.578074" lon="1.508270">
        <ele>1701.006</ele>
        <time>2010-06-15T22:59:29Z</time>
      </trkpt>
      <trkpt lat="42.578122" lon="1.508668">
        <ele>1687.063</ele>
        <time>2010-06-15T22:59:59Z</time>
      </trkpt>
      <trkpt lat="42.577883" lon="1.508733">
        <ele>1686.060</ele>
        <time>2010-06-15T23:00:23Z</time>
      </trkpt>
      <trkpt lat="42.578187" lon="1.509306">
        <ele>1631.097</ele>
        <time>2010-06-15T23:01:16Z</time>
      </trkpt>
      <trkpt lat="42.578174" lon="1.509904">
        <ele>1605.025</ele>
        <time>2010-06-15T23:01:59Z</time>
      </trkpt>
      <trkpt lat="42.578228" lon="1.509788">
        <ele>1616.043</ele>
        <time>2010-06-15T23:02:10Z</time>
      </trkpt>
      <trkpt lat="42.578597" lon="1.510926">
        <ele>1523.075</ele>
        <time>2010-06-15T23:03:42Z</time>
      </trkpt>
      <trkpt lat="42.578586" lon="1.511827">
        <ele>1532.097</ele>
        <time>2010-06-15T23:04:47Z</time>
      </trkpt>
      <trkpt lat="42.579689" lon="1.513462">
        <ele>1428.023</ele>
        <time>2010-06-15T23:07:31Z</time>
      </trkpt>
      <trkpt lat="42.579753" lon="1.513923">
        <ele>1434.025</ele>
        <time>2010-06-15T23:08:05Z</time>
      </trkpt>
      <trkpt lat="42.580053" lon="1.513836">
        <ele>1430.006</ele>
        <time>2010-06-15T23:08:37Z</time>
      </trkpt>
      <trkpt lat="42.580567" lon="1.513088">
        <ele>1450.098</ele>
        <time>2010-06-15T23:09:51Z</time>
      </trkpt>
      <trkpt lat="42.580900" lon="1.513337">
        <ele>1448.025</ele>
        <time>2010-06-15T23:10:30Z</time>
      </trkpt>
      <trkpt lat="42.580607" lon="1.513476">
        <ele>1436.052</ele>
        <time>2010-06-15T23:11:00Z</time>
      </trkpt>
      <trkpt lat="42.580978" lon="1.513598">
        <ele>1446.020</ele>
        <time>2010-06-15T23:11:40Z</time>
      </trkpt>
      <trkpt lat="42.580879" lon="1.513892">
        <ele>1435.068</ele>
        <time>2010-06-15T23:12:03Z</time>
      </trkpt>
      <trkpt lat="42.581367" lon="1.514297">
        <ele>1446.020</ele>
        <time>2010-06-15T23:13:01Z</time>
      </trkpt>
      <trkpt lat="42.581567" lon="1.514107">
        <ele>1455.023</ele>
        <time>2010-06-15T23:13:25Z</time>
      </trkpt>
      <trkpt lat="42.581807" lon="1.514262">
        <ele>1468.083</ele>
        <time>2010-06-15T23:13:52Z</time>
      </trkpt>
      <trkpt lat="42.581962" lon="1.514585">
        <ele>1458.011</ele>
        <time>2010-06-15T23:14:20Z</time>
      </trkpt>
      <trkpt lat="42.582044" lon="1.515507">
        <ele>1436.006</ele>
        <time>2010-06-15T23:15:29Z</time>
      </trkpt>
      <trkpt lat="42.581851" lon="1.515540">
        <ele>1436.071</ele>
        <time>2010-06-15T23:15:48Z</time>
      </trkpt>
      <trkpt lat="42.581837" lon="1.515854">
        <ele>1425.078</ele>
        <time>2010-06-15T23:16:10Z</time>
      </trkpt>
      <trkpt lat="42.582211" lon="1.516574">
        <ele>1398.025</ele>
        <time>2010-06-15T23:17:16Z</time>
      </trkpt>
      <trkpt lat="42.582660" lon="1.516958">
        <ele>1402.043</ele>
        <time>2010-06-15T23:18:08Z</time>
      </trkpt>
      <trkpt lat="42.581697" lon="1.517249">
        <ele>1379.051</ele>
        <time>2010-06-15T23:19:48Z</time>
      </trkpt>
      <trkpt lat="42.581821" lon="1.517499">
        <ele>1375.053</ele>
        <time>2010-06-15T23:20:09Z</time>
      </trkpt>
      <trkpt lat="42.582438" lon="1.517484">
        <ele>1378.089</ele>
        <time>2010-06-15T23:21:11Z</time>
      </trkpt>
      <trkpt lat="42.582231" lon="1.519309">
        <ele>1357.006</ele>
        <time>2010-06-15T23:23:28Z</time>
      </trkpt>
      <trkpt lat="42.582342" lon="1.520020">
        <ele>1359.026</ele>
        <time>2010-06-15T23:24:21Z</time>
      </trkpt>
      <trkpt lat="42.582267" lon="1.520545">
        <ele>1364.006</ele>
        <time>2010-06-15T23:25:01Z</time>
      </trkpt>
      <trkpt lat="42.580862" lon="1.520347">
        <ele>1371.087</ele>
        <time>2010-06-15T23:27:22Z</time>
      </trkpt>
      <trkpt lat="42.580173" lon="1.519818">
        <ele>1368.094</ele>
        <time>2010-06-15T23:28:40Z</time>
      </trkpt>
      <trkpt lat="42.578689" lon="1.519286">
        <ele>1374.031</ele>
        <time>2010-06-15T23:31:15Z</time>
      </trkpt>
      <trkpt lat="42.577935" lon="1.518024">
        <ele>1362.069</ele>
        <time>2010-06-15T23:33:14Z</time>
      </trkpt>
      <trkpt lat="42.577973" lon="1.517888">
        <ele>1359.047</ele>
        <time>2010-06-15T23:33:25Z</time>
      </trkpt>
      <trkpt lat="42.577422" lon="1.517317">
        <ele>1351.039</ele>
        <time>2010-06-15T23:34:35Z</time>
      </trkpt>
      <trkpt lat="42.577059" lon="1.517403">
        <ele>1343.068</ele>
        <time>2010-06-15T23:35:12Z</time>
      </trkpt>
      <trkpt lat="42.576775" lon="1.517731">
        <ele>1338.042</ele>
        <time>2010-06-15T23:35:48Z</time>
      </trkpt>
      <trkpt lat="42.576355" lon="1.518562">
        <ele>1340.026</ele>
        <time>2010-06-15T23:37:03Z</time>
      </trkpt>
      <trkpt lat="42.576093" lon="1.518606">
        <ele>1334.006</ele>
        <time>2010-06-15T23:37:29Z</time>
      </trkpt>
      <trkpt lat="42.575640" lon="1.519238">
        <ele>1332.085</ele>
        <time>2010-06-15T23:38:35Z</time>
      </trkpt>
      <trkpt lat="42.575385" lon="1.519136">
        <ele>1328.032</ele>
        <time>2010-06-15T23:39:01Z</time>
      </trkpt>
      <trkpt lat="42.575151" lon="1.518509">
        <ele>1327.099</ele>
        <time>2010-06-15T23:39:52Z</time>
      </trkpt>
      <trkpt lat="42.574419" lon="1.518787">
        <ele>1323.037</ele>
        <time>2010-06-15T23:41:08Z</time>
      </trkpt>
      <trkpt lat="42.574330" lon="1.519406">
        <ele>1324.025</ele>
        <time>2010-06-15T23:41:56Z</time>
      </trkpt>
      <trkpt lat="42.574640" lon="1.519896">
        <ele>1333.037</ele>
        <time>2010-06-15T23:42:42Z</time>
      </trkpt>
      <trkpt lat="42.574365" lon="1.520338">
        <ele>1333.049</ele>
        <time>2010-06-15T23:43:25Z</time>
      </trkpt>
      <trkpt lat="42.573980" lon="1.521458">
        <ele>1343.002</ele>
        <time>2010-06-15T23:44:56Z</time>
      </trkpt>
      <trkpt lat="42.572575" lon="1.522989">
        <ele>1372.022</ele>
        <time>2010-06-15T23:47:56Z</time>
      </trkpt>
      <trkpt lat="42.571841" lon="1.522837">
        <ele>1362.006</ele>
        <time>2010-06-15T23:49:12Z</time>
      </trkpt>
      <trkpt lat="42.571905" lon="1.523287">
        <ele>1386.033</ele>
        <time>2010-06-15T23:49:44Z</time>
      </trkpt>
      <trkpt lat="42.571766" lon="1.523268">
        <ele>1388.070</ele>
        <time>2010-06-15T23:49:59Z</time>
      </trkpt>
      <trkpt lat="42.571946" lon="1.523874">
        <ele>1411.037</ele>
        <time>2010-06-15T23:50:48Z</time>
      </trkpt>
      <trkpt lat="42.571846" lon="1.523864">
        <ele>1411.095</ele>
        <time>2010-06-15T23:50:57Z</time>
      </trkpt>
      <trkpt lat="42.571911" lon="1.524639">
        <ele>1463.093</ele>
        <time>2010-06-15T23:51:55Z</time>
      </trkpt>
      <trkpt lat="42.571633" lon="1.524547">
        <ele>1453.035</ele>
        <time>2010-06-15T23:52:23Z</time>
      </trkpt>
      <trkpt lat="42.571518" lon="1.524862">
        <ele>1490.098</ele>
        <time>2010-06-15T23:52:49Z</time>
      </trkpt>
      <trkpt lat="42.571264" lon="1.524875">
        <ele>1490.015</ele>
        <time>2010-06-15T23:53:14Z</time>
      </trkpt>
      <trkpt lat="42.570299" lon="1.526464">
        <ele>1518.026</ele>
        <time>2010-06-15T23:55:47Z</time>
      </trkpt>
      <trkpt lat="42.570587" lon="1.527007">
        <ele>1533.006</ele>
        <time>2010-06-15T23:56:35Z</time>
      </trkpt>
      <trkpt lat="42.570570" lon="1.529006">
        <ele>1530.018</ele>
        <time>2010-06-15T23:59:04Z</time>
      </trkpt>
      <trkpt lat="42.571016" lon="1.530438">
        <ele>1536.045</ele>
        <time>2010-06-16T00:00:58Z</time>
      </trkpt>
      <trkpt lat="42.571028" lon="1.531422">
        <ele>1534.062</ele>
        <time>2010-06-16T00:02:11Z</time>
      </trkpt>
      <trkpt lat="42.571436" lon="1.533001">
        <ele>1544.090</ele>
        <time>2010-06-16T00:04:13Z</time>
      </trkpt>
      <trkpt lat="42.571469" lon="1.533608">
        <ele>1551.078</ele>
        <time>2010-06-16T00:04:58Z</time>
      </trkpt>
      <trkpt lat="42.570705" lon="1.533478">
        <ele>1555.080</ele>
        <time>2010-06-16T00:06:16Z</time>
      </trkpt>
      <trkpt lat="42.570683" lon="1.533709">
        <ele>1556.095</ele>
        <time>2010-06-16T00:06:33Z</time>
      </trkpt>
      <trkpt lat="42.570947" lon="1.534011">
        <ele>1565.049</ele>
        <time>2010-06-16T00:07:08Z</time>
      </trkpt>
      <trkpt lat="42.570300" lon="1.534362">
        <ele>1593.023</ele>
        <time>2010-06-16T00:08:17Z</time>
      </trkpt>
      <trkpt lat="42.569503" lon="1.535583">
        <ele>1638.006</ele>
        <time>2010-06-16T00:10:18Z</time>
      </trkpt>
      <trkpt lat="42.568798" lon="1.534824">
        <ele>1620.068</ele>
        <time>2010-06-16T00:11:47Z</time>
      </trkpt>
      <trkpt lat="42.568262" lon="1.533159">
        <ele>1566.025</ele>
        <time>2010-06-16T00:14:02Z</time>
      </trkpt>
      <trkpt lat="42.567573" lon="1.534391">
        <ele>1587.082</ele>
        <time>2010-06-16T00:15:56Z</time>
      </trkpt>
      <trkpt lat="42.567304" lon="1.534592">
        <ele>1583.040</ele>
        <time>2010-06-16T00:16:26Z</time>
      </trkpt>
      <trkpt lat="42.567341" lon="1.534434">
        <ele>1573.048</ele>
        <time>2010-06-16T00:16:38Z</time>
      </trkpt>
      <trkpt lat="42.566932" lon="1.534396">
        <ele>1560.030</ele>
        <time>2010-06-16T00:17:20Z</time>
      </trkpt>
      <trkpt lat="42.566594" lon="1.534744">
        <ele>1565.061</ele>
        <time>2010-06-16T00:18:01Z</time>
      </trkpt>
      <trkpt lat="42.566471" lon="1.534703">
        <ele>1563.021</ele>
        <time>2010-06-16T00:18:14Z</time>
      </trkpt>
      <trkpt lat="42.565312" lon="1.532534">
        <ele>1470.013</ele>
        <time>2010-06-16T00:21:31Z</time>
      </trkpt>
      <trkpt lat="42.565349" lon="1.532209">
        <ele>1463.006</ele>
        <time>2010-06-16T00:21:55Z</time>
      </trkpt>
      <trkpt lat="42.565156" lon="1.532095">
        <ele>1463.055</ele>
        <time>2010-06-16T00:22:16Z</time>
      </trkpt>
      <trkpt lat="42.564662" lon="1.533775">
        <ele>1494.022</ele>
        <time>2010-06-16T00:24:30Z</time>
      </trkpt>
      <trkpt lat="42.563751" lon="1.535500">
        <ele>1532.099</ele>
        <time>2010-06-16T00:27:06Z</time>
      </trkpt>
      <trkpt lat="42.562818" lon="1.535622">
        <ele>1546.047</ele>
        <time>2010-06-16T00:28:41Z</time>
      </trkpt>
      <trkpt lat="42.562416" lon="1.535510">
        <ele>1555.075</ele>
        <time>2010-06-16T00:29:21Z</time>
      </trkpt>
      <trkpt lat="42.562199" lon="1.535240">
        <ele>1547.097</ele>
        <time>2010-06-16T00:29:51Z</time>
      </trkpt>
      <trkpt lat="42.562045" lon="1.535398">
        <ele>1540.048</ele>
        <time>2010-06-16T00:30:10Z</time>
      </trkpt>
      <trkpt lat="42.562279" lon="1.537059">
        <ele>1604.061</ele>
        <time>2010-06-16T00:32:16Z</time>
      </trkpt>
      <trkpt lat="42.562063" lon="1.537134">
        <ele>1600.017</ele>
        <time>2010-06-16T00:32:37Z</time>
      </trkpt>
      <trkpt lat="42.561879" lon="1.537492">
        <ele>1604.006</ele>
        <time>2010-06-16T00:33:09Z</time>
      </trkpt>
      <trkpt lat="42.561917" lon="1.538979">
        <ele>1596.083</ele>
        <time>2010-06-16T00:35:00Z</time>
      </trkpt>
      <trkpt lat="42.561613" lon="1.540018">
        <ele>1566.090</ele>
        <time>2010-06-16T00:36:21Z</time>
      </trkpt>
      <trkpt lat="42.561873" lon="1.541294">
        <ele>1569.017</ele>
        <time>2010-06-16T00:38:00Z</time>
      </trkpt>
      <trkpt lat="42.561908" lon="1.542216">
        <ele>1553.045</ele>
        <time>2010-06-16T00:39:08Z</time>
      </trkpt>
      <trkpt lat="42.561809" lon="1.542520">
        <ele>1543.013</ele>
        <time>2010-06-16T00:39:31Z</time>
      </trkpt>
      <trkpt lat="42.562157" lon="1.542769">
        <ele>1554.085</ele>
        <time>2010-06-16T00:40:12Z</time>
      </trkpt>
      <trkpt lat="42.561510" lon="1.543109">
        <ele>1485.015</ele>
        <time>2010-06-16T00:41:21Z</time>
      </trkpt>
      <trkpt lat="42.562431" lon="1.543699">
        <ele>1521.065</ele>
        <time>2010-06-16T00:43:03Z</time>
      </trkpt>
      <trkpt lat="42.562509" lon="1.544033">
        <ele>1507.011</ele>
        <time>2010-06-16T00:43:29Z</time>
      </trkpt>
      <trkpt lat="42.562586" lon="1.543991">
        <ele>1513.006</ele>
        <time>2010-06-16T00:43:36Z</time>
      </trkpt>
      <trkpt lat="42.562574" lon="1.544682">
        <ele>1500.040</ele>
        <time>2010-06-16T00:44:27Z</time>
      </trkpt>
      <trkpt lat="42.561825" lon="1.544479">
        <ele>1485.097</ele>
        <time>2010-06-16T00:45:43Z</time>
      </trkpt>
      <trkpt lat="42.560665" lon="1.543807">
        <ele>1451.044</ele>
        <time>2010-06-16T00:47:51Z</time>
      </trkpt>
      <trkpt lat="42.560460" lon="1.542761">
        <ele>1451.042</ele>
        <time>2010-06-16T00:49:10Z</time>
      </trkpt>
      <trkpt lat="42.560300" lon="1.542493">
        <ele>1440.040</ele>
        <time>2010-06-16T00:49:36Z</time>
      </trkpt>
      <trkpt lat="42.559556" lon="1.541693">
        <ele>1405.022</ele>
        <time>2010-06-16T00:51:11Z</time>
      </trkpt>
      <trkpt lat="42.559266" lon="1.540532">
        <ele>1399.084</ele>
        <time>2010-06-16T00:52:40Z</time>
      </trkpt>
      <trkpt lat="42.558978" lon="1.539896">
        <ele>1387.007</ele>
        <time>2010-06-16T00:53:36Z</time>
      </trkpt>
      <trkpt lat="42.558912" lon="1.539037">
        <ele>1387.017</ele>
        <time>2010-06-16T00:54:40Z</time>
      </trkpt>
      <trkpt lat="42.558820" lon="1.539164">
        <ele>1387.006</ele>
        <time>2010-06-16T00:54:53Z</time>
      </trkpt>
      <trkpt lat="42.558659" lon="1.541208">
        <ele>1371.047</ele>
        <time>2010-06-16T00:57:24Z</time>
      </trkpt>
      <trkpt lat="42.558469" lon="1.541806">
        <ele>1369.014</ele>
        <time>2010-06-16T00:58:13Z</time>
      </trkpt>
      <trkpt lat="42.558565" lon="1.542528">
        <ele>1380.041</ele>
        <time>2010-06-16T00:59:06Z</time>
      </trkpt>
      <trkpt lat="42.557876" lon="1.542052">
        <ele>1371.099</ele>
        <time>2010-06-16T01:00:24Z</time>
      </trkpt>
      <trkpt lat="42.557879" lon="1.542638">
        <ele>1378.077</ele>
        <time>2010-06-16T01:01:07Z</time>
      </trkpt>
      <trkpt lat="42.557488" lon="1.543385">
        <ele>1400.089</ele>
        <time>2010-06-16T01:02:15Z</time>
      </trkpt>
      <trkpt lat="42.557414" lon="1.544025">
        <ele>1412.096</ele>
        <time>2010-06-16T01:03:03Z</time>
      </trkpt>
      <trkpt lat="42.556954" lon="1.544636">
        <ele>1450.031</ele>
        <time>2010-06-16T01:04:07Z</time>
      </trkpt>
      <trkpt lat="42.557397" lon="1.545376">
        <ele>1448.024</ele>
        <time>2010-06-16T01:05:17Z</time>
      </trkpt>
      <trkpt lat="42.558101" lon="1.545925">
        <ele>1458.006</ele>
        <time>2010-06-16T01:06:38Z</time>
      </trkpt>
      <trkpt lat="42.558033" lon="1.546135">
        <ele>1465.028</ele>
        <time>2010-06-16T01:06:54Z</time>
      </trkpt>
      <trkpt lat="42.558457" lon="1.548017">
        <ele>1509.015</ele>
        <time>2010-06-16T01:09:20Z</time>
      </trkpt>
      <trkpt lat="42.558267" lon="1.548668">
        <ele>1515.012</ele>
        <time>2010-06-16T01:10:11Z</time>
      </trkpt>
      <trkpt lat="42.558807" lon="1.551101">
        <ele>1517.080</ele>
        <time>2010-06-16T01:13:19Z</time>
      </trkpt>
      <trkpt lat="42.558781" lon="1.552180">
        <ele>1532.088</ele>
        <time>2010-06-16T01:14:39Z</time>
      </trkpt>
      <trkpt lat="42.559175" lon="1.554009">
        <ele>1545.030</ele>
        <time>2010-06-16T01:16:59Z</time>
      </trkpt>
      <trkpt lat="42.559329" lon="1.554113">
        <ele>1549.029</ele>
        <time>2010-06-16T01:17:16Z</time>
      </trkpt>
      <trkpt lat="42.559214" lon="1.554166">
        <ele>1549.000</ele>
        <time>2010-06-16T01:17:29Z</time>
      </trkpt>
      <trkpt lat="42.559015" lon="1.554555">
        <ele>1556.020</ele>
        <time>2010-06-16T01:18:04Z</time>
      </trkpt>
      <trkpt lat="42.558819" lon="1.555782">
        <ele>1570.006</ele>
        <time>2010-06-16T01:19:35Z</time>
      </trkpt>
      <trkpt lat="42.558889" lon="1.555698">
        <ele>1570.051</ele>
        <time>2010-06-16T01:19:46Z</time>
      </trkpt>
      <trkpt lat="42.558869" lon="1.556536">
        <ele>1583.048</ele>
        <time>2010-06-16T01:20:46Z</time>
      </trkpt>
      <trkpt lat="42.558730" lon="1.556548">
        <ele>1588.025</ele>
        <time>2010-06-16T01:21:01Z</time>
      </trkpt>
      <trkpt lat="42.558442" lon="1.554047">
        <ele>1569.063</ele>
        <time>2010-06-16T01:24:08Z</time>
      </trkpt>
      <trkpt lat="42.558169" lon="1.553462">
        <ele>1574.091</ele>
        <time>2010-06-16T01:24:59Z</time>
      </trkpt>
      <trkpt lat="42.557977" lon="1.553684">
        <ele>1578.043</ele>
        <time>2010-06-16T01:25:23Z</time>
      </trkpt>
      <trkpt lat="42.558152" lon="1.554887">
        <ele>1587.045</ele>
        <time>2010-06-16T01:26:54Z</time>
      </trkpt>
      <trkpt lat="42.557984" lon="1.557077">
        <ele>1629.047</ele>
        <time>2010-06-16T01:29:36Z</time>
      </trkpt>
      <trkpt lat="42.558147" lon="1.559170">
        <ele>1680.011</ele>
        <time>2010-06-16T01:32:12Z</time>
      </trkpt>
      <trkpt lat="42.557988" lon="1.559832">
        <ele>1684.006</ele>
        <time>2010-06-16T01:33:03Z</time>
      </trkpt>
      <trkpt lat="42.558160" lon="1.560322">
        <ele>1683.033</ele>
        <time>2010-06-16T01:33:43Z</time>
      </trkpt>
      <trkpt lat="42.557521" lon="1.562977">
        <ele>1723.030</ele>
        <time>2010-06-16T01:37:09Z</time>
      </trkpt>
      <trkpt lat="42.557606" lon="1.563165">
        <ele>1723.087</ele>
        <time>2010-06-16T01:37:26Z</time>
      </trkpt>
      <trkpt lat="42.557229" lon="1.563262">
        <ele>1737.015</ele>
        <time>2010-06-16T01:38:03Z</time>
      </trkpt>
      <trkpt lat="42.557202" lon="1.562487">
        <ele>1733.043</ele>
        <time>2010-06-16T01:39:00Z</time>
      </trkpt>
      <trkpt lat="42.557102" lon="1.562488">
        <ele>1733.095</ele>
        <time>2010-06-16T01:39:11Z</time>
      </trkpt>
      <trkpt lat="42.556657" lon="1.561130">
        <ele>1758.065</ele>
        <time>2010-06-16T01:41:01Z</time>
      </trkpt>
      <trkpt lat="42.556075" lon="1.562244">
        <ele>1784.068</ele>
        <time>2010-06-16T01:42:40Z</time>
      </trkpt>
      <trkpt lat="42.555892" lon="1.562811">
        <ele>1797.014</ele>
        <time>2010-06-16T01:43:27Z</time>
      </trkpt>
      <trkpt lat="42.555615" lon="1.563033">
        <ele>1806.006</ele>
        <time>2010-06-16T01:43:59Z</time>
      </trkpt>
      <trkpt lat="42.555601" lon="1.563232">
        <ele>1810.045</ele>
        <time>2010-06-16T01:44:14Z</time>
      </trkpt>
      <trkpt lat="42.554878" lon="1.563824">
        <ele>1833.062</ele>
        <time>2010-06-16T01:45:38Z</time>
      </trkpt>
      <trkpt lat="42.554956" lon="1.564044">
        <ele>1838.039</ele>
        <time>2010-06-16T01:45:56Z</time>
      </trkpt>
      <trkpt lat="42.554832" lon="1.564024">
        <ele>1842.057</ele>
        <time>2010-06-16T01:46:08Z</time>
      </trkpt>
      <trkpt lat="42.554671" lon="1.564832">
        <ele>1861.085</ele>
        <time>2010-06-16T01:47:10Z</time>
      </trkpt>
      <trkpt lat="42.555561" lon="1.567528">
        <ele>1899.037</ele>
        <time>2010-06-16T01:50:47Z</time>
      </trkpt>
      <trkpt lat="42.556030" lon="1.570991">
        <ele>1961.072</ele>
        <time>2010-06-16T01:55:08Z</time>
      </trkpt>
      <trkpt lat="42.555900" lon="1.571097">
        <ele>1964.013</ele>
        <time>2010-06-16T01:55:22Z</time>
      </trkpt>
      <trkpt lat="42.555335" lon="1.570766">
        <ele>1968.014</ele>
        <time>2010-06-16T01:56:24Z</time>
      </trkpt>
      <trkpt lat="42.555593" lon="1.571664">
        <ele>1968.006</ele>
        <time>2010-06-16T01:57:36Z</time>
      </trkpt>
      <trkpt lat="42.555181" lon="1.572945">
        <ele>1956.036</ele>
        <time>2010-06-16T01:59:19Z</time>
      </trkpt>
      <trkpt lat="42.555110" lon="1.574495">
        <ele>1920.063</ele>
        <time>2010-06-16T02:01:13Z</time>
      </trkpt>
      <trkpt lat="42.554666" lon="1.575315">
        <ele>1907.050</ele>
        <time>2010-06-16T02:02:27Z</time>
      </trkpt>
      <trkpt lat="42.554066" lon="1.575802">
        <ele>1910.098</ele>
        <time>2010-06-16T02:03:37Z</time>
      </trkpt>
      <trkpt lat="42.552966" lon="1.578365">
        <ele>1916.076</ele>
        <time>2010-06-16T02:07:17Z</time>
      </trkpt>
      <trkpt lat="42.551936" lon="1.579399">
        <ele>1934.098</ele>
        <time>2010-06-16T02:09:24Z</time>
      </trkpt>
      <trkpt lat="42.551088" lon="1.579583">
        <ele>1943.071</ele>
        <time>2010-06-16T02:10:50Z</time>
      </trkpt>
      <trkpt lat="42.549661" lon="1.580345">
        <ele>1902.041</ele>
        <time>2010-06-16T02:13:25Z</time>
      </trkpt>
      <trkpt lat="42.549345" lon="1.580379">
        <ele>1908.015</ele>
        <time>2010-06-16T02:13:55Z</time>
      </trkpt>
      <trkpt lat="42.549075" lon="1.580255">
        <ele>1915.006</ele>
        <time>2010-06-16T02:14:24Z</time>
      </trkpt>
      <trkpt lat="42.548605" lon="1.580343">
        <ele>1927.076</ele>
        <time>2010-06-16T02:15:11Z</time>
      </trkpt>
      <trkpt lat="42.548395" lon="1.580114">
        <ele>1933.063</ele>
        <time>2010-06-16T02:15:39Z</time>
      </trkpt>
      <trkpt lat="42.547771" lon="1.580192">
        <ele>1929.050</ele>
        <time>2010-06-16T02:16:42Z</time>
      </trkpt>
      <trkpt lat="42.547050" lon="1.579317">
        <ele>1922.018</ele>
        <time>2010-06-16T02:18:19Z</time>
      </trkpt>
      <trkpt lat="42.546764" lon="1.579277">
        <ele>1914.076</ele>
        <time>2010-06-16T02:18:48Z</time>
      </trkpt>
      <trkpt lat="42.546485" lon="1.578829">
        <ele>1903.058</ele>
        <time>2010-06-16T02:19:31Z</time>
      </trkpt>
      <trkpt lat="42.545945" lon="1.578917">
        <ele>1874.085</ele>
        <time>2010-06-16T02:20:25Z</time>
      </trkpt>
      <trkpt lat="42.545855" lon="1.579483">
        <ele>1868.089</ele>
        <time>2010-06-16T02:21:08Z</time>
      </trkpt>
      <trkpt lat="42.545506" lon="1.579203">
        <ele>1856.017</ele>
        <time>2010-06-16T02:21:49Z</time>
      </trkpt>
      <trkpt lat="42.545167" lon="1.578588">
        <ele>1848.006</ele>
        <time>2010-06-16T02:22:45Z</time>
      </trkpt>
      <trkpt lat="42.544959" lon="1.578588">
        <ele>1834.067</ele>
        <time>2010-06-16T02:23:06Z</time>
      </trkpt>
      <trkpt lat="42.544773" lon="1.578243">
        <ele>1824.014</ele>
        <time>2010-06-16T02:23:36Z</time>
      </trkpt>
      <trkpt lat="42.544411" lon="1.578128">
        <ele>1812.071</ele>
        <time>2010-06-16T02:24:14Z</time>
      </trkpt>
      <trkpt lat="42.544102" lon="1.578578">
        <ele>1785.079</ele>
        <time>2010-06-16T02:25:00Z</time>
      </trkpt>
      <trkpt lat="42.544149" lon="1.579342">
        <ele>1766.027</ele>
        <time>2010-06-16T02:25:56Z</time>
      </trkpt>
      <trkpt lat="42.544365" lon="1.579814">
        <ele>1777.029</ele>
        <time>2010-06-16T02:26:38Z</time>
      </trkpt>
      <trkpt lat="42.544149" lon="1.580714">
        <ele>1730.094</ele>
        <time>2010-06-16T02:27:46Z</time>
      </trkpt>
      <trkpt lat="42.543971" lon="1.580515">
        <ele>1720.057</ele>
        <time>2010-06-16T02:28:10Z</time>
      </trkpt>
      <trkpt lat="42.543910" lon="1.581185">
        <ele>1706.022</ele>
        <time>2010-06-16T02:28:59Z</time>
      </trkpt>
      <trkpt lat="42.544366" lon="1.583531">
        <ele>1669.006</ele>
        <time>2010-06-16T02:31:59Z</time>
      </trkpt>
      <trkpt lat="42.544960" lon="1.584567">
        <ele>1647.098</ele>
        <time>2010-06-16T02:33:36Z</time>
      </trkpt>
      <trkpt lat="42.545045" lon="1.585311">
        <ele>1606.025</ele>
        <time>2010-06-16T02:34:30Z</time>
      </trkpt>
      <trkpt lat="42.544798" lon="1.585740">
        <ele>1579.032</ele>
        <time>2010-06-16T02:35:12Z</time>
      </trkpt>
      <trkpt lat="42.544397" lon="1.585531">
        <ele>1582.060</ele>
        <time>2010-06-16T02:35:53Z</time>
      </trkpt>
      <trkpt lat="42.544204" lon="1.585772">
        <ele>1561.068</ele>
        <time>2010-06-16T02:36:20Z</time>
      </trkpt>
      <trkpt lat="42.543533" lon="1.585877">
        <ele>1530.070</ele>
        <time>2010-06-16T02:37:27Z</time>
      </trkpt>
      <trkpt lat="42.543548" lon="1.586023">
        <ele>1522.091</ele>
        <time>2010-06-16T02:37:38Z</time>
      </trkpt>
      <trkpt lat="42.543317" lon="1.586013">
        <ele>1505.081</ele>
        <time>2010-06-16T02:38:02Z</time>
      </trkpt>
      <trkpt lat="42.542977" lon="1.585804">
        <ele>1494.019</ele>
        <time>2010-06-16T02:38:39Z</time>
      </trkpt>
      <trkpt lat="42.542483" lon="1.584872">
        <ele>1476.006</ele>
        <time>2010-06-16T02:40:03Z</time>
      </trkpt>
      <trkpt lat="42.542368" lon="1.585940">
        <ele>1450.038</ele>
        <time>2010-06-16T02:41:24Z</time>
      </trkpt>
      <trkpt lat="42.542499" lon="1.586390">
        <ele>1438.075</ele>
        <time>2010-06-16T02:41:59Z</time>
      </trkpt>
      <trkpt lat="42.542298" lon="1.586212">
        <ele>1424.092</ele>
        <time>2010-06-16T02:42:23Z</time>
      </trkpt>
      <trkpt lat="42.542368" lon="1.586495">
        <ele>1438.030</ele>
        <time>2010-06-16T02:42:46Z</time>
      </trkpt>
      <trkpt lat="42.542237" lon="1.586453">
        <ele>1420.058</ele>
        <time>2010-06-16T02:42:58Z</time>
      </trkpt>
      <trkpt lat="42.542623" lon="1.586903">
        <ele>1431.030</ele>
        <time>2010-06-16T02:43:49Z</time>
      </trkpt>
      <trkpt lat="42.542383" lon="1.587102">
        <ele>1428.027</ele>
        <time>2010-06-16T02:44:18Z</time>
      </trkpt>
      <trkpt lat="42.542191" lon="1.587175">
        <ele>1413.068</ele>
        <time>2010-06-16T02:44:38Z</time>
      </trkpt>
      <trkpt lat="42.541373" lon="1.586453">
        <ele>1389.014</ele>
        <time>2010-06-16T02:46:16Z</time>
      </trkpt>
      <trkpt lat="42.541049" lon="1.586642">
        <ele>1380.006</ele>
        <time>2010-06-16T02:46:51Z</time>
      </trkpt>
      <trkpt lat="42.540964" lon="1.586830">
        <ele>1368.091</ele>
        <time>2010-06-16T02:47:07Z</time>
      </trkpt>
      <trkpt lat="42.540524" lon="1.586694">
        <ele>1357.048</ele>
        <time>2010-06-16T02:47:51Z</time>
      </trkpt>
      <trkpt lat="42.540293" lon="1.586338">
        <ele>1346.095</ele>
        <time>2010-06-16T02:48:26Z</time>
      </trkpt>
      <trkpt lat="42.539957" lon="1.586534">
        <ele>1332.023</ele>
        <time>2010-06-16T02:49:03Z</time>
      </trkpt>
      <trkpt lat="42.539888" lon="1.586335">
        <ele>1334.061</ele>
        <time>2010-06-16T02:49:19Z</time>
      </trkpt>
      <trkpt lat="42.539479" lon="1.587089">
        <ele>1312.073</ele>
        <time>2010-06-16T02:50:29Z</time>
      </trkpt>
      <trkpt lat="42.539479" lon="1.586932">
        <ele>1314.099</ele>
        <time>2010-06-16T02:50:41Z</time>
      </trkpt>
      <trkpt lat="42.539263" lon="1.586953">
        <ele>1310.007</ele>
        <time>2010-06-16T02:51:02Z</time>
      </trkpt>
      <trkpt lat="42.538900" lon="1.586084">
        <ele>1307.027</ele>
        <time>2010-06-16T02:52:15Z</time>
      </trkpt>
      <trkpt lat="42.538353" lon="1.587519">
        <ele>1299.006</ele>
        <time>2010-06-16T02:54:15Z</time>
      </trkpt>
      <trkpt lat="42.537967" lon="1.586953">
        <ele>1296.098</ele>
        <time>2010-06-16T02:55:12Z</time>
      </trkpt>
      <trkpt lat="42.537797" lon="1.586744">
        <ele>1293.045</ele>
        <time>2010-06-16T02:55:34Z</time>
      </trkpt>
      <trkpt lat="42.537342" lon="1.586043">
        <ele>1288.092</ele>
        <time>2010-06-16T02:56:44Z</time>
      </trkpt>
      <trkpt lat="42.537211" lon="1.585948">
        <ele>1285.010</ele>
        <time>2010-06-16T02:56:59Z</time>
      </trkpt>
      <trkpt lat="42.536964" lon="1.585467">
        <ele>1283.088</ele>
        <time>2010-06-16T02:57:42Z</time>
      </trkpt>
      <trkpt lat="42.536802" lon="1.584734">
        <ele>1276.030</ele>
        <time>2010-06-16T02:58:39Z</time>
      </trkpt>
      <trkpt lat="42.536485" lon="1.583666">
        <ele>1269.052</ele>
        <time>2010-06-16T03:00:02Z</time>
      </trkpt>
      <trkpt lat="42.536207" lon="1.582525">
        <ele>1264.053</ele>
        <time>2010-06-16T03:01:31Z</time>
      </trkpt>
      <trkpt lat="42.536115" lon="1.582295">
        <ele>1262.008</ele>
        <time>2010-06-16T03:01:50Z</time>
      </trkpt>
      <trkpt lat="42.535082" lon="1.581870">
        <ele>1256.006</ele>
        <time>2010-06-16T03:03:38Z</time>
      </trkpt>
      <trkpt lat="42.534770" lon="1.581949">
        <ele>1255.084</ele>
        <time>2010-06-16T03:04:10Z</time>
      </trkpt>
      <trkpt lat="42.534632" lon="1.582246">
        <ele>1256.011</ele>
        <time>2010-06-16T03:04:36Z</time>
      </trkpt>
      <trkpt lat="42.533477" lon="1.581511">
        <ele>1252.098</ele>
        <time>2010-06-16T03:06:45Z</time>
      </trkpt>
      <trkpt lat="42.532911" lon="1.579913">
        <ele>1258.046</ele>
        <time>2010-06-16T03:08:55Z</time>
      </trkpt>
      <trkpt lat="42.531651" lon="1.579708">
        <ele>1281.094</ele>
        <time>2010-06-16T03:11:03Z</time>
      </trkpt>
      <trkpt lat="42.530715" lon="1.577358">
        <ele>1293.036</ele>
        <time>2010-06-16T03:14:18Z</time>
      </trkpt>
      <trkpt lat="42.530149" lon="1.576857">
        <ele>1310.063</ele>
        <time>2010-06-16T03:15:27Z</time>
      </trkpt>
      <trkpt lat="42.529976" lon="1.575823">
        <ele>1309.044</ele>
        <time>2010-06-16T03:16:45Z</time>
      </trkpt>
      <trkpt lat="42.529595" lon="1.576246">
        <ele>1322.018</ele>
        <time>2010-06-16T03:17:34Z</time>
      </trkpt>
      <trkpt lat="42.528786" lon="1.576309">
        <ele>1363.006</ele>
        <time>2010-06-16T03:18:55Z</time>
      </trkpt>
      <trkpt lat="42.529987" lon="1.576669">
        <ele>1319.015</ele>
        <time>2010-06-16T03:20:59Z</time>
      </trkpt>
      <trkpt lat="42.529941" lon="1.576904">
        <ele>1322.082</ele>
        <time>2010-06-16T03:21:17Z</time>
      </trkpt>
      <trkpt lat="42.528867" lon="1.576716">
        <ele>1368.099</ele>
        <time>2010-06-16T03:23:04Z</time>
      </trkpt>
      <trkpt lat="42.528752" lon="1.576952">
        <ele>1374.057</ele>
        <time>2010-06-16T03:23:26Z</time>
      </trkpt>
      <trkpt lat="42.528336" lon="1.576889">
        <ele>1398.075</ele>
        <time>2010-06-16T03:24:07Z</time>
      </trkpt>
      <trkpt lat="42.528244" lon="1.576529">
        <ele>1395.017</ele>
        <time>2010-06-16T03:24:36Z</time>
      </trkpt>
      <trkpt lat="42.526789" lon="1.576326">
        <ele>1495.078</ele>
        <time>2010-06-16T03:27:02Z</time>
      </trkpt>
      <trkpt lat="42.526523" lon="1.575825">
        <ele>1516.033</ele>
        <time>2010-06-16T03:27:47Z</time>
      </trkpt>
      <trkpt lat="42.526616" lon="1.575339">
        <ele>1504.026</ele>
        <time>2010-06-16T03:28:25Z</time>
      </trkpt>
      <trkpt lat="42.526719" lon="1.575151">
        <ele>1504.006</ele>
        <time>2010-06-16T03:28:41Z</time>
      </trkpt>
      <trkpt lat="42.524075" lon="1.574353">
        <ele>1614.056</ele>
        <time>2010-06-16T03:33:12Z</time>
      </trkpt>
      <trkpt lat="42.523555" lon="1.573931">
        <ele>1622.023</ele>
        <time>2010-06-16T03:34:14Z</time>
      </trkpt>
      <trkpt lat="42.523162" lon="1.573430">
        <ele>1631.030</ele>
        <time>2010-06-16T03:35:08Z</time>
      </trkpt>
      <trkpt lat="42.522654" lon="1.572224">
        <ele>1630.028</ele>
        <time>2010-06-16T03:36:50Z</time>
      </trkpt>
      <trkpt lat="42.521857" lon="1.572146">
        <ele>1643.016</ele>
        <time>2010-06-16T03:38:10Z</time>
      </trkpt>
      <trkpt lat="42.520140" lon="1.570736">
        <ele>1646.098</ele>
        <time>2010-06-16T03:41:30Z</time>
      </trkpt>
      <trkpt lat="42.519863" lon="1.571159">
        <ele>1660.091</ele>
        <time>2010-06-16T03:42:13Z</time>
      </trkpt>
      <trkpt lat="42.519828" lon="1.571378">
        <ele>1662.081</ele>
        <time>2010-06-16T03:42:29Z</time>
      </trkpt>
      <trkpt lat="42.519516" lon="1.571363">
        <ele>1658.019</ele>
        <time>2010-06-16T03:43:01Z</time>
      </trkpt>
      <trkpt lat="42.519505" lon="1.571707">
        <ele>1657.006</ele>
        <time>2010-06-16T03:43:26Z</time>
      </trkpt>
      <trkpt lat="42.518882" lon="1.572397">
        <ele>1649.048</ele>
        <time>2010-06-16T03:44:46Z</time>
      </trkpt>
      <trkpt lat="42.518015" lon="1.571160">
        <ele>1638.075</ele>
        <time>2010-06-16T03:46:52Z</time>
      </trkpt>
      <trkpt lat="42.517554" lon="1.571285">
        <ele>1643.042</ele>
        <time>2010-06-16T03:47:38Z</time>
      </trkpt>
      <trkpt lat="42.517080" lon="1.570502">
        <ele>1622.060</ele>
        <time>2010-06-16T03:48:54Z</time>
      </trkpt>
      <trkpt lat="42.516710" lon="1.570377">
        <ele>1616.098</ele>
        <time>2010-06-16T03:49:32Z</time>
      </trkpt>
      <trkpt lat="42.515960" lon="1.570394">
        <ele>1628.070</ele>
        <time>2010-06-16T03:50:46Z</time>
      </trkpt>
      <trkpt lat="42.515625" lon="1.570049">
        <ele>1629.078</ele>
        <time>2010-06-16T03:51:29Z</time>
      </trkpt>
      <trkpt lat="42.515024" lon="1.568749">
        <ele>1631.033</ele>
        <time>2010-06-16T03:53:22Z</time>
      </trkpt>
      <trkpt lat="42.514142" lon="1.567794">
        <ele>1639.026</ele>
        <time>2010-06-16T03:55:16Z</time>
      </trkpt>
      <trkpt lat="42.513853" lon="1.566964">
        <ele>1615.006</ele>
        <time>2010-06-16T03:56:23Z</time>
      </trkpt>
      <trkpt lat="42.513853" lon="1.567434">
        <ele>1636.046</ele>
        <time>2010-06-16T03:56:58Z</time>
      </trkpt>
      <trkpt lat="42.513530" lon="1.567544">
        <ele>1639.063</ele>
        <time>2010-06-16T03:57:30Z</time>
      </trkpt>
      <trkpt lat="42.512167" lon="1.567498">
        <ele>1607.090</ele>
        <time>2010-06-16T03:59:47Z</time>
      </trkpt>
      <trkpt lat="42.511648" lon="1.568548">
        <ele>1625.078</ele>
        <time>2010-06-16T04:01:21Z</time>
      </trkpt>
      <trkpt lat="42.511048" lon="1.568454">
        <ele>1605.056</ele>
        <time>2010-06-16T04:02:20Z</time>
      </trkpt>
      <trkpt lat="42.509755" lon="1.569958">
        <ele>1633.058</ele>
        <time>2010-06-16T04:05:12Z</time>
      </trkpt>
      <trkpt lat="42.509339" lon="1.570115">
        <ele>1630.064</ele>
        <time>2010-06-16T04:05:55Z</time>
      </trkpt>
      <trkpt lat="42.509455" lon="1.570428">
        <ele>1650.006</ele>
        <time>2010-06-16T04:06:20Z</time>
      </trkpt>
      <trkpt lat="42.509282" lon="1.570256">
        <ele>1638.016</ele>
        <time>2010-06-16T04:06:41Z</time>
      </trkpt>
      <trkpt lat="42.508600" lon="1.570163">
        <ele>1641.006</ele>
        <time>2010-06-16T04:07:51Z</time>
      </trkpt>
      <trkpt lat="42.508092" lon="1.569881">
        <ele>1654.015</ele>
        <time>2010-06-16T04:08:45Z</time>
      </trkpt>
      <trkpt lat="42.506983" lon="1.567141">
        <ele>1687.052</ele>
        <time>2010-06-16T04:12:37Z</time>
      </trkpt>
      <trkpt lat="42.506983" lon="1.566593">
        <ele>1682.029</ele>
        <time>2010-06-16T04:13:16Z</time>
      </trkpt>
      <trkpt lat="42.506024" lon="1.565074">
        <ele>1678.047</ele>
        <time>2010-06-16T04:15:45Z</time>
      </trkpt>
      <trkpt lat="42.503945" lon="1.565318">
        <ele>1752.035</ele>
        <time>2010-06-16T04:19:12Z</time>
      </trkpt>
      <trkpt lat="42.504430" lon="1.565114">
        <ele>1719.087</ele>
        <time>2010-06-16T04:20:03Z</time>
      </trkpt>
      <trkpt lat="42.502352" lon="1.564474">
        <ele>1761.075</ele>
        <time>2010-06-16T04:23:37Z</time>
      </trkpt>
      <trkpt lat="42.502051" lon="1.564208">
        <ele>1744.028</ele>
        <time>2010-06-16T04:24:12Z</time>
      </trkpt>
      <trkpt lat="42.501762" lon="1.563425">
        <ele>1722.020</ele>
        <time>2010-06-16T04:25:18Z</time>
      </trkpt>
      <trkpt lat="42.501485" lon="1.563723">
        <ele>1699.006</ele>
        <time>2010-06-16T04:25:53Z</time>
      </trkpt>
      <trkpt lat="42.501462" lon="1.563942">
        <ele>1699.096</ele>
        <time>2010-06-16T04:26:09Z</time>
      </trkpt>
      <trkpt lat="42.501151" lon="1.564365">
        <ele>1687.043</ele>
        <time>2010-06-16T04:26:54Z</time>
      </trkpt>
      <trkpt lat="42.500839" lon="1.564381">
        <ele>1674.030</ele>
        <time>2010-06-16T04:27:24Z</time>
      </trkpt>
      <trkpt lat="42.500724" lon="1.564961">
        <ele>1681.068</ele>
        <time>2010-06-16T04:28:09Z</time>
      </trkpt>
      <trkpt lat="42.500886" lon="1.565336">
        <ele>1686.076</ele>
        <time>2010-06-16T04:28:41Z</time>
      </trkpt>
      <trkpt lat="42.500505" lon="1.565838">
        <ele>1684.028</ele>
        <time>2010-06-16T04:29:35Z</time>
      </trkpt>
      <trkpt lat="42.500724" lon="1.566025">
        <ele>1713.017</ele>
        <time>2010-06-16T04:29:59Z</time>
      </trkpt>
      <trkpt lat="42.500317" lon="1.566323">
        <ele>1681.087</ele>
        <time>2010-06-16T04:30:47Z</time>
      </trkpt>
      <trkpt lat="42.500213" lon="1.566933">
        <ele>1696.015</ele>
        <time>2010-06-16T04:31:33Z</time>
      </trkpt>
      <trkpt lat="42.500213" lon="1.567638">
        <ele>1708.006</ele>
        <time>2010-06-16T04:32:25Z</time>
      </trkpt>
      <trkpt lat="42.500387" lon="1.567544">
        <ele>1708.050</ele>
        <time>2010-06-16T04:32:44Z</time>
      </trkpt>
      <trkpt lat="42.499913" lon="1.568077">
        <ele>1702.037</ele>
        <time>2010-06-16T04:33:45Z</time>
      </trkpt>
      <trkpt lat="42.499544" lon="1.568735">
        <ele>1668.084</ele>
        <time>2010-06-16T04:34:45Z</time>
      </trkpt>
      <trkpt lat="42.499614" lon="1.569486">
        <ele>1703.032</ele>
        <time>2010-06-16T04:35:42Z</time>
      </trkpt>
      <trkpt lat="42.498933" lon="1.570395">
        <ele>1663.070</ele>
        <time>2010-06-16T04:37:18Z</time>
      </trkpt>
      <trkpt lat="42.498794" lon="1.570990">
        <ele>1677.022</ele>
        <time>2010-06-16T04:38:03Z</time>
      </trkpt>
      <trkpt lat="42.498437" lon="1.571304">
        <ele>1642.065</ele>
        <time>2010-06-16T04:38:46Z</time>
      </trkpt>
      <trkpt lat="42.498010" lon="1.573747">
        <ele>1643.068</ele>
        <time>2010-06-16T04:41:52Z</time>
      </trkpt>
      <trkpt lat="42.497687" lon="1.574170">
        <ele>1641.014</ele>
        <time>2010-06-16T04:42:37Z</time>
      </trkpt>
      <trkpt lat="42.497699" lon="1.574671">
        <ele>1650.006</ele>
        <time>2010-06-16T04:43:13Z</time>
      </trkpt>
      <trkpt lat="42.497537" lon="1.574718">
        <ele>1642.025</ele>
        <time>2010-06-16T04:43:29Z</time>
      </trkpt>
      <trkpt lat="42.497272" lon="1.576284">
        <ele>1657.022</ele>
        <time>2010-06-16T04:45:28Z</time>
      </trkpt>
      <trkpt lat="42.497573" lon="1.578226">
        <ele>1686.079</ele>
        <time>2010-06-16T04:47:55Z</time>
      </trkpt>
      <trkpt lat="42.497457" lon="1.578429">
        <ele>1686.077</ele>
        <time>2010-06-16T04:48:14Z</time>
      </trkpt>
      <trkpt lat="42.497570" lon="1.580130">
        <ele>1720.075</ele>
        <time>2010-06-16T04:50:20Z</time>
      </trkpt>
      <trkpt lat="42.497403" lon="1.580158">
        <ele>1728.067</ele>
        <time>2010-06-16T04:50:37Z</time>
      </trkpt>
      <trkpt lat="42.497403" lon="1.580497">
        <ele>1737.031</ele>
        <time>2010-06-16T04:51:01Z</time>
      </trkpt>
      <trkpt lat="42.496965" lon="1.581034">
        <ele>1740.061</ele>
        <time>2010-06-16T04:52:00Z</time>
      </trkpt>
      <trkpt lat="42.496653" lon="1.582193">
        <ele>1763.007</ele>
        <time>2010-06-16T04:53:32Z</time>
      </trkpt>
      <trkpt lat="42.496153" lon="1.582702">
        <ele>1771.006</ele>
        <time>2010-06-16T04:54:35Z</time>
      </trkpt>
      <trkpt lat="42.496195" lon="1.583437">
        <ele>1775.072</ele>
        <time>2010-06-16T04:55:29Z</time>
      </trkpt>
      <trkpt lat="42.495174" lon="1.584823">
        <ele>1798.069</ele>
        <time>2010-06-16T04:57:54Z</time>
      </trkpt>
      <trkpt lat="42.495028" lon="1.585982">
        <ele>1824.086</ele>
        <time>2010-06-16T04:59:19Z</time>
      </trkpt>
      <trkpt lat="42.495091" lon="1.586632">
        <ele>1827.044</ele>
        <time>2010-06-16T05:00:09Z</time>
      </trkpt>
      <trkpt lat="42.493924" lon="1.589204">
        <ele>1846.052</ele>
        <time>2010-06-16T05:03:52Z</time>
      </trkpt>
      <trkpt lat="42.494070" lon="1.589402">
        <ele>1853.014</ele>
        <time>2010-06-16T05:04:12Z</time>
      </trkpt>
      <trkpt lat="42.493508" lon="1.589882">
        <ele>1854.077</ele>
        <time>2010-06-16T05:05:19Z</time>
      </trkpt>
      <trkpt lat="42.492591" lon="1.591833">
        <ele>1872.061</ele>
        <time>2010-06-16T05:08:08Z</time>
      </trkpt>
      <trkpt lat="42.492362" lon="1.592794">
        <ele>1871.027</ele>
        <time>2010-06-16T05:09:24Z</time>
      </trkpt>
      <trkpt lat="42.492133" lon="1.593161">
        <ele>1871.006</ele>
        <time>2010-06-16T05:09:59Z</time>
      </trkpt>
      <trkpt lat="42.492008" lon="1.593981">
        <ele>1876.056</ele>
        <time>2010-06-16T05:11:00Z</time>
      </trkpt>
      <trkpt lat="42.492050" lon="1.594235">
        <ele>1878.063</ele>
        <time>2010-06-16T05:11:19Z</time>
      </trkpt>
      <trkpt lat="42.491362" lon="1.595733">
        <ele>1897.050</ele>
        <time>2010-06-16T05:13:31Z</time>
      </trkpt>
      <trkpt lat="42.491404" lon="1.597994">
        <ele>1924.058</ele>
        <time>2010-06-16T05:16:18Z</time>
      </trkpt>
      <trkpt lat="42.490446" lon="1.599803">
        <ele>1930.046</ele>
        <time>2010-06-16T05:19:01Z</time>
      </trkpt>
      <trkpt lat="42.490053" lon="1.601779">
        <ele>1949.038</ele>
        <time>2010-06-16T05:21:33Z</time>
      </trkpt>
      <trkpt lat="42.490137" lon="1.602288">
        <ele>1960.023</ele>
        <time>2010-06-16T05:22:10Z</time>
      </trkpt>
      <trkpt lat="42.489824" lon="1.602684">
        <ele>1968.083</ele>
        <time>2010-06-16T05:22:53Z</time>
      </trkpt>
      <trkpt lat="42.489824" lon="1.603786">
        <ele>1976.011</ele>
        <time>2010-06-16T05:24:16Z</time>
      </trkpt>
      <trkpt lat="42.489470" lon="1.604521">
        <ele>1974.006</ele>
        <time>2010-06-16T05:25:20Z</time>
      </trkpt>
      <trkpt lat="42.489658" lon="1.605708">
        <ele>1981.091</ele>
        <time>2010-06-16T05:26:49Z</time>
      </trkpt>
      <trkpt lat="42.489345" lon="1.606669">
        <ele>1978.058</ele>
        <time>2010-06-16T05:28:08Z</time>
      </trkpt>
      <trkpt lat="42.489824" lon="1.608676">
        <ele>1992.075</ele>
        <time>2010-06-16T05:30:43Z</time>
      </trkpt>
      <trkpt lat="42.489720" lon="1.609326">
        <ele>1999.053</ele>
        <time>2010-06-16T05:31:32Z</time>
      </trkpt>
      <trkpt lat="42.489262" lon="1.610061">
        <ele>1999.031</ele>
        <time>2010-06-16T05:32:42Z</time>
      </trkpt>
      <trkpt lat="42.489158" lon="1.610485">
        <ele>2005.013</ele>
        <time>2010-06-16T05:33:16Z</time>
      </trkpt>
      <trkpt lat="42.487886" lon="1.613480">
        <ele>2035.068</ele>
        <time>2010-06-16T05:37:30Z</time>
      </trkpt>
      <trkpt lat="42.487240" lon="1.614215">
        <ele>2034.042</ele>
        <time>2010-06-16T05:38:55Z</time>
      </trkpt>
      <trkpt lat="42.486594" lon="1.615769">
        <ele>2040.026</ele>
        <time>2010-06-16T05:41:07Z</time>
      </trkpt>
      <trkpt lat="42.485969" lon="1.616108">
        <ele>2042.006</ele>
        <time>2010-06-16T05:42:15Z</time>
      </trkpt>
      <trkpt lat="42.484997" lon="1.617520">
        <ele>2056.085</ele>
        <time>2010-06-16T05:44:37Z</time>
      </trkpt>
      <trkpt lat="42.484893" lon="1.618087">
        <ele>2063.062</ele>
        <time>2010-06-16T05:45:20Z</time>
      </trkpt>
      <trkpt lat="42.484335" lon="1.619126">
        <ele>2076.099</ele>
        <time>2010-06-16T05:46:55Z</time>
      </trkpt>
      <trkpt lat="42.484265" lon="1.620307">
        <ele>2089.037</ele>
        <time>2010-06-16T05:48:23Z</time>
      </trkpt>
      <trkpt lat="42.483847" lon="1.621205">
        <ele>2094.055</ele>
        <time>2010-06-16T05:49:41Z</time>
      </trkpt>
      <trkpt lat="42.483743" lon="1.622244">
        <ele>2101.097</ele>
        <time>2010-06-16T05:50:57Z</time>
      </trkpt>
      <trkpt lat="42.483360" lon="1.622858">
        <ele>2105.045</ele>
        <time>2010-06-16T05:51:58Z</time>
      </trkpt>
      <trkpt lat="42.483185" lon="1.624086">
        <ele>2123.047</ele>
        <time>2010-06-16T05:53:30Z</time>
      </trkpt>
      <trkpt lat="42.482663" lon="1.625597">
        <ele>2138.011</ele>
        <time>2010-06-16T05:55:33Z</time>
      </trkpt>
      <trkpt lat="42.482767" lon="1.626967">
        <ele>2161.006</ele>
        <time>2010-06-16T05:57:15Z</time>
      </trkpt>
      <trkpt lat="42.482662" lon="1.629518">
        <ele>2178.083</ele>
        <time>2010-06-16T06:00:23Z</time>
      </trkpt>
      <trkpt lat="42.483915" lon="1.636225">
        <ele>2202.040</ele>
        <time>2010-06-16T06:08:54Z</time>
      </trkpt>
      <trkpt lat="42.484576" lon="1.637218">
        <ele>2217.067</ele>
        <time>2010-06-16T06:10:32Z</time>
      </trkpt>
      <trkpt lat="42.484715" lon="1.638446">
        <ele>2230.055</ele>
        <time>2010-06-16T06:12:05Z</time>
      </trkpt>
      <trkpt lat="42.486524" lon="1.641311">
        <ele>2271.083</ele>
        <time>2010-06-16T06:16:42Z</time>
      </trkpt>
      <trkpt lat="42.486450" lon="1.642712">
        <ele>2273.035</ele>
        <time>2010-06-16T06:18:27Z</time>
      </trkpt>
      <trkpt lat="42.485965" lon="1.643574">
        <ele>2272.014</ele>
        <time>2010-06-16T06:19:46Z</time>
      </trkpt>
      <trkpt lat="42.486567" lon="1.644961">
        <ele>2316.054</ele>
        <time>2010-06-16T06:21:44Z</time>
      </trkpt>
      <trkpt lat="42.488060" lon="1.645537">
        <ele>2365.009</ele>
        <time>2010-06-16T06:24:20Z</time>
      </trkpt>
      <trkpt lat="42.490790" lon="1.647973">
        <ele>2427.006</ele>
        <time>2010-06-16T06:29:48Z</time>
      </trkpt>
      <trkpt lat="42.491395" lon="1.649663">
        <ele>2432.070</ele>
        <time>2010-06-16T06:32:05Z</time>
      </trkpt>
      <trkpt lat="42.492353" lon="1.650677">
        <ele>2449.067</ele>
        <time>2010-06-16T06:34:08Z</time>
      </trkpt>
      <trkpt lat="42.493526" lon="1.650895">
        <ele>2463.024</ele>
        <time>2010-06-16T06:36:05Z</time>
      </trkpt>
      <trkpt lat="42.494280" lon="1.653739">
        <ele>2473.012</ele>
        <time>2010-06-16T06:39:48Z</time>
      </trkpt>
      <trkpt lat="42.495201" lon="1.655483">
        <ele>2485.090</ele>
        <time>2010-06-16T06:42:28Z</time>
      </trkpt>
      <trkpt lat="42.495095" lon="1.657980">
        <ele>2512.052</ele>
        <time>2010-06-16T06:45:32Z</time>
      </trkpt>
      <trkpt lat="42.494342" lon="1.659031">
        <ele>2524.065</ele>
        <time>2010-06-16T06:47:19Z</time>
      </trkpt>
      <trkpt lat="42.492344" lon="1.661446">
        <ele>2551.068</ele>
        <time>2010-06-16T06:51:48Z</time>
      </trkpt>
      <trkpt lat="42.491405" lon="1.662014">
        <ele>2540.014</ele>
        <time>2010-06-16T06:53:31Z</time>
      </trkpt>
      <trkpt lat="42.490916" lon="1.662572">
        <ele>2527.006</ele>
        <time>2010-06-16T06:54:35Z</time>
      </trkpt>
      <trkpt lat="42.491070" lon="1.664211">
        <ele>2488.085</ele>
        <time>2010-06-16T06:56:36Z</time>
      </trkpt>
      <trkpt lat="42.490076" lon="1.663867">
        <ele>2454.072</ele>
        <time>2010-06-16T06:58:20Z</time>
      </trkpt>
      <trkpt lat="42.490677" lon="1.665193">
        <ele>2426.049</ele>
        <time>2010-06-16T07:00:14Z</time>
      </trkpt>
      <trkpt lat="42.489818" lon="1.664907">
        <ele>2412.077</ele>
        <time>2010-06-16T07:01:42Z</time>
      </trkpt>
      <trkpt lat="42.489643" lon="1.665337">
        <ele>2403.045</ele>
        <time>2010-06-16T07:02:18Z</time>
      </trkpt>
      <trkpt lat="42.489918" lon="1.665757">
        <ele>2393.017</ele>
        <time>2010-06-16T07:03:01Z</time>
      </trkpt>
      <trkpt lat="42.489971" lon="1.666425">
        <ele>2379.084</ele>
        <time>2010-06-16T07:03:49Z</time>
      </trkpt>
      <trkpt lat="42.489667" lon="1.667405">
        <ele>2360.007</ele>
        <time>2010-06-16T07:05:09Z</time>
      </trkpt>
      <trkpt lat="42.489469" lon="1.669782">
        <ele>2355.017</ele>
        <time>2010-06-16T07:08:04Z</time>
      </trkpt>
      <trkpt lat="42.488606" lon="1.672964">
        <ele>2326.006</ele>
        <time>2010-06-16T07:12:15Z</time>
      </trkpt>
      <trkpt lat="42.488429" lon="1.677166">
        <ele>2280.057</ele>
        <time>2010-06-16T07:17:26Z</time>
      </trkpt>
      <trkpt lat="42.488024" lon="1.681068">
        <ele>2261.084</ele>
        <time>2010-06-16T07:22:17Z</time>
      </trkpt>
      <trkpt lat="42.487412" lon="1.682723">
        <ele>2249.071</ele>
        <time>2010-06-16T07:24:34Z</time>
      </trkpt>
      <trkpt lat="42.488033" lon="1.685835">
        <ele>2229.019</ele>
        <time>2010-06-16T07:28:31Z</time>
      </trkpt>
      <trkpt lat="42.487432" lon="1.688403">
        <ele>2208.097</ele>
        <time>2010-06-16T07:31:50Z</time>
      </trkpt>
      <trkpt lat="42.487674" lon="1.689858">
        <ele>2211.079</ele>
        <time>2010-06-16T07:33:40Z</time>
      </trkpt>
      <trkpt lat="42.487062" lon="1.691453">
        <ele>2185.056</ele>
        <time>2010-06-16T07:35:52Z</time>
      </trkpt>
      <trkpt lat="42.487075" lon="1.692608">
        <ele>2181.059</ele>
        <time>2010-06-16T07:37:18Z</time>
      </trkpt>
      <trkpt lat="42.486644" lon="1.694260">
        <ele>2151.014</ele>
        <time>2010-06-16T07:39:27Z</time>
      </trkpt>
      <trkpt lat="42.486698" lon="1.695110">
        <ele>2143.006</ele>
        <time>2010-06-16T07:40:31Z</time>
      </trkpt>
      <trkpt lat="42.486436" lon="1.695785">
        <ele>2131.054</ele>
        <time>2010-06-16T07:41:26Z</time>
      </trkpt>
      <trkpt lat="42.486560" lon="1.698824">
        <ele>2104.021</ele>
        <time>2010-06-16T07:45:11Z</time>
      </trkpt>
      <trkpt lat="42.486664" lon="1.699978">
        <ele>2090.098</ele>
        <time>2010-06-16T07:46:37Z</time>
      </trkpt>
      <trkpt lat="42.485434" lon="1.702741">
        <ele>2064.096</ele>
        <time>2010-06-16T07:50:34Z</time>
      </trkpt>
      <trkpt lat="42.485179" lon="1.704085">
        <ele>2061.064</ele>
        <time>2010-06-16T07:52:18Z</time>
      </trkpt>
      <trkpt lat="42.484644" lon="1.704583">
        <ele>2062.026</ele>
        <time>2010-06-16T07:53:23Z</time>
      </trkpt>
      <trkpt lat="42.483992" lon="1.706604">
        <ele>2093.033</ele>
        <time>2010-06-16T07:56:05Z</time>
      </trkpt>
      <trkpt lat="42.483442" lon="1.709718">
        <ele>2191.023</ele>
        <time>2010-06-16T08:00:01Z</time>
      </trkpt>
      <trkpt lat="42.481856" lon="1.712914">
        <ele>2325.015</ele>
        <time>2010-06-16T08:04:46Z</time>
      </trkpt>
      <trkpt lat="42.481785" lon="1.714618">
        <ele>2368.006</ele>
        <time>2010-06-16T08:06:52Z</time>
      </trkpt>
      <trkpt lat="42.481521" lon="1.715171">
        <ele>2380.022</ele>
        <time>2010-06-16T08:07:41Z</time>
      </trkpt>
      <trkpt lat="42.481506" lon="1.717787">
        <ele>2467.059</ele>
        <time>2010-06-16T08:10:54Z</time>
      </trkpt>
      <trkpt lat="42.480619" lon="1.723098">
        <ele>2634.086</ele>
        <time>2010-06-16T08:17:35Z</time>
      </trkpt>
      <trkpt lat="42.480771" lon="1.724555">
        <ele>2661.084</ele>
        <time>2010-06-16T08:19:23Z</time>
      </trkpt>
      <trkpt lat="42.481191" lon="1.725885">
        <ele>2678.062</ele>
        <time>2010-06-16T08:21:11Z</time>
      </trkpt>
      <trkpt lat="42.480920" lon="1.733981">
        <ele>2546.014</ele>
        <time>2010-06-16T08:31:08Z</time>
      </trkpt>
      <trkpt lat="42.481208" lon="1.735618">
        <ele>2546.023</ele>
        <time>2010-06-16T08:33:14Z</time>
      </trkpt>
      <trkpt lat="42.480658" lon="1.738792">
        <ele>2487.083</ele>
        <time>2010-06-16T08:37:13Z</time>
      </trkpt>
      <trkpt lat="42.481116" lon="1.739452">
        <ele>2482.011</ele>
        <time>2010-06-16T08:38:20Z</time>
      </trkpt>
      <trkpt lat="42.482057" lon="1.743205">
        <ele>2437.006</ele>
        <time>2010-06-16T08:43:14Z</time>
      </trkpt>
      <trkpt lat="42.482026" lon="1.744422">
        <ele>2411.071</ele>
        <time>2010-06-16T08:44:43Z</time>
      </trkpt>
      <trkpt lat="42.481069" lon="1.747483">
        <ele>2379.078</ele>
        <time>2010-06-16T08:48:49Z</time>
      </trkpt>
      <trkpt lat="42.480307" lon="1.747863">
        <ele>2366.075</ele>
        <time>2010-06-16T08:50:10Z</time>
      </trkpt>
      <trkpt lat="42.478912" lon="1.747891">
        <ele>2358.043</ele>
        <time>2010-06-16T08:52:30Z</time>
      </trkpt>
      <trkpt lat="42.477794" lon="1.748643">
        <ele>2362.081</ele>
        <time>2010-06-16T08:54:34Z</time>
      </trkpt>
      <trkpt lat="42.475840" lon="1.751176">
        <ele>2299.053</ele>
        <time>2010-06-16T08:59:05Z</time>
      </trkpt>
      <trkpt lat="42.474872" lon="1.753202">
        <ele>2252.077</ele>
        <time>2010-06-16T09:02:03Z</time>
      </trkpt>
      <trkpt lat="42.474400" lon="1.755341">
        <ele>2256.061</ele>
        <time>2010-06-16T09:04:48Z</time>
      </trkpt>
      <trkpt lat="42.473082" lon="1.758408">
        <ele>2224.027</ele>
        <time>2010-06-16T09:09:10Z</time>
      </trkpt>
      <trkpt lat="42.471141" lon="1.762157">
        <ele>2254.006</ele>
        <time>2010-06-16T09:14:47Z</time>
      </trkpt>
      <trkpt lat="42.470564" lon="1.762898">
        <ele>2283.016</ele>
        <time>2010-06-16T09:16:07Z</time>
      </trkpt>
      <trkpt lat="42.469351" lon="1.763104">
        <ele>2291.063</ele>
        <time>2010-06-16T09:18:09Z</time>
      </trkpt>
      <trkpt lat="42.468997" lon="1.763754">
        <ele>2300.090</ele>
        <time>2010-06-16T09:19:10Z</time>
      </trkpt>
      <trkpt lat="42.468648" lon="1.764795">
        <ele>2325.028</ele>
        <time>2010-06-16T09:20:34Z</time>
      </trkpt>
      <trkpt lat="42.468575" lon="1.766378">
        <ele>2409.036</ele>
        <time>2010-06-16T09:22:30Z</time>
      </trkpt>
      <trkpt lat="42.468141" lon="1.767907">
        <ele>2424.068</ele>
        <time>2010-06-16T09:24:31Z</time>
      </trkpt>
      <trkpt lat="42.468110" lon="1.769185">
        <ele>2430.017</ele>
        <time>2010-06-16T09:26:07Z</time>
      </trkpt>
      <trkpt lat="42.468790" lon="1.769597">
        <ele>2440.087</ele>
        <time>2010-06-16T09:27:20Z</time>
      </trkpt>
      <trkpt lat="42.469565" lon="1.770494">
        <ele>2433.015</ele>
        <time>2010-06-16T09:29:03Z</time>
      </trkpt>
      <trkpt lat="42.469889" lon="1.771339">
        <ele>2436.006</ele>
        <time>2010-06-16T09:30:13Z</time>
      </trkpt>
      <trkpt lat="42.469783" lon="1.774018">
        <ele>2409.010</ele>
        <time>2010-06-16T09:33:31Z</time>
      </trkpt>
      <trkpt lat="42.469311" lon="1.776216">
        <ele>2382.017</ele>
        <time>2010-06-16T09:36:20Z</time>
      </trkpt>
      <trkpt lat="42.468474" lon="1.777936">
        <ele>2343.074</ele>
        <time>2010-06-16T09:38:53Z</time>
      </trkpt>
      <trkpt lat="42.467710" lon="1.778072">
        <ele>2300.062</ele>
        <time>2010-06-16T09:40:09Z</time>
      </trkpt>
      <trkpt lat="42.466683" lon="1.778883">
        <ele>2230.090</ele>
        <time>2010-06-16T09:42:08Z</time>
      </trkpt>
      <trkpt lat="42.463981" lon="1.783132">
        <ele>2125.012</ele>
        <time>2010-06-16T09:49:02Z</time>
      </trkpt>
      <trkpt lat="42.463817" lon="1.784655">
        <ele>2118.025</ele>
        <time>2010-06-16T09:50:55Z</time>
      </trkpt>
      <trkpt lat="42.464364" lon="1.785253">
        <ele>2122.026</ele>
        <time>2010-06-16T09:52:07Z</time>
      </trkpt>
      <trkpt lat="42.464390" lon="1.787685">
        <ele>2129.008</ele>
        <time>2010-06-16T09:55:05Z</time>
      </trkpt>
      <trkpt lat="42.465093" lon="1.790286">
        <ele>2176.006</ele>
        <time>2010-06-16T09:58:31Z</time>
      </trkpt>
      <trkpt lat="42.462870" lon="1.793005">
        <ele>2199.091</ele>
        <time>2010-06-16T10:03:30Z</time>
      </trkpt>
      <trkpt lat="42.462440" lon="1.794959">
        <ele>2201.058</ele>
        <time>2010-06-16T10:06:01Z</time>
      </trkpt>
      <trkpt lat="42.462253" lon="1.798612">
        <ele>2202.065</ele>
        <time>2010-06-16T10:10:30Z</time>
      </trkpt>
      <trkpt lat="42.461646" lon="1.800813">
        <ele>2199.073</ele>
        <time>2010-06-16T10:13:25Z</time>
      </trkpt>
      <trkpt lat="42.461167" lon="1.806721">
        <ele>2201.051</ele>
        <time>2010-06-16T10:20:43Z</time>
      </trkpt>
      <trkpt lat="42.462656" lon="1.811315">
        <ele>2184.043</ele>
        <time>2010-06-16T10:26:54Z</time>
      </trkpt>
      <trkpt lat="42.463129" lon="1.813556">
        <ele>2169.069</ele>
        <time>2010-06-16T10:29:46Z</time>
      </trkpt>
      <trkpt lat="42.461569" lon="1.815045">
        <ele>2162.004</ele>
        <time>2010-06-16T10:32:57Z</time>
      </trkpt>
      <trkpt lat="42.460775" lon="1.816641">
        <ele>2156.024</ele>
        <time>2010-06-16T10:35:19Z</time>
      </trkpt>
      <trkpt lat="42.460699" lon="1.818041">
        <ele>2157.006</ele>
        <time>2010-06-16T10:37:02Z</time>
      </trkpt>
      <trkpt lat="42.460005" lon="1.820608">
        <ele>2164.065</ele>
        <time>2010-06-16T10:40:24Z</time>
      </trkpt>
      <trkpt lat="42.459904" lon="1.823894">
        <ele>2149.092</ele>
        <time>2010-06-16T10:44:28Z</time>
      </trkpt>
      <trkpt lat="42.460476" lon="1.826985">
        <ele>2122.099</ele>
        <time>2010-06-16T10:48:23Z</time>
      </trkpt>
      <trkpt lat="42.459696" lon="1.830040">
        <ele>2082.047</ele>
        <time>2010-06-16T10:52:21Z</time>
      </trkpt>
      <trkpt lat="42.459167" lon="1.831144">
        <ele>2063.055</ele>
        <time>2010-06-16T10:53:58Z</time>
      </trkpt>
      <trkpt lat="42.457516" lon="1.832634">
        <ele>2023.067</ele>
        <time>2010-06-16T10:57:17Z</time>
      </trkpt>
      <trkpt lat="42.457536" lon="1.834519">
        <ele>2001.033</ele>
        <time>2010-06-16T10:59:35Z</time>
      </trkpt>
      <trkpt lat="42.456483" lon="1.837275">
        <ele>1965.023</ele>
        <time>2010-06-16T11:03:26Z</time>
      </trkpt>
      <trkpt lat="42.456450" lon="1.838431">
        <ele>1949.015</ele>
        <time>2010-06-16T11:04:51Z</time>
      </trkpt>
      <trkpt lat="42.455878" lon="1.839779">
        <ele>1925.006</ele>
        <time>2010-06-16T11:06:45Z</time>
      </trkpt>
      <trkpt lat="42.455686" lon="1.843034">
        <ele>1906.082</ele>
        <time>2010-06-16T11:10:47Z</time>
      </trkpt>
      <trkpt lat="42.454321" lon="1.846160">
        <ele>1896.059</ele>
        <time>2010-06-16T11:15:15Z</time>
      </trkpt>
      <trkpt lat="42.453565" lon="1.847086">
        <ele>1884.036</ele>
        <time>2010-06-16T11:16:57Z</time>
      </trkpt>
      <trkpt lat="42.452865" lon="1.849106">
        <ele>1880.044</ele>
        <time>2010-06-16T11:19:42Z</time>
      </trkpt>
      <trkpt lat="42.450968" lon="1.853032">
        <ele>1799.062</ele>
        <time>2010-06-16T11:25:28Z</time>
      </trkpt>
      <trkpt lat="42.450546" lon="1.855897">
        <ele>1758.034</ele>
        <time>2010-06-16T11:29:04Z</time>
      </trkpt>
      <trkpt lat="42.450469" lon="1.859939">
        <ele>1710.088</ele>
        <time>2010-06-16T11:34:02Z</time>
      </trkpt>
      <trkpt lat="42.450258" lon="1.865963">
        <ele>1579.024</ele>
        <time>2010-06-16T11:41:28Z</time>
      </trkpt>
      <trkpt lat="42.450525" lon="1.874774">
        <ele>1422.026</ele>
        <time>2010-06-16T11:52:19Z</time>
      </trkpt>
      <trkpt lat="42.450127" lon="1.875450">
        <ele>1414.006</ele>
        <time>2010-06-16T11:53:22Z</time>
      </trkpt>
      <trkpt lat="42.449693" lon="1.877100">
        <ele>1400.067</ele>
        <time>2010-06-16T11:55:31Z</time>
      </trkpt>
      <trkpt lat="42.449975" lon="1.878372">
        <ele>1392.044</ele>
        <time>2010-06-16T11:57:10Z</time>
      </trkpt>
      <trkpt lat="42.448853" lon="1.878757">
        <ele>1381.051</ele>
        <time>2010-06-16T11:59:06Z</time>
      </trkpt>
      <trkpt lat="42.448682" lon="1.879611">
        <ele>1372.049</ele>
        <time>2010-06-16T12:00:11Z</time>
      </trkpt>
      <trkpt lat="42.448498" lon="1.879310">
        <ele>1374.017</ele>
        <time>2010-06-16T12:00:40Z</time>
      </trkpt>
      <trkpt lat="42.447785" lon="1.880052">
        <ele>1361.089</ele>
        <time>2010-06-16T12:02:09Z</time>
      </trkpt>
      <trkpt lat="42.446723" lon="1.881895">
        <ele>1342.043</ele>
        <time>2010-06-16T12:05:03Z</time>
      </trkpt>
      <trkpt lat="42.445385" lon="1.883257">
        <ele>1334.064</ele>
        <time>2010-06-16T12:07:50Z</time>
      </trkpt>
      <trkpt lat="42.445034" lon="1.884175">
        <ele>1332.010</ele>
        <time>2010-06-16T12:09:06Z</time>
      </trkpt>
      <trkpt lat="42.445358" lon="1.885081">
        <ele>1330.006</ele>
        <time>2010-06-16T12:10:21Z</time>
      </trkpt>
      <trkpt lat="42.447501" lon="1.887840">
        <ele>1307.073</ele>
        <time>2010-06-16T12:15:16Z</time>
      </trkpt>
      <trkpt lat="42.445434" lon="1.888302">
        <ele>1275.080</ele>
        <time>2010-06-16T12:18:46Z</time>
      </trkpt>
      <trkpt lat="42.445048" lon="1.890315">
        <ele>1262.047</ele>
        <time>2010-06-16T12:21:19Z</time>
      </trkpt>
      <trkpt lat="42.445418" lon="1.895963">
        <ele>1247.045</ele>
        <time>2010-06-16T12:28:19Z</time>
      </trkpt>
      <trkpt lat="42.443791" lon="1.900065">
        <ele>1215.083</ele>
        <time>2010-06-16T12:34:03Z</time>
      </trkpt>
      <trkpt lat="42.444392" lon="1.901635">
        <ele>1208.065</ele>
        <time>2010-06-16T12:36:13Z</time>
      </trkpt>
      <trkpt lat="42.444407" lon="1.903216">
        <ele>1206.079</ele>
        <time>2010-06-16T12:38:10Z</time>
      </trkpt>
      <trkpt lat="42.443748" lon="1.904990">
        <ele>1195.005</ele>
        <time>2010-06-16T12:40:36Z</time>
      </trkpt>
      <trkpt lat="42.443213" lon="1.905547">
        <ele>1193.025</ele>
        <time>2010-06-16T12:41:45Z</time>
      </trkpt>
      <trkpt lat="42.440959" lon="1.910024">
        <ele>1173.006</ele>
        <time>2010-06-16T12:48:24Z</time>
      </trkpt>
      <trkpt lat="42.438023" lon="1.913783">
        <ele>1161.056</ele>
        <time>2010-06-16T12:55:08Z</time>
      </trkpt>
      <trkpt lat="42.434262" lon="1.916036">
        <ele>1152.023</ele>
        <time>2010-06-16T13:02:01Z</time>
      </trkpt>
      <trkpt lat="42.432418" lon="1.916250">
        <ele>1145.080</ele>
        <time>2010-06-16T13:05:05Z</time>
      </trkpt>
      <trkpt lat="42.432978" lon="1.918368">
        <ele>1145.018</ele>
        <time>2010-06-16T13:07:51Z</time>
      </trkpt>
      <trkpt lat="42.432493" lon="1.919410">
        <ele>1148.076</ele>
        <time>2010-06-16T13:09:23Z</time>
      </trkpt>
      <trkpt lat="42.432736" lon="1.921351">
        <ele>1149.068</ele>
        <time>2010-06-16T13:11:48Z</time>
      </trkpt>
      <trkpt lat="42.431755" lon="1.922401">
        <ele>1148.031</ele>
        <time>2010-06-16T13:13:52Z</time>
      </trkpt>
      <trkpt lat="42.431991" lon="1.923552">
        <ele>1154.061</ele>
        <time>2010-06-16T13:15:22Z</time>
      </trkpt>
      <trkpt lat="42.430159" lon="1.924981">
        <ele>1149.007</ele>
        <time>2010-06-16T13:18:53Z</time>
      </trkpt>
      <trkpt lat="42.428025" lon="1.927935">
        <ele>1144.006</ele>
        <time>2010-06-16T13:23:59Z</time>
      </trkpt>
      <trkpt lat="42.427496" lon="1.929221">
        <ele>1140.022</ele>
        <time>2010-06-16T13:25:47Z</time>
      </trkpt>
      <trkpt lat="42.426827" lon="1.929840">
        <ele>1139.019</ele>
        <time>2010-06-16T13:27:07Z</time>
      </trkpt>
      <trkpt lat="42.425763" lon="1.931621">
        <ele>1130.056</ele>
        <time>2010-06-16T13:29:57Z</time>
      </trkpt>
      <trkpt lat="42.424736" lon="1.932611">
        <ele>1127.074</ele>
        <time>2010-06-16T13:32:03Z</time>
      </trkpt>
      <trkpt lat="42.423750" lon="1.933053">
        <ele>1127.062</ele>
        <time>2010-06-16T13:33:48Z</time>
      </trkpt>
      <trkpt lat="42.423350" lon="1.933667">
        <ele>1129.014</ele>
        <time>2010-06-16T13:34:48Z</time>
      </trkpt>
      <trkpt lat="42.422545" lon="1.934228">
        <ele>1125.082</ele>
        <time>2010-06-16T13:36:19Z</time>
      </trkpt>
      <trkpt lat="42.421527" lon="1.936190">
        <ele>1120.043</ele>
        <time>2010-06-16T13:39:16Z</time>
      </trkpt>
      <trkpt lat="42.421312" lon="1.937287">
        <ele>1121.017</ele>
        <time>2010-06-16T13:40:39Z</time>
      </trkpt>
      <trkpt lat="42.419003" lon="1.940791">
        <ele>1123.006</ele>
        <time>2010-06-16T13:46:26Z</time>
      </trkpt>
      <trkpt lat="42.418434" lon="1.942502">
        <ele>1130.087</ele>
        <time>2010-06-16T13:48:44Z</time>
      </trkpt>
      <trkpt lat="42.418769" lon="1.949607">
        <ele>1158.064</ele>
        <time>2010-06-16T13:57:31Z</time>
      </trkpt>
      <trkpt lat="42.416700" lon="1.949884">
        <ele>1139.041</ele>
        <time>2010-06-16T14:00:58Z</time>
      </trkpt>
      <trkpt lat="42.415293" lon="1.948692">
        <ele>1138.069</ele>
        <time>2010-06-16T14:03:45Z</time>
      </trkpt>
      <trkpt lat="42.412860" lon="1.948490">
        <ele>1140.037</ele>
        <time>2010-06-16T14:07:49Z</time>
      </trkpt>
      <trkpt lat="42.412091" lon="1.948138">
        <ele>1140.079</ele>
        <time>2010-06-16T14:09:10Z</time>
      </trkpt>
      <trkpt lat="42.411291" lon="1.949306">
        <ele>1141.075</ele>
        <time>2010-06-16T14:11:08Z</time>
      </trkpt>
      <trkpt lat="42.409006" lon="1.950559">
        <ele>1160.028</ele>
        <time>2010-06-16T14:15:15Z</time>
      </trkpt>
      <trkpt lat="42.408419" lon="1.950326">
        <ele>1161.020</ele>
        <time>2010-06-16T14:16:15Z</time>
      </trkpt>
      <trkpt lat="42.407793" lon="1.950823">
        <ele>1165.006</ele>
        <time>2010-06-16T14:17:28Z</time>
      </trkpt>
      <trkpt lat="42.405720" lon="1.950614">
        <ele>1174.046</ele>
        <time>2010-06-16T14:20:57Z</time>
      </trkpt>
      <trkpt lat="42.404993" lon="1.949897">
        <ele>1185.023</ele>
        <time>2010-06-16T14:22:26Z</time>
      </trkpt>
      <trkpt lat="42.404007" lon="1.950400">
        <ele>1208.030</ele>
        <time>2010-06-16T14:24:11Z</time>
      </trkpt>
      <trkpt lat="42.401620" lon="1.955361">
        <ele>1281.098</ele>
        <time>2010-06-16T14:31:29Z</time>
      </trkpt>
      <trkpt lat="42.400683" lon="1.956287">
        <ele>1320.086</ele>
        <time>2010-06-16T14:33:25Z</time>
      </trkpt>
      <trkpt lat="42.400146" lon="1.956600">
        <ele>1329.048</ele>
        <time>2010-06-16T14:34:24Z</time>
      </trkpt>
      <trkpt lat="42.399509" lon="1.955942">
        <ele>1347.071</ele>
        <time>2010-06-16T14:35:44Z</time>
      </trkpt>
      <trkpt lat="42.396493" lon="1.956053">
        <ele>1351.041</ele>
        <time>2010-06-16T14:40:46Z</time>
      </trkpt>
      <trkpt lat="42.394792" lon="1.957114">
        <ele>1383.015</ele>
        <time>2010-06-16T14:43:54Z</time>
      </trkpt>
      <trkpt lat="42.394080" lon="1.958037">
        <ele>1397.006</ele>
        <time>2010-06-16T14:45:33Z</time>
      </trkpt>
      <trkpt lat="42.393222" lon="1.957808">
        <ele>1406.036</ele>
        <time>2010-06-16T14:46:59Z</time>
      </trkpt>
      <trkpt lat="42.390576" lon="1.958945">
        <ele>1455.093</ele>
        <time>2010-06-16T14:51:37Z</time>
      </trkpt>
      <trkpt lat="42.389727" lon="1.959688">
        <ele>1472.030</ele>
        <time>2010-06-16T14:53:19Z</time>
      </trkpt>
      <trkpt lat="42.388646" lon="1.959706">
        <ele>1486.098</ele>
        <time>2010-06-16T14:55:06Z</time>
      </trkpt>
      <trkpt lat="42.383463" lon="1.959184">
        <ele>1577.076</ele>
        <time>2010-06-16T15:03:48Z</time>
      </trkpt>
      <trkpt lat="42.382522" lon="1.959625">
        <ele>1595.058</ele>
        <time>2010-06-16T15:05:27Z</time>
      </trkpt>
      <trkpt lat="42.381262" lon="1.959767">
        <ele>1604.053</ele>
        <time>2010-06-16T15:07:34Z</time>
      </trkpt>
      <trkpt lat="42.376996" lon="1.961113">
        <ele>1671.004</ele>
        <time>2010-06-16T15:14:52Z</time>
      </trkpt>
      <trkpt lat="42.373936" lon="1.961315">
        <ele>1701.014</ele>
        <time>2010-06-16T15:19:59Z</time>
      </trkpt>
      <trkpt lat="42.373001" lon="1.962424">
        <ele>1707.006</ele>
        <time>2010-06-16T15:22:03Z</time>
      </trkpt>
      <trkpt lat="42.371809" lon="1.965115">
        <ele>1714.084</ele>
        <time>2010-06-16T15:25:54Z</time>
      </trkpt>
      <trkpt lat="42.370824" lon="1.965739">
        <ele>1730.091</ele>
        <time>2010-06-16T15:27:44Z</time>
      </trkpt>
      <trkpt lat="42.370607" lon="1.966593">
        <ele>1736.028</ele>
        <time>2010-06-16T15:28:51Z</time>
      </trkpt>
      <trkpt lat="42.368950" lon="1.967652">
        <ele>1750.096</ele>
        <time>2010-06-16T15:31:54Z</time>
      </trkpt>
      <trkpt lat="42.368598" lon="1.968508">
        <ele>1756.014</ele>
        <time>2010-06-16T15:33:07Z</time>
      </trkpt>
      <trkpt lat="42.368783" lon="1.969112">
        <ele>1766.086</ele>
        <time>2010-06-16T15:33:55Z</time>
      </trkpt>
      <trkpt lat="42.368472" lon="1.969542">
        <ele>1756.029</ele>
        <time>2010-06-16T15:34:38Z</time>
      </trkpt>
      <trkpt lat="42.368318" lon="1.972520">
        <ele>1774.000</ele>
        <time>2010-06-16T15:38:19Z</time>
      </trkpt>
      <trkpt lat="42.367970" lon="1.973862">
        <ele>1791.020</ele>
        <time>2010-06-16T15:40:04Z</time>
      </trkpt>
      <trkpt lat="42.368264" lon="1.976468">
        <ele>1815.006</ele>
        <time>2010-06-16T15:43:20Z</time>
      </trkpt>
      <trkpt lat="42.367955" lon="1.977202">
        <ele>1811.071</ele>
        <time>2010-06-16T15:44:22Z</time>
      </trkpt>
      <trkpt lat="42.367967" lon="1.978538">
        <ele>1820.068</ele>
        <time>2010-06-16T15:46:01Z</time>
      </trkpt>
      <trkpt lat="42.366005" lon="1.980695">
        <ele>1851.015</ele>
        <time>2010-06-16T15:50:14Z</time>
      </trkpt>
      <trkpt lat="42.365016" lon="1.980893">
        <ele>1859.063</ele>
        <time>2010-06-16T15:51:53Z</time>
      </trkpt>
      <trkpt lat="42.363278" lon="1.982985">
        <ele>1916.091</ele>
        <time>2010-06-16T15:55:47Z</time>
      </trkpt>
      <trkpt lat="42.362397" lon="1.985185">
        <ele>1960.043</ele>
        <time>2010-06-16T15:58:51Z</time>
      </trkpt>
      <trkpt lat="42.361833" lon="1.987623">
        <ele>1976.091</ele>
        <time>2010-06-16T16:02:01Z</time>
      </trkpt>
      <trkpt lat="42.360360" lon="1.989043">
        <ele>1973.081</ele>
        <time>2010-06-16T16:05:02Z</time>
      </trkpt>
      <trkpt lat="42.359603" lon="1.990088">
        <ele>1974.019</ele>
        <time>2010-06-16T16:06:50Z</time>
      </trkpt>
      <trkpt lat="42.359561" lon="1.990392">
        <ele>1973.006</ele>
        <time>2010-06-16T16:07:13Z</time>
      </trkpt>
      <trkpt lat="42.359035" lon="1.991979">
        <ele>1974.058</ele>
        <time>2010-06-16T16:09:22Z</time>
      </trkpt>
      <trkpt lat="42.360095" lon="1.994755">
        <ele>1951.085</ele>
        <time>2010-06-16T16:13:13Z</time>
      </trkpt>
      <trkpt lat="42.359696" lon="1.995551">
        <ele>1943.082</ele>
        <time>2010-06-16T16:14:23Z</time>
      </trkpt>
      <trkpt lat="42.357958" lon="1.997582">
        <ele>1920.080</ele>
        <time>2010-06-16T16:18:13Z</time>
      </trkpt>
      <trkpt lat="42.356117" lon="1.998158">
        <ele>1921.088</ele>
        <time>2010-06-16T16:21:23Z</time>
      </trkpt>
      <trkpt lat="42.355498" lon="1.999503">
        <ele>1917.050</ele>
        <time>2010-06-16T16:23:19Z</time>
      </trkpt>
      <trkpt lat="42.355291" lon="2.001570">
        <ele>1906.014</ele>
        <time>2010-06-16T16:25:54Z</time>
      </trkpt>
      <trkpt lat="42.356072" lon="2.003319">
        <ele>1928.054</ele>
        <time>2010-06-16T16:28:26Z</time>
      </trkpt>
      <trkpt lat="42.354105" lon="2.004989">
        <ele>1895.009</ele>
        <time>2010-06-16T16:32:17Z</time>
      </trkpt>
      <trkpt lat="42.353175" lon="2.006825">
        <ele>1907.006</ele>
        <time>2010-06-16T16:35:03Z</time>
      </trkpt>
      <trkpt lat="42.352848" lon="2.010655">
        <ele>1900.070</ele>
        <time>2010-06-16T16:39:48Z</time>
      </trkpt>
      <trkpt lat="42.351338" lon="2.013094">
        <ele>1932.087</ele>
        <time>2010-06-16T16:43:43Z</time>
      </trkpt>
      <trkpt lat="42.350310" lon="2.014021">
        <ele>1973.084</ele>
        <time>2010-06-16T16:45:47Z</time>
      </trkpt>
      <trkpt lat="42.348965" lon="2.014649">
        <ele>1974.062</ele>
        <time>2010-06-16T16:48:08Z</time>
      </trkpt>
      <trkpt lat="42.348074" lon="2.015816">
        <ele>1987.060</ele>
        <time>2010-06-16T16:50:12Z</time>
      </trkpt>
      <trkpt lat="42.346850" lon="2.020145">
        <ele>1980.022</ele>
        <time>2010-06-16T16:55:56Z</time>
      </trkpt>
      <trkpt lat="42.346780" lon="2.022453">
        <ele>1919.044</ele>
        <time>2010-06-16T16:58:47Z</time>
      </trkpt>
      <trkpt lat="42.346477" lon="2.023914">
        <ele>1873.005</ele>
        <time>2010-06-16T17:00:39Z</time>
      </trkpt>
      <trkpt lat="42.346256" lon="2.024403">
        <ele>1862.015</ele>
        <time>2010-06-16T17:01:20Z</time>
      </trkpt>
      <trkpt lat="42.345364" lon="2.025388">
        <ele>1848.006</ele>
        <time>2010-06-16T17:03:17Z</time>
      </trkpt>
      <trkpt lat="42.345370" lon="2.026056">
        <ele>1845.023</ele>
        <time>2010-06-16T17:04:06Z</time>
      </trkpt>
      <trkpt lat="42.346729" lon="2.027006">
        <ele>1868.070</ele>
        <time>2010-06-16T17:06:39Z</time>
      </trkpt>
      <trkpt lat="42.346464" lon="2.027678">
        <ele>1866.097</ele>
        <time>2010-06-16T17:07:35Z</time>
      </trkpt>
      <trkpt lat="42.346300" lon="2.029502">
        <ele>1870.075</ele>
        <time>2010-06-16T17:09:50Z</time>
      </trkpt>
      <trkpt lat="42.348251" lon="2.031293">
        <ele>1907.053</ele>
        <time>2010-06-16T17:13:47Z</time>
      </trkpt>
      <trkpt lat="42.345881" lon="2.033272">
        <ele>1896.085</ele>
        <time>2010-06-16T17:18:26Z</time>
      </trkpt>
      <trkpt lat="42.344982" lon="2.033468">
        <ele>1878.043</ele>
        <time>2010-06-16T17:19:56Z</time>
      </trkpt>
      <trkpt lat="42.341107" lon="2.038565">
        <ele>1815.064</ele>
        <time>2010-06-16T17:28:58Z</time>
      </trkpt>
      <trkpt lat="42.341159" lon="2.039353">
        <ele>1808.010</ele>
        <time>2010-06-16T17:29:57Z</time>
      </trkpt>
      <trkpt lat="42.341479" lon="2.039895">
        <ele>1803.006</ele>
        <time>2010-06-16T17:30:48Z</time>
      </trkpt>
      <trkpt lat="42.341531" lon="2.040744">
        <ele>1790.013</ele>
        <time>2010-06-16T17:31:51Z</time>
      </trkpt>
      <trkpt lat="42.342122" lon="2.041402">
        <ele>1802.090</ele>
        <time>2010-06-16T17:33:06Z</time>
      </trkpt>
      <trkpt lat="42.341455" lon="2.042384">
        <ele>1792.067</ele>
        <time>2010-06-16T17:34:46Z</time>
      </trkpt>
      <trkpt lat="42.339620" lon="2.043747">
        <ele>1770.035</ele>
        <time>2010-06-16T17:38:16Z</time>
      </trkpt>
      <trkpt lat="42.338865" lon="2.045033">
        <ele>1774.053</ele>
        <time>2010-06-16T17:40:17Z</time>
      </trkpt>
      <trkpt lat="42.337927" lon="2.046018">
        <ele>1772.075</ele>
        <time>2010-06-16T17:42:15Z</time>
      </trkpt>
      <trkpt lat="42.335595" lon="2.047085">
        <ele>1746.085</ele>
        <time>2010-06-16T17:46:22Z</time>
      </trkpt>
      <trkpt lat="42.335842" lon="2.049813">
        <ele>1735.089</ele>
        <time>2010-06-16T17:49:46Z</time>
      </trkpt>
      <trkpt lat="42.336390" lon="2.050654">
        <ele>1728.017</ele>
        <time>2010-06-16T17:51:09Z</time>
      </trkpt>
      <trkpt lat="42.335314" lon="2.051277">
        <ele>1702.006</ele>
        <time>2010-06-16T17:53:05Z</time>
      </trkpt>
      <trkpt lat="42.334904" lon="2.050676">
        <ele>1709.037</ele>
        <time>2010-06-16T17:54:05Z</time>
      </trkpt>
      <trkpt lat="42.334731" lon="2.051589">
        <ele>1696.084</ele>
        <time>2010-06-16T17:55:15Z</time>
      </trkpt>
      <trkpt lat="42.334281" lon="2.051596">
        <ele>1690.081</ele>
        <time>2010-06-16T17:56:00Z</time>
      </trkpt>
      <trkpt lat="42.334382" lon="2.052869">
        <ele>1674.029</ele>
        <time>2010-06-16T17:57:35Z</time>
      </trkpt>
      <trkpt lat="42.335200" lon="2.053767">
        <ele>1642.067</ele>
        <time>2010-06-16T17:59:21Z</time>
      </trkpt>
      <trkpt lat="42.334578" lon="2.054869">
        <ele>1627.029</ele>
        <time>2010-06-16T18:01:04Z</time>
      </trkpt>
      <trkpt lat="42.335343" lon="2.054797">
        <ele>1633.062</ele>
        <time>2010-06-16T18:02:19Z</time>
      </trkpt>
      <trkpt lat="42.336461" lon="2.053809">
        <ele>1627.083</ele>
        <time>2010-06-16T18:04:34Z</time>
      </trkpt>
      <trkpt lat="42.336246" lon="2.055087">
        <ele>1623.011</ele>
        <time>2010-06-16T18:06:11Z</time>
      </trkpt>
      <trkpt lat="42.334776" lon="2.057051">
        <ele>1592.006</ele>
        <time>2010-06-16T18:09:38Z</time>
      </trkpt>
      <trkpt lat="42.334667" lon="2.060209">
        <ele>1590.015</ele>
        <time>2010-06-16T18:13:31Z</time>
      </trkpt>
      <trkpt lat="42.334188" lon="2.062158">
        <ele>1560.022</ele>
        <time>2010-06-16T18:16:03Z</time>
      </trkpt>
      <trkpt lat="42.333878" lon="2.062769">
        <ele>1551.059</ele>
        <time>2010-06-16T18:16:58Z</time>
      </trkpt>
      <trkpt lat="42.333551" lon="2.066841">
        <ele>1519.067</ele>
        <time>2010-06-16T18:22:00Z</time>
      </trkpt>
      <trkpt lat="42.334503" lon="2.067676">
        <ele>1502.065</ele>
        <time>2010-06-16T18:23:55Z</time>
      </trkpt>
      <trkpt lat="42.335902" lon="2.068080">
        <ele>1494.047</ele>
        <time>2010-06-16T18:26:18Z</time>
      </trkpt>
      <trkpt lat="42.335050" lon="2.068457">
        <ele>1489.031</ele>
        <time>2010-06-16T18:27:47Z</time>
      </trkpt>
      <trkpt lat="42.333969" lon="2.068473">
        <ele>1488.061</ele>
        <time>2010-06-16T18:29:35Z</time>
      </trkpt>
      <trkpt lat="42.334788" lon="2.069493">
        <ele>1459.007</ele>
        <time>2010-06-16T18:31:27Z</time>
      </trkpt>
      <trkpt lat="42.336410" lon="2.069651">
        <ele>1466.006</ele>
        <time>2010-06-16T18:34:09Z</time>
      </trkpt>
      <trkpt lat="42.336334" lon="2.071291">
        <ele>1453.072</ele>
        <time>2010-06-16T18:36:12Z</time>
      </trkpt>
      <trkpt lat="42.336072" lon="2.072326">
        <ele>1441.099</ele>
        <time>2010-06-16T18:37:33Z</time>
      </trkpt>
      <trkpt lat="42.333200" lon="2.073582">
        <ele>1418.096</ele>
        <time>2010-06-16T18:42:35Z</time>
      </trkpt>
      <trkpt lat="42.332888" lon="2.074012">
        <ele>1401.064</ele>
        <time>2010-06-16T18:43:18Z</time>
      </trkpt>
      <trkpt lat="42.332631" lon="2.075654">
        <ele>1413.062</ele>
        <time>2010-06-16T18:45:23Z</time>
      </trkpt>
      <trkpt lat="42.331905" lon="2.074937">
        <ele>1391.074</ele>
        <time>2010-06-16T18:46:53Z</time>
      </trkpt>
      <trkpt lat="42.331188" lon="2.075311">
        <ele>1398.085</ele>
        <time>2010-06-16T18:48:10Z</time>
      </trkpt>
      <trkpt lat="42.330241" lon="2.075143">
        <ele>1391.089</ele>
        <time>2010-06-16T18:49:45Z</time>
      </trkpt>
      <trkpt lat="42.329892" lon="2.076544">
        <ele>1404.017</ele>
        <time>2010-06-16T18:51:35Z</time>
      </trkpt>
      <trkpt lat="42.329903" lon="2.078000">
        <ele>1423.006</ele>
        <time>2010-06-16T18:53:22Z</time>
      </trkpt>
      <trkpt lat="42.328293" lon="2.079359">
        <ele>1398.067</ele>
        <time>2010-06-16T18:56:33Z</time>
      </trkpt>
      <trkpt lat="42.328167" lon="2.080514">
        <ele>1397.064</ele>
        <time>2010-06-16T18:57:59Z</time>
      </trkpt>
      <trkpt lat="42.328424" lon="2.084515">
        <ele>1389.031</ele>
        <time>2010-06-16T19:02:55Z</time>
      </trkpt>
      <trkpt lat="42.329338" lon="2.086140">
        <ele>1393.019</ele>
        <time>2010-06-16T19:05:26Z</time>
      </trkpt>
      <trkpt lat="42.327376" lon="2.088536">
        <ele>1348.047</ele>
        <time>2010-06-16T19:09:52Z</time>
      </trkpt>
      <trkpt lat="42.327168" lon="2.090723">
        <ele>1348.059</ele>
        <time>2010-06-16T19:12:34Z</time>
      </trkpt>
      <trkpt lat="42.325097" lon="2.096518">
        <ele>1274.079</ele>
        <time>2010-06-16T19:20:30Z</time>
      </trkpt>
      <trkpt lat="42.324114" lon="2.097442">
        <ele>1258.005</ele>
        <time>2010-06-16T19:22:30Z</time>
      </trkpt>
      <trkpt lat="42.321640" lon="2.097781">
        <ele>1215.025</ele>
        <time>2010-06-16T19:26:40Z</time>
      </trkpt>
      <trkpt lat="42.319258" lon="2.098422">
        <ele>1176.006</ele>
        <time>2010-06-16T19:30:43Z</time>
      </trkpt>
      <trkpt lat="42.318810" lon="2.098731">
        <ele>1168.066</ele>
        <time>2010-06-16T19:31:33Z</time>
      </trkpt>
      <trkpt lat="42.316295" lon="2.099495">
        <ele>1127.023</ele>
        <time>2010-06-16T19:35:51Z</time>
      </trkpt>
      <trkpt lat="42.315620" lon="2.099566">
        <ele>1113.040</ele>
        <time>2010-06-16T19:36:59Z</time>
      </trkpt>
      <trkpt lat="42.316710" lon="2.100764">
        <ele>1114.058</ele>
        <time>2010-06-16T19:39:19Z</time>
      </trkpt>
      <trkpt lat="42.316719" lon="2.101856">
        <ele>1115.086</ele>
        <time>2010-06-16T19:40:39Z</time>
      </trkpt>
      <trkpt lat="42.316139" lon="2.102653">
        <ele>1125.078</ele>
        <time>2010-06-16T19:42:03Z</time>
      </trkpt>
      <trkpt lat="42.316464" lon="2.103801">
        <ele>1138.077</ele>
        <time>2010-06-16T19:43:34Z</time>
      </trkpt>
      <trkpt lat="42.316728" lon="2.103069">
        <ele>1136.061</ele>
        <time>2010-06-16T19:44:34Z</time>
      </trkpt>
      <trkpt lat="42.317316" lon="2.103425">
        <ele>1149.027</ele>
        <time>2010-06-16T19:45:38Z</time>
      </trkpt>
      <trkpt lat="42.318083" lon="2.103596">
        <ele>1163.006</ele>
        <time>2010-06-16T19:46:57Z</time>
      </trkpt>
      <trkpt lat="42.320512" lon="2.103258">
        <ele>1199.096</ele>
        <time>2010-06-16T19:51:01Z</time>
      </trkpt>
      <trkpt lat="42.320703" lon="2.104651">
        <ele>1207.013</ele>
        <time>2010-06-16T19:52:45Z</time>
      </trkpt>
      <trkpt lat="42.321754" lon="2.106639">
        <ele>1219.020</ele>
        <time>2010-06-16T19:55:46Z</time>
      </trkpt>
      <trkpt lat="42.322558" lon="2.105717">
        <ele>1245.098</ele>
        <time>2010-06-16T19:57:31Z</time>
      </trkpt>
      <trkpt lat="42.322004" lon="2.103965">
        <ele>1237.056</ele>
        <time>2010-06-16T19:59:53Z</time>
      </trkpt>
      <trkpt lat="42.323136" lon="2.104799">
        <ele>1264.068</ele>
        <time>2010-06-16T20:02:02Z</time>
      </trkpt>
      <trkpt lat="42.323285" lon="2.106617">
        <ele>1273.053</ele>
        <time>2010-06-16T20:04:17Z</time>
      </trkpt>
      <trkpt lat="42.323972" lon="2.108064">
        <ele>1290.004</ele>
        <time>2010-06-16T20:06:25Z</time>
      </trkpt>
      <trkpt lat="42.324068" lon="2.108851">
        <ele>1295.014</ele>
        <time>2010-06-16T20:07:23Z</time>
      </trkpt>
      <trkpt lat="42.324974" lon="2.109566">
        <ele>1322.006</ele>
        <time>2010-06-16T20:09:09Z</time>
      </trkpt>
      <trkpt lat="42.325432" lon="2.110592">
        <ele>1325.064</ele>
        <time>2010-06-16T20:10:36Z</time>
      </trkpt>
      <trkpt lat="42.325839" lon="2.110707">
        <ele>1331.021</ele>
        <time>2010-06-16T20:11:19Z</time>
      </trkpt>
      <trkpt lat="42.325352" lon="2.111867">
        <ele>1306.088</ele>
        <time>2010-06-16T20:12:58Z</time>
      </trkpt>
      <trkpt lat="42.326577" lon="2.113003">
        <ele>1357.016</ele>
        <time>2010-06-16T20:15:26Z</time>
      </trkpt>
      <trkpt lat="42.326400" lon="2.113369">
        <ele>1341.064</ele>
        <time>2010-06-16T20:15:59Z</time>
      </trkpt>
      <trkpt lat="42.326359" lon="2.113977">
        <ele>1341.046</ele>
        <time>2010-06-16T20:16:44Z</time>
      </trkpt>
      <trkpt lat="42.327086" lon="2.114816">
        <ele>1383.057</ele>
        <time>2010-06-16T20:18:19Z</time>
      </trkpt>
      <trkpt lat="42.326281" lon="2.115556">
        <ele>1357.000</ele>
        <time>2010-06-16T20:19:56Z</time>
      </trkpt>
      <trkpt lat="42.326692" lon="2.116278">
        <ele>1371.020</ele>
        <time>2010-06-16T20:21:03Z</time>
      </trkpt>
      <trkpt lat="42.326958" lon="2.115668">
        <ele>1377.006</ele>
        <time>2010-06-16T20:21:56Z</time>
      </trkpt>
      <trkpt lat="42.328127" lon="2.115530">
        <ele>1417.064</ele>
        <time>2010-06-16T20:23:54Z</time>
      </trkpt>
      <trkpt lat="42.327709" lon="2.113897">
        <ele>1406.041</ele>
        <time>2010-06-16T20:26:01Z</time>
      </trkpt>
      <trkpt lat="42.327973" lon="2.112983">
        <ele>1430.048</ele>
        <time>2010-06-16T20:27:14Z</time>
      </trkpt>
      <trkpt lat="42.327654" lon="2.112563">
        <ele>1419.046</ele>
        <time>2010-06-16T20:27:59Z</time>
      </trkpt>
      <trkpt lat="42.327868" lon="2.111164">
        <ele>1417.074</ele>
        <time>2010-06-16T20:29:44Z</time>
      </trkpt>
      <trkpt lat="42.328400" lon="2.110004">
        <ele>1438.016</ele>
        <time>2010-06-16T20:31:26Z</time>
      </trkpt>
      <trkpt lat="42.328805" lon="2.109998">
        <ele>1462.089</ele>
        <time>2010-06-16T20:32:06Z</time>
      </trkpt>
      <trkpt lat="42.328480" lon="2.108789">
        <ele>1467.006</ele>
        <time>2010-06-16T20:33:41Z</time>
      </trkpt>
      <trkpt lat="42.329833" lon="2.108952">
        <ele>1511.026</ele>
        <time>2010-06-16T20:35:58Z</time>
      </trkpt>
      <trkpt lat="42.332940" lon="2.109029">
        <ele>1647.006</ele>
        <time>2010-06-16T20:41:08Z</time>
      </trkpt>
      <trkpt lat="42.333990" lon="2.110775">
        <ele>1690.017</ele>
        <time>2010-06-16T20:43:54Z</time>
      </trkpt>
      <trkpt lat="42.337611" lon="2.113212">
        <ele>1828.084</ele>
        <time>2010-06-16T20:50:40Z</time>
      </trkpt>
      <trkpt lat="42.337570" lon="2.113759">
        <ele>1831.021</ele>
        <time>2010-06-16T20:51:20Z</time>
      </trkpt>
      <trkpt lat="42.338348" lon="2.115326">
        <ele>1858.079</ele>
        <time>2010-06-16T20:53:40Z</time>
      </trkpt>
      <trkpt lat="42.338352" lon="2.115872">
        <ele>1860.037</ele>
        <time>2010-06-16T20:54:21Z</time>
      </trkpt>
      <trkpt lat="42.338822" lon="2.118415">
        <ele>1876.049</ele>
        <time>2010-06-16T20:57:34Z</time>
      </trkpt>
      <trkpt lat="42.338798" lon="2.121147">
        <ele>1877.095</ele>
        <time>2010-06-16T21:00:56Z</time>
      </trkpt>
      <trkpt lat="42.339866" lon="2.119554">
        <ele>1883.049</ele>
        <time>2010-06-16T21:03:35Z</time>
      </trkpt>
      <trkpt lat="42.341392" lon="2.118865">
        <ele>1866.023</ele>
        <time>2010-06-16T21:06:17Z</time>
      </trkpt>
      <trkpt lat="42.345202" lon="2.116626">
        <ele>1876.006</ele>
        <time>2010-06-16T21:13:12Z</time>
      </trkpt>
      <trkpt lat="42.349701" lon="2.116078">
        <ele>1846.048</ele>
        <time>2010-06-16T21:20:44Z</time>
      </trkpt>
      <trkpt lat="42.354162" lon="2.116501">
        <ele>1796.035</ele>
        <time>2010-06-16T21:28:12Z</time>
      </trkpt>
      <trkpt lat="42.355019" lon="2.116610">
        <ele>1799.042</ele>
        <time>2010-06-16T21:29:38Z</time>
      </trkpt>
      <trkpt lat="42.355162" lon="2.117701">
        <ele>1827.060</ele>
        <time>2010-06-16T21:31:00Z</time>
      </trkpt>
      <trkpt lat="42.354044" lon="2.118688">
        <ele>1819.068</ele>
        <time>2010-06-16T21:33:13Z</time>
      </trkpt>
      <trkpt lat="42.350009" lon="2.120991">
        <ele>1742.050</ele>
        <time>2010-06-16T21:40:31Z</time>
      </trkpt>
      <trkpt lat="42.348501" lon="2.124047">
        <ele>1716.026</ele>
        <time>2010-06-16T21:45:04Z</time>
      </trkpt>
      <trkpt lat="42.348065" lon="2.125874">
        <ele>1703.047</ele>
        <time>2010-06-16T21:47:25Z</time>
      </trkpt>
      <trkpt lat="42.347057" lon="2.141428">
        <ele>1524.011</ele>
        <time>2010-06-16T22:06:39Z</time>
      </trkpt>
      <trkpt lat="42.347438" lon="2.144276">
        <ele>1423.006</ele>
        <time>2010-06-16T22:10:14Z</time>
      </trkpt>
      <trkpt lat="42.348581" lon="2.146567">
        <ele>1344.091</ele>
        <time>2010-06-16T22:13:38Z</time>
      </trkpt>
      <trkpt lat="42.350104" lon="2.145454">
        <ele>1380.068</ele>
        <time>2010-06-16T22:16:32Z</time>
      </trkpt>
      <trkpt lat="42.350465" lon="2.145571">
        <ele>1391.045</ele>
        <time>2010-06-16T22:17:08Z</time>
      </trkpt>
      <trkpt lat="42.349581" lon="2.147829">
        <ele>1359.063</ele>
        <time>2010-06-16T22:20:18Z</time>
      </trkpt>
      <trkpt lat="42.348066" lon="2.149974">
        <ele>1334.011</ele>
        <time>2010-06-16T22:23:57Z</time>
      </trkpt>
      <trkpt lat="42.347852" lon="2.151434">
        <ele>1334.023</ele>
        <time>2010-06-16T22:25:47Z</time>
      </trkpt>
      <trkpt lat="42.347396" lon="2.156843">
        <ele>1304.023</ele>
        <time>2010-06-16T22:32:31Z</time>
      </trkpt>
      <trkpt lat="42.346287" lon="2.152972">
        <ele>1266.083</ele>
        <time>2010-06-16T22:37:37Z</time>
      </trkpt>
      <trkpt lat="42.346577" lon="2.155700">
        <ele>1265.011</ele>
        <time>2010-06-16T22:41:01Z</time>
      </trkpt>
      <trkpt lat="42.346407" lon="2.157038">
        <ele>1246.006</ele>
        <time>2010-06-16T22:42:41Z</time>
      </trkpt>
      <trkpt lat="42.346865" lon="2.158064">
        <ele>1261.011</ele>
        <time>2010-06-16T22:44:10Z</time>
      </trkpt>
      <trkpt lat="42.346870" lon="2.158853">
        <ele>1240.058</ele>
        <time>2010-06-16T22:45:09Z</time>
      </trkpt>
      <trkpt lat="42.347687" lon="2.159631">
        <ele>1251.075</ele>
        <time>2010-06-16T22:46:48Z</time>
      </trkpt>
      <trkpt lat="42.348463" lon="2.161078">
        <ele>1228.043</ele>
        <time>2010-06-16T22:49:00Z</time>
      </trkpt>
      <trkpt lat="42.349366" lon="2.161430">
        <ele>1260.061</ele>
        <time>2010-06-16T22:50:34Z</time>
      </trkpt>
      <trkpt lat="42.350775" lon="2.163232">
        <ele>1228.013</ele>
        <time>2010-06-16T22:53:48Z</time>
      </trkpt>
      <trkpt lat="42.353570" lon="2.163681">
        <ele>1311.057</ele>
        <time>2010-06-16T22:58:30Z</time>
      </trkpt>
      <trkpt lat="42.356731" lon="2.164914">
        <ele>1327.000</ele>
        <time>2010-06-16T23:04:00Z</time>
      </trkpt>
      <trkpt lat="42.358480" lon="2.163920">
        <ele>1335.020</ele>
        <time>2010-06-16T23:07:09Z</time>
      </trkpt>
      <trkpt lat="42.358708" lon="2.164281">
        <ele>1327.006</ele>
        <time>2010-06-16T23:07:44Z</time>
      </trkpt>
      <trkpt lat="42.360387" lon="2.166080">
        <ele>1365.024</ele>
        <time>2010-06-16T23:11:19Z</time>
      </trkpt>
      <trkpt lat="42.360530" lon="2.167171">
        <ele>1367.051</ele>
        <time>2010-06-16T23:12:40Z</time>
      </trkpt>
      <trkpt lat="42.362480" lon="2.168967">
        <ele>1413.018</ele>
        <time>2010-06-16T23:16:37Z</time>
      </trkpt>
      <trkpt lat="42.363476" lon="2.169743">
        <ele>1411.046</ele>
        <time>2010-06-16T23:18:32Z</time>
      </trkpt>
      <trkpt lat="42.364726" lon="2.168209">
        <ele>1436.034</ele>
        <time>2010-06-16T23:21:21Z</time>
      </trkpt>
      <trkpt lat="42.365578" lon="2.167833">
        <ele>1433.026</ele>
        <time>2010-06-16T23:22:50Z</time>
      </trkpt>
      <trkpt lat="42.366471" lon="2.166728">
        <ele>1495.042</ele>
        <time>2010-06-16T23:24:51Z</time>
      </trkpt>
      <trkpt lat="42.369252" lon="2.165234">
        <ele>1480.022</ele>
        <time>2010-06-16T23:29:50Z</time>
      </trkpt>
      <trkpt lat="42.369965" lon="2.164253">
        <ele>1516.014</ele>
        <time>2010-06-16T23:31:32Z</time>
      </trkpt>
      <trkpt lat="42.372571" lon="2.163429">
        <ele>1583.006</ele>
        <time>2010-06-16T23:36:01Z</time>
      </trkpt>
      <trkpt lat="42.373153" lon="2.162996">
        <ele>1586.023</ele>
        <time>2010-06-16T23:37:06Z</time>
      </trkpt>
      <trkpt lat="42.373684" lon="2.161653">
        <ele>1594.080</ele>
        <time>2010-06-16T23:38:59Z</time>
      </trkpt>
      <trkpt lat="42.374945" lon="2.161758">
        <ele>1681.057</ele>
        <time>2010-06-16T23:41:05Z</time>
      </trkpt>
      <trkpt lat="42.376205" lon="2.161559">
        <ele>1683.045</ele>
        <time>2010-06-16T23:43:13Z</time>
      </trkpt>
      <trkpt lat="42.379391" lon="2.160059">
        <ele>1701.083</ele>
        <time>2010-06-16T23:48:50Z</time>
      </trkpt>
      <trkpt lat="42.380608" lon="2.160164">
        <ele>1764.055</ele>
        <time>2010-06-16T23:50:53Z</time>
      </trkpt>
      <trkpt lat="42.382225" lon="2.159596">
        <ele>1778.073</ele>
        <time>2010-06-16T23:53:40Z</time>
      </trkpt>
      <trkpt lat="42.384018" lon="2.158479">
        <ele>1780.085</ele>
        <time>2010-06-16T23:56:57Z</time>
      </trkpt>
      <trkpt lat="42.386086" lon="2.158026">
        <ele>1822.013</ele>
        <time>2010-06-17T00:00:27Z</time>
      </trkpt>
      <trkpt lat="42.387737" lon="2.156060">
        <ele>1879.006</ele>
        <time>2010-06-17T00:04:07Z</time>
      </trkpt>
      <trkpt lat="42.388907" lon="2.155984">
        <ele>1880.026</ele>
        <time>2010-06-17T00:06:05Z</time>
      </trkpt>
      <trkpt lat="42.389981" lon="2.154998">
        <ele>1910.073</ele>
        <time>2010-06-17T00:08:14Z</time>
      </trkpt>
      <trkpt lat="42.390288" lon="2.153900">
        <ele>1943.090</ele>
        <time>2010-06-17T00:09:41Z</time>
      </trkpt>
      <trkpt lat="42.392574" lon="2.152472">
        <ele>1979.078</ele>
        <time>2010-06-17T00:13:53Z</time>
      </trkpt>
      <trkpt lat="42.395813" lon="2.152064">
        <ele>1967.026</ele>
        <time>2010-06-17T00:19:18Z</time>
      </trkpt>
      <trkpt lat="42.397482" lon="2.152406">
        <ele>1958.048</ele>
        <time>2010-06-17T00:22:08Z</time>
      </trkpt>
      <trkpt lat="42.398171" lon="2.154280">
        <ele>1962.016</ele>
        <time>2010-06-17T00:24:42Z</time>
      </trkpt>
      <trkpt lat="42.396423" lon="2.155379">
        <ele>1952.076</ele>
        <time>2010-06-17T00:27:55Z</time>
      </trkpt>
      <trkpt lat="42.397950" lon="2.154812">
        <ele>1966.013</ele>
        <time>2010-06-17T00:30:33Z</time>
      </trkpt>
      <trkpt lat="42.398446" lon="2.154988">
        <ele>1975.006</ele>
        <time>2010-06-17T00:31:25Z</time>
      </trkpt>
      <trkpt lat="42.398592" lon="2.156383">
        <ele>1988.030</ele>
        <time>2010-06-17T00:33:09Z</time>
      </trkpt>
      <trkpt lat="42.399876" lon="2.159586">
        <ele>2041.027</ele>
        <time>2010-06-17T00:37:38Z</time>
      </trkpt>
      <trkpt lat="42.402379" lon="2.163198">
        <ele>2100.084</ele>
        <time>2010-06-17T00:43:45Z</time>
      </trkpt>
      <trkpt lat="42.403831" lon="2.164637">
        <ele>2126.072</ele>
        <time>2010-06-17T00:46:44Z</time>
      </trkpt>
      <trkpt lat="42.405772" lon="2.165401">
        <ele>2149.070</ele>
        <time>2010-06-17T00:50:07Z</time>
      </trkpt>
      <trkpt lat="42.406092" lon="2.165943">
        <ele>2159.052</ele>
        <time>2010-06-17T00:50:58Z</time>
      </trkpt>
      <trkpt lat="42.406492" lon="2.165270">
        <ele>2170.056</ele>
        <time>2010-06-17T00:52:02Z</time>
      </trkpt>
      <trkpt lat="42.407431" lon="2.164407">
        <ele>2225.059</ele>
        <time>2010-06-17T00:53:55Z</time>
      </trkpt>
      <trkpt lat="42.408419" lon="2.163968">
        <ele>2244.014</ele>
        <time>2010-06-17T00:55:39Z</time>
      </trkpt>
      <trkpt lat="42.408647" lon="2.164391">
        <ele>2257.006</ele>
        <time>2010-06-17T00:56:17Z</time>
      </trkpt>
      <trkpt lat="42.409323" lon="2.164503">
        <ele>2278.014</ele>
        <time>2010-06-17T00:57:25Z</time>
      </trkpt>
      <trkpt lat="42.411357" lon="2.165448">
        <ele>2324.071</ele>
        <time>2010-06-17T01:01:02Z</time>
      </trkpt>
      <trkpt lat="42.413981" lon="2.167176">
        <ele>2378.018</ele>
        <time>2010-06-17T01:05:53Z</time>
      </trkpt>
      <trkpt lat="42.415667" lon="2.169888">
        <ele>2424.066</ele>
        <time>2010-06-17T01:10:16Z</time>
      </trkpt>
      <trkpt lat="42.417534" lon="2.172842">
        <ele>2467.094</ele>
        <time>2010-06-17T01:15:02Z</time>
      </trkpt>
      <trkpt lat="42.419576" lon="2.175003">
        <ele>2542.086</ele>
        <time>2010-06-17T01:19:22Z</time>
      </trkpt>
      <trkpt lat="42.420713" lon="2.176568">
        <ele>2617.035</ele>
        <time>2010-06-17T01:22:04Z</time>
      </trkpt>
      <trkpt lat="42.420403" lon="2.177362">
        <ele>2644.086</ele>
        <time>2010-06-17T01:23:11Z</time>
      </trkpt>
      <trkpt lat="42.418530" lon="2.179817">
        <ele>2752.014</ele>
        <time>2010-06-17T01:27:32Z</time>
      </trkpt>
      <trkpt lat="42.418313" lon="2.181036">
        <ele>2778.006</ele>
        <time>2010-06-17T01:29:04Z</time>
      </trkpt>
      <trkpt lat="42.418335" lon="2.184135">
        <ele>2766.042</ele>
        <time>2010-06-17T01:32:52Z</time>
      </trkpt>
      <trkpt lat="42.417637" lon="2.187304">
        <ele>2761.099</ele>
        <time>2010-06-17T01:36:57Z</time>
      </trkpt>
      <trkpt lat="42.417648" lon="2.188823">
        <ele>2759.056</ele>
        <time>2010-06-17T01:38:50Z</time>
      </trkpt>
      <trkpt lat="42.418483" lon="2.192216">
        <ele>2762.074</ele>
        <time>2010-06-17T01:43:13Z</time>
      </trkpt>
      <trkpt lat="42.418148" lon="2.195866">
        <ele>2702.072</ele>
        <time>2010-06-17T01:47:45Z</time>
      </trkpt>
      <trkpt lat="42.416644" lon="2.199653">
        <ele>2776.094</ele>
        <time>2010-06-17T01:53:02Z</time>
      </trkpt>
      <trkpt lat="42.416342" lon="2.201541">
        <ele>2796.012</ele>
        <time>2010-06-17T01:55:25Z</time>
      </trkpt>
      <trkpt lat="42.416801" lon="2.202811">
        <ele>2790.032</ele>
        <time>2010-06-17T01:57:11Z</time>
      </trkpt>
      <trkpt lat="42.416819" lon="2.205485">
        <ele>2787.005</ele>
        <time>2010-06-17T02:00:28Z</time>
      </trkpt>
      <trkpt lat="42.416515" lon="2.207008">
        <ele>2766.006</ele>
        <time>2010-06-17T02:02:24Z</time>
      </trkpt>
      <trkpt lat="42.416751" lon="2.208585">
        <ele>2753.060</ele>
        <time>2010-06-17T02:04:24Z</time>
      </trkpt>
      <trkpt lat="42.417382" lon="2.208699">
        <ele>2734.027</ele>
        <time>2010-06-17T02:05:27Z</time>
      </trkpt>
      <trkpt lat="42.418107" lon="2.209419">
        <ele>2682.024</ele>
        <time>2010-06-17T02:06:56Z</time>
      </trkpt>
      <trkpt lat="42.418381" lon="2.209902">
        <ele>2673.042</ele>
        <time>2010-06-17T02:07:42Z</time>
      </trkpt>
      <trkpt lat="42.417363" lon="2.212528">
        <ele>2623.070</ele>
        <time>2010-06-17T02:11:21Z</time>
      </trkpt>
      <trkpt lat="42.417193" lon="2.213928">
        <ele>2602.092</ele>
        <time>2010-06-17T02:13:06Z</time>
      </trkpt>
      <trkpt lat="42.417078" lon="2.216968">
        <ele>2567.071</ele>
        <time>2010-06-17T02:16:50Z</time>
      </trkpt>
      <trkpt lat="42.416467" lon="2.219771">
        <ele>2538.041</ele>
        <time>2010-06-17T02:20:27Z</time>
      </trkpt>
      <trkpt lat="42.416613" lon="2.221349">
        <ele>2526.015</ele>
        <time>2010-06-17T02:22:24Z</time>
      </trkpt>
      <trkpt lat="42.417392" lon="2.223406">
        <ele>2481.006</ele>
        <time>2010-06-17T02:25:15Z</time>
      </trkpt>
      <trkpt lat="42.418159" lon="2.223578">
        <ele>2474.086</ele>
        <time>2010-06-17T02:26:33Z</time>
      </trkpt>
      <trkpt lat="42.418347" lon="2.224731">
        <ele>2452.023</ele>
        <time>2010-06-17T02:27:59Z</time>
      </trkpt>
      <trkpt lat="42.418760" lon="2.225941">
        <ele>2441.010</ele>
        <time>2010-06-17T02:29:39Z</time>
      </trkpt>
      <trkpt lat="42.418951" lon="2.227580">
        <ele>2418.098</ele>
        <time>2010-06-17T02:31:42Z</time>
      </trkpt>
      <trkpt lat="42.418696" lon="2.229832">
        <ele>2418.076</ele>
        <time>2010-06-17T02:34:30Z</time>
      </trkpt>
      <trkpt lat="42.417944" lon="2.231732">
        <ele>2414.068</ele>
        <time>2010-06-17T02:37:08Z</time>
      </trkpt>
      <trkpt lat="42.417729" lon="2.233315">
        <ele>2424.043</ele>
        <time>2010-06-17T02:39:07Z</time>
      </trkpt>
      <trkpt lat="42.417330" lon="2.234292">
        <ele>2422.064</ele>
        <time>2010-06-17T02:40:30Z</time>
      </trkpt>
      <trkpt lat="42.417426" lon="2.235081">
        <ele>2442.010</ele>
        <time>2010-06-17T02:41:29Z</time>
      </trkpt>
      <trkpt lat="42.416891" lon="2.235878">
        <ele>2448.006</ele>
        <time>2010-06-17T02:42:49Z</time>
      </trkpt>
      <trkpt lat="42.416319" lon="2.237951">
        <ele>2477.063</ele>
        <time>2010-06-17T02:45:33Z</time>
      </trkpt>
      <trkpt lat="42.416329" lon="2.239470">
        <ele>2489.090</ele>
        <time>2010-06-17T02:47:24Z</time>
      </trkpt>
      <trkpt lat="42.416923" lon="2.240800">
        <ele>2500.057</ele>
        <time>2010-06-17T02:49:19Z</time>
      </trkpt>
      <trkpt lat="42.417528" lon="2.243770">
        <ele>2490.015</ele>
        <time>2010-06-17T02:53:06Z</time>
      </trkpt>
      <trkpt lat="42.418206" lon="2.244066">
        <ele>2451.073</ele>
        <time>2010-06-17T02:54:18Z</time>
      </trkpt>
      <trkpt lat="42.419156" lon="2.244845">
        <ele>2421.045</ele>
        <time>2010-06-17T02:56:09Z</time>
      </trkpt>
      <trkpt lat="42.419704" lon="2.245993">
        <ele>2405.056</ele>
        <time>2010-06-17T02:57:51Z</time>
      </trkpt>
      <trkpt lat="42.419987" lon="2.247934">
        <ele>2388.059</ele>
        <time>2010-06-17T03:00:16Z</time>
      </trkpt>
      <trkpt lat="42.420048" lon="2.250304">
        <ele>2350.014</ele>
        <time>2010-06-17T03:03:11Z</time>
      </trkpt>
      <trkpt lat="42.420862" lon="2.250902">
        <ele>2346.006</ele>
        <time>2010-06-17T03:04:45Z</time>
      </trkpt>
      <trkpt lat="42.421227" lon="2.251566">
        <ele>2333.064</ele>
        <time>2010-06-17T03:05:46Z</time>
      </trkpt>
      <trkpt lat="42.421187" lon="2.252296">
        <ele>2323.081</ele>
        <time>2010-06-17T03:06:40Z</time>
      </trkpt>
      <trkpt lat="42.419444" lon="2.254444">
        <ele>2268.068</ele>
        <time>2010-06-17T03:10:36Z</time>
      </trkpt>
      <trkpt lat="42.418748" lon="2.258098">
        <ele>2202.086</ele>
        <time>2010-06-17T03:15:14Z</time>
      </trkpt>
      <trkpt lat="42.418758" lon="2.259678">
        <ele>2166.064</ele>
        <time>2010-06-17T03:17:10Z</time>
      </trkpt>
      <trkpt lat="42.420613" lon="2.261054">
        <ele>2149.096</ele>
        <time>2010-06-17T03:20:42Z</time>
      </trkpt>
      <trkpt lat="42.421115" lon="2.262082">
        <ele>2134.093</ele>
        <time>2010-06-17T03:22:13Z</time>
      </trkpt>
      <trkpt lat="42.421441" lon="2.263840">
        <ele>2090.065</ele>
        <time>2010-06-17T03:24:28Z</time>
      </trkpt>
      <trkpt lat="42.421283" lon="2.267306">
        <ele>2006.021</ele>
        <time>2010-06-17T03:28:44Z</time>
      </trkpt>
      <trkpt lat="42.421467" lon="2.267912">
        <ele>1998.006</ele>
        <time>2010-06-17T03:29:32Z</time>
      </trkpt>
      <trkpt lat="42.419948" lon="2.269814">
        <ele>1961.048</ele>
        <time>2010-06-17T03:32:59Z</time>
      </trkpt>
      <trkpt lat="42.419684" lon="2.270789">
        <ele>1954.015</ele>
        <time>2010-06-17T03:34:17Z</time>
      </trkpt>
      <trkpt lat="42.418742" lon="2.271225">
        <ele>1927.022</ele>
        <time>2010-06-17T03:35:56Z</time>
      </trkpt>
      <trkpt lat="42.417847" lon="2.272208">
        <ele>1910.050</ele>
        <time>2010-06-17T03:37:52Z</time>
      </trkpt>
      <trkpt lat="42.416768" lon="2.272464">
        <ele>1885.028</ele>
        <time>2010-06-17T03:39:40Z</time>
      </trkpt>
      <trkpt lat="42.416324" lon="2.273441">
        <ele>1874.010</ele>
        <time>2010-06-17T03:41:06Z</time>
      </trkpt>
      <trkpt lat="42.416284" lon="2.274232">
        <ele>1873.081</ele>
        <time>2010-06-17T03:42:05Z</time>
      </trkpt>
      <trkpt lat="42.416018" lon="2.274903">
        <ele>1874.061</ele>
        <time>2010-06-17T03:43:01Z</time>
      </trkpt>
      <trkpt lat="42.413771" lon="2.275537">
        <ele>1818.017</ele>
        <time>2010-06-17T03:46:50Z</time>
      </trkpt>
      <trkpt lat="42.410116" lon="2.274424">
        <ele>1749.006</ele>
        <time>2010-06-17T03:53:04Z</time>
      </trkpt>
      <trkpt lat="42.408908" lon="2.275653">
        <ele>1730.097</ele>
        <time>2010-06-17T03:55:37Z</time>
      </trkpt>
      <trkpt lat="42.405093" lon="2.277581">
        <ele>1667.084</ele>
        <time>2010-06-17T04:02:23Z</time>
      </trkpt>
      <trkpt lat="42.401578" lon="2.277196">
        <ele>1599.071</ele>
        <time>2010-06-17T04:08:17Z</time>
      </trkpt>
      <trkpt lat="42.400326" lon="2.278547">
        <ele>1583.079</ele>
        <time>2010-06-17T04:10:56Z</time>
      </trkpt>
      <trkpt lat="42.399765" lon="2.282563">
        <ele>1547.067</ele>
        <time>2010-06-17T04:15:58Z</time>
      </trkpt>
      <trkpt lat="42.398914" lon="2.283180">
        <ele>1531.049</ele>
        <time>2010-06-17T04:17:35Z</time>
      </trkpt>
      <trkpt lat="42.398606" lon="2.284338">
        <ele>1519.039</ele>
        <time>2010-06-17T04:19:06Z</time>
      </trkpt>
      <trkpt lat="42.397098" lon="2.288061">
        <ele>1491.001</ele>
        <time>2010-06-17T04:24:21Z</time>
      </trkpt>
      <trkpt lat="42.394809" lon="2.289302">
        <ele>1480.021</ele>
        <time>2010-06-17T04:28:26Z</time>
      </trkpt>
      <trkpt lat="42.394142" lon="2.290646">
        <ele>1456.006</ele>
        <time>2010-06-17T04:30:27Z</time>
      </trkpt>
      <trkpt lat="42.393838" lon="2.292472">
        <ele>1451.012</ele>
        <time>2010-06-17T04:32:44Z</time>
      </trkpt>
      <trkpt lat="42.393483" lon="2.293387">
        <ele>1454.049</ele>
        <time>2010-06-17T04:34:01Z</time>
      </trkpt>
      <trkpt lat="42.392094" lon="2.294375">
        <ele>1425.096</ele>
        <time>2010-06-17T04:36:38Z</time>
      </trkpt>
      <trkpt lat="42.390536" lon="2.297429">
        <ele>1394.084</ele>
        <time>2010-06-17T04:41:12Z</time>
      </trkpt>
      <trkpt lat="42.386875" lon="2.302572">
        <ele>1353.052</ele>
        <time>2010-06-17T04:50:01Z</time>
      </trkpt>
      <trkpt lat="42.386159" lon="2.303249">
        <ele>1348.064</ele>
        <time>2010-06-17T04:51:28Z</time>
      </trkpt>
      <trkpt lat="42.383328" lon="2.304191">
        <ele>1344.055</ele>
        <time>2010-06-17T04:56:20Z</time>
      </trkpt>
      <trkpt lat="42.381386" lon="2.303362">
        <ele>1310.007</ele>
        <time>2010-06-17T04:59:43Z</time>
      </trkpt>
      <trkpt lat="42.380207" lon="2.301978">
        <ele>1315.017</ele>
        <time>2010-06-17T05:02:19Z</time>
      </trkpt>
      <trkpt lat="42.379168" lon="2.301504">
        <ele>1310.006</ele>
        <time>2010-06-17T05:04:09Z</time>
      </trkpt>
      <trkpt lat="42.376513" lon="2.301715">
        <ele>1283.034</ele>
        <time>2010-06-17T05:08:35Z</time>
      </trkpt>
      <trkpt lat="42.376564" lon="2.302626">
        <ele>1276.021</ele>
        <time>2010-06-17T05:09:44Z</time>
      </trkpt>
      <trkpt lat="42.375980" lon="2.302997">
        <ele>1275.048</ele>
        <time>2010-06-17T05:10:47Z</time>
      </trkpt>
      <trkpt lat="42.375905" lon="2.305366">
        <ele>1303.046</ele>
        <time>2010-06-17T05:13:44Z</time>
      </trkpt>
      <trkpt lat="42.375732" lon="2.306583">
        <ele>1348.054</ele>
        <time>2010-06-17T05:15:15Z</time>
      </trkpt>
      <trkpt lat="42.375874" lon="2.307674">
        <ele>1373.056</ele>
        <time>2010-06-17T05:16:37Z</time>
      </trkpt>
      <trkpt lat="42.375609" lon="2.308527">
        <ele>1400.071</ele>
        <time>2010-06-17T05:17:46Z</time>
      </trkpt>
      <trkpt lat="42.375450" lon="2.312051">
        <ele>1479.041</ele>
        <time>2010-06-17T05:22:07Z</time>
      </trkpt>
      <trkpt lat="42.374981" lon="2.316551">
        <ele>1525.015</ele>
        <time>2010-06-17T05:27:43Z</time>
      </trkpt>
      <trkpt lat="42.373962" lon="2.319355">
        <ele>1579.006</ele>
        <time>2010-06-17T05:31:34Z</time>
      </trkpt>
      <trkpt lat="42.373566" lon="2.320878">
        <ele>1611.046</ele>
        <time>2010-06-17T05:33:33Z</time>
      </trkpt>
      <trkpt lat="42.373576" lon="2.322639">
        <ele>1673.043</ele>
        <time>2010-06-17T05:35:42Z</time>
      </trkpt>
      <trkpt lat="42.373180" lon="2.324222">
        <ele>1692.060</ele>
        <time>2010-06-17T05:37:46Z</time>
      </trkpt>
      <trkpt lat="42.373726" lon="2.325188">
        <ele>1683.038</ele>
        <time>2010-06-17T05:39:17Z</time>
      </trkpt>
      <trkpt lat="42.373779" lon="2.326523">
        <ele>1710.056</ele>
        <time>2010-06-17T05:40:54Z</time>
      </trkpt>
      <trkpt lat="42.372674" lon="2.329936">
        <ele>1815.048</ele>
        <time>2010-06-17T05:45:31Z</time>
      </trkpt>
      <trkpt lat="42.372731" lon="2.332061">
        <ele>1839.094</ele>
        <time>2010-06-17T05:48:07Z</time>
      </trkpt>
      <trkpt lat="42.375381" lon="2.338592">
        <ele>1857.057</ele>
        <time>2010-06-17T05:57:19Z</time>
      </trkpt>
      <trkpt lat="42.377217" lon="2.344646">
        <ele>1870.022</ele>
        <time>2010-06-17T06:05:23Z</time>
      </trkpt>
      <trkpt lat="42.378529" lon="2.353682">
        <ele>1809.006</ele>
        <time>2010-06-17T06:16:43Z</time>
      </trkpt>
      <trkpt lat="42.377774" lon="2.355572">
        <ele>1799.098</ele>
        <time>2010-06-17T06:19:21Z</time>
      </trkpt>
      <trkpt lat="42.376883" lon="2.357348">
        <ele>1764.045</ele>
        <time>2010-06-17T06:22:00Z</time>
      </trkpt>
      <trkpt lat="42.375816" lon="2.359727">
        <ele>1752.092</ele>
        <time>2010-06-17T06:25:27Z</time>
      </trkpt>
      <trkpt lat="42.375508" lon="2.361066">
        <ele>1754.020</ele>
        <time>2010-06-17T06:27:11Z</time>
      </trkpt>
      <trkpt lat="42.374929" lon="2.362226">
        <ele>1744.038</ele>
        <time>2010-06-17T06:28:54Z</time>
      </trkpt>
      <trkpt lat="42.374095" lon="2.366121">
        <ele>1718.050</ele>
        <time>2010-06-17T06:33:53Z</time>
      </trkpt>
      <trkpt lat="42.371637" lon="2.369547">
        <ele>1714.062</ele>
        <time>2010-06-17T06:39:47Z</time>
      </trkpt>
      <trkpt lat="42.371144" lon="2.369916">
        <ele>1708.083</ele>
        <time>2010-06-17T06:40:42Z</time>
      </trkpt>
      <trkpt lat="42.370334" lon="2.370046">
        <ele>1686.011</ele>
        <time>2010-06-17T06:42:05Z</time>
      </trkpt>
      <trkpt lat="42.369627" lon="2.372482">
        <ele>1692.006</ele>
        <time>2010-06-17T06:45:18Z</time>
      </trkpt>
      <trkpt lat="42.369769" lon="2.373755">
        <ele>1683.075</ele>
        <time>2010-06-17T06:46:53Z</time>
      </trkpt>
      <trkpt lat="42.369644" lon="2.375639">
        <ele>1673.012</ele>
        <time>2010-06-17T06:49:13Z</time>
      </trkpt>
      <trkpt lat="42.369420" lon="2.375824">
        <ele>1666.049</ele>
        <time>2010-06-17T06:49:39Z</time>
      </trkpt>
      <trkpt lat="42.366541" lon="2.376459">
        <ele>1649.077</ele>
        <time>2010-06-17T06:54:32Z</time>
      </trkpt>
      <trkpt lat="42.363946" lon="2.379400">
        <ele>1592.055</ele>
        <time>2010-06-17T07:00:09Z</time>
      </trkpt>
      <trkpt lat="42.363412" lon="2.380680">
        <ele>1567.027</ele>
        <time>2010-06-17T07:01:59Z</time>
      </trkpt>
      <trkpt lat="42.362608" lon="2.381902">
        <ele>1541.099</ele>
        <time>2010-06-17T07:04:00Z</time>
      </trkpt>
      <trkpt lat="42.362070" lon="2.382211">
        <ele>1529.007</ele>
        <time>2010-06-17T07:04:59Z</time>
      </trkpt>
      <trkpt lat="42.361393" lon="2.381975">
        <ele>1522.027</ele>
        <time>2010-06-17T07:06:09Z</time>
      </trkpt>
      <trkpt lat="42.360090" lon="2.382534">
        <ele>1490.006</ele>
        <time>2010-06-17T07:08:24Z</time>
      </trkpt>
      <trkpt lat="42.359691" lon="2.383631">
        <ele>1470.048</ele>
        <time>2010-06-17T07:09:55Z</time>
      </trkpt>
      <trkpt lat="42.357636" lon="2.386747">
        <ele>1437.055</ele>
        <time>2010-06-17T07:15:04Z</time>
      </trkpt>
      <trkpt lat="42.356700" lon="2.388517">
        <ele>1426.082</ele>
        <time>2010-06-17T07:17:46Z</time>
      </trkpt>
      <trkpt lat="42.356123" lon="2.390162">
        <ele>1420.030</ele>
        <time>2010-06-17T07:20:00Z</time>
      </trkpt>
      <trkpt lat="42.355863" lon="2.392047">
        <ele>1401.048</ele>
        <time>2010-06-17T07:22:22Z</time>
      </trkpt>
      <trkpt lat="42.355460" lon="2.392415">
        <ele>1396.010</ele>
        <time>2010-06-17T07:23:11Z</time>
      </trkpt>
      <trkpt lat="42.354154" lon="2.392488">
        <ele>1365.029</ele>
        <time>2010-06-17T07:25:22Z</time>
      </trkpt>
      <trkpt lat="42.352722" lon="2.394262">
        <ele>1327.000</ele>
        <time>2010-06-17T07:28:36Z</time>
      </trkpt>
      <trkpt lat="42.350570" lon="2.395983">
        <ele>1293.020</ele>
        <time>2010-06-17T07:32:46Z</time>
      </trkpt>
      <trkpt lat="42.349994" lon="2.397810">
        <ele>1269.006</ele>
        <time>2010-06-17T07:35:12Z</time>
      </trkpt>
      <trkpt lat="42.347934" lon="2.399954">
        <ele>1227.081</ele>
        <time>2010-06-17T07:39:32Z</time>
      </trkpt>
      <trkpt lat="42.346990" lon="2.400327">
        <ele>1201.048</ele>
        <time>2010-06-17T07:41:11Z</time>
      </trkpt>
      <trkpt lat="42.346761" lon="2.399479">
        <ele>1195.055</ele>
        <time>2010-06-17T07:42:17Z</time>
      </trkpt>
      <trkpt lat="42.346539" lon="2.400149">
        <ele>1195.083</ele>
        <time>2010-06-17T07:43:12Z</time>
      </trkpt>
      <trkpt lat="42.346860" lon="2.401300">
        <ele>1189.041</ele>
        <time>2010-06-17T07:44:42Z</time>
      </trkpt>
      <trkpt lat="42.347536" lon="2.401415">
        <ele>1197.083</ele>
        <time>2010-06-17T07:45:51Z</time>
      </trkpt>
      <trkpt lat="42.347767" lon="2.402505">
        <ele>1180.083</ele>
        <time>2010-06-17T07:47:15Z</time>
      </trkpt>
      <trkpt lat="42.348443" lon="2.402620">
        <ele>1185.025</ele>
        <time>2010-06-17T07:48:24Z</time>
      </trkpt>
      <trkpt lat="42.349387" lon="2.402186">
        <ele>1196.017</ele>
        <time>2010-06-17T07:50:02Z</time>
      </trkpt>
      <trkpt lat="42.349435" lon="2.402854">
        <ele>1192.006</ele>
        <time>2010-06-17T07:50:53Z</time>
      </trkpt>
      <trkpt lat="42.348988" lon="2.403398">
        <ele>1185.017</ele>
        <time>2010-06-17T07:51:52Z</time>
      </trkpt>
      <trkpt lat="42.348587" lon="2.404191">
        <ele>1181.094</ele>
        <time>2010-06-17T07:53:04Z</time>
      </trkpt>
      <trkpt lat="42.348362" lon="2.404375">
        <ele>1175.051</ele>
        <time>2010-06-17T07:53:31Z</time>
      </trkpt>
      <trkpt lat="42.348591" lon="2.404980">
        <ele>1177.059</ele>
        <time>2010-06-17T07:54:20Z</time>
      </trkpt>
      <trkpt lat="42.348505" lon="2.405891">
        <ele>1167.057</ele>
        <time>2010-06-17T07:55:29Z</time>
      </trkpt>
      <trkpt lat="42.349182" lon="2.406188">
        <ele>1172.049</ele>
        <time>2010-06-17T07:56:40Z</time>
      </trkpt>
      <trkpt lat="42.349185" lon="2.406613">
        <ele>1161.089</ele>
        <time>2010-06-17T07:57:12Z</time>
      </trkpt>
      <trkpt lat="42.346795" lon="2.406029">
        <ele>1141.006</ele>
        <time>2010-06-17T08:01:14Z</time>
      </trkpt>
      <trkpt lat="42.345628" lon="2.406829">
        <ele>1121.026</ele>
        <time>2010-06-17T08:03:26Z</time>
      </trkpt>
      <trkpt lat="42.343783" lon="2.406967">
        <ele>1122.006</ele>
        <time>2010-06-17T08:06:29Z</time>
      </trkpt>
      <trkpt lat="42.343605" lon="2.407394">
        <ele>1109.077</ele>
        <time>2010-06-17T08:07:07Z</time>
      </trkpt>
      <trkpt lat="42.343698" lon="2.408000">
        <ele>1098.054</ele>
        <time>2010-06-17T08:07:52Z</time>
      </trkpt>
      <trkpt lat="42.342708" lon="2.408192">
        <ele>1094.031</ele>
        <time>2010-06-17T08:09:32Z</time>
      </trkpt>
      <trkpt lat="42.342486" lon="2.408740">
        <ele>1080.049</ele>
        <time>2010-06-17T08:10:19Z</time>
      </trkpt>
      <trkpt lat="42.342894" lon="2.409222">
        <ele>1067.077</ele>
        <time>2010-06-17T08:11:13Z</time>
      </trkpt>
      <trkpt lat="42.344293" lon="2.409816">
        <ele>1062.089</ele>
        <time>2010-06-17T08:13:39Z</time>
      </trkpt>
      <trkpt lat="42.344298" lon="2.410848">
        <ele>1070.051</ele>
        <time>2010-06-17T08:14:56Z</time>
      </trkpt>
      <trkpt lat="42.343533" lon="2.410915">
        <ele>1063.001</ele>
        <time>2010-06-17T08:16:12Z</time>
      </trkpt>
      <trkpt lat="42.343445" lon="2.411341">
        <ele>1065.011</ele>
        <time>2010-06-17T08:16:44Z</time>
      </trkpt>
      <trkpt lat="42.343861" lon="2.413401">
        <ele>1104.006</ele>
        <time>2010-06-17T08:19:23Z</time>
      </trkpt>
      <trkpt lat="42.343552" lon="2.414618">
        <ele>1136.014</ele>
        <time>2010-06-17T08:20:59Z</time>
      </trkpt>
      <trkpt lat="42.342605" lon="2.414323">
        <ele>1118.041</ele>
        <time>2010-06-17T08:22:36Z</time>
      </trkpt>
      <trkpt lat="42.341663" lon="2.415182">
        <ele>1146.088</ele>
        <time>2010-06-17T08:24:29Z</time>
      </trkpt>
      <trkpt lat="42.339954" lon="2.415440">
        <ele>1167.026</ele>
        <time>2010-06-17T08:27:22Z</time>
      </trkpt>
      <trkpt lat="42.339599" lon="2.416597">
        <ele>1175.094</ele>
        <time>2010-06-17T08:28:53Z</time>
      </trkpt>
      <trkpt lat="42.338922" lon="2.416300">
        <ele>1161.056</ele>
        <time>2010-06-17T08:30:06Z</time>
      </trkpt>
      <trkpt lat="42.338337" lon="2.416426">
        <ele>1159.068</ele>
        <time>2010-06-17T08:31:05Z</time>
      </trkpt>
      <trkpt lat="42.337402" lon="2.418377">
        <ele>1166.042</ele>
        <time>2010-06-17T08:33:57Z</time>
      </trkpt>
      <trkpt lat="42.336275" lon="2.418206">
        <ele>1149.026</ele>
        <time>2010-06-17T08:35:50Z</time>
      </trkpt>
      <trkpt lat="42.334573" lon="2.419981">
        <ele>1151.006</ele>
        <time>2010-06-17T08:39:25Z</time>
      </trkpt>
      <trkpt lat="42.333943" lon="2.420109">
        <ele>1154.075</ele>
        <time>2010-06-17T08:40:29Z</time>
      </trkpt>
      <trkpt lat="42.332847" lon="2.426006">
        <ele>1171.012</ele>
        <time>2010-06-17T08:47:59Z</time>
      </trkpt>
      <trkpt lat="42.331912" lon="2.428078">
        <ele>1145.029</ele>
        <time>2010-06-17T08:50:59Z</time>
      </trkpt>
      <trkpt lat="42.331196" lon="2.428994">
        <ele>1116.087</ele>
        <time>2010-06-17T08:52:36Z</time>
      </trkpt>
      <trkpt lat="42.330744" lon="2.428634">
        <ele>1109.045</ele>
        <time>2010-06-17T08:53:30Z</time>
      </trkpt>
      <trkpt lat="42.330663" lon="2.430577">
        <ele>1086.047</ele>
        <time>2010-06-17T08:55:54Z</time>
      </trkpt>
      <trkpt lat="42.330396" lon="2.431065">
        <ele>1079.056</ele>
        <time>2010-06-17T08:56:38Z</time>
      </trkpt>
      <trkpt lat="42.329273" lon="2.431682">
        <ele>1074.059</ele>
        <time>2010-06-17T08:58:39Z</time>
      </trkpt>
      <trkpt lat="42.329906" lon="2.432222">
        <ele>1062.014</ele>
        <time>2010-06-17T08:59:55Z</time>
      </trkpt>
      <trkpt lat="42.329639" lon="2.432953">
        <ele>1043.006</ele>
        <time>2010-06-17T09:00:54Z</time>
      </trkpt>
      <trkpt lat="42.327793" lon="2.433030">
        <ele>1053.044</ele>
        <time>2010-06-17T09:03:59Z</time>
      </trkpt>
      <trkpt lat="42.328065" lon="2.433271">
        <ele>1046.051</ele>
        <time>2010-06-17T09:04:32Z</time>
      </trkpt>
      <trkpt lat="42.330452" lon="2.433310">
        <ele>1030.038</ele>
        <time>2010-06-17T09:08:31Z</time>
      </trkpt>
      <trkpt lat="42.330903" lon="2.433427">
        <ele>1029.016</ele>
        <time>2010-06-17T09:09:16Z</time>
      </trkpt>
      <trkpt lat="42.331085" lon="2.433972">
        <ele>1010.094</ele>
        <time>2010-06-17T09:10:02Z</time>
      </trkpt>
      <trkpt lat="42.330322" lon="2.434404">
        <ele>995.056</ele>
        <time>2010-06-17T09:11:23Z</time>
      </trkpt>
      <trkpt lat="42.330866" lon="2.435188">
        <ele>972.066</ele>
        <time>2010-06-17T09:12:43Z</time>
      </trkpt>
      <trkpt lat="42.331587" lon="2.435242">
        <ele>968.029</ele>
        <time>2010-06-17T09:13:56Z</time>
      </trkpt>
      <trkpt lat="42.332309" lon="2.435539">
        <ele>961.021</ele>
        <time>2010-06-17T09:15:12Z</time>
      </trkpt>
      <trkpt lat="42.332895" lon="2.435594">
        <ele>967.006</ele>
        <time>2010-06-17T09:16:10Z</time>
      </trkpt>
      <trkpt lat="42.333215" lon="2.436563">
        <ele>964.015</ele>
        <time>2010-06-17T09:17:29Z</time>
      </trkpt>
      <trkpt lat="42.332949" lon="2.437536">
        <ele>945.062</ele>
        <time>2010-06-17T09:18:46Z</time>
      </trkpt>
      <trkpt lat="42.332953" lon="2.438386">
        <ele>941.069</ele>
        <time>2010-06-17T09:19:49Z</time>
      </trkpt>
      <trkpt lat="42.332596" lon="2.438935">
        <ele>922.057</ele>
        <time>2010-06-17T09:20:42Z</time>
      </trkpt>
      <trkpt lat="42.332329" lon="2.439666">
        <ele>917.075</ele>
        <time>2010-06-17T09:21:43Z</time>
      </trkpt>
      <trkpt lat="42.332335" lon="2.440819">
        <ele>918.047</ele>
        <time>2010-06-17T09:23:07Z</time>
      </trkpt>
      <trkpt lat="42.333475" lon="2.443722">
        <ele>944.099</ele>
        <time>2010-06-17T09:27:11Z</time>
      </trkpt>
      <trkpt lat="42.332889" lon="2.443606">
        <ele>930.007</ele>
        <time>2010-06-17T09:28:11Z</time>
      </trkpt>
      <trkpt lat="42.332255" lon="2.443004">
        <ele>918.027</ele>
        <time>2010-06-17T09:29:27Z</time>
      </trkpt>
      <trkpt lat="42.332068" lon="2.441610">
        <ele>906.006</ele>
        <time>2010-06-17T09:31:13Z</time>
      </trkpt>
      <trkpt lat="42.331801" lon="2.442098">
        <ele>893.058</ele>
        <time>2010-06-17T09:31:57Z</time>
      </trkpt>
      <trkpt lat="42.331990" lon="2.444038">
        <ele>882.045</ele>
        <time>2010-06-17T09:34:22Z</time>
      </trkpt>
      <trkpt lat="42.331767" lon="2.444526">
        <ele>869.042</ele>
        <time>2010-06-17T09:35:05Z</time>
      </trkpt>
      <trkpt lat="42.331319" lon="2.444955">
        <ele>861.020</ele>
        <time>2010-06-17T09:35:59Z</time>
      </trkpt>
      <trkpt lat="42.331456" lon="2.445378">
        <ele>860.058</ele>
        <time>2010-06-17T09:36:34Z</time>
      </trkpt>
      <trkpt lat="42.331819" lon="2.445921">
        <ele>859.010</ele>
        <time>2010-06-17T09:37:28Z</time>
      </trkpt>
      <trkpt lat="42.331506" lon="2.446288">
        <ele>849.029</ele>
        <time>2010-06-17T09:38:10Z</time>
      </trkpt>
      <trkpt lat="42.330964" lon="2.445989">
        <ele>846.000</ele>
        <time>2010-06-17T09:39:08Z</time>
      </trkpt>
      <trkpt lat="42.330470" lon="2.446358">
        <ele>840.020</ele>
        <time>2010-06-17T09:40:04Z</time>
      </trkpt>
      <trkpt lat="42.329536" lon="2.448794">
        <ele>821.006</ele>
        <time>2010-06-17T09:43:28Z</time>
      </trkpt>
      <trkpt lat="42.328461" lon="2.449956">
        <ele>823.011</ele>
        <time>2010-06-17T09:45:46Z</time>
      </trkpt>
      <trkpt lat="42.326530" lon="2.451065">
        <ele>836.078</ele>
        <time>2010-06-17T09:49:15Z</time>
      </trkpt>
      <trkpt lat="42.325995" lon="2.452223">
        <ele>825.055</ele>
        <time>2010-06-17T09:50:57Z</time>
      </trkpt>
      <trkpt lat="42.326185" lon="2.454163">
        <ele>787.013</ele>
        <time>2010-06-17T09:53:20Z</time>
      </trkpt>
      <trkpt lat="42.327246" lon="2.459555">
        <ele>727.061</ele>
        <time>2010-06-17T10:00:14Z</time>
      </trkpt>
      <trkpt lat="42.326540" lon="2.462656">
        <ele>676.073</ele>
        <time>2010-06-17T10:04:14Z</time>
      </trkpt>
      <trkpt lat="42.326596" lon="2.464961">
        <ele>674.068</ele>
        <time>2010-06-17T10:07:05Z</time>
      </trkpt>
      <trkpt lat="42.326197" lon="2.466300">
        <ele>650.042</ele>
        <time>2010-06-17T10:08:52Z</time>
      </trkpt>
      <trkpt lat="42.325171" lon="2.468372">
        <ele>640.026</ele>
        <time>2010-06-17T10:11:56Z</time>
      </trkpt>
      <trkpt lat="42.324860" lon="2.469406">
        <ele>621.006</ele>
        <time>2010-06-17T10:13:19Z</time>
      </trkpt>
      <trkpt lat="42.325455" lon="2.471403">
        <ele>608.045</ele>
        <time>2010-06-17T10:15:58Z</time>
      </trkpt>
      <trkpt lat="42.325057" lon="2.472924">
        <ele>588.022</ele>
        <time>2010-06-17T10:17:58Z</time>
      </trkpt>
      <trkpt lat="42.324474" lon="2.473475">
        <ele>581.089</ele>
        <time>2010-06-17T10:19:09Z</time>
      </trkpt>
      <trkpt lat="42.322583" lon="2.473612">
        <ele>620.077</ele>
        <time>2010-06-17T10:22:17Z</time>
      </trkpt>
      <trkpt lat="42.322226" lon="2.474282">
        <ele>597.035</ele>
        <time>2010-06-17T10:23:19Z</time>
      </trkpt>
      <trkpt lat="42.322508" lon="2.476950">
        <ele>549.037</ele>
        <time>2010-06-17T10:26:38Z</time>
      </trkpt>
      <trkpt lat="42.322472" lon="2.478953">
        <ele>556.082</ele>
        <time>2010-06-17T10:29:06Z</time>
      </trkpt>
      <trkpt lat="42.322073" lon="2.480170">
        <ele>543.043</ele>
        <time>2010-06-17T10:30:46Z</time>
      </trkpt>
      <trkpt lat="42.321402" lon="2.481207">
        <ele>540.017</ele>
        <time>2010-06-17T10:32:28Z</time>
      </trkpt>
      <trkpt lat="42.320724" lon="2.480788">
        <ele>530.006</ele>
        <time>2010-06-17T10:33:42Z</time>
      </trkpt>
      <trkpt lat="42.320009" lon="2.482007">
        <ele>518.087</ele>
        <time>2010-06-17T10:35:36Z</time>
      </trkpt>
      <trkpt lat="42.319782" lon="2.481439">
        <ele>515.024</ele>
        <time>2010-06-17T10:36:24Z</time>
      </trkpt>
      <trkpt lat="42.319065" lon="2.482173">
        <ele>514.081</ele>
        <time>2010-06-17T10:37:55Z</time>
      </trkpt>
      <trkpt lat="42.317667" lon="2.481760">
        <ele>504.069</ele>
        <time>2010-06-17T10:40:18Z</time>
      </trkpt>
      <trkpt lat="42.316631" lon="2.481829">
        <ele>502.017</ele>
        <time>2010-06-17T10:42:02Z</time>
      </trkpt>
      <trkpt lat="42.314531" lon="2.485304">
        <ele>504.099</ele>
        <time>2010-06-17T10:47:34Z</time>
      </trkpt>
      <trkpt lat="42.313811" lon="2.485553">
        <ele>499.031</ele>
        <time>2010-06-17T10:48:49Z</time>
      </trkpt>
      <trkpt lat="42.313407" lon="2.485860">
        <ele>494.061</ele>
        <time>2010-06-17T10:49:35Z</time>
      </trkpt>
      <trkpt lat="42.312111" lon="2.488115">
        <ele>483.007</ele>
        <time>2010-06-17T10:53:05Z</time>
      </trkpt>
      <trkpt lat="42.311752" lon="2.488239">
        <ele>489.006</ele>
        <time>2010-06-17T10:53:42Z</time>
      </trkpt>
      <trkpt lat="42.310760" lon="2.488005">
        <ele>482.082</ele>
        <time>2010-06-17T10:55:24Z</time>
      </trkpt>
      <trkpt lat="42.310177" lon="2.488555">
        <ele>476.069</ele>
        <time>2010-06-17T10:56:34Z</time>
      </trkpt>
      <trkpt lat="42.310133" lon="2.488738">
        <ele>473.026</ele>
        <time>2010-06-17T10:56:48Z</time>
      </trkpt>
      <trkpt lat="42.308477" lon="2.491117">
        <ele>462.064</ele>
        <time>2010-06-17T11:00:50Z</time>
      </trkpt>
      <trkpt lat="42.308897" lon="2.494450">
        <ele>464.052</ele>
        <time>2010-06-17T11:05:00Z</time>
      </trkpt>
      <trkpt lat="42.309132" lon="2.496693">
        <ele>464.054</ele>
        <time>2010-06-17T11:07:49Z</time>
      </trkpt>
      <trkpt lat="42.308727" lon="2.496757">
        <ele>458.058</ele>
        <time>2010-06-17T11:08:30Z</time>
      </trkpt>
      <trkpt lat="42.308780" lon="2.498516">
        <ele>467.052</ele>
        <time>2010-06-17T11:10:39Z</time>
      </trkpt>
      <trkpt lat="42.308511" lon="2.498761">
        <ele>460.017</ele>
        <time>2010-06-17T11:11:13Z</time>
      </trkpt>
      <trkpt lat="42.307943" lon="2.502769">
        <ele>449.006</ele>
        <time>2010-06-17T11:16:15Z</time>
      </trkpt>
      <trkpt lat="42.307860" lon="2.504529">
        <ele>444.064</ele>
        <time>2010-06-17T11:18:24Z</time>
      </trkpt>
      <trkpt lat="42.306926" lon="2.507206">
        <ele>441.031</ele>
        <time>2010-06-17T11:22:04Z</time>
      </trkpt>
      <trkpt lat="42.306340" lon="2.507089">
        <ele>437.078</ele>
        <time>2010-06-17T11:23:03Z</time>
      </trkpt>
      <trkpt lat="42.305672" lon="2.508732">
        <ele>432.026</ele>
        <time>2010-06-17T11:25:21Z</time>
      </trkpt>
      <trkpt lat="42.304861" lon="2.508739">
        <ele>433.024</ele>
        <time>2010-06-17T11:26:44Z</time>
      </trkpt>
      <trkpt lat="42.304138" lon="2.507956">
        <ele>443.036</ele>
        <time>2010-06-17T11:28:15Z</time>
      </trkpt>
      <trkpt lat="42.303463" lon="2.508264">
        <ele>471.044</ele>
        <time>2010-06-17T11:29:28Z</time>
      </trkpt>
      <trkpt lat="42.303064" lon="2.509663">
        <ele>480.005</ele>
        <time>2010-06-17T11:31:18Z</time>
      </trkpt>
      <trkpt lat="42.302689" lon="2.516824">
        <ele>600.015</ele>
        <time>2010-06-17T11:40:10Z</time>
      </trkpt>
      <trkpt lat="42.301711" lon="2.519743">
        <ele>636.006</ele>
        <time>2010-06-17T11:44:07Z</time>
      </trkpt>
      <trkpt lat="42.300939" lon="2.518353">
        <ele>659.073</ele>
        <time>2010-06-17T11:46:16Z</time>
      </trkpt>
      <trkpt lat="42.300216" lon="2.517631">
        <ele>662.090</ele>
        <time>2010-06-17T11:47:46Z</time>
      </trkpt>
      <trkpt lat="42.299179" lon="2.517396">
        <ele>657.037</ele>
        <time>2010-06-17T11:49:31Z</time>
      </trkpt>
      <trkpt lat="42.297883" lon="2.519711">
        <ele>658.035</ele>
        <time>2010-06-17T11:53:05Z</time>
      </trkpt>
      <trkpt lat="42.297796" lon="2.520440">
        <ele>630.063</ele>
        <time>2010-06-17T11:53:59Z</time>
      </trkpt>
      <trkpt lat="42.297482" lon="2.520745">
        <ele>633.015</ele>
        <time>2010-06-17T11:54:39Z</time>
      </trkpt>
      <trkpt lat="42.296636" lon="2.522996">
        <ele>609.077</ele>
        <time>2010-06-17T11:57:45Z</time>
      </trkpt>
      <trkpt lat="42.296461" lon="2.524271">
        <ele>599.061</ele>
        <time>2010-06-17T11:59:22Z</time>
      </trkpt>
      <trkpt lat="42.296775" lon="2.523905">
        <ele>591.027</ele>
        <time>2010-06-17T12:00:04Z</time>
      </trkpt>
      <trkpt lat="42.296643" lon="2.524634">
        <ele>574.006</ele>
        <time>2010-06-17T12:00:59Z</time>
      </trkpt>
      <trkpt lat="42.297046" lon="2.524206">
        <ele>575.076</ele>
        <time>2010-06-17T12:01:50Z</time>
      </trkpt>
      <trkpt lat="42.296915" lon="2.525056">
        <ele>559.063</ele>
        <time>2010-06-17T12:02:54Z</time>
      </trkpt>
      <trkpt lat="42.297677" lon="2.524383">
        <ele>541.040</ele>
        <time>2010-06-17T12:04:26Z</time>
      </trkpt>
      <trkpt lat="42.297726" lon="2.525293">
        <ele>526.018</ele>
        <time>2010-06-17T12:05:33Z</time>
      </trkpt>
      <trkpt lat="42.297460" lon="2.526326">
        <ele>518.066</ele>
        <time>2010-06-17T12:06:53Z</time>
      </trkpt>
      <trkpt lat="42.297601" lon="2.527599">
        <ele>506.028</ele>
        <time>2010-06-17T12:08:28Z</time>
      </trkpt>
      <trkpt lat="42.297870" lon="2.527354">
        <ele>502.082</ele>
        <time>2010-06-17T12:09:02Z</time>
      </trkpt>
      <trkpt lat="42.298367" lon="2.527714">
        <ele>493.043</ele>
        <time>2010-06-17T12:09:57Z</time>
      </trkpt>
      <trkpt lat="42.297519" lon="2.529722">
        <ele>487.017</ele>
        <time>2010-06-17T12:12:49Z</time>
      </trkpt>
      <trkpt lat="42.298061" lon="2.530143">
        <ele>462.006</ele>
        <time>2010-06-17T12:13:51Z</time>
      </trkpt>
      <trkpt lat="42.297478" lon="2.530632">
        <ele>472.067</ele>
        <time>2010-06-17T12:15:00Z</time>
      </trkpt>
      <trkpt lat="42.296546" lon="2.533915">
        <ele>424.094</ele>
        <time>2010-06-17T12:19:21Z</time>
      </trkpt>
      <trkpt lat="42.296020" lon="2.537437">
        <ele>407.081</ele>
        <time>2010-06-17T12:23:47Z</time>
      </trkpt>
      <trkpt lat="42.296161" lon="2.539073">
        <ele>405.029</ele>
        <time>2010-06-17T12:25:49Z</time>
      </trkpt>
      <trkpt lat="42.296666" lon="2.541375">
        <ele>390.077</ele>
        <time>2010-06-17T12:28:47Z</time>
      </trkpt>
      <trkpt lat="42.297030" lon="2.542342">
        <ele>387.069</ele>
        <time>2010-06-17T12:30:07Z</time>
      </trkpt>
      <trkpt lat="42.297263" lon="2.544464">
        <ele>380.066</ele>
        <time>2010-06-17T12:32:46Z</time>
      </trkpt>
      <trkpt lat="42.297041" lon="2.545133">
        <ele>380.029</ele>
        <time>2010-06-17T12:33:40Z</time>
      </trkpt>
      <trkpt lat="42.296548" lon="2.545682">
        <ele>382.021</ele>
        <time>2010-06-17T12:34:44Z</time>
      </trkpt>
      <trkpt lat="42.295564" lon="2.547509">
        <ele>387.006</ele>
        <time>2010-06-17T12:37:30Z</time>
      </trkpt>
      <trkpt lat="42.293906" lon="2.549462">
        <ele>376.095</ele>
        <time>2010-06-17T12:41:11Z</time>
      </trkpt>
      <trkpt lat="42.293911" lon="2.550675">
        <ele>369.082</ele>
        <time>2010-06-17T12:42:40Z</time>
      </trkpt>
      <trkpt lat="42.294278" lon="2.552552">
        <ele>386.079</ele>
        <time>2010-06-17T12:45:05Z</time>
      </trkpt>
      <trkpt lat="42.294822" lon="2.553398">
        <ele>405.067</ele>
        <time>2010-06-17T12:46:28Z</time>
      </trkpt>
      <trkpt lat="42.297130" lon="2.556269">
        <ele>527.025</ele>
        <time>2010-06-17T12:51:42Z</time>
      </trkpt>
      <trkpt lat="42.298352" lon="2.558019">
        <ele>534.017</ele>
        <time>2010-06-17T12:54:40Z</time>
      </trkpt>
      <trkpt lat="42.297947" lon="2.558083">
        <ele>535.013</ele>
        <time>2010-06-17T12:55:21Z</time>
      </trkpt>
      <trkpt lat="42.298671" lon="2.558987">
        <ele>548.043</ele>
        <time>2010-06-17T12:56:58Z</time>
      </trkpt>
      <trkpt lat="42.298993" lon="2.560623">
        <ele>570.007</ele>
        <time>2010-06-17T12:59:04Z</time>
      </trkpt>
      <trkpt lat="42.297375" lon="2.561483">
        <ele>561.006</ele>
        <time>2010-06-17T13:01:59Z</time>
      </trkpt>
      <trkpt lat="42.298276" lon="2.561659">
        <ele>579.050</ele>
        <time>2010-06-17T13:03:30Z</time>
      </trkpt>
      <trkpt lat="42.299491" lon="2.561347">
        <ele>606.017</ele>
        <time>2010-06-17T13:05:33Z</time>
      </trkpt>
      <trkpt lat="42.298506" lon="2.562810">
        <ele>614.034</ele>
        <time>2010-06-17T13:08:00Z</time>
      </trkpt>
      <trkpt lat="42.298101" lon="2.562873">
        <ele>602.052</ele>
        <time>2010-06-17T13:08:40Z</time>
      </trkpt>
      <trkpt lat="42.297385" lon="2.564274">
        <ele>610.030</ele>
        <time>2010-06-17T13:10:46Z</time>
      </trkpt>
      <trkpt lat="42.298019" lon="2.565240">
        <ele>642.062</ele>
        <time>2010-06-17T13:12:22Z</time>
      </trkpt>
      <trkpt lat="42.298067" lon="2.565846">
        <ele>646.027</ele>
        <time>2010-06-17T13:13:06Z</time>
      </trkpt>
      <trkpt lat="42.298520" lon="2.566510">
        <ele>681.068</ele>
        <time>2010-06-17T13:14:13Z</time>
      </trkpt>
      <trkpt lat="42.298620" lon="2.569178">
        <ele>685.014</ele>
        <time>2010-06-17T13:17:32Z</time>
      </trkpt>
      <trkpt lat="42.298703" lon="2.567297">
        <ele>683.006</ele>
        <time>2010-06-17T13:19:52Z</time>
      </trkpt>
      <trkpt lat="42.298929" lon="2.567599">
        <ele>702.061</ele>
        <time>2010-06-17T13:20:22Z</time>
      </trkpt>
      <trkpt lat="42.298982" lon="2.569782">
        <ele>695.048</ele>
        <time>2010-06-17T13:23:05Z</time>
      </trkpt>
      <trkpt lat="42.300199" lon="2.570077">
        <ele>749.085</ele>
        <time>2010-06-17T13:25:09Z</time>
      </trkpt>
      <trkpt lat="42.300745" lon="2.571590">
        <ele>759.023</ele>
        <time>2010-06-17T13:27:13Z</time>
      </trkpt>
      <trkpt lat="42.301600" lon="2.571281">
        <ele>785.051</ele>
        <time>2010-06-17T13:28:42Z</time>
      </trkpt>
      <trkpt lat="42.302779" lon="2.573639">
        <ele>711.023</ele>
        <time>2010-06-17T13:32:12Z</time>
      </trkpt>
      <trkpt lat="42.303186" lon="2.573940">
        <ele>705.082</ele>
        <time>2010-06-17T13:32:59Z</time>
      </trkpt>
      <trkpt lat="42.303465" lon="2.576546">
        <ele>658.043</ele>
        <time>2010-06-17T13:36:14Z</time>
      </trkpt>
      <trkpt lat="42.303690" lon="2.576423">
        <ele>676.017</ele>
        <time>2010-06-17T13:36:37Z</time>
      </trkpt>
      <trkpt lat="42.303919" lon="2.577453">
        <ele>668.006</ele>
        <time>2010-06-17T13:37:58Z</time>
      </trkpt>
      <trkpt lat="42.303835" lon="2.579152">
        <ele>660.097</ele>
        <time>2010-06-17T13:40:04Z</time>
      </trkpt>
      <trkpt lat="42.304024" lon="2.581638">
        <ele>636.064</ele>
        <time>2010-06-17T13:43:08Z</time>
      </trkpt>
      <trkpt lat="42.303894" lon="2.582792">
        <ele>622.071</ele>
        <time>2010-06-17T13:44:34Z</time>
      </trkpt>
      <trkpt lat="42.304075" lon="2.583276">
        <ele>633.079</ele>
        <time>2010-06-17T13:45:14Z</time>
      </trkpt>
      <trkpt lat="42.304352" lon="2.584912">
        <ele>600.027</ele>
        <time>2010-06-17T13:47:20Z</time>
      </trkpt>
      <trkpt lat="42.304758" lon="2.585273">
        <ele>594.059</ele>
        <time>2010-06-17T13:48:08Z</time>
      </trkpt>
      <trkpt lat="42.304943" lon="2.586546">
        <ele>488.091</ele>
        <time>2010-06-17T13:49:43Z</time>
      </trkpt>
      <trkpt lat="42.304902" lon="2.587820">
        <ele>447.081</ele>
        <time>2010-06-17T13:51:19Z</time>
      </trkpt>
      <trkpt lat="42.305398" lon="2.587877">
        <ele>432.019</ele>
        <time>2010-06-17T13:52:08Z</time>
      </trkpt>
      <trkpt lat="42.307507" lon="2.585740">
        <ele>570.006</ele>
        <time>2010-06-17T13:56:31Z</time>
      </trkpt>
      <trkpt lat="42.308677" lon="2.585490">
        <ele>587.028</ele>
        <time>2010-06-17T13:58:30Z</time>
      </trkpt>
      <trkpt lat="42.309626" lon="2.586455">
        <ele>499.065</ele>
        <time>2010-06-17T14:00:29Z</time>
      </trkpt>
      <trkpt lat="42.309538" lon="2.587122">
        <ele>481.062</ele>
        <time>2010-06-17T14:01:20Z</time>
      </trkpt>
      <trkpt lat="42.309853" lon="2.587181">
        <ele>486.030</ele>
        <time>2010-06-17T14:01:51Z</time>
      </trkpt>
      <trkpt lat="42.310887" lon="2.586689">
        <ele>503.068</ele>
        <time>2010-06-17T14:03:41Z</time>
      </trkpt>
      <trkpt lat="42.313404" lon="2.585156">
        <ele>503.030</ele>
        <time>2010-06-17T14:08:17Z</time>
      </trkpt>
      <trkpt lat="42.314171" lon="2.585575">
        <ele>497.086</ele>
        <time>2010-06-17T14:09:40Z</time>
      </trkpt>
      <trkpt lat="42.314711" lon="2.585511">
        <ele>501.060</ele>
        <time>2010-06-17T14:10:34Z</time>
      </trkpt>
      <trkpt lat="42.315613" lon="2.585991">
        <ele>476.026</ele>
        <time>2010-06-17T14:12:10Z</time>
      </trkpt>
      <trkpt lat="42.316472" lon="2.586895">
        <ele>456.006</ele>
        <time>2010-06-17T14:14:00Z</time>
      </trkpt>
      <trkpt lat="42.317107" lon="2.588105">
        <ele>452.027</ele>
        <time>2010-06-17T14:15:50Z</time>
      </trkpt>
      <trkpt lat="42.317064" lon="2.588833">
        <ele>462.034</ele>
        <time>2010-06-17T14:16:44Z</time>
      </trkpt>
      <trkpt lat="42.316437" lon="2.589747">
        <ele>483.041</ele>
        <time>2010-06-17T14:18:16Z</time>
      </trkpt>
      <trkpt lat="42.315537" lon="2.589874">
        <ele>489.069</ele>
        <time>2010-06-17T14:19:47Z</time>
      </trkpt>
      <trkpt lat="42.314813" lon="2.588969">
        <ele>442.047</ele>
        <time>2010-06-17T14:21:26Z</time>
      </trkpt>
      <trkpt lat="42.314593" lon="2.590305">
        <ele>471.069</ele>
        <time>2010-06-17T14:23:06Z</time>
      </trkpt>
      <trkpt lat="42.314234" lon="2.590672">
        <ele>446.076</ele>
        <time>2010-06-17T14:23:52Z</time>
      </trkpt>
      <trkpt lat="42.313424" lon="2.590919">
        <ele>418.090</ele>
        <time>2010-06-17T14:25:15Z</time>
      </trkpt>
      <trkpt lat="42.313247" lon="2.591770">
        <ele>420.019</ele>
        <time>2010-06-17T14:26:20Z</time>
      </trkpt>
      <trkpt lat="42.313432" lon="2.593104">
        <ele>430.006</ele>
        <time>2010-06-17T14:28:00Z</time>
      </trkpt>
      <trkpt lat="42.313163" lon="2.593469">
        <ele>444.026</ele>
        <time>2010-06-17T14:28:39Z</time>
      </trkpt>
      <trkpt lat="42.312985" lon="2.594077">
        <ele>468.023</ele>
        <time>2010-06-17T14:29:28Z</time>
      </trkpt>
      <trkpt lat="42.314030" lon="2.596558">
        <ele>490.070</ele>
        <time>2010-06-17T14:32:58Z</time>
      </trkpt>
      <trkpt lat="42.314348" lon="2.597406">
        <ele>496.048</ele>
        <time>2010-06-17T14:34:08Z</time>
      </trkpt>
      <trkpt lat="42.314216" lon="2.598316">
        <ele>534.036</ele>
        <time>2010-06-17T14:35:18Z</time>
      </trkpt>
      <trkpt lat="42.313814" lon="2.599168">
        <ele>575.018</ele>
        <time>2010-06-17T14:36:33Z</time>
      </trkpt>
      <trkpt lat="42.313772" lon="2.600200">
        <ele>612.057</ele>
        <time>2010-06-17T14:37:48Z</time>
      </trkpt>
      <trkpt lat="42.314451" lon="2.601288">
        <ele>629.000</ele>
        <time>2010-06-17T14:39:33Z</time>
      </trkpt>
      <trkpt lat="42.314815" lon="2.602256">
        <ele>631.020</ele>
        <time>2010-06-17T14:40:54Z</time>
      </trkpt>
      <trkpt lat="42.314504" lon="2.603593">
        <ele>643.006</ele>
        <time>2010-06-17T14:42:39Z</time>
      </trkpt>
      <trkpt lat="42.314057" lon="2.604324">
        <ele>659.044</ele>
        <time>2010-06-17T14:43:49Z</time>
      </trkpt>
      <trkpt lat="42.314107" lon="2.606023">
        <ele>659.091</ele>
        <time>2010-06-17T14:45:55Z</time>
      </trkpt>
      <trkpt lat="42.313887" lon="2.607298">
        <ele>692.068</ele>
        <time>2010-06-17T14:47:31Z</time>
      </trkpt>
      <trkpt lat="42.314122" lon="2.610330">
        <ele>789.066</ele>
        <time>2010-06-17T14:51:17Z</time>
      </trkpt>
      <trkpt lat="42.314847" lon="2.611661">
        <ele>818.014</ele>
        <time>2010-06-17T14:53:19Z</time>
      </trkpt>
      <trkpt lat="42.315835" lon="2.610744">
        <ele>853.056</ele>
        <time>2010-06-17T14:55:19Z</time>
      </trkpt>
      <trkpt lat="42.316286" lon="2.611166">
        <ele>868.062</ele>
        <time>2010-06-17T14:56:13Z</time>
      </trkpt>
      <trkpt lat="42.316154" lon="2.612017">
        <ele>879.083</ele>
        <time>2010-06-17T14:57:19Z</time>
      </trkpt>
      <trkpt lat="42.315573" lon="2.613355">
        <ele>837.011</ele>
        <time>2010-06-17T14:59:13Z</time>
      </trkpt>
      <trkpt lat="42.315803" lon="2.614689">
        <ele>832.006</ele>
        <time>2010-06-17T15:00:54Z</time>
      </trkpt>
      <trkpt lat="42.317107" lon="2.614195">
        <ele>903.035</ele>
        <time>2010-06-17T15:03:10Z</time>
      </trkpt>
      <trkpt lat="42.317649" lon="2.614495">
        <ele>912.022</ele>
        <time>2010-06-17T15:04:09Z</time>
      </trkpt>
      <trkpt lat="42.317921" lon="2.615282">
        <ele>904.089</ele>
        <time>2010-06-17T15:05:12Z</time>
      </trkpt>
      <trkpt lat="42.317340" lon="2.616439">
        <ele>841.087</ele>
        <time>2010-06-17T15:06:56Z</time>
      </trkpt>
      <trkpt lat="42.319459" lon="2.617154">
        <ele>896.065</ele>
        <time>2010-06-17T15:10:35Z</time>
      </trkpt>
      <trkpt lat="42.319867" lon="2.618001">
        <ele>898.027</ele>
        <time>2010-06-17T15:11:49Z</time>
      </trkpt>
      <trkpt lat="42.319690" lon="2.619034">
        <ele>896.096</ele>
        <time>2010-06-17T15:13:08Z</time>
      </trkpt>
      <trkpt lat="42.318793" lon="2.620071">
        <ele>879.031</ele>
        <time>2010-06-17T15:15:06Z</time>
      </trkpt>
      <trkpt lat="42.318844" lon="2.621891">
        <ele>852.024</ele>
        <time>2010-06-17T15:17:20Z</time>
      </trkpt>
      <trkpt lat="42.318532" lon="2.622742">
        <ele>832.006</ele>
        <time>2010-06-17T15:18:32Z</time>
      </trkpt>
      <trkpt lat="42.320248" lon="2.624188">
        <ele>860.048</ele>
        <time>2010-06-17T15:21:54Z</time>
      </trkpt>
      <trkpt lat="42.320435" lon="2.626371">
        <ele>886.035</ele>
        <time>2010-06-17T15:24:36Z</time>
      </trkpt>
      <trkpt lat="42.320753" lon="2.627280">
        <ele>906.012</ele>
        <time>2010-06-17T15:25:51Z</time>
      </trkpt>
      <trkpt lat="42.320800" lon="2.627947">
        <ele>931.060</ele>
        <time>2010-06-17T15:26:40Z</time>
      </trkpt>
      <trkpt lat="42.320038" lon="2.629044">
        <ele>939.038</ele>
        <time>2010-06-17T15:28:32Z</time>
      </trkpt>
      <trkpt lat="42.319418" lon="2.632308">
        <ele>1007.020</ele>
        <time>2010-06-17T15:32:40Z</time>
      </trkpt>
      <trkpt lat="42.319561" lon="2.634795">
        <ele>1098.012</ele>
        <time>2010-06-17T15:35:45Z</time>
      </trkpt>
      <trkpt lat="42.318843" lon="2.635406">
        <ele>1101.032</ele>
        <time>2010-06-17T15:37:11Z</time>
      </trkpt>
      <trkpt lat="42.318709" lon="2.635832">
        <ele>1111.005</ele>
        <time>2010-06-17T15:37:44Z</time>
      </trkpt>
      <trkpt lat="42.318079" lon="2.635896">
        <ele>1114.006</ele>
        <time>2010-06-17T15:38:48Z</time>
      </trkpt>
      <trkpt lat="42.317585" lon="2.636566">
        <ele>1123.050</ele>
        <time>2010-06-17T15:39:58Z</time>
      </trkpt>
      <trkpt lat="42.317769" lon="2.637536">
        <ele>1105.097</ele>
        <time>2010-06-17T15:41:11Z</time>
      </trkpt>
      <trkpt lat="42.317552" lon="2.640268">
        <ele>1087.034</ele>
        <time>2010-06-17T15:44:36Z</time>
      </trkpt>
      <trkpt lat="42.315755" lon="2.641431">
        <ele>1082.062</ele>
        <time>2010-06-17T15:47:54Z</time>
      </trkpt>
      <trkpt lat="42.314903" lon="2.642588">
        <ele>1024.020</ele>
        <time>2010-06-17T15:49:55Z</time>
      </trkpt>
      <trkpt lat="42.314232" lon="2.644109">
        <ele>973.062</ele>
        <time>2010-06-17T15:52:07Z</time>
      </trkpt>
      <trkpt lat="42.313432" lon="2.647511">
        <ele>876.052</ele>
        <time>2010-06-17T15:56:30Z</time>
      </trkpt>
      <trkpt lat="42.312447" lon="2.649337">
        <ele>786.053</ele>
        <time>2010-06-17T15:59:18Z</time>
      </trkpt>
      <trkpt lat="42.311890" lon="2.649886">
        <ele>759.008</ele>
        <time>2010-06-17T16:00:27Z</time>
      </trkpt>
      <trkpt lat="42.311804" lon="2.651160">
        <ele>749.006</ele>
        <time>2010-06-17T16:02:01Z</time>
      </trkpt>
      <trkpt lat="42.311400" lon="2.651709">
        <ele>747.014</ele>
        <time>2010-06-17T16:02:58Z</time>
      </trkpt>
      <trkpt lat="42.311807" lon="2.652313">
        <ele>764.011</ele>
        <time>2010-06-17T16:04:00Z</time>
      </trkpt>
      <trkpt lat="42.311809" lon="2.653041">
        <ele>770.088</ele>
        <time>2010-06-17T16:04:53Z</time>
      </trkpt>
      <trkpt lat="42.310642" lon="2.654140">
        <ele>737.036</ele>
        <time>2010-06-17T16:07:16Z</time>
      </trkpt>
      <trkpt lat="42.310377" lon="2.655901">
        <ele>733.094</ele>
        <time>2010-06-17T16:09:28Z</time>
      </trkpt>
      <trkpt lat="42.310605" lon="2.656870">
        <ele>739.096</ele>
        <time>2010-06-17T16:10:43Z</time>
      </trkpt>
      <trkpt lat="42.310526" lon="2.660389">
        <ele>707.035</ele>
        <time>2010-06-17T16:15:04Z</time>
      </trkpt>
      <trkpt lat="42.311878" lon="2.660807">
        <ele>709.086</ele>
        <time>2010-06-17T16:17:24Z</time>
      </trkpt>
      <trkpt lat="42.313093" lon="2.660800">
        <ele>713.014</ele>
        <time>2010-06-17T16:19:25Z</time>
      </trkpt>
      <trkpt lat="42.313725" lon="2.661161">
        <ele>704.006</ele>
        <time>2010-06-17T16:20:34Z</time>
      </trkpt>
      <trkpt lat="42.314220" lon="2.661037">
        <ele>719.012</ele>
        <time>2010-06-17T16:21:23Z</time>
      </trkpt>
      <trkpt lat="42.314492" lon="2.661581">
        <ele>704.049</ele>
        <time>2010-06-17T16:22:12Z</time>
      </trkpt>
      <trkpt lat="42.314853" lon="2.661944">
        <ele>707.026</ele>
        <time>2010-06-17T16:22:58Z</time>
      </trkpt>
      <trkpt lat="42.314767" lon="2.663400">
        <ele>694.024</ele>
        <time>2010-06-17T16:24:45Z</time>
      </trkpt>
      <trkpt lat="42.315177" lon="2.664915">
        <ele>706.022</ele>
        <time>2010-06-17T16:26:45Z</time>
      </trkpt>
      <trkpt lat="42.315048" lon="2.667160">
        <ele>694.024</ele>
        <time>2010-06-17T16:29:32Z</time>
      </trkpt>
      <trkpt lat="42.314645" lon="2.667951">
        <ele>692.079</ele>
        <time>2010-06-17T16:30:43Z</time>
      </trkpt>
      <trkpt lat="42.314375" lon="2.667710">
        <ele>679.005</ele>
        <time>2010-06-17T16:31:15Z</time>
      </trkpt>
      <trkpt lat="42.314240" lon="2.668014">
        <ele>671.025</ele>
        <time>2010-06-17T16:31:42Z</time>
      </trkpt>
      <trkpt lat="42.314064" lon="2.669168">
        <ele>683.006</ele>
        <time>2010-06-17T16:33:08Z</time>
      </trkpt>
      <trkpt lat="42.313616" lon="2.670141">
        <ele>670.056</ele>
        <time>2010-06-17T16:34:34Z</time>
      </trkpt>
      <trkpt lat="42.313799" lon="2.671293">
        <ele>692.033</ele>
        <time>2010-06-17T16:36:00Z</time>
      </trkpt>
      <trkpt lat="42.313400" lon="2.673358">
        <ele>675.090</ele>
        <time>2010-06-17T16:38:38Z</time>
      </trkpt>
      <trkpt lat="42.313447" lon="2.674025">
        <ele>666.028</ele>
        <time>2010-06-17T16:39:27Z</time>
      </trkpt>
      <trkpt lat="42.314259" lon="2.674688">
        <ele>658.056</ele>
        <time>2010-06-17T16:41:03Z</time>
      </trkpt>
      <trkpt lat="42.314800" lon="2.674746">
        <ele>659.018</ele>
        <time>2010-06-17T16:41:58Z</time>
      </trkpt>
      <trkpt lat="42.315338" lon="2.673954">
        <ele>688.093</ele>
        <time>2010-06-17T16:43:16Z</time>
      </trkpt>
      <trkpt lat="42.315968" lon="2.673891">
        <ele>687.065</ele>
        <time>2010-06-17T16:44:20Z</time>
      </trkpt>
      <trkpt lat="42.316646" lon="2.674797">
        <ele>681.021</ele>
        <time>2010-06-17T16:45:56Z</time>
      </trkpt>
      <trkpt lat="42.316603" lon="2.675343">
        <ele>667.006</ele>
        <time>2010-06-17T16:46:35Z</time>
      </trkpt>
      <trkpt lat="42.317011" lon="2.676191">
        <ele>667.038</ele>
        <time>2010-06-17T16:47:50Z</time>
      </trkpt>
      <trkpt lat="42.316617" lon="2.680258">
        <ele>646.075</ele>
        <time>2010-06-17T16:52:54Z</time>
      </trkpt>
      <trkpt lat="42.316518" lon="2.677225">
        <ele>621.042</ele>
        <time>2010-06-17T16:56:39Z</time>
      </trkpt>
      <trkpt lat="42.316119" lon="2.679290">
        <ele>621.060</ele>
        <time>2010-06-17T16:59:16Z</time>
      </trkpt>
      <trkpt lat="42.315626" lon="2.680324">
        <ele>596.058</ele>
        <time>2010-06-17T17:00:48Z</time>
      </trkpt>
      <trkpt lat="42.315585" lon="2.681659">
        <ele>591.070</ele>
        <time>2010-06-17T17:02:27Z</time>
      </trkpt>
      <trkpt lat="42.315858" lon="2.682871">
        <ele>577.095</ele>
        <time>2010-06-17T17:04:00Z</time>
      </trkpt>
      <trkpt lat="42.316354" lon="2.682868">
        <ele>579.049</ele>
        <time>2010-06-17T17:04:51Z</time>
      </trkpt>
      <trkpt lat="42.316893" lon="2.682502">
        <ele>589.023</ele>
        <time>2010-06-17T17:05:51Z</time>
      </trkpt>
      <trkpt lat="42.317389" lon="2.682742">
        <ele>589.006</ele>
        <time>2010-06-17T17:06:44Z</time>
      </trkpt>
      <trkpt lat="42.317841" lon="2.683225">
        <ele>582.038</ele>
        <time>2010-06-17T17:07:41Z</time>
      </trkpt>
      <trkpt lat="42.317668" lon="2.686017">
        <ele>546.035</ele>
        <time>2010-06-17T17:11:09Z</time>
      </trkpt>
      <trkpt lat="42.317671" lon="2.687109">
        <ele>534.012</ele>
        <time>2010-06-17T17:12:29Z</time>
      </trkpt>
      <trkpt lat="42.318260" lon="2.688259">
        <ele>536.020</ele>
        <time>2010-06-17T17:14:13Z</time>
      </trkpt>
      <trkpt lat="42.317990" lon="2.688261">
        <ele>523.048</ele>
        <time>2010-06-17T17:14:40Z</time>
      </trkpt>
      <trkpt lat="42.318671" lon="2.690361">
        <ele>490.070</ele>
        <time>2010-06-17T17:17:30Z</time>
      </trkpt>
      <trkpt lat="42.319484" lon="2.691267">
        <ele>452.054</ele>
        <time>2010-06-17T17:19:15Z</time>
      </trkpt>
      <trkpt lat="42.318626" lon="2.690665">
        <ele>482.056</ele>
        <time>2010-06-17T17:20:52Z</time>
      </trkpt>
      <trkpt lat="42.319080" lon="2.691937">
        <ele>445.011</ele>
        <time>2010-06-17T17:22:36Z</time>
      </trkpt>
      <trkpt lat="42.318312" lon="2.691030">
        <ele>465.006</ele>
        <time>2010-06-17T17:24:19Z</time>
      </trkpt>
      <trkpt lat="42.318584" lon="2.691636">
        <ele>454.014</ele>
        <time>2010-06-17T17:25:10Z</time>
      </trkpt>
      <trkpt lat="42.318544" lon="2.693517">
        <ele>429.091</ele>
        <time>2010-06-17T17:27:30Z</time>
      </trkpt>
      <trkpt lat="42.318186" lon="2.694429">
        <ele>412.038</ele>
        <time>2010-06-17T17:28:47Z</time>
      </trkpt>
      <trkpt lat="42.319084" lon="2.693454">
        <ele>425.046</ele>
        <time>2010-06-17T17:30:41Z</time>
      </trkpt>
      <trkpt lat="42.318636" lon="2.694305">
        <ele>425.074</ele>
        <time>2010-06-17T17:31:59Z</time>
      </trkpt>
      <trkpt lat="42.317966" lon="2.696432">
        <ele>394.016</ele>
        <time>2010-06-17T17:34:50Z</time>
      </trkpt>
      <trkpt lat="42.317649" lon="2.695706">
        <ele>396.084</ele>
        <time>2010-06-17T17:35:53Z</time>
      </trkpt>
      <trkpt lat="42.317335" lon="2.695889">
        <ele>381.007</ele>
        <time>2010-06-17T17:36:27Z</time>
      </trkpt>
      <trkpt lat="42.317607" lon="2.696859">
        <ele>387.017</ele>
        <time>2010-06-17T17:37:43Z</time>
      </trkpt>
      <trkpt lat="42.317115" lon="2.698075">
        <ele>393.006</ele>
        <time>2010-06-17T17:39:26Z</time>
      </trkpt>
      <trkpt lat="42.316894" lon="2.699653">
        <ele>364.087</ele>
        <time>2010-06-17T17:41:24Z</time>
      </trkpt>
      <trkpt lat="42.316264" lon="2.699717">
        <ele>351.034</ele>
        <time>2010-06-17T17:42:28Z</time>
      </trkpt>
      <trkpt lat="42.316806" lon="2.700442">
        <ele>339.061</ele>
        <time>2010-06-17T17:43:44Z</time>
      </trkpt>
      <trkpt lat="42.314959" lon="2.700026">
        <ele>320.079</ele>
        <time>2010-06-17T17:46:52Z</time>
      </trkpt>
      <trkpt lat="42.314644" lon="2.700331">
        <ele>315.087</ele>
        <time>2010-06-17T17:47:31Z</time>
      </trkpt>
      <trkpt lat="42.315907" lon="2.700993">
        <ele>309.049</ele>
        <time>2010-06-17T17:49:46Z</time>
      </trkpt>
      <trkpt lat="42.315231" lon="2.700632">
        <ele>319.031</ele>
        <time>2010-06-17T17:50:59Z</time>
      </trkpt>
      <trkpt lat="42.314600" lon="2.700696">
        <ele>305.061</ele>
        <time>2010-06-17T17:52:01Z</time>
      </trkpt>
      <trkpt lat="42.315052" lon="2.701057">
        <ele>301.007</ele>
        <time>2010-06-17T17:52:55Z</time>
      </trkpt>
      <trkpt lat="42.315143" lon="2.701785">
        <ele>287.006</ele>
        <time>2010-06-17T17:53:49Z</time>
      </trkpt>
      <trkpt lat="42.315097" lon="2.701179">
        <ele>301.052</ele>
        <time>2010-06-17T17:54:34Z</time>
      </trkpt>
      <trkpt lat="42.314016" lon="2.701002">
        <ele>277.049</ele>
        <time>2010-06-17T17:56:24Z</time>
      </trkpt>
      <trkpt lat="42.314782" lon="2.701423">
        <ele>290.096</ele>
        <time>2010-06-17T17:57:45Z</time>
      </trkpt>
      <trkpt lat="42.314739" lon="2.702151">
        <ele>271.034</ele>
        <time>2010-06-17T17:58:39Z</time>
      </trkpt>
      <trkpt lat="42.315146" lon="2.702756">
        <ele>259.072</ele>
        <time>2010-06-17T17:59:41Z</time>
      </trkpt>
      <trkpt lat="42.314336" lon="2.703002">
        <ele>258.034</ele>
        <time>2010-06-17T18:01:04Z</time>
      </trkpt>
      <trkpt lat="42.315192" lon="2.703059">
        <ele>256.044</ele>
        <time>2010-06-17T18:02:30Z</time>
      </trkpt>
      <trkpt lat="42.316676" lon="2.702506">
        <ele>266.005</ele>
        <time>2010-06-17T18:05:04Z</time>
      </trkpt>
      <trkpt lat="42.316901" lon="2.702262">
        <ele>274.015</ele>
        <time>2010-06-17T18:05:33Z</time>
      </trkpt>
      <trkpt lat="42.315957" lon="2.702752">
        <ele>257.006</ele>
        <time>2010-06-17T18:07:13Z</time>
      </trkpt>
      <trkpt lat="42.315148" lon="2.703545">
        <ele>253.043</ele>
        <time>2010-06-17T18:08:54Z</time>
      </trkpt>
      <trkpt lat="42.313843" lon="2.703915">
        <ele>249.030</ele>
        <time>2010-06-17T18:11:07Z</time>
      </trkpt>
      <trkpt lat="42.313211" lon="2.703190">
        <ele>245.067</ele>
        <time>2010-06-17T18:12:30Z</time>
      </trkpt>
      <trkpt lat="42.313209" lon="2.702401">
        <ele>245.025</ele>
        <time>2010-06-17T18:13:29Z</time>
      </trkpt>
      <trkpt lat="42.312667" lon="2.701918">
        <ele>244.043</ele>
        <time>2010-06-17T18:14:34Z</time>
      </trkpt>
      <trkpt lat="42.311947" lon="2.702164">
        <ele>244.015</ele>
        <time>2010-06-17T18:15:48Z</time>
      </trkpt>
      <trkpt lat="42.311140" lon="2.703624">
        <ele>248.057</ele>
        <time>2010-06-17T18:18:03Z</time>
      </trkpt>
      <trkpt lat="42.308800" lon="2.704060">
        <ele>239.000</ele>
        <time>2010-06-17T18:21:58Z</time>
      </trkpt>
      <trkpt lat="42.308127" lon="2.704912">
        <ele>231.020</ele>
        <time>2010-06-17T18:23:31Z</time>
      </trkpt>
      <trkpt lat="42.307272" lon="2.705098">
        <ele>236.006</ele>
        <time>2010-06-17T18:24:58Z</time>
      </trkpt>
      <trkpt lat="42.307274" lon="2.706190">
        <ele>235.024</ele>
        <time>2010-06-17T18:26:18Z</time>
      </trkpt>
      <trkpt lat="42.307683" lon="2.707462">
        <ele>230.031</ele>
        <time>2010-06-17T18:28:01Z</time>
      </trkpt>
      <trkpt lat="42.307237" lon="2.709284">
        <ele>232.068</ele>
        <time>2010-06-17T18:30:23Z</time>
      </trkpt>
      <trkpt lat="42.306426" lon="2.709106">
        <ele>241.016</ele>
        <time>2010-06-17T18:31:46Z</time>
      </trkpt>
      <trkpt lat="42.306339" lon="2.710198">
        <ele>241.074</ele>
        <time>2010-06-17T18:33:07Z</time>
      </trkpt>
      <trkpt lat="42.306351" lon="2.714991">
        <ele>227.046</ele>
        <time>2010-06-17T18:39:02Z</time>
      </trkpt>
      <trkpt lat="42.305992" lon="2.715357">
        <ele>226.092</ele>
        <time>2010-06-17T18:39:47Z</time>
      </trkpt>
      <trkpt lat="42.305992" lon="2.715720">
        <ele>223.073</ele>
        <time>2010-06-17T18:40:14Z</time>
      </trkpt>
      <trkpt lat="42.306310" lon="2.716508">
        <ele>228.020</ele>
        <time>2010-06-17T18:41:19Z</time>
      </trkpt>
      <trkpt lat="42.305457" lon="2.717664">
        <ele>230.006</ele>
        <time>2010-06-17T18:43:20Z</time>
      </trkpt>
      <trkpt lat="42.305552" lon="2.719666">
        <ele>232.088</ele>
        <time>2010-06-17T18:45:48Z</time>
      </trkpt>
      <trkpt lat="42.305012" lon="2.719971">
        <ele>223.045</ele>
        <time>2010-06-17T18:46:47Z</time>
      </trkpt>
      <trkpt lat="42.305827" lon="2.721727">
        <ele>227.032</ele>
        <time>2010-06-17T18:49:20Z</time>
      </trkpt>
      <trkpt lat="42.305875" lon="2.722880">
        <ele>224.020</ele>
        <time>2010-06-17T18:50:46Z</time>
      </trkpt>
      <trkpt lat="42.306280" lon="2.722817">
        <ele>235.088</ele>
        <time>2010-06-17T18:51:27Z</time>
      </trkpt>
      <trkpt lat="42.306516" lon="2.727548">
        <ele>229.070</ele>
        <time>2010-06-17T18:57:19Z</time>
      </trkpt>
      <trkpt lat="42.306653" lon="2.727972">
        <ele>229.073</ele>
        <time>2010-06-17T18:57:52Z</time>
      </trkpt>
      <trkpt lat="42.307057" lon="2.727788">
        <ele>243.085</ele>
        <time>2010-06-17T18:58:35Z</time>
      </trkpt>
      <trkpt lat="42.307913" lon="2.727785">
        <ele>269.013</ele>
        <time>2010-06-17T19:00:00Z</time>
      </trkpt>
      <trkpt lat="42.308274" lon="2.728268">
        <ele>264.006</ele>
        <time>2010-06-17T19:00:51Z</time>
      </trkpt>
      <trkpt lat="42.310483" lon="2.729230">
        <ele>268.056</ele>
        <time>2010-06-17T19:04:43Z</time>
      </trkpt>
      <trkpt lat="42.311967" lon="2.728435">
        <ele>290.063</ele>
        <time>2010-06-17T19:07:24Z</time>
      </trkpt>
      <trkpt lat="42.310615" lon="2.727955">
        <ele>279.080</ele>
        <time>2010-06-17T19:09:44Z</time>
      </trkpt>
      <trkpt lat="42.310568" lon="2.726924">
        <ele>309.028</ele>
        <time>2010-06-17T19:10:59Z</time>
      </trkpt>
      <trkpt lat="42.310251" lon="2.726258">
        <ele>321.046</ele>
        <time>2010-06-17T19:11:59Z</time>
      </trkpt>
      <trkpt lat="42.309845" lon="2.726138">
        <ele>330.098</ele>
        <time>2010-06-17T19:12:41Z</time>
      </trkpt>
      <trkpt lat="42.309125" lon="2.726263">
        <ele>331.059</ele>
        <time>2010-06-17T19:13:52Z</time>
      </trkpt>
      <trkpt lat="42.310067" lon="2.724560">
        <ele>342.003</ele>
        <time>2010-06-17T19:16:30Z</time>
      </trkpt>
      <trkpt lat="42.310652" lon="2.724497">
        <ele>342.023</ele>
        <time>2010-06-17T19:17:29Z</time>
      </trkpt>
      <trkpt lat="42.311510" lon="2.725464">
        <ele>352.006</ele>
        <time>2010-06-17T19:19:20Z</time>
      </trkpt>
      <trkpt lat="42.311961" lon="2.725583">
        <ele>348.084</ele>
        <time>2010-06-17T19:20:07Z</time>
      </trkpt>
      <trkpt lat="42.312588" lon="2.724367">
        <ele>343.091</ele>
        <time>2010-06-17T19:21:56Z</time>
      </trkpt>
      <trkpt lat="42.312814" lon="2.724548">
        <ele>353.018</ele>
        <time>2010-06-17T19:22:23Z</time>
      </trkpt>
      <trkpt lat="42.313757" lon="2.723573">
        <ele>386.086</ele>
        <time>2010-06-17T19:24:21Z</time>
      </trkpt>
      <trkpt lat="42.313845" lon="2.722845">
        <ele>376.054</ele>
        <time>2010-06-17T19:25:15Z</time>
      </trkpt>
      <trkpt lat="42.314206" lon="2.723086">
        <ele>383.016</ele>
        <time>2010-06-17T19:25:57Z</time>
      </trkpt>
      <trkpt lat="42.314477" lon="2.723388">
        <ele>390.051</ele>
        <time>2010-06-17T19:26:32Z</time>
      </trkpt>
      <trkpt lat="42.315063" lon="2.723446">
        <ele>397.001</ele>
        <time>2010-06-17T19:27:31Z</time>
      </trkpt>
      <trkpt lat="42.314075" lon="2.724603">
        <ele>394.011</ele>
        <time>2010-06-17T19:29:41Z</time>
      </trkpt>
      <trkpt lat="42.315336" lon="2.724719">
        <ele>411.006</ele>
        <time>2010-06-17T19:31:47Z</time>
      </trkpt>
      <trkpt lat="42.316504" lon="2.723682">
        <ele>438.094</ele>
        <time>2010-06-17T19:34:07Z</time>
      </trkpt>
      <trkpt lat="42.316547" lon="2.722651">
        <ele>441.041</ele>
        <time>2010-06-17T19:35:24Z</time>
      </trkpt>
      <trkpt lat="42.317222" lon="2.722648">
        <ele>458.028</ele>
        <time>2010-06-17T19:36:32Z</time>
      </trkpt>
      <trkpt lat="42.317671" lon="2.722160">
        <ele>471.016</ele>
        <time>2010-06-17T19:37:28Z</time>
      </trkpt>
      <trkpt lat="42.317942" lon="2.722281">
        <ele>483.024</ele>
        <time>2010-06-17T19:37:58Z</time>
      </trkpt>
      <trkpt lat="42.317224" lon="2.723437">
        <ele>466.096</ele>
        <time>2010-06-17T19:39:49Z</time>
      </trkpt>
      <trkpt lat="42.317270" lon="2.724043">
        <ele>470.051</ele>
        <time>2010-06-17T19:40:35Z</time>
      </trkpt>
      <trkpt lat="42.317811" lon="2.724223">
        <ele>498.001</ele>
        <time>2010-06-17T19:41:30Z</time>
      </trkpt>
      <trkpt lat="42.318173" lon="2.724646">
        <ele>498.011</ele>
        <time>2010-06-17T19:42:17Z</time>
      </trkpt>
      <trkpt lat="42.318397" lon="2.724220">
        <ele>516.006</ele>
        <time>2010-06-17T19:42:57Z</time>
      </trkpt>
      <trkpt lat="42.318847" lon="2.724218">
        <ele>535.024</ele>
        <time>2010-06-17T19:43:42Z</time>
      </trkpt>
      <trkpt lat="42.318894" lon="2.725250">
        <ele>529.061</ele>
        <time>2010-06-17T19:44:58Z</time>
      </trkpt>
      <trkpt lat="42.319211" lon="2.725976">
        <ele>538.058</ele>
        <time>2010-06-17T19:46:00Z</time>
      </trkpt>
      <trkpt lat="42.318988" lon="2.726766">
        <ele>523.076</ele>
        <time>2010-06-17T19:47:04Z</time>
      </trkpt>
      <trkpt lat="42.319124" lon="2.727069">
        <ele>538.054</ele>
        <time>2010-06-17T19:47:29Z</time>
      </trkpt>
      <trkpt lat="42.320067" lon="2.726033">
        <ele>559.056</ele>
        <time>2010-06-17T19:49:30Z</time>
      </trkpt>
      <trkpt lat="42.320473" lon="2.726214">
        <ele>559.051</ele>
        <time>2010-06-17T19:50:13Z</time>
      </trkpt>
      <trkpt lat="42.320972" lon="2.727971">
        <ele>567.001</ele>
        <time>2010-06-17T19:52:32Z</time>
      </trkpt>
      <trkpt lat="42.322087" lon="2.728755">
        <ele>563.011</ele>
        <time>2010-06-17T19:54:39Z</time>
      </trkpt>
      <trkpt lat="42.324340" lon="2.729474">
        <ele>568.006</ele>
        <time>2010-06-17T19:58:30Z</time>
      </trkpt>
      <trkpt lat="42.324612" lon="2.730201">
        <ele>583.044</ele>
        <time>2010-06-17T19:59:31Z</time>
      </trkpt>
      <trkpt lat="42.325649" lon="2.730864">
        <ele>582.071</ele>
        <time>2010-06-17T20:01:25Z</time>
      </trkpt>
      <trkpt lat="42.327090" lon="2.731040">
        <ele>584.068</ele>
        <time>2010-06-17T20:03:50Z</time>
      </trkpt>
      <trkpt lat="42.327675" lon="2.730734">
        <ele>570.046</ele>
        <time>2010-06-17T20:04:52Z</time>
      </trkpt>
      <trkpt lat="42.328482" lon="2.729274">
        <ele>570.044</ele>
        <time>2010-06-17T20:07:08Z</time>
      </trkpt>
      <trkpt lat="42.327398" lon="2.727883">
        <ele>561.036</ele>
        <time>2010-06-17T20:09:37Z</time>
      </trkpt>
      <trkpt lat="42.328254" lon="2.727940">
        <ele>555.056</ele>
        <time>2010-06-17T20:11:03Z</time>
      </trkpt>
      <trkpt lat="42.329291" lon="2.728421">
        <ele>545.059</ele>
        <time>2010-06-17T20:12:53Z</time>
      </trkpt>
      <trkpt lat="42.331090" lon="2.727381">
        <ele>536.014</ele>
        <time>2010-06-17T20:16:09Z</time>
      </trkpt>
      <trkpt lat="42.331626" lon="2.725801">
        <ele>550.006</ele>
        <time>2010-06-17T20:18:18Z</time>
      </trkpt>
      <trkpt lat="42.332076" lon="2.725799">
        <ele>551.044</ele>
        <time>2010-06-17T20:19:02Z</time>
      </trkpt>
      <trkpt lat="42.332750" lon="2.725189">
        <ele>559.061</ele>
        <time>2010-06-17T20:20:24Z</time>
      </trkpt>
      <trkpt lat="42.333516" lon="2.725065">
        <ele>585.078</ele>
        <time>2010-06-17T20:21:40Z</time>
      </trkpt>
      <trkpt lat="42.334507" lon="2.725303">
        <ele>615.026</ele>
        <time>2010-06-17T20:23:22Z</time>
      </trkpt>
      <trkpt lat="42.335724" lon="2.726026">
        <ele>607.064</ele>
        <time>2010-06-17T20:25:35Z</time>
      </trkpt>
      <trkpt lat="42.335902" lon="2.724994">
        <ele>635.086</ele>
        <time>2010-06-17T20:26:52Z</time>
      </trkpt>
      <trkpt lat="42.335899" lon="2.723841">
        <ele>642.087</ele>
        <time>2010-06-17T20:28:18Z</time>
      </trkpt>
      <trkpt lat="42.335310" lon="2.722265">
        <ele>638.042</ele>
        <time>2010-06-17T20:30:28Z</time>
      </trkpt>
      <trkpt lat="42.335443" lon="2.721415">
        <ele>650.026</ele>
        <time>2010-06-17T20:31:34Z</time>
      </trkpt>
      <trkpt lat="42.336614" lon="2.721288">
        <ele>641.006</ele>
        <time>2010-06-17T20:33:30Z</time>
      </trkpt>
      <trkpt lat="42.337063" lon="2.720922">
        <ele>638.067</ele>
        <time>2010-06-17T20:34:24Z</time>
      </trkpt>
      <trkpt lat="42.336881" lon="2.719952">
        <ele>647.054</ele>
        <time>2010-06-17T20:35:37Z</time>
      </trkpt>
      <trkpt lat="42.337195" lon="2.719586">
        <ele>637.071</ele>
        <time>2010-06-17T20:36:19Z</time>
      </trkpt>
      <trkpt lat="42.337237" lon="2.718494">
        <ele>639.079</ele>
        <time>2010-06-17T20:37:40Z</time>
      </trkpt>
      <trkpt lat="42.338001" lon="2.717944">
        <ele>627.027</ele>
        <time>2010-06-17T20:39:07Z</time>
      </trkpt>
      <trkpt lat="42.339039" lon="2.718850">
        <ele>648.029</ele>
        <time>2010-06-17T20:41:10Z</time>
      </trkpt>
      <trkpt lat="42.339221" lon="2.719638">
        <ele>631.025</ele>
        <time>2010-06-17T20:42:11Z</time>
      </trkpt>
      <trkpt lat="42.340167" lon="2.719755">
        <ele>654.026</ele>
        <time>2010-06-17T20:43:46Z</time>
      </trkpt>
      <trkpt lat="42.340975" lon="2.718720">
        <ele>692.008</ele>
        <time>2010-06-17T20:45:37Z</time>
      </trkpt>
      <trkpt lat="42.341741" lon="2.718777">
        <ele>682.006</ele>
        <time>2010-06-17T20:46:54Z</time>
      </trkpt>
      <trkpt lat="42.342731" lon="2.718530">
        <ele>684.021</ele>
        <time>2010-06-17T20:48:34Z</time>
      </trkpt>
      <trkpt lat="42.343314" lon="2.717556">
        <ele>687.098</ele>
        <time>2010-06-17T20:50:08Z</time>
      </trkpt>
      <trkpt lat="42.343672" lon="2.716462">
        <ele>692.055</ele>
        <time>2010-06-17T20:51:36Z</time>
      </trkpt>
      <trkpt lat="42.344257" lon="2.716338">
        <ele>691.023</ele>
        <time>2010-06-17T20:52:36Z</time>
      </trkpt>
      <trkpt lat="42.344934" lon="2.717002">
        <ele>702.081</ele>
        <time>2010-06-17T20:53:59Z</time>
      </trkpt>
      <trkpt lat="42.345565" lon="2.717121">
        <ele>716.033</ele>
        <time>2010-06-17T20:55:03Z</time>
      </trkpt>
      <trkpt lat="42.346194" lon="2.716815">
        <ele>737.032</ele>
        <time>2010-06-17T20:56:09Z</time>
      </trkpt>
      <trkpt lat="42.348577" lon="2.715043">
        <ele>759.092</ele>
        <time>2010-06-17T21:00:42Z</time>
      </trkpt>
      <trkpt lat="42.349388" lon="2.715465">
        <ele>754.011</ele>
        <time>2010-06-17T21:02:09Z</time>
      </trkpt>
      <trkpt lat="42.349391" lon="2.716497">
        <ele>735.006</ele>
        <time>2010-06-17T21:03:24Z</time>
      </trkpt>
      <trkpt lat="42.350560" lon="2.716067">
        <ele>746.022</ele>
        <time>2010-06-17T21:05:27Z</time>
      </trkpt>
      <trkpt lat="42.351058" lon="2.717036">
        <ele>739.039</ele>
        <time>2010-06-17T21:06:53Z</time>
      </trkpt>
      <trkpt lat="42.351825" lon="2.717518">
        <ele>759.056</ele>
        <time>2010-06-17T21:08:19Z</time>
      </trkpt>
      <trkpt lat="42.352141" lon="2.717881">
        <ele>762.014</ele>
        <time>2010-06-17T21:09:00Z</time>
      </trkpt>
      <trkpt lat="42.351873" lon="2.718975">
        <ele>744.012</ele>
        <time>2010-06-17T21:10:24Z</time>
      </trkpt>
      <trkpt lat="42.351877" lon="2.720614">
        <ele>753.044</ele>
        <time>2010-06-17T21:12:25Z</time>
      </trkpt>
      <trkpt lat="42.351610" lon="2.721890">
        <ele>756.053</ele>
        <time>2010-06-17T21:14:04Z</time>
      </trkpt>
      <trkpt lat="42.351793" lon="2.722982">
        <ele>769.004</ele>
        <time>2010-06-17T21:15:27Z</time>
      </trkpt>
      <trkpt lat="42.351617" lon="2.724561">
        <ele>771.014</ele>
        <time>2010-06-17T21:17:25Z</time>
      </trkpt>
      <trkpt lat="42.353204" lon="2.729107">
        <ele>644.006</ele>
        <time>2010-06-17T21:23:37Z</time>
      </trkpt>
      <trkpt lat="42.353206" lon="2.729897">
        <ele>634.084</ele>
        <time>2010-06-17T21:24:36Z</time>
      </trkpt>
      <trkpt lat="42.352045" lon="2.734455">
        <ele>580.061</ele>
        <time>2010-06-17T21:30:31Z</time>
      </trkpt>
      <trkpt lat="42.351825" lon="2.736581">
        <ele>564.078</ele>
        <time>2010-06-17T21:33:10Z</time>
      </trkpt>
      <trkpt lat="42.351197" lon="2.737615">
        <ele>559.026</ele>
        <time>2010-06-17T21:34:50Z</time>
      </trkpt>
      <trkpt lat="42.350477" lon="2.737861">
        <ele>552.014</ele>
        <time>2010-06-17T21:36:04Z</time>
      </trkpt>
      <trkpt lat="42.350658" lon="2.738225">
        <ele>550.086</ele>
        <time>2010-06-17T21:36:36Z</time>
      </trkpt>
      <trkpt lat="42.350434" lon="2.738650">
        <ele>549.083</ele>
        <time>2010-06-17T21:37:14Z</time>
      </trkpt>
      <trkpt lat="42.350749" lon="2.738831">
        <ele>546.025</ele>
        <time>2010-06-17T21:37:49Z</time>
      </trkpt>
      <trkpt lat="42.350435" lon="2.739075">
        <ele>544.017</ele>
        <time>2010-06-17T21:38:26Z</time>
      </trkpt>
      <trkpt lat="42.350572" lon="2.739803">
        <ele>540.006</ele>
        <time>2010-06-17T21:39:21Z</time>
      </trkpt>
      <trkpt lat="42.351112" lon="2.739862">
        <ele>536.027</ele>
        <time>2010-06-17T21:40:15Z</time>
      </trkpt>
      <trkpt lat="42.351699" lon="2.740406">
        <ele>531.094</ele>
        <time>2010-06-17T21:41:27Z</time>
      </trkpt>
      <trkpt lat="42.351607" lon="2.739617">
        <ele>530.061</ele>
        <time>2010-06-17T21:42:26Z</time>
      </trkpt>
      <trkpt lat="42.352010" lon="2.738583">
        <ele>530.099</ele>
        <time>2010-06-17T21:43:52Z</time>
      </trkpt>
      <trkpt lat="42.352684" lon="2.738216">
        <ele>509.057</ele>
        <time>2010-06-17T21:45:05Z</time>
      </trkpt>
      <trkpt lat="42.352997" lon="2.736940">
        <ele>520.059</ele>
        <time>2010-06-17T21:46:44Z</time>
      </trkpt>
      <trkpt lat="42.353310" lon="2.736271">
        <ele>525.038</ele>
        <time>2010-06-17T21:47:43Z</time>
      </trkpt>
      <trkpt lat="42.353942" lon="2.736633">
        <ele>522.070</ele>
        <time>2010-06-17T21:48:51Z</time>
      </trkpt>
      <trkpt lat="42.354213" lon="2.737299">
        <ele>514.017</ele>
        <time>2010-06-17T21:49:48Z</time>
      </trkpt>
      <trkpt lat="42.354664" lon="2.737419">
        <ele>523.006</ele>
        <time>2010-06-17T21:50:33Z</time>
      </trkpt>
      <trkpt lat="42.355386" lon="2.738144">
        <ele>515.082</ele>
        <time>2010-06-17T21:52:04Z</time>
      </trkpt>
      <trkpt lat="42.356372" lon="2.736076">
        <ele>499.079</ele>
        <time>2010-06-17T21:55:05Z</time>
      </trkpt>
      <trkpt lat="42.357180" lon="2.734980">
        <ele>485.086</ele>
        <time>2010-06-17T21:57:00Z</time>
      </trkpt>
      <trkpt lat="42.357811" lon="2.735341">
        <ele>467.044</ele>
        <time>2010-06-17T21:58:08Z</time>
      </trkpt>
      <trkpt lat="42.357540" lon="2.734735">
        <ele>478.062</ele>
        <time>2010-06-17T21:59:01Z</time>
      </trkpt>
      <trkpt lat="42.357491" lon="2.733278">
        <ele>482.084</ele>
        <time>2010-06-17T22:00:49Z</time>
      </trkpt>
      <trkpt lat="42.357896" lon="2.733095">
        <ele>477.036</ele>
        <time>2010-06-17T22:01:32Z</time>
      </trkpt>
      <trkpt lat="42.358712" lon="2.735580">
        <ele>458.017</ele>
        <time>2010-06-17T22:04:53Z</time>
      </trkpt>
      <trkpt lat="42.358625" lon="2.736613">
        <ele>453.018</ele>
        <time>2010-06-17T22:06:09Z</time>
      </trkpt>
      <trkpt lat="42.357996" lon="2.737223">
        <ele>442.006</ele>
        <time>2010-06-17T22:07:27Z</time>
      </trkpt>
      <trkpt lat="42.358268" lon="2.737950">
        <ele>444.012</ele>
        <time>2010-06-17T22:08:28Z</time>
      </trkpt>
      <trkpt lat="42.358136" lon="2.739408">
        <ele>427.049</ele>
        <time>2010-06-17T22:10:16Z</time>
      </trkpt>
      <trkpt lat="42.359444" lon="2.740253">
        <ele>459.026</ele>
        <time>2010-06-17T22:12:41Z</time>
      </trkpt>
      <trkpt lat="42.358455" lon="2.741107">
        <ele>431.074</ele>
        <time>2010-06-17T22:14:39Z</time>
      </trkpt>
      <trkpt lat="42.357963" lon="2.742444">
        <ele>422.012</ele>
        <time>2010-06-17T22:16:28Z</time>
      </trkpt>
      <trkpt lat="42.358909" lon="2.742623">
        <ele>448.014</ele>
        <time>2010-06-17T22:18:05Z</time>
      </trkpt>
      <trkpt lat="42.359315" lon="2.743228">
        <ele>449.013</ele>
        <time>2010-06-17T22:19:04Z</time>
      </trkpt>
      <trkpt lat="42.358956" lon="2.743837">
        <ele>430.043</ele>
        <time>2010-06-17T22:20:03Z</time>
      </trkpt>
      <trkpt lat="42.358823" lon="2.744505">
        <ele>427.007</ele>
        <time>2010-06-17T22:20:54Z</time>
      </trkpt>
      <trkpt lat="42.359050" lon="2.745354">
        <ele>423.006</ele>
        <time>2010-06-17T22:22:01Z</time>
      </trkpt>
      <trkpt lat="42.361391" lon="2.745345">
        <ele>426.060</ele>
        <time>2010-06-17T22:25:55Z</time>
      </trkpt>
      <trkpt lat="42.361572" lon="2.745830">
        <ele>424.097</ele>
        <time>2010-06-17T22:26:35Z</time>
      </trkpt>
      <trkpt lat="42.362112" lon="2.745221">
        <ele>434.064</ele>
        <time>2010-06-17T22:27:45Z</time>
      </trkpt>
      <trkpt lat="42.363463" lon="2.745519">
        <ele>444.082</ele>
        <time>2010-06-17T22:30:02Z</time>
      </trkpt>
      <trkpt lat="42.363242" lon="2.747584">
        <ele>445.060</ele>
        <time>2010-06-17T22:32:36Z</time>
      </trkpt>
      <trkpt lat="42.363833" lon="2.749889">
        <ele>425.092</ele>
        <time>2010-06-17T22:35:36Z</time>
      </trkpt>
      <trkpt lat="42.363384" lon="2.750741">
        <ele>424.045</ele>
        <time>2010-06-17T22:36:54Z</time>
      </trkpt>
      <trkpt lat="42.363207" lon="2.751774">
        <ele>411.047</ele>
        <time>2010-06-17T22:38:12Z</time>
      </trkpt>
      <trkpt lat="42.362444" lon="2.753113">
        <ele>399.011</ele>
        <time>2010-06-17T22:40:18Z</time>
      </trkpt>
      <trkpt lat="42.363123" lon="2.754871">
        <ele>369.006</ele>
        <time>2010-06-17T22:42:44Z</time>
      </trkpt>
      <trkpt lat="42.363303" lon="2.754810">
        <ele>371.043</ele>
        <time>2010-06-17T22:43:02Z</time>
      </trkpt>
      <trkpt lat="42.363391" lon="2.753656">
        <ele>378.050</ele>
        <time>2010-06-17T22:44:28Z</time>
      </trkpt>
      <trkpt lat="42.364833" lon="2.754075">
        <ele>376.017</ele>
        <time>2010-06-17T22:46:57Z</time>
      </trkpt>
      <trkpt lat="42.364834" lon="2.754682">
        <ele>371.095</ele>
        <time>2010-06-17T22:47:42Z</time>
      </trkpt>
      <trkpt lat="42.365285" lon="2.755106">
        <ele>370.063</ele>
        <time>2010-06-17T22:48:36Z</time>
      </trkpt>
      <trkpt lat="42.366005" lon="2.754617">
        <ele>375.075</ele>
        <time>2010-06-17T22:49:56Z</time>
      </trkpt>
      <trkpt lat="42.366230" lon="2.754738">
        <ele>375.062</ele>
        <time>2010-06-17T22:50:21Z</time>
      </trkpt>
      <trkpt lat="42.366418" lon="2.758441">
        <ele>343.083</ele>
        <time>2010-06-17T22:54:55Z</time>
      </trkpt>
      <trkpt lat="42.365476" lon="2.760084">
        <ele>332.011</ele>
        <time>2010-06-17T22:57:30Z</time>
      </trkpt>
      <trkpt lat="42.365388" lon="2.760995">
        <ele>322.006</ele>
        <time>2010-06-17T22:58:38Z</time>
      </trkpt>
      <trkpt lat="42.365975" lon="2.761782">
        <ele>310.085</ele>
        <time>2010-06-17T22:59:59Z</time>
      </trkpt>
      <trkpt lat="42.366337" lon="2.762813">
        <ele>290.032</ele>
        <time>2010-06-17T23:01:25Z</time>
      </trkpt>
      <trkpt lat="42.366295" lon="2.764089">
        <ele>271.019</ele>
        <time>2010-06-17T23:02:59Z</time>
      </trkpt>
      <trkpt lat="42.365981" lon="2.764758">
        <ele>266.057</ele>
        <time>2010-06-17T23:03:58Z</time>
      </trkpt>
      <trkpt lat="42.366211" lon="2.767368">
        <ele>230.085</ele>
        <time>2010-06-17T23:07:11Z</time>
      </trkpt>
      <trkpt lat="42.366168" lon="2.768400">
        <ele>222.047</ele>
        <time>2010-06-17T23:08:27Z</time>
      </trkpt>
      <trkpt lat="42.366304" lon="2.768582">
        <ele>217.017</ele>
        <time>2010-06-17T23:08:48Z</time>
      </trkpt>
      <trkpt lat="42.367023" lon="2.767851">
        <ele>219.087</ele>
        <time>2010-06-17T23:10:18Z</time>
      </trkpt>
      <trkpt lat="42.367381" lon="2.767121">
        <ele>221.015</ele>
        <time>2010-06-17T23:11:22Z</time>
      </trkpt>
      <trkpt lat="42.367922" lon="2.767180">
        <ele>225.006</ele>
        <time>2010-06-17T23:12:16Z</time>
      </trkpt>
      <trkpt lat="42.368059" lon="2.768151">
        <ele>227.010</ele>
        <time>2010-06-17T23:13:30Z</time>
      </trkpt>
      <trkpt lat="42.368016" lon="2.769001">
        <ele>236.037</ele>
        <time>2010-06-17T23:14:33Z</time>
      </trkpt>
      <trkpt lat="42.369636" lon="2.768813">
        <ele>263.084</ele>
        <time>2010-06-17T23:17:14Z</time>
      </trkpt>
      <trkpt lat="42.371260" lon="2.769961">
        <ele>291.062</ele>
        <time>2010-06-17T23:20:19Z</time>
      </trkpt>
      <trkpt lat="42.373110" lon="2.771958">
        <ele>319.050</ele>
        <time>2010-06-17T23:24:16Z</time>
      </trkpt>
      <trkpt lat="42.374641" lon="2.771953">
        <ele>328.072</ele>
        <time>2010-06-17T23:26:49Z</time>
      </trkpt>
      <trkpt lat="42.375315" lon="2.771343">
        <ele>329.089</ele>
        <time>2010-06-17T23:28:10Z</time>
      </trkpt>
      <trkpt lat="42.377920" lon="2.767872">
        <ele>319.006</ele>
        <time>2010-06-17T23:34:16Z</time>
      </trkpt>
      <trkpt lat="42.378909" lon="2.767078">
        <ele>314.026</ele>
        <time>2010-06-17T23:36:11Z</time>
      </trkpt>
      <trkpt lat="42.378817" lon="2.766107">
        <ele>313.006</ele>
        <time>2010-06-17T23:37:22Z</time>
      </trkpt>
      <trkpt lat="42.380159" lon="2.761906">
        <ele>332.077</ele>
        <time>2010-06-17T23:43:01Z</time>
      </trkpt>
      <trkpt lat="42.380564" lon="2.761601">
        <ele>332.024</ele>
        <time>2010-06-17T23:43:48Z</time>
      </trkpt>
      <trkpt lat="42.380787" lon="2.760628">
        <ele>339.031</ele>
        <time>2010-06-17T23:45:02Z</time>
      </trkpt>
      <trkpt lat="42.381417" lon="2.760261">
        <ele>343.049</ele>
        <time>2010-06-17T23:46:11Z</time>
      </trkpt>
      <trkpt lat="42.382228" lon="2.760440">
        <ele>341.057</ele>
        <time>2010-06-17T23:47:34Z</time>
      </trkpt>
      <trkpt lat="42.382409" lon="2.761108">
        <ele>337.029</ele>
        <time>2010-06-17T23:48:26Z</time>
      </trkpt>
      <trkpt lat="42.383354" lon="2.760558">
        <ele>334.075</ele>
        <time>2010-06-17T23:50:10Z</time>
      </trkpt>
      <trkpt lat="42.383982" lon="2.759462">
        <ele>336.028</ele>
        <time>2010-06-17T23:51:52Z</time>
      </trkpt>
      <trkpt lat="42.383890" lon="2.758673">
        <ele>338.020</ele>
        <time>2010-06-17T23:52:50Z</time>
      </trkpt>
      <trkpt lat="42.385420" lon="2.758181">
        <ele>338.006</ele>
        <time>2010-06-17T23:55:28Z</time>
      </trkpt>
      <trkpt lat="42.385419" lon="2.757513">
        <ele>339.096</ele>
        <time>2010-06-17T23:56:17Z</time>
      </trkpt>
      <trkpt lat="42.386588" lon="2.756840">
        <ele>345.063</ele>
        <time>2010-06-17T23:58:25Z</time>
      </trkpt>
      <trkpt lat="42.387177" lon="2.758599">
        <ele>345.020</ele>
        <time>2010-06-18T00:00:48Z</time>
      </trkpt>
      <trkpt lat="42.387719" lon="2.759144">
        <ele>350.078</ele>
        <time>2010-06-18T00:01:55Z</time>
      </trkpt>
      <trkpt lat="42.388036" lon="2.759932">
        <ele>350.036</ele>
        <time>2010-06-18T00:03:02Z</time>
      </trkpt>
      <trkpt lat="42.387544" lon="2.761939">
        <ele>346.048</ele>
        <time>2010-06-18T00:05:38Z</time>
      </trkpt>
      <trkpt lat="42.388810" lon="2.764182">
        <ele>332.043</ele>
        <time>2010-06-18T00:09:06Z</time>
      </trkpt>
      <trkpt lat="42.390430" lon="2.763872">
        <ele>334.064</ele>
        <time>2010-06-18T00:11:49Z</time>
      </trkpt>
      <trkpt lat="42.391019" lon="2.765328">
        <ele>337.010</ele>
        <time>2010-06-18T00:13:53Z</time>
      </trkpt>
      <trkpt lat="42.390795" lon="2.766179">
        <ele>336.006</ele>
        <time>2010-06-18T00:15:00Z</time>
      </trkpt>
      <trkpt lat="42.391741" lon="2.766358">
        <ele>349.053</ele>
        <time>2010-06-18T00:16:35Z</time>
      </trkpt>
      <trkpt lat="42.391879" lon="2.767390">
        <ele>365.030</ele>
        <time>2010-06-18T00:17:52Z</time>
      </trkpt>
      <trkpt lat="42.391656" lon="2.768666">
        <ele>372.037</ele>
        <time>2010-06-18T00:19:30Z</time>
      </trkpt>
      <trkpt lat="42.392063" lon="2.769515">
        <ele>377.085</ele>
        <time>2010-06-18T00:20:44Z</time>
      </trkpt>
      <trkpt lat="42.393414" lon="2.769571">
        <ele>381.023</ele>
        <time>2010-06-18T00:23:00Z</time>
      </trkpt>
      <trkpt lat="42.394541" lon="2.770174">
        <ele>375.015</ele>
        <time>2010-06-18T00:25:01Z</time>
      </trkpt>
      <trkpt lat="42.395261" lon="2.769929">
        <ele>383.081</ele>
        <time>2010-06-18T00:26:15Z</time>
      </trkpt>
      <trkpt lat="42.396208" lon="2.770411">
        <ele>390.061</ele>
        <time>2010-06-18T00:27:57Z</time>
      </trkpt>
      <trkpt lat="42.396614" lon="2.771139">
        <ele>392.017</ele>
        <time>2010-06-18T00:29:04Z</time>
      </trkpt>
      <trkpt lat="42.398463" lon="2.772226">
        <ele>393.006</ele>
        <time>2010-06-18T00:32:26Z</time>
      </trkpt>
      <trkpt lat="42.398194" lon="2.772774">
        <ele>388.087</ele>
        <time>2010-06-18T00:33:15Z</time>
      </trkpt>
      <trkpt lat="42.398330" lon="2.773563">
        <ele>400.034</ele>
        <time>2010-06-18T00:34:15Z</time>
      </trkpt>
      <trkpt lat="42.397882" lon="2.774597">
        <ele>397.081</ele>
        <time>2010-06-18T00:35:43Z</time>
      </trkpt>
      <trkpt lat="42.398647" lon="2.774291">
        <ele>414.039</ele>
        <time>2010-06-18T00:37:03Z</time>
      </trkpt>
      <trkpt lat="42.398198" lon="2.775021">
        <ele>418.037</ele>
        <time>2010-06-18T00:38:13Z</time>
      </trkpt>
      <trkpt lat="42.398426" lon="2.776418">
        <ele>451.059</ele>
        <time>2010-06-18T00:39:59Z</time>
      </trkpt>
      <trkpt lat="42.397211" lon="2.776665">
        <ele>432.091</ele>
        <time>2010-06-18T00:42:02Z</time>
      </trkpt>
      <trkpt lat="42.397031" lon="2.777030">
        <ele>432.081</ele>
        <time>2010-06-18T00:42:34Z</time>
      </trkpt>
      <trkpt lat="42.397936" lon="2.779154">
        <ele>455.019</ele>
        <time>2010-06-18T00:45:34Z</time>
      </trkpt>
      <trkpt lat="42.398566" lon="2.778969">
        <ele>479.006</ele>
        <time>2010-06-18T00:46:40Z</time>
      </trkpt>
      <trkpt lat="42.398882" lon="2.779454">
        <ele>478.068</ele>
        <time>2010-06-18T00:47:28Z</time>
      </trkpt>
      <trkpt lat="42.399692" lon="2.779330">
        <ele>504.045</ele>
        <time>2010-06-18T00:48:48Z</time>
      </trkpt>
      <trkpt lat="42.399783" lon="2.779815">
        <ele>502.082</ele>
        <time>2010-06-18T00:49:26Z</time>
      </trkpt>
      <trkpt lat="42.399651" lon="2.781335">
        <ele>500.030</ele>
        <time>2010-06-18T00:51:19Z</time>
      </trkpt>
      <trkpt lat="42.400644" lon="2.782304">
        <ele>524.088</ele>
        <time>2010-06-18T00:53:22Z</time>
      </trkpt>
      <trkpt lat="42.400375" lon="2.783094">
        <ele>491.080</ele>
        <time>2010-06-18T00:54:25Z</time>
      </trkpt>
      <trkpt lat="42.401367" lon="2.783577">
        <ele>494.031</ele>
        <time>2010-06-18T00:56:12Z</time>
      </trkpt>
      <trkpt lat="42.402266" lon="2.783149">
        <ele>513.061</ele>
        <time>2010-06-18T00:57:46Z</time>
      </trkpt>
      <trkpt lat="42.403167" lon="2.783145">
        <ele>516.007</ele>
        <time>2010-06-18T00:59:17Z</time>
      </trkpt>
      <trkpt lat="42.402449" lon="2.784302">
        <ele>498.006</ele>
        <time>2010-06-18T01:01:08Z</time>
      </trkpt>
      <trkpt lat="42.403034" lon="2.784422">
        <ele>513.042</ele>
        <time>2010-06-18T01:02:07Z</time>
      </trkpt>
      <trkpt lat="42.402990" lon="2.785090">
        <ele>517.039</ele>
        <time>2010-06-18T01:02:58Z</time>
      </trkpt>
      <trkpt lat="42.403217" lon="2.786062">
        <ele>524.046</ele>
        <time>2010-06-18T01:04:13Z</time>
      </trkpt>
      <trkpt lat="42.403713" lon="2.786364">
        <ele>531.054</ele>
        <time>2010-06-18T01:05:07Z</time>
      </trkpt>
      <trkpt lat="42.403670" lon="2.787518">
        <ele>532.052</ele>
        <time>2010-06-18T01:06:33Z</time>
      </trkpt>
      <trkpt lat="42.404841" lon="2.787454">
        <ele>553.014</ele>
        <time>2010-06-18T01:08:29Z</time>
      </trkpt>
      <trkpt lat="42.405563" lon="2.788302">
        <ele>544.055</ele>
        <time>2010-06-18T01:10:05Z</time>
      </trkpt>
      <trkpt lat="42.405428" lon="2.788485">
        <ele>542.007</ele>
        <time>2010-06-18T01:10:24Z</time>
      </trkpt>
      <trkpt lat="42.404752" lon="2.788062">
        <ele>546.017</ele>
        <time>2010-06-18T01:11:39Z</time>
      </trkpt>
      <trkpt lat="42.404033" lon="2.788550">
        <ele>542.006</ele>
        <time>2010-06-18T01:13:00Z</time>
      </trkpt>
      <trkpt lat="42.402551" lon="2.790985">
        <ele>550.054</ele>
        <time>2010-06-18T01:16:52Z</time>
      </trkpt>
      <trkpt lat="42.402283" lon="2.792201">
        <ele>550.011</ele>
        <time>2010-06-18T01:18:26Z</time>
      </trkpt>
      <trkpt lat="42.402468" lon="2.794813">
        <ele>551.058</ele>
        <time>2010-06-18T01:21:40Z</time>
      </trkpt>
      <trkpt lat="42.402155" lon="2.796212">
        <ele>549.086</ele>
        <time>2010-06-18T01:23:29Z</time>
      </trkpt>
      <trkpt lat="42.402517" lon="2.797365">
        <ele>544.084</ele>
        <time>2010-06-18T01:25:01Z</time>
      </trkpt>
      <trkpt lat="42.403149" lon="2.797788">
        <ele>546.066</ele>
        <time>2010-06-18T01:26:11Z</time>
      </trkpt>
      <trkpt lat="42.403823" lon="2.797482">
        <ele>550.074</ele>
        <time>2010-06-18T01:27:23Z</time>
      </trkpt>
      <trkpt lat="42.403960" lon="2.798454">
        <ele>541.056</ele>
        <time>2010-06-18T01:28:36Z</time>
      </trkpt>
      <trkpt lat="42.404682" lon="2.798938">
        <ele>535.021</ele>
        <time>2010-06-18T01:29:57Z</time>
      </trkpt>
      <trkpt lat="42.404685" lon="2.800761">
        <ele>521.006</ele>
        <time>2010-06-18T01:32:12Z</time>
      </trkpt>
      <trkpt lat="42.404776" lon="2.801246">
        <ele>519.026</ele>
        <time>2010-06-18T01:32:49Z</time>
      </trkpt>
      <trkpt lat="42.405405" lon="2.800819">
        <ele>515.013</ele>
        <time>2010-06-18T01:33:59Z</time>
      </trkpt>
      <trkpt lat="42.406394" lon="2.799419">
        <ele>502.060</ele>
        <time>2010-06-18T01:36:21Z</time>
      </trkpt>
      <trkpt lat="42.406752" lon="2.798445">
        <ele>505.078</ele>
        <time>2010-06-18T01:37:43Z</time>
      </trkpt>
      <trkpt lat="42.407201" lon="2.797775">
        <ele>504.066</ele>
        <time>2010-06-18T01:38:49Z</time>
      </trkpt>
      <trkpt lat="42.407922" lon="2.798138">
        <ele>494.058</ele>
        <time>2010-06-18T01:40:05Z</time>
      </trkpt>
      <trkpt lat="42.408328" lon="2.798197">
        <ele>488.098</ele>
        <time>2010-06-18T01:40:47Z</time>
      </trkpt>
      <trkpt lat="42.408148" lon="2.798623">
        <ele>485.015</ele>
        <time>2010-06-18T01:41:23Z</time>
      </trkpt>
      <trkpt lat="42.407339" lon="2.799051">
        <ele>484.026</ele>
        <time>2010-06-18T01:42:49Z</time>
      </trkpt>
      <trkpt lat="42.407431" lon="2.800327">
        <ele>471.006</ele>
        <time>2010-06-18T01:44:25Z</time>
      </trkpt>
      <trkpt lat="42.407702" lon="2.800751">
        <ele>462.048</ele>
        <time>2010-06-18T01:45:06Z</time>
      </trkpt>
      <trkpt lat="42.407118" lon="2.801543">
        <ele>463.075</ele>
        <time>2010-06-18T01:46:29Z</time>
      </trkpt>
      <trkpt lat="42.407435" lon="2.802575">
        <ele>448.022</ele>
        <time>2010-06-18T01:47:52Z</time>
      </trkpt>
      <trkpt lat="42.406762" lon="2.804424">
        <ele>452.030</ele>
        <time>2010-06-18T01:50:24Z</time>
      </trkpt>
      <trkpt lat="42.407088" lon="2.805347">
        <ele>430.058</ele>
        <time>2010-06-18T01:51:39Z</time>
      </trkpt>
      <trkpt lat="42.407089" lon="2.805687">
        <ele>428.050</ele>
        <time>2010-06-18T01:52:05Z</time>
      </trkpt>
      <trkpt lat="42.406479" lon="2.806953">
        <ele>431.054</ele>
        <time>2010-06-18T01:53:56Z</time>
      </trkpt>
      <trkpt lat="42.406227" lon="2.807172">
        <ele>434.056</ele>
        <time>2010-06-18T01:54:27Z</time>
      </trkpt>
      <trkpt lat="42.406158" lon="2.809408">
        <ele>417.011</ele>
        <time>2010-06-18T01:57:12Z</time>
      </trkpt>
      <trkpt lat="42.406663" lon="2.809772">
        <ele>402.006</ele>
        <time>2010-06-18T01:58:09Z</time>
      </trkpt>
      <trkpt lat="42.406701" lon="2.810744">
        <ele>401.054</ele>
        <time>2010-06-18T01:59:21Z</time>
      </trkpt>
      <trkpt lat="42.406559" lon="2.811886">
        <ele>390.051</ele>
        <time>2010-06-18T02:00:47Z</time>
      </trkpt>
      <trkpt lat="42.406200" lon="2.812738">
        <ele>395.098</ele>
        <time>2010-06-18T02:01:59Z</time>
      </trkpt>
      <trkpt lat="42.406219" lon="2.813491">
        <ele>384.096</ele>
        <time>2010-06-18T02:02:54Z</time>
      </trkpt>
      <trkpt lat="42.406166" lon="2.813881">
        <ele>382.014</ele>
        <time>2010-06-18T02:03:23Z</time>
      </trkpt>
      <trkpt lat="42.406202" lon="2.814294">
        <ele>379.046</ele>
        <time>2010-06-18T02:03:55Z</time>
      </trkpt>
      <trkpt lat="42.406392" lon="2.814427">
        <ele>375.063</ele>
        <time>2010-06-18T02:04:16Z</time>
      </trkpt>
      <trkpt lat="42.406562" lon="2.813651">
        <ele>374.044</ele>
        <time>2010-06-18T02:05:16Z</time>
      </trkpt>
      <trkpt lat="42.406489" lon="2.813153">
        <ele>384.018</ele>
        <time>2010-06-18T02:05:54Z</time>
      </trkpt>
      <trkpt lat="42.406704" lon="2.812448">
        <ele>383.006</ele>
        <time>2010-06-18T02:06:50Z</time>
      </trkpt>
      <trkpt lat="42.407198" lon="2.811972">
        <ele>376.065</ele>
        <time>2010-06-18T02:07:50Z</time>
      </trkpt>
      <trkpt lat="42.407638" lon="2.810902">
        <ele>377.052</ele>
        <time>2010-06-18T02:09:21Z</time>
      </trkpt>
      <trkpt lat="42.407588" lon="2.807924">
        <ele>382.019</ele>
        <time>2010-06-18T02:13:01Z</time>
      </trkpt>
      <trkpt lat="42.408263" lon="2.807679">
        <ele>358.077</ele>
        <time>2010-06-18T02:14:11Z</time>
      </trkpt>
      <trkpt lat="42.408486" lon="2.806585">
        <ele>365.075</ele>
        <time>2010-06-18T02:15:34Z</time>
      </trkpt>
      <trkpt lat="42.408891" lon="2.806280">
        <ele>368.047</ele>
        <time>2010-06-18T02:16:21Z</time>
      </trkpt>
      <trkpt lat="42.408715" lon="2.808954">
        <ele>351.067</ele>
        <time>2010-06-18T02:19:39Z</time>
      </trkpt>
      <trkpt lat="42.409753" lon="2.810288">
        <ele>337.081</ele>
        <time>2010-06-18T02:22:02Z</time>
      </trkpt>
      <trkpt lat="42.410114" lon="2.810590">
        <ele>337.019</ele>
        <time>2010-06-18T02:22:45Z</time>
      </trkpt>
      <trkpt lat="42.409980" lon="2.811441">
        <ele>334.006</ele>
        <time>2010-06-18T02:23:50Z</time>
      </trkpt>
      <trkpt lat="42.410612" lon="2.812229">
        <ele>337.015</ele>
        <time>2010-06-18T02:25:16Z</time>
      </trkpt>
      <trkpt lat="42.409849" lon="2.813447">
        <ele>331.022</ele>
        <time>2010-06-18T02:27:14Z</time>
      </trkpt>
      <trkpt lat="42.411021" lon="2.814598">
        <ele>327.049</ele>
        <time>2010-06-18T02:29:39Z</time>
      </trkpt>
      <trkpt lat="42.413048" lon="2.814904">
        <ele>336.027</ele>
        <time>2010-06-18T02:33:03Z</time>
      </trkpt>
      <trkpt lat="42.414989" lon="2.817997">
        <ele>319.055</ele>
        <time>2010-06-18T02:38:02Z</time>
      </trkpt>
      <trkpt lat="42.414361" lon="2.819093">
        <ele>310.017</ele>
        <time>2010-06-18T02:39:44Z</time>
      </trkpt>
      <trkpt lat="42.414902" lon="2.819639">
        <ele>303.044</ele>
        <time>2010-06-18T02:40:53Z</time>
      </trkpt>
      <trkpt lat="42.415622" lon="2.819576">
        <ele>308.005</ele>
        <time>2010-06-18T02:42:04Z</time>
      </trkpt>
      <trkpt lat="42.415894" lon="2.820912">
        <ele>314.015</ele>
        <time>2010-06-18T02:43:47Z</time>
      </trkpt>
      <trkpt lat="42.415356" lon="2.821886">
        <ele>313.006</ele>
        <time>2010-06-18T02:45:17Z</time>
      </trkpt>
      <trkpt lat="42.415402" lon="2.822615">
        <ele>318.073</ele>
        <time>2010-06-18T02:46:11Z</time>
      </trkpt>
      <trkpt lat="42.414997" lon="2.822981">
        <ele>317.030</ele>
        <time>2010-06-18T02:46:59Z</time>
      </trkpt>
      <trkpt lat="42.415045" lon="2.825229">
        <ele>316.027</ele>
        <time>2010-06-18T02:49:46Z</time>
      </trkpt>
      <trkpt lat="42.415676" lon="2.825166">
        <ele>320.035</ele>
        <time>2010-06-18T02:50:48Z</time>
      </trkpt>
      <trkpt lat="42.416397" lon="2.825468">
        <ele>334.013</ele>
        <time>2010-06-18T02:52:04Z</time>
      </trkpt>
      <trkpt lat="42.416669" lon="2.826683">
        <ele>341.045</ele>
        <time>2010-06-18T02:53:38Z</time>
      </trkpt>
      <trkpt lat="42.416446" lon="2.827960">
        <ele>338.012</ele>
        <time>2010-06-18T02:55:15Z</time>
      </trkpt>
      <trkpt lat="42.416176" lon="2.828386">
        <ele>336.032</ele>
        <time>2010-06-18T02:55:57Z</time>
      </trkpt>
      <trkpt lat="42.416402" lon="2.828993">
        <ele>341.005</ele>
        <time>2010-06-18T02:56:46Z</time>
      </trkpt>
      <trkpt lat="42.416943" lon="2.829295">
        <ele>347.006</ele>
        <time>2010-06-18T02:57:45Z</time>
      </trkpt>
      <trkpt lat="42.416584" lon="2.830390">
        <ele>339.010</ele>
        <time>2010-06-18T02:59:14Z</time>
      </trkpt>
      <trkpt lat="42.416721" lon="2.831605">
        <ele>327.057</ele>
        <time>2010-06-18T03:00:45Z</time>
      </trkpt>
      <trkpt lat="42.417398" lon="2.832272">
        <ele>329.034</ele>
        <time>2010-06-18T03:02:09Z</time>
      </trkpt>
      <trkpt lat="42.417938" lon="2.832331">
        <ele>331.062</ele>
        <time>2010-06-18T03:03:03Z</time>
      </trkpt>
      <trkpt lat="42.418298" lon="2.832513">
        <ele>329.010</ele>
        <time>2010-06-18T03:03:42Z</time>
      </trkpt>
      <trkpt lat="42.417984" lon="2.832939">
        <ele>324.082</ele>
        <time>2010-06-18T03:04:26Z</time>
      </trkpt>
      <trkpt lat="42.417356" lon="2.834703">
        <ele>319.014</ele>
        <time>2010-06-18T03:06:51Z</time>
      </trkpt>
      <trkpt lat="42.416951" lon="2.835130">
        <ele>319.054</ele>
        <time>2010-06-18T03:07:42Z</time>
      </trkpt>
      <trkpt lat="42.417629" lon="2.836951">
        <ele>309.009</ele>
        <time>2010-06-18T03:10:13Z</time>
      </trkpt>
      <trkpt lat="42.419293" lon="2.834880">
        <ele>313.006</ele>
        <time>2010-06-18T03:13:59Z</time>
      </trkpt>
      <trkpt lat="42.419743" lon="2.835183">
        <ele>310.070</ele>
        <time>2010-06-18T03:14:49Z</time>
      </trkpt>
      <trkpt lat="42.419879" lon="2.835669">
        <ele>308.067</ele>
        <time>2010-06-18T03:15:28Z</time>
      </trkpt>
      <trkpt lat="42.420690" lon="2.836031">
        <ele>304.054</ele>
        <time>2010-06-18T03:16:53Z</time>
      </trkpt>
      <trkpt lat="42.421186" lon="2.836091">
        <ele>305.062</ele>
        <time>2010-06-18T03:17:42Z</time>
      </trkpt>
      <trkpt lat="42.422038" lon="2.833779">
        <ele>309.030</ele>
        <time>2010-06-18T03:20:53Z</time>
      </trkpt>
      <trkpt lat="42.422080" lon="2.832017">
        <ele>331.082</ele>
        <time>2010-06-18T03:23:04Z</time>
      </trkpt>
      <trkpt lat="42.422934" lon="2.830859">
        <ele>333.099</ele>
        <time>2010-06-18T03:25:05Z</time>
      </trkpt>
      <trkpt lat="42.423836" lon="2.831404">
        <ele>333.007</ele>
        <time>2010-06-18T03:26:43Z</time>
      </trkpt>
      <trkpt lat="42.425681" lon="2.831034">
        <ele>349.027</ele>
        <time>2010-06-18T03:29:51Z</time>
      </trkpt>
      <trkpt lat="42.426222" lon="2.831337">
        <ele>367.006</ele>
        <time>2010-06-18T03:30:49Z</time>
      </trkpt>
      <trkpt lat="42.426852" lon="2.831335">
        <ele>387.038</ele>
        <time>2010-06-18T03:31:52Z</time>
      </trkpt>
      <trkpt lat="42.426628" lon="2.831640">
        <ele>383.025</ele>
        <time>2010-06-18T03:32:24Z</time>
      </trkpt>
      <trkpt lat="42.425773" lon="2.832067">
        <ele>368.032</ele>
        <time>2010-06-18T03:33:55Z</time>
      </trkpt>
      <trkpt lat="42.425414" lon="2.832798">
        <ele>368.050</ele>
        <time>2010-06-18T03:35:00Z</time>
      </trkpt>
      <trkpt lat="42.425460" lon="2.833588">
        <ele>372.018</ele>
        <time>2010-06-18T03:35:59Z</time>
      </trkpt>
      <trkpt lat="42.426810" lon="2.832855">
        <ele>404.030</ele>
        <time>2010-06-18T03:38:24Z</time>
      </trkpt>
      <trkpt lat="42.427531" lon="2.833278">
        <ele>417.061</ele>
        <time>2010-06-18T03:39:43Z</time>
      </trkpt>
      <trkpt lat="42.428205" lon="2.832608">
        <ele>422.021</ele>
        <time>2010-06-18T03:41:06Z</time>
      </trkpt>
      <trkpt lat="42.428071" lon="2.833338">
        <ele>417.013</ele>
        <time>2010-06-18T03:42:02Z</time>
      </trkpt>
      <trkpt lat="42.428342" lon="2.833459">
        <ele>414.006</ele>
        <time>2010-06-18T03:42:31Z</time>
      </trkpt>
      <trkpt lat="42.429691" lon="2.832604">
        <ele>423.055</ele>
        <time>2010-06-18T03:44:59Z</time>
      </trkpt>
      <trkpt lat="42.430592" lon="2.832906">
        <ele>434.032</ele>
        <time>2010-06-18T03:46:31Z</time>
      </trkpt>
      <trkpt lat="42.430638" lon="2.833757">
        <ele>407.059</ele>
        <time>2010-06-18T03:47:35Z</time>
      </trkpt>
      <trkpt lat="42.431000" lon="2.834667">
        <ele>406.077</ele>
        <time>2010-06-18T03:48:51Z</time>
      </trkpt>
      <trkpt lat="42.430911" lon="2.835336">
        <ele>392.065</ele>
        <time>2010-06-18T03:49:42Z</time>
      </trkpt>
      <trkpt lat="42.430956" lon="2.835640">
        <ele>388.047</ele>
        <time>2010-06-18T03:50:04Z</time>
      </trkpt>
      <trkpt lat="42.431632" lon="2.836003">
        <ele>385.055</ele>
        <time>2010-06-18T03:51:18Z</time>
      </trkpt>
      <trkpt lat="42.431858" lon="2.836610">
        <ele>378.007</ele>
        <time>2010-06-18T03:52:08Z</time>
      </trkpt>
      <trkpt lat="42.431905" lon="2.837461">
        <ele>366.017</ele>
        <time>2010-06-18T03:53:11Z</time>
      </trkpt>
      <trkpt lat="42.432131" lon="2.838129">
        <ele>358.006</ele>
        <time>2010-06-18T03:54:05Z</time>
      </trkpt>
      <trkpt lat="42.432717" lon="2.838432">
        <ele>354.024</ele>
        <time>2010-06-18T03:55:07Z</time>
      </trkpt>
      <trkpt lat="42.432492" lon="2.839162">
        <ele>343.061</ele>
        <time>2010-06-18T03:56:06Z</time>
      </trkpt>
      <trkpt lat="42.432087" lon="2.839284">
        <ele>343.028</ele>
        <time>2010-06-18T03:56:47Z</time>
      </trkpt>
      <trkpt lat="42.431503" lon="2.839833">
        <ele>331.056</ele>
        <time>2010-06-18T03:57:59Z</time>
      </trkpt>
      <trkpt lat="42.430962" lon="2.839956">
        <ele>329.034</ele>
        <time>2010-06-18T03:58:53Z</time>
      </trkpt>
      <trkpt lat="42.430738" lon="2.840564">
        <ele>325.096</ele>
        <time>2010-06-18T03:59:44Z</time>
      </trkpt>
      <trkpt lat="42.430830" lon="2.841476">
        <ele>317.067</ele>
        <time>2010-06-18T04:00:51Z</time>
      </trkpt>
      <trkpt lat="42.430560" lon="2.842327">
        <ele>306.081</ele>
        <time>2010-06-18T04:02:01Z</time>
      </trkpt>
      <trkpt lat="42.429705" lon="2.842208">
        <ele>318.019</ele>
        <time>2010-06-18T04:03:27Z</time>
      </trkpt>
      <trkpt lat="42.429301" lon="2.843607">
        <ele>307.006</ele>
        <time>2010-06-18T04:05:18Z</time>
      </trkpt>
      <trkpt lat="42.429212" lon="2.844397">
        <ele>297.075</ele>
        <time>2010-06-18T04:06:17Z</time>
      </trkpt>
      <trkpt lat="42.428539" lon="2.846162">
        <ele>276.022</ele>
        <time>2010-06-18T04:08:42Z</time>
      </trkpt>
      <trkpt lat="42.427820" lon="2.846771">
        <ele>279.079</ele>
        <time>2010-06-18T04:10:08Z</time>
      </trkpt>
      <trkpt lat="42.427191" lon="2.848414">
        <ele>257.067</ele>
        <time>2010-06-18T04:12:25Z</time>
      </trkpt>
      <trkpt lat="42.427733" lon="2.849021">
        <ele>251.035</ele>
        <time>2010-06-18T04:13:35Z</time>
      </trkpt>
      <trkpt lat="42.427373" lon="2.849629">
        <ele>245.077</ele>
        <time>2010-06-18T04:14:32Z</time>
      </trkpt>
      <trkpt lat="42.427824" lon="2.850175">
        <ele>242.039</ele>
        <time>2010-06-18T04:15:33Z</time>
      </trkpt>
      <trkpt lat="42.427960" lon="2.851087">
        <ele>237.001</ele>
        <time>2010-06-18T04:16:41Z</time>
      </trkpt>
      <trkpt lat="42.428322" lon="2.852058">
        <ele>231.021</ele>
        <time>2010-06-18T04:18:02Z</time>
      </trkpt>
      <trkpt lat="42.428413" lon="2.852727">
        <ele>225.006</ele>
        <time>2010-06-18T04:18:53Z</time>
      </trkpt>
      <trkpt lat="42.428910" lon="2.854184">
        <ele>211.062</ele>
        <time>2010-06-18T04:20:51Z</time>
      </trkpt>
      <trkpt lat="42.428281" lon="2.855037">
        <ele>203.059</ele>
        <time>2010-06-18T04:22:20Z</time>
      </trkpt>
      <trkpt lat="42.428146" lon="2.855645">
        <ele>201.066</ele>
        <time>2010-06-18T04:23:06Z</time>
      </trkpt>
      <trkpt lat="42.428011" lon="2.855706">
        <ele>198.064</ele>
        <time>2010-06-18T04:23:21Z</time>
      </trkpt>
      <trkpt lat="42.427472" lon="2.856801">
        <ele>188.072</ele>
        <time>2010-06-18T04:24:59Z</time>
      </trkpt>
      <trkpt lat="42.427698" lon="2.857348">
        <ele>179.094</ele>
        <time>2010-06-18T04:25:44Z</time>
      </trkpt>
      <trkpt lat="42.426979" lon="2.858200">
        <ele>169.039</ele>
        <time>2010-06-18T04:27:21Z</time>
      </trkpt>
      <trkpt lat="42.426799" lon="2.858626">
        <ele>167.001</ele>
        <time>2010-06-18T04:27:56Z</time>
      </trkpt>
      <trkpt lat="42.425899" lon="2.858932">
        <ele>166.021</ele>
        <time>2010-06-18T04:29:30Z</time>
      </trkpt>
      <trkpt lat="42.425588" lon="2.862458">
        <ele>147.006</ele>
        <time>2010-06-18T04:33:51Z</time>
      </trkpt>
      <trkpt lat="42.424778" lon="2.862946">
        <ele>139.042</ele>
        <time>2010-06-18T04:35:20Z</time>
      </trkpt>
      <trkpt lat="42.424914" lon="2.863858">
        <ele>137.049</ele>
        <time>2010-06-18T04:36:30Z</time>
      </trkpt>
      <trkpt lat="42.424600" lon="2.864588">
        <ele>131.076</ele>
        <time>2010-06-18T04:37:31Z</time>
      </trkpt>
      <trkpt lat="42.423835" lon="2.865501">
        <ele>125.054</ele>
        <time>2010-06-18T04:39:13Z</time>
      </trkpt>
      <trkpt lat="42.423747" lon="2.866656">
        <ele>119.032</ele>
        <time>2010-06-18T04:40:39Z</time>
      </trkpt>
      <trkpt lat="42.423432" lon="2.867447">
        <ele>115.064</ele>
        <time>2010-06-18T04:41:46Z</time>
      </trkpt>
      <trkpt lat="42.422442" lon="2.868057">
        <ele>120.076</ele>
        <time>2010-06-18T04:43:34Z</time>
      </trkpt>
      <trkpt lat="42.422353" lon="2.868725">
        <ele>120.090</ele>
        <time>2010-06-18T04:44:25Z</time>
      </trkpt>
      <trkpt lat="42.421138" lon="2.869214">
        <ele>114.019</ele>
        <time>2010-06-18T04:46:32Z</time>
      </trkpt>
      <trkpt lat="42.420509" lon="2.870163">
        <ele>109.006</ele>
        <time>2010-06-18T04:48:06Z</time>
      </trkpt>
      <trkpt lat="42.420274" lon="2.870261">
        <ele>109.056</ele>
        <time>2010-06-18T04:48:30Z</time>
      </trkpt>
      <trkpt lat="42.419824" lon="2.870311">
        <ele>111.083</ele>
        <time>2010-06-18T04:49:16Z</time>
      </trkpt>
      <trkpt lat="42.419752" lon="2.870457">
        <ele>113.090</ele>
        <time>2010-06-18T04:49:29Z</time>
      </trkpt>
      <trkpt lat="42.419899" lon="2.872474">
        <ele>112.048</ele>
        <time>2010-06-18T04:51:58Z</time>
      </trkpt>
      <trkpt lat="42.420025" lon="2.872498">
        <ele>112.086</ele>
        <time>2010-06-18T04:52:11Z</time>
      </trkpt>
      <trkpt lat="42.420061" lon="2.872838">
        <ele>115.018</ele>
        <time>2010-06-18T04:52:37Z</time>
      </trkpt>
      <trkpt lat="42.419846" lon="2.873398">
        <ele>118.018</ele>
        <time>2010-06-18T04:53:23Z</time>
      </trkpt>
      <trkpt lat="42.417577" lon="2.874375">
        <ele>117.098</ele>
        <time>2010-06-18T04:57:22Z</time>
      </trkpt>
      <trkpt lat="42.417344" lon="2.875494">
        <ele>117.017</ele>
        <time>2010-06-18T04:58:48Z</time>
      </trkpt>
      <trkpt lat="42.417093" lon="2.875956">
        <ele>118.006</ele>
        <time>2010-06-18T04:59:29Z</time>
      </trkpt>
      <trkpt lat="42.416797" lon="2.877014">
        <ele>121.060</ele>
        <time>2010-06-18T05:00:53Z</time>
      </trkpt>
      <trkpt lat="42.416932" lon="2.877318">
        <ele>125.017</ele>
        <time>2010-06-18T05:01:20Z</time>
      </trkpt>
      <trkpt lat="42.416528" lon="2.878534">
        <ele>140.074</ele>
        <time>2010-06-18T05:02:58Z</time>
      </trkpt>
      <trkpt lat="42.415178" lon="2.879752">
        <ele>154.032</ele>
        <time>2010-06-18T05:05:41Z</time>
      </trkpt>
      <trkpt lat="42.415089" lon="2.880360">
        <ele>164.030</ele>
        <time>2010-06-18T05:06:26Z</time>
      </trkpt>
      <trkpt lat="42.416079" lon="2.880236">
        <ele>168.062</ele>
        <time>2010-06-18T05:08:05Z</time>
      </trkpt>
      <trkpt lat="42.416891" lon="2.880903">
        <ele>192.023</ele>
        <time>2010-06-18T05:09:40Z</time>
      </trkpt>
      <trkpt lat="42.416801" lon="2.881511">
        <ele>199.083</ele>
        <time>2010-06-18T05:10:27Z</time>
      </trkpt>
      <trkpt lat="42.416037" lon="2.882728">
        <ele>209.011</ele>
        <time>2010-06-18T05:12:24Z</time>
      </trkpt>
      <trkpt lat="42.418246" lon="2.885398">
        <ele>246.006</ele>
        <time>2010-06-18T05:17:20Z</time>
      </trkpt>
      <trkpt lat="42.418202" lon="2.886674">
        <ele>255.051</ele>
        <time>2010-06-18T05:18:54Z</time>
      </trkpt>
      <trkpt lat="42.418384" lon="2.887707">
        <ele>265.058</ele>
        <time>2010-06-18T05:20:14Z</time>
      </trkpt>
      <trkpt lat="42.419015" lon="2.888557">
        <ele>274.075</ele>
        <time>2010-06-18T05:21:43Z</time>
      </trkpt>
      <trkpt lat="42.419646" lon="2.889771">
        <ele>278.073</ele>
        <time>2010-06-18T05:23:33Z</time>
      </trkpt>
      <trkpt lat="42.420772" lon="2.889769">
        <ele>288.091</ele>
        <time>2010-06-18T05:25:24Z</time>
      </trkpt>
      <trkpt lat="42.421088" lon="2.890376">
        <ele>292.053</ele>
        <time>2010-06-18T05:26:20Z</time>
      </trkpt>
      <trkpt lat="42.422801" lon="2.892136">
        <ele>319.048</ele>
        <time>2010-06-18T05:29:55Z</time>
      </trkpt>
      <trkpt lat="42.422576" lon="2.893109">
        <ele>318.061</ele>
        <time>2010-06-18T05:31:10Z</time>
      </trkpt>
      <trkpt lat="42.423928" lon="2.893775">
        <ele>338.017</ele>
        <time>2010-06-18T05:33:35Z</time>
      </trkpt>
      <trkpt lat="42.424152" lon="2.893045">
        <ele>346.006</ele>
        <time>2010-06-18T05:34:33Z</time>
      </trkpt>
      <trkpt lat="42.424738" lon="2.893227">
        <ele>361.043</ele>
        <time>2010-06-18T05:35:33Z</time>
      </trkpt>
      <trkpt lat="42.424782" lon="2.891889">
        <ele>374.020</ele>
        <time>2010-06-18T05:37:11Z</time>
      </trkpt>
      <trkpt lat="42.426630" lon="2.894014">
        <ele>407.047</ele>
        <time>2010-06-18T05:41:15Z</time>
      </trkpt>
      <trkpt lat="42.426902" lon="2.896019">
        <ele>407.025</ele>
        <time>2010-06-18T05:43:44Z</time>
      </trkpt>
      <trkpt lat="42.427263" lon="2.896505">
        <ele>412.053</ele>
        <time>2010-06-18T05:44:35Z</time>
      </trkpt>
      <trkpt lat="42.427171" lon="2.894924">
        <ele>425.095</ele>
        <time>2010-06-18T05:46:33Z</time>
      </trkpt>
      <trkpt lat="42.427485" lon="2.893769">
        <ele>435.061</ele>
        <time>2010-06-18T05:48:04Z</time>
      </trkpt>
      <trkpt lat="42.427529" lon="2.892432">
        <ele>436.021</ele>
        <time>2010-06-18T05:49:43Z</time>
      </trkpt>
      <trkpt lat="42.428294" lon="2.891336">
        <ele>456.013</ele>
        <time>2010-06-18T05:51:34Z</time>
      </trkpt>
      <trkpt lat="42.429418" lon="2.890423">
        <ele>488.006</ele>
        <time>2010-06-18T05:53:46Z</time>
      </trkpt>
      <trkpt lat="42.431806" lon="2.891330">
        <ele>544.075</ele>
        <time>2010-06-18T05:57:54Z</time>
      </trkpt>
      <trkpt lat="42.432482" lon="2.892423">
        <ele>561.052</ele>
        <time>2010-06-18T05:59:38Z</time>
      </trkpt>
      <trkpt lat="42.432799" lon="2.894125">
        <ele>592.059</ele>
        <time>2010-06-18T06:01:49Z</time>
      </trkpt>
      <trkpt lat="42.432620" lon="2.895462">
        <ele>626.077</ele>
        <time>2010-06-18T06:03:29Z</time>
      </trkpt>
      <trkpt lat="42.433026" lon="2.896252">
        <ele>639.085</ele>
        <time>2010-06-18T06:04:39Z</time>
      </trkpt>
      <trkpt lat="42.433612" lon="2.896981">
        <ele>654.077</ele>
        <time>2010-06-18T06:06:00Z</time>
      </trkpt>
      <trkpt lat="42.434873" lon="2.896614">
        <ele>674.069</ele>
        <time>2010-06-18T06:08:09Z</time>
      </trkpt>
      <trkpt lat="42.435774" lon="2.896734">
        <ele>682.004</ele>
        <time>2010-06-18T06:09:40Z</time>
      </trkpt>
      <trkpt lat="42.436722" lon="2.900197">
        <ele>721.024</ele>
        <time>2010-06-18T06:14:12Z</time>
      </trkpt>
      <trkpt lat="42.436543" lon="2.901292">
        <ele>733.006</ele>
        <time>2010-06-18T06:15:35Z</time>
      </trkpt>
      <trkpt lat="42.436859" lon="2.901960">
        <ele>736.045</ele>
        <time>2010-06-18T06:16:34Z</time>
      </trkpt>
      <trkpt lat="42.438886" lon="2.902687">
        <ele>759.082</ele>
        <time>2010-06-18T06:20:04Z</time>
      </trkpt>
      <trkpt lat="42.439606" lon="2.902077">
        <ele>761.099</ele>
        <time>2010-06-18T06:21:28Z</time>
      </trkpt>
      <trkpt lat="42.440506" lon="2.901894">
        <ele>752.017</ele>
        <time>2010-06-18T06:23:00Z</time>
      </trkpt>
      <trkpt lat="42.441047" lon="2.902379">
        <ele>739.045</ele>
        <time>2010-06-18T06:24:04Z</time>
      </trkpt>
      <trkpt lat="42.441993" lon="2.902682">
        <ele>724.017</ele>
        <time>2010-06-18T06:25:41Z</time>
      </trkpt>
      <trkpt lat="42.442760" lon="2.904991">
        <ele>699.066</ele>
        <time>2010-06-18T06:28:49Z</time>
      </trkpt>
      <trkpt lat="42.444383" lon="2.906934">
        <ele>687.029</ele>
        <time>2010-06-18T06:32:26Z</time>
      </trkpt>
      <trkpt lat="42.444564" lon="2.907602">
        <ele>689.021</ele>
        <time>2010-06-18T06:33:18Z</time>
      </trkpt>
      <trkpt lat="42.445465" lon="2.908635">
        <ele>691.006</ele>
        <time>2010-06-18T06:35:16Z</time>
      </trkpt>
      <trkpt lat="42.445331" lon="2.910581">
        <ele>692.045</ele>
        <time>2010-06-18T06:37:41Z</time>
      </trkpt>
      <trkpt lat="42.444208" lon="2.913196">
        <ele>671.022</ele>
        <time>2010-06-18T06:41:24Z</time>
      </trkpt>
      <trkpt lat="42.443939" lon="2.915082">
        <ele>656.079</ele>
        <time>2010-06-18T06:43:46Z</time>
      </trkpt>
      <trkpt lat="42.445020" lon="2.915323">
        <ele>666.097</ele>
        <time>2010-06-18T06:45:35Z</time>
      </trkpt>
      <trkpt lat="42.445921" lon="2.916052">
        <ele>659.035</ele>
        <time>2010-06-18T06:47:20Z</time>
      </trkpt>
      <trkpt lat="42.445832" lon="2.917693">
        <ele>622.027</ele>
        <time>2010-06-18T06:49:21Z</time>
      </trkpt>
      <trkpt lat="42.446373" lon="2.917814">
        <ele>642.064</ele>
        <time>2010-06-18T06:50:17Z</time>
      </trkpt>
      <trkpt lat="42.446823" lon="2.918300">
        <ele>654.006</ele>
        <time>2010-06-18T06:51:14Z</time>
      </trkpt>
      <trkpt lat="42.446869" lon="2.919516">
        <ele>647.016</ele>
        <time>2010-06-18T06:52:45Z</time>
      </trkpt>
      <trkpt lat="42.446329" lon="2.920064">
        <ele>622.006</ele>
        <time>2010-06-18T06:53:52Z</time>
      </trkpt>
      <trkpt lat="42.446284" lon="2.920611">
        <ele>630.045</ele>
        <time>2010-06-18T06:54:32Z</time>
      </trkpt>
      <trkpt lat="42.445429" lon="2.921099">
        <ele>596.012</ele>
        <time>2010-06-18T06:56:06Z</time>
      </trkpt>
      <trkpt lat="42.445295" lon="2.922011">
        <ele>607.039</ele>
        <time>2010-06-18T06:57:14Z</time>
      </trkpt>
      <trkpt lat="42.444440" lon="2.922620">
        <ele>576.077</ele>
        <time>2010-06-18T06:58:50Z</time>
      </trkpt>
      <trkpt lat="42.444485" lon="2.923957">
        <ele>605.015</ele>
        <time>2010-06-18T07:00:30Z</time>
      </trkpt>
      <trkpt lat="42.443991" lon="2.924870">
        <ele>601.077</ele>
        <time>2010-06-18T07:01:53Z</time>
      </trkpt>
      <trkpt lat="42.443270" lon="2.924749">
        <ele>580.021</ele>
        <time>2010-06-18T07:03:06Z</time>
      </trkpt>
      <trkpt lat="42.442640" lon="2.925297">
        <ele>580.041</ele>
        <time>2010-06-18T07:04:21Z</time>
      </trkpt>
      <trkpt lat="42.442686" lon="2.926391">
        <ele>577.005</ele>
        <time>2010-06-18T07:05:42Z</time>
      </trkpt>
      <trkpt lat="42.443992" lon="2.927302">
        <ele>591.006</ele>
        <time>2010-06-18T07:08:09Z</time>
      </trkpt>
      <trkpt lat="42.443768" lon="2.928214">
        <ele>575.041</ele>
        <time>2010-06-18T07:09:20Z</time>
      </trkpt>
      <trkpt lat="42.443858" lon="2.928822">
        <ele>569.048</ele>
        <time>2010-06-18T07:10:05Z</time>
      </trkpt>
      <trkpt lat="42.446111" lon="2.931434">
        <ele>545.025</ele>
        <time>2010-06-18T07:15:01Z</time>
      </trkpt>
      <trkpt lat="42.447956" lon="2.929000">
        <ele>551.083</ele>
        <time>2010-06-18T07:19:19Z</time>
      </trkpt>
      <trkpt lat="42.448496" lon="2.929121">
        <ele>539.071</ele>
        <time>2010-06-18T07:20:14Z</time>
      </trkpt>
      <trkpt lat="42.448901" lon="2.928573">
        <ele>547.093</ele>
        <time>2010-06-18T07:21:12Z</time>
      </trkpt>
      <trkpt lat="42.449127" lon="2.928999">
        <ele>545.082</ele>
        <time>2010-06-18T07:21:51Z</time>
      </trkpt>
      <trkpt lat="42.448947" lon="2.930398">
        <ele>536.043</ele>
        <time>2010-06-18T07:23:35Z</time>
      </trkpt>
      <trkpt lat="42.448993" lon="2.930823">
        <ele>536.017</ele>
        <time>2010-06-18T07:24:07Z</time>
      </trkpt>
      <trkpt lat="42.448229" lon="2.934290">
        <ele>528.006</ele>
        <time>2010-06-18T07:28:34Z</time>
      </trkpt>
      <trkpt lat="42.448771" lon="2.936478">
        <ele>532.087</ele>
        <time>2010-06-18T07:31:25Z</time>
      </trkpt>
      <trkpt lat="42.450662" lon="2.936963">
        <ele>516.074</ele>
        <time>2010-06-18T07:34:37Z</time>
      </trkpt>
      <trkpt lat="42.451068" lon="2.937510">
        <ele>520.091</ele>
        <time>2010-06-18T07:35:35Z</time>
      </trkpt>
      <trkpt lat="42.450852" lon="2.938094">
        <ele>502.039</ele>
        <time>2010-06-18T07:36:22Z</time>
      </trkpt>
      <trkpt lat="42.450834" lon="2.938386">
        <ele>498.087</ele>
        <time>2010-06-18T07:36:45Z</time>
      </trkpt>
      <trkpt lat="42.451087" lon="2.939309">
        <ele>493.099</ele>
        <time>2010-06-18T07:37:58Z</time>
      </trkpt>
      <trkpt lat="42.450727" lon="2.939553">
        <ele>491.012</ele>
        <time>2010-06-18T07:38:38Z</time>
      </trkpt>
      <trkpt lat="42.450601" lon="2.939748">
        <ele>485.032</ele>
        <time>2010-06-18T07:38:57Z</time>
      </trkpt>
      <trkpt lat="42.453645" lon="2.939356">
        <ele>505.005</ele>
        <time>2010-06-18T07:44:02Z</time>
      </trkpt>
      <trkpt lat="42.452744" lon="2.940208">
        <ele>487.006</ele>
        <time>2010-06-18T07:45:52Z</time>
      </trkpt>
      <trkpt lat="42.452205" lon="2.941303">
        <ele>474.010</ele>
        <time>2010-06-18T07:47:29Z</time>
      </trkpt>
      <trkpt lat="42.451485" lon="2.942094">
        <ele>460.037</ele>
        <time>2010-06-18T07:49:02Z</time>
      </trkpt>
      <trkpt lat="42.451800" lon="2.942945">
        <ele>456.084</ele>
        <time>2010-06-18T07:50:12Z</time>
      </trkpt>
      <trkpt lat="42.452566" lon="2.943188">
        <ele>463.092</ele>
        <time>2010-06-18T07:51:31Z</time>
      </trkpt>
      <trkpt lat="42.453151" lon="2.943187">
        <ele>465.060</ele>
        <time>2010-06-18T07:52:29Z</time>
      </trkpt>
      <trkpt lat="42.454548" lon="2.943976">
        <ele>468.062</ele>
        <time>2010-06-18T07:55:02Z</time>
      </trkpt>
      <trkpt lat="42.451891" lon="2.944343">
        <ele>443.063</ele>
        <time>2010-06-18T07:59:29Z</time>
      </trkpt>
      <trkpt lat="42.452567" lon="2.945559">
        <ele>449.044</ele>
        <time>2010-06-18T08:01:22Z</time>
      </trkpt>
      <trkpt lat="42.451351" lon="2.945013">
        <ele>445.018</ele>
        <time>2010-06-18T08:03:29Z</time>
      </trkpt>
      <trkpt lat="42.449460" lon="2.945258">
        <ele>457.006</ele>
        <time>2010-06-18T08:06:39Z</time>
      </trkpt>
      <trkpt lat="42.449460" lon="2.946291">
        <ele>458.035</ele>
        <time>2010-06-18T08:07:55Z</time>
      </trkpt>
      <trkpt lat="42.449776" lon="2.948054">
        <ele>472.022</ele>
        <time>2010-06-18T08:10:09Z</time>
      </trkpt>
      <trkpt lat="42.449191" lon="2.948480">
        <ele>471.019</ele>
        <time>2010-06-18T08:11:16Z</time>
      </trkpt>
      <trkpt lat="42.448922" lon="2.951399">
        <ele>504.037</ele>
        <time>2010-06-18T08:14:54Z</time>
      </trkpt>
      <trkpt lat="42.448247" lon="2.951704">
        <ele>502.035</ele>
        <time>2010-06-18T08:16:05Z</time>
      </trkpt>
      <trkpt lat="42.448247" lon="2.952373">
        <ele>502.047</ele>
        <time>2010-06-18T08:16:53Z</time>
      </trkpt>
      <trkpt lat="42.449148" lon="2.952311">
        <ele>509.095</ele>
        <time>2010-06-18T08:18:24Z</time>
      </trkpt>
      <trkpt lat="42.449779" lon="2.953527">
        <ele>494.049</ele>
        <time>2010-06-18T08:20:14Z</time>
      </trkpt>
      <trkpt lat="42.450364" lon="2.953709">
        <ele>501.023</ele>
        <time>2010-06-18T08:21:14Z</time>
      </trkpt>
      <trkpt lat="42.450680" lon="2.954438">
        <ele>492.006</ele>
        <time>2010-06-18T08:22:17Z</time>
      </trkpt>
      <trkpt lat="42.451490" lon="2.955228">
        <ele>496.078</ele>
        <time>2010-06-18T08:23:57Z</time>
      </trkpt>
      <trkpt lat="42.452121" lon="2.957052">
        <ele>503.045</ele>
        <time>2010-06-18T08:26:26Z</time>
      </trkpt>
      <trkpt lat="42.451536" lon="2.957417">
        <ele>487.052</ele>
        <time>2010-06-18T08:27:30Z</time>
      </trkpt>
      <trkpt lat="42.451762" lon="2.960275">
        <ele>497.060</ele>
        <time>2010-06-18T08:31:02Z</time>
      </trkpt>
      <trkpt lat="42.451492" lon="2.960396">
        <ele>489.048</ele>
        <time>2010-06-18T08:31:31Z</time>
      </trkpt>
      <trkpt lat="42.451223" lon="2.963133">
        <ele>501.040</ele>
        <time>2010-06-18T08:34:54Z</time>
      </trkpt>
      <trkpt lat="42.450277" lon="2.963255">
        <ele>489.093</ele>
        <time>2010-06-18T08:36:30Z</time>
      </trkpt>
      <trkpt lat="42.448612" lon="2.965931">
        <ele>476.065</ele>
        <time>2010-06-18T08:40:48Z</time>
      </trkpt>
      <trkpt lat="42.448252" lon="2.967269">
        <ele>475.021</ele>
        <time>2010-06-18T08:42:33Z</time>
      </trkpt>
      <trkpt lat="42.448523" lon="2.968181">
        <ele>481.006</ele>
        <time>2010-06-18T08:43:46Z</time>
      </trkpt>
      <trkpt lat="42.448478" lon="2.969093">
        <ele>475.048</ele>
        <time>2010-06-18T08:44:53Z</time>
      </trkpt>
      <trkpt lat="42.450054" lon="2.970916">
        <ele>471.045</ele>
        <time>2010-06-18T08:48:21Z</time>
      </trkpt>
      <trkpt lat="42.451000" lon="2.970430">
        <ele>499.062</ele>
        <time>2010-06-18T08:50:02Z</time>
      </trkpt>
      <trkpt lat="42.451631" lon="2.971706">
        <ele>496.030</ele>
        <time>2010-06-18T08:51:55Z</time>
      </trkpt>
      <trkpt lat="42.452396" lon="2.971949">
        <ele>518.048</ele>
        <time>2010-06-18T08:53:14Z</time>
      </trkpt>
      <trkpt lat="42.453522" lon="2.972678">
        <ele>520.030</ele>
        <time>2010-06-18T08:55:19Z</time>
      </trkpt>
      <trkpt lat="42.454603" lon="2.972252">
        <ele>547.019</ele>
        <time>2010-06-18T08:57:12Z</time>
      </trkpt>
      <trkpt lat="42.453883" lon="2.973955">
        <ele>534.009</ele>
        <time>2010-06-18T08:59:36Z</time>
      </trkpt>
      <trkpt lat="42.453072" lon="2.974503">
        <ele>528.019</ele>
        <time>2010-06-18T09:01:07Z</time>
      </trkpt>
      <trkpt lat="42.452487" lon="2.975233">
        <ele>518.006</ele>
        <time>2010-06-18T09:02:27Z</time>
      </trkpt>
      <trkpt lat="42.454424" lon="2.978151">
        <ele>598.030</ele>
        <time>2010-06-18T09:07:17Z</time>
      </trkpt>
      <trkpt lat="42.454244" lon="2.978576">
        <ele>580.057</ele>
        <time>2010-06-18T09:07:53Z</time>
      </trkpt>
      <trkpt lat="42.455280" lon="2.981434">
        <ele>606.024</ele>
        <time>2010-06-18T09:11:47Z</time>
      </trkpt>
      <trkpt lat="42.456000" lon="2.981555">
        <ele>627.092</ele>
        <time>2010-06-18T09:13:00Z</time>
      </trkpt>
      <trkpt lat="42.457081" lon="2.982406">
        <ele>633.030</ele>
        <time>2010-06-18T09:15:06Z</time>
      </trkpt>
      <trkpt lat="42.456217" lon="2.983441">
        <ele>621.042</ele>
        <time>2010-06-18T09:17:01Z</time>
      </trkpt>
      <trkpt lat="42.455731" lon="2.984900">
        <ele>655.022</ele>
        <time>2010-06-18T09:18:59Z</time>
      </trkpt>
      <trkpt lat="42.455100" lon="2.985630">
        <ele>655.062</ele>
        <time>2010-06-18T09:20:21Z</time>
      </trkpt>
      <trkpt lat="42.452444" lon="2.986178">
        <ele>692.008</ele>
        <time>2010-06-18T09:24:50Z</time>
      </trkpt>
      <trkpt lat="42.451993" lon="2.985570">
        <ele>691.006</ele>
        <time>2010-06-18T09:25:54Z</time>
      </trkpt>
      <trkpt lat="42.450868" lon="2.986360">
        <ele>733.081</ele>
        <time>2010-06-18T09:28:01Z</time>
      </trkpt>
      <trkpt lat="42.449967" lon="2.986665">
        <ele>746.038</ele>
        <time>2010-06-18T09:29:35Z</time>
      </trkpt>
      <trkpt lat="42.448616" lon="2.985388">
        <ele>689.085</ele>
        <time>2010-06-18T09:32:18Z</time>
      </trkpt>
      <trkpt lat="42.447400" lon="2.983382">
        <ele>672.083</ele>
        <time>2010-06-18T09:35:30Z</time>
      </trkpt>
      <trkpt lat="42.444608" lon="2.980039">
        <ele>693.021</ele>
        <time>2010-06-18T09:41:44Z</time>
      </trkpt>
      <trkpt lat="42.441185" lon="2.978277">
        <ele>692.083</ele>
        <time>2010-06-18T09:47:49Z</time>
      </trkpt>
      <trkpt lat="42.440330" lon="2.979371">
        <ele>670.058</ele>
        <time>2010-06-18T09:49:48Z</time>
      </trkpt>
      <trkpt lat="42.439069" lon="2.979858">
        <ele>629.052</ele>
        <time>2010-06-18T09:51:59Z</time>
      </trkpt>
      <trkpt lat="42.439564" lon="2.976879">
        <ele>618.017</ele>
        <time>2010-06-18T09:55:45Z</time>
      </trkpt>
      <trkpt lat="42.439339" lon="2.977244">
        <ele>621.006</ele>
        <time>2010-06-18T09:56:20Z</time>
      </trkpt>
      <trkpt lat="42.439158" lon="2.974326">
        <ele>573.094</ele>
        <time>2010-06-18T09:59:56Z</time>
      </trkpt>
      <trkpt lat="42.439023" lon="2.975846">
        <ele>573.021</ele>
        <time>2010-06-18T10:01:48Z</time>
      </trkpt>
      <trkpt lat="42.437898" lon="2.977487">
        <ele>538.068</ele>
        <time>2010-06-18T10:04:35Z</time>
      </trkpt>
      <trkpt lat="42.434881" lon="2.979677">
        <ele>480.036</ele>
        <time>2010-06-18T10:10:17Z</time>
      </trkpt>
      <trkpt lat="42.434926" lon="2.977549">
        <ele>451.034</ele>
        <time>2010-06-18T10:12:54Z</time>
      </trkpt>
      <trkpt lat="42.434610" lon="2.976820">
        <ele>442.096</ele>
        <time>2010-06-18T10:13:57Z</time>
      </trkpt>
      <trkpt lat="42.434430" lon="2.976091">
        <ele>434.062</ele>
        <time>2010-06-18T10:14:54Z</time>
      </trkpt>
      <trkpt lat="42.433079" lon="2.976152">
        <ele>412.083</ele>
        <time>2010-06-18T10:17:08Z</time>
      </trkpt>
      <trkpt lat="42.430558" lon="2.977733">
        <ele>374.011</ele>
        <time>2010-06-18T10:21:47Z</time>
      </trkpt>
      <trkpt lat="42.429928" lon="2.978828">
        <ele>364.006</ele>
        <time>2010-06-18T10:23:30Z</time>
      </trkpt>
      <trkpt lat="42.428352" lon="2.979801">
        <ele>374.045</ele>
        <time>2010-06-18T10:26:22Z</time>
      </trkpt>
      <trkpt lat="42.426191" lon="2.982415">
        <ele>385.022</ele>
        <time>2010-06-18T10:31:12Z</time>
      </trkpt>
      <trkpt lat="42.425696" lon="2.983691">
        <ele>385.039</ele>
        <time>2010-06-18T10:32:59Z</time>
      </trkpt>
      <trkpt lat="42.425200" lon="2.983935">
        <ele>394.027</ele>
        <time>2010-06-18T10:33:51Z</time>
      </trkpt>
      <trkpt lat="42.425110" lon="2.984542">
        <ele>391.025</ele>
        <time>2010-06-18T10:34:37Z</time>
      </trkpt>
      <trkpt lat="42.423850" lon="2.985272">
        <ele>386.017</ele>
        <time>2010-06-18T10:36:54Z</time>
      </trkpt>
      <trkpt lat="42.423309" lon="2.986062">
        <ele>386.019</ele>
        <time>2010-06-18T10:38:15Z</time>
      </trkpt>
      <trkpt lat="42.423039" lon="2.988250">
        <ele>372.009</ele>
        <time>2010-06-18T10:40:58Z</time>
      </trkpt>
      <trkpt lat="42.423310" lon="2.992606">
        <ele>370.019</ele>
        <time>2010-06-18T10:46:21Z</time>
      </trkpt>
      <trkpt lat="42.422950" lon="2.992789">
        <ele>372.006</ele>
        <time>2010-06-18T10:46:59Z</time>
      </trkpt>
      <trkpt lat="42.421554" lon="2.992607">
        <ele>371.090</ele>
        <time>2010-06-18T10:49:19Z</time>
      </trkpt>
      <trkpt lat="42.420878" lon="2.991938">
        <ele>383.097</ele>
        <time>2010-06-18T10:50:44Z</time>
      </trkpt>
      <trkpt lat="42.420068" lon="2.993275">
        <ele>356.094</ele>
        <time>2010-06-18T10:52:51Z</time>
      </trkpt>
      <trkpt lat="42.419077" lon="2.993701">
        <ele>365.032</ele>
        <time>2010-06-18T10:54:36Z</time>
      </trkpt>
      <trkpt lat="42.419032" lon="2.994552">
        <ele>359.010</ele>
        <time>2010-06-18T10:55:38Z</time>
      </trkpt>
      <trkpt lat="42.418852" lon="2.995342">
        <ele>360.012</ele>
        <time>2010-06-18T10:56:40Z</time>
      </trkpt>
      <trkpt lat="42.416826" lon="2.996436">
        <ele>338.045</ele>
        <time>2010-06-18T11:00:17Z</time>
      </trkpt>
      <trkpt lat="42.416240" lon="2.997894">
        <ele>319.047</ele>
        <time>2010-06-18T11:02:21Z</time>
      </trkpt>
      <trkpt lat="42.415745" lon="2.997347">
        <ele>318.011</ele>
        <time>2010-06-18T11:03:25Z</time>
      </trkpt>
      <trkpt lat="42.415745" lon="2.998016">
        <ele>312.006</ele>
        <time>2010-06-18T11:04:14Z</time>
      </trkpt>
      <trkpt lat="42.415565" lon="2.997651">
        <ele>310.043</ele>
        <time>2010-06-18T11:04:47Z</time>
      </trkpt>
      <trkpt lat="42.415700" lon="2.998320">
        <ele>308.060</ele>
        <time>2010-06-18T11:05:38Z</time>
      </trkpt>
      <trkpt lat="42.414484" lon="2.998320">
        <ele>281.067</ele>
        <time>2010-06-18T11:07:39Z</time>
      </trkpt>
      <trkpt lat="42.413944" lon="2.999717">
        <ele>257.065</ele>
        <time>2010-06-18T11:09:36Z</time>
      </trkpt>
      <trkpt lat="42.413178" lon="2.999839">
        <ele>251.063</ele>
        <time>2010-06-18T11:10:53Z</time>
      </trkpt>
      <trkpt lat="42.412683" lon="2.998502">
        <ele>246.075</ele>
        <time>2010-06-18T11:12:43Z</time>
      </trkpt>
      <trkpt lat="42.412683" lon="2.997955">
        <ele>244.077</ele>
        <time>2010-06-18T11:13:23Z</time>
      </trkpt>
      <trkpt lat="42.411827" lon="2.996922">
        <ele>237.061</ele>
        <time>2010-06-18T11:15:18Z</time>
      </trkpt>
      <trkpt lat="42.410837" lon="2.996679">
        <ele>233.027</ele>
        <time>2010-06-18T11:17:00Z</time>
      </trkpt>
      <trkpt lat="42.409891" lon="2.998016">
        <ele>215.006</ele>
        <time>2010-06-18T11:19:15Z</time>
      </trkpt>
      <trkpt lat="42.410206" lon="3.000325">
        <ele>198.046</ele>
        <time>2010-06-18T11:22:10Z</time>
      </trkpt>
      <trkpt lat="42.409081" lon="3.001115">
        <ele>206.073</ele>
        <time>2010-06-18T11:24:16Z</time>
      </trkpt>
      <trkpt lat="42.409081" lon="3.002269">
        <ele>195.090</ele>
        <time>2010-06-18T11:25:42Z</time>
      </trkpt>
      <trkpt lat="42.408765" lon="3.003606">
        <ele>199.088</ele>
        <time>2010-06-18T11:27:25Z</time>
      </trkpt>
      <trkpt lat="42.408855" lon="3.007495">
        <ele>155.046</ele>
        <time>2010-06-18T11:32:13Z</time>
      </trkpt>
      <trkpt lat="42.409351" lon="3.007009">
        <ele>156.088</ele>
        <time>2010-06-18T11:33:14Z</time>
      </trkpt>
      <trkpt lat="42.409711" lon="3.007434">
        <ele>152.038</ele>
        <time>2010-06-18T11:34:02Z</time>
      </trkpt>
      <trkpt lat="42.410341" lon="3.007860">
        <ele>152.070</ele>
        <time>2010-06-18T11:35:12Z</time>
      </trkpt>
      <trkpt lat="42.410161" lon="3.009075">
        <ele>148.017</ele>
        <time>2010-06-18T11:36:44Z</time>
      </trkpt>
      <trkpt lat="42.410341" lon="3.009987">
        <ele>146.006</ele>
        <time>2010-06-18T11:37:54Z</time>
      </trkpt>
      <trkpt lat="42.411242" lon="3.010048">
        <ele>147.022</ele>
        <time>2010-06-18T11:39:23Z</time>
      </trkpt>
      <trkpt lat="42.412412" lon="3.010595">
        <ele>143.089</ele>
        <time>2010-06-18T11:41:28Z</time>
      </trkpt>
      <trkpt lat="42.413493" lon="3.012600">
        <ele>143.056</ele>
        <time>2010-06-18T11:44:32Z</time>
      </trkpt>
      <trkpt lat="42.415204" lon="3.013026">
        <ele>163.084</ele>
        <time>2010-06-18T11:47:26Z</time>
      </trkpt>
      <trkpt lat="42.415654" lon="3.014181">
        <ele>159.032</ele>
        <time>2010-06-18T11:49:01Z</time>
      </trkpt>
      <trkpt lat="42.416239" lon="3.016916">
        <ele>165.074</ele>
        <time>2010-06-18T11:52:33Z</time>
      </trkpt>
      <trkpt lat="42.415879" lon="3.018253">
        <ele>158.051</ele>
        <time>2010-06-18T11:54:18Z</time>
      </trkpt>
      <trkpt lat="42.416779" lon="3.018557">
        <ele>165.001</ele>
        <time>2010-06-18T11:55:50Z</time>
      </trkpt>
      <trkpt lat="42.417905" lon="3.019469">
        <ele>165.011</ele>
        <time>2010-06-18T11:58:01Z</time>
      </trkpt>
      <trkpt lat="42.418670" lon="3.019226">
        <ele>176.006</ele>
        <time>2010-06-18T11:59:21Z</time>
      </trkpt>
      <trkpt lat="42.418490" lon="3.019955">
        <ele>173.014</ele>
        <time>2010-06-18T12:00:16Z</time>
      </trkpt>
      <trkpt lat="42.419210" lon="3.021353">
        <ele>174.051</ele>
        <time>2010-06-18T12:02:22Z</time>
      </trkpt>
      <trkpt lat="42.419210" lon="3.022022">
        <ele>173.078</ele>
        <time>2010-06-18T12:03:13Z</time>
      </trkpt>
      <trkpt lat="42.419660" lon="3.023541">
        <ele>183.036</ele>
        <time>2010-06-18T12:05:14Z</time>
      </trkpt>
      <trkpt lat="42.420696" lon="3.023906">
        <ele>183.034</ele>
        <time>2010-06-18T12:07:01Z</time>
      </trkpt>
      <trkpt lat="42.422272" lon="3.023299">
        <ele>179.076</ele>
        <time>2010-06-18T12:09:45Z</time>
      </trkpt>
      <trkpt lat="42.423263" lon="3.021962">
        <ele>183.063</ele>
        <time>2010-06-18T12:12:05Z</time>
      </trkpt>
      <trkpt lat="42.424479" lon="3.021720">
        <ele>183.044</ele>
        <time>2010-06-18T12:14:07Z</time>
      </trkpt>
      <trkpt lat="42.425379" lon="3.023665">
        <ele>184.018</ele>
        <time>2010-06-18T12:16:57Z</time>
      </trkpt>
      <trkpt lat="42.427540" lon="3.024395">
        <ele>196.006</ele>
        <time>2010-06-18T12:20:40Z</time>
      </trkpt>
      <trkpt lat="42.428711" lon="3.024213">
        <ele>198.015</ele>
        <time>2010-06-18T12:22:38Z</time>
      </trkpt>
      <trkpt lat="42.428891" lon="3.024578">
        <ele>199.052</ele>
        <time>2010-06-18T12:23:10Z</time>
      </trkpt>
      <trkpt lat="42.430197" lon="3.025125">
        <ele>204.049</ele>
        <time>2010-06-18T12:25:27Z</time>
      </trkpt>
      <trkpt lat="42.431142" lon="3.026585">
        <ele>200.087</ele>
        <time>2010-06-18T12:27:50Z</time>
      </trkpt>
      <trkpt lat="42.431187" lon="3.027193">
        <ele>198.095</ele>
        <time>2010-06-18T12:28:35Z</time>
      </trkpt>
      <trkpt lat="42.431952" lon="3.027801">
        <ele>201.027</ele>
        <time>2010-06-18T12:30:04Z</time>
      </trkpt>
      <trkpt lat="42.432312" lon="3.028591">
        <ele>201.039</ele>
        <time>2010-06-18T12:31:13Z</time>
      </trkpt>
      <trkpt lat="42.433661" lon="3.037467">
        <ele>204.001</ele>
        <time>2010-06-18T12:42:23Z</time>
      </trkpt>
      <trkpt lat="42.434291" lon="3.037893">
        <ele>207.021</ele>
        <time>2010-06-18T12:43:33Z</time>
      </trkpt>
      <trkpt lat="42.434831" lon="3.038744">
        <ele>205.006</ele>
        <time>2010-06-18T12:44:56Z</time>
      </trkpt>
      <trkpt lat="42.437847" lon="3.040813">
        <ele>225.052</ele>
        <time>2010-06-18T12:50:33Z</time>
      </trkpt>
      <trkpt lat="42.438927" lon="3.042759">
        <ele>228.079</ele>
        <time>2010-06-18T12:53:34Z</time>
      </trkpt>
      <trkpt lat="42.439603" lon="3.043368">
        <ele>241.086</ele>
        <time>2010-06-18T12:54:54Z</time>
      </trkpt>
      <trkpt lat="42.439422" lon="3.044097">
        <ele>236.064</ele>
        <time>2010-06-18T12:55:51Z</time>
      </trkpt>
      <trkpt lat="42.439692" lon="3.045009">
        <ele>239.062</ele>
        <time>2010-06-18T12:57:05Z</time>
      </trkpt>
      <trkpt lat="42.438701" lon="3.045859">
        <ele>222.094</ele>
        <time>2010-06-18T12:59:02Z</time>
      </trkpt>
      <trkpt lat="42.438251" lon="3.045859">
        <ele>221.066</ele>
        <time>2010-06-18T12:59:47Z</time>
      </trkpt>
      <trkpt lat="42.438116" lon="3.044947">
        <ele>220.029</ele>
        <time>2010-06-18T13:00:56Z</time>
      </trkpt>
      <trkpt lat="42.437576" lon="3.044764">
        <ele>221.021</ele>
        <time>2010-06-18T13:01:51Z</time>
      </trkpt>
      <trkpt lat="42.436899" lon="3.046466">
        <ele>231.006</ele>
        <time>2010-06-18T13:04:14Z</time>
      </trkpt>
      <trkpt lat="42.436134" lon="3.046709">
        <ele>230.065</ele>
        <time>2010-06-18T13:05:33Z</time>
      </trkpt>
      <trkpt lat="42.435097" lon="3.048531">
        <ele>256.052</ele>
        <time>2010-06-18T13:08:23Z</time>
      </trkpt>
      <trkpt lat="42.434287" lon="3.048592">
        <ele>261.069</ele>
        <time>2010-06-18T13:09:44Z</time>
      </trkpt>
      <trkpt lat="42.433476" lon="3.049199">
        <ele>257.097</ele>
        <time>2010-06-18T13:11:16Z</time>
      </trkpt>
      <trkpt lat="42.433251" lon="3.049746">
        <ele>251.095</ele>
        <time>2010-06-18T13:12:03Z</time>
      </trkpt>
      <trkpt lat="42.431809" lon="3.050474">
        <ele>264.057</ele>
        <time>2010-06-18T13:14:37Z</time>
      </trkpt>
      <trkpt lat="42.431494" lon="3.051264">
        <ele>273.027</ele>
        <time>2010-06-18T13:15:42Z</time>
      </trkpt>
      <trkpt lat="42.430368" lon="3.052479">
        <ele>297.068</ele>
        <time>2010-06-18T13:18:07Z</time>
      </trkpt>
      <trkpt lat="42.429962" lon="3.052478">
        <ele>301.014</ele>
        <time>2010-06-18T13:18:47Z</time>
      </trkpt>
      <trkpt lat="42.429781" lon="3.054667">
        <ele>337.006</ele>
        <time>2010-06-18T13:21:31Z</time>
      </trkpt>
      <trkpt lat="42.429196" lon="3.053329">
        <ele>328.061</ele>
        <time>2010-06-18T13:23:26Z</time>
      </trkpt>
      <trkpt lat="42.428521" lon="3.052964">
        <ele>342.038</ele>
        <time>2010-06-18T13:24:37Z</time>
      </trkpt>
      <trkpt lat="42.428071" lon="3.051383">
        <ele>358.025</ele>
        <time>2010-06-18T13:26:43Z</time>
      </trkpt>
      <trkpt lat="42.428027" lon="3.050106">
        <ele>363.013</ele>
        <time>2010-06-18T13:28:17Z</time>
      </trkpt>
      <trkpt lat="42.427802" lon="3.049559">
        <ele>374.071</ele>
        <time>2010-06-18T13:29:04Z</time>
      </trkpt>
      <trkpt lat="42.426812" lon="3.049315">
        <ele>383.063</ele>
        <time>2010-06-18T13:30:45Z</time>
      </trkpt>
      <trkpt lat="42.425641" lon="3.048403">
        <ele>369.028</ele>
        <time>2010-06-18T13:33:00Z</time>
      </trkpt>
      <trkpt lat="42.423750" lon="3.048766">
        <ele>323.089</ele>
        <time>2010-06-18T13:36:11Z</time>
      </trkpt>
      <trkpt lat="42.423345" lon="3.048401">
        <ele>329.017</ele>
        <time>2010-06-18T13:36:59Z</time>
      </trkpt>
      <trkpt lat="42.421769" lon="3.048400">
        <ele>298.006</ele>
        <time>2010-06-18T13:39:38Z</time>
      </trkpt>
      <trkpt lat="42.420463" lon="3.048824">
        <ele>285.071</ele>
        <time>2010-06-18T13:41:52Z</time>
      </trkpt>
      <trkpt lat="42.418345" lon="3.050585">
        <ele>255.068</ele>
        <time>2010-06-18T13:46:00Z</time>
      </trkpt>
      <trkpt lat="42.419201" lon="3.050585">
        <ele>256.085</ele>
        <time>2010-06-18T13:47:26Z</time>
      </trkpt>
      <trkpt lat="42.419201" lon="3.051254">
        <ele>235.023</ele>
        <time>2010-06-18T13:48:16Z</time>
      </trkpt>
      <trkpt lat="42.418480" lon="3.051314">
        <ele>233.021</ele>
        <time>2010-06-18T13:49:27Z</time>
      </trkpt>
      <trkpt lat="42.416723" lon="3.053926">
        <ele>186.013</ele>
        <time>2010-06-18T13:53:48Z</time>
      </trkpt>
      <trkpt lat="42.418344" lon="3.052894">
        <ele>205.081</ele>
        <time>2010-06-18T13:56:48Z</time>
      </trkpt>
      <trkpt lat="42.418389" lon="3.053076">
        <ele>199.061</ele>
        <time>2010-06-18T13:57:03Z</time>
      </trkpt>
      <trkpt lat="42.418254" lon="3.053927">
        <ele>184.017</ele>
        <time>2010-06-18T13:58:06Z</time>
      </trkpt>
      <trkpt lat="42.418749" lon="3.053988">
        <ele>185.006</ele>
        <time>2010-06-18T13:58:57Z</time>
      </trkpt>
      <trkpt lat="42.417893" lon="3.054535">
        <ele>178.057</ele>
        <time>2010-06-18T14:00:31Z</time>
      </trkpt>
      <trkpt lat="42.417758" lon="3.055203">
        <ele>180.024</ele>
        <time>2010-06-18T14:01:22Z</time>
      </trkpt>
      <trkpt lat="42.416857" lon="3.055871">
        <ele>168.011</ele>
        <time>2010-06-18T14:03:05Z</time>
      </trkpt>
      <trkpt lat="42.416811" lon="3.056661">
        <ele>170.019</ele>
        <time>2010-06-18T14:04:03Z</time>
      </trkpt>
      <trkpt lat="42.416135" lon="3.058240">
        <ele>164.027</ele>
        <time>2010-06-18T14:06:18Z</time>
      </trkpt>
      <trkpt lat="42.415505" lon="3.058300">
        <ele>156.029</ele>
        <time>2010-06-18T14:07:22Z</time>
      </trkpt>
      <trkpt lat="42.415055" lon="3.058118">
        <ele>152.016</ele>
        <time>2010-06-18T14:08:08Z</time>
      </trkpt>
      <trkpt lat="42.414605" lon="3.056051">
        <ele>158.076</ele>
        <time>2010-06-18T14:10:47Z</time>
      </trkpt>
      <trkpt lat="42.414290" lon="3.055686">
        <ele>168.013</ele>
        <time>2010-06-18T14:11:30Z</time>
      </trkpt>
      <trkpt lat="42.412804" lon="3.056110">
        <ele>163.006</ele>
        <time>2010-06-18T14:14:01Z</time>
      </trkpt>
      <trkpt lat="42.411364" lon="3.054711">
        <ele>153.090</ele>
        <time>2010-06-18T14:16:58Z</time>
      </trkpt>
      <trkpt lat="42.410734" lon="3.053131">
        <ele>149.067</ele>
        <time>2010-06-18T14:19:12Z</time>
      </trkpt>
      <trkpt lat="42.409892" lon="3.051793">
        <ele>146.054</ele>
        <time>2010-06-18T14:21:21Z</time>
      </trkpt>
      <trkpt lat="42.408947" lon="3.051124">
        <ele>140.082</ele>
        <time>2010-06-18T14:23:07Z</time>
      </trkpt>
      <trkpt lat="42.408406" lon="3.051002">
        <ele>138.090</ele>
        <time>2010-06-18T14:24:03Z</time>
      </trkpt>
      <trkpt lat="42.407370" lon="3.051669">
        <ele>137.012</ele>
        <time>2010-06-18T14:25:58Z</time>
      </trkpt>
      <trkpt lat="42.406155" lon="3.051608">
        <ele>139.094</ele>
        <time>2010-06-18T14:27:59Z</time>
      </trkpt>
      <trkpt lat="42.399309" lon="3.053789">
        <ele>122.057</ele>
        <time>2010-06-18T14:39:42Z</time>
      </trkpt>
      <trkpt lat="42.395885" lon="3.058039">
        <ele>111.022</ele>
        <time>2010-06-18T14:47:27Z</time>
      </trkpt>
      <trkpt lat="42.394849" lon="3.058402">
        <ele>112.006</ele>
        <time>2010-06-18T14:49:15Z</time>
      </trkpt>
      <trkpt lat="42.393723" lon="3.058158">
        <ele>109.028</ele>
        <time>2010-06-18T14:51:09Z</time>
      </trkpt>
      <trkpt lat="42.392958" lon="3.057064">
        <ele>101.055</ele>
        <time>2010-06-18T14:53:00Z</time>
      </trkpt>
      <trkpt lat="42.391968" lon="3.056577">
        <ele>104.032</ele>
        <time>2010-06-18T14:54:45Z</time>
      </trkpt>
      <trkpt lat="42.387422" lon="3.052139">
        <ele>98.020</ele>
        <time>2010-06-18T15:04:07Z</time>
      </trkpt>
      <trkpt lat="42.387061" lon="3.052746">
        <ele>99.028</ele>
        <time>2010-06-18T15:05:04Z</time>
      </trkpt>
      <trkpt lat="42.382196" lon="3.057176">
        <ele>133.050</ele>
        <time>2010-06-18T15:14:50Z</time>
      </trkpt>
      <trkpt lat="42.380844" lon="3.059118">
        <ele>125.042</ele>
        <time>2010-06-18T15:18:08Z</time>
      </trkpt>
      <trkpt lat="42.380528" lon="3.060090">
        <ele>122.022</ele>
        <time>2010-06-18T15:19:27Z</time>
      </trkpt>
      <trkpt lat="42.378095" lon="3.062152">
        <ele>125.014</ele>
        <time>2010-06-18T15:24:14Z</time>
      </trkpt>
      <trkpt lat="42.376698" lon="3.065613">
        <ele>131.006</ele>
        <time>2010-06-18T15:29:05Z</time>
      </trkpt>
      <trkpt lat="42.375662" lon="3.065854">
        <ele>138.023</ele>
        <time>2010-06-18T15:30:50Z</time>
      </trkpt>
      <trkpt lat="42.375256" lon="3.067251">
        <ele>148.070</ele>
        <time>2010-06-18T15:32:42Z</time>
      </trkpt>
      <trkpt lat="42.376021" lon="3.067252">
        <ele>151.067</ele>
        <time>2010-06-18T15:33:58Z</time>
      </trkpt>
      <trkpt lat="42.376336" lon="3.068649">
        <ele>160.095</ele>
        <time>2010-06-18T15:35:46Z</time>
      </trkpt>
      <trkpt lat="42.377731" lon="3.069561">
        <ele>183.053</ele>
        <time>2010-06-18T15:38:21Z</time>
      </trkpt>
      <trkpt lat="42.378181" lon="3.070352">
        <ele>181.015</ele>
        <time>2010-06-18T15:39:36Z</time>
      </trkpt>
      <trkpt lat="42.378811" lon="3.070595">
        <ele>193.057</ele>
        <time>2010-06-18T15:40:41Z</time>
      </trkpt>
      <trkpt lat="42.379711" lon="3.071629">
        <ele>196.000</ele>
        <time>2010-06-18T15:42:39Z</time>
      </trkpt>
      <trkpt lat="42.380566" lon="3.072055">
        <ele>185.020</ele>
        <time>2010-06-18T15:44:09Z</time>
      </trkpt>
      <trkpt lat="42.380881" lon="3.073331">
        <ele>192.006</ele>
        <time>2010-06-18T15:45:50Z</time>
      </trkpt>
      <trkpt lat="42.380878" lon="3.077279">
        <ele>233.024</ele>
        <time>2010-06-18T15:50:42Z</time>
      </trkpt>
      <trkpt lat="42.381057" lon="3.078676">
        <ele>248.021</ele>
        <time>2010-06-18T15:52:26Z</time>
      </trkpt>
      <trkpt lat="42.380336" lon="3.079950">
        <ele>245.098</ele>
        <time>2010-06-18T15:54:25Z</time>
      </trkpt>
      <trkpt lat="42.378849" lon="3.081649">
        <ele>234.046</ele>
        <time>2010-06-18T15:57:40Z</time>
      </trkpt>
      <trkpt lat="42.377450" lon="3.084866">
        <ele>186.094</ele>
        <time>2010-06-18T16:02:15Z</time>
      </trkpt>
      <trkpt lat="42.376504" lon="3.085290">
        <ele>182.046</ele>
        <time>2010-06-18T16:03:55Z</time>
      </trkpt>
      <trkpt lat="42.375829" lon="3.085236">
        <ele>191.048</ele>
        <time>2010-06-18T16:05:02Z</time>
      </trkpt>
      <trkpt lat="42.375562" lon="3.085374">
        <ele>199.061</ele>
        <time>2010-06-18T16:05:31Z</time>
      </trkpt>
      <trkpt lat="42.375156" lon="3.086102">
        <ele>185.017</ele>
        <time>2010-06-18T16:06:38Z</time>
      </trkpt>
      <trkpt lat="42.374795" lon="3.086162">
        <ele>208.006</ele>
        <time>2010-06-18T16:07:16Z</time>
      </trkpt>
      <trkpt lat="42.374750" lon="3.086952">
        <ele>188.023</ele>
        <time>2010-06-18T16:08:13Z</time>
      </trkpt>
      <trkpt lat="42.374479" lon="3.087437">
        <ele>181.080</ele>
        <time>2010-06-18T16:08:58Z</time>
      </trkpt>
      <trkpt lat="42.373759" lon="3.087254">
        <ele>196.097</ele>
        <time>2010-06-18T16:10:13Z</time>
      </trkpt>
      <trkpt lat="42.373263" lon="3.088468">
        <ele>189.085</ele>
        <time>2010-06-18T16:11:55Z</time>
      </trkpt>
      <trkpt lat="42.372495" lon="3.091261">
        <ele>165.033</ele>
        <time>2010-06-18T16:15:34Z</time>
      </trkpt>
      <trkpt lat="42.371594" lon="3.091441">
        <ele>183.045</ele>
        <time>2010-06-18T16:17:07Z</time>
      </trkpt>
      <trkpt lat="42.370378" lon="3.092411">
        <ele>177.017</ele>
        <time>2010-06-18T16:19:28Z</time>
      </trkpt>
      <trkpt lat="42.370332" lon="3.093261">
        <ele>159.087</ele>
        <time>2010-06-18T16:20:30Z</time>
      </trkpt>
      <trkpt lat="42.369881" lon="3.093504">
        <ele>157.015</ele>
        <time>2010-06-18T16:21:18Z</time>
      </trkpt>
      <trkpt lat="42.369564" lon="3.095446">
        <ele>125.006</ele>
        <time>2010-06-18T16:23:46Z</time>
      </trkpt>
      <trkpt lat="42.368664" lon="3.095020">
        <ele>142.040</ele>
        <time>2010-06-18T16:25:22Z</time>
      </trkpt>
      <trkpt lat="42.368123" lon="3.095566">
        <ele>130.047</ele>
        <time>2010-06-18T16:26:29Z</time>
      </trkpt>
      <trkpt lat="42.367267" lon="3.096900">
        <ele>104.064</ele>
        <time>2010-06-18T16:28:39Z</time>
      </trkpt>
      <trkpt lat="42.366905" lon="3.098175">
        <ele>100.012</ele>
        <time>2010-06-18T16:30:21Z</time>
      </trkpt>
      <trkpt lat="42.366815" lon="3.098964">
        <ele>101.080</ele>
        <time>2010-06-18T16:31:20Z</time>
      </trkpt>
      <trkpt lat="42.367445" lon="3.098722">
        <ele>107.042</ele>
        <time>2010-06-18T16:32:25Z</time>
      </trkpt>
      <trkpt lat="42.368302" lon="3.097509">
        <ele>108.018</ele>
        <time>2010-06-18T16:34:29Z</time>
      </trkpt>
      <trkpt lat="42.368707" lon="3.097692">
        <ele>112.098</ele>
        <time>2010-06-18T16:35:11Z</time>
      </trkpt>
      <trkpt lat="42.369831" lon="3.099273">
        <ele>132.017</ele>
        <time>2010-06-18T16:37:55Z</time>
      </trkpt>
      <trkpt lat="42.370912" lon="3.099760">
        <ele>131.006</ele>
        <time>2010-06-18T16:39:48Z</time>
      </trkpt>
      <trkpt lat="42.371226" lon="3.100975">
        <ele>148.040</ele>
        <time>2010-06-18T16:41:23Z</time>
      </trkpt>
      <trkpt lat="42.372080" lon="3.102070">
        <ele>145.047</ele>
        <time>2010-06-18T16:43:21Z</time>
      </trkpt>
      <trkpt lat="42.372529" lon="3.103832">
        <ele>164.014</ele>
        <time>2010-06-18T16:45:38Z</time>
      </trkpt>
      <trkpt lat="42.372348" lon="3.104681">
        <ele>168.012</ele>
        <time>2010-06-18T16:46:45Z</time>
      </trkpt>
      <trkpt lat="42.372662" lon="3.106079">
        <ele>197.040</ele>
        <time>2010-06-18T16:48:33Z</time>
      </trkpt>
      <trkpt lat="42.373067" lon="3.106687">
        <ele>209.072</ele>
        <time>2010-06-18T16:49:33Z</time>
      </trkpt>
      <trkpt lat="42.372120" lon="3.107718">
        <ele>214.088</ele>
        <time>2010-06-18T16:51:35Z</time>
      </trkpt>
      <trkpt lat="42.372255" lon="3.108325">
        <ele>224.024</ele>
        <time>2010-06-18T16:52:22Z</time>
      </trkpt>
      <trkpt lat="42.370948" lon="3.109173">
        <ele>223.026</ele>
        <time>2010-06-18T16:54:46Z</time>
      </trkpt>
      <trkpt lat="42.370630" lon="3.111662">
        <ele>224.006</ele>
        <time>2010-06-18T16:57:54Z</time>
      </trkpt>
      <trkpt lat="42.369638" lon="3.113604">
        <ele>217.097</ele>
        <time>2010-06-18T17:00:48Z</time>
      </trkpt>
      <trkpt lat="42.370087" lon="3.114758">
        <ele>209.014</ele>
        <time>2010-06-18T17:02:24Z</time>
      </trkpt>
      <trkpt lat="42.370851" lon="3.116156">
        <ele>187.071</ele>
        <time>2010-06-18T17:04:33Z</time>
      </trkpt>
      <trkpt lat="42.368550" lon="3.120950">
        <ele>149.059</ele>
        <time>2010-06-18T17:11:35Z</time>
      </trkpt>
      <trkpt lat="42.368545" lon="3.124775">
        <ele>128.047</ele>
        <time>2010-06-18T17:16:18Z</time>
      </trkpt>
      <trkpt lat="42.368363" lon="3.126536">
        <ele>111.039</ele>
        <time>2010-06-18T17:18:29Z</time>
      </trkpt>
      <trkpt lat="42.368765" lon="3.129512">
        <ele>99.035</ele>
        <time>2010-06-18T17:22:13Z</time>
      </trkpt>
      <trkpt lat="42.366508" lon="3.134305">
        <ele>55.086</ele>
        <time>2010-06-18T17:29:14Z</time>
      </trkpt>
      <trkpt lat="42.362043" lon="3.140367">
        <ele>5.014</ele>
        <time>2010-06-18T17:39:46Z</time>
      </trkpt>
      <trkpt lat="42.361858" lon="3.144192">
        <ele>6.006</ele>
        <time>2010-06-18T17:44:29Z</time>
      </trkpt>
      <trkpt lat="42.360374" lon="3.142488">
        <ele>6.022</ele>
        <time>2010-06-18T17:47:45Z</time>
      </trkpt>
      <trkpt lat="42.360239" lon="3.142731">
        <ele>6.079</ele>
        <time>2010-06-18T17:48:07Z</time>
      </trkpt>
      <trkpt lat="42.360282" lon="3.144553">
        <ele>5.016</ele>
        <time>2010-06-18T17:50:22Z</time>
      </trkpt>
      <trkpt lat="42.361315" lon="3.146559">
        <ele>6.024</ele>
        <time>2010-06-18T17:53:22Z</time>
      </trkpt>
      <trkpt lat="42.362348" lon="3.148201">
        <ele>7.042</ele>
        <time>2010-06-18T17:56:03Z</time>
      </trkpt>
      <trkpt lat="42.362348" lon="3.148686">
        <ele>8.084</ele>
        <time>2010-06-18T17:56:38Z</time>
      </trkpt>
      <trkpt lat="42.359960" lon="3.149834">
        <ele>16.035</ele>
        <time>2010-06-18T18:00:51Z</time>
      </trkpt>
      <trkpt lat="42.358967" lon="3.151471">
        <ele>17.086</ele>
        <time>2010-06-18T18:03:29Z</time>
      </trkpt>
      <trkpt lat="42.357031" lon="3.150617">
        <ele>17.014</ele>
        <time>2010-06-18T18:06:53Z</time>
      </trkpt>
      <trkpt lat="42.355679" lon="3.151828">
        <ele>28.006</ele>
        <time>2010-06-18T18:09:35Z</time>
      </trkpt>
      <trkpt lat="42.355047" lon="3.152919">
        <ele>36.022</ele>
        <time>2010-06-18T18:11:17Z</time>
      </trkpt>
      <trkpt lat="42.352838" lon="3.154917">
        <ele>67.029</ele>
        <time>2010-06-18T18:15:43Z</time>
      </trkpt>
      <trkpt lat="42.351397" lon="3.154913">
        <ele>79.066</ele>
        <time>2010-06-18T18:18:08Z</time>
      </trkpt>
      <trkpt lat="42.351351" lon="3.155338">
        <ele>78.014</ele>
        <time>2010-06-18T18:18:39Z</time>
      </trkpt>
      <trkpt lat="42.348513" lon="3.156424">
        <ele>127.092</ele>
        <time>2010-06-18T18:23:34Z</time>
      </trkpt>
      <trkpt lat="42.348197" lon="3.157030">
        <ele>130.044</ele>
        <time>2010-06-18T18:24:28Z</time>
      </trkpt>
      <trkpt lat="42.348018" lon="3.155876">
        <ele>133.065</ele>
        <time>2010-06-18T18:25:56Z</time>
      </trkpt>
      <trkpt lat="42.347387" lon="3.156603">
        <ele>154.068</ele>
        <time>2010-06-18T18:27:18Z</time>
      </trkpt>
      <trkpt lat="42.342655" lon="3.159202">
        <ele>323.014</ele>
        <time>2010-06-18T18:35:51Z</time>
      </trkpt>
      <trkpt lat="42.340495" lon="3.158286">
        <ele>330.006</ele>
        <time>2010-06-18T18:39:37Z</time>
      </trkpt>
      <trkpt lat="42.339461" lon="3.157130">
        <ele>351.085</ele>
        <time>2010-06-18T18:41:51Z</time>
      </trkpt>
      <trkpt lat="42.339282" lon="3.156219">
        <ele>397.042</ele>
        <time>2010-06-18T18:43:01Z</time>
      </trkpt>
      <trkpt lat="42.339690" lon="3.154338">
        <ele>426.039</ele>
        <time>2010-06-18T18:45:26Z</time>
      </trkpt>
      <trkpt lat="42.337305" lon="3.153118">
        <ele>426.027</ele>
        <time>2010-06-18T18:49:41Z</time>
      </trkpt>
      <trkpt lat="42.336134" lon="3.153176">
        <ele>440.065</ele>
        <time>2010-06-18T18:51:37Z</time>
      </trkpt>
      <trkpt lat="42.335100" lon="3.151899">
        <ele>440.067</ele>
        <time>2010-06-18T18:53:58Z</time>
      </trkpt>
      <trkpt lat="42.333881" lon="3.154081">
        <ele>457.013</ele>
        <time>2010-06-18T18:57:21Z</time>
      </trkpt>
      <trkpt lat="42.331630" lon="3.154076">
        <ele>457.043</ele>
        <time>2010-06-18T19:01:05Z</time>
      </trkpt>
      <trkpt lat="42.331447" lon="3.155532">
        <ele>466.007</ele>
        <time>2010-06-18T19:02:55Z</time>
      </trkpt>
      <trkpt lat="42.331581" lon="3.156321">
        <ele>476.006</ele>
        <time>2010-06-18T19:03:55Z</time>
      </trkpt>
      <trkpt lat="42.330995" lon="3.156866">
        <ele>479.080</ele>
        <time>2010-06-18T19:05:07Z</time>
      </trkpt>
      <trkpt lat="42.330681" lon="3.156501">
        <ele>481.087</ele>
        <time>2010-06-18T19:05:47Z</time>
      </trkpt>
      <trkpt lat="42.329689" lon="3.157045">
        <ele>491.034</ele>
        <time>2010-06-18T19:07:35Z</time>
      </trkpt>
      <trkpt lat="42.329507" lon="3.158622">
        <ele>475.082</ele>
        <time>2010-06-18T19:09:33Z</time>
      </trkpt>
      <trkpt lat="42.328995" lon="3.159848">
        <ele>474.010</ele>
        <time>2010-06-18T19:11:16Z</time>
      </trkpt>
      <trkpt lat="42.328994" lon="3.160698">
        <ele>447.032</ele>
        <time>2010-06-18T19:12:20Z</time>
      </trkpt>
      <trkpt lat="42.327598" lon="3.160998">
        <ele>464.067</ele>
        <time>2010-06-18T19:14:42Z</time>
      </trkpt>
      <trkpt lat="42.327012" lon="3.161542">
        <ele>456.081</ele>
        <time>2010-06-18T19:15:52Z</time>
      </trkpt>
      <trkpt lat="42.325480" lon="3.162145">
        <ele>484.019</ele>
        <time>2010-06-18T19:18:31Z</time>
      </trkpt>
      <trkpt lat="42.325523" lon="3.163299">
        <ele>465.006</ele>
        <time>2010-06-18T19:19:57Z</time>
      </trkpt>
      <trkpt lat="42.325838" lon="3.163906">
        <ele>443.095</ele>
        <time>2010-06-18T19:20:53Z</time>
      </trkpt>
      <trkpt lat="42.325070" lon="3.165300">
        <ele>449.022</ele>
        <time>2010-06-18T19:23:00Z</time>
      </trkpt>
      <trkpt lat="42.324034" lon="3.165479">
        <ele>474.019</ele>
        <time>2010-06-18T19:24:45Z</time>
      </trkpt>
      <trkpt lat="42.324303" lon="3.166694">
        <ele>460.047</ele>
        <time>2010-06-18T19:26:19Z</time>
      </trkpt>
      <trkpt lat="42.324211" lon="3.167664">
        <ele>440.095</ele>
        <time>2010-06-18T19:27:32Z</time>
      </trkpt>
      <trkpt lat="42.323490" lon="3.167844">
        <ele>460.027</ele>
        <time>2010-06-18T19:28:46Z</time>
      </trkpt>
      <trkpt lat="42.323310" lon="3.168087">
        <ele>462.052</ele>
        <time>2010-06-18T19:29:11Z</time>
      </trkpt>
      <trkpt lat="42.322946" lon="3.170270">
        <ele>455.053</ele>
        <time>2010-06-18T19:31:57Z</time>
      </trkpt>
      <trkpt lat="42.323576" lon="3.170575">
        <ele>440.008</ele>
        <time>2010-06-18T19:33:03Z</time>
      </trkpt>
      <trkpt lat="42.324655" lon="3.171913">
        <ele>439.006</ele>
        <time>2010-06-18T19:35:30Z</time>
      </trkpt>
      <trkpt lat="42.324879" lon="3.172581">
        <ele>435.044</ele>
        <time>2010-06-18T19:36:24Z</time>
      </trkpt>
      <trkpt lat="42.325284" lon="3.172886">
        <ele>427.081</ele>
        <time>2010-06-18T19:37:10Z</time>
      </trkpt>
      <trkpt lat="42.325553" lon="3.173858">
        <ele>410.058</ele>
        <time>2010-06-18T19:38:27Z</time>
      </trkpt>
      <trkpt lat="42.325641" lon="3.175193">
        <ele>390.046</ele>
        <time>2010-06-18T19:40:07Z</time>
      </trkpt>
      <trkpt lat="42.326270" lon="3.175619">
        <ele>376.014</ele>
        <time>2010-06-18T19:41:17Z</time>
      </trkpt>
      <trkpt lat="42.327033" lon="3.177260">
        <ele>329.016</ele>
        <time>2010-06-18T19:43:40Z</time>
      </trkpt>
      <trkpt lat="42.327753" lon="3.178112">
        <ele>303.047</ele>
        <time>2010-06-18T19:45:16Z</time>
      </trkpt>
      <trkpt lat="42.328293" lon="3.178356">
        <ele>300.029</ele>
        <time>2010-06-18T19:46:13Z</time>
      </trkpt>
      <trkpt lat="42.328696" lon="3.179510">
        <ele>280.021</ele>
        <time>2010-06-18T19:47:48Z</time>
      </trkpt>
      <trkpt lat="42.329416" lon="3.179998">
        <ele>280.006</ele>
        <time>2010-06-18T19:49:08Z</time>
      </trkpt>
      <trkpt lat="42.332248" lon="3.183283">
        <ele>241.033</ele>
        <time>2010-06-18T19:55:21Z</time>
      </trkpt>
      <trkpt lat="42.332877" lon="3.183892">
        <ele>219.020</ele>
        <time>2010-06-18T19:56:39Z</time>
      </trkpt>
      <trkpt lat="42.333190" lon="3.185228">
        <ele>162.097</ele>
        <time>2010-06-18T19:58:22Z</time>
      </trkpt>
      <trkpt lat="42.333278" lon="3.186563">
        <ele>131.055</ele>
        <time>2010-06-18T20:00:01Z</time>
      </trkpt>
      <trkpt lat="42.334042" lon="3.187719">
        <ele>105.073</ele>
        <time>2010-06-18T20:01:57Z</time>
      </trkpt>
      <trkpt lat="42.333903" lon="3.189600">
        <ele>68.015</ele>
        <time>2010-06-18T20:04:16Z</time>
      </trkpt>
      <trkpt lat="42.334262" lon="3.190815">
        <ele>49.017</ele>
        <time>2010-06-18T20:05:53Z</time>
      </trkpt>
      <trkpt lat="42.334215" lon="3.191664">
        <ele>38.087</ele>
        <time>2010-06-18T20:06:55Z</time>
      </trkpt>
      <trkpt lat="42.333539" lon="3.191905">
        <ele>37.015</ele>
        <time>2010-06-18T20:08:05Z</time>
      </trkpt>
      <trkpt lat="42.333808" lon="3.192756">
        <ele>25.006</ele>
        <time>2010-06-18T20:09:15Z</time>
      </trkpt>
      <trkpt lat="42.333806" lon="3.193848">
        <ele>20.080</ele>
        <time>2010-06-18T20:10:34Z</time>
      </trkpt>
      <trkpt lat="42.334795" lon="3.195126">
        <ele>7.017</ele>
        <time>2010-06-18T20:12:51Z</time>
      </trkpt>
      <trkpt lat="42.334250" lon="3.197794">
        <ele>2.074</ele>
        <time>2010-06-18T20:16:17Z</time>
      </trkpt>
      <trkpt lat="42.335592" lon="3.202836">
        <ele>4.012</ele>
        <time>2010-06-18T20:22:53Z</time>
      </trkpt>
      <trkpt lat="42.337256" lon="3.203873">
        <ele>5.010</ele>
        <time>2010-06-18T20:25:56Z</time>
      </trkpt>
      <trkpt lat="42.337887" lon="3.203875">
        <ele>4.032</ele>
        <time>2010-06-18T20:27:00Z</time>
      </trkpt>
      <trkpt lat="42.338068" lon="3.202844">
        <ele>2.035</ele>
        <time>2010-06-18T20:28:18Z</time>
      </trkpt>
      <trkpt lat="42.338429" lon="3.202724">
        <ele>2.086</ele>
        <time>2010-06-18T20:28:56Z</time>
      </trkpt>
      <trkpt lat="42.338202" lon="3.203755">
        <ele>3.014</ele>
        <time>2010-06-18T20:30:14Z</time>
      </trkpt>
      <trkpt lat="42.339056" lon="3.204547">
        <ele>6.006</ele>
        <time>2010-06-18T20:31:59Z</time>
      </trkpt>
      <trkpt lat="42.340048" lon="3.203822">
        <ele>5.012</ele>
        <time>2010-06-18T20:33:52Z</time>
      </trkpt>
      <trkpt lat="42.340814" lon="3.203642">
        <ele>3.049</ele>
        <time>2010-06-18T20:35:09Z</time>
      </trkpt>
      <trkpt lat="42.343969" lon="3.202256">
        <ele>9.046</ele>
        <time>2010-06-18T20:40:40Z</time>
      </trkpt>
      <trkpt lat="42.345317" lon="3.203535">
        <ele>16.084</ele>
        <time>2010-06-18T20:43:25Z</time>
      </trkpt>
      <trkpt lat="42.346038" lon="3.203538">
        <ele>11.072</ele>
        <time>2010-06-18T20:44:38Z</time>
      </trkpt>
      <trkpt lat="42.346667" lon="3.204147">
        <ele>18.014</ele>
        <time>2010-06-18T20:45:55Z</time>
      </trkpt>
      <trkpt lat="42.346846" lon="3.204572">
        <ele>16.036</ele>
        <time>2010-06-18T20:46:32Z</time>
      </trkpt>
      <trkpt lat="42.345944" lon="3.205783">
        <ele>25.017</ele>
        <time>2010-06-18T20:48:39Z</time>
      </trkpt>
      <trkpt lat="42.345087" lon="3.206205">
        <ele>40.018</ele>
        <time>2010-06-18T20:50:10Z</time>
      </trkpt>
      <trkpt lat="42.344679" lon="3.207661">
        <ele>29.006</ele>
        <time>2010-06-18T20:52:04Z</time>
      </trkpt>
      <trkpt lat="42.343868" lon="3.208023">
        <ele>37.082</ele>
        <time>2010-06-18T20:53:30Z</time>
      </trkpt>
      <trkpt lat="42.343508" lon="3.207900">
        <ele>47.059</ele>
        <time>2010-06-18T20:54:08Z</time>
      </trkpt>
      <trkpt lat="42.342790" lon="3.206805">
        <ele>68.026</ele>
        <time>2010-06-18T20:55:55Z</time>
      </trkpt>
      <trkpt lat="42.341934" lon="3.206741">
        <ele>62.034</ele>
        <time>2010-06-18T20:57:21Z</time>
      </trkpt>
      <trkpt lat="42.341528" lon="3.207165">
        <ele>58.082</ele>
        <time>2010-06-18T20:58:12Z</time>
      </trkpt>
      <trkpt lat="42.339050" lon="3.208077">
        <ele>65.054</ele>
        <time>2010-06-18T21:02:30Z</time>
      </trkpt>
      <trkpt lat="42.337785" lon="3.210137">
        <ele>81.067</ele>
        <time>2010-06-18T21:05:49Z</time>
      </trkpt>
      <trkpt lat="42.337962" lon="3.211655">
        <ele>70.081</ele>
        <time>2010-06-18T21:07:42Z</time>
      </trkpt>
      <trkpt lat="42.337150" lon="3.212744">
        <ele>97.019</ele>
        <time>2010-06-18T21:09:37Z</time>
      </trkpt>
      <trkpt lat="42.336203" lon="3.213530">
        <ele>107.006</ele>
        <time>2010-06-18T21:11:28Z</time>
      </trkpt>
      <trkpt lat="42.335482" lon="3.213588">
        <ele>112.035</ele>
        <time>2010-06-18T21:12:40Z</time>
      </trkpt>
      <trkpt lat="42.335256" lon="3.213891">
        <ele>111.022</ele>
        <time>2010-06-18T21:13:12Z</time>
      </trkpt>
      <trkpt lat="42.334581" lon="3.213646">
        <ele>122.099</ele>
        <time>2010-06-18T21:14:22Z</time>
      </trkpt>
      <trkpt lat="42.335165" lon="3.214801">
        <ele>106.087</ele>
        <time>2010-06-18T21:16:05Z</time>
      </trkpt>
      <trkpt lat="42.330652" lon="3.220005">
        <ele>169.095</ele>
        <time>2010-06-18T21:25:59Z</time>
      </trkpt>
      <trkpt lat="42.330380" lon="3.220975">
        <ele>174.077</ele>
        <time>2010-06-18T21:27:15Z</time>
      </trkpt>
      <trkpt lat="42.328891" lon="3.222305">
        <ele>184.099</ele>
        <time>2010-06-18T21:30:14Z</time>
      </trkpt>
      <trkpt lat="42.328845" lon="3.222912">
        <ele>181.007</ele>
        <time>2010-06-18T21:30:58Z</time>
      </trkpt>
      <trkpt lat="42.328619" lon="3.223336">
        <ele>178.027</ele>
        <time>2010-06-18T21:31:38Z</time>
      </trkpt>
      <trkpt lat="42.328213" lon="3.223395">
        <ele>180.006</ele>
        <time>2010-06-18T21:32:18Z</time>
      </trkpt>
      <trkpt lat="42.327265" lon="3.224727">
        <ele>166.028</ele>
        <time>2010-06-18T21:34:35Z</time>
      </trkpt>
      <trkpt lat="42.327132" lon="3.223755">
        <ele>170.065</ele>
        <time>2010-06-18T21:35:48Z</time>
      </trkpt>
      <trkpt lat="42.326319" lon="3.225087">
        <ele>155.092</ele>
        <time>2010-06-18T21:37:57Z</time>
      </trkpt>
      <trkpt lat="42.325372" lon="3.225934">
        <ele>145.060</ele>
        <time>2010-06-18T21:39:50Z</time>
      </trkpt>
      <trkpt lat="42.325912" lon="3.225996">
        <ele>143.018</ele>
        <time>2010-06-18T21:40:44Z</time>
      </trkpt>
      <trkpt lat="42.325910" lon="3.226785">
        <ele>137.020</ele>
        <time>2010-06-18T21:41:43Z</time>
      </trkpt>
      <trkpt lat="42.326314" lon="3.227576">
        <ele>134.017</ele>
        <time>2010-06-18T21:42:54Z</time>
      </trkpt>
      <trkpt lat="42.325544" lon="3.230000">
        <ele>120.087</ele>
        <time>2010-06-18T21:46:09Z</time>
      </trkpt>
      <trkpt lat="42.325676" lon="3.231336">
        <ele>126.015</ele>
        <time>2010-06-18T21:47:49Z</time>
      </trkpt>
      <trkpt lat="42.325580" lon="3.234127">
        <ele>119.006</ele>
        <time>2010-06-18T21:51:16Z</time>
      </trkpt>
      <trkpt lat="42.325757" lon="3.235705">
        <ele>98.050</ele>
        <time>2010-06-18T21:53:14Z</time>
      </trkpt>
      <trkpt lat="42.324359" lon="3.236853">
        <ele>114.077</ele>
        <time>2010-06-18T21:55:56Z</time>
      </trkpt>
      <trkpt lat="42.323368" lon="3.236910">
        <ele>121.034</ele>
        <time>2010-06-18T21:57:37Z</time>
      </trkpt>
      <trkpt lat="42.323591" lon="3.238003">
        <ele>131.012</ele>
        <time>2010-06-18T21:59:01Z</time>
      </trkpt>
      <trkpt lat="42.325212" lon="3.237766">
        <ele>129.080</ele>
        <time>2010-06-18T22:01:43Z</time>
      </trkpt>
      <trkpt lat="42.326115" lon="3.237042">
        <ele>110.012</ele>
        <time>2010-06-18T22:03:28Z</time>
      </trkpt>
      <trkpt lat="42.326564" lon="3.237286">
        <ele>110.015</ele>
        <time>2010-06-18T22:04:16Z</time>
      </trkpt>
      <trkpt lat="42.326877" lon="3.238440">
        <ele>121.065</ele>
        <time>2010-06-18T22:05:47Z</time>
      </trkpt>
      <trkpt lat="42.327284" lon="3.237714">
        <ele>115.011</ele>
        <time>2010-06-18T22:06:55Z</time>
      </trkpt>
      <trkpt lat="42.327915" lon="3.237534">
        <ele>104.006</ele>
        <time>2010-06-18T22:08:00Z</time>
      </trkpt>
      <trkpt lat="42.328994" lon="3.238145">
        <ele>89.030</ele>
        <time>2010-06-18T22:09:57Z</time>
      </trkpt>
      <trkpt lat="42.327768" lon="3.243238">
        <ele>114.077</ele>
        <time>2010-06-18T22:16:33Z</time>
      </trkpt>
      <trkpt lat="42.329702" lon="3.244034">
        <ele>124.054</ele>
        <time>2010-06-18T22:19:55Z</time>
      </trkpt>
      <trkpt lat="42.330650" lon="3.243128">
        <ele>113.022</ele>
        <time>2010-06-18T22:21:52Z</time>
      </trkpt>
      <trkpt lat="42.330957" lon="3.246952">
        <ele>27.070</ele>
        <time>2010-06-18T22:26:35Z</time>
      </trkpt>
      <trkpt lat="42.330505" lon="3.247800">
        <ele>16.012</ele>
        <time>2010-06-18T22:27:54Z</time>
      </trkpt>
      <trkpt lat="42.330457" lon="3.248892">
        <ele>9.011</ele>
        <time>2010-06-18T22:29:14Z</time>
      </trkpt>
      <trkpt lat="42.329331" lon="3.249131">
        <ele>5.021</ele>
        <time>2010-06-18T22:31:09Z</time>
      </trkpt>
      <trkpt lat="42.329506" lon="3.251498">
        <ele>12.003</ele>
        <time>2010-06-18T22:34:04Z</time>
      </trkpt>
      <trkpt lat="42.328961" lon="3.253499">
        <ele>78.006</ele>
        <time>2010-06-18T22:36:43Z</time>
      </trkpt>
      <trkpt lat="42.328286" lon="3.253374">
        <ele>86.070</ele>
        <time>2010-06-18T22:37:50Z</time>
      </trkpt>
      <trkpt lat="42.325895" lon="3.255549">
        <ele>104.027</ele>
        <time>2010-06-18T22:42:38Z</time>
      </trkpt>
      <trkpt lat="42.326027" lon="3.256582">
        <ele>102.064</ele>
        <time>2010-06-18T22:43:56Z</time>
      </trkpt>
      <trkpt lat="42.325440" lon="3.257672">
        <ele>106.042</ele>
        <time>2010-06-18T22:45:35Z</time>
      </trkpt>
      <trkpt lat="42.324673" lon="3.257972">
        <ele>106.040</ele>
        <time>2010-06-18T22:46:56Z</time>
      </trkpt>
      <trkpt lat="42.323995" lon="3.259425">
        <ele>111.092</ele>
        <time>2010-06-18T22:49:02Z</time>
      </trkpt>
      <trkpt lat="42.323990" lon="3.261367">
        <ele>115.057</ele>
        <time>2010-06-18T22:51:27Z</time>
      </trkpt>
      <trkpt lat="42.322817" lon="3.262394">
        <ele>123.000</ele>
        <time>2010-06-18T22:53:47Z</time>
      </trkpt>
      <trkpt lat="42.322323" lon="3.261846">
        <ele>124.020</ele>
        <time>2010-06-18T22:54:50Z</time>
      </trkpt>
      <trkpt lat="42.321509" lon="3.263238">
        <ele>116.006</ele>
        <time>2010-06-18T22:57:02Z</time>
      </trkpt>
      <trkpt lat="42.320699" lon="3.263235">
        <ele>114.084</ele>
        <time>2010-06-18T22:58:22Z</time>
      </trkpt>
      <trkpt lat="42.321057" lon="3.263964">
        <ele>111.091</ele>
        <time>2010-06-18T22:59:27Z</time>
      </trkpt>
      <trkpt lat="42.320875" lon="3.264874">
        <ele>107.048</ele>
        <time>2010-06-18T23:00:37Z</time>
      </trkpt>
      <trkpt lat="42.321864" lon="3.265667">
        <ele>97.036</ele>
        <time>2010-06-18T23:02:32Z</time>
      </trkpt>
      <trkpt lat="42.323392" lon="3.266705">
        <ele>106.054</ele>
        <time>2010-06-18T23:05:24Z</time>
      </trkpt>
      <trkpt lat="42.323346" lon="3.267416">
        <ele>106.066</ele>
        <time>2010-06-18T23:06:17Z</time>
      </trkpt>
      <trkpt lat="42.323210" lon="3.267901">
        <ele>107.085</ele>
        <time>2010-06-18T23:06:55Z</time>
      </trkpt>
      <trkpt lat="42.323253" lon="3.268447">
        <ele>108.089</ele>
        <time>2010-06-18T23:07:36Z</time>
      </trkpt>
      <trkpt lat="42.322982" lon="3.268871">
        <ele>113.017</ele>
        <time>2010-06-18T23:08:17Z</time>
      </trkpt>
      <trkpt lat="42.323069" lon="3.270024">
        <ele>126.006</ele>
        <time>2010-06-18T23:09:43Z</time>
      </trkpt>
      <trkpt lat="42.322708" lon="3.270690">
        <ele>127.037</ele>
        <time>2010-06-18T23:10:44Z</time>
      </trkpt>
      <trkpt lat="42.322661" lon="3.271418">
        <ele>127.064</ele>
        <time>2010-06-18T23:11:38Z</time>
      </trkpt>
      <trkpt lat="42.322929" lon="3.272208">
        <ele>121.091</ele>
        <time>2010-06-18T23:12:42Z</time>
      </trkpt>
      <trkpt lat="42.322567" lon="3.272874">
        <ele>120.089</ele>
        <time>2010-06-18T23:13:44Z</time>
      </trkpt>
      <trkpt lat="42.321891" lon="3.273114">
        <ele>120.087</ele>
        <time>2010-06-18T23:14:54Z</time>
      </trkpt>
      <trkpt lat="42.321484" lon="3.273840">
        <ele>106.039</ele>
        <time>2010-06-18T23:16:01Z</time>
      </trkpt>
      <trkpt lat="42.322158" lon="3.274389">
        <ele>108.095</ele>
        <time>2010-06-18T23:17:19Z</time>
      </trkpt>
      <trkpt lat="42.321887" lon="3.274813">
        <ele>106.049</ele>
        <time>2010-06-18T23:18:00Z</time>
      </trkpt>
      <trkpt lat="42.322065" lon="3.275784">
        <ele>111.023</ele>
        <time>2010-06-18T23:19:15Z</time>
      </trkpt>
      <trkpt lat="42.321656" lon="3.277300">
        <ele>113.006</ele>
        <time>2010-06-18T23:21:14Z</time>
      </trkpt>
      <trkpt lat="42.319671" lon="3.278808">
        <ele>95.098</ele>
        <time>2010-06-18T23:25:02Z</time>
      </trkpt>
      <trkpt lat="42.318725" lon="3.278864">
        <ele>104.025</ele>
        <time>2010-06-18T23:26:36Z</time>
      </trkpt>
      <trkpt lat="42.318543" lon="3.279592">
        <ele>100.062</ele>
        <time>2010-06-18T23:27:33Z</time>
      </trkpt>
      <trkpt lat="42.317597" lon="3.280012">
        <ele>111.060</ele>
        <time>2010-06-18T23:29:14Z</time>
      </trkpt>
      <trkpt lat="42.316512" lon="3.281767">
        <ele>98.058</ele>
        <time>2010-06-18T23:32:02Z</time>
      </trkpt>
      <trkpt lat="42.318352" lon="3.284020">
        <ele>94.060</ele>
        <time>2010-06-18T23:36:11Z</time>
      </trkpt>
      <trkpt lat="42.318076" lon="3.286628">
        <ele>71.069</ele>
        <time>2010-06-18T23:39:26Z</time>
      </trkpt>
      <trkpt lat="42.314829" lon="3.288251">
        <ele>88.004</ele>
        <time>2010-06-18T23:45:13Z</time>
      </trkpt>
      <trkpt lat="42.316494" lon="3.288805">
        <ele>79.024</ele>
        <time>2010-06-18T23:48:04Z</time>
      </trkpt>
      <trkpt lat="42.317257" lon="3.289840">
        <ele>83.006</ele>
        <time>2010-06-18T23:49:52Z</time>
      </trkpt>
      <trkpt lat="42.318068" lon="3.289723">
        <ele>89.095</ele>
        <time>2010-06-18T23:51:13Z</time>
      </trkpt>
      <trkpt lat="42.318292" lon="3.290209">
        <ele>90.012</ele>
        <time>2010-06-18T23:51:56Z</time>
      </trkpt>
      <trkpt lat="42.317794" lon="3.291299">
        <ele>97.089</ele>
        <time>2010-06-18T23:53:30Z</time>
      </trkpt>
      <trkpt lat="42.318509" lon="3.293183">
        <ele>100.037</ele>
        <time>2010-06-18T23:56:08Z</time>
      </trkpt>
      <trkpt lat="42.319635" lon="3.293310">
        <ele>95.045</ele>
        <time>2010-06-18T23:58:01Z</time>
      </trkpt>
      <trkpt lat="42.320172" lon="3.294708">
        <ele>94.017</ele>
        <time>2010-06-18T23:59:57Z</time>
      </trkpt>
      <trkpt lat="42.320711" lon="3.295135">
        <ele>90.056</ele>
        <time>2010-06-19T00:00:59Z</time>
      </trkpt>
      <trkpt lat="42.321432" lon="3.294835">
        <ele>86.059</ele>
        <time>2010-06-19T00:02:16Z</time>
      </trkpt>
      <trkpt lat="42.321656" lon="3.295200">
        <ele>76.014</ele>
        <time>2010-06-19T00:02:51Z</time>
      </trkpt>
      <trkpt lat="42.321655" lon="3.295807">
        <ele>69.006</ele>
        <time>2010-06-19T00:03:35Z</time>
      </trkpt>
      <trkpt lat="42.321426" lon="3.297262">
        <ele>63.014</ele>
        <time>2010-06-19T00:05:25Z</time>
      </trkpt>
      <trkpt lat="42.320341" lon="3.298774">
        <ele>63.031</ele>
        <time>2010-06-19T00:08:01Z</time>
      </trkpt>
      <trkpt lat="42.318935" lon="3.302651">
        <ele>58.088</ele>
        <time>2010-06-19T00:13:21Z</time>
      </trkpt>
      <trkpt lat="42.319735" lon="3.306781">
        <ele>55.066</ele>
        <time>2010-06-19T00:18:36Z</time>
      </trkpt>
      <trkpt lat="42.319775" lon="3.308601">
        <ele>46.044</ele>
        <time>2010-06-19T00:20:52Z</time>
      </trkpt>
      <trkpt lat="42.318781" lon="3.309567">
        <ele>26.016</ele>
        <time>2010-06-19T00:22:54Z</time>
      </trkpt>
      <trkpt lat="42.318735" lon="3.310053">
        <ele>18.039</ele>
        <time>2010-06-19T00:23:31Z</time>
      </trkpt>
      <trkpt lat="42.319275" lon="3.310237">
        <ele>26.001</ele>
        <time>2010-06-19T00:24:26Z</time>
      </trkpt>
      <trkpt lat="42.319499" lon="3.310602">
        <ele>25.021</ele>
        <time>2010-06-19T00:25:02Z</time>
      </trkpt>
      <trkpt lat="42.319132" lon="3.313210">
        <ele>30.006</ele>
        <time>2010-06-19T00:28:17Z</time>
      </trkpt>
      <trkpt lat="42.318410" lon="3.313570">
        <ele>23.082</ele>
        <time>2010-06-19T00:29:35Z</time>
      </trkpt>
      <trkpt lat="42.318544" lon="3.313935">
        <ele>33.099</ele>
        <time>2010-06-19T00:30:04Z</time>
      </trkpt>
      <trkpt lat="42.319400" lon="3.313757">
        <ele>45.036</ele>
        <time>2010-06-19T00:31:32Z</time>
      </trkpt>
      <trkpt lat="42.319983" lon="3.314731">
        <ele>53.094</ele>
        <time>2010-06-19T00:33:05Z</time>
      </trkpt>
      <trkpt lat="42.319262" lon="3.314970">
        <ele>65.052</ele>
        <time>2010-06-19T00:34:19Z</time>
      </trkpt>
      <trkpt lat="43.391426" lon="-1.792366">
        <ele>42.467</ele>
        <time>2013-12-04T10:15:39Z</time>
      </trkpt>
      <trkpt lat="43.392227" lon="-1.792443">
        <ele>31.981</ele>
        <time>2013-12-04T10:18:20Z</time>
      </trkpt>
      <trkpt lat="43.391342" lon="-1.792328">
        <ele>41.019</ele>
        <time>2013-12-04T10:19:58Z</time>
      </trkpt>
      <trkpt lat="43.390961" lon="-1.794815">
        <ele>41.507</ele>
        <time>2013-12-04T10:22:51Z</time>
      </trkpt>
      <trkpt lat="43.390610" lon="-1.795776">
        <ele>42.031</ele>
        <time>2013-12-04T10:23:58Z</time>
      </trkpt>
      <trkpt lat="43.389629" lon="-1.796105">
        <ele>36.273</ele>
        <time>2013-12-04T10:25:33Z</time>
      </trkpt>
      <trkpt lat="43.389671" lon="-1.796636">
        <ele>31.988</ele>
        <time>2013-12-04T10:26:07Z</time>
      </trkpt>
      <trkpt lat="43.390160" lon="-1.797732">
        <ele>34.395</ele>
        <time>2013-12-04T10:27:27Z</time>
      </trkpt>
      <trkpt lat="43.390308" lon="-1.799329">
        <ele>41.078</ele>
        <time>2013-12-04T10:29:19Z</time>
      </trkpt>
      <trkpt lat="43.390022" lon="-1.799850">
        <ele>43.431</ele>
        <time>2013-12-04T10:30:34Z</time>
      </trkpt>
      <trkpt lat="43.389797" lon="-1.799963">
        <ele>42.972</ele>
        <time>2013-12-04T10:30:55Z</time>
      </trkpt>
      <trkpt lat="43.389706" lon="-1.800651">
        <ele>36.741</ele>
        <time>2013-12-04T10:31:40Z</time>
      </trkpt>
      <trkpt lat="43.389099" lon="-1.800701">
        <ele>40.081</ele>
        <time>2013-12-04T10:33:07Z</time>
      </trkpt>
      <trkpt lat="43.388603" lon="-1.801397">
        <ele>38.109</ele>
        <time>2013-12-04T10:34:34Z</time>
      </trkpt>
      <trkpt lat="43.388298" lon="-1.802319">
        <ele>27.507</ele>
        <time>2013-12-04T10:35:43Z</time>
      </trkpt>
      <trkpt lat="43.387627" lon="-1.802701">
        <ele>15.049</ele>
        <time>2013-12-04T10:38:06Z</time>
      </trkpt>
      <trkpt lat="43.387699" lon="-1.802942">
        <ele>18.471</ele>
        <time>2013-12-04T10:38:28Z</time>
      </trkpt>
      <trkpt lat="43.387474" lon="-1.803555">
        <ele>25.646</ele>
        <time>2013-12-04T10:39:24Z</time>
      </trkpt>
      <trkpt lat="43.387814" lon="-1.804339">
        <ele>20.383</ele>
        <time>2013-12-04T10:40:36Z</time>
      </trkpt>
      <trkpt lat="43.387722" lon="-1.804653">
        <ele>17.926</ele>
        <time>2013-12-04T10:41:01Z</time>
      </trkpt>
      <trkpt lat="43.387894" lon="-1.804721">
        <ele>13.629</ele>
        <time>2013-12-04T10:41:23Z</time>
      </trkpt>
      <trkpt lat="43.387100" lon="-1.805531">
        <ele>24.250</ele>
        <time>2013-12-04T10:43:49Z</time>
      </trkpt>
      <trkpt lat="43.387238" lon="-1.805973">
        <ele>33.337</ele>
        <time>2013-12-04T10:44:50Z</time>
      </trkpt>
      <trkpt lat="43.387024" lon="-1.806139">
        <ele>41.549</ele>
        <time>2013-12-04T10:45:30Z</time>
      </trkpt>
      <trkpt lat="43.387180" lon="-1.806687">
        <ele>42.913</ele>
        <time>2013-12-04T10:46:17Z</time>
      </trkpt>
      <trkpt lat="43.387077" lon="-1.807005">
        <ele>46.807</ele>
        <time>2013-12-04T10:46:43Z</time>
      </trkpt>
      <trkpt lat="43.387302" lon="-1.807394">
        <ele>45.828</ele>
        <time>2013-12-04T10:47:18Z</time>
      </trkpt>
      <trkpt lat="43.387142" lon="-1.808028">
        <ele>51.680</ele>
        <time>2013-12-04T10:48:37Z</time>
      </trkpt>
      <trkpt lat="43.386932" lon="-1.808299">
        <ele>53.555</ele>
        <time>2013-12-04T10:49:11Z</time>
      </trkpt>
      <trkpt lat="43.387054" lon="-1.809078">
        <ele>50.182</ele>
        <time>2013-12-04T10:50:33Z</time>
      </trkpt>
      <trkpt lat="43.386681" lon="-1.809650">
        <ele>62.155</ele>
        <time>2013-12-04T10:51:41Z</time>
      </trkpt>
      <trkpt lat="43.386650" lon="-1.810041">
        <ele>62.698</ele>
        <time>2013-12-04T10:52:27Z</time>
      </trkpt>
      <trkpt lat="43.386154" lon="-1.811233">
        <ele>60.239</ele>
        <time>2013-12-04T10:54:45Z</time>
      </trkpt>
      <trkpt lat="43.386520" lon="-1.813272">
        <ele>42.015</ele>
        <time>2013-12-04T10:57:27Z</time>
      </trkpt>
      <trkpt lat="43.386349" lon="-1.813338">
        <ele>39.665</ele>
        <time>2013-12-04T10:57:50Z</time>
      </trkpt>
      <trkpt lat="43.386333" lon="-1.813761">
        <ele>29.011</ele>
        <time>2013-12-04T10:58:40Z</time>
      </trkpt>
      <trkpt lat="43.386101" lon="-1.813354">
        <ele>22.707</ele>
        <time>2013-12-04T10:59:23Z</time>
      </trkpt>
      <trkpt lat="43.386013" lon="-1.814174">
        <ele>10.286</ele>
        <time>2013-12-04T11:06:20Z</time>
      </trkpt>
      <trkpt lat="43.385490" lon="-1.813972">
        <ele>19.878</ele>
        <time>2013-12-04T11:07:39Z</time>
      </trkpt>
      <trkpt lat="43.384750" lon="-1.814011">
        <ele>41.013</ele>
        <time>2013-12-04T11:09:31Z</time>
      </trkpt>
      <trkpt lat="43.384705" lon="-1.813841">
        <ele>41.060</ele>
        <time>2013-12-04T11:09:53Z</time>
      </trkpt>
      <trkpt lat="43.384724" lon="-1.814277">
        <ele>42.443</ele>
        <time>2013-12-04T11:10:43Z</time>
      </trkpt>
      <trkpt lat="43.384937" lon="-1.814734">
        <ele>43.436</ele>
        <time>2013-12-04T11:11:24Z</time>
      </trkpt>
      <trkpt lat="43.384727" lon="-1.815705">
        <ele>41.547</ele>
        <time>2013-12-04T11:12:37Z</time>
      </trkpt>
      <trkpt lat="43.384087" lon="-1.816823">
        <ele>38.188</ele>
        <time>2013-12-04T11:14:10Z</time>
      </trkpt>
      <trkpt lat="43.384052" lon="-1.817071">
        <ele>38.624</ele>
        <time>2013-12-04T11:14:28Z</time>
      </trkpt>
      <trkpt lat="43.384300" lon="-1.817356">
        <ele>39.626</ele>
        <time>2013-12-04T11:15:03Z</time>
      </trkpt>
      <trkpt lat="43.384407" lon="-1.817765">
        <ele>42.907</ele>
        <time>2013-12-04T11:15:28Z</time>
      </trkpt>
      <trkpt lat="43.384159" lon="-1.818253">
        <ele>48.783</ele>
        <time>2013-12-04T11:16:16Z</time>
      </trkpt>
      <trkpt lat="43.383446" lon="-1.818835">
        <ele>56.445</ele>
        <time>2013-12-04T11:17:40Z</time>
      </trkpt>
      <trkpt lat="43.382725" lon="-1.818901">
        <ele>65.510</ele>
        <time>2013-12-04T11:18:56Z</time>
      </trkpt>
      <trkpt lat="43.382343" lon="-1.819329">
        <ele>72.287</ele>
        <time>2013-12-04T11:19:52Z</time>
      </trkpt>
      <trkpt lat="43.381992" lon="-1.819107">
        <ele>76.640</ele>
        <time>2013-12-04T11:20:34Z</time>
      </trkpt>
      <trkpt lat="43.381634" lon="-1.819175">
        <ele>81.923</ele>
        <time>2013-12-04T11:21:14Z</time>
      </trkpt>
      <trkpt lat="43.380852" lon="-1.819812">
        <ele>91.554</ele>
        <time>2013-12-04T11:22:43Z</time>
      </trkpt>
      <trkpt lat="43.380684" lon="-1.819789">
        <ele>95.325</ele>
        <time>2013-12-04T11:22:56Z</time>
      </trkpt>
      <trkpt lat="43.380081" lon="-1.819001">
        <ele>101.126</ele>
        <time>2013-12-04T11:26:31Z</time>
      </trkpt>
      <trkpt lat="43.379677" lon="-1.818826">
        <ele>105.408</ele>
        <time>2013-12-04T11:27:13Z</time>
      </trkpt>
      <trkpt lat="43.378262" lon="-1.818663">
        <ele>120.807</ele>
        <time>2013-12-04T11:29:29Z</time>
      </trkpt>
      <trkpt lat="43.377415" lon="-1.818861">
        <ele>129.077</ele>
        <time>2013-12-04T11:30:55Z</time>
      </trkpt>
      <trkpt lat="43.376598" lon="-1.818560">
        <ele>137.669</ele>
        <time>2013-12-04T11:32:35Z</time>
      </trkpt>
      <trkpt lat="43.376316" lon="-1.818685">
        <ele>139.194</ele>
        <time>2013-12-04T11:33:18Z</time>
      </trkpt>
      <trkpt lat="43.375568" lon="-1.818621">
        <ele>140.081</ele>
        <time>2013-12-04T11:34:36Z</time>
      </trkpt>
      <trkpt lat="43.374321" lon="-1.818144">
        <ele>154.074</ele>
        <time>2013-12-04T11:37:16Z</time>
      </trkpt>
      <trkpt lat="43.373615" lon="-1.818113">
        <ele>166.057</ele>
        <time>2013-12-04T11:38:22Z</time>
      </trkpt>
      <trkpt lat="43.373127" lon="-1.817767">
        <ele>168.998</ele>
        <time>2013-12-04T11:40:45Z</time>
      </trkpt>
      <trkpt lat="43.372314" lon="-1.817995">
        <ele>171.314</ele>
        <time>2013-12-04T11:42:35Z</time>
      </trkpt>
      <trkpt lat="43.372105" lon="-1.818211">
        <ele>173.254</ele>
        <time>2013-12-04T11:43:00Z</time>
      </trkpt>
      <trkpt lat="43.372162" lon="-1.818709">
        <ele>177.009</ele>
        <time>2013-12-04T11:43:41Z</time>
      </trkpt>
      <trkpt lat="43.372051" lon="-1.818928">
        <ele>178.907</ele>
        <time>2013-12-04T11:44:01Z</time>
      </trkpt>
      <trkpt lat="43.371193" lon="-1.819362">
        <ele>186.686</ele>
        <time>2013-12-04T11:45:24Z</time>
      </trkpt>
      <trkpt lat="43.370564" lon="-1.819504">
        <ele>195.398</ele>
        <time>2013-12-04T11:46:24Z</time>
      </trkpt>
      <trkpt lat="43.370262" lon="-1.819783">
        <ele>199.193</ele>
        <time>2013-12-04T11:47:04Z</time>
      </trkpt>
      <trkpt lat="43.368877" lon="-1.819907">
        <ele>199.660</ele>
        <time>2013-12-04T11:49:54Z</time>
      </trkpt>
      <trkpt lat="43.368866" lon="-1.819677">
        <ele>201.533</ele>
        <time>2013-12-04T11:50:10Z</time>
      </trkpt>
      <trkpt lat="43.368553" lon="-1.819293">
        <ele>204.426</ele>
        <time>2013-12-04T11:50:59Z</time>
      </trkpt>
      <trkpt lat="43.368145" lon="-1.819458">
        <ele>204.997</ele>
        <time>2013-12-04T11:51:56Z</time>
      </trkpt>
      <trkpt lat="43.367428" lon="-1.820781">
        <ele>194.355</ele>
        <time>2013-12-04T11:55:00Z</time>
      </trkpt>
      <trkpt lat="43.367580" lon="-1.821282">
        <ele>194.307</ele>
        <time>2013-12-04T11:55:58Z</time>
      </trkpt>
      <trkpt lat="43.367252" lon="-1.821600">
        <ele>192.917</ele>
        <time>2013-12-04T11:56:29Z</time>
      </trkpt>
      <trkpt lat="43.366936" lon="-1.821510">
        <ele>191.907</ele>
        <time>2013-12-04T11:56:57Z</time>
      </trkpt>
      <trkpt lat="43.366711" lon="-1.820881">
        <ele>188.690</ele>
        <time>2013-12-04T11:58:01Z</time>
      </trkpt>
      <trkpt lat="43.366989" lon="-1.820579">
        <ele>188.122</ele>
        <time>2013-12-04T12:00:33Z</time>
      </trkpt>
      <trkpt lat="43.367195" lon="-1.820588">
        <ele>191.937</ele>
        <time>2013-12-04T12:00:59Z</time>
      </trkpt>
      <trkpt lat="43.367775" lon="-1.819633">
        <ele>203.024</ele>
        <time>2013-12-04T12:02:32Z</time>
      </trkpt>
      <trkpt lat="43.368626" lon="-1.819228">
        <ele>202.537</ele>
        <time>2013-12-04T12:04:08Z</time>
      </trkpt>
      <trkpt lat="43.368736" lon="-1.818874">
        <ele>202.050</ele>
        <time>2013-12-04T12:04:43Z</time>
      </trkpt>
      <trkpt lat="43.369274" lon="-1.818720">
        <ele>202.091</ele>
        <time>2013-12-04T12:05:39Z</time>
      </trkpt>
      <trkpt lat="43.369907" lon="-1.817757">
        <ele>191.933</ele>
        <time>2013-12-04T12:07:44Z</time>
      </trkpt>
      <trkpt lat="43.370205" lon="-1.816523">
        <ele>195.323</ele>
        <time>2013-12-04T12:09:50Z</time>
      </trkpt>
      <trkpt lat="43.371109" lon="-1.816147">
        <ele>194.315</ele>
        <time>2013-12-04T12:11:22Z</time>
      </trkpt>
      <trkpt lat="43.371101" lon="-1.814824">
        <ele>166.007</ele>
        <time>2013-12-04T12:15:03Z</time>
      </trkpt>
      <trkpt lat="43.371349" lon="-1.814208">
        <ele>164.568</ele>
        <time>2013-12-04T12:16:12Z</time>
      </trkpt>
      <trkpt lat="43.372597" lon="-1.812360">
        <ele>144.310</ele>
        <time>2013-12-04T12:19:11Z</time>
      </trkpt>
      <trkpt lat="43.372723" lon="-1.811563">
        <ele>136.255</ele>
        <time>2013-12-04T12:21:43Z</time>
      </trkpt>
      <trkpt lat="43.373215" lon="-1.811537">
        <ele>137.642</ele>
        <time>2013-12-04T12:22:51Z</time>
      </trkpt>
      <trkpt lat="43.373680" lon="-1.811254">
        <ele>137.115</ele>
        <time>2013-12-04T12:23:36Z</time>
      </trkpt>
      <trkpt lat="43.374023" lon="-1.811430">
        <ele>136.678</ele>
        <time>2013-12-04T12:24:13Z</time>
      </trkpt>
      <trkpt lat="43.374981" lon="-1.811511">
        <ele>142.469</ele>
        <time>2013-12-04T12:25:51Z</time>
      </trkpt>
      <trkpt lat="43.375835" lon="-1.811213">
        <ele>143.412</ele>
        <time>2013-12-04T12:27:19Z</time>
      </trkpt>
      <trkpt lat="43.376400" lon="-1.811290">
        <ele>144.332</ele>
        <time>2013-12-04T12:28:12Z</time>
      </trkpt>
      <trkpt lat="43.376690" lon="-1.811108">
        <ele>141.905</ele>
        <time>2013-12-04T12:28:44Z</time>
      </trkpt>
      <trkpt lat="43.376972" lon="-1.810582">
        <ele>135.207</ele>
        <time>2013-12-04T12:29:29Z</time>
      </trkpt>
      <trkpt lat="43.376900" lon="-1.809811">
        <ele>133.376</ele>
        <time>2013-12-04T12:30:22Z</time>
      </trkpt>
      <trkpt lat="43.377068" lon="-1.809399">
        <ele>139.538</ele>
        <time>2013-12-04T12:31:06Z</time>
      </trkpt>
      <trkpt lat="43.377472" lon="-1.809092">
        <ele>143.473</ele>
        <time>2013-12-04T12:31:55Z</time>
      </trkpt>
      <trkpt lat="43.378906" lon="-1.807119">
        <ele>142.420</ele>
        <time>2013-12-04T12:35:33Z</time>
      </trkpt>
      <trkpt lat="43.380356" lon="-1.805995">
        <ele>135.263</ele>
        <time>2013-12-04T12:38:03Z</time>
      </trkpt>
      <trkpt lat="43.380981" lon="-1.805124">
        <ele>124.696</ele>
        <time>2013-12-04T12:39:23Z</time>
      </trkpt>
      <trkpt lat="43.381668" lon="-1.803162">
        <ele>121.717</ele>
        <time>2013-12-04T12:42:14Z</time>
      </trkpt>
      <trkpt lat="43.382092" lon="-1.802928">
        <ele>115.566</ele>
        <time>2013-12-04T12:42:49Z</time>
      </trkpt>
      <trkpt lat="43.382404" lon="-1.802384">
        <ele>114.129</ele>
        <time>2013-12-04T12:44:05Z</time>
      </trkpt>
      <trkpt lat="43.382500" lon="-1.801993">
        <ele>111.221</ele>
        <time>2013-12-04T12:44:31Z</time>
      </trkpt>
      <trkpt lat="43.382393" lon="-1.800802">
        <ele>104.907</ele>
        <time>2013-12-04T12:45:46Z</time>
      </trkpt>
      <trkpt lat="43.382946" lon="-1.799694">
        <ele>100.621</ele>
        <time>2013-12-04T12:47:09Z</time>
      </trkpt>
      <trkpt lat="43.384151" lon="-1.799767">
        <ele>95.323</ele>
        <time>2013-12-04T12:50:02Z</time>
      </trkpt>
      <trkpt lat="43.384373" lon="-1.799623">
        <ele>95.828</ele>
        <time>2013-12-04T12:50:23Z</time>
      </trkpt>
      <trkpt lat="43.384869" lon="-1.799081">
        <ele>94.865</ele>
        <time>2013-12-04T12:51:19Z</time>
      </trkpt>
      <trkpt lat="43.385544" lon="-1.797684">
        <ele>95.348</ele>
        <time>2013-12-04T12:53:12Z</time>
      </trkpt>
      <trkpt lat="43.386639" lon="-1.796523">
        <ele>91.911</ele>
        <time>2013-12-04T12:55:23Z</time>
      </trkpt>
      <trkpt lat="43.386856" lon="-1.796455">
        <ele>91.582</ele>
        <time>2013-12-04T12:55:43Z</time>
      </trkpt>
      <trkpt lat="43.387249" lon="-1.796641">
        <ele>86.757</ele>
        <time>2013-12-04T12:56:18Z</time>
      </trkpt>
      <trkpt lat="43.387581" lon="-1.796560">
        <ele>81.900</ele>
        <time>2013-12-04T12:56:46Z</time>
      </trkpt>
      <trkpt lat="43.387753" lon="-1.796777">
        <ele>76.120</ele>
        <time>2013-12-04T12:57:47Z</time>
      </trkpt>
      <trkpt lat="43.387993" lon="-1.796148">
        <ele>69.807</ele>
        <time>2013-12-04T12:59:11Z</time>
      </trkpt>
      <trkpt lat="43.388832" lon="-1.795449">
        <ele>64.690</ele>
        <time>2013-12-04T13:00:39Z</time>
      </trkpt>
      <trkpt lat="43.389465" lon="-1.795386">
        <ele>58.892</ele>
        <time>2013-12-04T13:01:40Z</time>
      </trkpt>
      <trkpt lat="43.390530" lon="-1.794927">
        <ele>50.137</ele>
        <time>2013-12-04T13:03:19Z</time>
      </trkpt>
      <trkpt lat="43.391121" lon="-1.793207">
        <ele>42.094</ele>
        <time>2013-12-04T13:05:30Z</time>
      </trkpt>
      <trkpt lat="43.391365" lon="-1.792974">
        <ele>41.067</ele>
        <time>2013-12-04T13:05:52Z</time>
      </trkpt>
      <trkpt lat="43.391586" lon="-1.791992">
        <ele>38.610</ele>
        <time>2013-12-04T13:07:05Z</time>
      </trkpt>
      <trkpt lat="43.391457" lon="-1.791771">
        <ele>40.581</ele>
        <time>2013-12-04T13:07:36Z</time>
      </trkpt>
      <trkpt lat="43.391457" lon="-1.792138">
        <ele>40.037</ele>
        <time>2013-12-04T13:08:00Z</time>
      </trkpt>
    </trkseg>
  </trk>
</gpx>
